<?xml version="1.0" encoding="UTF-8" standalone="no" ?>
<gpx xmlns="http://www.topografix.com/GPX/1/1" xmlns:xsi="http://www.w3.org/2001/XMLSchema-instance" xsi:schemaLocation="http://www.topografix.com/GPX/1/1 http://www.topografix.com/GPX/1/1/gpx.xsd" version="1.1" creator="VisuGPX - https://www.visugpx.com">
  <metadata>
    <name>Bruxelles-Kaliningrad 21: Dąbki -&amp;gt; Słupsk</name>
  </metadata>
  <trk>
    <name><![CDATA[Day 21: Dąbki -> Słupsk]]></name>
    <extensions>
      <line xmlns="http://www.topografix.com/GPX/gpx_style/0/2">
        <color>0000FF</color>
        <width>4</width>
      </line>
    </extensions>
    <trkseg>
      <trkpt lat="54.37989" lon="16.32535">
        <ele>37.451936</ele>
        <time>2024-07-31T07:33:21.099Z</time>
      </trkpt>
      <trkpt lat="54.37999" lon="16.32532">
        <ele>37.451936</ele>
        <time>2024-07-31T07:33:21.773Z</time>
      </trkpt>
      <trkpt lat="54.37987" lon="16.32529">
        <ele>37.451936</ele>
        <time>2024-07-31T07:34:02.816Z</time>
      </trkpt>
      <trkpt lat="54.37992" lon="16.32543">
        <ele>37.451936</ele>
        <time>2024-07-31T07:34:15.791Z</time>
      </trkpt>
      <trkpt lat="54.37999" lon="16.32553">
        <ele>37.451936</ele>
        <time>2024-07-31T07:34:24.790Z</time>
      </trkpt>
      <trkpt lat="54.38013" lon="16.32538">
        <ele>37.451936</ele>
        <time>2024-07-31T07:37:11.786Z</time>
      </trkpt>
      <trkpt lat="54.38019" lon="16.32526">
        <ele>37.451936</ele>
        <time>2024-07-31T07:37:15.802Z</time>
      </trkpt>
      <trkpt lat="54.38026" lon="16.32512">
        <ele>37.451936</ele>
        <time>2024-07-31T07:37:19.807Z</time>
      </trkpt>
      <trkpt lat="54.38032" lon="16.32498">
        <ele>37.451936</ele>
        <time>2024-07-31T07:37:23.814Z</time>
      </trkpt>
      <trkpt lat="54.38039" lon="16.32484">
        <ele>37.270556</ele>
        <time>2024-07-31T07:37:27.787Z</time>
      </trkpt>
      <trkpt lat="54.38046" lon="16.32468">
        <ele>37.019639</ele>
        <time>2024-07-31T07:37:31.795Z</time>
      </trkpt>
      <trkpt lat="54.38053" lon="16.32451">
        <ele>36.7463</ele>
        <time>2024-07-31T07:37:35.829Z</time>
      </trkpt>
      <trkpt lat="54.38059" lon="16.32436">
        <ele>36.521008</ele>
        <time>2024-07-31T07:37:38.796Z</time>
      </trkpt>
      <trkpt lat="54.38064" lon="16.32421">
        <ele>36.298316</ele>
        <time>2024-07-31T07:37:41.800Z</time>
      </trkpt>
      <trkpt lat="54.38069" lon="16.32405">
        <ele>36.07012</ele>
        <time>2024-07-31T07:37:44.802Z</time>
      </trkpt>
      <trkpt lat="54.38074" lon="16.32388">
        <ele>35.826024</ele>
        <time>2024-07-31T07:37:47.791Z</time>
      </trkpt>
      <trkpt lat="54.38079" lon="16.32374">
        <ele>35.616444</ele>
        <time>2024-07-31T07:37:50.788Z</time>
      </trkpt>
      <trkpt lat="54.3809" lon="16.32369">
        <ele>35.372859</ele>
        <time>2024-07-31T07:37:54.789Z</time>
      </trkpt>
      <trkpt lat="54.38099" lon="16.32378">
        <ele>35.150376</ele>
        <time>2024-07-31T07:37:58.798Z</time>
      </trkpt>
      <trkpt lat="54.38109" lon="16.32384">
        <ele>34.909644</ele>
        <time>2024-07-31T07:38:02.805Z</time>
      </trkpt>
      <trkpt lat="54.38119" lon="16.32388">
        <ele>34.697816</ele>
        <time>2024-07-31T07:38:05.804Z</time>
      </trkpt>
      <trkpt lat="54.38128" lon="16.32389">
        <ele>34.491247</ele>
        <time>2024-07-31T07:38:08.782Z</time>
      </trkpt>
      <trkpt lat="54.38139" lon="16.32392">
        <ele>34.250367</ele>
        <time>2024-07-31T07:38:12.799Z</time>
      </trkpt>
      <trkpt lat="54.3815" lon="16.32389">
        <ele>34.006784</ele>
        <time>2024-07-31T07:38:16.785Z</time>
      </trkpt>
      <trkpt lat="54.38158" lon="16.32384">
        <ele>33.805314</ele>
        <time>2024-07-31T07:38:19.808Z</time>
      </trkpt>
      <trkpt lat="54.38168" lon="16.32373">
        <ele>33.561059</ele>
        <time>2024-07-31T07:38:23.780Z</time>
      </trkpt>
      <trkpt lat="54.38178" lon="16.32362">
        <ele>33.541607</ele>
        <time>2024-07-31T07:38:27.801Z</time>
      </trkpt>
      <trkpt lat="54.38184" lon="16.32351">
        <ele>33.569856</ele>
        <time>2024-07-31T07:38:30.804Z</time>
      </trkpt>
      <trkpt lat="54.38193" lon="16.32346">
        <ele>33.59826</ele>
        <time>2024-07-31T07:38:33.792Z</time>
      </trkpt>
      <trkpt lat="54.38202" lon="16.32344">
        <ele>33.626216</ele>
        <time>2024-07-31T07:38:36.790Z</time>
      </trkpt>
      <trkpt lat="54.38214" lon="16.32341">
        <ele>33.663658</ele>
        <time>2024-07-31T07:38:40.796Z</time>
      </trkpt>
      <trkpt lat="54.38224" lon="16.32338">
        <ele>33.696105</ele>
        <time>2024-07-31T07:38:44.816Z</time>
      </trkpt>
      <trkpt lat="54.38235" lon="16.32338">
        <ele>33.72793</ele>
        <time>2024-07-31T07:38:48.812Z</time>
      </trkpt>
      <trkpt lat="54.38245" lon="16.32341">
        <ele>33.760789</ele>
        <time>2024-07-31T07:38:52.796Z</time>
      </trkpt>
      <trkpt lat="54.38257" lon="16.32343">
        <ele>33.79676</ele>
        <time>2024-07-31T07:38:56.795Z</time>
      </trkpt>
      <trkpt lat="54.38266" lon="16.3234">
        <ele>33.825597</ele>
        <time>2024-07-31T07:39:01.819Z</time>
      </trkpt>
      <trkpt lat="54.38276" lon="16.32335">
        <ele>33.857286</ele>
        <time>2024-07-31T07:39:04.790Z</time>
      </trkpt>
      <trkpt lat="54.38286" lon="16.32329">
        <ele>33.891421</ele>
        <time>2024-07-31T07:39:07.826Z</time>
      </trkpt>
      <trkpt lat="54.38295" lon="16.32323">
        <ele>33.921316</ele>
        <time>2024-07-31T07:39:10.802Z</time>
      </trkpt>
      <trkpt lat="54.38302" lon="16.32314">
        <ele>33.948995</ele>
        <time>2024-07-31T07:39:13.795Z</time>
      </trkpt>
      <trkpt lat="54.38311" lon="16.32303">
        <ele>33.982208</ele>
        <time>2024-07-31T07:39:17.793Z</time>
      </trkpt>
      <trkpt lat="54.38322" lon="16.32297">
        <ele>34.018272</ele>
        <time>2024-07-31T07:39:21.807Z</time>
      </trkpt>
      <trkpt lat="54.38332" lon="16.32295">
        <ele>34.049446</ele>
        <time>2024-07-31T07:39:25.802Z</time>
      </trkpt>
      <trkpt lat="54.38341" lon="16.3229">
        <ele>34.086543</ele>
        <time>2024-07-31T07:39:29.790Z</time>
      </trkpt>
      <trkpt lat="54.38351" lon="16.32287">
        <ele>34.138466</ele>
        <time>2024-07-31T07:39:35.789Z</time>
      </trkpt>
      <trkpt lat="54.38362" lon="16.32285">
        <ele>34.194498</ele>
        <time>2024-07-31T07:39:39.798Z</time>
      </trkpt>
      <trkpt lat="54.38371" lon="16.32287">
        <ele>34.24415</ele>
        <time>2024-07-31T07:39:42.814Z</time>
      </trkpt>
      <trkpt lat="54.38381" lon="16.32291">
        <ele>34.297106</ele>
        <time>2024-07-31T07:39:45.808Z</time>
      </trkpt>
      <trkpt lat="54.3839" lon="16.32294">
        <ele>34.349792</ele>
        <time>2024-07-31T07:39:48.797Z</time>
      </trkpt>
      <trkpt lat="54.38399" lon="16.32296">
        <ele>34.39852</ele>
        <time>2024-07-31T07:39:51.814Z</time>
      </trkpt>
      <trkpt lat="54.3841" lon="16.32299">
        <ele>34.456973</ele>
        <time>2024-07-31T07:39:55.811Z</time>
      </trkpt>
      <trkpt lat="54.38419" lon="16.32307">
        <ele>34.511276</ele>
        <time>2024-07-31T07:39:59.797Z</time>
      </trkpt>
      <trkpt lat="54.38425" lon="16.3232">
        <ele>34.563354</ele>
        <time>2024-07-31T07:40:04.793Z</time>
      </trkpt>
      <trkpt lat="54.38432" lon="16.32332">
        <ele>34.613653</ele>
        <time>2024-07-31T07:40:08.798Z</time>
      </trkpt>
      <trkpt lat="54.38438" lon="16.32344">
        <ele>34.664185</ele>
        <time>2024-07-31T07:40:13.784Z</time>
      </trkpt>
      <trkpt lat="54.38444" lon="16.3236">
        <ele>34.723311</ele>
        <time>2024-07-31T07:40:18.814Z</time>
      </trkpt>
      <trkpt lat="54.38451" lon="16.32378">
        <ele>34.788584</ele>
        <time>2024-07-31T07:40:22.782Z</time>
      </trkpt>
      <trkpt lat="54.38454" lon="16.32397">
        <ele>34.850305</ele>
        <time>2024-07-31T07:40:25.798Z</time>
      </trkpt>
      <trkpt lat="54.3846" lon="16.32416">
        <ele>34.914224</ele>
        <time>2024-07-31T07:40:28.783Z</time>
      </trkpt>
      <trkpt lat="54.38466" lon="16.32432">
        <ele>34.97573</ele>
        <time>2024-07-31T07:40:31.818Z</time>
      </trkpt>
      <trkpt lat="54.38473" lon="16.32449">
        <ele>35.008084</ele>
        <time>2024-07-31T07:40:34.812Z</time>
      </trkpt>
      <trkpt lat="54.38479" lon="16.32463">
        <ele>34.948907</ele>
        <time>2024-07-31T07:40:37.802Z</time>
      </trkpt>
      <trkpt lat="54.38487" lon="16.32478">
        <ele>34.886227</ele>
        <time>2024-07-31T07:40:40.809Z</time>
      </trkpt>
      <trkpt lat="54.38494" lon="16.32492">
        <ele>34.823393</ele>
        <time>2024-07-31T07:40:43.799Z</time>
      </trkpt>
      <trkpt lat="54.38502" lon="16.32508">
        <ele>34.755709</ele>
        <time>2024-07-31T07:40:46.787Z</time>
      </trkpt>
      <trkpt lat="54.3851" lon="16.32526">
        <ele>34.68281</ele>
        <time>2024-07-31T07:40:49.806Z</time>
      </trkpt>
      <trkpt lat="54.38518" lon="16.32542">
        <ele>34.615733</ele>
        <time>2024-07-31T07:40:52.794Z</time>
      </trkpt>
      <trkpt lat="54.38525" lon="16.32558">
        <ele>34.550738</ele>
        <time>2024-07-31T07:40:55.799Z</time>
      </trkpt>
      <trkpt lat="54.38532" lon="16.32575">
        <ele>34.48305</ele>
        <time>2024-07-31T07:40:58.807Z</time>
      </trkpt>
      <trkpt lat="54.3854" lon="16.32592">
        <ele>34.413799</ele>
        <time>2024-07-31T07:41:01.790Z</time>
      </trkpt>
      <trkpt lat="54.38547" lon="16.3261">
        <ele>34.34095</ele>
        <time>2024-07-31T07:41:04.794Z</time>
      </trkpt>
      <trkpt lat="54.38552" lon="16.32623">
        <ele>34.291259</ele>
        <time>2024-07-31T07:41:06.793Z</time>
      </trkpt>
      <trkpt lat="54.38561" lon="16.3264">
        <ele>34.217569</ele>
        <time>2024-07-31T07:41:09.799Z</time>
      </trkpt>
      <trkpt lat="54.38567" lon="16.32652">
        <ele>34.165986</ele>
        <time>2024-07-31T07:41:11.798Z</time>
      </trkpt>
      <trkpt lat="54.38575" lon="16.3267">
        <ele>34.092996</ele>
        <time>2024-07-31T07:41:14.795Z</time>
      </trkpt>
      <trkpt lat="54.38581" lon="16.32683">
        <ele>34.041152</ele>
        <time>2024-07-31T07:41:16.794Z</time>
      </trkpt>
      <trkpt lat="54.38589" lon="16.32701">
        <ele>34.088055</ele>
        <time>2024-07-31T07:41:19.799Z</time>
      </trkpt>
      <trkpt lat="54.38595" lon="16.32713">
        <ele>34.144439</ele>
        <time>2024-07-31T07:41:21.796Z</time>
      </trkpt>
      <trkpt lat="54.38603" lon="16.32731">
        <ele>34.227293</ele>
        <time>2024-07-31T07:41:24.791Z</time>
      </trkpt>
      <trkpt lat="54.38612" lon="16.32748">
        <ele>34.310826</ele>
        <time>2024-07-31T07:41:27.802Z</time>
      </trkpt>
      <trkpt lat="54.38618" lon="16.3276">
        <ele>34.367526</ele>
        <time>2024-07-31T07:41:29.802Z</time>
      </trkpt>
      <trkpt lat="54.38624" lon="16.32771">
        <ele>34.424061</ele>
        <time>2024-07-31T07:41:31.788Z</time>
      </trkpt>
      <trkpt lat="54.38634" lon="16.32787">
        <ele>34.508036</ele>
        <time>2024-07-31T07:41:34.782Z</time>
      </trkpt>
      <trkpt lat="54.38639" lon="16.32799">
        <ele>34.564736</ele>
        <time>2024-07-31T07:41:36.790Z</time>
      </trkpt>
      <trkpt lat="54.38647" lon="16.32818">
        <ele>34.649553</ele>
        <time>2024-07-31T07:41:39.792Z</time>
      </trkpt>
      <trkpt lat="54.38653" lon="16.32831">
        <ele>34.706065</ele>
        <time>2024-07-31T07:41:41.803Z</time>
      </trkpt>
      <trkpt lat="54.38658" lon="16.32845">
        <ele>34.766438</ele>
        <time>2024-07-31T07:41:43.801Z</time>
      </trkpt>
      <trkpt lat="54.38663" lon="16.32859">
        <ele>34.826887</ele>
        <time>2024-07-31T07:41:45.808Z</time>
      </trkpt>
      <trkpt lat="54.38669" lon="16.32872">
        <ele>34.888838</ele>
        <time>2024-07-31T07:41:47.805Z</time>
      </trkpt>
      <trkpt lat="54.38675" lon="16.32885">
        <ele>34.948762</ele>
        <time>2024-07-31T07:41:49.815Z</time>
      </trkpt>
      <trkpt lat="54.38681" lon="16.32898">
        <ele>35.009143</ele>
        <time>2024-07-31T07:41:51.794Z</time>
      </trkpt>
      <trkpt lat="54.38687" lon="16.32911">
        <ele>35.069396</ele>
        <time>2024-07-31T07:41:53.809Z</time>
      </trkpt>
      <trkpt lat="54.38694" lon="16.32924">
        <ele>35.131011</ele>
        <time>2024-07-31T07:41:55.802Z</time>
      </trkpt>
      <trkpt lat="54.387" lon="16.32937">
        <ele>35.097387</ele>
        <time>2024-07-31T07:41:57.811Z</time>
      </trkpt>
      <trkpt lat="54.38706" lon="16.3295">
        <ele>35.033576</ele>
        <time>2024-07-31T07:41:59.778Z</time>
      </trkpt>
      <trkpt lat="54.38712" lon="16.32963">
        <ele>34.970767</ele>
        <time>2024-07-31T07:42:01.796Z</time>
      </trkpt>
      <trkpt lat="54.38718" lon="16.32976">
        <ele>34.90523</ele>
        <time>2024-07-31T07:42:03.802Z</time>
      </trkpt>
      <trkpt lat="54.38725" lon="16.32989">
        <ele>34.839965</ele>
        <time>2024-07-31T07:42:05.795Z</time>
      </trkpt>
      <trkpt lat="54.38731" lon="16.33003">
        <ele>34.77169</ele>
        <time>2024-07-31T07:42:07.781Z</time>
      </trkpt>
      <trkpt lat="54.38737" lon="16.33016">
        <ele>34.707376</ele>
        <time>2024-07-31T07:42:09.805Z</time>
      </trkpt>
      <trkpt lat="54.38743" lon="16.33029">
        <ele>34.64255</ele>
        <time>2024-07-31T07:42:11.801Z</time>
      </trkpt>
      <trkpt lat="54.38749" lon="16.33042">
        <ele>34.578464</ele>
        <time>2024-07-31T07:42:13.815Z</time>
      </trkpt>
      <trkpt lat="54.38755" lon="16.33055">
        <ele>34.512774</ele>
        <time>2024-07-31T07:42:15.792Z</time>
      </trkpt>
      <trkpt lat="54.38761" lon="16.33068">
        <ele>34.44936</ele>
        <time>2024-07-31T07:42:17.794Z</time>
      </trkpt>
      <trkpt lat="54.38767" lon="16.33081">
        <ele>34.385325</ele>
        <time>2024-07-31T07:42:19.808Z</time>
      </trkpt>
      <trkpt lat="54.38773" lon="16.33095">
        <ele>34.319691</ele>
        <time>2024-07-31T07:42:21.793Z</time>
      </trkpt>
      <trkpt lat="54.3878" lon="16.33107">
        <ele>34.254865</ele>
        <time>2024-07-31T07:42:23.807Z</time>
      </trkpt>
      <trkpt lat="54.38785" lon="16.3312">
        <ele>34.190746</ele>
        <time>2024-07-31T07:42:25.816Z</time>
      </trkpt>
      <trkpt lat="54.38791" lon="16.33134">
        <ele>34.125825</ele>
        <time>2024-07-31T07:42:27.815Z</time>
      </trkpt>
      <trkpt lat="54.38797" lon="16.33147">
        <ele>34.062116</ele>
        <time>2024-07-31T07:42:29.803Z</time>
      </trkpt>
      <trkpt lat="54.38803" lon="16.3316">
        <ele>33.995567</ele>
        <time>2024-07-31T07:42:31.810Z</time>
      </trkpt>
      <trkpt lat="54.38809" lon="16.33173">
        <ele>33.974653</ele>
        <time>2024-07-31T07:42:33.802Z</time>
      </trkpt>
      <trkpt lat="54.38814" lon="16.33186">
        <ele>34.03238</ele>
        <time>2024-07-31T07:42:35.791Z</time>
      </trkpt>
      <trkpt lat="54.38823" lon="16.33204">
        <ele>34.119696</ele>
        <time>2024-07-31T07:42:38.811Z</time>
      </trkpt>
      <trkpt lat="54.38829" lon="16.33217">
        <ele>34.18248</ele>
        <time>2024-07-31T07:42:40.793Z</time>
      </trkpt>
      <trkpt lat="54.38834" lon="16.3323">
        <ele>34.243658</ele>
        <time>2024-07-31T07:42:42.820Z</time>
      </trkpt>
      <trkpt lat="54.38841" lon="16.33243">
        <ele>34.306654</ele>
        <time>2024-07-31T07:42:44.800Z</time>
      </trkpt>
      <trkpt lat="54.38846" lon="16.33257">
        <ele>34.367019</ele>
        <time>2024-07-31T07:42:46.800Z</time>
      </trkpt>
      <trkpt lat="54.38852" lon="16.3327">
        <ele>34.427646</ele>
        <time>2024-07-31T07:42:48.805Z</time>
      </trkpt>
      <trkpt lat="54.38857" lon="16.33282">
        <ele>34.48729</ele>
        <time>2024-07-31T07:42:50.796Z</time>
      </trkpt>
      <trkpt lat="54.38865" lon="16.333">
        <ele>34.570038</ele>
        <time>2024-07-31T07:42:53.812Z</time>
      </trkpt>
      <trkpt lat="54.38873" lon="16.33318">
        <ele>34.654339</ele>
        <time>2024-07-31T07:42:56.793Z</time>
      </trkpt>
      <trkpt lat="54.38879" lon="16.3333">
        <ele>34.711725</ele>
        <time>2024-07-31T07:42:58.804Z</time>
      </trkpt>
      <trkpt lat="54.38885" lon="16.33342">
        <ele>34.771871</ele>
        <time>2024-07-31T07:43:00.793Z</time>
      </trkpt>
      <trkpt lat="54.38891" lon="16.33354">
        <ele>34.831314</ele>
        <time>2024-07-31T07:43:02.799Z</time>
      </trkpt>
      <trkpt lat="54.38899" lon="16.33371">
        <ele>34.914152</ele>
        <time>2024-07-31T07:43:05.804Z</time>
      </trkpt>
      <trkpt lat="54.38904" lon="16.33384">
        <ele>34.972393</ele>
        <time>2024-07-31T07:43:07.823Z</time>
      </trkpt>
      <trkpt lat="54.3891" lon="16.33398">
        <ele>35.03568</ele>
        <time>2024-07-31T07:43:09.823Z</time>
      </trkpt>
      <trkpt lat="54.38916" lon="16.33411">
        <ele>35.098758</ele>
        <time>2024-07-31T07:43:11.790Z</time>
      </trkpt>
      <trkpt lat="54.38922" lon="16.33424">
        <ele>35.083609</ele>
        <time>2024-07-31T07:43:13.797Z</time>
      </trkpt>
      <trkpt lat="54.38929" lon="16.33436">
        <ele>35.05728</ele>
        <time>2024-07-31T07:43:15.799Z</time>
      </trkpt>
      <trkpt lat="54.38934" lon="16.33448">
        <ele>35.031813</ele>
        <time>2024-07-31T07:43:17.797Z</time>
      </trkpt>
      <trkpt lat="54.3894" lon="16.3346">
        <ele>35.005594</ele>
        <time>2024-07-31T07:43:19.801Z</time>
      </trkpt>
      <trkpt lat="54.38947" lon="16.33474">
        <ele>34.977953</ele>
        <time>2024-07-31T07:43:21.798Z</time>
      </trkpt>
      <trkpt lat="54.38952" lon="16.33486">
        <ele>34.951526</ele>
        <time>2024-07-31T07:43:23.773Z</time>
      </trkpt>
      <trkpt lat="54.38958" lon="16.335">
        <ele>34.924486</ele>
        <time>2024-07-31T07:43:25.801Z</time>
      </trkpt>
      <trkpt lat="54.38964" lon="16.33513">
        <ele>34.89705</ele>
        <time>2024-07-31T07:43:27.806Z</time>
      </trkpt>
      <trkpt lat="54.3897" lon="16.33526">
        <ele>34.870145</ele>
        <time>2024-07-31T07:43:29.811Z</time>
      </trkpt>
      <trkpt lat="54.38975" lon="16.33539">
        <ele>34.843271</ele>
        <time>2024-07-31T07:43:31.823Z</time>
      </trkpt>
      <trkpt lat="54.38982" lon="16.33552">
        <ele>34.815521</ele>
        <time>2024-07-31T07:43:33.798Z</time>
      </trkpt>
      <trkpt lat="54.38988" lon="16.33565">
        <ele>34.787954</ele>
        <time>2024-07-31T07:43:35.802Z</time>
      </trkpt>
      <trkpt lat="54.38994" lon="16.33579">
        <ele>34.759415</ele>
        <time>2024-07-31T07:43:37.796Z</time>
      </trkpt>
      <trkpt lat="54.39" lon="16.33592">
        <ele>34.731215</ele>
        <time>2024-07-31T07:43:39.814Z</time>
      </trkpt>
      <trkpt lat="54.39006" lon="16.33607">
        <ele>34.70252</ele>
        <time>2024-07-31T07:43:41.815Z</time>
      </trkpt>
      <trkpt lat="54.39013" lon="16.33619">
        <ele>34.673887</ele>
        <time>2024-07-31T07:43:43.798Z</time>
      </trkpt>
      <trkpt lat="54.3902" lon="16.33631">
        <ele>34.647363</ele>
        <time>2024-07-31T07:43:45.782Z</time>
      </trkpt>
      <trkpt lat="54.39027" lon="16.33646">
        <ele>34.616448</ele>
        <time>2024-07-31T07:43:48.814Z</time>
      </trkpt>
      <trkpt lat="54.39032" lon="16.33659">
        <ele>34.56895</ele>
        <time>2024-07-31T07:43:51.795Z</time>
      </trkpt>
      <trkpt lat="54.39039" lon="16.33674">
        <ele>34.480455</ele>
        <time>2024-07-31T07:43:54.826Z</time>
      </trkpt>
      <trkpt lat="54.39047" lon="16.33691">
        <ele>34.383806</ele>
        <time>2024-07-31T07:43:57.798Z</time>
      </trkpt>
      <trkpt lat="54.39055" lon="16.33708">
        <ele>34.284715</ele>
        <time>2024-07-31T07:44:00.802Z</time>
      </trkpt>
      <trkpt lat="54.39063" lon="16.33726">
        <ele>34.186179</ele>
        <time>2024-07-31T07:44:03.794Z</time>
      </trkpt>
      <trkpt lat="54.39071" lon="16.33741">
        <ele>34.091758</ele>
        <time>2024-07-31T07:44:06.788Z</time>
      </trkpt>
      <trkpt lat="54.39077" lon="16.33757">
        <ele>34.00704</ele>
        <time>2024-07-31T07:44:09.783Z</time>
      </trkpt>
      <trkpt lat="54.39087" lon="16.33759">
        <ele>33.932992</ele>
        <time>2024-07-31T07:44:13.785Z</time>
      </trkpt>
      <trkpt lat="54.39098" lon="16.33759">
        <ele>33.84795</ele>
        <time>2024-07-31T07:44:17.799Z</time>
      </trkpt>
      <trkpt lat="54.39106" lon="16.33775">
        <ele>33.754379</ele>
        <time>2024-07-31T07:44:20.798Z</time>
      </trkpt>
      <trkpt lat="54.39113" lon="16.3379">
        <ele>33.665838</ele>
        <time>2024-07-31T07:44:23.798Z</time>
      </trkpt>
      <trkpt lat="54.3912" lon="16.33806">
        <ele>33.572749</ele>
        <time>2024-07-31T07:44:26.813Z</time>
      </trkpt>
      <trkpt lat="54.39128" lon="16.33822">
        <ele>33.479314</ele>
        <time>2024-07-31T07:44:29.808Z</time>
      </trkpt>
      <trkpt lat="54.39135" lon="16.3384">
        <ele>33.381016</ele>
        <time>2024-07-31T07:44:32.796Z</time>
      </trkpt>
      <trkpt lat="54.3914" lon="16.33853">
        <ele>33.310887</ele>
        <time>2024-07-31T07:44:34.797Z</time>
      </trkpt>
      <trkpt lat="54.39146" lon="16.33866">
        <ele>33.238353</ele>
        <time>2024-07-31T07:44:36.783Z</time>
      </trkpt>
      <trkpt lat="54.39151" lon="16.33879">
        <ele>33.157763</ele>
        <time>2024-07-31T07:44:38.808Z</time>
      </trkpt>
      <trkpt lat="54.39158" lon="16.33896">
        <ele>33.044548</ele>
        <time>2024-07-31T07:44:41.797Z</time>
      </trkpt>
      <trkpt lat="54.39166" lon="16.33912">
        <ele>32.930213</ele>
        <time>2024-07-31T07:44:44.795Z</time>
      </trkpt>
      <trkpt lat="54.39172" lon="16.33924">
        <ele>32.840203</ele>
        <time>2024-07-31T07:44:46.796Z</time>
      </trkpt>
      <trkpt lat="54.39179" lon="16.33938">
        <ele>32.746627</ele>
        <time>2024-07-31T07:44:48.821Z</time>
      </trkpt>
      <trkpt lat="54.39186" lon="16.33952">
        <ele>32.645532</ele>
        <time>2024-07-31T07:44:50.801Z</time>
      </trkpt>
      <trkpt lat="54.39193" lon="16.33965">
        <ele>32.541427</ele>
        <time>2024-07-31T07:44:52.802Z</time>
      </trkpt>
      <trkpt lat="54.39199" lon="16.33981">
        <ele>32.441027</ele>
        <time>2024-07-31T07:44:54.803Z</time>
      </trkpt>
      <trkpt lat="54.39206" lon="16.33996">
        <ele>32.337666</ele>
        <time>2024-07-31T07:44:56.796Z</time>
      </trkpt>
      <trkpt lat="54.39212" lon="16.3401">
        <ele>32.240582</ele>
        <time>2024-07-31T07:44:58.816Z</time>
      </trkpt>
      <trkpt lat="54.39218" lon="16.34024">
        <ele>32.143845</ele>
        <time>2024-07-31T07:45:00.798Z</time>
      </trkpt>
      <trkpt lat="54.39224" lon="16.34038">
        <ele>32.05053</ele>
        <time>2024-07-31T07:45:02.816Z</time>
      </trkpt>
      <trkpt lat="54.3923" lon="16.34052">
        <ele>31.958915</ele>
        <time>2024-07-31T07:45:04.804Z</time>
      </trkpt>
      <trkpt lat="54.39235" lon="16.34068">
        <ele>31.858224</ele>
        <time>2024-07-31T07:45:06.788Z</time>
      </trkpt>
      <trkpt lat="54.39241" lon="16.34084">
        <ele>31.755221</ele>
        <time>2024-07-31T07:45:08.833Z</time>
      </trkpt>
      <trkpt lat="54.39246" lon="16.34101">
        <ele>31.646015</ele>
        <time>2024-07-31T07:45:10.800Z</time>
      </trkpt>
      <trkpt lat="54.39252" lon="16.34119">
        <ele>31.537798</ele>
        <time>2024-07-31T07:45:12.797Z</time>
      </trkpt>
      <trkpt lat="54.39257" lon="16.34136">
        <ele>31.530634</ele>
        <time>2024-07-31T07:45:14.802Z</time>
      </trkpt>
      <trkpt lat="54.39262" lon="16.34153">
        <ele>31.540349</ele>
        <time>2024-07-31T07:45:16.786Z</time>
      </trkpt>
      <trkpt lat="54.39266" lon="16.3417">
        <ele>31.549858</ele>
        <time>2024-07-31T07:45:18.818Z</time>
      </trkpt>
      <trkpt lat="54.39271" lon="16.34187">
        <ele>31.559391</ele>
        <time>2024-07-31T07:45:20.780Z</time>
      </trkpt>
      <trkpt lat="54.39276" lon="16.34204">
        <ele>31.568847</ele>
        <time>2024-07-31T07:45:22.799Z</time>
      </trkpt>
      <trkpt lat="54.39281" lon="16.34221">
        <ele>31.578291</ele>
        <time>2024-07-31T07:45:24.801Z</time>
      </trkpt>
      <trkpt lat="54.39285" lon="16.34237">
        <ele>31.587298</ele>
        <time>2024-07-31T07:45:26.819Z</time>
      </trkpt>
      <trkpt lat="54.39289" lon="16.34253">
        <ele>31.595889</ele>
        <time>2024-07-31T07:45:28.806Z</time>
      </trkpt>
      <trkpt lat="54.39294" lon="16.34267">
        <ele>31.604107</ele>
        <time>2024-07-31T07:45:30.784Z</time>
      </trkpt>
      <trkpt lat="54.39298" lon="16.34281">
        <ele>31.612245</ele>
        <time>2024-07-31T07:45:32.806Z</time>
      </trkpt>
      <trkpt lat="54.39302" lon="16.34296">
        <ele>31.620178</ele>
        <time>2024-07-31T07:45:34.791Z</time>
      </trkpt>
      <trkpt lat="54.39305" lon="16.3431">
        <ele>31.628049</ele>
        <time>2024-07-31T07:45:36.803Z</time>
      </trkpt>
      <trkpt lat="54.39308" lon="16.3433">
        <ele>31.638482</ele>
        <time>2024-07-31T07:45:39.798Z</time>
      </trkpt>
      <trkpt lat="54.39314" lon="16.34351">
        <ele>31.64992</ele>
        <time>2024-07-31T07:45:42.823Z</time>
      </trkpt>
      <trkpt lat="54.39317" lon="16.34366">
        <ele>31.658128</ele>
        <time>2024-07-31T07:45:44.800Z</time>
      </trkpt>
      <trkpt lat="54.39321" lon="16.3438">
        <ele>31.666174</ele>
        <time>2024-07-31T07:45:46.795Z</time>
      </trkpt>
      <trkpt lat="54.39325" lon="16.34396">
        <ele>31.674639</ele>
        <time>2024-07-31T07:45:48.801Z</time>
      </trkpt>
      <trkpt lat="54.39328" lon="16.34413">
        <ele>31.716746</ele>
        <time>2024-07-31T07:45:50.790Z</time>
      </trkpt>
      <trkpt lat="54.39331" lon="16.34429">
        <ele>31.778386</ele>
        <time>2024-07-31T07:45:52.790Z</time>
      </trkpt>
      <trkpt lat="54.39334" lon="16.34446">
        <ele>31.838855</ele>
        <time>2024-07-31T07:45:54.793Z</time>
      </trkpt>
      <trkpt lat="54.39337" lon="16.34462">
        <ele>31.899813</ele>
        <time>2024-07-31T07:45:56.800Z</time>
      </trkpt>
      <trkpt lat="54.3934" lon="16.34479">
        <ele>31.964359</ele>
        <time>2024-07-31T07:45:58.798Z</time>
      </trkpt>
      <trkpt lat="54.39343" lon="16.34496">
        <ele>32.02787</ele>
        <time>2024-07-31T07:46:00.791Z</time>
      </trkpt>
      <trkpt lat="54.39346" lon="16.34513">
        <ele>32.091555</ele>
        <time>2024-07-31T07:46:02.792Z</time>
      </trkpt>
      <trkpt lat="54.39349" lon="16.34529">
        <ele>32.15229</ele>
        <time>2024-07-31T07:46:04.796Z</time>
      </trkpt>
      <trkpt lat="54.39354" lon="16.34544">
        <ele>32.212115</ele>
        <time>2024-07-31T07:46:06.802Z</time>
      </trkpt>
      <trkpt lat="54.39358" lon="16.3456">
        <ele>32.27173</ele>
        <time>2024-07-31T07:46:08.798Z</time>
      </trkpt>
      <trkpt lat="54.39361" lon="16.34575">
        <ele>32.329914</ele>
        <time>2024-07-31T07:46:10.795Z</time>
      </trkpt>
      <trkpt lat="54.39365" lon="16.3459">
        <ele>32.388421</ele>
        <time>2024-07-31T07:46:12.801Z</time>
      </trkpt>
      <trkpt lat="54.39369" lon="16.34604">
        <ele>32.445636</ele>
        <time>2024-07-31T07:46:14.802Z</time>
      </trkpt>
      <trkpt lat="54.39372" lon="16.34619">
        <ele>32.501483</ele>
        <time>2024-07-31T07:46:16.808Z</time>
      </trkpt>
      <trkpt lat="54.39376" lon="16.34634">
        <ele>32.559008</ele>
        <time>2024-07-31T07:46:18.823Z</time>
      </trkpt>
      <trkpt lat="54.3938" lon="16.34648">
        <ele>32.615901</ele>
        <time>2024-07-31T07:46:20.807Z</time>
      </trkpt>
      <trkpt lat="54.39384" lon="16.34663">
        <ele>32.673651</ele>
        <time>2024-07-31T07:46:22.804Z</time>
      </trkpt>
      <trkpt lat="54.3939" lon="16.34676">
        <ele>32.732992</ele>
        <time>2024-07-31T07:46:24.771Z</time>
      </trkpt>
      <trkpt lat="54.39397" lon="16.34687">
        <ele>32.78305</ele>
        <time>2024-07-31T07:46:26.794Z</time>
      </trkpt>
      <trkpt lat="54.39405" lon="16.34694">
        <ele>32.79965</ele>
        <time>2024-07-31T07:46:28.789Z</time>
      </trkpt>
      <trkpt lat="54.39417" lon="16.34701">
        <ele>32.821489</ele>
        <time>2024-07-31T07:46:31.807Z</time>
      </trkpt>
      <trkpt lat="54.39428" lon="16.34705">
        <ele>32.841323</ele>
        <time>2024-07-31T07:46:34.794Z</time>
      </trkpt>
      <trkpt lat="54.39438" lon="16.34709">
        <ele>32.859689</ele>
        <time>2024-07-31T07:46:37.794Z</time>
      </trkpt>
      <trkpt lat="54.39448" lon="16.34713">
        <ele>32.878447</ele>
        <time>2024-07-31T07:46:40.819Z</time>
      </trkpt>
      <trkpt lat="54.39458" lon="16.34718">
        <ele>32.897317</ele>
        <time>2024-07-31T07:46:43.808Z</time>
      </trkpt>
      <trkpt lat="54.39467" lon="16.34724">
        <ele>32.914083</ele>
        <time>2024-07-31T07:46:46.803Z</time>
      </trkpt>
      <trkpt lat="54.39478" lon="16.34728">
        <ele>32.932738</ele>
        <time>2024-07-31T07:46:50.779Z</time>
      </trkpt>
      <trkpt lat="54.39485" lon="16.34739">
        <ele>32.950594</ele>
        <time>2024-07-31T07:46:54.792Z</time>
      </trkpt>
      <trkpt lat="54.39485" lon="16.34757">
        <ele>32.969222</ele>
        <time>2024-07-31T07:46:57.785Z</time>
      </trkpt>
      <trkpt lat="54.39483" lon="16.34774">
        <ele>32.987573</ele>
        <time>2024-07-31T07:47:00.810Z</time>
      </trkpt>
      <trkpt lat="54.39482" lon="16.34794">
        <ele>33.007741</ele>
        <time>2024-07-31T07:47:04.787Z</time>
      </trkpt>
      <trkpt lat="54.39481" lon="16.34812">
        <ele>33.026972</ele>
        <time>2024-07-31T07:47:09.805Z</time>
      </trkpt>
      <trkpt lat="54.39478" lon="16.34829">
        <ele>33.044848</ele>
        <time>2024-07-31T07:47:13.803Z</time>
      </trkpt>
      <trkpt lat="54.39474" lon="16.34846">
        <ele>33.06359</ele>
        <time>2024-07-31T07:47:16.788Z</time>
      </trkpt>
      <trkpt lat="54.39471" lon="16.34865">
        <ele>33.084293</ele>
        <time>2024-07-31T07:47:19.794Z</time>
      </trkpt>
      <trkpt lat="54.39469" lon="16.34887">
        <ele>33.068073</ele>
        <time>2024-07-31T07:47:22.795Z</time>
      </trkpt>
      <trkpt lat="54.39467" lon="16.34909">
        <ele>32.980838</ele>
        <time>2024-07-31T07:47:25.803Z</time>
      </trkpt>
      <trkpt lat="54.39464" lon="16.34928">
        <ele>32.90219</ele>
        <time>2024-07-31T07:47:28.810Z</time>
      </trkpt>
      <trkpt lat="54.39463" lon="16.34949">
        <ele>32.819849</ele>
        <time>2024-07-31T07:47:31.811Z</time>
      </trkpt>
      <trkpt lat="54.39462" lon="16.34967">
        <ele>32.746736</ele>
        <time>2024-07-31T07:47:34.800Z</time>
      </trkpt>
      <trkpt lat="54.39458" lon="16.34986">
        <ele>32.667408</ele>
        <time>2024-07-31T07:47:37.802Z</time>
      </trkpt>
      <trkpt lat="54.39456" lon="16.35006">
        <ele>32.585039</ele>
        <time>2024-07-31T07:47:40.795Z</time>
      </trkpt>
      <trkpt lat="54.39454" lon="16.35027">
        <ele>32.500665</ele>
        <time>2024-07-31T07:47:43.796Z</time>
      </trkpt>
      <trkpt lat="54.39451" lon="16.35048">
        <ele>32.416203</ele>
        <time>2024-07-31T07:47:46.800Z</time>
      </trkpt>
      <trkpt lat="54.39449" lon="16.35071">
        <ele>32.325487</ele>
        <time>2024-07-31T07:47:49.794Z</time>
      </trkpt>
      <trkpt lat="54.39446" lon="16.35092">
        <ele>32.238935</ele>
        <time>2024-07-31T07:47:52.793Z</time>
      </trkpt>
      <trkpt lat="54.39444" lon="16.35112">
        <ele>32.157862</ele>
        <time>2024-07-31T07:47:55.804Z</time>
      </trkpt>
      <trkpt lat="54.39442" lon="16.35134">
        <ele>32.06896</ele>
        <time>2024-07-31T07:47:58.795Z</time>
      </trkpt>
      <trkpt lat="54.3944" lon="16.35156">
        <ele>31.982017</ele>
        <time>2024-07-31T07:48:01.812Z</time>
      </trkpt>
      <trkpt lat="54.39437" lon="16.35176">
        <ele>31.898804</ele>
        <time>2024-07-31T07:48:04.792Z</time>
      </trkpt>
      <trkpt lat="54.39435" lon="16.35196">
        <ele>31.907418</ele>
        <time>2024-07-31T07:48:07.812Z</time>
      </trkpt>
      <trkpt lat="54.39432" lon="16.35218">
        <ele>31.961475</ele>
        <time>2024-07-31T07:48:10.787Z</time>
      </trkpt>
      <trkpt lat="54.39429" lon="16.3524">
        <ele>32.017309</ele>
        <time>2024-07-31T07:48:13.801Z</time>
      </trkpt>
      <trkpt lat="54.39427" lon="16.35255">
        <ele>32.055749</ele>
        <time>2024-07-31T07:48:15.802Z</time>
      </trkpt>
      <trkpt lat="54.39425" lon="16.35277">
        <ele>32.11196</ele>
        <time>2024-07-31T07:48:18.800Z</time>
      </trkpt>
      <trkpt lat="54.39425" lon="16.35293">
        <ele>32.150451</ele>
        <time>2024-07-31T07:48:20.794Z</time>
      </trkpt>
      <trkpt lat="54.39424" lon="16.35316">
        <ele>32.208114</ele>
        <time>2024-07-31T07:48:23.814Z</time>
      </trkpt>
      <trkpt lat="54.39422" lon="16.35333">
        <ele>32.250771</ele>
        <time>2024-07-31T07:48:25.797Z</time>
      </trkpt>
      <trkpt lat="54.3942" lon="16.35351">
        <ele>32.293736</ele>
        <time>2024-07-31T07:48:27.810Z</time>
      </trkpt>
      <trkpt lat="54.39418" lon="16.35367">
        <ele>32.335554</ele>
        <time>2024-07-31T07:48:29.800Z</time>
      </trkpt>
      <trkpt lat="54.39415" lon="16.35383">
        <ele>32.3757</ele>
        <time>2024-07-31T07:48:31.804Z</time>
      </trkpt>
      <trkpt lat="54.39413" lon="16.35399">
        <ele>32.417412</ele>
        <time>2024-07-31T07:48:33.801Z</time>
      </trkpt>
      <trkpt lat="54.39411" lon="16.35415">
        <ele>32.458176</ele>
        <time>2024-07-31T07:48:35.787Z</time>
      </trkpt>
      <trkpt lat="54.39409" lon="16.35432">
        <ele>32.50015</ele>
        <time>2024-07-31T07:48:37.796Z</time>
      </trkpt>
      <trkpt lat="54.39408" lon="16.35448">
        <ele>32.541281</ele>
        <time>2024-07-31T07:48:39.795Z</time>
      </trkpt>
      <trkpt lat="54.39406" lon="16.35466">
        <ele>32.58503</ele>
        <time>2024-07-31T07:48:41.797Z</time>
      </trkpt>
      <trkpt lat="54.39404" lon="16.35484">
        <ele>32.630861</ele>
        <time>2024-07-31T07:48:43.801Z</time>
      </trkpt>
      <trkpt lat="54.39402" lon="16.35502">
        <ele>32.704247</ele>
        <time>2024-07-31T07:48:45.796Z</time>
      </trkpt>
      <trkpt lat="54.39401" lon="16.3552">
        <ele>32.78059</ele>
        <time>2024-07-31T07:48:47.792Z</time>
      </trkpt>
      <trkpt lat="54.394" lon="16.35539">
        <ele>32.860018</ele>
        <time>2024-07-31T07:48:49.820Z</time>
      </trkpt>
      <trkpt lat="54.39399" lon="16.35557">
        <ele>32.93795</ele>
        <time>2024-07-31T07:48:51.798Z</time>
      </trkpt>
      <trkpt lat="54.39397" lon="16.35576">
        <ele>33.016458</ele>
        <time>2024-07-31T07:48:53.791Z</time>
      </trkpt>
      <trkpt lat="54.39396" lon="16.35595">
        <ele>33.098144</ele>
        <time>2024-07-31T07:48:55.792Z</time>
      </trkpt>
      <trkpt lat="54.39395" lon="16.35615">
        <ele>33.178867</ele>
        <time>2024-07-31T07:48:57.795Z</time>
      </trkpt>
      <trkpt lat="54.39395" lon="16.35634">
        <ele>33.261475</ele>
        <time>2024-07-31T07:48:59.812Z</time>
      </trkpt>
      <trkpt lat="54.39395" lon="16.35654">
        <ele>33.342776</ele>
        <time>2024-07-31T07:49:01.803Z</time>
      </trkpt>
      <trkpt lat="54.39396" lon="16.35673">
        <ele>33.423142</ele>
        <time>2024-07-31T07:49:03.800Z</time>
      </trkpt>
      <trkpt lat="54.39398" lon="16.3569">
        <ele>33.495414</ele>
        <time>2024-07-31T07:49:05.802Z</time>
      </trkpt>
      <trkpt lat="54.39401" lon="16.35706">
        <ele>33.566233</ele>
        <time>2024-07-31T07:49:07.799Z</time>
      </trkpt>
      <trkpt lat="54.39404" lon="16.35722">
        <ele>33.63865</ele>
        <time>2024-07-31T07:49:09.796Z</time>
      </trkpt>
      <trkpt lat="54.39409" lon="16.35738">
        <ele>33.714783</ele>
        <time>2024-07-31T07:49:11.811Z</time>
      </trkpt>
      <trkpt lat="54.39414" lon="16.35753">
        <ele>33.786856</ele>
        <time>2024-07-31T07:49:13.815Z</time>
      </trkpt>
      <trkpt lat="54.39422" lon="16.3577">
        <ele>33.877075</ele>
        <time>2024-07-31T07:49:16.794Z</time>
      </trkpt>
      <trkpt lat="54.39428" lon="16.35785">
        <ele>33.949563</ele>
        <time>2024-07-31T07:49:18.810Z</time>
      </trkpt>
      <trkpt lat="54.39435" lon="16.35798">
        <ele>34.011172</ele>
        <time>2024-07-31T07:49:20.812Z</time>
      </trkpt>
      <trkpt lat="54.39441" lon="16.35812">
        <ele>34.073544</ele>
        <time>2024-07-31T07:49:22.806Z</time>
      </trkpt>
      <trkpt lat="54.39447" lon="16.35826">
        <ele>34.135177</ele>
        <time>2024-07-31T07:49:24.794Z</time>
      </trkpt>
      <trkpt lat="54.39454" lon="16.3584">
        <ele>34.199514</ele>
        <time>2024-07-31T07:49:26.807Z</time>
      </trkpt>
      <trkpt lat="54.39461" lon="16.35855">
        <ele>34.265805</ele>
        <time>2024-07-31T07:49:28.819Z</time>
      </trkpt>
      <trkpt lat="54.39467" lon="16.35869">
        <ele>34.329865</ele>
        <time>2024-07-31T07:49:30.786Z</time>
      </trkpt>
      <trkpt lat="54.39474" lon="16.35883">
        <ele>34.396833</ele>
        <time>2024-07-31T07:49:32.780Z</time>
      </trkpt>
      <trkpt lat="54.3948" lon="16.35899">
        <ele>34.462548</ele>
        <time>2024-07-31T07:49:34.829Z</time>
      </trkpt>
      <trkpt lat="54.39487" lon="16.35914">
        <ele>34.52977</ele>
        <time>2024-07-31T07:49:36.781Z</time>
      </trkpt>
      <trkpt lat="54.39494" lon="16.35928">
        <ele>34.595219</ele>
        <time>2024-07-31T07:49:38.791Z</time>
      </trkpt>
      <trkpt lat="54.395" lon="16.35943">
        <ele>34.660869</ele>
        <time>2024-07-31T07:49:40.784Z</time>
      </trkpt>
      <trkpt lat="54.39506" lon="16.35957">
        <ele>34.722708</ele>
        <time>2024-07-31T07:49:42.813Z</time>
      </trkpt>
      <trkpt lat="54.39513" lon="16.35971">
        <ele>34.78499</ele>
        <time>2024-07-31T07:49:44.801Z</time>
      </trkpt>
      <trkpt lat="54.39519" lon="16.35985">
        <ele>34.847083</ele>
        <time>2024-07-31T07:49:46.785Z</time>
      </trkpt>
      <trkpt lat="54.39525" lon="16.35997">
        <ele>34.904172</ele>
        <time>2024-07-31T07:49:48.799Z</time>
      </trkpt>
      <trkpt lat="54.39531" lon="16.36009">
        <ele>34.961113</ele>
        <time>2024-07-31T07:49:50.799Z</time>
      </trkpt>
      <trkpt lat="54.39537" lon="16.36022">
        <ele>35.02144</ele>
        <time>2024-07-31T07:49:52.796Z</time>
      </trkpt>
      <trkpt lat="54.39544" lon="16.36035">
        <ele>35.044422</ele>
        <time>2024-07-31T07:49:54.795Z</time>
      </trkpt>
      <trkpt lat="54.39553" lon="16.36045">
        <ele>35.067065</ele>
        <time>2024-07-31T07:49:56.791Z</time>
      </trkpt>
      <trkpt lat="54.39563" lon="16.36054">
        <ele>35.089498</ele>
        <time>2024-07-31T07:49:58.792Z</time>
      </trkpt>
      <trkpt lat="54.39572" lon="16.36061">
        <ele>35.110029</ele>
        <time>2024-07-31T07:50:00.799Z</time>
      </trkpt>
      <trkpt lat="54.3958" lon="16.36066">
        <ele>35.130052</ele>
        <time>2024-07-31T07:50:02.801Z</time>
      </trkpt>
      <trkpt lat="54.39589" lon="16.36072">
        <ele>35.149636</ele>
        <time>2024-07-31T07:50:04.818Z</time>
      </trkpt>
      <trkpt lat="54.39598" lon="16.36079">
        <ele>35.170021</ele>
        <time>2024-07-31T07:50:06.792Z</time>
      </trkpt>
      <trkpt lat="54.39608" lon="16.36085">
        <ele>35.19241</ele>
        <time>2024-07-31T07:50:08.820Z</time>
      </trkpt>
      <trkpt lat="54.39618" lon="16.36091">
        <ele>35.215426</ele>
        <time>2024-07-31T07:50:10.800Z</time>
      </trkpt>
      <trkpt lat="54.39629" lon="16.36097">
        <ele>35.240204</ele>
        <time>2024-07-31T07:50:12.810Z</time>
      </trkpt>
      <trkpt lat="54.39641" lon="16.36102">
        <ele>35.265119</ele>
        <time>2024-07-31T07:50:14.796Z</time>
      </trkpt>
      <trkpt lat="54.39651" lon="16.36109">
        <ele>35.288385</ele>
        <time>2024-07-31T07:50:16.798Z</time>
      </trkpt>
      <trkpt lat="54.39661" lon="16.36116">
        <ele>35.311682</ele>
        <time>2024-07-31T07:50:18.780Z</time>
      </trkpt>
      <trkpt lat="54.39671" lon="16.36124">
        <ele>35.334539</ele>
        <time>2024-07-31T07:50:20.802Z</time>
      </trkpt>
      <trkpt lat="54.39681" lon="16.3613">
        <ele>35.357438</ele>
        <time>2024-07-31T07:50:22.813Z</time>
      </trkpt>
      <trkpt lat="54.39691" lon="16.36137">
        <ele>35.379617</ele>
        <time>2024-07-31T07:50:24.800Z</time>
      </trkpt>
      <trkpt lat="54.39701" lon="16.36143">
        <ele>35.401219</ele>
        <time>2024-07-31T07:50:26.804Z</time>
      </trkpt>
      <trkpt lat="54.3971" lon="16.3615">
        <ele>35.465135</ele>
        <time>2024-07-31T07:50:28.811Z</time>
      </trkpt>
      <trkpt lat="54.3972" lon="16.36156">
        <ele>35.529508</ele>
        <time>2024-07-31T07:50:30.803Z</time>
      </trkpt>
      <trkpt lat="54.39729" lon="16.36162">
        <ele>35.59342</ele>
        <time>2024-07-31T07:50:32.789Z</time>
      </trkpt>
      <trkpt lat="54.39737" lon="16.36168">
        <ele>35.651833</ele>
        <time>2024-07-31T07:50:34.800Z</time>
      </trkpt>
      <trkpt lat="54.39746" lon="16.36174">
        <ele>35.715654</ele>
        <time>2024-07-31T07:50:36.793Z</time>
      </trkpt>
      <trkpt lat="54.39755" lon="16.3618">
        <ele>35.779144</ele>
        <time>2024-07-31T07:50:38.788Z</time>
      </trkpt>
      <trkpt lat="54.39765" lon="16.36186">
        <ele>35.842702</ele>
        <time>2024-07-31T07:50:40.806Z</time>
      </trkpt>
      <trkpt lat="54.39774" lon="16.36193">
        <ele>35.90856</ele>
        <time>2024-07-31T07:50:42.819Z</time>
      </trkpt>
      <trkpt lat="54.39784" lon="16.36199">
        <ele>35.974336</ele>
        <time>2024-07-31T07:50:44.813Z</time>
      </trkpt>
      <trkpt lat="54.39793" lon="16.36205">
        <ele>36.039371</ele>
        <time>2024-07-31T07:50:46.803Z</time>
      </trkpt>
      <trkpt lat="54.39802" lon="16.36212">
        <ele>36.104922</ele>
        <time>2024-07-31T07:50:48.822Z</time>
      </trkpt>
      <trkpt lat="54.39811" lon="16.36218">
        <ele>36.169437</ele>
        <time>2024-07-31T07:50:50.790Z</time>
      </trkpt>
      <trkpt lat="54.39821" lon="16.36225">
        <ele>36.233647</ele>
        <time>2024-07-31T07:50:52.807Z</time>
      </trkpt>
      <trkpt lat="54.39832" lon="16.36235">
        <ele>36.316788</ele>
        <time>2024-07-31T07:50:55.808Z</time>
      </trkpt>
      <trkpt lat="54.39843" lon="16.36243">
        <ele>36.3967</ele>
        <time>2024-07-31T07:50:58.782Z</time>
      </trkpt>
      <trkpt lat="54.39855" lon="16.36252">
        <ele>36.482981</ele>
        <time>2024-07-31T07:51:01.810Z</time>
      </trkpt>
      <trkpt lat="54.39868" lon="16.36257">
        <ele>36.568276</ele>
        <time>2024-07-31T07:51:04.783Z</time>
      </trkpt>
      <trkpt lat="54.39881" lon="16.36264">
        <ele>36.584053</ele>
        <time>2024-07-31T07:51:07.784Z</time>
      </trkpt>
      <trkpt lat="54.3989" lon="16.36271">
        <ele>36.594206</ele>
        <time>2024-07-31T07:51:09.788Z</time>
      </trkpt>
      <trkpt lat="54.39898" lon="16.3628">
        <ele>36.605099</ele>
        <time>2024-07-31T07:51:11.811Z</time>
      </trkpt>
      <trkpt lat="54.39907" lon="16.36288">
        <ele>36.615805</ele>
        <time>2024-07-31T07:51:13.803Z</time>
      </trkpt>
      <trkpt lat="54.39916" lon="16.36295">
        <ele>36.626031</ele>
        <time>2024-07-31T07:51:15.805Z</time>
      </trkpt>
      <trkpt lat="54.39925" lon="16.36301">
        <ele>36.636803</ele>
        <time>2024-07-31T07:51:17.804Z</time>
      </trkpt>
      <trkpt lat="54.39934" lon="16.36308">
        <ele>36.647399</ele>
        <time>2024-07-31T07:51:19.782Z</time>
      </trkpt>
      <trkpt lat="54.39942" lon="16.36316">
        <ele>36.657324</ele>
        <time>2024-07-31T07:51:21.787Z</time>
      </trkpt>
      <trkpt lat="54.39951" lon="16.36323">
        <ele>36.66787</ele>
        <time>2024-07-31T07:51:23.815Z</time>
      </trkpt>
      <trkpt lat="54.3996" lon="16.36327">
        <ele>36.678466</ele>
        <time>2024-07-31T07:51:25.783Z</time>
      </trkpt>
      <trkpt lat="54.3997" lon="16.36335">
        <ele>36.689584</ele>
        <time>2024-07-31T07:51:27.795Z</time>
      </trkpt>
      <trkpt lat="54.39979" lon="16.36347">
        <ele>36.701795</ele>
        <time>2024-07-31T07:51:29.821Z</time>
      </trkpt>
      <trkpt lat="54.39988" lon="16.36359">
        <ele>36.714339</ele>
        <time>2024-07-31T07:51:31.807Z</time>
      </trkpt>
      <trkpt lat="54.39997" lon="16.3637">
        <ele>36.726067</ele>
        <time>2024-07-31T07:51:33.808Z</time>
      </trkpt>
      <trkpt lat="54.40005" lon="16.36381">
        <ele>36.737461</ele>
        <time>2024-07-31T07:51:35.803Z</time>
      </trkpt>
      <trkpt lat="54.40013" lon="16.36392">
        <ele>36.748071</ele>
        <time>2024-07-31T07:51:37.803Z</time>
      </trkpt>
      <trkpt lat="54.40021" lon="16.36401">
        <ele>36.758209</ele>
        <time>2024-07-31T07:51:39.808Z</time>
      </trkpt>
      <trkpt lat="54.40028" lon="16.3641">
        <ele>36.790174</ele>
        <time>2024-07-31T07:51:41.812Z</time>
      </trkpt>
      <trkpt lat="54.40039" lon="16.36424">
        <ele>36.873918</ele>
        <time>2024-07-31T07:51:44.794Z</time>
      </trkpt>
      <trkpt lat="54.40049" lon="16.36436">
        <ele>36.957254</ele>
        <time>2024-07-31T07:51:47.802Z</time>
      </trkpt>
      <trkpt lat="54.4006" lon="16.36449">
        <ele>37.037972</ele>
        <time>2024-07-31T07:51:50.814Z</time>
      </trkpt>
      <trkpt lat="54.4007" lon="16.36462">
        <ele>37.119251</ele>
        <time>2024-07-31T07:51:53.802Z</time>
      </trkpt>
      <trkpt lat="54.4008" lon="16.36475">
        <ele>37.197666</ele>
        <time>2024-07-31T07:51:56.796Z</time>
      </trkpt>
      <trkpt lat="54.4009" lon="16.36488">
        <ele>37.275921</ele>
        <time>2024-07-31T07:51:59.792Z</time>
      </trkpt>
      <trkpt lat="54.401" lon="16.36501">
        <ele>37.357393</ele>
        <time>2024-07-31T07:52:02.798Z</time>
      </trkpt>
      <trkpt lat="54.40109" lon="16.36513">
        <ele>37.43285</ele>
        <time>2024-07-31T07:52:05.788Z</time>
      </trkpt>
      <trkpt lat="54.40119" lon="16.36525">
        <ele>37.507823</ele>
        <time>2024-07-31T07:52:08.800Z</time>
      </trkpt>
      <trkpt lat="54.40128" lon="16.36536">
        <ele>37.578922</ele>
        <time>2024-07-31T07:52:11.815Z</time>
      </trkpt>
      <trkpt lat="54.40138" lon="16.36549">
        <ele>37.656446</ele>
        <time>2024-07-31T07:52:14.786Z</time>
      </trkpt>
      <trkpt lat="54.40148" lon="16.36561">
        <ele>37.735431</ele>
        <time>2024-07-31T07:52:17.795Z</time>
      </trkpt>
      <trkpt lat="54.40157" lon="16.36573">
        <ele>37.809304</ele>
        <time>2024-07-31T07:52:20.784Z</time>
      </trkpt>
      <trkpt lat="54.40167" lon="16.36587">
        <ele>37.888856</ele>
        <time>2024-07-31T07:52:23.797Z</time>
      </trkpt>
      <trkpt lat="54.40174" lon="16.36596">
        <ele>37.80727</ele>
        <time>2024-07-31T07:52:25.790Z</time>
      </trkpt>
      <trkpt lat="54.40182" lon="16.36606">
        <ele>37.658172</ele>
        <time>2024-07-31T07:52:27.795Z</time>
      </trkpt>
      <trkpt lat="54.40191" lon="16.36617">
        <ele>37.492954</ele>
        <time>2024-07-31T07:52:29.797Z</time>
      </trkpt>
      <trkpt lat="54.40201" lon="16.36629">
        <ele>37.318959</ele>
        <time>2024-07-31T07:52:31.797Z</time>
      </trkpt>
      <trkpt lat="54.40211" lon="16.36641">
        <ele>37.131109</ele>
        <time>2024-07-31T07:52:33.781Z</time>
      </trkpt>
      <trkpt lat="54.40221" lon="16.36654">
        <ele>36.942381</ele>
        <time>2024-07-31T07:52:35.783Z</time>
      </trkpt>
      <trkpt lat="54.40231" lon="16.36667">
        <ele>36.759729</ele>
        <time>2024-07-31T07:52:37.794Z</time>
      </trkpt>
      <trkpt lat="54.40241" lon="16.3668">
        <ele>36.563029</ele>
        <time>2024-07-31T07:52:39.782Z</time>
      </trkpt>
      <trkpt lat="54.40251" lon="16.36694">
        <ele>36.367385</ele>
        <time>2024-07-31T07:52:41.803Z</time>
      </trkpt>
      <trkpt lat="54.40262" lon="16.36707">
        <ele>36.170359</ele>
        <time>2024-07-31T07:52:43.793Z</time>
      </trkpt>
      <trkpt lat="54.40272" lon="16.3672">
        <ele>35.97524</ele>
        <time>2024-07-31T07:52:45.790Z</time>
      </trkpt>
      <trkpt lat="54.40283" lon="16.36734">
        <ele>35.780389</ele>
        <time>2024-07-31T07:52:47.849Z</time>
      </trkpt>
      <trkpt lat="54.40293" lon="16.36747">
        <ele>35.580079</ele>
        <time>2024-07-31T07:52:49.782Z</time>
      </trkpt>
      <trkpt lat="54.40304" lon="16.3676">
        <ele>35.37741</ele>
        <time>2024-07-31T07:52:51.791Z</time>
      </trkpt>
      <trkpt lat="54.40315" lon="16.36774">
        <ele>35.191585</ele>
        <time>2024-07-31T07:52:53.787Z</time>
      </trkpt>
      <trkpt lat="54.40324" lon="16.36788">
        <ele>35.097628</ele>
        <time>2024-07-31T07:52:55.787Z</time>
      </trkpt>
      <trkpt lat="54.40332" lon="16.36804">
        <ele>35.007613</ele>
        <time>2024-07-31T07:52:57.806Z</time>
      </trkpt>
      <trkpt lat="54.40339" lon="16.3682">
        <ele>34.918404</ele>
        <time>2024-07-31T07:52:59.799Z</time>
      </trkpt>
      <trkpt lat="54.40347" lon="16.36836">
        <ele>34.825292</ele>
        <time>2024-07-31T07:53:01.815Z</time>
      </trkpt>
      <trkpt lat="54.40354" lon="16.36854">
        <ele>34.735003</ele>
        <time>2024-07-31T07:53:03.799Z</time>
      </trkpt>
      <trkpt lat="54.4036" lon="16.36871">
        <ele>34.64565</ele>
        <time>2024-07-31T07:53:05.819Z</time>
      </trkpt>
      <trkpt lat="54.40366" lon="16.36889">
        <ele>34.5567</ele>
        <time>2024-07-31T07:53:07.802Z</time>
      </trkpt>
      <trkpt lat="54.40372" lon="16.36904">
        <ele>34.476277</ele>
        <time>2024-07-31T07:53:09.786Z</time>
      </trkpt>
      <trkpt lat="54.40377" lon="16.3692">
        <ele>34.399324</ele>
        <time>2024-07-31T07:53:11.800Z</time>
      </trkpt>
      <trkpt lat="54.40381" lon="16.36936">
        <ele>34.321019</ele>
        <time>2024-07-31T07:53:13.785Z</time>
      </trkpt>
      <trkpt lat="54.40385" lon="16.36952">
        <ele>34.248672</ele>
        <time>2024-07-31T07:53:15.800Z</time>
      </trkpt>
      <trkpt lat="54.40387" lon="16.36969">
        <ele>34.173928</ele>
        <time>2024-07-31T07:53:17.791Z</time>
      </trkpt>
      <trkpt lat="54.40389" lon="16.36986">
        <ele>34.100006</ele>
        <time>2024-07-31T07:53:19.809Z</time>
      </trkpt>
      <trkpt lat="54.40389" lon="16.37002">
        <ele>34.027782</ele>
        <time>2024-07-31T07:53:21.788Z</time>
      </trkpt>
      <trkpt lat="54.40389" lon="16.37018">
        <ele>33.957805</ele>
        <time>2024-07-31T07:53:23.806Z</time>
      </trkpt>
      <trkpt lat="54.40387" lon="16.3704">
        <ele>33.864545</ele>
        <time>2024-07-31T07:53:26.814Z</time>
      </trkpt>
      <trkpt lat="54.40385" lon="16.37062">
        <ele>33.871174</ele>
        <time>2024-07-31T07:53:29.800Z</time>
      </trkpt>
      <trkpt lat="54.40382" lon="16.37083">
        <ele>33.885801</ele>
        <time>2024-07-31T07:53:32.773Z</time>
      </trkpt>
      <trkpt lat="54.40381" lon="16.37101">
        <ele>33.898443</ele>
        <time>2024-07-31T07:53:35.798Z</time>
      </trkpt>
      <trkpt lat="54.40379" lon="16.37119">
        <ele>33.910165</ele>
        <time>2024-07-31T07:53:38.809Z</time>
      </trkpt>
      <trkpt lat="54.40378" lon="16.37137">
        <ele>33.922657</ele>
        <time>2024-07-31T07:53:41.800Z</time>
      </trkpt>
      <trkpt lat="54.40377" lon="16.37157">
        <ele>33.936008</ele>
        <time>2024-07-31T07:53:44.783Z</time>
      </trkpt>
      <trkpt lat="54.40378" lon="16.37177">
        <ele>33.949883</ele>
        <time>2024-07-31T07:53:47.797Z</time>
      </trkpt>
      <trkpt lat="54.4038" lon="16.37197">
        <ele>33.963817</ele>
        <time>2024-07-31T07:53:50.803Z</time>
      </trkpt>
      <trkpt lat="54.40382" lon="16.37217">
        <ele>33.977527</ele>
        <time>2024-07-31T07:53:53.799Z</time>
      </trkpt>
      <trkpt lat="54.40387" lon="16.37237">
        <ele>33.991964</ele>
        <time>2024-07-31T07:53:56.788Z</time>
      </trkpt>
      <trkpt lat="54.4039" lon="16.37255">
        <ele>34.005305</ele>
        <time>2024-07-31T07:53:59.800Z</time>
      </trkpt>
      <trkpt lat="54.40396" lon="16.37274">
        <ele>34.019638</ele>
        <time>2024-07-31T07:54:02.802Z</time>
      </trkpt>
      <trkpt lat="54.40401" lon="16.37292">
        <ele>34.033146</ele>
        <time>2024-07-31T07:54:05.809Z</time>
      </trkpt>
      <trkpt lat="54.40405" lon="16.37312">
        <ele>34.047217</ele>
        <time>2024-07-31T07:54:08.783Z</time>
      </trkpt>
      <trkpt lat="54.40411" lon="16.37331">
        <ele>34.061871</ele>
        <time>2024-07-31T07:54:11.808Z</time>
      </trkpt>
      <trkpt lat="54.40418" lon="16.37349">
        <ele>34.087941</ele>
        <time>2024-07-31T07:54:14.797Z</time>
      </trkpt>
      <trkpt lat="54.40422" lon="16.37369">
        <ele>34.118806</ele>
        <time>2024-07-31T07:54:17.784Z</time>
      </trkpt>
      <trkpt lat="54.40425" lon="16.37389">
        <ele>34.149675</ele>
        <time>2024-07-31T07:54:20.813Z</time>
      </trkpt>
      <trkpt lat="54.40427" lon="16.37409">
        <ele>34.179913</ele>
        <time>2024-07-31T07:54:23.814Z</time>
      </trkpt>
      <trkpt lat="54.4043" lon="16.37424">
        <ele>34.203459</ele>
        <time>2024-07-31T07:54:25.816Z</time>
      </trkpt>
      <trkpt lat="54.40433" lon="16.3744">
        <ele>34.227562</ele>
        <time>2024-07-31T07:54:27.791Z</time>
      </trkpt>
      <trkpt lat="54.40436" lon="16.37456">
        <ele>34.252197</ele>
        <time>2024-07-31T07:54:29.798Z</time>
      </trkpt>
      <trkpt lat="54.40438" lon="16.37473">
        <ele>34.277088</ele>
        <time>2024-07-31T07:54:31.795Z</time>
      </trkpt>
      <trkpt lat="54.4044" lon="16.37489">
        <ele>34.302243</ele>
        <time>2024-07-31T07:54:33.787Z</time>
      </trkpt>
      <trkpt lat="54.40443" lon="16.37506">
        <ele>34.327388</ele>
        <time>2024-07-31T07:54:35.794Z</time>
      </trkpt>
      <trkpt lat="54.40446" lon="16.37523">
        <ele>34.353806</ele>
        <time>2024-07-31T07:54:37.769Z</time>
      </trkpt>
      <trkpt lat="54.40448" lon="16.37541">
        <ele>34.380985</ele>
        <time>2024-07-31T07:54:39.803Z</time>
      </trkpt>
      <trkpt lat="54.40451" lon="16.37559">
        <ele>34.40712</ele>
        <time>2024-07-31T07:54:41.798Z</time>
      </trkpt>
      <trkpt lat="54.40452" lon="16.37575">
        <ele>34.4322</ele>
        <time>2024-07-31T07:54:43.803Z</time>
      </trkpt>
      <trkpt lat="54.40453" lon="16.37592">
        <ele>34.45674</ele>
        <time>2024-07-31T07:54:45.813Z</time>
      </trkpt>
      <trkpt lat="54.40454" lon="16.37608">
        <ele>34.479639</ele>
        <time>2024-07-31T07:54:47.797Z</time>
      </trkpt>
      <trkpt lat="54.40453" lon="16.3763">
        <ele>34.512179</ele>
        <time>2024-07-31T07:54:50.801Z</time>
      </trkpt>
      <trkpt lat="54.40451" lon="16.37645">
        <ele>34.552734</ele>
        <time>2024-07-31T07:54:52.784Z</time>
      </trkpt>
      <trkpt lat="54.40449" lon="16.37661">
        <ele>34.602312</ele>
        <time>2024-07-31T07:54:54.814Z</time>
      </trkpt>
      <trkpt lat="54.40445" lon="16.37682">
        <ele>34.674391</ele>
        <time>2024-07-31T07:54:57.793Z</time>
      </trkpt>
      <trkpt lat="54.40439" lon="16.37702">
        <ele>34.743724</ele>
        <time>2024-07-31T07:55:00.800Z</time>
      </trkpt>
      <trkpt lat="54.40435" lon="16.37716">
        <ele>34.793877</ele>
        <time>2024-07-31T07:55:02.808Z</time>
      </trkpt>
      <trkpt lat="54.40428" lon="16.37736">
        <ele>34.864659</ele>
        <time>2024-07-31T07:55:05.799Z</time>
      </trkpt>
      <trkpt lat="54.40424" lon="16.37755">
        <ele>34.929128</ele>
        <time>2024-07-31T07:55:08.791Z</time>
      </trkpt>
      <trkpt lat="54.40418" lon="16.37774">
        <ele>34.999122</ele>
        <time>2024-07-31T07:55:11.821Z</time>
      </trkpt>
      <trkpt lat="54.40412" lon="16.37794">
        <ele>35.067092</ele>
        <time>2024-07-31T07:55:14.802Z</time>
      </trkpt>
      <trkpt lat="54.40407" lon="16.37807">
        <ele>35.116446</ele>
        <time>2024-07-31T07:55:16.805Z</time>
      </trkpt>
      <trkpt lat="54.40402" lon="16.3782">
        <ele>35.165584</ele>
        <time>2024-07-31T07:55:18.811Z</time>
      </trkpt>
      <trkpt lat="54.40396" lon="16.37841">
        <ele>35.236758</ele>
        <time>2024-07-31T07:55:21.788Z</time>
      </trkpt>
      <trkpt lat="54.4039" lon="16.37861">
        <ele>35.308174</ele>
        <time>2024-07-31T07:55:24.803Z</time>
      </trkpt>
      <trkpt lat="54.40386" lon="16.37875">
        <ele>35.358614</ele>
        <time>2024-07-31T07:55:26.809Z</time>
      </trkpt>
      <trkpt lat="54.40382" lon="16.37889">
        <ele>35.408824</ele>
        <time>2024-07-31T07:55:28.807Z</time>
      </trkpt>
      <trkpt lat="54.40377" lon="16.37905">
        <ele>35.465512</ele>
        <time>2024-07-31T07:55:30.803Z</time>
      </trkpt>
      <trkpt lat="54.40373" lon="16.3792">
        <ele>35.529149</ele>
        <time>2024-07-31T07:55:32.802Z</time>
      </trkpt>
      <trkpt lat="54.40369" lon="16.37936">
        <ele>35.603343</ele>
        <time>2024-07-31T07:55:34.816Z</time>
      </trkpt>
      <trkpt lat="54.40366" lon="16.37953">
        <ele>35.679213</ele>
        <time>2024-07-31T07:55:36.794Z</time>
      </trkpt>
      <trkpt lat="54.40364" lon="16.3797">
        <ele>35.75371</ele>
        <time>2024-07-31T07:55:38.796Z</time>
      </trkpt>
      <trkpt lat="54.40363" lon="16.37988">
        <ele>35.832503</ele>
        <time>2024-07-31T07:55:40.799Z</time>
      </trkpt>
      <trkpt lat="54.40363" lon="16.38006">
        <ele>35.90915</ele>
        <time>2024-07-31T07:55:42.805Z</time>
      </trkpt>
      <trkpt lat="54.40363" lon="16.38023">
        <ele>35.984541</ele>
        <time>2024-07-31T07:55:44.802Z</time>
      </trkpt>
      <trkpt lat="54.40364" lon="16.38041">
        <ele>36.059735</ele>
        <time>2024-07-31T07:55:46.797Z</time>
      </trkpt>
      <trkpt lat="54.40366" lon="16.38058">
        <ele>36.134341</ele>
        <time>2024-07-31T07:55:48.800Z</time>
      </trkpt>
      <trkpt lat="54.40369" lon="16.38074">
        <ele>36.209111</ele>
        <time>2024-07-31T07:55:50.808Z</time>
      </trkpt>
      <trkpt lat="54.40371" lon="16.38091">
        <ele>36.283855</ele>
        <time>2024-07-31T07:55:52.799Z</time>
      </trkpt>
      <trkpt lat="54.40372" lon="16.38109">
        <ele>36.35974</ele>
        <time>2024-07-31T07:55:54.800Z</time>
      </trkpt>
      <trkpt lat="54.40375" lon="16.38125">
        <ele>36.432703</ele>
        <time>2024-07-31T07:55:56.814Z</time>
      </trkpt>
      <trkpt lat="54.40377" lon="16.38141">
        <ele>36.504488</ele>
        <time>2024-07-31T07:55:58.799Z</time>
      </trkpt>
      <trkpt lat="54.40378" lon="16.38158">
        <ele>36.579506</ele>
        <time>2024-07-31T07:56:00.803Z</time>
      </trkpt>
      <trkpt lat="54.40377" lon="16.38181">
        <ele>36.678832</ele>
        <time>2024-07-31T07:56:03.789Z</time>
      </trkpt>
      <trkpt lat="54.40378" lon="16.38197">
        <ele>36.746713</ele>
        <time>2024-07-31T07:56:05.805Z</time>
      </trkpt>
      <trkpt lat="54.40379" lon="16.38212">
        <ele>36.813916</ele>
        <time>2024-07-31T07:56:07.791Z</time>
      </trkpt>
      <trkpt lat="54.40381" lon="16.38235">
        <ele>36.888092</ele>
        <time>2024-07-31T07:56:10.796Z</time>
      </trkpt>
      <trkpt lat="54.40383" lon="16.38251">
        <ele>36.935885</ele>
        <time>2024-07-31T07:56:12.811Z</time>
      </trkpt>
      <trkpt lat="54.40386" lon="16.38266">
        <ele>36.984141</ele>
        <time>2024-07-31T07:56:14.795Z</time>
      </trkpt>
      <trkpt lat="54.40389" lon="16.38281">
        <ele>37.033924</ele>
        <time>2024-07-31T07:56:16.795Z</time>
      </trkpt>
      <trkpt lat="54.40392" lon="16.38297">
        <ele>37.085287</ele>
        <time>2024-07-31T07:56:18.796Z</time>
      </trkpt>
      <trkpt lat="54.40397" lon="16.38311">
        <ele>37.13626</ele>
        <time>2024-07-31T07:56:20.781Z</time>
      </trkpt>
      <trkpt lat="54.40402" lon="16.38325">
        <ele>37.185551</ele>
        <time>2024-07-31T07:56:22.794Z</time>
      </trkpt>
      <trkpt lat="54.40408" lon="16.38337">
        <ele>37.235433</ele>
        <time>2024-07-31T07:56:24.790Z</time>
      </trkpt>
      <trkpt lat="54.40414" lon="16.3835">
        <ele>37.285032</ele>
        <time>2024-07-31T07:56:26.813Z</time>
      </trkpt>
      <trkpt lat="54.40421" lon="16.38361">
        <ele>37.333726</ele>
        <time>2024-07-31T07:56:28.815Z</time>
      </trkpt>
      <trkpt lat="54.40427" lon="16.38373">
        <ele>37.382556</ele>
        <time>2024-07-31T07:56:30.785Z</time>
      </trkpt>
      <trkpt lat="54.40434" lon="16.38385">
        <ele>37.431608</ele>
        <time>2024-07-31T07:56:32.790Z</time>
      </trkpt>
      <trkpt lat="54.4044" lon="16.38396">
        <ele>37.480078</ele>
        <time>2024-07-31T07:56:34.783Z</time>
      </trkpt>
      <trkpt lat="54.40449" lon="16.38413">
        <ele>37.550059</ele>
        <time>2024-07-31T07:56:37.784Z</time>
      </trkpt>
      <trkpt lat="54.40455" lon="16.38424">
        <ele>37.597643</ele>
        <time>2024-07-31T07:56:39.797Z</time>
      </trkpt>
      <trkpt lat="54.40461" lon="16.38436">
        <ele>37.645403</ele>
        <time>2024-07-31T07:56:41.804Z</time>
      </trkpt>
      <trkpt lat="54.40468" lon="16.38447">
        <ele>37.693207</ele>
        <time>2024-07-31T07:56:43.799Z</time>
      </trkpt>
      <trkpt lat="54.40476" lon="16.38464">
        <ele>37.762608</ele>
        <time>2024-07-31T07:56:46.790Z</time>
      </trkpt>
      <trkpt lat="54.40485" lon="16.3848">
        <ele>37.863714</ele>
        <time>2024-07-31T07:56:49.796Z</time>
      </trkpt>
      <trkpt lat="54.40494" lon="16.38496">
        <ele>37.964482</ele>
        <time>2024-07-31T07:56:52.787Z</time>
      </trkpt>
      <trkpt lat="54.40502" lon="16.3851">
        <ele>38.060022</ele>
        <time>2024-07-31T07:56:55.792Z</time>
      </trkpt>
      <trkpt lat="54.4051" lon="16.38527">
        <ele>38.161508</ele>
        <time>2024-07-31T07:56:58.792Z</time>
      </trkpt>
      <trkpt lat="54.40519" lon="16.38542">
        <ele>38.263701</ele>
        <time>2024-07-31T07:57:01.810Z</time>
      </trkpt>
      <trkpt lat="54.40529" lon="16.38556">
        <ele>38.368692</ele>
        <time>2024-07-31T07:57:04.802Z</time>
      </trkpt>
      <trkpt lat="54.40539" lon="16.38572">
        <ele>38.477228</ele>
        <time>2024-07-31T07:57:07.800Z</time>
      </trkpt>
      <trkpt lat="54.40545" lon="16.38584">
        <ele>38.550355</ele>
        <time>2024-07-31T07:57:09.793Z</time>
      </trkpt>
      <trkpt lat="54.40554" lon="16.38601">
        <ele>38.656244</ele>
        <time>2024-07-31T07:57:12.810Z</time>
      </trkpt>
      <trkpt lat="54.40563" lon="16.38617">
        <ele>38.7626</ele>
        <time>2024-07-31T07:57:15.797Z</time>
      </trkpt>
      <trkpt lat="54.4057" lon="16.38635">
        <ele>38.862915</ele>
        <time>2024-07-31T07:57:18.786Z</time>
      </trkpt>
      <trkpt lat="54.40577" lon="16.38651">
        <ele>38.957169</ele>
        <time>2024-07-31T07:57:21.800Z</time>
      </trkpt>
      <trkpt lat="54.40585" lon="16.38665">
        <ele>39.056076</ele>
        <time>2024-07-31T07:57:24.819Z</time>
      </trkpt>
      <trkpt lat="54.40594" lon="16.38681">
        <ele>39.156842</ele>
        <time>2024-07-31T07:57:27.804Z</time>
      </trkpt>
      <trkpt lat="54.40602" lon="16.38697">
        <ele>39.243785</ele>
        <time>2024-07-31T07:57:30.778Z</time>
      </trkpt>
      <trkpt lat="54.40611" lon="16.38712">
        <ele>39.301005</ele>
        <time>2024-07-31T07:57:33.797Z</time>
      </trkpt>
      <trkpt lat="54.40618" lon="16.38725">
        <ele>39.352055</ele>
        <time>2024-07-31T07:57:36.787Z</time>
      </trkpt>
      <trkpt lat="54.40625" lon="16.38738">
        <ele>39.398442</ele>
        <time>2024-07-31T07:57:39.798Z</time>
      </trkpt>
      <trkpt lat="54.40633" lon="16.38748">
        <ele>39.443077</ele>
        <time>2024-07-31T07:57:42.833Z</time>
      </trkpt>
      <trkpt lat="54.40641" lon="16.38759">
        <ele>39.492368</ele>
        <time>2024-07-31T07:57:45.795Z</time>
      </trkpt>
      <trkpt lat="54.40648" lon="16.38771">
        <ele>39.538344</ele>
        <time>2024-07-31T07:57:48.816Z</time>
      </trkpt>
      <trkpt lat="54.40656" lon="16.38785">
        <ele>39.591728</ele>
        <time>2024-07-31T07:57:51.807Z</time>
      </trkpt>
      <trkpt lat="54.40664" lon="16.38799">
        <ele>39.644398</ele>
        <time>2024-07-31T07:57:54.817Z</time>
      </trkpt>
      <trkpt lat="54.40673" lon="16.38815">
        <ele>39.704333</ele>
        <time>2024-07-31T07:57:57.798Z</time>
      </trkpt>
      <trkpt lat="54.4068" lon="16.38826">
        <ele>39.74852</ele>
        <time>2024-07-31T07:57:59.808Z</time>
      </trkpt>
      <trkpt lat="54.40688" lon="16.38839">
        <ele>39.799138</ele>
        <time>2024-07-31T07:58:02.804Z</time>
      </trkpt>
      <trkpt lat="54.40695" lon="16.38851">
        <ele>39.843964</ele>
        <time>2024-07-31T07:58:05.794Z</time>
      </trkpt>
      <trkpt lat="54.4069" lon="16.38867">
        <ele>39.894742</ele>
        <time>2024-07-31T07:58:12.791Z</time>
      </trkpt>
      <trkpt lat="54.40685" lon="16.38883">
        <ele>39.9428</ele>
        <time>2024-07-31T07:58:17.782Z</time>
      </trkpt>
      <trkpt lat="54.40693" lon="16.38897">
        <ele>39.997881</ele>
        <time>2024-07-31T07:58:21.785Z</time>
      </trkpt>
      <trkpt lat="54.40701" lon="16.3891">
        <ele>40.048249</ele>
        <time>2024-07-31T07:58:24.816Z</time>
      </trkpt>
      <trkpt lat="54.4071" lon="16.38923">
        <ele>39.997672</ele>
        <time>2024-07-31T07:58:27.788Z</time>
      </trkpt>
      <trkpt lat="54.40718" lon="16.38937">
        <ele>39.905015</ele>
        <time>2024-07-31T07:58:30.823Z</time>
      </trkpt>
      <trkpt lat="54.40725" lon="16.38948">
        <ele>39.835664</ele>
        <time>2024-07-31T07:58:32.806Z</time>
      </trkpt>
      <trkpt lat="54.40735" lon="16.38962">
        <ele>39.734819</ele>
        <time>2024-07-31T07:58:35.801Z</time>
      </trkpt>
      <trkpt lat="54.40742" lon="16.38972">
        <ele>39.663455</ele>
        <time>2024-07-31T07:58:37.805Z</time>
      </trkpt>
      <trkpt lat="54.40749" lon="16.38984">
        <ele>39.590278</ele>
        <time>2024-07-31T07:58:39.805Z</time>
      </trkpt>
      <trkpt lat="54.40755" lon="16.38995">
        <ele>39.515238</ele>
        <time>2024-07-31T07:58:41.795Z</time>
      </trkpt>
      <trkpt lat="54.40763" lon="16.39007">
        <ele>39.438556</ele>
        <time>2024-07-31T07:58:43.804Z</time>
      </trkpt>
      <trkpt lat="54.4077" lon="16.39018">
        <ele>39.361522</ele>
        <time>2024-07-31T07:58:45.798Z</time>
      </trkpt>
      <trkpt lat="54.40777" lon="16.3903">
        <ele>39.283863</ele>
        <time>2024-07-31T07:58:47.798Z</time>
      </trkpt>
      <trkpt lat="54.40784" lon="16.39043">
        <ele>39.20343</ele>
        <time>2024-07-31T07:58:49.799Z</time>
      </trkpt>
      <trkpt lat="54.40792" lon="16.39056">
        <ele>39.118327</ele>
        <time>2024-07-31T07:58:51.811Z</time>
      </trkpt>
      <trkpt lat="54.408" lon="16.39068">
        <ele>39.034893</ele>
        <time>2024-07-31T07:58:53.793Z</time>
      </trkpt>
      <trkpt lat="54.40808" lon="16.39081">
        <ele>38.95105</ele>
        <time>2024-07-31T07:58:55.800Z</time>
      </trkpt>
      <trkpt lat="54.40816" lon="16.39094">
        <ele>38.865145</ele>
        <time>2024-07-31T07:58:57.787Z</time>
      </trkpt>
      <trkpt lat="54.40824" lon="16.39107">
        <ele>38.778366</ele>
        <time>2024-07-31T07:58:59.791Z</time>
      </trkpt>
      <trkpt lat="54.40832" lon="16.3912">
        <ele>38.692461</ele>
        <time>2024-07-31T07:59:01.803Z</time>
      </trkpt>
      <trkpt lat="54.4084" lon="16.39133">
        <ele>38.708614</ele>
        <time>2024-07-31T07:59:03.797Z</time>
      </trkpt>
      <trkpt lat="54.40848" lon="16.39147">
        <ele>38.778088</ele>
        <time>2024-07-31T07:59:05.795Z</time>
      </trkpt>
      <trkpt lat="54.40857" lon="16.3916">
        <ele>38.846657</ele>
        <time>2024-07-31T07:59:07.803Z</time>
      </trkpt>
      <trkpt lat="54.40865" lon="16.39173">
        <ele>38.915676</ele>
        <time>2024-07-31T07:59:09.813Z</time>
      </trkpt>
      <trkpt lat="54.40873" lon="16.39186">
        <ele>38.98404</ele>
        <time>2024-07-31T07:59:11.803Z</time>
      </trkpt>
      <trkpt lat="54.40881" lon="16.392">
        <ele>39.051904</ele>
        <time>2024-07-31T07:59:13.783Z</time>
      </trkpt>
      <trkpt lat="54.40889" lon="16.39214">
        <ele>39.121377</ele>
        <time>2024-07-31T07:59:15.791Z</time>
      </trkpt>
      <trkpt lat="54.40897" lon="16.39227">
        <ele>39.186125</ele>
        <time>2024-07-31T07:59:17.794Z</time>
      </trkpt>
      <trkpt lat="54.40904" lon="16.39238">
        <ele>39.247283</ele>
        <time>2024-07-31T07:59:19.787Z</time>
      </trkpt>
      <trkpt lat="54.40911" lon="16.3925">
        <ele>39.306137</ele>
        <time>2024-07-31T07:59:21.798Z</time>
      </trkpt>
      <trkpt lat="54.40919" lon="16.39258">
        <ele>39.363861</ele>
        <time>2024-07-31T07:59:23.783Z</time>
      </trkpt>
      <trkpt lat="54.40927" lon="16.39267">
        <ele>39.423027</ele>
        <time>2024-07-31T07:59:25.801Z</time>
      </trkpt>
      <trkpt lat="54.40934" lon="16.39279">
        <ele>39.480645</ele>
        <time>2024-07-31T07:59:27.789Z</time>
      </trkpt>
      <trkpt lat="54.40939" lon="16.39292">
        <ele>39.536083</ele>
        <time>2024-07-31T07:59:29.791Z</time>
      </trkpt>
      <trkpt lat="54.40945" lon="16.39305">
        <ele>39.59587</ele>
        <time>2024-07-31T07:59:31.785Z</time>
      </trkpt>
      <trkpt lat="54.40953" lon="16.39316">
        <ele>39.657489</ele>
        <time>2024-07-31T07:59:33.788Z</time>
      </trkpt>
      <trkpt lat="54.40962" lon="16.39323">
        <ele>39.715068</ele>
        <time>2024-07-31T07:59:35.795Z</time>
      </trkpt>
      <trkpt lat="54.40972" lon="16.39335">
        <ele>39.779953</ele>
        <time>2024-07-31T07:59:38.798Z</time>
      </trkpt>
      <trkpt lat="54.4098" lon="16.39349">
        <ele>39.830704</ele>
        <time>2024-07-31T07:59:41.801Z</time>
      </trkpt>
      <trkpt lat="54.40989" lon="16.39363">
        <ele>39.878352</ele>
        <time>2024-07-31T07:59:44.785Z</time>
      </trkpt>
      <trkpt lat="54.40997" lon="16.39376">
        <ele>39.926596</ele>
        <time>2024-07-31T07:59:47.794Z</time>
      </trkpt>
      <trkpt lat="54.41005" lon="16.3939">
        <ele>39.972215</ele>
        <time>2024-07-31T07:59:50.788Z</time>
      </trkpt>
      <trkpt lat="54.41013" lon="16.39403">
        <ele>40.018706</ele>
        <time>2024-07-31T07:59:53.789Z</time>
      </trkpt>
      <trkpt lat="54.41021" lon="16.39417">
        <ele>40.067631</ele>
        <time>2024-07-31T07:59:56.794Z</time>
      </trkpt>
      <trkpt lat="54.41029" lon="16.39431">
        <ele>40.11612</ele>
        <time>2024-07-31T07:59:59.783Z</time>
      </trkpt>
      <trkpt lat="54.41038" lon="16.39444">
        <ele>40.165627</ele>
        <time>2024-07-31T08:00:02.792Z</time>
      </trkpt>
      <trkpt lat="54.41048" lon="16.3946">
        <ele>40.219796</ele>
        <time>2024-07-31T08:00:05.784Z</time>
      </trkpt>
      <trkpt lat="54.41057" lon="16.39475">
        <ele>40.275049</ele>
        <time>2024-07-31T08:00:08.798Z</time>
      </trkpt>
      <trkpt lat="54.41064" lon="16.39486">
        <ele>40.314593</ele>
        <time>2024-07-31T08:00:10.796Z</time>
      </trkpt>
      <trkpt lat="54.41071" lon="16.39498">
        <ele>40.355554</ele>
        <time>2024-07-31T08:00:12.796Z</time>
      </trkpt>
      <trkpt lat="54.41079" lon="16.3951">
        <ele>40.399373</ele>
        <time>2024-07-31T08:00:14.781Z</time>
      </trkpt>
      <trkpt lat="54.41087" lon="16.39522">
        <ele>40.443556</ele>
        <time>2024-07-31T08:00:16.788Z</time>
      </trkpt>
      <trkpt lat="54.41094" lon="16.39536">
        <ele>40.489046</ele>
        <time>2024-07-31T08:00:18.784Z</time>
      </trkpt>
      <trkpt lat="54.41101" lon="16.3955">
        <ele>40.418921</ele>
        <time>2024-07-31T08:00:20.785Z</time>
      </trkpt>
      <trkpt lat="54.41109" lon="16.39565">
        <ele>40.212702</ele>
        <time>2024-07-31T08:00:22.796Z</time>
      </trkpt>
      <trkpt lat="54.41118" lon="16.39578">
        <ele>40.005657</ele>
        <time>2024-07-31T08:00:24.806Z</time>
      </trkpt>
      <trkpt lat="54.41126" lon="16.39592">
        <ele>39.800486</ele>
        <time>2024-07-31T08:00:26.825Z</time>
      </trkpt>
      <trkpt lat="54.41135" lon="16.39605">
        <ele>39.595498</ele>
        <time>2024-07-31T08:00:28.788Z</time>
      </trkpt>
      <trkpt lat="54.41143" lon="16.39619">
        <ele>39.39318</ele>
        <time>2024-07-31T08:00:30.798Z</time>
      </trkpt>
      <trkpt lat="54.41151" lon="16.39633">
        <ele>39.198888</ele>
        <time>2024-07-31T08:00:32.801Z</time>
      </trkpt>
      <trkpt lat="54.41159" lon="16.39648">
        <ele>38.995046</ele>
        <time>2024-07-31T08:00:34.795Z</time>
      </trkpt>
      <trkpt lat="54.41168" lon="16.39662">
        <ele>38.780672</ele>
        <time>2024-07-31T08:00:36.800Z</time>
      </trkpt>
      <trkpt lat="54.41176" lon="16.39676">
        <ele>38.573525</ele>
        <time>2024-07-31T08:00:38.787Z</time>
      </trkpt>
      <trkpt lat="54.41185" lon="16.39689">
        <ele>38.370526</ele>
        <time>2024-07-31T08:00:40.797Z</time>
      </trkpt>
      <trkpt lat="54.41193" lon="16.39703">
        <ele>38.167992</ele>
        <time>2024-07-31T08:00:42.795Z</time>
      </trkpt>
      <trkpt lat="54.41201" lon="16.39717">
        <ele>37.96804</ele>
        <time>2024-07-31T08:00:44.789Z</time>
      </trkpt>
      <trkpt lat="54.41209" lon="16.39729">
        <ele>37.781683</ele>
        <time>2024-07-31T08:00:46.803Z</time>
      </trkpt>
      <trkpt lat="54.41216" lon="16.39741">
        <ele>37.6093</ele>
        <time>2024-07-31T08:00:48.810Z</time>
      </trkpt>
      <trkpt lat="54.41226" lon="16.39756">
        <ele>37.374098</ele>
        <time>2024-07-31T08:00:51.806Z</time>
      </trkpt>
      <trkpt lat="54.41235" lon="16.39772">
        <ele>37.231762</ele>
        <time>2024-07-31T08:00:54.794Z</time>
      </trkpt>
      <trkpt lat="54.41242" lon="16.39783">
        <ele>37.13298</ele>
        <time>2024-07-31T08:00:56.800Z</time>
      </trkpt>
      <trkpt lat="54.41249" lon="16.39794">
        <ele>37.03382</ele>
        <time>2024-07-31T08:00:58.784Z</time>
      </trkpt>
      <trkpt lat="54.41258" lon="16.39804">
        <ele>36.923821</ele>
        <time>2024-07-31T08:01:00.782Z</time>
      </trkpt>
      <trkpt lat="54.41266" lon="16.39817">
        <ele>36.808475</ele>
        <time>2024-07-31T08:01:02.801Z</time>
      </trkpt>
      <trkpt lat="54.41274" lon="16.3983">
        <ele>36.693183</ele>
        <time>2024-07-31T08:01:04.780Z</time>
      </trkpt>
      <trkpt lat="54.41282" lon="16.39844">
        <ele>36.573986</ele>
        <time>2024-07-31T08:01:06.809Z</time>
      </trkpt>
      <trkpt lat="54.41291" lon="16.39858">
        <ele>36.455325</ele>
        <time>2024-07-31T08:01:08.788Z</time>
      </trkpt>
      <trkpt lat="54.41299" lon="16.39871">
        <ele>36.336407</ele>
        <time>2024-07-31T08:01:10.791Z</time>
      </trkpt>
      <trkpt lat="54.41307" lon="16.39885">
        <ele>36.220386</ele>
        <time>2024-07-31T08:01:12.797Z</time>
      </trkpt>
      <trkpt lat="54.41316" lon="16.39898">
        <ele>36.094816</ele>
        <time>2024-07-31T08:01:14.802Z</time>
      </trkpt>
      <trkpt lat="54.41325" lon="16.39912">
        <ele>35.966512</ele>
        <time>2024-07-31T08:01:16.808Z</time>
      </trkpt>
      <trkpt lat="54.41334" lon="16.39927">
        <ele>35.840343</ele>
        <time>2024-07-31T08:01:18.810Z</time>
      </trkpt>
      <trkpt lat="54.41343" lon="16.39941">
        <ele>35.715851</ele>
        <time>2024-07-31T08:01:20.818Z</time>
      </trkpt>
      <trkpt lat="54.41352" lon="16.39955">
        <ele>35.591836</ele>
        <time>2024-07-31T08:01:22.802Z</time>
      </trkpt>
      <trkpt lat="54.4136" lon="16.39968">
        <ele>35.488752</ele>
        <time>2024-07-31T08:01:24.803Z</time>
      </trkpt>
      <trkpt lat="54.41368" lon="16.39982">
        <ele>35.485462</ele>
        <time>2024-07-31T08:01:26.814Z</time>
      </trkpt>
      <trkpt lat="54.41376" lon="16.39996">
        <ele>35.482117</ele>
        <time>2024-07-31T08:01:28.808Z</time>
      </trkpt>
      <trkpt lat="54.41384" lon="16.4001">
        <ele>35.47878</ele>
        <time>2024-07-31T08:01:30.787Z</time>
      </trkpt>
      <trkpt lat="54.41393" lon="16.40023">
        <ele>35.475449</ele>
        <time>2024-07-31T08:01:32.784Z</time>
      </trkpt>
      <trkpt lat="54.41401" lon="16.40037">
        <ele>35.472247</ele>
        <time>2024-07-31T08:01:34.783Z</time>
      </trkpt>
      <trkpt lat="54.41409" lon="16.40049">
        <ele>35.469258</ele>
        <time>2024-07-31T08:01:36.795Z</time>
      </trkpt>
      <trkpt lat="54.41414" lon="16.40061">
        <ele>35.46659</ele>
        <time>2024-07-31T08:01:38.815Z</time>
      </trkpt>
      <trkpt lat="54.41414" lon="16.40079">
        <ele>35.463499</ele>
        <time>2024-07-31T08:01:41.808Z</time>
      </trkpt>
      <trkpt lat="54.41419" lon="16.40095">
        <ele>35.460542</ele>
        <time>2024-07-31T08:01:47.795Z</time>
      </trkpt>
      <trkpt lat="54.41427" lon="16.40104">
        <ele>35.457703</ele>
        <time>2024-07-31T08:01:50.796Z</time>
      </trkpt>
      <trkpt lat="54.41438" lon="16.40109">
        <ele>35.454474</ele>
        <time>2024-07-31T08:01:53.798Z</time>
      </trkpt>
      <trkpt lat="54.41448" lon="16.40118">
        <ele>35.451158</ele>
        <time>2024-07-31T08:01:56.787Z</time>
      </trkpt>
      <trkpt lat="54.41455" lon="16.40128">
        <ele>35.448528</ele>
        <time>2024-07-31T08:01:58.788Z</time>
      </trkpt>
      <trkpt lat="54.41463" lon="16.40137">
        <ele>35.44593</ele>
        <time>2024-07-31T08:02:00.781Z</time>
      </trkpt>
      <trkpt lat="54.41469" lon="16.40148">
        <ele>35.443269</ele>
        <time>2024-07-31T08:02:02.793Z</time>
      </trkpt>
      <trkpt lat="54.41477" lon="16.40158">
        <ele>35.440443</ele>
        <time>2024-07-31T08:02:04.789Z</time>
      </trkpt>
      <trkpt lat="54.41483" lon="16.40171">
        <ele>35.437665</ele>
        <time>2024-07-31T08:02:06.813Z</time>
      </trkpt>
      <trkpt lat="54.41487" lon="16.40186">
        <ele>35.45354</ele>
        <time>2024-07-31T08:02:08.791Z</time>
      </trkpt>
      <trkpt lat="54.41487" lon="16.40202">
        <ele>35.473354</ele>
        <time>2024-07-31T08:02:10.801Z</time>
      </trkpt>
      <trkpt lat="54.41484" lon="16.40217">
        <ele>35.494042</ele>
        <time>2024-07-31T08:02:12.791Z</time>
      </trkpt>
      <trkpt lat="54.41479" lon="16.40231">
        <ele>35.514488</ele>
        <time>2024-07-31T08:02:14.791Z</time>
      </trkpt>
      <trkpt lat="54.41473" lon="16.40244">
        <ele>35.534717</ele>
        <time>2024-07-31T08:02:16.794Z</time>
      </trkpt>
      <trkpt lat="54.41465" lon="16.40255">
        <ele>35.55545</ele>
        <time>2024-07-31T08:02:18.812Z</time>
      </trkpt>
      <trkpt lat="54.41458" lon="16.40267">
        <ele>35.576893</ele>
        <time>2024-07-31T08:02:20.805Z</time>
      </trkpt>
      <trkpt lat="54.41451" lon="16.40279">
        <ele>35.598467</ele>
        <time>2024-07-31T08:02:22.793Z</time>
      </trkpt>
      <trkpt lat="54.41444" lon="16.40293">
        <ele>35.620325</ele>
        <time>2024-07-31T08:02:24.798Z</time>
      </trkpt>
      <trkpt lat="54.41438" lon="16.40306">
        <ele>35.6411</ele>
        <time>2024-07-31T08:02:26.798Z</time>
      </trkpt>
      <trkpt lat="54.41431" lon="16.40318">
        <ele>35.662913</ele>
        <time>2024-07-31T08:02:28.803Z</time>
      </trkpt>
      <trkpt lat="54.41422" lon="16.40328">
        <ele>35.684884</ele>
        <time>2024-07-31T08:02:30.793Z</time>
      </trkpt>
      <trkpt lat="54.41413" lon="16.40337">
        <ele>35.706645</ele>
        <time>2024-07-31T08:02:32.797Z</time>
      </trkpt>
      <trkpt lat="54.41406" lon="16.40349">
        <ele>35.728069</ele>
        <time>2024-07-31T08:02:34.784Z</time>
      </trkpt>
      <trkpt lat="54.41399" lon="16.40361">
        <ele>35.749139</ele>
        <time>2024-07-31T08:02:36.780Z</time>
      </trkpt>
      <trkpt lat="54.41393" lon="16.40373">
        <ele>35.769379</ele>
        <time>2024-07-31T08:02:38.797Z</time>
      </trkpt>
      <trkpt lat="54.41384" lon="16.40391">
        <ele>35.797489</ele>
        <time>2024-07-31T08:02:41.804Z</time>
      </trkpt>
      <trkpt lat="54.41376" lon="16.40407">
        <ele>35.800308</ele>
        <time>2024-07-31T08:02:44.808Z</time>
      </trkpt>
      <trkpt lat="54.41367" lon="16.40423">
        <ele>35.688185</ele>
        <time>2024-07-31T08:02:47.801Z</time>
      </trkpt>
      <trkpt lat="54.41357" lon="16.40439">
        <ele>35.573557</ele>
        <time>2024-07-31T08:02:50.795Z</time>
      </trkpt>
      <trkpt lat="54.41351" lon="16.40452">
        <ele>35.4929</ele>
        <time>2024-07-31T08:02:52.816Z</time>
      </trkpt>
      <trkpt lat="54.41344" lon="16.40463">
        <ele>35.412114</ele>
        <time>2024-07-31T08:02:54.813Z</time>
      </trkpt>
      <trkpt lat="54.41338" lon="16.40476">
        <ele>35.327892</ele>
        <time>2024-07-31T08:02:56.789Z</time>
      </trkpt>
      <trkpt lat="54.41332" lon="16.40487">
        <ele>35.249726</ele>
        <time>2024-07-31T08:02:58.823Z</time>
      </trkpt>
      <trkpt lat="54.41325" lon="16.40498">
        <ele>35.172268</ele>
        <time>2024-07-31T08:03:00.799Z</time>
      </trkpt>
      <trkpt lat="54.41319" lon="16.4051">
        <ele>35.092306</ele>
        <time>2024-07-31T08:03:02.798Z</time>
      </trkpt>
      <trkpt lat="54.41316" lon="16.40525">
        <ele>35.012177</ele>
        <time>2024-07-31T08:03:04.800Z</time>
      </trkpt>
      <trkpt lat="54.4132" lon="16.40541">
        <ele>34.927742</ele>
        <time>2024-07-31T08:03:06.805Z</time>
      </trkpt>
      <trkpt lat="54.41324" lon="16.40556">
        <ele>34.843951</ele>
        <time>2024-07-31T08:03:08.836Z</time>
      </trkpt>
      <trkpt lat="54.41331" lon="16.40569">
        <ele>34.756314</ele>
        <time>2024-07-31T08:03:10.805Z</time>
      </trkpt>
      <trkpt lat="54.41338" lon="16.40581">
        <ele>34.668665</ele>
        <time>2024-07-31T08:03:12.797Z</time>
      </trkpt>
      <trkpt lat="54.41346" lon="16.40594">
        <ele>34.578364</ele>
        <time>2024-07-31T08:03:14.783Z</time>
      </trkpt>
      <trkpt lat="54.41353" lon="16.40605">
        <ele>34.494531</ele>
        <time>2024-07-31T08:03:16.805Z</time>
      </trkpt>
      <trkpt lat="54.4136" lon="16.40618">
        <ele>34.405737</ele>
        <time>2024-07-31T08:03:18.816Z</time>
      </trkpt>
      <trkpt lat="54.41368" lon="16.4063">
        <ele>34.31708</ele>
        <time>2024-07-31T08:03:20.804Z</time>
      </trkpt>
      <trkpt lat="54.41375" lon="16.40641">
        <ele>34.343439</ele>
        <time>2024-07-31T08:03:22.799Z</time>
      </trkpt>
      <trkpt lat="54.41382" lon="16.40653">
        <ele>34.448498</ele>
        <time>2024-07-31T08:03:24.791Z</time>
      </trkpt>
      <trkpt lat="54.41389" lon="16.40665">
        <ele>34.560143</ele>
        <time>2024-07-31T08:03:26.833Z</time>
      </trkpt>
      <trkpt lat="54.41396" lon="16.40677">
        <ele>34.670262</ele>
        <time>2024-07-31T08:03:28.780Z</time>
      </trkpt>
      <trkpt lat="54.41403" lon="16.40688">
        <ele>34.774479</ele>
        <time>2024-07-31T08:03:30.801Z</time>
      </trkpt>
      <trkpt lat="54.4141" lon="16.40699">
        <ele>34.880464</ele>
        <time>2024-07-31T08:03:32.815Z</time>
      </trkpt>
      <trkpt lat="54.41419" lon="16.40711">
        <ele>35.00968</ele>
        <time>2024-07-31T08:03:35.802Z</time>
      </trkpt>
      <trkpt lat="54.41429" lon="16.40704">
        <ele>35.124872</ele>
        <time>2024-07-31T08:03:38.808Z</time>
      </trkpt>
      <trkpt lat="54.41438" lon="16.40713">
        <ele>35.242982</ele>
        <time>2024-07-31T08:03:41.789Z</time>
      </trkpt>
      <trkpt lat="54.41446" lon="16.40726">
        <ele>35.367656</ele>
        <time>2024-07-31T08:03:44.793Z</time>
      </trkpt>
      <trkpt lat="54.41454" lon="16.40742">
        <ele>35.504907</ele>
        <time>2024-07-31T08:03:47.809Z</time>
      </trkpt>
      <trkpt lat="54.41464" lon="16.40756">
        <ele>35.641959</ele>
        <time>2024-07-31T08:03:50.822Z</time>
      </trkpt>
      <trkpt lat="54.41472" lon="16.4077">
        <ele>35.772354</ele>
        <time>2024-07-31T08:03:53.799Z</time>
      </trkpt>
      <trkpt lat="54.41481" lon="16.40784">
        <ele>35.909905</ele>
        <time>2024-07-31T08:03:56.804Z</time>
      </trkpt>
      <trkpt lat="54.41491" lon="16.408">
        <ele>36.060579</ele>
        <time>2024-07-31T08:03:59.792Z</time>
      </trkpt>
      <trkpt lat="54.41497" lon="16.40811">
        <ele>36.160135</ele>
        <time>2024-07-31T08:04:01.807Z</time>
      </trkpt>
      <trkpt lat="54.41507" lon="16.40827">
        <ele>36.287615</ele>
        <time>2024-07-31T08:04:04.817Z</time>
      </trkpt>
      <trkpt lat="54.41516" lon="16.40842">
        <ele>36.324793</ele>
        <time>2024-07-31T08:04:07.802Z</time>
      </trkpt>
      <trkpt lat="54.41526" lon="16.40857">
        <ele>36.36289</ele>
        <time>2024-07-31T08:04:10.802Z</time>
      </trkpt>
      <trkpt lat="54.41536" lon="16.40871">
        <ele>36.400211</ele>
        <time>2024-07-31T08:04:13.820Z</time>
      </trkpt>
      <trkpt lat="54.41544" lon="16.40888">
        <ele>36.438071</ele>
        <time>2024-07-31T08:04:16.806Z</time>
      </trkpt>
      <trkpt lat="54.41552" lon="16.40901">
        <ele>36.47013</ele>
        <time>2024-07-31T08:04:19.801Z</time>
      </trkpt>
      <trkpt lat="54.41559" lon="16.40912">
        <ele>36.498081</ele>
        <time>2024-07-31T08:04:23.804Z</time>
      </trkpt>
      <trkpt lat="54.41568" lon="16.40922">
        <ele>36.527489</ele>
        <time>2024-07-31T08:04:34.794Z</time>
      </trkpt>
      <trkpt lat="54.41578" lon="16.40918">
        <ele>36.55808</ele>
        <time>2024-07-31T08:04:39.805Z</time>
      </trkpt>
      <trkpt lat="54.41579" lon="16.40937">
        <ele>36.590451</ele>
        <time>2024-07-31T08:04:44.789Z</time>
      </trkpt>
      <trkpt lat="54.41575" lon="16.40951">
        <ele>36.617106</ele>
        <time>2024-07-31T08:04:47.799Z</time>
      </trkpt>
      <trkpt lat="54.41571" lon="16.40967">
        <ele>36.647011</ele>
        <time>2024-07-31T08:04:51.797Z</time>
      </trkpt>
      <trkpt lat="54.41569" lon="16.40987">
        <ele>36.680942</ele>
        <time>2024-07-31T08:04:55.799Z</time>
      </trkpt>
      <trkpt lat="54.41567" lon="16.41003">
        <ele>36.7089</ele>
        <time>2024-07-31T08:04:58.804Z</time>
      </trkpt>
      <trkpt lat="54.41568" lon="16.41021">
        <ele>36.73865</ele>
        <time>2024-07-31T08:05:01.800Z</time>
      </trkpt>
      <trkpt lat="54.41568" lon="16.41038">
        <ele>36.767884</ele>
        <time>2024-07-31T08:05:04.799Z</time>
      </trkpt>
      <trkpt lat="54.4157" lon="16.41056">
        <ele>36.799358</ele>
        <time>2024-07-31T08:05:07.814Z</time>
      </trkpt>
      <trkpt lat="54.41578" lon="16.41064">
        <ele>36.842609</ele>
        <time>2024-07-31T08:05:10.788Z</time>
      </trkpt>
      <trkpt lat="54.41588" lon="16.41061">
        <ele>36.896527</ele>
        <time>2024-07-31T08:05:13.789Z</time>
      </trkpt>
      <trkpt lat="54.41598" lon="16.41058">
        <ele>36.949998</ele>
        <time>2024-07-31T08:05:16.791Z</time>
      </trkpt>
      <trkpt lat="54.41608" lon="16.41054">
        <ele>37.002607</ele>
        <time>2024-07-31T08:05:19.804Z</time>
      </trkpt>
      <trkpt lat="54.41619" lon="16.4105">
        <ele>37.057794</ele>
        <time>2024-07-31T08:05:22.796Z</time>
      </trkpt>
      <trkpt lat="54.41629" lon="16.41045">
        <ele>37.115802</ele>
        <time>2024-07-31T08:05:26.793Z</time>
      </trkpt>
      <trkpt lat="54.4164" lon="16.4104">
        <ele>37.172488</ele>
        <time>2024-07-31T08:05:30.798Z</time>
      </trkpt>
      <trkpt lat="54.41652" lon="16.41035">
        <ele>37.235068</ele>
        <time>2024-07-31T08:05:34.804Z</time>
      </trkpt>
      <trkpt lat="54.41661" lon="16.41031">
        <ele>37.286614</ele>
        <time>2024-07-31T08:05:37.781Z</time>
      </trkpt>
      <trkpt lat="54.41671" lon="16.41025">
        <ele>37.337971</ele>
        <time>2024-07-31T08:05:40.800Z</time>
      </trkpt>
      <trkpt lat="54.4168" lon="16.41021">
        <ele>37.388439</ele>
        <time>2024-07-31T08:05:43.814Z</time>
      </trkpt>
      <trkpt lat="54.41691" lon="16.41014">
        <ele>37.450166</ele>
        <time>2024-07-31T08:05:47.803Z</time>
      </trkpt>
      <trkpt lat="54.417" lon="16.41009">
        <ele>37.499275</ele>
        <time>2024-07-31T08:05:50.767Z</time>
      </trkpt>
      <trkpt lat="54.4171" lon="16.41003">
        <ele>37.550441</ele>
        <time>2024-07-31T08:05:53.795Z</time>
      </trkpt>
      <trkpt lat="54.41719" lon="16.40999">
        <ele>37.600674</ele>
        <time>2024-07-31T08:05:56.780Z</time>
      </trkpt>
      <trkpt lat="54.4173" lon="16.40993">
        <ele>37.657318</ele>
        <time>2024-07-31T08:06:00.789Z</time>
      </trkpt>
      <trkpt lat="54.41738" lon="16.41003">
        <ele>37.709596</ele>
        <time>2024-07-31T08:06:08.782Z</time>
      </trkpt>
      <trkpt lat="54.41747" lon="16.41013">
        <ele>37.767367</ele>
        <time>2024-07-31T08:06:12.786Z</time>
      </trkpt>
      <trkpt lat="54.41756" lon="16.41021">
        <ele>37.824309</ele>
        <time>2024-07-31T08:06:15.786Z</time>
      </trkpt>
      <trkpt lat="54.41764" lon="16.41032">
        <ele>37.88318</ele>
        <time>2024-07-31T08:06:18.792Z</time>
      </trkpt>
      <trkpt lat="54.41771" lon="16.41044">
        <ele>37.941635</ele>
        <time>2024-07-31T08:06:21.803Z</time>
      </trkpt>
      <trkpt lat="54.41779" lon="16.41055">
        <ele>37.997043</ele>
        <time>2024-07-31T08:06:24.806Z</time>
      </trkpt>
      <trkpt lat="54.41784" lon="16.41069">
        <ele>38.054803</ele>
        <time>2024-07-31T08:06:28.781Z</time>
      </trkpt>
      <trkpt lat="54.41793" lon="16.41075">
        <ele>38.111082</ele>
        <time>2024-07-31T08:06:35.793Z</time>
      </trkpt>
      <trkpt lat="54.41801" lon="16.41088">
        <ele>38.173094</ele>
        <time>2024-07-31T08:06:39.784Z</time>
      </trkpt>
      <trkpt lat="54.41808" lon="16.411">
        <ele>38.228247</ele>
        <time>2024-07-31T08:06:42.792Z</time>
      </trkpt>
      <trkpt lat="54.41816" lon="16.41113">
        <ele>38.28951</ele>
        <time>2024-07-31T08:06:46.786Z</time>
      </trkpt>
      <trkpt lat="54.41824" lon="16.41123">
        <ele>38.346469</ele>
        <time>2024-07-31T08:06:50.798Z</time>
      </trkpt>
      <trkpt lat="54.41831" lon="16.41133">
        <ele>38.399748</ele>
        <time>2024-07-31T08:06:54.791Z</time>
      </trkpt>
      <trkpt lat="54.41838" lon="16.41145">
        <ele>38.456042</ele>
        <time>2024-07-31T08:06:58.805Z</time>
      </trkpt>
      <trkpt lat="54.41846" lon="16.41157">
        <ele>38.515997</ele>
        <time>2024-07-31T08:07:02.789Z</time>
      </trkpt>
      <trkpt lat="54.41854" lon="16.41168">
        <ele>38.572715</ele>
        <time>2024-07-31T08:07:06.779Z</time>
      </trkpt>
      <trkpt lat="54.4186" lon="16.4118">
        <ele>38.627403</ele>
        <time>2024-07-31T08:07:11.783Z</time>
      </trkpt>
      <trkpt lat="54.41866" lon="16.41196">
        <ele>38.690589</ele>
        <time>2024-07-31T08:07:17.787Z</time>
      </trkpt>
      <trkpt lat="54.41872" lon="16.4121">
        <ele>38.748318</ele>
        <time>2024-07-31T08:07:21.774Z</time>
      </trkpt>
      <trkpt lat="54.4188" lon="16.41224">
        <ele>38.723366</ele>
        <time>2024-07-31T08:07:25.779Z</time>
      </trkpt>
      <trkpt lat="54.41886" lon="16.41236">
        <ele>38.681535</ele>
        <time>2024-07-31T08:07:28.796Z</time>
      </trkpt>
      <trkpt lat="54.41893" lon="16.41249">
        <ele>38.637288</ele>
        <time>2024-07-31T08:07:31.800Z</time>
      </trkpt>
      <trkpt lat="54.41901" lon="16.41259">
        <ele>38.592612</ele>
        <time>2024-07-31T08:07:35.803Z</time>
      </trkpt>
      <trkpt lat="54.41909" lon="16.41273">
        <ele>38.542325</ele>
        <time>2024-07-31T08:07:39.800Z</time>
      </trkpt>
      <trkpt lat="54.41918" lon="16.4128">
        <ele>38.497149</ele>
        <time>2024-07-31T08:07:45.771Z</time>
      </trkpt>
      <trkpt lat="54.41929" lon="16.41285">
        <ele>38.449201</ele>
        <time>2024-07-31T08:07:49.789Z</time>
      </trkpt>
      <trkpt lat="54.41938" lon="16.41293">
        <ele>38.402491</ele>
        <time>2024-07-31T08:07:52.785Z</time>
      </trkpt>
      <trkpt lat="54.41947" lon="16.41302">
        <ele>38.355138</ele>
        <time>2024-07-31T08:07:55.796Z</time>
      </trkpt>
      <trkpt lat="54.41957" lon="16.41312">
        <ele>38.303544</ele>
        <time>2024-07-31T08:07:58.783Z</time>
      </trkpt>
      <trkpt lat="54.41965" lon="16.4132">
        <ele>38.262743</ele>
        <time>2024-07-31T08:08:09.784Z</time>
      </trkpt>
      <trkpt lat="54.41973" lon="16.41329">
        <ele>38.222743</ele>
        <time>2024-07-31T08:08:14.791Z</time>
      </trkpt>
      <trkpt lat="54.41983" lon="16.4134">
        <ele>38.169694</ele>
        <time>2024-07-31T08:08:18.801Z</time>
      </trkpt>
      <trkpt lat="54.41991" lon="16.4135">
        <ele>38.125164</ele>
        <time>2024-07-31T08:08:21.802Z</time>
      </trkpt>
      <trkpt lat="54.41999" lon="16.41359">
        <ele>38.081291</ele>
        <time>2024-07-31T08:08:24.804Z</time>
      </trkpt>
      <trkpt lat="54.42002" lon="16.41377">
        <ele>38.034937</ele>
        <time>2024-07-31T08:08:28.809Z</time>
      </trkpt>
      <trkpt lat="54.42" lon="16.41392">
        <ele>37.994377</ele>
        <time>2024-07-31T08:08:33.795Z</time>
      </trkpt>
      <trkpt lat="54.4201" lon="16.41391">
        <ele>38.041234</ele>
        <time>2024-07-31T08:08:39.791Z</time>
      </trkpt>
      <trkpt lat="54.42015" lon="16.41376">
        <ele>38.291225</ele>
        <time>2024-07-31T08:08:43.786Z</time>
      </trkpt>
      <trkpt lat="54.42024" lon="16.41377">
        <ele>38.541031</ele>
        <time>2024-07-31T08:08:49.784Z</time>
      </trkpt>
      <trkpt lat="54.42033" lon="16.41379">
        <ele>38.77967</ele>
        <time>2024-07-31T08:08:56.793Z</time>
      </trkpt>
      <trkpt lat="54.42043" lon="16.41382">
        <ele>39.044046</ele>
        <time>2024-07-31T08:09:00.787Z</time>
      </trkpt>
      <trkpt lat="54.42052" lon="16.41387">
        <ele>39.279753</ele>
        <time>2024-07-31T08:09:03.789Z</time>
      </trkpt>
      <trkpt lat="54.42061" lon="16.41392">
        <ele>39.535057</ele>
        <time>2024-07-31T08:09:06.787Z</time>
      </trkpt>
      <trkpt lat="54.42071" lon="16.41397">
        <ele>39.805322</ele>
        <time>2024-07-31T08:09:09.811Z</time>
      </trkpt>
      <trkpt lat="54.42082" lon="16.41402">
        <ele>40.096927</ele>
        <time>2024-07-31T08:09:12.782Z</time>
      </trkpt>
      <trkpt lat="54.42092" lon="16.41408">
        <ele>40.371398</ele>
        <time>2024-07-31T08:09:15.773Z</time>
      </trkpt>
      <trkpt lat="54.42102" lon="16.41414">
        <ele>40.634979</ele>
        <time>2024-07-31T08:09:18.813Z</time>
      </trkpt>
      <trkpt lat="54.42111" lon="16.41418">
        <ele>40.895341</ele>
        <time>2024-07-31T08:09:21.779Z</time>
      </trkpt>
      <trkpt lat="54.42122" lon="16.41423">
        <ele>41.193971</ele>
        <time>2024-07-31T08:09:24.805Z</time>
      </trkpt>
      <trkpt lat="54.42133" lon="16.41431">
        <ele>41.483649</ele>
        <time>2024-07-31T08:09:27.796Z</time>
      </trkpt>
      <trkpt lat="54.42144" lon="16.41437">
        <ele>41.799314</ele>
        <time>2024-07-31T08:09:30.791Z</time>
      </trkpt>
      <trkpt lat="54.42156" lon="16.41443">
        <ele>42.108751</ele>
        <time>2024-07-31T08:09:33.803Z</time>
      </trkpt>
      <trkpt lat="54.42167" lon="16.41449">
        <ele>42.406691</ele>
        <time>2024-07-31T08:09:36.784Z</time>
      </trkpt>
      <trkpt lat="54.42177" lon="16.41455">
        <ele>42.675614</ele>
        <time>2024-07-31T08:09:39.803Z</time>
      </trkpt>
      <trkpt lat="54.42186" lon="16.41457">
        <ele>42.885118</ele>
        <time>2024-07-31T08:09:42.781Z</time>
      </trkpt>
      <trkpt lat="54.42196" lon="16.4146">
        <ele>43.108183</ele>
        <time>2024-07-31T08:09:45.812Z</time>
      </trkpt>
      <trkpt lat="54.42207" lon="16.41463">
        <ele>43.347628</ele>
        <time>2024-07-31T08:09:48.786Z</time>
      </trkpt>
      <trkpt lat="54.42217" lon="16.41469">
        <ele>43.561039</ele>
        <time>2024-07-31T08:09:51.781Z</time>
      </trkpt>
      <trkpt lat="54.42227" lon="16.41471">
        <ele>43.79213</ele>
        <time>2024-07-31T08:09:54.776Z</time>
      </trkpt>
      <trkpt lat="54.42238" lon="16.41473">
        <ele>44.020206</ele>
        <time>2024-07-31T08:09:57.788Z</time>
      </trkpt>
      <trkpt lat="54.42248" lon="16.41474">
        <ele>44.238689</ele>
        <time>2024-07-31T08:10:00.793Z</time>
      </trkpt>
      <trkpt lat="54.42259" lon="16.41473">
        <ele>44.48973</ele>
        <time>2024-07-31T08:10:03.789Z</time>
      </trkpt>
      <trkpt lat="54.42269" lon="16.41471">
        <ele>44.695532</ele>
        <time>2024-07-31T08:10:06.802Z</time>
      </trkpt>
      <trkpt lat="54.42278" lon="16.41469">
        <ele>44.894158</ele>
        <time>2024-07-31T08:10:09.797Z</time>
      </trkpt>
      <trkpt lat="54.42289" lon="16.41467">
        <ele>45.141972</ele>
        <time>2024-07-31T08:10:13.810Z</time>
      </trkpt>
      <trkpt lat="54.423" lon="16.41467">
        <ele>45.36901</ele>
        <time>2024-07-31T08:10:17.794Z</time>
      </trkpt>
      <trkpt lat="54.4231" lon="16.41463">
        <ele>45.58588</ele>
        <time>2024-07-31T08:10:21.791Z</time>
      </trkpt>
      <trkpt lat="54.4232" lon="16.41461">
        <ele>45.799341</ele>
        <time>2024-07-31T08:10:25.776Z</time>
      </trkpt>
      <trkpt lat="54.42329" lon="16.41459">
        <ele>45.995489</ele>
        <time>2024-07-31T08:10:29.813Z</time>
      </trkpt>
      <trkpt lat="54.42338" lon="16.41459">
        <ele>46.205182</ele>
        <time>2024-07-31T08:10:33.809Z</time>
      </trkpt>
      <trkpt lat="54.42349" lon="16.41458">
        <ele>46.43654</ele>
        <time>2024-07-31T08:10:37.784Z</time>
      </trkpt>
      <trkpt lat="54.42358" lon="16.41458">
        <ele>46.626256</ele>
        <time>2024-07-31T08:10:41.789Z</time>
      </trkpt>
      <trkpt lat="54.42369" lon="16.41458">
        <ele>46.820446</ele>
        <time>2024-07-31T08:10:46.799Z</time>
      </trkpt>
      <trkpt lat="54.42377" lon="16.41471">
        <ele>47.031255</ele>
        <time>2024-07-31T08:11:06.785Z</time>
      </trkpt>
      <trkpt lat="54.4239" lon="16.4147">
        <ele>47.277081</ele>
        <time>2024-07-31T08:11:47.779Z</time>
      </trkpt>
      <trkpt lat="54.42401" lon="16.41469">
        <ele>47.488682</ele>
        <time>2024-07-31T08:12:11.788Z</time>
      </trkpt>
      <trkpt lat="54.4241" lon="16.41476">
        <ele>47.680327</ele>
        <time>2024-07-31T08:12:16.782Z</time>
      </trkpt>
      <trkpt lat="54.4242" lon="16.41482">
        <ele>47.888084</ele>
        <time>2024-07-31T08:12:21.769Z</time>
      </trkpt>
      <trkpt lat="54.42432" lon="16.41484">
        <ele>48.105512</ele>
        <time>2024-07-31T08:12:26.795Z</time>
      </trkpt>
      <trkpt lat="54.42443" lon="16.41483">
        <ele>48.316848</ele>
        <time>2024-07-31T08:12:31.804Z</time>
      </trkpt>
      <trkpt lat="54.42452" lon="16.41483">
        <ele>48.490311</ele>
        <time>2024-07-31T08:12:35.791Z</time>
      </trkpt>
      <trkpt lat="54.4246" lon="16.41494">
        <ele>48.68594</ele>
        <time>2024-07-31T08:12:40.778Z</time>
      </trkpt>
      <trkpt lat="54.42467" lon="16.41506">
        <ele>48.883748</ele>
        <time>2024-07-31T08:12:44.778Z</time>
      </trkpt>
      <trkpt lat="54.42476" lon="16.41518">
        <ele>49.091716</ele>
        <time>2024-07-31T08:12:48.796Z</time>
      </trkpt>
      <trkpt lat="54.42484" lon="16.41532">
        <ele>49.30344</ele>
        <time>2024-07-31T08:12:52.802Z</time>
      </trkpt>
      <trkpt lat="54.42492" lon="16.41545">
        <ele>49.518703</ele>
        <time>2024-07-31T08:12:56.793Z</time>
      </trkpt>
      <trkpt lat="54.42499" lon="16.41555">
        <ele>49.693445</ele>
        <time>2024-07-31T08:12:59.793Z</time>
      </trkpt>
      <trkpt lat="54.42506" lon="16.41565">
        <ele>49.86672</ele>
        <time>2024-07-31T08:13:02.803Z</time>
      </trkpt>
      <trkpt lat="54.42514" lon="16.41576">
        <ele>49.844482</ele>
        <time>2024-07-31T08:13:05.794Z</time>
      </trkpt>
      <trkpt lat="54.42523" lon="16.41587">
        <ele>49.638562</ele>
        <time>2024-07-31T08:13:08.798Z</time>
      </trkpt>
      <trkpt lat="54.42533" lon="16.41601">
        <ele>49.403033</ele>
        <time>2024-07-31T08:13:11.802Z</time>
      </trkpt>
      <trkpt lat="54.4254" lon="16.4161">
        <ele>49.231117</ele>
        <time>2024-07-31T08:13:13.809Z</time>
      </trkpt>
      <trkpt lat="54.42548" lon="16.41617">
        <ele>49.059098</ele>
        <time>2024-07-31T08:13:15.799Z</time>
      </trkpt>
      <trkpt lat="54.42557" lon="16.41625">
        <ele>48.872686</ele>
        <time>2024-07-31T08:13:17.791Z</time>
      </trkpt>
      <trkpt lat="54.42566" lon="16.41633">
        <ele>48.684441</ele>
        <time>2024-07-31T08:13:19.809Z</time>
      </trkpt>
      <trkpt lat="54.42574" lon="16.41642">
        <ele>48.509815</ele>
        <time>2024-07-31T08:13:21.777Z</time>
      </trkpt>
      <trkpt lat="54.42583" lon="16.41651">
        <ele>48.316939</ele>
        <time>2024-07-31T08:13:23.786Z</time>
      </trkpt>
      <trkpt lat="54.42593" lon="16.41659">
        <ele>48.111758</ele>
        <time>2024-07-31T08:13:25.796Z</time>
      </trkpt>
      <trkpt lat="54.42603" lon="16.41668">
        <ele>47.911245</ele>
        <time>2024-07-31T08:13:27.780Z</time>
      </trkpt>
      <trkpt lat="54.42611" lon="16.41676">
        <ele>47.722629</ele>
        <time>2024-07-31T08:13:29.785Z</time>
      </trkpt>
      <trkpt lat="54.4262" lon="16.41682">
        <ele>47.55405</ele>
        <time>2024-07-31T08:13:31.790Z</time>
      </trkpt>
      <trkpt lat="54.4263" lon="16.41692">
        <ele>47.337948</ele>
        <time>2024-07-31T08:13:34.805Z</time>
      </trkpt>
      <trkpt lat="54.42639" lon="16.41703">
        <ele>47.123972</ele>
        <time>2024-07-31T08:13:38.791Z</time>
      </trkpt>
      <trkpt lat="54.42647" lon="16.41714">
        <ele>46.939595</ele>
        <time>2024-07-31T08:13:41.792Z</time>
      </trkpt>
      <trkpt lat="54.42654" lon="16.41724">
        <ele>46.764355</ele>
        <time>2024-07-31T08:13:44.788Z</time>
      </trkpt>
      <trkpt lat="54.42664" lon="16.41728">
        <ele>46.583484</ele>
        <time>2024-07-31T08:13:48.785Z</time>
      </trkpt>
      <trkpt lat="54.42673" lon="16.41733">
        <ele>46.468399</ele>
        <time>2024-07-31T08:13:51.817Z</time>
      </trkpt>
      <trkpt lat="54.42681" lon="16.41719">
        <ele>46.320729</ele>
        <time>2024-07-31T08:13:57.785Z</time>
      </trkpt>
      <trkpt lat="54.42691" lon="16.4172">
        <ele>46.191666</ele>
        <time>2024-07-31T08:14:02.808Z</time>
      </trkpt>
      <trkpt lat="54.42699" lon="16.41737">
        <ele>46.029213</ele>
        <time>2024-07-31T08:14:06.788Z</time>
      </trkpt>
      <trkpt lat="54.42708" lon="16.41752">
        <ele>45.869861</ele>
        <time>2024-07-31T08:14:09.794Z</time>
      </trkpt>
      <trkpt lat="54.42716" lon="16.41767">
        <ele>45.72089</ele>
        <time>2024-07-31T08:14:12.798Z</time>
      </trkpt>
      <trkpt lat="54.4272" lon="16.41781">
        <ele>45.605973</ele>
        <time>2024-07-31T08:14:14.784Z</time>
      </trkpt>
      <trkpt lat="54.42727" lon="16.41792">
        <ele>45.485008</ele>
        <time>2024-07-31T08:14:16.789Z</time>
      </trkpt>
      <trkpt lat="54.42735" lon="16.41801">
        <ele>45.363732</ele>
        <time>2024-07-31T08:14:18.774Z</time>
      </trkpt>
      <trkpt lat="54.42742" lon="16.41811">
        <ele>45.243316</ele>
        <time>2024-07-31T08:14:20.797Z</time>
      </trkpt>
      <trkpt lat="54.42751" lon="16.41829">
        <ele>45.069699</ele>
        <time>2024-07-31T08:14:23.783Z</time>
      </trkpt>
      <trkpt lat="54.42758" lon="16.4184">
        <ele>44.951696</ele>
        <time>2024-07-31T08:14:25.808Z</time>
      </trkpt>
      <trkpt lat="54.42766" lon="16.41857">
        <ele>44.783699</ele>
        <time>2024-07-31T08:14:28.815Z</time>
      </trkpt>
      <trkpt lat="54.42771" lon="16.4187">
        <ele>44.667532</ele>
        <time>2024-07-31T08:14:30.793Z</time>
      </trkpt>
      <trkpt lat="54.42778" lon="16.41881">
        <ele>44.551728</ele>
        <time>2024-07-31T08:14:32.788Z</time>
      </trkpt>
      <trkpt lat="54.42788" lon="16.41896">
        <ele>44.380046</ele>
        <time>2024-07-31T08:14:35.799Z</time>
      </trkpt>
      <trkpt lat="54.42795" lon="16.41907">
        <ele>44.301727</ele>
        <time>2024-07-31T08:14:37.805Z</time>
      </trkpt>
      <trkpt lat="54.42801" lon="16.41919">
        <ele>44.287867</ele>
        <time>2024-07-31T08:14:39.802Z</time>
      </trkpt>
      <trkpt lat="54.4281" lon="16.41935">
        <ele>44.268016</ele>
        <time>2024-07-31T08:14:42.802Z</time>
      </trkpt>
      <trkpt lat="54.42818" lon="16.41946">
        <ele>44.253249</ele>
        <time>2024-07-31T08:14:44.790Z</time>
      </trkpt>
      <trkpt lat="54.42825" lon="16.41959">
        <ele>44.237912</ele>
        <time>2024-07-31T08:14:46.799Z</time>
      </trkpt>
      <trkpt lat="54.42832" lon="16.41973">
        <ele>44.222433</ele>
        <time>2024-07-31T08:14:48.779Z</time>
      </trkpt>
      <trkpt lat="54.4284" lon="16.41985">
        <ele>44.206466</ele>
        <time>2024-07-31T08:14:50.823Z</time>
      </trkpt>
      <trkpt lat="54.42847" lon="16.41999">
        <ele>44.190635</ele>
        <time>2024-07-31T08:14:52.811Z</time>
      </trkpt>
      <trkpt lat="54.42854" lon="16.42012">
        <ele>44.175174</ele>
        <time>2024-07-31T08:14:54.804Z</time>
      </trkpt>
      <trkpt lat="54.42862" lon="16.42025">
        <ele>44.159156</ele>
        <time>2024-07-31T08:14:56.792Z</time>
      </trkpt>
      <trkpt lat="54.4287" lon="16.42039">
        <ele>44.142706</ele>
        <time>2024-07-31T08:14:58.805Z</time>
      </trkpt>
      <trkpt lat="54.42877" lon="16.42051">
        <ele>44.127636</ele>
        <time>2024-07-31T08:15:00.809Z</time>
      </trkpt>
      <trkpt lat="54.42884" lon="16.42064">
        <ele>44.112275</ele>
        <time>2024-07-31T08:15:02.794Z</time>
      </trkpt>
      <trkpt lat="54.42891" lon="16.42077">
        <ele>44.097509</ele>
        <time>2024-07-31T08:15:04.790Z</time>
      </trkpt>
      <trkpt lat="54.42897" lon="16.42089">
        <ele>44.082976</ele>
        <time>2024-07-31T08:15:06.780Z</time>
      </trkpt>
      <trkpt lat="54.42904" lon="16.42101">
        <ele>44.068726</ele>
        <time>2024-07-31T08:15:08.788Z</time>
      </trkpt>
      <trkpt lat="54.42911" lon="16.42112">
        <ele>44.055175</ele>
        <time>2024-07-31T08:15:10.805Z</time>
      </trkpt>
      <trkpt lat="54.42917" lon="16.42122">
        <ele>44.0417</ele>
        <time>2024-07-31T08:15:12.783Z</time>
      </trkpt>
      <trkpt lat="54.42924" lon="16.42133">
        <ele>44.019984</ele>
        <time>2024-07-31T08:15:14.800Z</time>
      </trkpt>
      <trkpt lat="54.42931" lon="16.42146">
        <ele>43.996121</ele>
        <time>2024-07-31T08:15:16.788Z</time>
      </trkpt>
      <trkpt lat="54.42937" lon="16.42158">
        <ele>43.97382</ele>
        <time>2024-07-31T08:15:18.795Z</time>
      </trkpt>
      <trkpt lat="54.42946" lon="16.42175">
        <ele>43.941471</ele>
        <time>2024-07-31T08:15:21.793Z</time>
      </trkpt>
      <trkpt lat="54.42953" lon="16.42187">
        <ele>43.917864</ele>
        <time>2024-07-31T08:15:23.800Z</time>
      </trkpt>
      <trkpt lat="54.42964" lon="16.422">
        <ele>43.886996</ele>
        <time>2024-07-31T08:15:26.783Z</time>
      </trkpt>
      <trkpt lat="54.42974" lon="16.42212">
        <ele>43.855931</ele>
        <time>2024-07-31T08:15:29.788Z</time>
      </trkpt>
      <trkpt lat="54.42984" lon="16.42228">
        <ele>43.823834</ele>
        <time>2024-07-31T08:15:32.787Z</time>
      </trkpt>
      <trkpt lat="54.42991" lon="16.4224">
        <ele>43.801125</ele>
        <time>2024-07-31T08:15:34.767Z</time>
      </trkpt>
      <trkpt lat="54.42998" lon="16.42252">
        <ele>43.77749</ele>
        <time>2024-07-31T08:15:36.790Z</time>
      </trkpt>
      <trkpt lat="54.43004" lon="16.42264">
        <ele>43.754525</ele>
        <time>2024-07-31T08:15:38.795Z</time>
      </trkpt>
      <trkpt lat="54.43011" lon="16.42276">
        <ele>43.73099</ele>
        <time>2024-07-31T08:15:40.779Z</time>
      </trkpt>
      <trkpt lat="54.43018" lon="16.42289">
        <ele>43.70675</ele>
        <time>2024-07-31T08:15:42.797Z</time>
      </trkpt>
      <trkpt lat="54.43025" lon="16.42301">
        <ele>43.681845</ele>
        <time>2024-07-31T08:15:44.798Z</time>
      </trkpt>
      <trkpt lat="54.43033" lon="16.42314">
        <ele>43.656894</ele>
        <time>2024-07-31T08:15:46.791Z</time>
      </trkpt>
      <trkpt lat="54.43039" lon="16.42327">
        <ele>43.632507</ele>
        <time>2024-07-31T08:15:48.810Z</time>
      </trkpt>
      <trkpt lat="54.43047" lon="16.4234">
        <ele>43.603679</ele>
        <time>2024-07-31T08:15:50.789Z</time>
      </trkpt>
      <trkpt lat="54.43053" lon="16.42352">
        <ele>43.515388</ele>
        <time>2024-07-31T08:15:52.795Z</time>
      </trkpt>
      <trkpt lat="54.43061" lon="16.42363">
        <ele>43.425273</ele>
        <time>2024-07-31T08:15:54.802Z</time>
      </trkpt>
      <trkpt lat="54.43068" lon="16.42376">
        <ele>43.333934</ele>
        <time>2024-07-31T08:15:56.781Z</time>
      </trkpt>
      <trkpt lat="54.43074" lon="16.42387">
        <ele>43.246785</ele>
        <time>2024-07-31T08:15:58.782Z</time>
      </trkpt>
      <trkpt lat="54.43081" lon="16.42398">
        <ele>43.162902</ele>
        <time>2024-07-31T08:16:00.793Z</time>
      </trkpt>
      <trkpt lat="54.43087" lon="16.42411">
        <ele>43.074078</ele>
        <time>2024-07-31T08:16:02.796Z</time>
      </trkpt>
      <trkpt lat="54.43093" lon="16.42425">
        <ele>42.984328</ele>
        <time>2024-07-31T08:16:04.804Z</time>
      </trkpt>
      <trkpt lat="54.431" lon="16.42437">
        <ele>42.890952</ele>
        <time>2024-07-31T08:16:06.794Z</time>
      </trkpt>
      <trkpt lat="54.43108" lon="16.4245">
        <ele>42.794405</ele>
        <time>2024-07-31T08:16:08.798Z</time>
      </trkpt>
      <trkpt lat="54.43115" lon="16.42462">
        <ele>42.698129</ele>
        <time>2024-07-31T08:16:10.808Z</time>
      </trkpt>
      <trkpt lat="54.43123" lon="16.42476">
        <ele>42.595835</ele>
        <time>2024-07-31T08:16:12.799Z</time>
      </trkpt>
      <trkpt lat="54.43132" lon="16.42489">
        <ele>42.492962</ele>
        <time>2024-07-31T08:16:14.808Z</time>
      </trkpt>
      <trkpt lat="54.43139" lon="16.42503">
        <ele>42.393359</ele>
        <time>2024-07-31T08:16:16.790Z</time>
      </trkpt>
      <trkpt lat="54.43147" lon="16.42516">
        <ele>42.290121</ele>
        <time>2024-07-31T08:16:18.811Z</time>
      </trkpt>
      <trkpt lat="54.43156" lon="16.42529">
        <ele>42.186944</ele>
        <time>2024-07-31T08:16:20.803Z</time>
      </trkpt>
      <trkpt lat="54.43163" lon="16.42542">
        <ele>42.090018</ele>
        <time>2024-07-31T08:16:22.785Z</time>
      </trkpt>
      <trkpt lat="54.4317" lon="16.42555">
        <ele>41.99652</ele>
        <time>2024-07-31T08:16:24.776Z</time>
      </trkpt>
      <trkpt lat="54.43178" lon="16.42568">
        <ele>41.896954</ele>
        <time>2024-07-31T08:16:26.787Z</time>
      </trkpt>
      <trkpt lat="54.43185" lon="16.42581">
        <ele>41.795179</ele>
        <time>2024-07-31T08:16:28.821Z</time>
      </trkpt>
      <trkpt lat="54.43193" lon="16.42595">
        <ele>41.692384</ele>
        <time>2024-07-31T08:16:30.795Z</time>
      </trkpt>
      <trkpt lat="54.432" lon="16.42609">
        <ele>41.585348</ele>
        <time>2024-07-31T08:16:32.790Z</time>
      </trkpt>
      <trkpt lat="54.43208" lon="16.42624">
        <ele>41.474614</ele>
        <time>2024-07-31T08:16:34.807Z</time>
      </trkpt>
      <trkpt lat="54.43217" lon="16.42639">
        <ele>41.360079</ele>
        <time>2024-07-31T08:16:36.793Z</time>
      </trkpt>
      <trkpt lat="54.43225" lon="16.42653">
        <ele>41.250013</ele>
        <time>2024-07-31T08:16:38.811Z</time>
      </trkpt>
      <trkpt lat="54.43233" lon="16.42667">
        <ele>41.13903</ele>
        <time>2024-07-31T08:16:40.779Z</time>
      </trkpt>
      <trkpt lat="54.43241" lon="16.42682">
        <ele>41.033289</ele>
        <time>2024-07-31T08:16:42.790Z</time>
      </trkpt>
      <trkpt lat="54.43249" lon="16.42695">
        <ele>40.927664</ele>
        <time>2024-07-31T08:16:44.807Z</time>
      </trkpt>
      <trkpt lat="54.43257" lon="16.42708">
        <ele>40.825692</ele>
        <time>2024-07-31T08:16:46.784Z</time>
      </trkpt>
      <trkpt lat="54.43264" lon="16.42722">
        <ele>40.718398</ele>
        <time>2024-07-31T08:16:48.784Z</time>
      </trkpt>
      <trkpt lat="54.43272" lon="16.42736">
        <ele>40.613946</ele>
        <time>2024-07-31T08:16:50.791Z</time>
      </trkpt>
      <trkpt lat="54.43279" lon="16.4275">
        <ele>40.506513</ele>
        <time>2024-07-31T08:16:52.784Z</time>
      </trkpt>
      <trkpt lat="54.43287" lon="16.42764">
        <ele>40.400927</ele>
        <time>2024-07-31T08:16:54.782Z</time>
      </trkpt>
      <trkpt lat="54.43295" lon="16.42779">
        <ele>40.290194</ele>
        <time>2024-07-31T08:16:56.795Z</time>
      </trkpt>
      <trkpt lat="54.43303" lon="16.42794">
        <ele>40.242009</ele>
        <time>2024-07-31T08:16:58.785Z</time>
      </trkpt>
      <trkpt lat="54.43311" lon="16.4281">
        <ele>40.211753</ele>
        <time>2024-07-31T08:17:00.803Z</time>
      </trkpt>
      <trkpt lat="54.43318" lon="16.42827">
        <ele>40.181695</ele>
        <time>2024-07-31T08:17:02.801Z</time>
      </trkpt>
      <trkpt lat="54.43326" lon="16.42842">
        <ele>40.151507</ele>
        <time>2024-07-31T08:17:04.806Z</time>
      </trkpt>
      <trkpt lat="54.43333" lon="16.42857">
        <ele>40.123349</ele>
        <time>2024-07-31T08:17:06.789Z</time>
      </trkpt>
      <trkpt lat="54.43339" lon="16.42873">
        <ele>40.095651</ele>
        <time>2024-07-31T08:17:08.789Z</time>
      </trkpt>
      <trkpt lat="54.43345" lon="16.42889">
        <ele>40.067344</ele>
        <time>2024-07-31T08:17:10.797Z</time>
      </trkpt>
      <trkpt lat="54.43352" lon="16.42904">
        <ele>40.039834</ele>
        <time>2024-07-31T08:17:12.805Z</time>
      </trkpt>
      <trkpt lat="54.43358" lon="16.42918">
        <ele>40.012955</ele>
        <time>2024-07-31T08:17:14.813Z</time>
      </trkpt>
      <trkpt lat="54.43364" lon="16.42932">
        <ele>39.987648</ele>
        <time>2024-07-31T08:17:16.794Z</time>
      </trkpt>
      <trkpt lat="54.43369" lon="16.42947">
        <ele>39.962544</ele>
        <time>2024-07-31T08:17:18.806Z</time>
      </trkpt>
      <trkpt lat="54.43375" lon="16.4296">
        <ele>39.937916</ele>
        <time>2024-07-31T08:17:20.803Z</time>
      </trkpt>
      <trkpt lat="54.43381" lon="16.42974">
        <ele>39.913406</ele>
        <time>2024-07-31T08:17:22.802Z</time>
      </trkpt>
      <trkpt lat="54.43386" lon="16.42987">
        <ele>39.889766</ele>
        <time>2024-07-31T08:17:24.803Z</time>
      </trkpt>
      <trkpt lat="54.43392" lon="16.43001">
        <ele>39.864604</ele>
        <time>2024-07-31T08:17:26.806Z</time>
      </trkpt>
      <trkpt lat="54.43398" lon="16.43014">
        <ele>39.840442</ele>
        <time>2024-07-31T08:17:28.817Z</time>
      </trkpt>
      <trkpt lat="54.43403" lon="16.43027">
        <ele>39.816294</ele>
        <time>2024-07-31T08:17:30.804Z</time>
      </trkpt>
      <trkpt lat="54.43409" lon="16.4304">
        <ele>39.797776</ele>
        <time>2024-07-31T08:17:32.774Z</time>
      </trkpt>
      <trkpt lat="54.43417" lon="16.43059">
        <ele>39.773206</ele>
        <time>2024-07-31T08:17:35.798Z</time>
      </trkpt>
      <trkpt lat="54.43424" lon="16.43076">
        <ele>39.750345</ele>
        <time>2024-07-31T08:17:38.797Z</time>
      </trkpt>
      <trkpt lat="54.43431" lon="16.43093">
        <ele>39.728849</ele>
        <time>2024-07-31T08:17:41.791Z</time>
      </trkpt>
      <trkpt lat="54.43437" lon="16.43109">
        <ele>39.708402</ele>
        <time>2024-07-31T08:17:44.786Z</time>
      </trkpt>
      <trkpt lat="54.43443" lon="16.43124">
        <ele>39.688824</ele>
        <time>2024-07-31T08:17:47.792Z</time>
      </trkpt>
      <trkpt lat="54.4345" lon="16.43139">
        <ele>39.668896</ele>
        <time>2024-07-31T08:17:50.786Z</time>
      </trkpt>
      <trkpt lat="54.43457" lon="16.43154">
        <ele>39.648344</ele>
        <time>2024-07-31T08:17:53.788Z</time>
      </trkpt>
      <trkpt lat="54.43463" lon="16.4317">
        <ele>39.62766</ele>
        <time>2024-07-31T08:17:56.794Z</time>
      </trkpt>
      <trkpt lat="54.43471" lon="16.43187">
        <ele>39.605495</ele>
        <time>2024-07-31T08:17:59.802Z</time>
      </trkpt>
      <trkpt lat="54.43476" lon="16.432">
        <ele>39.588782</ele>
        <time>2024-07-31T08:18:01.793Z</time>
      </trkpt>
      <trkpt lat="54.43482" lon="16.43213">
        <ele>39.570781</ele>
        <time>2024-07-31T08:18:03.793Z</time>
      </trkpt>
      <trkpt lat="54.43488" lon="16.43227">
        <ele>39.552865</ele>
        <time>2024-07-31T08:18:05.805Z</time>
      </trkpt>
      <trkpt lat="54.43493" lon="16.43241">
        <ele>39.534385</ele>
        <time>2024-07-31T08:18:07.809Z</time>
      </trkpt>
      <trkpt lat="54.43499" lon="16.43255">
        <ele>39.516427</ele>
        <time>2024-07-31T08:18:09.802Z</time>
      </trkpt>
      <trkpt lat="54.43505" lon="16.43269">
        <ele>39.498122</ele>
        <time>2024-07-31T08:18:11.783Z</time>
      </trkpt>
      <trkpt lat="54.43511" lon="16.43283">
        <ele>39.486221</ele>
        <time>2024-07-31T08:18:13.801Z</time>
      </trkpt>
      <trkpt lat="54.43516" lon="16.43298">
        <ele>39.499975</ele>
        <time>2024-07-31T08:18:15.773Z</time>
      </trkpt>
      <trkpt lat="54.43523" lon="16.43312">
        <ele>39.514303</ele>
        <time>2024-07-31T08:18:17.781Z</time>
      </trkpt>
      <trkpt lat="54.43529" lon="16.43327">
        <ele>39.528344</ele>
        <time>2024-07-31T08:18:19.780Z</time>
      </trkpt>
      <trkpt lat="54.43535" lon="16.4334">
        <ele>39.541894</ele>
        <time>2024-07-31T08:18:21.809Z</time>
      </trkpt>
      <trkpt lat="54.4354" lon="16.43353">
        <ele>39.554636</ele>
        <time>2024-07-31T08:18:23.789Z</time>
      </trkpt>
      <trkpt lat="54.43546" lon="16.43366">
        <ele>39.567522</ele>
        <time>2024-07-31T08:18:25.811Z</time>
      </trkpt>
      <trkpt lat="54.43551" lon="16.43379">
        <ele>39.580218</ele>
        <time>2024-07-31T08:18:27.808Z</time>
      </trkpt>
      <trkpt lat="54.43557" lon="16.43393">
        <ele>39.59327</ele>
        <time>2024-07-31T08:18:29.793Z</time>
      </trkpt>
      <trkpt lat="54.43563" lon="16.43407">
        <ele>39.606973</ele>
        <time>2024-07-31T08:18:31.801Z</time>
      </trkpt>
      <trkpt lat="54.43568" lon="16.4342">
        <ele>39.620025</ele>
        <time>2024-07-31T08:18:33.791Z</time>
      </trkpt>
      <trkpt lat="54.43574" lon="16.43434">
        <ele>39.633078</ele>
        <time>2024-07-31T08:18:35.814Z</time>
      </trkpt>
      <trkpt lat="54.43579" lon="16.43447">
        <ele>39.645611</ele>
        <time>2024-07-31T08:18:37.798Z</time>
      </trkpt>
      <trkpt lat="54.43584" lon="16.4346">
        <ele>39.658467</ele>
        <time>2024-07-31T08:18:39.810Z</time>
      </trkpt>
      <trkpt lat="54.4359" lon="16.43473">
        <ele>39.671116</ele>
        <time>2024-07-31T08:18:41.779Z</time>
      </trkpt>
      <trkpt lat="54.43595" lon="16.43486">
        <ele>39.684066</ele>
        <time>2024-07-31T08:18:43.790Z</time>
      </trkpt>
      <trkpt lat="54.43601" lon="16.435">
        <ele>39.696987</ele>
        <time>2024-07-31T08:18:45.810Z</time>
      </trkpt>
      <trkpt lat="54.43606" lon="16.43513">
        <ele>39.709571</ele>
        <time>2024-07-31T08:18:47.794Z</time>
      </trkpt>
      <trkpt lat="54.43611" lon="16.43525">
        <ele>39.722058</ele>
        <time>2024-07-31T08:18:49.792Z</time>
      </trkpt>
      <trkpt lat="54.43617" lon="16.43538">
        <ele>39.736591</ele>
        <time>2024-07-31T08:18:51.791Z</time>
      </trkpt>
      <trkpt lat="54.43622" lon="16.43551">
        <ele>39.753334</ele>
        <time>2024-07-31T08:18:53.799Z</time>
      </trkpt>
      <trkpt lat="54.4363" lon="16.43568">
        <ele>39.777442</ele>
        <time>2024-07-31T08:18:56.793Z</time>
      </trkpt>
      <trkpt lat="54.43637" lon="16.43586">
        <ele>39.800454</ele>
        <time>2024-07-31T08:18:59.789Z</time>
      </trkpt>
      <trkpt lat="54.43643" lon="16.43602">
        <ele>39.821424</ele>
        <time>2024-07-31T08:19:02.781Z</time>
      </trkpt>
      <trkpt lat="54.4365" lon="16.43618">
        <ele>39.84205</ele>
        <time>2024-07-31T08:19:05.809Z</time>
      </trkpt>
      <trkpt lat="54.43656" lon="16.43632">
        <ele>39.860821</ele>
        <time>2024-07-31T08:19:08.809Z</time>
      </trkpt>
      <trkpt lat="54.43661" lon="16.43646">
        <ele>39.878833</ele>
        <time>2024-07-31T08:19:11.795Z</time>
      </trkpt>
      <trkpt lat="54.43669" lon="16.43661">
        <ele>39.899968</ele>
        <time>2024-07-31T08:19:15.773Z</time>
      </trkpt>
      <trkpt lat="54.43674" lon="16.43676">
        <ele>39.919632</ele>
        <time>2024-07-31T08:19:20.794Z</time>
      </trkpt>
      <trkpt lat="54.43681" lon="16.43691">
        <ele>39.940142</ele>
        <time>2024-07-31T08:19:26.790Z</time>
      </trkpt>
      <trkpt lat="54.43686" lon="16.43705">
        <ele>39.957193</ele>
        <time>2024-07-31T08:19:31.799Z</time>
      </trkpt>
      <trkpt lat="54.43683" lon="16.43722">
        <ele>39.976271</ele>
        <time>2024-07-31T08:22:23.799Z</time>
      </trkpt>
      <trkpt lat="54.43689" lon="16.4374">
        <ele>39.998258</ele>
        <time>2024-07-31T08:22:27.802Z</time>
      </trkpt>
      <trkpt lat="54.43695" lon="16.43756">
        <ele>40.018466</ele>
        <time>2024-07-31T08:22:30.805Z</time>
      </trkpt>
      <trkpt lat="54.43701" lon="16.43772">
        <ele>40.039707</ele>
        <time>2024-07-31T08:22:33.801Z</time>
      </trkpt>
      <trkpt lat="54.43708" lon="16.4379">
        <ele>40.061728</ele>
        <time>2024-07-31T08:22:36.795Z</time>
      </trkpt>
      <trkpt lat="54.43713" lon="16.43803">
        <ele>40.065217</ele>
        <time>2024-07-31T08:22:38.788Z</time>
      </trkpt>
      <trkpt lat="54.43721" lon="16.43822">
        <ele>40.070383</ele>
        <time>2024-07-31T08:22:41.791Z</time>
      </trkpt>
      <trkpt lat="54.43726" lon="16.43835">
        <ele>40.074007</ele>
        <time>2024-07-31T08:22:43.848Z</time>
      </trkpt>
      <trkpt lat="54.43731" lon="16.43848">
        <ele>40.077532</ele>
        <time>2024-07-31T08:22:45.813Z</time>
      </trkpt>
      <trkpt lat="54.43737" lon="16.43861">
        <ele>40.081003</ele>
        <time>2024-07-31T08:22:47.810Z</time>
      </trkpt>
      <trkpt lat="54.43742" lon="16.43874">
        <ele>40.084547</ele>
        <time>2024-07-31T08:22:49.828Z</time>
      </trkpt>
      <trkpt lat="54.43747" lon="16.43887">
        <ele>40.088201</ele>
        <time>2024-07-31T08:22:51.803Z</time>
      </trkpt>
      <trkpt lat="54.43753" lon="16.439">
        <ele>40.091853</ele>
        <time>2024-07-31T08:22:53.801Z</time>
      </trkpt>
      <trkpt lat="54.43759" lon="16.43914">
        <ele>40.095572</ele>
        <time>2024-07-31T08:22:55.803Z</time>
      </trkpt>
      <trkpt lat="54.43764" lon="16.43928">
        <ele>40.099324</ele>
        <time>2024-07-31T08:22:57.813Z</time>
      </trkpt>
      <trkpt lat="54.4377" lon="16.43941">
        <ele>40.102989</ele>
        <time>2024-07-31T08:22:59.814Z</time>
      </trkpt>
      <trkpt lat="54.43776" lon="16.43955">
        <ele>40.106925</ele>
        <time>2024-07-31T08:23:01.810Z</time>
      </trkpt>
      <trkpt lat="54.43782" lon="16.43969">
        <ele>40.110748</ele>
        <time>2024-07-31T08:23:03.793Z</time>
      </trkpt>
      <trkpt lat="54.43788" lon="16.43984">
        <ele>40.114756</ele>
        <time>2024-07-31T08:23:05.811Z</time>
      </trkpt>
      <trkpt lat="54.43794" lon="16.43998">
        <ele>40.118796</ele>
        <time>2024-07-31T08:23:07.801Z</time>
      </trkpt>
      <trkpt lat="54.438" lon="16.44013">
        <ele>40.122746</ele>
        <time>2024-07-31T08:23:09.803Z</time>
      </trkpt>
      <trkpt lat="54.43806" lon="16.44027">
        <ele>40.126656</ele>
        <time>2024-07-31T08:23:11.815Z</time>
      </trkpt>
      <trkpt lat="54.43812" lon="16.44042">
        <ele>40.129796</ele>
        <time>2024-07-31T08:23:13.814Z</time>
      </trkpt>
      <trkpt lat="54.43819" lon="16.44057">
        <ele>40.122077</ele>
        <time>2024-07-31T08:23:15.826Z</time>
      </trkpt>
      <trkpt lat="54.43825" lon="16.44072">
        <ele>40.114668</ele>
        <time>2024-07-31T08:23:17.804Z</time>
      </trkpt>
      <trkpt lat="54.43831" lon="16.44087">
        <ele>40.107007</ele>
        <time>2024-07-31T08:23:19.834Z</time>
      </trkpt>
      <trkpt lat="54.43837" lon="16.44102">
        <ele>40.099305</ele>
        <time>2024-07-31T08:23:21.814Z</time>
      </trkpt>
      <trkpt lat="54.43843" lon="16.44117">
        <ele>40.091535</ele>
        <time>2024-07-31T08:23:23.804Z</time>
      </trkpt>
      <trkpt lat="54.4385" lon="16.44133">
        <ele>40.083649</ele>
        <time>2024-07-31T08:23:25.798Z</time>
      </trkpt>
      <trkpt lat="54.43857" lon="16.44148">
        <ele>40.075579</ele>
        <time>2024-07-31T08:23:27.813Z</time>
      </trkpt>
      <trkpt lat="54.43863" lon="16.44164">
        <ele>40.067801</ele>
        <time>2024-07-31T08:23:29.828Z</time>
      </trkpt>
      <trkpt lat="54.43869" lon="16.44178">
        <ele>40.06029</ele>
        <time>2024-07-31T08:23:31.806Z</time>
      </trkpt>
      <trkpt lat="54.43875" lon="16.44194">
        <ele>40.052539</ele>
        <time>2024-07-31T08:23:33.801Z</time>
      </trkpt>
      <trkpt lat="54.43881" lon="16.44209">
        <ele>40.044822</ele>
        <time>2024-07-31T08:23:35.821Z</time>
      </trkpt>
      <trkpt lat="54.43887" lon="16.44224">
        <ele>40.037214</ele>
        <time>2024-07-31T08:23:37.805Z</time>
      </trkpt>
      <trkpt lat="54.43894" lon="16.4424">
        <ele>40.02947</ele>
        <time>2024-07-31T08:23:39.798Z</time>
      </trkpt>
      <trkpt lat="54.439" lon="16.44254">
        <ele>40.02202</ele>
        <time>2024-07-31T08:23:41.820Z</time>
      </trkpt>
      <trkpt lat="54.43906" lon="16.44269">
        <ele>40.014555</ele>
        <time>2024-07-31T08:23:43.821Z</time>
      </trkpt>
      <trkpt lat="54.43912" lon="16.44284">
        <ele>40.007037</ele>
        <time>2024-07-31T08:23:45.778Z</time>
      </trkpt>
      <trkpt lat="54.43918" lon="16.44298">
        <ele>40.010673</ele>
        <time>2024-07-31T08:23:47.805Z</time>
      </trkpt>
      <trkpt lat="54.43924" lon="16.44313">
        <ele>40.033188</ele>
        <time>2024-07-31T08:23:49.804Z</time>
      </trkpt>
      <trkpt lat="54.4393" lon="16.44328">
        <ele>40.056092</ele>
        <time>2024-07-31T08:23:51.787Z</time>
      </trkpt>
      <trkpt lat="54.43937" lon="16.44343">
        <ele>40.079137</ele>
        <time>2024-07-31T08:23:53.810Z</time>
      </trkpt>
      <trkpt lat="54.43943" lon="16.44358">
        <ele>40.101603</ele>
        <time>2024-07-31T08:23:55.798Z</time>
      </trkpt>
      <trkpt lat="54.43949" lon="16.44371">
        <ele>40.123058</ele>
        <time>2024-07-31T08:23:57.810Z</time>
      </trkpt>
      <trkpt lat="54.43955" lon="16.44386">
        <ele>40.14459</ele>
        <time>2024-07-31T08:23:59.789Z</time>
      </trkpt>
      <trkpt lat="54.43961" lon="16.444">
        <ele>40.166675</ele>
        <time>2024-07-31T08:24:01.816Z</time>
      </trkpt>
      <trkpt lat="54.43967" lon="16.44414">
        <ele>40.188987</ele>
        <time>2024-07-31T08:24:03.806Z</time>
      </trkpt>
      <trkpt lat="54.43972" lon="16.44428">
        <ele>40.210051</ele>
        <time>2024-07-31T08:24:05.799Z</time>
      </trkpt>
      <trkpt lat="54.43978" lon="16.44441">
        <ele>40.229766</ele>
        <time>2024-07-31T08:24:07.816Z</time>
      </trkpt>
      <trkpt lat="54.43983" lon="16.44454">
        <ele>40.24991</ele>
        <time>2024-07-31T08:24:09.820Z</time>
      </trkpt>
      <trkpt lat="54.43989" lon="16.44468">
        <ele>40.271719</ele>
        <time>2024-07-31T08:24:11.806Z</time>
      </trkpt>
      <trkpt lat="54.43995" lon="16.44483">
        <ele>40.294234</ele>
        <time>2024-07-31T08:24:13.799Z</time>
      </trkpt>
      <trkpt lat="54.44002" lon="16.44498">
        <ele>40.317957</ele>
        <time>2024-07-31T08:24:15.782Z</time>
      </trkpt>
      <trkpt lat="54.44007" lon="16.44512">
        <ele>40.338041</ele>
        <time>2024-07-31T08:24:17.802Z</time>
      </trkpt>
      <trkpt lat="54.44014" lon="16.44527">
        <ele>40.361891</ele>
        <time>2024-07-31T08:24:20.803Z</time>
      </trkpt>
      <trkpt lat="54.44021" lon="16.44543">
        <ele>40.386853</ele>
        <time>2024-07-31T08:24:24.817Z</time>
      </trkpt>
      <trkpt lat="54.44029" lon="16.44557">
        <ele>40.343239</ele>
        <time>2024-07-31T08:24:27.803Z</time>
      </trkpt>
      <trkpt lat="54.44035" lon="16.44569">
        <ele>40.307083</ele>
        <time>2024-07-31T08:24:29.801Z</time>
      </trkpt>
      <trkpt lat="54.44041" lon="16.44582">
        <ele>40.269499</ele>
        <time>2024-07-31T08:24:31.791Z</time>
      </trkpt>
      <trkpt lat="54.44045" lon="16.44598">
        <ele>40.229443</ele>
        <time>2024-07-31T08:24:33.794Z</time>
      </trkpt>
      <trkpt lat="54.44049" lon="16.44614">
        <ele>40.187162</ele>
        <time>2024-07-31T08:24:35.814Z</time>
      </trkpt>
      <trkpt lat="54.44055" lon="16.4463">
        <ele>40.145127</ele>
        <time>2024-07-31T08:24:37.806Z</time>
      </trkpt>
      <trkpt lat="54.44062" lon="16.44645">
        <ele>40.101131</ele>
        <time>2024-07-31T08:24:39.795Z</time>
      </trkpt>
      <trkpt lat="54.44068" lon="16.4466">
        <ele>40.058581</ele>
        <time>2024-07-31T08:24:41.814Z</time>
      </trkpt>
      <trkpt lat="54.44074" lon="16.44676">
        <ele>40.012847</ele>
        <time>2024-07-31T08:24:43.812Z</time>
      </trkpt>
      <trkpt lat="54.44081" lon="16.44692">
        <ele>39.968744</ele>
        <time>2024-07-31T08:24:45.782Z</time>
      </trkpt>
      <trkpt lat="54.44087" lon="16.44707">
        <ele>39.925167</ele>
        <time>2024-07-31T08:24:47.815Z</time>
      </trkpt>
      <trkpt lat="54.44093" lon="16.44723">
        <ele>39.880932</ele>
        <time>2024-07-31T08:24:49.801Z</time>
      </trkpt>
      <trkpt lat="54.441" lon="16.44739">
        <ele>39.836748</ele>
        <time>2024-07-31T08:24:51.821Z</time>
      </trkpt>
      <trkpt lat="54.44106" lon="16.44755">
        <ele>39.791581</ele>
        <time>2024-07-31T08:24:53.782Z</time>
      </trkpt>
      <trkpt lat="54.44113" lon="16.4477">
        <ele>39.747722</ele>
        <time>2024-07-31T08:24:55.809Z</time>
      </trkpt>
      <trkpt lat="54.44119" lon="16.44786">
        <ele>39.702882</ele>
        <time>2024-07-31T08:24:57.809Z</time>
      </trkpt>
      <trkpt lat="54.44125" lon="16.44802">
        <ele>39.665108</ele>
        <time>2024-07-31T08:24:59.821Z</time>
      </trkpt>
      <trkpt lat="54.44132" lon="16.44818">
        <ele>39.640854</ele>
        <time>2024-07-31T08:25:01.797Z</time>
      </trkpt>
      <trkpt lat="54.44138" lon="16.44833">
        <ele>39.617383</ele>
        <time>2024-07-31T08:25:03.799Z</time>
      </trkpt>
      <trkpt lat="54.44145" lon="16.44848">
        <ele>39.594218</ele>
        <time>2024-07-31T08:25:05.802Z</time>
      </trkpt>
      <trkpt lat="54.44151" lon="16.44864">
        <ele>39.570043</ele>
        <time>2024-07-31T08:25:07.814Z</time>
      </trkpt>
      <trkpt lat="54.44157" lon="16.44879">
        <ele>39.546346</ele>
        <time>2024-07-31T08:25:09.821Z</time>
      </trkpt>
      <trkpt lat="54.44163" lon="16.44894">
        <ele>39.523079</ele>
        <time>2024-07-31T08:25:11.814Z</time>
      </trkpt>
      <trkpt lat="54.4417" lon="16.4491">
        <ele>39.499686</ele>
        <time>2024-07-31T08:25:13.821Z</time>
      </trkpt>
      <trkpt lat="54.44176" lon="16.44925">
        <ele>39.476137</ele>
        <time>2024-07-31T08:25:15.827Z</time>
      </trkpt>
      <trkpt lat="54.44183" lon="16.4494">
        <ele>39.452972</ele>
        <time>2024-07-31T08:25:17.804Z</time>
      </trkpt>
      <trkpt lat="54.44189" lon="16.44955">
        <ele>39.428988</ele>
        <time>2024-07-31T08:25:19.821Z</time>
      </trkpt>
      <trkpt lat="54.44195" lon="16.44971">
        <ele>39.405518</ele>
        <time>2024-07-31T08:25:21.797Z</time>
      </trkpt>
      <trkpt lat="54.44201" lon="16.44986">
        <ele>39.382639</ele>
        <time>2024-07-31T08:25:23.806Z</time>
      </trkpt>
      <trkpt lat="54.44207" lon="16.45001">
        <ele>39.359207</ele>
        <time>2024-07-31T08:25:25.812Z</time>
      </trkpt>
      <trkpt lat="54.44213" lon="16.45017">
        <ele>39.336208</ele>
        <time>2024-07-31T08:25:27.823Z</time>
      </trkpt>
      <trkpt lat="54.44219" lon="16.45031">
        <ele>39.314155</ele>
        <time>2024-07-31T08:25:29.809Z</time>
      </trkpt>
      <trkpt lat="54.44226" lon="16.45045">
        <ele>39.291595</ele>
        <time>2024-07-31T08:25:31.775Z</time>
      </trkpt>
      <trkpt lat="54.44231" lon="16.45059">
        <ele>39.313629</ele>
        <time>2024-07-31T08:25:33.810Z</time>
      </trkpt>
      <trkpt lat="54.44237" lon="16.45072">
        <ele>39.350499</ele>
        <time>2024-07-31T08:25:35.799Z</time>
      </trkpt>
      <trkpt lat="54.44242" lon="16.45086">
        <ele>39.387558</ele>
        <time>2024-07-31T08:25:37.789Z</time>
      </trkpt>
      <trkpt lat="54.44248" lon="16.45099">
        <ele>39.424883</ele>
        <time>2024-07-31T08:25:39.799Z</time>
      </trkpt>
      <trkpt lat="54.44253" lon="16.45112">
        <ele>39.463602</ele>
        <time>2024-07-31T08:25:41.799Z</time>
      </trkpt>
      <trkpt lat="54.44259" lon="16.45126">
        <ele>39.501717</ele>
        <time>2024-07-31T08:25:43.799Z</time>
      </trkpt>
      <trkpt lat="54.44265" lon="16.4514">
        <ele>39.54025</ele>
        <time>2024-07-31T08:25:45.811Z</time>
      </trkpt>
      <trkpt lat="54.4427" lon="16.45153">
        <ele>39.579805</ele>
        <time>2024-07-31T08:25:47.806Z</time>
      </trkpt>
      <trkpt lat="54.44276" lon="16.45167">
        <ele>39.617733</ele>
        <time>2024-07-31T08:25:49.813Z</time>
      </trkpt>
      <trkpt lat="54.44281" lon="16.4518">
        <ele>39.654603</ele>
        <time>2024-07-31T08:25:51.786Z</time>
      </trkpt>
      <trkpt lat="54.44286" lon="16.45193">
        <ele>39.691221</ele>
        <time>2024-07-31T08:25:53.808Z</time>
      </trkpt>
      <trkpt lat="54.44292" lon="16.45207">
        <ele>39.729523</ele>
        <time>2024-07-31T08:25:55.803Z</time>
      </trkpt>
      <trkpt lat="54.44298" lon="16.45221">
        <ele>39.76839</ele>
        <time>2024-07-31T08:25:57.790Z</time>
      </trkpt>
      <trkpt lat="54.44303" lon="16.45235">
        <ele>39.808208</ele>
        <time>2024-07-31T08:25:59.812Z</time>
      </trkpt>
      <trkpt lat="54.44309" lon="16.45249">
        <ele>39.847577</ele>
        <time>2024-07-31T08:26:01.789Z</time>
      </trkpt>
      <trkpt lat="54.44315" lon="16.45263">
        <ele>39.887274</ele>
        <time>2024-07-31T08:26:03.803Z</time>
      </trkpt>
      <trkpt lat="54.4432" lon="16.45277">
        <ele>39.925728</ele>
        <time>2024-07-31T08:26:05.813Z</time>
      </trkpt>
      <trkpt lat="54.44326" lon="16.45291">
        <ele>39.965576</ele>
        <time>2024-07-31T08:26:07.802Z</time>
      </trkpt>
      <trkpt lat="54.44332" lon="16.45305">
        <ele>40.000875</ele>
        <time>2024-07-31T08:26:09.797Z</time>
      </trkpt>
      <trkpt lat="54.44338" lon="16.4532">
        <ele>40.019596</ele>
        <time>2024-07-31T08:26:11.795Z</time>
      </trkpt>
      <trkpt lat="54.44345" lon="16.45334">
        <ele>40.038871</ele>
        <time>2024-07-31T08:26:13.804Z</time>
      </trkpt>
      <trkpt lat="54.44351" lon="16.45349">
        <ele>40.057906</ele>
        <time>2024-07-31T08:26:15.806Z</time>
      </trkpt>
      <trkpt lat="54.44357" lon="16.45363">
        <ele>40.076684</ele>
        <time>2024-07-31T08:26:17.799Z</time>
      </trkpt>
      <trkpt lat="54.44363" lon="16.45378">
        <ele>40.095509</ele>
        <time>2024-07-31T08:26:19.819Z</time>
      </trkpt>
      <trkpt lat="54.44368" lon="16.45392">
        <ele>40.114041</ele>
        <time>2024-07-31T08:26:21.803Z</time>
      </trkpt>
      <trkpt lat="54.44374" lon="16.45407">
        <ele>40.132953</ele>
        <time>2024-07-31T08:26:23.819Z</time>
      </trkpt>
      <trkpt lat="54.4438" lon="16.45421">
        <ele>40.151174</ele>
        <time>2024-07-31T08:26:25.802Z</time>
      </trkpt>
      <trkpt lat="54.44386" lon="16.45435">
        <ele>40.169674</ele>
        <time>2024-07-31T08:26:27.801Z</time>
      </trkpt>
      <trkpt lat="54.44392" lon="16.45449">
        <ele>40.188003</ele>
        <time>2024-07-31T08:26:29.803Z</time>
      </trkpt>
      <trkpt lat="54.44398" lon="16.45463">
        <ele>40.206463</ele>
        <time>2024-07-31T08:26:31.806Z</time>
      </trkpt>
      <trkpt lat="54.44404" lon="16.45477">
        <ele>40.224385</ele>
        <time>2024-07-31T08:26:33.809Z</time>
      </trkpt>
      <trkpt lat="54.4441" lon="16.45491">
        <ele>40.243018</ele>
        <time>2024-07-31T08:26:35.769Z</time>
      </trkpt>
      <trkpt lat="54.44416" lon="16.45505">
        <ele>40.26141</ele>
        <time>2024-07-31T08:26:37.824Z</time>
      </trkpt>
      <trkpt lat="54.44421" lon="16.45519">
        <ele>40.279022</ele>
        <time>2024-07-31T08:26:39.771Z</time>
      </trkpt>
      <trkpt lat="54.44427" lon="16.45534">
        <ele>40.297743</ele>
        <time>2024-07-31T08:26:41.820Z</time>
      </trkpt>
      <trkpt lat="54.44432" lon="16.45548">
        <ele>40.315609</ele>
        <time>2024-07-31T08:26:43.803Z</time>
      </trkpt>
      <trkpt lat="54.44438" lon="16.45562">
        <ele>40.358546</ele>
        <time>2024-07-31T08:26:45.801Z</time>
      </trkpt>
      <trkpt lat="54.44444" lon="16.45577">
        <ele>40.419666</ele>
        <time>2024-07-31T08:26:47.810Z</time>
      </trkpt>
      <trkpt lat="54.4445" lon="16.4559">
        <ele>40.479423</ele>
        <time>2024-07-31T08:26:49.796Z</time>
      </trkpt>
      <trkpt lat="54.44456" lon="16.45604">
        <ele>40.541954</ele>
        <time>2024-07-31T08:26:51.813Z</time>
      </trkpt>
      <trkpt lat="54.44463" lon="16.45619">
        <ele>40.605491</ele>
        <time>2024-07-31T08:26:53.795Z</time>
      </trkpt>
      <trkpt lat="54.44469" lon="16.45633">
        <ele>40.666957</ele>
        <time>2024-07-31T08:26:55.803Z</time>
      </trkpt>
      <trkpt lat="54.44475" lon="16.45647">
        <ele>40.729293</ele>
        <time>2024-07-31T08:26:57.791Z</time>
      </trkpt>
      <trkpt lat="54.4448" lon="16.45662">
        <ele>40.788999</ele>
        <time>2024-07-31T08:26:59.803Z</time>
      </trkpt>
      <trkpt lat="54.44485" lon="16.45677">
        <ele>40.85023</ele>
        <time>2024-07-31T08:27:01.804Z</time>
      </trkpt>
      <trkpt lat="54.4449" lon="16.45693">
        <ele>40.91222</ele>
        <time>2024-07-31T08:27:03.814Z</time>
      </trkpt>
      <trkpt lat="54.44496" lon="16.45707">
        <ele>40.974547</ele>
        <time>2024-07-31T08:27:05.803Z</time>
      </trkpt>
      <trkpt lat="54.44502" lon="16.45721">
        <ele>41.037838</ele>
        <time>2024-07-31T08:27:07.784Z</time>
      </trkpt>
      <trkpt lat="54.4451" lon="16.45734">
        <ele>41.102115</ele>
        <time>2024-07-31T08:27:09.806Z</time>
      </trkpt>
      <trkpt lat="54.44516" lon="16.45749">
        <ele>41.166765</ele>
        <time>2024-07-31T08:27:11.801Z</time>
      </trkpt>
      <trkpt lat="54.44523" lon="16.45763">
        <ele>41.228546</ele>
        <time>2024-07-31T08:27:13.809Z</time>
      </trkpt>
      <trkpt lat="54.44529" lon="16.45777">
        <ele>41.290298</ele>
        <time>2024-07-31T08:27:15.799Z</time>
      </trkpt>
      <trkpt lat="54.44535" lon="16.45791">
        <ele>41.35375</ele>
        <time>2024-07-31T08:27:17.806Z</time>
      </trkpt>
      <trkpt lat="54.44541" lon="16.45806">
        <ele>41.408657</ele>
        <time>2024-07-31T08:27:19.794Z</time>
      </trkpt>
      <trkpt lat="54.44547" lon="16.45821">
        <ele>41.410997</ele>
        <time>2024-07-31T08:27:21.820Z</time>
      </trkpt>
      <trkpt lat="54.44553" lon="16.45835">
        <ele>41.413332</ele>
        <time>2024-07-31T08:27:23.781Z</time>
      </trkpt>
      <trkpt lat="54.44559" lon="16.4585">
        <ele>41.415674</ele>
        <time>2024-07-31T08:27:25.806Z</time>
      </trkpt>
      <trkpt lat="54.44565" lon="16.45863">
        <ele>41.417887</ele>
        <time>2024-07-31T08:27:27.783Z</time>
      </trkpt>
      <trkpt lat="54.4457" lon="16.45876">
        <ele>41.420048</ele>
        <time>2024-07-31T08:27:29.798Z</time>
      </trkpt>
      <trkpt lat="54.44577" lon="16.45893">
        <ele>41.422722</ele>
        <time>2024-07-31T08:27:32.798Z</time>
      </trkpt>
      <trkpt lat="54.4458" lon="16.45908">
        <ele>41.424759</ele>
        <time>2024-07-31T08:27:37.807Z</time>
      </trkpt>
      <trkpt lat="54.4458" lon="16.45924">
        <ele>41.426843</ele>
        <time>2024-07-31T08:27:42.788Z</time>
      </trkpt>
      <trkpt lat="54.44586" lon="16.45939">
        <ele>41.429405</ele>
        <time>2024-07-31T08:27:46.800Z</time>
      </trkpt>
      <trkpt lat="54.44592" lon="16.45953">
        <ele>41.431607</ele>
        <time>2024-07-31T08:27:49.807Z</time>
      </trkpt>
      <trkpt lat="54.44598" lon="16.45965">
        <ele>41.43376</ele>
        <time>2024-07-31T08:27:52.795Z</time>
      </trkpt>
      <trkpt lat="54.44604" lon="16.45977">
        <ele>41.435924</ele>
        <time>2024-07-31T08:27:55.803Z</time>
      </trkpt>
      <trkpt lat="54.44611" lon="16.45992">
        <ele>41.438339</ele>
        <time>2024-07-31T08:27:58.798Z</time>
      </trkpt>
      <trkpt lat="54.44617" lon="16.46007">
        <ele>41.440755</ele>
        <time>2024-07-31T08:28:01.815Z</time>
      </trkpt>
      <trkpt lat="54.44623" lon="16.46022">
        <ele>41.443211</ele>
        <time>2024-07-31T08:28:04.799Z</time>
      </trkpt>
      <trkpt lat="54.44629" lon="16.46039">
        <ele>41.445785</ele>
        <time>2024-07-31T08:28:07.806Z</time>
      </trkpt>
      <trkpt lat="54.44635" lon="16.46056">
        <ele>41.448369</ele>
        <time>2024-07-31T08:28:10.805Z</time>
      </trkpt>
      <trkpt lat="54.4464" lon="16.46074">
        <ele>41.426137</ele>
        <time>2024-07-31T08:28:13.810Z</time>
      </trkpt>
      <trkpt lat="54.44646" lon="16.46091">
        <ele>41.396285</ele>
        <time>2024-07-31T08:28:16.795Z</time>
      </trkpt>
      <trkpt lat="54.44651" lon="16.4611">
        <ele>41.364979</ele>
        <time>2024-07-31T08:28:19.803Z</time>
      </trkpt>
      <trkpt lat="54.44655" lon="16.46129">
        <ele>41.334896</ele>
        <time>2024-07-31T08:28:22.798Z</time>
      </trkpt>
      <trkpt lat="54.4466" lon="16.46148">
        <ele>41.303421</ele>
        <time>2024-07-31T08:28:25.802Z</time>
      </trkpt>
      <trkpt lat="54.44664" lon="16.46166">
        <ele>41.273479</ele>
        <time>2024-07-31T08:28:28.819Z</time>
      </trkpt>
      <trkpt lat="54.44668" lon="16.46186">
        <ele>41.242186</ele>
        <time>2024-07-31T08:28:31.806Z</time>
      </trkpt>
      <trkpt lat="54.44672" lon="16.46205">
        <ele>41.212008</ele>
        <time>2024-07-31T08:28:34.804Z</time>
      </trkpt>
      <trkpt lat="54.44677" lon="16.46224">
        <ele>41.180847</ele>
        <time>2024-07-31T08:28:37.797Z</time>
      </trkpt>
      <trkpt lat="54.44681" lon="16.46243">
        <ele>41.149637</ele>
        <time>2024-07-31T08:28:40.802Z</time>
      </trkpt>
      <trkpt lat="54.44685" lon="16.46263">
        <ele>41.117771</ele>
        <time>2024-07-31T08:28:43.799Z</time>
      </trkpt>
      <trkpt lat="54.44689" lon="16.46282">
        <ele>41.087499</ele>
        <time>2024-07-31T08:28:46.817Z</time>
      </trkpt>
      <trkpt lat="54.44694" lon="16.46301">
        <ele>41.056608</ele>
        <time>2024-07-31T08:28:49.798Z</time>
      </trkpt>
      <trkpt lat="54.44698" lon="16.46318">
        <ele>41.028554</ele>
        <time>2024-07-31T08:28:52.805Z</time>
      </trkpt>
      <trkpt lat="54.44703" lon="16.46332">
        <ele>41.003269</ele>
        <time>2024-07-31T08:28:58.817Z</time>
      </trkpt>
      <trkpt lat="54.44706" lon="16.46348">
        <ele>40.986858</ele>
        <time>2024-07-31T08:29:04.790Z</time>
      </trkpt>
      <trkpt lat="54.44709" lon="16.46363">
        <ele>41.014436</ele>
        <time>2024-07-31T08:29:09.802Z</time>
      </trkpt>
      <trkpt lat="54.44714" lon="16.46379">
        <ele>41.044534</ele>
        <time>2024-07-31T08:29:14.805Z</time>
      </trkpt>
      <trkpt lat="54.44717" lon="16.46394">
        <ele>41.07115</ele>
        <time>2024-07-31T08:29:19.785Z</time>
      </trkpt>
      <trkpt lat="54.44722" lon="16.46408">
        <ele>41.099183</ele>
        <time>2024-07-31T08:29:27.781Z</time>
      </trkpt>
      <trkpt lat="54.4473" lon="16.46416">
        <ele>41.125715</ele>
        <time>2024-07-31T08:31:10.789Z</time>
      </trkpt>
      <trkpt lat="54.44734" lon="16.46434">
        <ele>41.158488</ele>
        <time>2024-07-31T08:31:14.806Z</time>
      </trkpt>
      <trkpt lat="54.44737" lon="16.4645">
        <ele>41.18605</ele>
        <time>2024-07-31T08:31:17.790Z</time>
      </trkpt>
      <trkpt lat="54.4474" lon="16.46466">
        <ele>41.215602</ele>
        <time>2024-07-31T08:31:20.793Z</time>
      </trkpt>
      <trkpt lat="54.44743" lon="16.46483">
        <ele>41.244935</ele>
        <time>2024-07-31T08:31:23.811Z</time>
      </trkpt>
      <trkpt lat="54.44747" lon="16.46498">
        <ele>41.272287</ele>
        <time>2024-07-31T08:31:26.798Z</time>
      </trkpt>
      <trkpt lat="54.4475" lon="16.46513">
        <ele>41.300628</ele>
        <time>2024-07-31T08:31:29.795Z</time>
      </trkpt>
      <trkpt lat="54.44754" lon="16.46528">
        <ele>41.327178</ele>
        <time>2024-07-31T08:31:32.805Z</time>
      </trkpt>
      <trkpt lat="54.44757" lon="16.46543">
        <ele>41.353993</ele>
        <time>2024-07-31T08:31:35.814Z</time>
      </trkpt>
      <trkpt lat="54.4476" lon="16.46558">
        <ele>41.380909</ele>
        <time>2024-07-31T08:31:38.825Z</time>
      </trkpt>
      <trkpt lat="54.44764" lon="16.46574">
        <ele>41.409409</ele>
        <time>2024-07-31T08:31:41.802Z</time>
      </trkpt>
      <trkpt lat="54.44767" lon="16.4659">
        <ele>41.438484</ele>
        <time>2024-07-31T08:31:44.770Z</time>
      </trkpt>
      <trkpt lat="54.44771" lon="16.46606">
        <ele>41.467885</ele>
        <time>2024-07-31T08:31:47.777Z</time>
      </trkpt>
      <trkpt lat="54.44775" lon="16.46623">
        <ele>41.498213</ele>
        <time>2024-07-31T08:31:50.804Z</time>
      </trkpt>
      <trkpt lat="54.44779" lon="16.46639">
        <ele>41.568255</ele>
        <time>2024-07-31T08:31:53.801Z</time>
      </trkpt>
      <trkpt lat="54.44782" lon="16.46657">
        <ele>41.651549</ele>
        <time>2024-07-31T08:31:56.785Z</time>
      </trkpt>
      <trkpt lat="54.44786" lon="16.46675">
        <ele>41.742423</ele>
        <time>2024-07-31T08:31:59.801Z</time>
      </trkpt>
      <trkpt lat="54.44791" lon="16.46695">
        <ele>41.839783</ele>
        <time>2024-07-31T08:32:02.802Z</time>
      </trkpt>
      <trkpt lat="54.44796" lon="16.46716">
        <ele>41.939304</ele>
        <time>2024-07-31T08:32:05.805Z</time>
      </trkpt>
      <trkpt lat="54.44801" lon="16.46737">
        <ele>42.042858</ele>
        <time>2024-07-31T08:32:08.800Z</time>
      </trkpt>
      <trkpt lat="54.44805" lon="16.46757">
        <ele>42.140451</ele>
        <time>2024-07-31T08:32:11.800Z</time>
      </trkpt>
      <trkpt lat="54.44809" lon="16.46779">
        <ele>42.246005</ele>
        <time>2024-07-31T08:32:14.798Z</time>
      </trkpt>
      <trkpt lat="54.44812" lon="16.46794">
        <ele>42.319131</ele>
        <time>2024-07-31T08:32:16.795Z</time>
      </trkpt>
      <trkpt lat="54.44816" lon="16.46809">
        <ele>42.391743</ele>
        <time>2024-07-31T08:32:18.800Z</time>
      </trkpt>
      <trkpt lat="54.44819" lon="16.46824">
        <ele>42.462751</ele>
        <time>2024-07-31T08:32:20.811Z</time>
      </trkpt>
      <trkpt lat="54.44823" lon="16.46838">
        <ele>42.53392</ele>
        <time>2024-07-31T08:32:22.813Z</time>
      </trkpt>
      <trkpt lat="54.44826" lon="16.46853">
        <ele>42.60803</ele>
        <time>2024-07-31T08:32:24.789Z</time>
      </trkpt>
      <trkpt lat="54.44829" lon="16.46869">
        <ele>42.681173</ele>
        <time>2024-07-31T08:32:26.802Z</time>
      </trkpt>
      <trkpt lat="54.44833" lon="16.46884">
        <ele>42.753027</ele>
        <time>2024-07-31T08:32:28.819Z</time>
      </trkpt>
      <trkpt lat="54.44836" lon="16.46898">
        <ele>42.824337</ele>
        <time>2024-07-31T08:32:30.791Z</time>
      </trkpt>
      <trkpt lat="54.44839" lon="16.46913">
        <ele>42.895915</ele>
        <time>2024-07-31T08:32:32.799Z</time>
      </trkpt>
      <trkpt lat="54.44842" lon="16.46929">
        <ele>42.900998</ele>
        <time>2024-07-31T08:32:34.787Z</time>
      </trkpt>
      <trkpt lat="54.44845" lon="16.46943">
        <ele>42.894077</ele>
        <time>2024-07-31T08:32:36.809Z</time>
      </trkpt>
      <trkpt lat="54.44849" lon="16.46958">
        <ele>42.886907</ele>
        <time>2024-07-31T08:32:38.792Z</time>
      </trkpt>
      <trkpt lat="54.44852" lon="16.46973">
        <ele>42.879613</ele>
        <time>2024-07-31T08:32:40.807Z</time>
      </trkpt>
      <trkpt lat="54.44855" lon="16.46989">
        <ele>42.872288</ele>
        <time>2024-07-31T08:32:42.787Z</time>
      </trkpt>
      <trkpt lat="54.44859" lon="16.47004">
        <ele>42.864897</ele>
        <time>2024-07-31T08:32:44.794Z</time>
      </trkpt>
      <trkpt lat="54.44862" lon="16.4702">
        <ele>42.857505</ele>
        <time>2024-07-31T08:32:46.794Z</time>
      </trkpt>
      <trkpt lat="54.44866" lon="16.47035">
        <ele>42.850474</ele>
        <time>2024-07-31T08:32:48.805Z</time>
      </trkpt>
      <trkpt lat="54.44869" lon="16.47049">
        <ele>42.843426</ele>
        <time>2024-07-31T08:32:50.789Z</time>
      </trkpt>
      <trkpt lat="54.44872" lon="16.47064">
        <ele>42.836241</ele>
        <time>2024-07-31T08:32:52.798Z</time>
      </trkpt>
      <trkpt lat="54.44876" lon="16.47079">
        <ele>42.829043</ele>
        <time>2024-07-31T08:32:54.794Z</time>
      </trkpt>
      <trkpt lat="54.44879" lon="16.47094">
        <ele>42.821828</ele>
        <time>2024-07-31T08:32:56.809Z</time>
      </trkpt>
      <trkpt lat="54.44882" lon="16.47109">
        <ele>42.81477</ele>
        <time>2024-07-31T08:32:58.794Z</time>
      </trkpt>
      <trkpt lat="54.44886" lon="16.47125">
        <ele>42.80742</ele>
        <time>2024-07-31T08:33:00.790Z</time>
      </trkpt>
      <trkpt lat="54.44889" lon="16.47139">
        <ele>42.800498</ele>
        <time>2024-07-31T08:33:02.777Z</time>
      </trkpt>
      <trkpt lat="54.44894" lon="16.47159">
        <ele>42.790773</ele>
        <time>2024-07-31T08:33:05.795Z</time>
      </trkpt>
      <trkpt lat="54.44898" lon="16.47179">
        <ele>42.781387</ele>
        <time>2024-07-31T08:33:08.820Z</time>
      </trkpt>
      <trkpt lat="54.44902" lon="16.47196">
        <ele>42.773322</ele>
        <time>2024-07-31T08:33:11.807Z</time>
      </trkpt>
      <trkpt lat="54.44906" lon="16.47212">
        <ele>42.791481</ele>
        <time>2024-07-31T08:33:15.813Z</time>
      </trkpt>
      <trkpt lat="54.44911" lon="16.47227">
        <ele>42.835815</ele>
        <time>2024-07-31T08:33:21.784Z</time>
      </trkpt>
      <trkpt lat="54.44915" lon="16.47243">
        <ele>42.878919</ele>
        <time>2024-07-31T08:33:26.780Z</time>
      </trkpt>
      <trkpt lat="54.44919" lon="16.47262">
        <ele>42.928705</ele>
        <time>2024-07-31T08:35:54.796Z</time>
      </trkpt>
      <trkpt lat="54.44924" lon="16.47277">
        <ele>42.971082</ele>
        <time>2024-07-31T08:35:57.825Z</time>
      </trkpt>
      <trkpt lat="54.44929" lon="16.47296">
        <ele>43.025054</ele>
        <time>2024-07-31T08:36:00.787Z</time>
      </trkpt>
      <trkpt lat="54.44934" lon="16.47318">
        <ele>43.08307</ele>
        <time>2024-07-31T08:36:03.800Z</time>
      </trkpt>
      <trkpt lat="54.44938" lon="16.47339">
        <ele>43.137075</ele>
        <time>2024-07-31T08:36:06.782Z</time>
      </trkpt>
      <trkpt lat="54.44943" lon="16.47361">
        <ele>43.195635</ele>
        <time>2024-07-31T08:36:09.791Z</time>
      </trkpt>
      <trkpt lat="54.44946" lon="16.47377">
        <ele>43.239237</ele>
        <time>2024-07-31T08:36:11.800Z</time>
      </trkpt>
      <trkpt lat="54.4495" lon="16.47394">
        <ele>43.285528</ele>
        <time>2024-07-31T08:36:13.829Z</time>
      </trkpt>
      <trkpt lat="54.44954" lon="16.47412">
        <ele>43.33337</ele>
        <time>2024-07-31T08:36:15.806Z</time>
      </trkpt>
      <trkpt lat="54.44958" lon="16.4743">
        <ele>43.381522</ele>
        <time>2024-07-31T08:36:17.821Z</time>
      </trkpt>
      <trkpt lat="54.44962" lon="16.47448">
        <ele>43.428144</ele>
        <time>2024-07-31T08:36:19.795Z</time>
      </trkpt>
      <trkpt lat="54.44966" lon="16.47465">
        <ele>43.47476</ele>
        <time>2024-07-31T08:36:21.797Z</time>
      </trkpt>
      <trkpt lat="54.4497" lon="16.47482">
        <ele>43.521283</ele>
        <time>2024-07-31T08:36:23.806Z</time>
      </trkpt>
      <trkpt lat="54.44974" lon="16.475">
        <ele>43.507175</ele>
        <time>2024-07-31T08:36:25.801Z</time>
      </trkpt>
      <trkpt lat="54.44978" lon="16.47518">
        <ele>43.442711</ele>
        <time>2024-07-31T08:36:27.803Z</time>
      </trkpt>
      <trkpt lat="54.44982" lon="16.47535">
        <ele>43.37958</ele>
        <time>2024-07-31T08:36:29.811Z</time>
      </trkpt>
      <trkpt lat="54.44986" lon="16.47553">
        <ele>43.316956</ele>
        <time>2024-07-31T08:36:31.809Z</time>
      </trkpt>
      <trkpt lat="54.44989" lon="16.47571">
        <ele>43.253116</ele>
        <time>2024-07-31T08:36:33.799Z</time>
      </trkpt>
      <trkpt lat="54.44994" lon="16.47589">
        <ele>43.188032</ele>
        <time>2024-07-31T08:36:35.785Z</time>
      </trkpt>
      <trkpt lat="54.44998" lon="16.47607">
        <ele>43.122948</ele>
        <time>2024-07-31T08:36:37.817Z</time>
      </trkpt>
      <trkpt lat="54.45002" lon="16.47625">
        <ele>43.059318</ele>
        <time>2024-07-31T08:36:39.809Z</time>
      </trkpt>
      <trkpt lat="54.45006" lon="16.47642">
        <ele>42.996791</ele>
        <time>2024-07-31T08:36:41.775Z</time>
      </trkpt>
      <trkpt lat="54.4501" lon="16.47659">
        <ele>42.936278</ele>
        <time>2024-07-31T08:36:43.793Z</time>
      </trkpt>
      <trkpt lat="54.45014" lon="16.47675">
        <ele>42.87784</ele>
        <time>2024-07-31T08:36:45.807Z</time>
      </trkpt>
      <trkpt lat="54.45018" lon="16.47692">
        <ele>42.817638</ele>
        <time>2024-07-31T08:36:47.818Z</time>
      </trkpt>
      <trkpt lat="54.45021" lon="16.47709">
        <ele>42.756813</ele>
        <time>2024-07-31T08:36:49.804Z</time>
      </trkpt>
      <trkpt lat="54.45026" lon="16.47726">
        <ele>42.694668</ele>
        <time>2024-07-31T08:36:51.815Z</time>
      </trkpt>
      <trkpt lat="54.4503" lon="16.47744">
        <ele>42.631132</ele>
        <time>2024-07-31T08:36:53.837Z</time>
      </trkpt>
      <trkpt lat="54.45034" lon="16.47762">
        <ele>42.566571</ele>
        <time>2024-07-31T08:36:55.793Z</time>
      </trkpt>
      <trkpt lat="54.45038" lon="16.4778">
        <ele>42.476298</ele>
        <time>2024-07-31T08:36:57.810Z</time>
      </trkpt>
      <trkpt lat="54.45042" lon="16.47799">
        <ele>42.257334</ele>
        <time>2024-07-31T08:36:59.823Z</time>
      </trkpt>
      <trkpt lat="54.45044" lon="16.47818">
        <ele>42.042495</ele>
        <time>2024-07-31T08:37:01.799Z</time>
      </trkpt>
      <trkpt lat="54.45048" lon="16.47837">
        <ele>41.817067</ele>
        <time>2024-07-31T08:37:03.790Z</time>
      </trkpt>
      <trkpt lat="54.45052" lon="16.47856">
        <ele>41.58187</ele>
        <time>2024-07-31T08:37:05.804Z</time>
      </trkpt>
      <trkpt lat="54.45057" lon="16.47876">
        <ele>41.337583</ele>
        <time>2024-07-31T08:37:07.820Z</time>
      </trkpt>
      <trkpt lat="54.45062" lon="16.47897">
        <ele>41.090491</ele>
        <time>2024-07-31T08:37:09.795Z</time>
      </trkpt>
      <trkpt lat="54.45068" lon="16.47917">
        <ele>40.828021</ele>
        <time>2024-07-31T08:37:11.805Z</time>
      </trkpt>
      <trkpt lat="54.45075" lon="16.47937">
        <ele>40.570919</ele>
        <time>2024-07-31T08:37:13.816Z</time>
      </trkpt>
      <trkpt lat="54.45082" lon="16.47955">
        <ele>40.328005</ele>
        <time>2024-07-31T08:37:15.785Z</time>
      </trkpt>
      <trkpt lat="54.45089" lon="16.47971">
        <ele>40.093634</ele>
        <time>2024-07-31T08:37:17.818Z</time>
      </trkpt>
      <trkpt lat="54.45096" lon="16.47988">
        <ele>39.860896</ele>
        <time>2024-07-31T08:37:19.806Z</time>
      </trkpt>
      <trkpt lat="54.45102" lon="16.48003">
        <ele>39.649781</ele>
        <time>2024-07-31T08:37:21.796Z</time>
      </trkpt>
      <trkpt lat="54.45106" lon="16.48018">
        <ele>39.464159</ele>
        <time>2024-07-31T08:37:25.794Z</time>
      </trkpt>
      <trkpt lat="54.45114" lon="16.48029">
        <ele>39.273144</ele>
        <time>2024-07-31T08:37:45.813Z</time>
      </trkpt>
      <trkpt lat="54.4512" lon="16.48042">
        <ele>39.081801</ele>
        <time>2024-07-31T08:37:48.802Z</time>
      </trkpt>
      <trkpt lat="54.45127" lon="16.48059">
        <ele>39.062814</ele>
        <time>2024-07-31T08:37:51.780Z</time>
      </trkpt>
      <trkpt lat="54.45133" lon="16.48072">
        <ele>39.102305</ele>
        <time>2024-07-31T08:37:53.816Z</time>
      </trkpt>
      <trkpt lat="54.45139" lon="16.48085">
        <ele>39.144741</ele>
        <time>2024-07-31T08:37:55.832Z</time>
      </trkpt>
      <trkpt lat="54.45146" lon="16.481">
        <ele>39.189214</ele>
        <time>2024-07-31T08:37:57.771Z</time>
      </trkpt>
      <trkpt lat="54.45152" lon="16.48115">
        <ele>39.235282</ele>
        <time>2024-07-31T08:37:59.799Z</time>
      </trkpt>
      <trkpt lat="54.45159" lon="16.4813">
        <ele>39.281293</ele>
        <time>2024-07-31T08:38:01.815Z</time>
      </trkpt>
      <trkpt lat="54.45166" lon="16.48145">
        <ele>39.326854</ele>
        <time>2024-07-31T08:38:03.815Z</time>
      </trkpt>
      <trkpt lat="54.45172" lon="16.48161">
        <ele>39.374041</ele>
        <time>2024-07-31T08:38:05.810Z</time>
      </trkpt>
      <trkpt lat="54.45178" lon="16.48176">
        <ele>39.418801</ele>
        <time>2024-07-31T08:38:07.799Z</time>
      </trkpt>
      <trkpt lat="54.45184" lon="16.4819">
        <ele>39.459727</ele>
        <time>2024-07-31T08:38:09.798Z</time>
      </trkpt>
      <trkpt lat="54.45189" lon="16.48204">
        <ele>39.499752</ele>
        <time>2024-07-31T08:38:11.811Z</time>
      </trkpt>
      <trkpt lat="54.45197" lon="16.48221">
        <ele>39.55351</ele>
        <time>2024-07-31T08:38:14.804Z</time>
      </trkpt>
      <trkpt lat="54.45204" lon="16.48239">
        <ele>39.606738</ele>
        <time>2024-07-31T08:38:17.812Z</time>
      </trkpt>
      <trkpt lat="54.45212" lon="16.48257">
        <ele>39.659173</ele>
        <time>2024-07-31T08:38:20.814Z</time>
      </trkpt>
      <trkpt lat="54.45219" lon="16.48273">
        <ele>39.709283</ele>
        <time>2024-07-31T08:38:23.801Z</time>
      </trkpt>
      <trkpt lat="54.45226" lon="16.48288">
        <ele>39.755635</ele>
        <time>2024-07-31T08:38:26.824Z</time>
      </trkpt>
      <trkpt lat="54.45233" lon="16.48304">
        <ele>40.029906</ele>
        <time>2024-07-31T08:38:29.815Z</time>
      </trkpt>
      <trkpt lat="54.4524" lon="16.4832">
        <ele>40.461719</ele>
        <time>2024-07-31T08:38:32.818Z</time>
      </trkpt>
      <trkpt lat="54.45247" lon="16.48336">
        <ele>40.892543</ele>
        <time>2024-07-31T08:38:35.804Z</time>
      </trkpt>
      <trkpt lat="54.45254" lon="16.48351">
        <ele>41.320363</ele>
        <time>2024-07-31T08:38:38.820Z</time>
      </trkpt>
      <trkpt lat="54.45261" lon="16.48368">
        <ele>41.756468</ele>
        <time>2024-07-31T08:38:41.779Z</time>
      </trkpt>
      <trkpt lat="54.45268" lon="16.48384">
        <ele>42.204441</ele>
        <time>2024-07-31T08:38:44.824Z</time>
      </trkpt>
      <trkpt lat="54.45274" lon="16.484">
        <ele>42.620354</ele>
        <time>2024-07-31T08:38:47.795Z</time>
      </trkpt>
      <trkpt lat="54.45281" lon="16.48415">
        <ele>43.031722</ele>
        <time>2024-07-31T08:38:50.798Z</time>
      </trkpt>
      <trkpt lat="54.45288" lon="16.4843">
        <ele>43.449833</ele>
        <time>2024-07-31T08:38:53.797Z</time>
      </trkpt>
      <trkpt lat="54.45295" lon="16.48446">
        <ele>43.893029</ele>
        <time>2024-07-31T08:38:56.805Z</time>
      </trkpt>
      <trkpt lat="54.45302" lon="16.48463">
        <ele>44.341489</ele>
        <time>2024-07-31T08:38:59.823Z</time>
      </trkpt>
      <trkpt lat="54.4531" lon="16.48478">
        <ele>44.782524</ele>
        <time>2024-07-31T08:39:02.805Z</time>
      </trkpt>
      <trkpt lat="54.45316" lon="16.48494">
        <ele>45.201155</ele>
        <time>2024-07-31T08:39:05.815Z</time>
      </trkpt>
      <trkpt lat="54.45323" lon="16.4851">
        <ele>45.636962</ele>
        <time>2024-07-31T08:39:08.817Z</time>
      </trkpt>
      <trkpt lat="54.4533" lon="16.48526">
        <ele>46.065184</ele>
        <time>2024-07-31T08:39:11.803Z</time>
      </trkpt>
      <trkpt lat="54.45337" lon="16.48541">
        <ele>46.491267</ele>
        <time>2024-07-31T08:39:14.820Z</time>
      </trkpt>
      <trkpt lat="54.45344" lon="16.48557">
        <ele>46.581996</ele>
        <time>2024-07-31T08:39:17.801Z</time>
      </trkpt>
      <trkpt lat="54.45351" lon="16.48572">
        <ele>46.665489</ele>
        <time>2024-07-31T08:39:20.812Z</time>
      </trkpt>
      <trkpt lat="54.45358" lon="16.48588">
        <ele>46.752669</ele>
        <time>2024-07-31T08:39:23.800Z</time>
      </trkpt>
      <trkpt lat="54.45365" lon="16.48602">
        <ele>46.833111</ele>
        <time>2024-07-31T08:39:26.802Z</time>
      </trkpt>
      <trkpt lat="54.45372" lon="16.48619">
        <ele>46.920629</ele>
        <time>2024-07-31T08:39:29.801Z</time>
      </trkpt>
      <trkpt lat="54.45379" lon="16.48635">
        <ele>47.004994</ele>
        <time>2024-07-31T08:39:32.808Z</time>
      </trkpt>
      <trkpt lat="54.45386" lon="16.4865">
        <ele>47.086355</ele>
        <time>2024-07-31T08:39:35.815Z</time>
      </trkpt>
      <trkpt lat="54.45392" lon="16.48666">
        <ele>47.169714</ele>
        <time>2024-07-31T08:39:38.818Z</time>
      </trkpt>
      <trkpt lat="54.45399" lon="16.48681">
        <ele>47.250699</ele>
        <time>2024-07-31T08:39:41.813Z</time>
      </trkpt>
      <trkpt lat="54.45406" lon="16.48696">
        <ele>47.33215</ele>
        <time>2024-07-31T08:39:44.812Z</time>
      </trkpt>
      <trkpt lat="54.45412" lon="16.48711">
        <ele>47.410324</ele>
        <time>2024-07-31T08:39:47.809Z</time>
      </trkpt>
      <trkpt lat="54.45418" lon="16.48724">
        <ele>47.482189</ele>
        <time>2024-07-31T08:39:50.804Z</time>
      </trkpt>
      <trkpt lat="54.45424" lon="16.48736">
        <ele>47.549209</ele>
        <time>2024-07-31T08:39:53.814Z</time>
      </trkpt>
      <trkpt lat="54.45431" lon="16.48752">
        <ele>47.633797</ele>
        <time>2024-07-31T08:39:57.805Z</time>
      </trkpt>
      <trkpt lat="54.45437" lon="16.48766">
        <ele>47.710275</ele>
        <time>2024-07-31T08:40:01.817Z</time>
      </trkpt>
      <trkpt lat="54.45443" lon="16.4878">
        <ele>47.7842</ele>
        <time>2024-07-31T08:40:06.802Z</time>
      </trkpt>
      <trkpt lat="54.45448" lon="16.48793">
        <ele>47.912412</ele>
        <time>2024-07-31T08:40:10.797Z</time>
      </trkpt>
      <trkpt lat="54.45455" lon="16.48808">
        <ele>48.177046</ele>
        <time>2024-07-31T08:40:15.799Z</time>
      </trkpt>
      <trkpt lat="54.4546" lon="16.4882">
        <ele>48.398479</ele>
        <time>2024-07-31T08:40:19.822Z</time>
      </trkpt>
      <trkpt lat="54.45467" lon="16.48835">
        <ele>48.667676</ele>
        <time>2024-07-31T08:40:25.802Z</time>
      </trkpt>
      <trkpt lat="54.45474" lon="16.48849">
        <ele>48.926074</ele>
        <time>2024-07-31T08:40:29.798Z</time>
      </trkpt>
      <trkpt lat="54.4548" lon="16.48865">
        <ele>49.208447</ele>
        <time>2024-07-31T08:40:33.810Z</time>
      </trkpt>
      <trkpt lat="54.45485" lon="16.48881">
        <ele>49.455243</ele>
        <time>2024-07-31T08:40:37.814Z</time>
      </trkpt>
      <trkpt lat="54.45491" lon="16.48898">
        <ele>49.741073</ele>
        <time>2024-07-31T08:40:41.826Z</time>
      </trkpt>
      <trkpt lat="54.45496" lon="16.48913">
        <ele>49.982857</ele>
        <time>2024-07-31T08:40:44.805Z</time>
      </trkpt>
      <trkpt lat="54.455" lon="16.48928">
        <ele>50.225809</ele>
        <time>2024-07-31T08:40:47.799Z</time>
      </trkpt>
      <trkpt lat="54.45505" lon="16.48946">
        <ele>50.49703</ele>
        <time>2024-07-31T08:40:50.813Z</time>
      </trkpt>
      <trkpt lat="54.4551" lon="16.48964">
        <ele>50.785861</ele>
        <time>2024-07-31T08:40:53.814Z</time>
      </trkpt>
      <trkpt lat="54.45516" lon="16.48983">
        <ele>51.083401</ele>
        <time>2024-07-31T08:40:56.798Z</time>
      </trkpt>
      <trkpt lat="54.45521" lon="16.49002">
        <ele>51.388094</ele>
        <time>2024-07-31T08:40:59.794Z</time>
      </trkpt>
      <trkpt lat="54.45526" lon="16.49023">
        <ele>51.707735</ele>
        <time>2024-07-31T08:41:02.803Z</time>
      </trkpt>
      <trkpt lat="54.45531" lon="16.49044">
        <ele>52.030553</ele>
        <time>2024-07-31T08:41:05.800Z</time>
      </trkpt>
      <trkpt lat="54.45534" lon="16.49059">
        <ele>52.24108</ele>
        <time>2024-07-31T08:41:07.815Z</time>
      </trkpt>
      <trkpt lat="54.4554" lon="16.49079">
        <ele>52.452714</ele>
        <time>2024-07-31T08:41:10.809Z</time>
      </trkpt>
      <trkpt lat="54.45544" lon="16.49094">
        <ele>52.602473</ele>
        <time>2024-07-31T08:41:12.826Z</time>
      </trkpt>
      <trkpt lat="54.45548" lon="16.49109">
        <ele>52.757353</ele>
        <time>2024-07-31T08:41:14.817Z</time>
      </trkpt>
      <trkpt lat="54.45552" lon="16.49124">
        <ele>52.912234</ele>
        <time>2024-07-31T08:41:16.802Z</time>
      </trkpt>
      <trkpt lat="54.45555" lon="16.49139">
        <ele>53.065607</ele>
        <time>2024-07-31T08:41:18.815Z</time>
      </trkpt>
      <trkpt lat="54.45559" lon="16.49153">
        <ele>53.216216</ele>
        <time>2024-07-31T08:41:20.816Z</time>
      </trkpt>
      <trkpt lat="54.45563" lon="16.49168">
        <ele>53.370737</ele>
        <time>2024-07-31T08:41:22.802Z</time>
      </trkpt>
      <trkpt lat="54.45567" lon="16.49183">
        <ele>53.524761</ele>
        <time>2024-07-31T08:41:24.823Z</time>
      </trkpt>
      <trkpt lat="54.45572" lon="16.49198">
        <ele>53.677339</ele>
        <time>2024-07-31T08:41:26.808Z</time>
      </trkpt>
      <trkpt lat="54.45575" lon="16.49214">
        <ele>53.839101</ele>
        <time>2024-07-31T08:41:28.812Z</time>
      </trkpt>
      <trkpt lat="54.45579" lon="16.49229">
        <ele>53.995695</ele>
        <time>2024-07-31T08:41:30.782Z</time>
      </trkpt>
      <trkpt lat="54.45583" lon="16.49244">
        <ele>54.15229</ele>
        <time>2024-07-31T08:41:32.807Z</time>
      </trkpt>
      <trkpt lat="54.45587" lon="16.4926">
        <ele>54.310207</ele>
        <time>2024-07-31T08:41:34.804Z</time>
      </trkpt>
      <trkpt lat="54.45591" lon="16.49275">
        <ele>54.467267</ele>
        <time>2024-07-31T08:41:36.812Z</time>
      </trkpt>
      <trkpt lat="54.45595" lon="16.49291">
        <ele>54.624083</ele>
        <time>2024-07-31T08:41:38.817Z</time>
      </trkpt>
      <trkpt lat="54.45599" lon="16.49306">
        <ele>54.786268</ele>
        <time>2024-07-31T08:41:40.839Z</time>
      </trkpt>
      <trkpt lat="54.45603" lon="16.49322">
        <ele>54.944581</ele>
        <time>2024-07-31T08:41:42.809Z</time>
      </trkpt>
      <trkpt lat="54.45607" lon="16.49337">
        <ele>55.100317</ele>
        <time>2024-07-31T08:41:44.790Z</time>
      </trkpt>
      <trkpt lat="54.45611" lon="16.49352">
        <ele>55.126466</ele>
        <time>2024-07-31T08:41:46.805Z</time>
      </trkpt>
      <trkpt lat="54.45615" lon="16.49368">
        <ele>55.14039</ele>
        <time>2024-07-31T08:41:48.819Z</time>
      </trkpt>
      <trkpt lat="54.45619" lon="16.49384">
        <ele>55.154987</ele>
        <time>2024-07-31T08:41:50.819Z</time>
      </trkpt>
      <trkpt lat="54.45623" lon="16.494">
        <ele>55.168819</ele>
        <time>2024-07-31T08:41:52.790Z</time>
      </trkpt>
      <trkpt lat="54.45627" lon="16.49416">
        <ele>55.182633</ele>
        <time>2024-07-31T08:41:54.802Z</time>
      </trkpt>
      <trkpt lat="54.45631" lon="16.49431">
        <ele>55.196539</ele>
        <time>2024-07-31T08:41:56.804Z</time>
      </trkpt>
      <trkpt lat="54.45635" lon="16.49447">
        <ele>55.210462</ele>
        <time>2024-07-31T08:41:58.797Z</time>
      </trkpt>
      <trkpt lat="54.45639" lon="16.49463">
        <ele>55.2245</ele>
        <time>2024-07-31T08:42:00.806Z</time>
      </trkpt>
      <trkpt lat="54.45643" lon="16.49479">
        <ele>55.238759</ele>
        <time>2024-07-31T08:42:02.799Z</time>
      </trkpt>
      <trkpt lat="54.45647" lon="16.49495">
        <ele>55.252846</ele>
        <time>2024-07-31T08:42:04.799Z</time>
      </trkpt>
      <trkpt lat="54.45652" lon="16.49511">
        <ele>55.267199</ele>
        <time>2024-07-31T08:42:06.806Z</time>
      </trkpt>
      <trkpt lat="54.45655" lon="16.49527">
        <ele>55.281292</ele>
        <time>2024-07-31T08:42:08.837Z</time>
      </trkpt>
      <trkpt lat="54.4566" lon="16.49543">
        <ele>55.296022</ele>
        <time>2024-07-31T08:42:10.802Z</time>
      </trkpt>
      <trkpt lat="54.45664" lon="16.49559">
        <ele>55.310414</ele>
        <time>2024-07-31T08:42:12.805Z</time>
      </trkpt>
      <trkpt lat="54.45668" lon="16.49575">
        <ele>55.324437</ele>
        <time>2024-07-31T08:42:14.814Z</time>
      </trkpt>
      <trkpt lat="54.45673" lon="16.49591">
        <ele>55.338667</ele>
        <time>2024-07-31T08:42:16.809Z</time>
      </trkpt>
      <trkpt lat="54.45677" lon="16.49607">
        <ele>55.353446</ele>
        <time>2024-07-31T08:42:18.811Z</time>
      </trkpt>
      <trkpt lat="54.45682" lon="16.49624">
        <ele>55.351461</ele>
        <time>2024-07-31T08:42:20.799Z</time>
      </trkpt>
      <trkpt lat="54.45686" lon="16.4964">
        <ele>55.284558</ele>
        <time>2024-07-31T08:42:22.770Z</time>
      </trkpt>
      <trkpt lat="54.45691" lon="16.49657">
        <ele>55.214717</ele>
        <time>2024-07-31T08:42:24.800Z</time>
      </trkpt>
      <trkpt lat="54.45696" lon="16.49675">
        <ele>55.144751</ele>
        <time>2024-07-31T08:42:26.793Z</time>
      </trkpt>
      <trkpt lat="54.457" lon="16.49692">
        <ele>55.074712</ele>
        <time>2024-07-31T08:42:28.781Z</time>
      </trkpt>
      <trkpt lat="54.45705" lon="16.49709">
        <ele>55.006087</ele>
        <time>2024-07-31T08:42:30.797Z</time>
      </trkpt>
      <trkpt lat="54.45709" lon="16.49726">
        <ele>54.936597</ele>
        <time>2024-07-31T08:42:32.823Z</time>
      </trkpt>
      <trkpt lat="54.45712" lon="16.49744">
        <ele>54.86687</ele>
        <time>2024-07-31T08:42:34.804Z</time>
      </trkpt>
      <trkpt lat="54.45717" lon="16.49761">
        <ele>54.797929</ele>
        <time>2024-07-31T08:42:36.814Z</time>
      </trkpt>
      <trkpt lat="54.45721" lon="16.49778">
        <ele>54.728988</ele>
        <time>2024-07-31T08:42:38.830Z</time>
      </trkpt>
      <trkpt lat="54.45725" lon="16.49796">
        <ele>54.658577</ele>
        <time>2024-07-31T08:42:40.799Z</time>
      </trkpt>
      <trkpt lat="54.45729" lon="16.49814">
        <ele>54.587778</ele>
        <time>2024-07-31T08:42:42.806Z</time>
      </trkpt>
      <trkpt lat="54.45734" lon="16.49831">
        <ele>54.515267</ele>
        <time>2024-07-31T08:42:44.810Z</time>
      </trkpt>
      <trkpt lat="54.45739" lon="16.49849">
        <ele>54.441879</ele>
        <time>2024-07-31T08:42:46.813Z</time>
      </trkpt>
      <trkpt lat="54.45743" lon="16.49868">
        <ele>54.367221</ele>
        <time>2024-07-31T08:42:48.844Z</time>
      </trkpt>
      <trkpt lat="54.45748" lon="16.49887">
        <ele>54.289733</ele>
        <time>2024-07-31T08:42:50.822Z</time>
      </trkpt>
      <trkpt lat="54.45753" lon="16.49907">
        <ele>54.206398</ele>
        <time>2024-07-31T08:42:52.800Z</time>
      </trkpt>
      <trkpt lat="54.45758" lon="16.49926">
        <ele>54.087309</ele>
        <time>2024-07-31T08:42:54.804Z</time>
      </trkpt>
      <trkpt lat="54.45762" lon="16.49945">
        <ele>53.968969</ele>
        <time>2024-07-31T08:42:56.787Z</time>
      </trkpt>
      <trkpt lat="54.45768" lon="16.49964">
        <ele>53.846528</ele>
        <time>2024-07-31T08:42:58.811Z</time>
      </trkpt>
      <trkpt lat="54.45773" lon="16.49984">
        <ele>53.722958</ele>
        <time>2024-07-31T08:43:00.819Z</time>
      </trkpt>
      <trkpt lat="54.45778" lon="16.50004">
        <ele>53.600079</ele>
        <time>2024-07-31T08:43:02.802Z</time>
      </trkpt>
      <trkpt lat="54.45783" lon="16.50024">
        <ele>53.475627</ele>
        <time>2024-07-31T08:43:04.802Z</time>
      </trkpt>
      <trkpt lat="54.45789" lon="16.50044">
        <ele>53.34957</ele>
        <time>2024-07-31T08:43:06.811Z</time>
      </trkpt>
      <trkpt lat="54.45794" lon="16.50064">
        <ele>53.222882</ele>
        <time>2024-07-31T08:43:08.802Z</time>
      </trkpt>
      <trkpt lat="54.458" lon="16.50084">
        <ele>53.096579</ele>
        <time>2024-07-31T08:43:10.793Z</time>
      </trkpt>
      <trkpt lat="54.45805" lon="16.50104">
        <ele>52.970933</ele>
        <time>2024-07-31T08:43:12.802Z</time>
      </trkpt>
      <trkpt lat="54.4581" lon="16.50123">
        <ele>52.847394</ele>
        <time>2024-07-31T08:43:14.811Z</time>
      </trkpt>
      <trkpt lat="54.45815" lon="16.50143">
        <ele>52.724236</ele>
        <time>2024-07-31T08:43:16.798Z</time>
      </trkpt>
      <trkpt lat="54.4582" lon="16.50163">
        <ele>52.596904</ele>
        <time>2024-07-31T08:43:18.818Z</time>
      </trkpt>
      <trkpt lat="54.45825" lon="16.50184">
        <ele>52.47035</ele>
        <time>2024-07-31T08:43:20.797Z</time>
      </trkpt>
      <trkpt lat="54.45831" lon="16.50203">
        <ele>52.425746</ele>
        <time>2024-07-31T08:43:22.809Z</time>
      </trkpt>
      <trkpt lat="54.45835" lon="16.50224">
        <ele>52.393285</ele>
        <time>2024-07-31T08:43:24.813Z</time>
      </trkpt>
      <trkpt lat="54.4584" lon="16.50245">
        <ele>52.360681</ele>
        <time>2024-07-31T08:43:26.781Z</time>
      </trkpt>
      <trkpt lat="54.45845" lon="16.50265">
        <ele>52.327682</ele>
        <time>2024-07-31T08:43:28.831Z</time>
      </trkpt>
      <trkpt lat="54.45851" lon="16.50286">
        <ele>52.294247</ele>
        <time>2024-07-31T08:43:30.801Z</time>
      </trkpt>
      <trkpt lat="54.45856" lon="16.50307">
        <ele>52.260811</ele>
        <time>2024-07-31T08:43:32.798Z</time>
      </trkpt>
      <trkpt lat="54.45861" lon="16.50328">
        <ele>52.228749</ele>
        <time>2024-07-31T08:43:34.802Z</time>
      </trkpt>
      <trkpt lat="54.45865" lon="16.50348">
        <ele>52.196469</ele>
        <time>2024-07-31T08:43:36.785Z</time>
      </trkpt>
      <trkpt lat="54.4587" lon="16.50368">
        <ele>52.165235</ele>
        <time>2024-07-31T08:43:38.812Z</time>
      </trkpt>
      <trkpt lat="54.45875" lon="16.50388">
        <ele>52.13354</ele>
        <time>2024-07-31T08:43:40.800Z</time>
      </trkpt>
      <trkpt lat="54.45879" lon="16.50408">
        <ele>52.102536</ele>
        <time>2024-07-31T08:43:42.803Z</time>
      </trkpt>
      <trkpt lat="54.45884" lon="16.50427">
        <ele>52.071574</ele>
        <time>2024-07-31T08:43:44.807Z</time>
      </trkpt>
      <trkpt lat="54.45889" lon="16.50446">
        <ele>52.041328</ele>
        <time>2024-07-31T08:43:46.806Z</time>
      </trkpt>
      <trkpt lat="54.45893" lon="16.50465">
        <ele>52.010982</ele>
        <time>2024-07-31T08:43:48.824Z</time>
      </trkpt>
      <trkpt lat="54.45898" lon="16.50483">
        <ele>52.017402</ele>
        <time>2024-07-31T08:43:50.804Z</time>
      </trkpt>
      <trkpt lat="54.45904" lon="16.50501">
        <ele>52.045787</ele>
        <time>2024-07-31T08:43:52.811Z</time>
      </trkpt>
      <trkpt lat="54.45908" lon="16.5052">
        <ele>52.074403</ele>
        <time>2024-07-31T08:43:54.825Z</time>
      </trkpt>
      <trkpt lat="54.45913" lon="16.50539">
        <ele>52.102729</ele>
        <time>2024-07-31T08:43:56.800Z</time>
      </trkpt>
      <trkpt lat="54.45917" lon="16.50557">
        <ele>52.130259</ele>
        <time>2024-07-31T08:43:58.815Z</time>
      </trkpt>
      <trkpt lat="54.45922" lon="16.50575">
        <ele>52.158361</ele>
        <time>2024-07-31T08:44:00.807Z</time>
      </trkpt>
      <trkpt lat="54.45926" lon="16.50594">
        <ele>52.186205</ele>
        <time>2024-07-31T08:44:02.807Z</time>
      </trkpt>
      <trkpt lat="54.45931" lon="16.50611">
        <ele>52.212796</ele>
        <time>2024-07-31T08:44:04.800Z</time>
      </trkpt>
      <trkpt lat="54.45935" lon="16.50628">
        <ele>52.238489</ele>
        <time>2024-07-31T08:44:06.803Z</time>
      </trkpt>
      <trkpt lat="54.45939" lon="16.50644">
        <ele>52.262992</ele>
        <time>2024-07-31T08:44:08.819Z</time>
      </trkpt>
      <trkpt lat="54.45944" lon="16.50659">
        <ele>52.287312</ele>
        <time>2024-07-31T08:44:10.798Z</time>
      </trkpt>
      <trkpt lat="54.45948" lon="16.50674">
        <ele>52.310123</ele>
        <time>2024-07-31T08:44:12.800Z</time>
      </trkpt>
      <trkpt lat="54.45958" lon="16.50687">
        <ele>52.340919</ele>
        <time>2024-07-31T08:44:15.804Z</time>
      </trkpt>
      <trkpt lat="54.45969" lon="16.50682">
        <ele>52.368444</ele>
        <time>2024-07-31T08:44:18.816Z</time>
      </trkpt>
      <trkpt lat="54.45977" lon="16.50673">
        <ele>52.392355</ele>
        <time>2024-07-31T08:44:21.804Z</time>
      </trkpt>
      <trkpt lat="54.45983" lon="16.50659">
        <ele>52.41551</ele>
        <time>2024-07-31T08:44:24.803Z</time>
      </trkpt>
      <trkpt lat="54.4599" lon="16.50647">
        <ele>52.556788</ele>
        <time>2024-07-31T08:44:28.814Z</time>
      </trkpt>
      <trkpt lat="54.45999" lon="16.50637">
        <ele>53.033748</ele>
        <time>2024-07-31T08:44:32.792Z</time>
      </trkpt>
      <trkpt lat="54.46008" lon="16.50629">
        <ele>53.494302</ele>
        <time>2024-07-31T08:44:36.800Z</time>
      </trkpt>
      <trkpt lat="54.46017" lon="16.50626">
        <ele>53.94934</ele>
        <time>2024-07-31T08:44:40.806Z</time>
      </trkpt>
      <trkpt lat="54.46026" lon="16.50622">
        <ele>54.375069</ele>
        <time>2024-07-31T08:44:44.786Z</time>
      </trkpt>
      <trkpt lat="54.46036" lon="16.50618">
        <ele>54.82664</ele>
        <time>2024-07-31T08:44:48.807Z</time>
      </trkpt>
      <trkpt lat="54.46045" lon="16.50614">
        <ele>55.285217</ele>
        <time>2024-07-31T08:44:52.800Z</time>
      </trkpt>
      <trkpt lat="54.46055" lon="16.50609">
        <ele>55.754563</ele>
        <time>2024-07-31T08:44:56.800Z</time>
      </trkpt>
      <trkpt lat="54.46064" lon="16.50604">
        <ele>56.207732</ele>
        <time>2024-07-31T08:45:00.810Z</time>
      </trkpt>
      <trkpt lat="54.46073" lon="16.50599">
        <ele>56.652062</ele>
        <time>2024-07-31T08:45:04.808Z</time>
      </trkpt>
      <trkpt lat="54.46083" lon="16.50595">
        <ele>57.100355</ele>
        <time>2024-07-31T08:45:08.836Z</time>
      </trkpt>
      <trkpt lat="54.46092" lon="16.5059">
        <ele>57.546686</ele>
        <time>2024-07-31T08:45:12.810Z</time>
      </trkpt>
      <trkpt lat="54.46101" lon="16.50585">
        <ele>57.995433</ele>
        <time>2024-07-31T08:45:16.819Z</time>
      </trkpt>
      <trkpt lat="54.46111" lon="16.5058">
        <ele>58.490894</ele>
        <time>2024-07-31T08:45:21.811Z</time>
      </trkpt>
      <trkpt lat="54.4612" lon="16.50575">
        <ele>58.932797</ele>
        <time>2024-07-31T08:45:25.806Z</time>
      </trkpt>
      <trkpt lat="54.4613" lon="16.50571">
        <ele>59.3747</ele>
        <time>2024-07-31T08:45:29.791Z</time>
      </trkpt>
      <trkpt lat="54.46139" lon="16.50567">
        <ele>59.832885</ele>
        <time>2024-07-31T08:45:33.802Z</time>
      </trkpt>
      <trkpt lat="54.46148" lon="16.50561">
        <ele>60.269432</ele>
        <time>2024-07-31T08:45:37.803Z</time>
      </trkpt>
      <trkpt lat="54.46158" lon="16.50556">
        <ele>60.732819</ele>
        <time>2024-07-31T08:45:41.806Z</time>
      </trkpt>
      <trkpt lat="54.46167" lon="16.50552">
        <ele>61.340348</ele>
        <time>2024-07-31T08:45:45.814Z</time>
      </trkpt>
      <trkpt lat="54.46176" lon="16.50547">
        <ele>61.987286</ele>
        <time>2024-07-31T08:45:49.804Z</time>
      </trkpt>
      <trkpt lat="54.46186" lon="16.50541">
        <ele>62.643865</ele>
        <time>2024-07-31T08:45:53.807Z</time>
      </trkpt>
      <trkpt lat="54.46196" lon="16.50537">
        <ele>63.306716</ele>
        <time>2024-07-31T08:45:57.793Z</time>
      </trkpt>
      <trkpt lat="54.46207" lon="16.50531">
        <ele>64.043132</ele>
        <time>2024-07-31T08:46:02.808Z</time>
      </trkpt>
      <trkpt lat="54.46216" lon="16.50527">
        <ele>64.663655</ele>
        <time>2024-07-31T08:46:06.799Z</time>
      </trkpt>
      <trkpt lat="54.46225" lon="16.50522">
        <ele>65.279639</ele>
        <time>2024-07-31T08:46:10.812Z</time>
      </trkpt>
      <trkpt lat="54.46234" lon="16.50518">
        <ele>65.908226</ele>
        <time>2024-07-31T08:46:14.798Z</time>
      </trkpt>
      <trkpt lat="54.46243" lon="16.50514">
        <ele>66.522416</ele>
        <time>2024-07-31T08:46:18.826Z</time>
      </trkpt>
      <trkpt lat="54.46253" lon="16.50509">
        <ele>67.162944</ele>
        <time>2024-07-31T08:46:22.804Z</time>
      </trkpt>
      <trkpt lat="54.46262" lon="16.50504">
        <ele>67.790967</ele>
        <time>2024-07-31T08:46:26.789Z</time>
      </trkpt>
      <trkpt lat="54.46273" lon="16.50498">
        <ele>68.527382</ele>
        <time>2024-07-31T08:46:31.816Z</time>
      </trkpt>
      <trkpt lat="54.46282" lon="16.50493">
        <ele>69.153401</ele>
        <time>2024-07-31T08:46:35.800Z</time>
      </trkpt>
      <trkpt lat="54.46291" lon="16.50488">
        <ele>69.791902</ele>
        <time>2024-07-31T08:46:39.809Z</time>
      </trkpt>
      <trkpt lat="54.46301" lon="16.50484">
        <ele>70.417972</ele>
        <time>2024-07-31T08:46:43.797Z</time>
      </trkpt>
      <trkpt lat="54.46311" lon="16.50477">
        <ele>71.138412</ele>
        <time>2024-07-31T08:46:48.813Z</time>
      </trkpt>
      <trkpt lat="54.4632" lon="16.50473">
        <ele>71.73521</ele>
        <time>2024-07-31T08:46:52.807Z</time>
      </trkpt>
      <trkpt lat="54.46329" lon="16.50469">
        <ele>72.366549</ele>
        <time>2024-07-31T08:46:56.794Z</time>
      </trkpt>
      <trkpt lat="54.46339" lon="16.50464">
        <ele>72.980109</ele>
        <time>2024-07-31T08:47:00.801Z</time>
      </trkpt>
      <trkpt lat="54.46348" lon="16.5046">
        <ele>73.547821</ele>
        <time>2024-07-31T08:47:04.809Z</time>
      </trkpt>
      <trkpt lat="54.46357" lon="16.50454">
        <ele>74.143046</ele>
        <time>2024-07-31T08:47:08.822Z</time>
      </trkpt>
      <trkpt lat="54.46366" lon="16.50451">
        <ele>74.72139</ele>
        <time>2024-07-31T08:47:12.815Z</time>
      </trkpt>
      <trkpt lat="54.46376" lon="16.50447">
        <ele>75.295019</ele>
        <time>2024-07-31T08:47:16.821Z</time>
      </trkpt>
      <trkpt lat="54.46385" lon="16.50443">
        <ele>75.901665</ele>
        <time>2024-07-31T08:47:20.788Z</time>
      </trkpt>
      <trkpt lat="54.46394" lon="16.50439">
        <ele>76.482094</ele>
        <time>2024-07-31T08:47:24.803Z</time>
      </trkpt>
      <trkpt lat="54.46404" lon="16.50435">
        <ele>77.100638</ele>
        <time>2024-07-31T08:47:28.800Z</time>
      </trkpt>
      <trkpt lat="54.46414" lon="16.50432">
        <ele>77.71323</ele>
        <time>2024-07-31T08:47:33.803Z</time>
      </trkpt>
      <trkpt lat="54.46423" lon="16.50429">
        <ele>78.275178</ele>
        <time>2024-07-31T08:50:24.796Z</time>
      </trkpt>
      <trkpt lat="54.46432" lon="16.50426">
        <ele>78.836323</ele>
        <time>2024-07-31T08:50:29.804Z</time>
      </trkpt>
      <trkpt lat="54.46442" lon="16.50421">
        <ele>79.44804</ele>
        <time>2024-07-31T08:50:34.793Z</time>
      </trkpt>
      <trkpt lat="54.46453" lon="16.50417">
        <ele>80.139195</ele>
        <time>2024-07-31T08:50:39.828Z</time>
      </trkpt>
      <trkpt lat="54.46462" lon="16.50412">
        <ele>80.71072</ele>
        <time>2024-07-31T08:50:43.808Z</time>
      </trkpt>
      <trkpt lat="54.46472" lon="16.50408">
        <ele>81.320669</ele>
        <time>2024-07-31T08:50:47.807Z</time>
      </trkpt>
      <trkpt lat="54.46481" lon="16.50405">
        <ele>81.91835</ele>
        <time>2024-07-31T08:50:51.796Z</time>
      </trkpt>
      <trkpt lat="54.4649" lon="16.504">
        <ele>82.481116</ele>
        <time>2024-07-31T08:50:55.791Z</time>
      </trkpt>
      <trkpt lat="54.465" lon="16.50397">
        <ele>83.117526</ele>
        <time>2024-07-31T08:50:59.794Z</time>
      </trkpt>
      <trkpt lat="54.4651" lon="16.50394">
        <ele>83.529927</ele>
        <time>2024-07-31T08:51:03.789Z</time>
      </trkpt>
      <trkpt lat="54.46519" lon="16.50393">
        <ele>83.706795</ele>
        <time>2024-07-31T08:51:07.794Z</time>
      </trkpt>
      <trkpt lat="54.46529" lon="16.50393">
        <ele>83.890639</ele>
        <time>2024-07-31T08:51:11.797Z</time>
      </trkpt>
      <trkpt lat="54.46538" lon="16.50397">
        <ele>84.078754</ele>
        <time>2024-07-31T08:51:15.797Z</time>
      </trkpt>
      <trkpt lat="54.46547" lon="16.50403">
        <ele>84.260023</ele>
        <time>2024-07-31T08:51:19.782Z</time>
      </trkpt>
      <trkpt lat="54.46556" lon="16.50413">
        <ele>84.463581</ele>
        <time>2024-07-31T08:51:23.778Z</time>
      </trkpt>
      <trkpt lat="54.46563" lon="16.50426">
        <ele>84.666691</ele>
        <time>2024-07-31T08:51:27.788Z</time>
      </trkpt>
      <trkpt lat="54.46571" lon="16.5044">
        <ele>84.885207</ele>
        <time>2024-07-31T08:51:31.790Z</time>
      </trkpt>
      <trkpt lat="54.4658" lon="16.50455">
        <ele>85.110139</ele>
        <time>2024-07-31T08:51:35.784Z</time>
      </trkpt>
      <trkpt lat="54.46586" lon="16.50467">
        <ele>85.288841</ele>
        <time>2024-07-31T08:51:38.784Z</time>
      </trkpt>
      <trkpt lat="54.46593" lon="16.50481">
        <ele>85.499415</ele>
        <time>2024-07-31T08:51:42.798Z</time>
      </trkpt>
      <trkpt lat="54.466" lon="16.50496">
        <ele>85.721332</ele>
        <time>2024-07-31T08:51:46.803Z</time>
      </trkpt>
      <trkpt lat="54.46606" lon="16.50508">
        <ele>85.895831</ele>
        <time>2024-07-31T08:51:49.795Z</time>
      </trkpt>
      <trkpt lat="54.46614" lon="16.50523">
        <ele>86.121509</ele>
        <time>2024-07-31T08:51:53.794Z</time>
      </trkpt>
      <trkpt lat="54.46621" lon="16.50538">
        <ele>86.339415</ele>
        <time>2024-07-31T08:51:57.787Z</time>
      </trkpt>
      <trkpt lat="54.46627" lon="16.5055">
        <ele>86.512244</ele>
        <time>2024-07-31T08:52:00.789Z</time>
      </trkpt>
      <trkpt lat="54.46634" lon="16.50561">
        <ele>86.685476</ele>
        <time>2024-07-31T08:52:03.795Z</time>
      </trkpt>
      <trkpt lat="54.46642" lon="16.50574">
        <ele>86.890787</ele>
        <time>2024-07-31T08:52:07.819Z</time>
      </trkpt>
      <trkpt lat="54.46651" lon="16.50587">
        <ele>86.912306</ele>
        <time>2024-07-31T08:52:11.785Z</time>
      </trkpt>
      <trkpt lat="54.46661" lon="16.50599">
        <ele>86.935738</ele>
        <time>2024-07-31T08:52:15.794Z</time>
      </trkpt>
      <trkpt lat="54.4667" lon="16.50608">
        <ele>86.955316</ele>
        <time>2024-07-31T08:52:18.796Z</time>
      </trkpt>
      <trkpt lat="54.46679" lon="16.50617">
        <ele>86.976056</ele>
        <time>2024-07-31T08:52:21.806Z</time>
      </trkpt>
      <trkpt lat="54.4669" lon="16.50627">
        <ele>86.998775</ele>
        <time>2024-07-31T08:52:24.796Z</time>
      </trkpt>
      <trkpt lat="54.46701" lon="16.50637">
        <ele>87.023035</ele>
        <time>2024-07-31T08:52:27.801Z</time>
      </trkpt>
      <trkpt lat="54.46714" lon="16.50646">
        <ele>87.049506</ele>
        <time>2024-07-31T08:52:30.783Z</time>
      </trkpt>
      <trkpt lat="54.46723" lon="16.50652">
        <ele>87.068256</ele>
        <time>2024-07-31T08:52:32.792Z</time>
      </trkpt>
      <trkpt lat="54.46732" lon="16.50659">
        <ele>87.086787</ele>
        <time>2024-07-31T08:52:34.790Z</time>
      </trkpt>
      <trkpt lat="54.4674" lon="16.50667">
        <ele>87.105461</ele>
        <time>2024-07-31T08:52:36.790Z</time>
      </trkpt>
      <trkpt lat="54.46749" lon="16.50675">
        <ele>87.124944</ele>
        <time>2024-07-31T08:52:38.815Z</time>
      </trkpt>
      <trkpt lat="54.46758" lon="16.50682">
        <ele>87.144011</ele>
        <time>2024-07-31T08:52:40.796Z</time>
      </trkpt>
      <trkpt lat="54.46768" lon="16.50689">
        <ele>87.163944</ele>
        <time>2024-07-31T08:52:42.813Z</time>
      </trkpt>
      <trkpt lat="54.46777" lon="16.50696">
        <ele>87.183435</ele>
        <time>2024-07-31T08:52:44.788Z</time>
      </trkpt>
      <trkpt lat="54.46786" lon="16.50704">
        <ele>87.202868</ele>
        <time>2024-07-31T08:52:46.797Z</time>
      </trkpt>
      <trkpt lat="54.46796" lon="16.50712">
        <ele>87.222644</ele>
        <time>2024-07-31T08:52:48.810Z</time>
      </trkpt>
      <trkpt lat="54.46805" lon="16.50719">
        <ele>87.148421</ele>
        <time>2024-07-31T08:52:50.794Z</time>
      </trkpt>
      <trkpt lat="54.46815" lon="16.50727">
        <ele>86.976707</ele>
        <time>2024-07-31T08:52:52.793Z</time>
      </trkpt>
      <trkpt lat="54.46824" lon="16.50734">
        <ele>86.803078</ele>
        <time>2024-07-31T08:52:54.804Z</time>
      </trkpt>
      <trkpt lat="54.46834" lon="16.50742">
        <ele>86.625898</ele>
        <time>2024-07-31T08:52:56.793Z</time>
      </trkpt>
      <trkpt lat="54.46843" lon="16.50748">
        <ele>86.464917</ele>
        <time>2024-07-31T08:52:58.794Z</time>
      </trkpt>
      <trkpt lat="54.46852" lon="16.50755">
        <ele>86.303502</ele>
        <time>2024-07-31T08:53:00.795Z</time>
      </trkpt>
      <trkpt lat="54.46861" lon="16.5076">
        <ele>86.141654</ele>
        <time>2024-07-31T08:53:02.800Z</time>
      </trkpt>
      <trkpt lat="54.4687" lon="16.50765">
        <ele>85.975202</ele>
        <time>2024-07-31T08:53:04.801Z</time>
      </trkpt>
      <trkpt lat="54.4688" lon="16.50768">
        <ele>85.808148</ele>
        <time>2024-07-31T08:53:06.793Z</time>
      </trkpt>
      <trkpt lat="54.4689" lon="16.50773">
        <ele>85.636759</ele>
        <time>2024-07-31T08:53:08.807Z</time>
      </trkpt>
      <trkpt lat="54.469" lon="16.50775">
        <ele>85.466424</ele>
        <time>2024-07-31T08:53:10.799Z</time>
      </trkpt>
      <trkpt lat="54.4691" lon="16.50778">
        <ele>85.301324</ele>
        <time>2024-07-31T08:53:12.803Z</time>
      </trkpt>
      <trkpt lat="54.46921" lon="16.50778">
        <ele>85.1215</ele>
        <time>2024-07-31T08:53:14.770Z</time>
      </trkpt>
      <trkpt lat="54.46932" lon="16.50779">
        <ele>84.941613</ele>
        <time>2024-07-31T08:53:16.800Z</time>
      </trkpt>
      <trkpt lat="54.46943" lon="16.50778">
        <ele>84.750115</ele>
        <time>2024-07-31T08:53:18.802Z</time>
      </trkpt>
      <trkpt lat="54.46955" lon="16.5078">
        <ele>84.561409</ele>
        <time>2024-07-31T08:53:20.811Z</time>
      </trkpt>
      <trkpt lat="54.46965" lon="16.50781">
        <ele>84.381148</ele>
        <time>2024-07-31T08:53:22.803Z</time>
      </trkpt>
      <trkpt lat="54.46976" lon="16.50782">
        <ele>84.226718</ele>
        <time>2024-07-31T08:53:24.793Z</time>
      </trkpt>
      <trkpt lat="54.46987" lon="16.50783">
        <ele>84.159414</ele>
        <time>2024-07-31T08:53:26.786Z</time>
      </trkpt>
      <trkpt lat="54.46997" lon="16.50783">
        <ele>84.092099</ele>
        <time>2024-07-31T08:53:28.800Z</time>
      </trkpt>
      <trkpt lat="54.47008" lon="16.50784">
        <ele>84.027884</ele>
        <time>2024-07-31T08:53:30.772Z</time>
      </trkpt>
      <trkpt lat="54.47018" lon="16.50785">
        <ele>83.966158</ele>
        <time>2024-07-31T08:53:32.796Z</time>
      </trkpt>
      <trkpt lat="54.47027" lon="16.50785">
        <ele>83.904484</ele>
        <time>2024-07-31T08:53:34.796Z</time>
      </trkpt>
      <trkpt lat="54.47037" lon="16.50786">
        <ele>83.846476</ele>
        <time>2024-07-31T08:53:36.796Z</time>
      </trkpt>
      <trkpt lat="54.47046" lon="16.50786">
        <ele>83.786047</ele>
        <time>2024-07-31T08:53:38.811Z</time>
      </trkpt>
      <trkpt lat="54.47056" lon="16.50786">
        <ele>83.726154</ele>
        <time>2024-07-31T08:53:40.795Z</time>
      </trkpt>
      <trkpt lat="54.47065" lon="16.50787">
        <ele>83.669408</ele>
        <time>2024-07-31T08:53:42.792Z</time>
      </trkpt>
      <trkpt lat="54.47078" lon="16.50788">
        <ele>83.590861</ele>
        <time>2024-07-31T08:53:45.778Z</time>
      </trkpt>
      <trkpt lat="54.4709" lon="16.50788">
        <ele>83.514233</ele>
        <time>2024-07-31T08:53:48.846Z</time>
      </trkpt>
      <trkpt lat="54.47103" lon="16.50788">
        <ele>83.43387</ele>
        <time>2024-07-31T08:53:51.782Z</time>
      </trkpt>
      <trkpt lat="54.47115" lon="16.50789">
        <ele>83.357225</ele>
        <time>2024-07-31T08:53:54.786Z</time>
      </trkpt>
      <trkpt lat="54.47128" lon="16.50789">
        <ele>83.27869</ele>
        <time>2024-07-31T08:53:57.793Z</time>
      </trkpt>
      <trkpt lat="54.4714" lon="16.5079">
        <ele>83.203864</ele>
        <time>2024-07-31T08:54:00.800Z</time>
      </trkpt>
      <trkpt lat="54.47151" lon="16.50793">
        <ele>83.132359</ele>
        <time>2024-07-31T08:54:03.794Z</time>
      </trkpt>
      <trkpt lat="54.47162" lon="16.50793">
        <ele>83.157647</ele>
        <time>2024-07-31T08:54:06.765Z</time>
      </trkpt>
      <trkpt lat="54.47173" lon="16.50794">
        <ele>83.209743</ele>
        <time>2024-07-31T08:54:09.789Z</time>
      </trkpt>
      <trkpt lat="54.47185" lon="16.50795">
        <ele>83.263202</ele>
        <time>2024-07-31T08:54:12.798Z</time>
      </trkpt>
      <trkpt lat="54.47196" lon="16.50796">
        <ele>83.316183</ele>
        <time>2024-07-31T08:54:15.808Z</time>
      </trkpt>
      <trkpt lat="54.47207" lon="16.50797">
        <ele>83.367291</ele>
        <time>2024-07-31T08:54:18.802Z</time>
      </trkpt>
      <trkpt lat="54.47217" lon="16.50797">
        <ele>83.414159</ele>
        <time>2024-07-31T08:54:21.794Z</time>
      </trkpt>
      <trkpt lat="54.47227" lon="16.50797">
        <ele>83.461959</ele>
        <time>2024-07-31T08:54:24.795Z</time>
      </trkpt>
      <trkpt lat="54.47237" lon="16.50798">
        <ele>83.508353</ele>
        <time>2024-07-31T08:54:27.796Z</time>
      </trkpt>
      <trkpt lat="54.47248" lon="16.50798">
        <ele>83.559452</ele>
        <time>2024-07-31T08:54:30.795Z</time>
      </trkpt>
      <trkpt lat="54.47259" lon="16.50798">
        <ele>83.61193</ele>
        <time>2024-07-31T08:54:33.812Z</time>
      </trkpt>
      <trkpt lat="54.4727" lon="16.50799">
        <ele>83.664479</ele>
        <time>2024-07-31T08:54:36.793Z</time>
      </trkpt>
      <trkpt lat="54.47282" lon="16.50802">
        <ele>83.718978</ele>
        <time>2024-07-31T08:54:39.791Z</time>
      </trkpt>
      <trkpt lat="54.47292" lon="16.50803">
        <ele>83.768183</ele>
        <time>2024-07-31T08:54:42.799Z</time>
      </trkpt>
      <trkpt lat="54.47303" lon="16.50803">
        <ele>83.820204</ele>
        <time>2024-07-31T08:54:45.796Z</time>
      </trkpt>
      <trkpt lat="54.47313" lon="16.50804">
        <ele>83.867099</ele>
        <time>2024-07-31T08:54:48.811Z</time>
      </trkpt>
      <trkpt lat="54.47324" lon="16.50804">
        <ele>83.9163</ele>
        <time>2024-07-31T08:54:51.798Z</time>
      </trkpt>
      <trkpt lat="54.47335" lon="16.50805">
        <ele>83.967342</ele>
        <time>2024-07-31T08:54:54.789Z</time>
      </trkpt>
      <trkpt lat="54.47346" lon="16.50806">
        <ele>84.021808</ele>
        <time>2024-07-31T08:54:57.809Z</time>
      </trkpt>
      <trkpt lat="54.47358" lon="16.50809">
        <ele>84.079266</ele>
        <time>2024-07-31T08:55:00.802Z</time>
      </trkpt>
      <trkpt lat="54.4737" lon="16.50813">
        <ele>84.143245</ele>
        <time>2024-07-31T08:55:03.795Z</time>
      </trkpt>
      <trkpt lat="54.47382" lon="16.5082">
        <ele>84.202811</ele>
        <time>2024-07-31T08:55:06.771Z</time>
      </trkpt>
      <trkpt lat="54.47392" lon="16.50829">
        <ele>84.256411</ele>
        <time>2024-07-31T08:55:09.799Z</time>
      </trkpt>
      <trkpt lat="54.474" lon="16.5084">
        <ele>84.30816</ele>
        <time>2024-07-31T08:55:12.792Z</time>
      </trkpt>
      <trkpt lat="54.47409" lon="16.5085">
        <ele>84.35989</ele>
        <time>2024-07-31T08:55:15.820Z</time>
      </trkpt>
      <trkpt lat="54.47419" lon="16.50862">
        <ele>84.417397</ele>
        <time>2024-07-31T08:55:18.819Z</time>
      </trkpt>
      <trkpt lat="54.47428" lon="16.50873">
        <ele>84.471716</ele>
        <time>2024-07-31T08:55:21.797Z</time>
      </trkpt>
      <trkpt lat="54.47438" lon="16.50885">
        <ele>84.529131</ele>
        <time>2024-07-31T08:55:24.773Z</time>
      </trkpt>
      <trkpt lat="54.47447" lon="16.50896">
        <ele>84.583583</ele>
        <time>2024-07-31T08:55:27.805Z</time>
      </trkpt>
      <trkpt lat="54.47456" lon="16.50906">
        <ele>84.636435</ele>
        <time>2024-07-31T08:55:30.796Z</time>
      </trkpt>
      <trkpt lat="54.47464" lon="16.50918">
        <ele>84.688687</ele>
        <time>2024-07-31T08:55:33.794Z</time>
      </trkpt>
      <trkpt lat="54.47474" lon="16.50928">
        <ele>84.743567</ele>
        <time>2024-07-31T08:55:36.806Z</time>
      </trkpt>
      <trkpt lat="54.47484" lon="16.50939">
        <ele>84.800906</ele>
        <time>2024-07-31T08:55:39.810Z</time>
      </trkpt>
      <trkpt lat="54.47492" lon="16.50952">
        <ele>84.763868</ele>
        <time>2024-07-31T08:55:42.793Z</time>
      </trkpt>
      <trkpt lat="54.47501" lon="16.50962">
        <ele>84.578328</ele>
        <time>2024-07-31T08:55:45.797Z</time>
      </trkpt>
      <trkpt lat="54.47509" lon="16.50973">
        <ele>84.404608</ele>
        <time>2024-07-31T08:55:48.810Z</time>
      </trkpt>
      <trkpt lat="54.47518" lon="16.50983">
        <ele>84.224853</ele>
        <time>2024-07-31T08:55:51.819Z</time>
      </trkpt>
      <trkpt lat="54.47527" lon="16.50992">
        <ele>84.050612</ele>
        <time>2024-07-31T08:55:54.798Z</time>
      </trkpt>
      <trkpt lat="54.47537" lon="16.50996">
        <ele>83.874723</ele>
        <time>2024-07-31T08:55:58.785Z</time>
      </trkpt>
      <trkpt lat="54.47539" lon="16.50989">
        <ele>83.800635</ele>
        <time>2024-07-31T08:57:24.973Z</time>
      </trkpt>
      <trkpt lat="54.47542" lon="16.51004">
        <ele>83.644184</ele>
        <time>2024-07-31T09:19:04.797Z</time>
      </trkpt>
      <trkpt lat="54.47551" lon="16.51013">
        <ele>83.464632</ele>
        <time>2024-07-31T09:19:08.809Z</time>
      </trkpt>
      <trkpt lat="54.4756" lon="16.5102">
        <ele>83.299283</ele>
        <time>2024-07-31T09:19:11.812Z</time>
      </trkpt>
      <trkpt lat="54.4757" lon="16.51027">
        <ele>83.11641</ele>
        <time>2024-07-31T09:19:14.802Z</time>
      </trkpt>
      <trkpt lat="54.4758" lon="16.51035">
        <ele>82.924481</ele>
        <time>2024-07-31T09:19:17.813Z</time>
      </trkpt>
      <trkpt lat="54.47593" lon="16.5104">
        <ele>82.697895</ele>
        <time>2024-07-31T09:19:20.793Z</time>
      </trkpt>
      <trkpt lat="54.47602" lon="16.51043">
        <ele>82.541742</ele>
        <time>2024-07-31T09:19:22.810Z</time>
      </trkpt>
      <trkpt lat="54.47611" lon="16.51047">
        <ele>82.381655</ele>
        <time>2024-07-31T09:19:24.803Z</time>
      </trkpt>
      <trkpt lat="54.47621" lon="16.5105">
        <ele>82.212835</ele>
        <time>2024-07-31T09:19:26.783Z</time>
      </trkpt>
      <trkpt lat="54.47631" lon="16.51054">
        <ele>82.036263</ele>
        <time>2024-07-31T09:19:28.835Z</time>
      </trkpt>
      <trkpt lat="54.47641" lon="16.51054">
        <ele>81.859152</ele>
        <time>2024-07-31T09:19:30.783Z</time>
      </trkpt>
      <trkpt lat="54.47651" lon="16.51052">
        <ele>81.503387</ele>
        <time>2024-07-31T09:19:32.802Z</time>
      </trkpt>
      <trkpt lat="54.4766" lon="16.51045">
        <ele>80.952691</ele>
        <time>2024-07-31T09:19:34.815Z</time>
      </trkpt>
      <trkpt lat="54.4767" lon="16.51039">
        <ele>80.381498</ele>
        <time>2024-07-31T09:19:36.807Z</time>
      </trkpt>
      <trkpt lat="54.47681" lon="16.51033">
        <ele>79.791714</ele>
        <time>2024-07-31T09:19:38.846Z</time>
      </trkpt>
      <trkpt lat="54.4769" lon="16.51027">
        <ele>79.229802</ele>
        <time>2024-07-31T09:19:40.801Z</time>
      </trkpt>
      <trkpt lat="54.477" lon="16.5102">
        <ele>78.644834</ele>
        <time>2024-07-31T09:19:42.798Z</time>
      </trkpt>
      <trkpt lat="54.47711" lon="16.51014">
        <ele>78.048848</ele>
        <time>2024-07-31T09:19:44.802Z</time>
      </trkpt>
      <trkpt lat="54.47721" lon="16.51007">
        <ele>77.46388</ele>
        <time>2024-07-31T09:19:46.803Z</time>
      </trkpt>
      <trkpt lat="54.47731" lon="16.51001">
        <ele>76.860629</ele>
        <time>2024-07-31T09:19:48.823Z</time>
      </trkpt>
      <trkpt lat="54.47741" lon="16.50994">
        <ele>76.256303</ele>
        <time>2024-07-31T09:19:50.796Z</time>
      </trkpt>
      <trkpt lat="54.47752" lon="16.50989">
        <ele>75.652517</ele>
        <time>2024-07-31T09:19:52.790Z</time>
      </trkpt>
      <trkpt lat="54.47762" lon="16.50983">
        <ele>75.07711</ele>
        <time>2024-07-31T09:19:54.782Z</time>
      </trkpt>
      <trkpt lat="54.47771" lon="16.50977">
        <ele>74.543053</ele>
        <time>2024-07-31T09:19:56.805Z</time>
      </trkpt>
      <trkpt lat="54.47783" lon="16.50968">
        <ele>73.815554</ele>
        <time>2024-07-31T09:19:59.797Z</time>
      </trkpt>
      <trkpt lat="54.47792" lon="16.5096">
        <ele>73.276363</ele>
        <time>2024-07-31T09:20:01.777Z</time>
      </trkpt>
      <trkpt lat="54.47801" lon="16.50952">
        <ele>72.733065</ele>
        <time>2024-07-31T09:20:03.813Z</time>
      </trkpt>
      <trkpt lat="54.4781" lon="16.50944">
        <ele>72.174953</ele>
        <time>2024-07-31T09:20:05.806Z</time>
      </trkpt>
      <trkpt lat="54.47819" lon="16.50936">
        <ele>71.574799</ele>
        <time>2024-07-31T09:20:07.820Z</time>
      </trkpt>
      <trkpt lat="54.47827" lon="16.5093">
        <ele>70.940659</ele>
        <time>2024-07-31T09:20:09.806Z</time>
      </trkpt>
      <trkpt lat="54.47836" lon="16.50923">
        <ele>70.323537</ele>
        <time>2024-07-31T09:20:11.803Z</time>
      </trkpt>
      <trkpt lat="54.47844" lon="16.50916">
        <ele>69.70919</ele>
        <time>2024-07-31T09:20:13.818Z</time>
      </trkpt>
      <trkpt lat="54.47853" lon="16.5091">
        <ele>69.078383</ele>
        <time>2024-07-31T09:20:15.816Z</time>
      </trkpt>
      <trkpt lat="54.47862" lon="16.50903">
        <ele>68.415363</ele>
        <time>2024-07-31T09:20:17.807Z</time>
      </trkpt>
      <trkpt lat="54.4787" lon="16.50896">
        <ele>67.787275</ele>
        <time>2024-07-31T09:20:19.799Z</time>
      </trkpt>
      <trkpt lat="54.47879" lon="16.5089">
        <ele>67.171756</ele>
        <time>2024-07-31T09:20:21.808Z</time>
      </trkpt>
      <trkpt lat="54.47887" lon="16.50883">
        <ele>66.554635</ele>
        <time>2024-07-31T09:20:23.800Z</time>
      </trkpt>
      <trkpt lat="54.47895" lon="16.50876">
        <ele>65.932587</ele>
        <time>2024-07-31T09:20:25.800Z</time>
      </trkpt>
      <trkpt lat="54.47904" lon="16.50869">
        <ele>65.296799</ele>
        <time>2024-07-31T09:20:27.805Z</time>
      </trkpt>
      <trkpt lat="54.47916" lon="16.50861">
        <ele>64.436752</ele>
        <time>2024-07-31T09:20:30.802Z</time>
      </trkpt>
      <trkpt lat="54.47924" lon="16.50853">
        <ele>63.800988</ele>
        <time>2024-07-31T09:20:32.796Z</time>
      </trkpt>
      <trkpt lat="54.47933" lon="16.50845">
        <ele>63.167112</ele>
        <time>2024-07-31T09:20:34.817Z</time>
      </trkpt>
      <trkpt lat="54.47941" lon="16.50835">
        <ele>62.499419</ele>
        <time>2024-07-31T09:20:36.793Z</time>
      </trkpt>
      <trkpt lat="54.47949" lon="16.50826">
        <ele>61.861321</ele>
        <time>2024-07-31T09:20:38.839Z</time>
      </trkpt>
      <trkpt lat="54.47956" lon="16.50817">
        <ele>61.241443</ele>
        <time>2024-07-31T09:20:40.807Z</time>
      </trkpt>
      <trkpt lat="54.47968" lon="16.50806">
        <ele>60.363823</ele>
        <time>2024-07-31T09:20:43.813Z</time>
      </trkpt>
      <trkpt lat="54.47979" lon="16.50796">
        <ele>59.634882</ele>
        <time>2024-07-31T09:20:46.807Z</time>
      </trkpt>
      <trkpt lat="54.47991" lon="16.50789">
        <ele>58.974747</ele>
        <time>2024-07-31T09:20:49.803Z</time>
      </trkpt>
      <trkpt lat="54.48001" lon="16.50788">
        <ele>58.483674</ele>
        <time>2024-07-31T09:20:51.801Z</time>
      </trkpt>
      <trkpt lat="54.48014" lon="16.50789">
        <ele>57.864008</ele>
        <time>2024-07-31T09:20:54.802Z</time>
      </trkpt>
      <trkpt lat="54.48027" lon="16.50792">
        <ele>57.212094</ele>
        <time>2024-07-31T09:20:57.809Z</time>
      </trkpt>
      <trkpt lat="54.48036" lon="16.50793">
        <ele>56.74667</ele>
        <time>2024-07-31T09:20:59.804Z</time>
      </trkpt>
      <trkpt lat="54.48046" lon="16.50794">
        <ele>56.286182</ele>
        <time>2024-07-31T09:21:01.801Z</time>
      </trkpt>
      <trkpt lat="54.48056" lon="16.50794">
        <ele>55.767096</ele>
        <time>2024-07-31T09:21:03.797Z</time>
      </trkpt>
      <trkpt lat="54.48068" lon="16.50793">
        <ele>55.17823</ele>
        <time>2024-07-31T09:21:05.802Z</time>
      </trkpt>
      <trkpt lat="54.48081" lon="16.50792">
        <ele>54.550278</ele>
        <time>2024-07-31T09:21:07.776Z</time>
      </trkpt>
      <trkpt lat="54.48093" lon="16.50794">
        <ele>53.920535</ele>
        <time>2024-07-31T09:21:09.807Z</time>
      </trkpt>
      <trkpt lat="54.48106" lon="16.50797">
        <ele>53.300667</ele>
        <time>2024-07-31T09:21:11.806Z</time>
      </trkpt>
      <trkpt lat="54.48117" lon="16.50802">
        <ele>52.726621</ele>
        <time>2024-07-31T09:21:13.790Z</time>
      </trkpt>
      <trkpt lat="54.48129" lon="16.50806">
        <ele>52.134566</ele>
        <time>2024-07-31T09:21:15.799Z</time>
      </trkpt>
      <trkpt lat="54.4814" lon="16.5081">
        <ele>51.582063</ele>
        <time>2024-07-31T09:21:17.805Z</time>
      </trkpt>
      <trkpt lat="54.48151" lon="16.50813">
        <ele>51.034184</ele>
        <time>2024-07-31T09:21:19.791Z</time>
      </trkpt>
      <trkpt lat="54.48162" lon="16.50816">
        <ele>50.906765</ele>
        <time>2024-07-31T09:21:21.812Z</time>
      </trkpt>
      <trkpt lat="54.48173" lon="16.50819">
        <ele>50.778555</ele>
        <time>2024-07-31T09:21:23.785Z</time>
      </trkpt>
      <trkpt lat="54.48182" lon="16.50821">
        <ele>50.663338</ele>
        <time>2024-07-31T09:21:25.806Z</time>
      </trkpt>
      <trkpt lat="54.48192" lon="16.50822">
        <ele>50.549434</ele>
        <time>2024-07-31T09:21:28.848Z</time>
      </trkpt>
      <trkpt lat="54.48202" lon="16.50825">
        <ele>50.433667</ele>
        <time>2024-07-31T09:21:36.795Z</time>
      </trkpt>
      <trkpt lat="54.48214" lon="16.50828">
        <ele>50.292097</ele>
        <time>2024-07-31T09:21:40.811Z</time>
      </trkpt>
      <trkpt lat="54.48224" lon="16.50831">
        <ele>50.171398</ele>
        <time>2024-07-31T09:21:43.801Z</time>
      </trkpt>
      <trkpt lat="54.48235" lon="16.50834">
        <ele>50.045039</ele>
        <time>2024-07-31T09:21:46.816Z</time>
      </trkpt>
      <trkpt lat="54.48246" lon="16.50836">
        <ele>49.914342</ele>
        <time>2024-07-31T09:21:49.789Z</time>
      </trkpt>
      <trkpt lat="54.48257" lon="16.50839">
        <ele>49.7798</ele>
        <time>2024-07-31T09:21:52.800Z</time>
      </trkpt>
      <trkpt lat="54.48269" lon="16.50842">
        <ele>49.639482</ele>
        <time>2024-07-31T09:21:55.792Z</time>
      </trkpt>
      <trkpt lat="54.48281" lon="16.50845">
        <ele>49.496943</ele>
        <time>2024-07-31T09:21:58.810Z</time>
      </trkpt>
      <trkpt lat="54.48294" lon="16.50847">
        <ele>49.352495</ele>
        <time>2024-07-31T09:22:01.817Z</time>
      </trkpt>
      <trkpt lat="54.48307" lon="16.5085">
        <ele>49.19945</ele>
        <time>2024-07-31T09:22:04.792Z</time>
      </trkpt>
      <trkpt lat="54.48319" lon="16.50853">
        <ele>49.050211</ele>
        <time>2024-07-31T09:22:07.803Z</time>
      </trkpt>
      <trkpt lat="54.48332" lon="16.50856">
        <ele>48.94322</ele>
        <time>2024-07-31T09:22:10.800Z</time>
      </trkpt>
      <trkpt lat="54.48344" lon="16.50859">
        <ele>48.965047</ele>
        <time>2024-07-31T09:22:13.789Z</time>
      </trkpt>
      <trkpt lat="54.48356" lon="16.50862">
        <ele>48.987693</ele>
        <time>2024-07-31T09:22:16.795Z</time>
      </trkpt>
      <trkpt lat="54.48369" lon="16.50866">
        <ele>49.010529</ele>
        <time>2024-07-31T09:22:19.798Z</time>
      </trkpt>
      <trkpt lat="54.48381" lon="16.50869">
        <ele>49.03178</ele>
        <time>2024-07-31T09:22:22.800Z</time>
      </trkpt>
      <trkpt lat="54.48391" lon="16.50871">
        <ele>49.050754</ele>
        <time>2024-07-31T09:22:25.805Z</time>
      </trkpt>
      <trkpt lat="54.48402" lon="16.50872">
        <ele>49.068956</ele>
        <time>2024-07-31T09:22:28.838Z</time>
      </trkpt>
      <trkpt lat="54.48412" lon="16.50874">
        <ele>49.087964</ele>
        <time>2024-07-31T09:22:31.803Z</time>
      </trkpt>
      <trkpt lat="54.48423" lon="16.50875">
        <ele>49.107758</ele>
        <time>2024-07-31T09:22:34.803Z</time>
      </trkpt>
      <trkpt lat="54.48436" lon="16.50872">
        <ele>49.129644</ele>
        <time>2024-07-31T09:22:37.785Z</time>
      </trkpt>
      <trkpt lat="54.48448" lon="16.50865">
        <ele>49.152605</ele>
        <time>2024-07-31T09:22:40.808Z</time>
      </trkpt>
      <trkpt lat="54.4846" lon="16.50857">
        <ele>49.175312</ele>
        <time>2024-07-31T09:22:43.814Z</time>
      </trkpt>
      <trkpt lat="54.48471" lon="16.50851">
        <ele>49.196725</ele>
        <time>2024-07-31T09:22:46.815Z</time>
      </trkpt>
      <trkpt lat="54.48482" lon="16.50843">
        <ele>49.218324</ele>
        <time>2024-07-31T09:22:49.807Z</time>
      </trkpt>
      <trkpt lat="54.48493" lon="16.50837">
        <ele>49.238155</ele>
        <time>2024-07-31T09:22:52.802Z</time>
      </trkpt>
      <trkpt lat="54.48505" lon="16.50831">
        <ele>49.244457</ele>
        <time>2024-07-31T09:22:55.809Z</time>
      </trkpt>
      <trkpt lat="54.48516" lon="16.50824">
        <ele>49.137035</ele>
        <time>2024-07-31T09:22:58.851Z</time>
      </trkpt>
      <trkpt lat="54.48529" lon="16.50817">
        <ele>49.015661</ele>
        <time>2024-07-31T09:23:01.809Z</time>
      </trkpt>
      <trkpt lat="54.48539" lon="16.50812">
        <ele>48.929285</ele>
        <time>2024-07-31T09:23:03.806Z</time>
      </trkpt>
      <trkpt lat="54.48548" lon="16.50807">
        <ele>48.840177</ele>
        <time>2024-07-31T09:23:05.802Z</time>
      </trkpt>
      <trkpt lat="54.48557" lon="16.50802">
        <ele>48.753334</ele>
        <time>2024-07-31T09:23:07.805Z</time>
      </trkpt>
      <trkpt lat="54.48567" lon="16.50796">
        <ele>48.661919</ele>
        <time>2024-07-31T09:23:09.804Z</time>
      </trkpt>
      <trkpt lat="54.48576" lon="16.50791">
        <ele>48.572506</ele>
        <time>2024-07-31T09:23:11.796Z</time>
      </trkpt>
      <trkpt lat="54.48586" lon="16.50785">
        <ele>48.476333</ele>
        <time>2024-07-31T09:23:13.804Z</time>
      </trkpt>
      <trkpt lat="54.48597" lon="16.50778">
        <ele>48.376188</ele>
        <time>2024-07-31T09:23:15.799Z</time>
      </trkpt>
      <trkpt lat="54.48608" lon="16.50771">
        <ele>48.271172</ele>
        <time>2024-07-31T09:23:17.803Z</time>
      </trkpt>
      <trkpt lat="54.48619" lon="16.50765">
        <ele>48.166479</ele>
        <time>2024-07-31T09:23:19.805Z</time>
      </trkpt>
      <trkpt lat="54.4863" lon="16.50757">
        <ele>48.05831</ele>
        <time>2024-07-31T09:23:21.804Z</time>
      </trkpt>
      <trkpt lat="54.4864" lon="16.50751">
        <ele>47.962538</ele>
        <time>2024-07-31T09:23:23.810Z</time>
      </trkpt>
      <trkpt lat="54.48651" lon="16.50744">
        <ele>47.854799</ele>
        <time>2024-07-31T09:23:25.795Z</time>
      </trkpt>
      <trkpt lat="54.48663" lon="16.50739">
        <ele>47.751015</ele>
        <time>2024-07-31T09:23:27.796Z</time>
      </trkpt>
      <trkpt lat="54.48674" lon="16.50735">
        <ele>47.647059</ele>
        <time>2024-07-31T09:23:29.781Z</time>
      </trkpt>
      <trkpt lat="54.48685" lon="16.50734">
        <ele>47.521977</ele>
        <time>2024-07-31T09:23:31.809Z</time>
      </trkpt>
      <trkpt lat="54.48695" lon="16.50735">
        <ele>47.401355</ele>
        <time>2024-07-31T09:23:33.810Z</time>
      </trkpt>
      <trkpt lat="54.48705" lon="16.50735">
        <ele>47.293473</ele>
        <time>2024-07-31T09:23:35.805Z</time>
      </trkpt>
      <trkpt lat="54.48714" lon="16.5074">
        <ele>47.185173</ele>
        <time>2024-07-31T09:23:37.798Z</time>
      </trkpt>
      <trkpt lat="54.48723" lon="16.50744">
        <ele>47.078496</ele>
        <time>2024-07-31T09:23:39.813Z</time>
      </trkpt>
      <trkpt lat="54.48731" lon="16.50749">
        <ele>46.974968</ele>
        <time>2024-07-31T09:23:41.800Z</time>
      </trkpt>
      <trkpt lat="54.48744" lon="16.50754">
        <ele>46.822238</ele>
        <time>2024-07-31T09:23:44.792Z</time>
      </trkpt>
      <trkpt lat="54.48753" lon="16.50758">
        <ele>46.717389</ele>
        <time>2024-07-31T09:23:46.801Z</time>
      </trkpt>
      <trkpt lat="54.48766" lon="16.50764">
        <ele>46.566931</ele>
        <time>2024-07-31T09:23:49.812Z</time>
      </trkpt>
      <trkpt lat="54.48775" lon="16.50768">
        <ele>46.463276</ele>
        <time>2024-07-31T09:23:51.808Z</time>
      </trkpt>
      <trkpt lat="54.48783" lon="16.50772">
        <ele>46.358821</ele>
        <time>2024-07-31T09:23:53.795Z</time>
      </trkpt>
      <trkpt lat="54.48793" lon="16.50775">
        <ele>46.252227</ele>
        <time>2024-07-31T09:23:55.799Z</time>
      </trkpt>
      <trkpt lat="54.48805" lon="16.5078">
        <ele>46.101602</ele>
        <time>2024-07-31T09:23:58.854Z</time>
      </trkpt>
      <trkpt lat="54.48818" lon="16.50786">
        <ele>45.950195</ele>
        <time>2024-07-31T09:24:01.812Z</time>
      </trkpt>
      <trkpt lat="54.4883" lon="16.5079">
        <ele>45.805529</ele>
        <time>2024-07-31T09:24:04.814Z</time>
      </trkpt>
      <trkpt lat="54.48843" lon="16.50791">
        <ele>45.66429</ele>
        <time>2024-07-31T09:24:07.815Z</time>
      </trkpt>
      <trkpt lat="54.48855" lon="16.5079">
        <ele>45.500387</ele>
        <time>2024-07-31T09:24:10.789Z</time>
      </trkpt>
      <trkpt lat="54.48868" lon="16.50785">
        <ele>45.284185</ele>
        <time>2024-07-31T09:24:13.808Z</time>
      </trkpt>
      <trkpt lat="54.48877" lon="16.5078">
        <ele>45.135281</ele>
        <time>2024-07-31T09:24:15.807Z</time>
      </trkpt>
      <trkpt lat="54.48886" lon="16.50773">
        <ele>44.970152</ele>
        <time>2024-07-31T09:24:17.797Z</time>
      </trkpt>
      <trkpt lat="54.48896" lon="16.50768">
        <ele>44.806521</ele>
        <time>2024-07-31T09:24:19.807Z</time>
      </trkpt>
      <trkpt lat="54.48905" lon="16.50762">
        <ele>44.638926</ele>
        <time>2024-07-31T09:24:21.821Z</time>
      </trkpt>
      <trkpt lat="54.48915" lon="16.50757">
        <ele>44.469494</ele>
        <time>2024-07-31T09:24:23.801Z</time>
      </trkpt>
      <trkpt lat="54.48925" lon="16.5075">
        <ele>44.299504</ele>
        <time>2024-07-31T09:24:25.778Z</time>
      </trkpt>
      <trkpt lat="54.48935" lon="16.50744">
        <ele>44.134039</ele>
        <time>2024-07-31T09:24:27.799Z</time>
      </trkpt>
      <trkpt lat="54.48945" lon="16.50738">
        <ele>43.963373</ele>
        <time>2024-07-31T09:24:29.800Z</time>
      </trkpt>
      <trkpt lat="54.48955" lon="16.50732">
        <ele>43.788422</ele>
        <time>2024-07-31T09:24:31.801Z</time>
      </trkpt>
      <trkpt lat="54.48966" lon="16.50726">
        <ele>43.601194</ele>
        <time>2024-07-31T09:24:33.802Z</time>
      </trkpt>
      <trkpt lat="54.48976" lon="16.5072">
        <ele>43.419401</ele>
        <time>2024-07-31T09:24:35.814Z</time>
      </trkpt>
      <trkpt lat="54.48987" lon="16.50714">
        <ele>43.243832</ele>
        <time>2024-07-31T09:24:37.812Z</time>
      </trkpt>
      <trkpt lat="54.48997" lon="16.50708">
        <ele>43.074098</ele>
        <time>2024-07-31T09:24:39.799Z</time>
      </trkpt>
      <trkpt lat="54.49007" lon="16.50702">
        <ele>42.899089</ele>
        <time>2024-07-31T09:24:41.797Z</time>
      </trkpt>
      <trkpt lat="54.49017" lon="16.50696">
        <ele>42.721063</ele>
        <time>2024-07-31T09:24:43.805Z</time>
      </trkpt>
      <trkpt lat="54.49027" lon="16.50689">
        <ele>42.545331</ele>
        <time>2024-07-31T09:24:45.795Z</time>
      </trkpt>
      <trkpt lat="54.49038" lon="16.50684">
        <ele>42.376112</ele>
        <time>2024-07-31T09:24:47.799Z</time>
      </trkpt>
      <trkpt lat="54.49048" lon="16.50678">
        <ele>42.213285</ele>
        <time>2024-07-31T09:24:49.809Z</time>
      </trkpt>
      <trkpt lat="54.49057" lon="16.50672">
        <ele>42.04862</ele>
        <time>2024-07-31T09:24:51.796Z</time>
      </trkpt>
      <trkpt lat="54.49067" lon="16.50666">
        <ele>41.888773</ele>
        <time>2024-07-31T09:24:53.799Z</time>
      </trkpt>
      <trkpt lat="54.49076" lon="16.50661">
        <ele>41.73568</ele>
        <time>2024-07-31T09:24:55.779Z</time>
      </trkpt>
      <trkpt lat="54.49085" lon="16.50655">
        <ele>41.582937</ele>
        <time>2024-07-31T09:24:57.809Z</time>
      </trkpt>
      <trkpt lat="54.49095" lon="16.5065">
        <ele>41.429299</ele>
        <time>2024-07-31T09:24:59.806Z</time>
      </trkpt>
      <trkpt lat="54.49104" lon="16.50645">
        <ele>41.267606</ele>
        <time>2024-07-31T09:25:01.783Z</time>
      </trkpt>
      <trkpt lat="54.49114" lon="16.50639">
        <ele>41.100301</ele>
        <time>2024-07-31T09:25:03.811Z</time>
      </trkpt>
      <trkpt lat="54.49124" lon="16.50633">
        <ele>40.937746</ele>
        <time>2024-07-31T09:25:05.818Z</time>
      </trkpt>
      <trkpt lat="54.49134" lon="16.50627">
        <ele>40.770152</ele>
        <time>2024-07-31T09:25:07.804Z</time>
      </trkpt>
      <trkpt lat="54.49145" lon="16.50621">
        <ele>40.600128</ele>
        <time>2024-07-31T09:25:09.795Z</time>
      </trkpt>
      <trkpt lat="54.49155" lon="16.50615">
        <ele>40.428925</ele>
        <time>2024-07-31T09:25:11.814Z</time>
      </trkpt>
      <trkpt lat="54.49165" lon="16.50609">
        <ele>40.260121</ele>
        <time>2024-07-31T09:25:13.802Z</time>
      </trkpt>
      <trkpt lat="54.49175" lon="16.50604">
        <ele>40.099651</ele>
        <time>2024-07-31T09:25:15.798Z</time>
      </trkpt>
      <trkpt lat="54.49185" lon="16.50598">
        <ele>39.93504</ele>
        <time>2024-07-31T09:25:17.795Z</time>
      </trkpt>
      <trkpt lat="54.49195" lon="16.50592">
        <ele>39.787248</ele>
        <time>2024-07-31T09:25:19.821Z</time>
      </trkpt>
      <trkpt lat="54.49204" lon="16.50586">
        <ele>39.674634</ele>
        <time>2024-07-31T09:25:21.805Z</time>
      </trkpt>
      <trkpt lat="54.49214" lon="16.50581">
        <ele>39.563863</ele>
        <time>2024-07-31T09:25:23.798Z</time>
      </trkpt>
      <trkpt lat="54.49224" lon="16.50574">
        <ele>39.450519</ele>
        <time>2024-07-31T09:25:25.787Z</time>
      </trkpt>
      <trkpt lat="54.49233" lon="16.50568">
        <ele>39.33831</ele>
        <time>2024-07-31T09:25:27.801Z</time>
      </trkpt>
      <trkpt lat="54.49243" lon="16.50562">
        <ele>39.224463</ele>
        <time>2024-07-31T09:25:29.802Z</time>
      </trkpt>
      <trkpt lat="54.49253" lon="16.50557">
        <ele>39.110258</ele>
        <time>2024-07-31T09:25:31.814Z</time>
      </trkpt>
      <trkpt lat="54.49264" lon="16.50551">
        <ele>38.991891</ele>
        <time>2024-07-31T09:25:33.802Z</time>
      </trkpt>
      <trkpt lat="54.49274" lon="16.50545">
        <ele>38.873477</ele>
        <time>2024-07-31T09:25:35.794Z</time>
      </trkpt>
      <trkpt lat="54.49284" lon="16.50539">
        <ele>38.761464</ele>
        <time>2024-07-31T09:25:37.811Z</time>
      </trkpt>
      <trkpt lat="54.49293" lon="16.50534">
        <ele>38.650083</ele>
        <time>2024-07-31T09:25:39.795Z</time>
      </trkpt>
      <trkpt lat="54.49304" lon="16.50528">
        <ele>38.532513</ele>
        <time>2024-07-31T09:25:41.799Z</time>
      </trkpt>
      <trkpt lat="54.49314" lon="16.50522">
        <ele>38.419483</ele>
        <time>2024-07-31T09:25:43.801Z</time>
      </trkpt>
      <trkpt lat="54.49323" lon="16.50516">
        <ele>38.305841</ele>
        <time>2024-07-31T09:25:45.802Z</time>
      </trkpt>
      <trkpt lat="54.49334" lon="16.5051">
        <ele>38.189938</ele>
        <time>2024-07-31T09:25:47.789Z</time>
      </trkpt>
      <trkpt lat="54.49343" lon="16.50505">
        <ele>38.077729</ele>
        <time>2024-07-31T09:25:49.803Z</time>
      </trkpt>
      <trkpt lat="54.49353" lon="16.50499">
        <ele>37.965722</ele>
        <time>2024-07-31T09:25:51.777Z</time>
      </trkpt>
      <trkpt lat="54.49363" lon="16.50493">
        <ele>37.86591</ele>
        <time>2024-07-31T09:25:53.805Z</time>
      </trkpt>
      <trkpt lat="54.49372" lon="16.50487">
        <ele>37.823294</ele>
        <time>2024-07-31T09:25:55.774Z</time>
      </trkpt>
      <trkpt lat="54.49381" lon="16.50482">
        <ele>37.783142</ele>
        <time>2024-07-31T09:25:57.809Z</time>
      </trkpt>
      <trkpt lat="54.4939" lon="16.50476">
        <ele>37.743228</ele>
        <time>2024-07-31T09:25:59.817Z</time>
      </trkpt>
      <trkpt lat="54.49399" lon="16.50471">
        <ele>37.703942</ele>
        <time>2024-07-31T09:26:01.819Z</time>
      </trkpt>
      <trkpt lat="54.49408" lon="16.50466">
        <ele>37.665779</ele>
        <time>2024-07-31T09:26:03.789Z</time>
      </trkpt>
      <trkpt lat="54.49416" lon="16.50461">
        <ele>37.627536</ele>
        <time>2024-07-31T09:26:05.805Z</time>
      </trkpt>
      <trkpt lat="54.49425" lon="16.50456">
        <ele>37.589527</ele>
        <time>2024-07-31T09:26:07.790Z</time>
      </trkpt>
      <trkpt lat="54.49434" lon="16.5045">
        <ele>37.550082</ele>
        <time>2024-07-31T09:26:09.796Z</time>
      </trkpt>
      <trkpt lat="54.49442" lon="16.50445">
        <ele>37.511363</ele>
        <time>2024-07-31T09:26:11.791Z</time>
      </trkpt>
      <trkpt lat="54.49451" lon="16.5044">
        <ele>37.473276</ele>
        <time>2024-07-31T09:26:13.790Z</time>
      </trkpt>
      <trkpt lat="54.49464" lon="16.50433">
        <ele>37.417136</ele>
        <time>2024-07-31T09:26:16.806Z</time>
      </trkpt>
      <trkpt lat="54.49472" lon="16.50428">
        <ele>37.379127</ele>
        <time>2024-07-31T09:26:18.827Z</time>
      </trkpt>
      <trkpt lat="54.49481" lon="16.50423">
        <ele>37.341201</ele>
        <time>2024-07-31T09:26:20.797Z</time>
      </trkpt>
      <trkpt lat="54.49489" lon="16.50417">
        <ele>37.30276</ele>
        <time>2024-07-31T09:26:22.793Z</time>
      </trkpt>
      <trkpt lat="54.49502" lon="16.5041">
        <ele>37.248045</ele>
        <time>2024-07-31T09:26:25.809Z</time>
      </trkpt>
      <trkpt lat="54.49514" lon="16.50402">
        <ele>37.192061</ele>
        <time>2024-07-31T09:26:28.846Z</time>
      </trkpt>
      <trkpt lat="54.49527" lon="16.50395">
        <ele>37.136406</ele>
        <time>2024-07-31T09:26:31.822Z</time>
      </trkpt>
      <trkpt lat="54.49538" lon="16.50388">
        <ele>37.066697</ele>
        <time>2024-07-31T09:26:34.804Z</time>
      </trkpt>
      <trkpt lat="54.4955" lon="16.50382">
        <ele>36.985263</ele>
        <time>2024-07-31T09:26:37.814Z</time>
      </trkpt>
      <trkpt lat="54.49562" lon="16.50375">
        <ele>36.898407</ele>
        <time>2024-07-31T09:26:40.793Z</time>
      </trkpt>
      <trkpt lat="54.49574" lon="16.5037">
        <ele>36.812008</ele>
        <time>2024-07-31T09:26:43.801Z</time>
      </trkpt>
      <trkpt lat="54.49587" lon="16.50368">
        <ele>36.72353</ele>
        <time>2024-07-31T09:26:46.777Z</time>
      </trkpt>
      <trkpt lat="54.496" lon="16.50369">
        <ele>36.638641</ele>
        <time>2024-07-31T09:26:49.797Z</time>
      </trkpt>
      <trkpt lat="54.49612" lon="16.50372">
        <ele>36.556592</ele>
        <time>2024-07-31T09:26:52.789Z</time>
      </trkpt>
      <trkpt lat="54.49624" lon="16.50376">
        <ele>36.472751</ele>
        <time>2024-07-31T09:26:55.810Z</time>
      </trkpt>
      <trkpt lat="54.49635" lon="16.50378">
        <ele>36.397382</ele>
        <time>2024-07-31T09:26:58.830Z</time>
      </trkpt>
      <trkpt lat="54.49648" lon="16.50382">
        <ele>36.31471</ele>
        <time>2024-07-31T09:27:01.785Z</time>
      </trkpt>
      <trkpt lat="54.49659" lon="16.50384">
        <ele>36.240317</ele>
        <time>2024-07-31T09:27:04.800Z</time>
      </trkpt>
      <trkpt lat="54.49669" lon="16.50389">
        <ele>36.164062</ele>
        <time>2024-07-31T09:27:07.776Z</time>
      </trkpt>
      <trkpt lat="54.49681" lon="16.50392">
        <ele>36.084586</ele>
        <time>2024-07-31T09:27:10.794Z</time>
      </trkpt>
      <trkpt lat="54.49694" lon="16.50396">
        <ele>35.997368</ele>
        <time>2024-07-31T09:27:13.804Z</time>
      </trkpt>
      <trkpt lat="54.49707" lon="16.504">
        <ele>35.909712</ele>
        <time>2024-07-31T09:27:16.797Z</time>
      </trkpt>
      <trkpt lat="54.4972" lon="16.50404">
        <ele>35.851147</ele>
        <time>2024-07-31T09:27:19.799Z</time>
      </trkpt>
      <trkpt lat="54.49733" lon="16.50408">
        <ele>35.794337</ele>
        <time>2024-07-31T09:27:22.803Z</time>
      </trkpt>
      <trkpt lat="54.49746" lon="16.50411">
        <ele>35.737291</ele>
        <time>2024-07-31T09:27:25.800Z</time>
      </trkpt>
      <trkpt lat="54.49759" lon="16.50415">
        <ele>35.679357</ele>
        <time>2024-07-31T09:27:28.849Z</time>
      </trkpt>
      <trkpt lat="54.49773" lon="16.50419">
        <ele>35.621587</ele>
        <time>2024-07-31T09:27:31.804Z</time>
      </trkpt>
      <trkpt lat="54.49786" lon="16.50422">
        <ele>35.563666</ele>
        <time>2024-07-31T09:27:34.803Z</time>
      </trkpt>
      <trkpt lat="54.49795" lon="16.50425">
        <ele>35.522309</ele>
        <time>2024-07-31T09:27:36.801Z</time>
      </trkpt>
      <trkpt lat="54.49809" lon="16.50429">
        <ele>35.463571</ele>
        <time>2024-07-31T09:27:39.806Z</time>
      </trkpt>
      <trkpt lat="54.49818" lon="16.50431">
        <ele>35.424565</ele>
        <time>2024-07-31T09:27:41.801Z</time>
      </trkpt>
      <trkpt lat="54.49827" lon="16.50434">
        <ele>35.385229</ele>
        <time>2024-07-31T09:27:43.805Z</time>
      </trkpt>
      <trkpt lat="54.49836" lon="16.50438">
        <ele>35.346175</ele>
        <time>2024-07-31T09:27:45.816Z</time>
      </trkpt>
      <trkpt lat="54.49845" lon="16.5044">
        <ele>35.306672</ele>
        <time>2024-07-31T09:27:47.803Z</time>
      </trkpt>
      <trkpt lat="54.49854" lon="16.50442">
        <ele>35.267206</ele>
        <time>2024-07-31T09:27:49.799Z</time>
      </trkpt>
      <trkpt lat="54.49864" lon="16.50444">
        <ele>35.225712</ele>
        <time>2024-07-31T09:27:51.800Z</time>
      </trkpt>
      <trkpt lat="54.49873" lon="16.50447">
        <ele>35.18486</ele>
        <time>2024-07-31T09:27:53.796Z</time>
      </trkpt>
      <trkpt lat="54.49882" lon="16.5045">
        <ele>35.143792</ele>
        <time>2024-07-31T09:27:55.811Z</time>
      </trkpt>
      <trkpt lat="54.49892" lon="16.50453">
        <ele>35.120447</ele>
        <time>2024-07-31T09:27:57.816Z</time>
      </trkpt>
      <trkpt lat="54.49901" lon="16.50455">
        <ele>35.102853</ele>
        <time>2024-07-31T09:27:59.808Z</time>
      </trkpt>
      <trkpt lat="54.49914" lon="16.50459">
        <ele>35.077595</ele>
        <time>2024-07-31T09:28:02.801Z</time>
      </trkpt>
      <trkpt lat="54.49927" lon="16.50463">
        <ele>35.053954</ele>
        <time>2024-07-31T09:28:05.800Z</time>
      </trkpt>
      <trkpt lat="54.49939" lon="16.50466">
        <ele>35.030011</ele>
        <time>2024-07-31T09:28:08.843Z</time>
      </trkpt>
      <trkpt lat="54.49952" lon="16.5047">
        <ele>35.004938</ele>
        <time>2024-07-31T09:28:11.809Z</time>
      </trkpt>
      <trkpt lat="54.49965" lon="16.50474">
        <ele>34.980167</ele>
        <time>2024-07-31T09:28:14.775Z</time>
      </trkpt>
      <trkpt lat="54.49978" lon="16.50477">
        <ele>34.956191</ele>
        <time>2024-07-31T09:28:17.800Z</time>
      </trkpt>
      <trkpt lat="54.49991" lon="16.50481">
        <ele>34.932215</ele>
        <time>2024-07-31T09:28:20.801Z</time>
      </trkpt>
      <trkpt lat="54.50003" lon="16.50484">
        <ele>34.908424</ele>
        <time>2024-07-31T09:28:23.811Z</time>
      </trkpt>
      <trkpt lat="54.50016" lon="16.50489">
        <ele>34.883492</ele>
        <time>2024-07-31T09:28:26.799Z</time>
      </trkpt>
      <trkpt lat="54.50028" lon="16.50492">
        <ele>34.860405</ele>
        <time>2024-07-31T09:28:29.807Z</time>
      </trkpt>
      <trkpt lat="54.50041" lon="16.50496">
        <ele>34.835889</ele>
        <time>2024-07-31T09:28:32.808Z</time>
      </trkpt>
      <trkpt lat="54.50054" lon="16.50499">
        <ele>34.811464</ele>
        <time>2024-07-31T09:28:35.800Z</time>
      </trkpt>
      <trkpt lat="54.50066" lon="16.50503">
        <ele>34.78129</ele>
        <time>2024-07-31T09:28:38.845Z</time>
      </trkpt>
      <trkpt lat="54.50079" lon="16.50507">
        <ele>34.740314</ele>
        <time>2024-07-31T09:28:41.803Z</time>
      </trkpt>
      <trkpt lat="54.50091" lon="16.50511">
        <ele>34.700479</ele>
        <time>2024-07-31T09:28:44.782Z</time>
      </trkpt>
      <trkpt lat="54.50103" lon="16.50514">
        <ele>34.658653</ele>
        <time>2024-07-31T09:28:47.778Z</time>
      </trkpt>
      <trkpt lat="54.50115" lon="16.50518">
        <ele>34.618818</ele>
        <time>2024-07-31T09:28:50.800Z</time>
      </trkpt>
      <trkpt lat="54.50127" lon="16.5052">
        <ele>34.579929</ele>
        <time>2024-07-31T09:28:53.800Z</time>
      </trkpt>
      <trkpt lat="54.50139" lon="16.50523">
        <ele>34.540118</ele>
        <time>2024-07-31T09:28:56.797Z</time>
      </trkpt>
      <trkpt lat="54.50151" lon="16.50526">
        <ele>34.500955</ele>
        <time>2024-07-31T09:28:59.809Z</time>
      </trkpt>
      <trkpt lat="54.50162" lon="16.50529">
        <ele>34.464399</ele>
        <time>2024-07-31T09:29:02.808Z</time>
      </trkpt>
      <trkpt lat="54.50172" lon="16.50529">
        <ele>34.43273</ele>
        <time>2024-07-31T09:29:05.805Z</time>
      </trkpt>
      <trkpt lat="54.50183" lon="16.50527">
        <ele>34.395298</ele>
        <time>2024-07-31T09:29:09.797Z</time>
      </trkpt>
      <trkpt lat="54.50192" lon="16.50519">
        <ele>34.364245</ele>
        <time>2024-07-31T09:29:15.795Z</time>
      </trkpt>
      <trkpt lat="54.50197" lon="16.50506">
        <ele>34.333964</ele>
        <time>2024-07-31T09:29:20.795Z</time>
      </trkpt>
      <trkpt lat="54.50205" lon="16.50493">
        <ele>34.297959</ele>
        <time>2024-07-31T09:29:24.775Z</time>
      </trkpt>
      <trkpt lat="54.50215" lon="16.50481">
        <ele>34.25923</ele>
        <time>2024-07-31T09:29:28.831Z</time>
      </trkpt>
      <trkpt lat="54.50223" lon="16.50473">
        <ele>34.229115</ele>
        <time>2024-07-31T09:29:31.810Z</time>
      </trkpt>
      <trkpt lat="54.50232" lon="16.50466">
        <ele>34.24119</ele>
        <time>2024-07-31T09:29:34.796Z</time>
      </trkpt>
      <trkpt lat="54.50241" lon="16.50459">
        <ele>34.334616</ele>
        <time>2024-07-31T09:29:37.804Z</time>
      </trkpt>
      <trkpt lat="54.5025" lon="16.50451">
        <ele>34.429057</ele>
        <time>2024-07-31T09:29:40.815Z</time>
      </trkpt>
      <trkpt lat="54.50259" lon="16.50445">
        <ele>34.527449</ele>
        <time>2024-07-31T09:29:43.813Z</time>
      </trkpt>
      <trkpt lat="54.50269" lon="16.5044">
        <ele>34.622856</ele>
        <time>2024-07-31T09:29:46.801Z</time>
      </trkpt>
      <trkpt lat="54.50279" lon="16.50437">
        <ele>34.718629</ele>
        <time>2024-07-31T09:29:49.786Z</time>
      </trkpt>
      <trkpt lat="54.50289" lon="16.50435">
        <ele>34.813861</ele>
        <time>2024-07-31T09:29:52.812Z</time>
      </trkpt>
      <trkpt lat="54.50299" lon="16.50432">
        <ele>34.906928</ele>
        <time>2024-07-31T09:29:55.801Z</time>
      </trkpt>
      <trkpt lat="54.50308" lon="16.50431">
        <ele>34.994106</ele>
        <time>2024-07-31T09:29:58.817Z</time>
      </trkpt>
      <trkpt lat="54.50319" lon="16.50425">
        <ele>35.106187</ele>
        <time>2024-07-31T09:30:02.791Z</time>
      </trkpt>
      <trkpt lat="54.50328" lon="16.50414">
        <ele>35.20957</ele>
        <time>2024-07-31T09:30:06.801Z</time>
      </trkpt>
      <trkpt lat="54.50336" lon="16.50405">
        <ele>35.29843</ele>
        <time>2024-07-31T09:30:09.791Z</time>
      </trkpt>
      <trkpt lat="54.50346" lon="16.50394">
        <ele>35.410064</ele>
        <time>2024-07-31T09:30:13.807Z</time>
      </trkpt>
      <trkpt lat="54.50354" lon="16.50384">
        <ele>35.499746</ele>
        <time>2024-07-31T09:30:16.802Z</time>
      </trkpt>
      <trkpt lat="54.50362" lon="16.50376">
        <ele>35.588895</ele>
        <time>2024-07-31T09:30:19.810Z</time>
      </trkpt>
      <trkpt lat="54.5037" lon="16.50365">
        <ele>35.685063</ele>
        <time>2024-07-31T09:30:22.812Z</time>
      </trkpt>
      <trkpt lat="54.50377" lon="16.50356">
        <ele>35.773073</ele>
        <time>2024-07-31T09:30:25.808Z</time>
      </trkpt>
      <trkpt lat="54.50385" lon="16.50345">
        <ele>35.864406</ele>
        <time>2024-07-31T09:30:28.840Z</time>
      </trkpt>
      <trkpt lat="54.50392" lon="16.50336">
        <ele>35.941484</ele>
        <time>2024-07-31T09:30:31.803Z</time>
      </trkpt>
      <trkpt lat="54.504" lon="16.50327">
        <ele>36.009029</ele>
        <time>2024-07-31T09:30:34.802Z</time>
      </trkpt>
      <trkpt lat="54.50407" lon="16.50316">
        <ele>36.078978</ele>
        <time>2024-07-31T09:30:37.814Z</time>
      </trkpt>
      <trkpt lat="54.50417" lon="16.50304">
        <ele>36.163859</ele>
        <time>2024-07-31T09:30:41.795Z</time>
      </trkpt>
      <trkpt lat="54.50426" lon="16.50292">
        <ele>36.246658</ele>
        <time>2024-07-31T09:30:45.789Z</time>
      </trkpt>
      <trkpt lat="54.50435" lon="16.50279">
        <ele>36.33147</ele>
        <time>2024-07-31T09:30:49.800Z</time>
      </trkpt>
      <trkpt lat="54.50444" lon="16.50267">
        <ele>36.416026</ele>
        <time>2024-07-31T09:30:53.802Z</time>
      </trkpt>
      <trkpt lat="54.50454" lon="16.50255">
        <ele>36.501238</ele>
        <time>2024-07-31T09:30:57.797Z</time>
      </trkpt>
      <trkpt lat="54.50463" lon="16.50243">
        <ele>36.58645</ele>
        <time>2024-07-31T09:31:01.799Z</time>
      </trkpt>
      <trkpt lat="54.50471" lon="16.50233">
        <ele>36.653395</ele>
        <time>2024-07-31T09:31:04.791Z</time>
      </trkpt>
      <trkpt lat="54.50478" lon="16.50223">
        <ele>36.721949</ele>
        <time>2024-07-31T09:31:07.799Z</time>
      </trkpt>
      <trkpt lat="54.50485" lon="16.50214">
        <ele>36.789537</ele>
        <time>2024-07-31T09:31:10.798Z</time>
      </trkpt>
      <trkpt lat="54.50493" lon="16.50204">
        <ele>36.857956</ele>
        <time>2024-07-31T09:31:13.788Z</time>
      </trkpt>
      <trkpt lat="54.50501" lon="16.50195">
        <ele>36.92622</ele>
        <time>2024-07-31T09:31:16.814Z</time>
      </trkpt>
      <trkpt lat="54.50509" lon="16.50185">
        <ele>37.000204</ele>
        <time>2024-07-31T09:31:19.796Z</time>
      </trkpt>
      <trkpt lat="54.50518" lon="16.50177">
        <ele>37.073911</ele>
        <time>2024-07-31T09:31:22.810Z</time>
      </trkpt>
      <trkpt lat="54.50528" lon="16.50167">
        <ele>37.152118</ele>
        <time>2024-07-31T09:31:25.804Z</time>
      </trkpt>
      <trkpt lat="54.50536" lon="16.50158">
        <ele>37.18533</ele>
        <time>2024-07-31T09:31:28.815Z</time>
      </trkpt>
      <trkpt lat="54.50548" lon="16.50147">
        <ele>37.049901</ele>
        <time>2024-07-31T09:31:31.798Z</time>
      </trkpt>
      <trkpt lat="54.50556" lon="16.50139">
        <ele>36.955222</ele>
        <time>2024-07-31T09:31:33.807Z</time>
      </trkpt>
      <trkpt lat="54.50564" lon="16.50131">
        <ele>36.862692</ele>
        <time>2024-07-31T09:31:35.803Z</time>
      </trkpt>
      <trkpt lat="54.50572" lon="16.50124">
        <ele>36.765084</ele>
        <time>2024-07-31T09:31:37.807Z</time>
      </trkpt>
      <trkpt lat="54.50584" lon="16.50113">
        <ele>36.631009</ele>
        <time>2024-07-31T09:31:40.799Z</time>
      </trkpt>
      <trkpt lat="54.50595" lon="16.50102">
        <ele>36.495465</ele>
        <time>2024-07-31T09:31:43.805Z</time>
      </trkpt>
      <trkpt lat="54.50607" lon="16.50091">
        <ele>36.361714</ele>
        <time>2024-07-31T09:31:46.807Z</time>
      </trkpt>
      <trkpt lat="54.50618" lon="16.5008">
        <ele>36.226453</ele>
        <time>2024-07-31T09:31:49.816Z</time>
      </trkpt>
      <trkpt lat="54.50626" lon="16.50072">
        <ele>36.13268</ele>
        <time>2024-07-31T09:31:51.803Z</time>
      </trkpt>
      <trkpt lat="54.50634" lon="16.50065">
        <ele>36.039721</ele>
        <time>2024-07-31T09:31:53.809Z</time>
      </trkpt>
      <trkpt lat="54.50646" lon="16.50056">
        <ele>35.903807</ele>
        <time>2024-07-31T09:31:56.795Z</time>
      </trkpt>
      <trkpt lat="54.50657" lon="16.50046">
        <ele>35.775408</ele>
        <time>2024-07-31T09:31:59.801Z</time>
      </trkpt>
      <trkpt lat="54.50666" lon="16.50032">
        <ele>35.654891</ele>
        <time>2024-07-31T09:32:02.788Z</time>
      </trkpt>
      <trkpt lat="54.5067" lon="16.50013">
        <ele>35.534923</ele>
        <time>2024-07-31T09:32:05.799Z</time>
      </trkpt>
      <trkpt lat="54.50674" lon="16.49996">
        <ele>35.428169</ele>
        <time>2024-07-31T09:32:08.824Z</time>
      </trkpt>
      <trkpt lat="54.50677" lon="16.49979">
        <ele>35.344479</ele>
        <time>2024-07-31T09:32:11.780Z</time>
      </trkpt>
      <trkpt lat="54.5068" lon="16.49963">
        <ele>35.293676</ele>
        <time>2024-07-31T09:32:14.808Z</time>
      </trkpt>
      <trkpt lat="54.50685" lon="16.4995">
        <ele>35.247169</ele>
        <time>2024-07-31T09:32:17.814Z</time>
      </trkpt>
      <trkpt lat="54.50692" lon="16.49936">
        <ele>35.193795</ele>
        <time>2024-07-31T09:32:20.797Z</time>
      </trkpt>
      <trkpt lat="54.50701" lon="16.49926">
        <ele>35.140362</ele>
        <time>2024-07-31T09:32:23.797Z</time>
      </trkpt>
      <trkpt lat="54.5071" lon="16.49925">
        <ele>35.091069</ele>
        <time>2024-07-31T09:32:26.790Z</time>
      </trkpt>
      <trkpt lat="54.50721" lon="16.49932">
        <ele>35.032578</ele>
        <time>2024-07-31T09:32:30.794Z</time>
      </trkpt>
      <trkpt lat="54.5073" lon="16.49943">
        <ele>34.977972</ele>
        <time>2024-07-31T09:32:34.786Z</time>
      </trkpt>
      <trkpt lat="54.50737" lon="16.49952">
        <ele>34.931949</ele>
        <time>2024-07-31T09:32:37.808Z</time>
      </trkpt>
      <trkpt lat="54.50746" lon="16.49965">
        <ele>34.872335</ele>
        <time>2024-07-31T09:32:41.803Z</time>
      </trkpt>
      <trkpt lat="54.50754" lon="16.49977">
        <ele>34.817984</ele>
        <time>2024-07-31T09:32:45.799Z</time>
      </trkpt>
      <trkpt lat="54.50762" lon="16.49987">
        <ele>34.769364</ele>
        <time>2024-07-31T09:32:50.804Z</time>
      </trkpt>
      <trkpt lat="54.50761" lon="16.50005">
        <ele>34.716598</ele>
        <time>2024-07-31T09:32:55.822Z</time>
      </trkpt>
      <trkpt lat="54.5076" lon="16.50025">
        <ele>34.656256</ele>
        <time>2024-07-31T09:32:59.809Z</time>
      </trkpt>
      <trkpt lat="54.50759" lon="16.50041">
        <ele>34.61001</ele>
        <time>2024-07-31T09:33:02.801Z</time>
      </trkpt>
      <trkpt lat="54.50757" lon="16.50057">
        <ele>34.560779</ele>
        <time>2024-07-31T09:33:05.801Z</time>
      </trkpt>
      <trkpt lat="54.50756" lon="16.50074">
        <ele>34.511921</ele>
        <time>2024-07-31T09:33:08.838Z</time>
      </trkpt>
      <trkpt lat="54.50754" lon="16.5009">
        <ele>34.463644</ele>
        <time>2024-07-31T09:33:11.812Z</time>
      </trkpt>
      <trkpt lat="54.50753" lon="16.50107">
        <ele>34.621715</ele>
        <time>2024-07-31T09:33:14.791Z</time>
      </trkpt>
      <trkpt lat="54.50752" lon="16.50124">
        <ele>34.835041</ele>
        <time>2024-07-31T09:33:17.815Z</time>
      </trkpt>
      <trkpt lat="54.50752" lon="16.50141">
        <ele>35.050642</ele>
        <time>2024-07-31T09:33:20.797Z</time>
      </trkpt>
      <trkpt lat="54.50754" lon="16.50157">
        <ele>35.256122</ele>
        <time>2024-07-31T09:33:23.786Z</time>
      </trkpt>
      <trkpt lat="54.50756" lon="16.50174">
        <ele>35.472717</ele>
        <time>2024-07-31T09:33:26.795Z</time>
      </trkpt>
      <trkpt lat="54.50759" lon="16.5019">
        <ele>35.688209</ele>
        <time>2024-07-31T09:33:29.802Z</time>
      </trkpt>
      <trkpt lat="54.50763" lon="16.50207">
        <ele>35.909985</ele>
        <time>2024-07-31T09:33:32.788Z</time>
      </trkpt>
      <trkpt lat="54.50767" lon="16.50224">
        <ele>36.138688</ele>
        <time>2024-07-31T09:33:35.822Z</time>
      </trkpt>
      <trkpt lat="54.50771" lon="16.50241">
        <ele>36.369325</ele>
        <time>2024-07-31T09:33:38.841Z</time>
      </trkpt>
      <trkpt lat="54.50774" lon="16.50258">
        <ele>36.593833</ele>
        <time>2024-07-31T09:33:41.809Z</time>
      </trkpt>
      <trkpt lat="54.50776" lon="16.50274">
        <ele>36.805276</ele>
        <time>2024-07-31T09:33:44.810Z</time>
      </trkpt>
      <trkpt lat="54.50778" lon="16.50292">
        <ele>37.022698</ele>
        <time>2024-07-31T09:33:47.805Z</time>
      </trkpt>
      <trkpt lat="54.50779" lon="16.5031">
        <ele>37.249764</ele>
        <time>2024-07-31T09:33:50.801Z</time>
      </trkpt>
      <trkpt lat="54.5078" lon="16.50327">
        <ele>37.4741</ele>
        <time>2024-07-31T09:33:53.817Z</time>
      </trkpt>
      <trkpt lat="54.50784" lon="16.50344">
        <ele>37.697555</ele>
        <time>2024-07-31T09:33:56.779Z</time>
      </trkpt>
      <trkpt lat="54.50789" lon="16.50359">
        <ele>37.919761</ele>
        <time>2024-07-31T09:34:01.807Z</time>
      </trkpt>
      <trkpt lat="54.50792" lon="16.50376">
        <ele>38.140682</ele>
        <time>2024-07-31T09:34:05.797Z</time>
      </trkpt>
      <trkpt lat="54.50793" lon="16.50392">
        <ele>38.347885</ele>
        <time>2024-07-31T09:34:09.791Z</time>
      </trkpt>
      <trkpt lat="54.50795" lon="16.50411">
        <ele>38.792678</ele>
        <time>2024-07-31T09:34:14.770Z</time>
      </trkpt>
      <trkpt lat="54.50798" lon="16.50429">
        <ele>39.21968</ele>
        <time>2024-07-31T09:34:19.800Z</time>
      </trkpt>
      <trkpt lat="54.50801" lon="16.50446">
        <ele>39.621194</ele>
        <time>2024-07-31T09:34:24.817Z</time>
      </trkpt>
      <trkpt lat="54.50804" lon="16.50464">
        <ele>40.05062</ele>
        <time>2024-07-31T09:34:29.788Z</time>
      </trkpt>
      <trkpt lat="54.50808" lon="16.5048">
        <ele>40.452441</ele>
        <time>2024-07-31T09:34:34.807Z</time>
      </trkpt>
      <trkpt lat="54.50813" lon="16.50495">
        <ele>40.860864</ele>
        <time>2024-07-31T09:34:39.805Z</time>
      </trkpt>
      <trkpt lat="54.50817" lon="16.5051">
        <ele>41.227296</ele>
        <time>2024-07-31T09:34:43.802Z</time>
      </trkpt>
      <trkpt lat="54.5082" lon="16.50525">
        <ele>41.607547</ele>
        <time>2024-07-31T09:34:47.807Z</time>
      </trkpt>
      <trkpt lat="54.50823" lon="16.5054">
        <ele>41.981695</ele>
        <time>2024-07-31T09:34:51.812Z</time>
      </trkpt>
      <trkpt lat="54.50826" lon="16.50556">
        <ele>42.348965</ele>
        <time>2024-07-31T09:34:55.800Z</time>
      </trkpt>
      <trkpt lat="54.50829" lon="16.50571">
        <ele>42.716568</ele>
        <time>2024-07-31T09:34:59.787Z</time>
      </trkpt>
      <trkpt lat="54.50833" lon="16.50589">
        <ele>43.162905</ele>
        <time>2024-07-31T09:35:04.796Z</time>
      </trkpt>
      <trkpt lat="54.50836" lon="16.50604">
        <ele>43.519631</ele>
        <time>2024-07-31T09:35:08.802Z</time>
      </trkpt>
      <trkpt lat="54.50838" lon="16.50619">
        <ele>43.881597</ele>
        <time>2024-07-31T09:35:12.806Z</time>
      </trkpt>
      <trkpt lat="54.50843" lon="16.50636">
        <ele>44.325663</ele>
        <time>2024-07-31T09:35:17.795Z</time>
      </trkpt>
      <trkpt lat="54.50849" lon="16.50652">
        <ele>44.769811</ele>
        <time>2024-07-31T09:35:22.814Z</time>
      </trkpt>
      <trkpt lat="54.50856" lon="16.50667">
        <ele>45.214881</ele>
        <time>2024-07-31T09:35:27.798Z</time>
      </trkpt>
      <trkpt lat="54.50861" lon="16.50681">
        <ele>45.60524</ele>
        <time>2024-07-31T09:35:31.787Z</time>
      </trkpt>
      <trkpt lat="54.50867" lon="16.50697">
        <ele>46.058015</ele>
        <time>2024-07-31T09:35:37.797Z</time>
      </trkpt>
      <trkpt lat="54.50872" lon="16.50711">
        <ele>46.472137</ele>
        <time>2024-07-31T09:35:41.795Z</time>
      </trkpt>
      <trkpt lat="54.50878" lon="16.50723">
        <ele>46.863875</ele>
        <time>2024-07-31T09:35:45.785Z</time>
      </trkpt>
      <trkpt lat="54.50884" lon="16.50736">
        <ele>47.271184</ele>
        <time>2024-07-31T09:35:49.795Z</time>
      </trkpt>
      <trkpt lat="54.50889" lon="16.5075">
        <ele>47.682081</ele>
        <time>2024-07-31T09:35:53.779Z</time>
      </trkpt>
      <trkpt lat="54.50894" lon="16.50763">
        <ele>48.072312</ele>
        <time>2024-07-31T09:35:57.805Z</time>
      </trkpt>
      <trkpt lat="54.50899" lon="16.50777">
        <ele>48.475587</ele>
        <time>2024-07-31T09:36:01.821Z</time>
      </trkpt>
      <trkpt lat="54.50904" lon="16.50791">
        <ele>48.882014</ele>
        <time>2024-07-31T09:36:05.802Z</time>
      </trkpt>
      <trkpt lat="54.5091" lon="16.50804">
        <ele>49.286033</ele>
        <time>2024-07-31T09:36:09.809Z</time>
      </trkpt>
      <trkpt lat="54.50915" lon="16.50817">
        <ele>49.681499</ele>
        <time>2024-07-31T09:36:13.798Z</time>
      </trkpt>
      <trkpt lat="54.5092" lon="16.5083">
        <ele>50.064325</ele>
        <time>2024-07-31T09:36:17.802Z</time>
      </trkpt>
      <trkpt lat="54.50925" lon="16.50843">
        <ele>50.468711</ele>
        <time>2024-07-31T09:36:21.817Z</time>
      </trkpt>
      <trkpt lat="54.50931" lon="16.50857">
        <ele>50.884319</ele>
        <time>2024-07-31T09:36:25.805Z</time>
      </trkpt>
      <trkpt lat="54.50938" lon="16.50869">
        <ele>51.290114</ele>
        <time>2024-07-31T09:36:29.822Z</time>
      </trkpt>
      <trkpt lat="54.50943" lon="16.50881">
        <ele>51.675305</ele>
        <time>2024-07-31T09:36:33.808Z</time>
      </trkpt>
      <trkpt lat="54.50949" lon="16.50893">
        <ele>52.05968</ele>
        <time>2024-07-31T09:36:37.786Z</time>
      </trkpt>
      <trkpt lat="54.50957" lon="16.50906">
        <ele>52.517558</ele>
        <time>2024-07-31T09:36:42.803Z</time>
      </trkpt>
      <trkpt lat="54.50967" lon="16.50912">
        <ele>52.969094</ele>
        <time>2024-07-31T09:36:47.798Z</time>
      </trkpt>
      <trkpt lat="54.50981" lon="16.50919">
        <ele>53.460769</ele>
        <time>2024-07-31T09:37:49.792Z</time>
      </trkpt>
      <trkpt lat="54.50989" lon="16.50929">
        <ele>53.765662</ele>
        <time>2024-07-31T09:37:54.806Z</time>
      </trkpt>
      <trkpt lat="54.51" lon="16.50937">
        <ele>54.11109</ele>
        <time>2024-07-31T09:37:58.819Z</time>
      </trkpt>
      <trkpt lat="54.5101" lon="16.50943">
        <ele>54.441381</ele>
        <time>2024-07-31T09:38:02.796Z</time>
      </trkpt>
      <trkpt lat="54.5102" lon="16.50948">
        <ele>54.727572</ele>
        <time>2024-07-31T09:38:05.780Z</time>
      </trkpt>
      <trkpt lat="54.51029" lon="16.50951">
        <ele>55.016899</ele>
        <time>2024-07-31T09:38:08.840Z</time>
      </trkpt>
      <trkpt lat="54.51038" lon="16.50957">
        <ele>55.303193</ele>
        <time>2024-07-31T09:38:11.801Z</time>
      </trkpt>
      <trkpt lat="54.51047" lon="16.50963">
        <ele>55.583963</ele>
        <time>2024-07-31T09:38:14.791Z</time>
      </trkpt>
      <trkpt lat="54.51057" lon="16.50968">
        <ele>55.885292</ele>
        <time>2024-07-31T09:38:17.803Z</time>
      </trkpt>
      <trkpt lat="54.51067" lon="16.50975">
        <ele>56.210898</ele>
        <time>2024-07-31T09:38:20.791Z</time>
      </trkpt>
      <trkpt lat="54.51077" lon="16.50985">
        <ele>56.542</ele>
        <time>2024-07-31T09:38:23.791Z</time>
      </trkpt>
      <trkpt lat="54.51085" lon="16.50997">
        <ele>56.862318</ele>
        <time>2024-07-31T09:38:26.807Z</time>
      </trkpt>
      <trkpt lat="54.51093" lon="16.51009">
        <ele>57.174876</ele>
        <time>2024-07-31T09:38:29.785Z</time>
      </trkpt>
      <trkpt lat="54.511" lon="16.51021">
        <ele>57.474031</ele>
        <time>2024-07-31T09:38:32.784Z</time>
      </trkpt>
      <trkpt lat="54.51107" lon="16.51033">
        <ele>57.769449</ele>
        <time>2024-07-31T09:38:35.803Z</time>
      </trkpt>
      <trkpt lat="54.51114" lon="16.51046">
        <ele>58.082645</ele>
        <time>2024-07-31T09:38:38.843Z</time>
      </trkpt>
      <trkpt lat="54.51122" lon="16.51059">
        <ele>58.409779</ele>
        <time>2024-07-31T09:38:41.798Z</time>
      </trkpt>
      <trkpt lat="54.51127" lon="16.51074">
        <ele>58.423927</ele>
        <time>2024-07-31T09:38:44.795Z</time>
      </trkpt>
      <trkpt lat="54.51131" lon="16.5109">
        <ele>58.338757</ele>
        <time>2024-07-31T09:38:47.796Z</time>
      </trkpt>
      <trkpt lat="54.51136" lon="16.51107">
        <ele>58.248344</ele>
        <time>2024-07-31T09:38:50.794Z</time>
      </trkpt>
      <trkpt lat="54.5114" lon="16.51124">
        <ele>58.157638</ele>
        <time>2024-07-31T09:38:53.805Z</time>
      </trkpt>
      <trkpt lat="54.51145" lon="16.51143">
        <ele>58.057183</ele>
        <time>2024-07-31T09:38:56.786Z</time>
      </trkpt>
      <trkpt lat="54.5115" lon="16.51162">
        <ele>57.953274</ele>
        <time>2024-07-31T09:38:59.804Z</time>
      </trkpt>
      <trkpt lat="54.51154" lon="16.51176">
        <ele>57.873257</ele>
        <time>2024-07-31T09:39:01.795Z</time>
      </trkpt>
      <trkpt lat="54.5116" lon="16.51192">
        <ele>57.78368</ele>
        <time>2024-07-31T09:39:03.783Z</time>
      </trkpt>
      <trkpt lat="54.51167" lon="16.51208">
        <ele>57.684133</ele>
        <time>2024-07-31T09:39:05.803Z</time>
      </trkpt>
      <trkpt lat="54.51174" lon="16.51226">
        <ele>57.580097</ele>
        <time>2024-07-31T09:39:07.790Z</time>
      </trkpt>
      <trkpt lat="54.51182" lon="16.51244">
        <ele>57.465989</ele>
        <time>2024-07-31T09:39:09.799Z</time>
      </trkpt>
      <trkpt lat="54.51191" lon="16.51264">
        <ele>57.348296</ele>
        <time>2024-07-31T09:39:11.804Z</time>
      </trkpt>
      <trkpt lat="54.51199" lon="16.51284">
        <ele>57.226166</ele>
        <time>2024-07-31T09:39:13.810Z</time>
      </trkpt>
      <trkpt lat="54.51207" lon="16.51303">
        <ele>57.110472</ele>
        <time>2024-07-31T09:39:15.802Z</time>
      </trkpt>
      <trkpt lat="54.51215" lon="16.51322">
        <ele>56.998148</ele>
        <time>2024-07-31T09:39:17.800Z</time>
      </trkpt>
      <trkpt lat="54.51223" lon="16.51339">
        <ele>57.008687</ele>
        <time>2024-07-31T09:39:19.797Z</time>
      </trkpt>
      <trkpt lat="54.5123" lon="16.51358">
        <ele>57.056329</ele>
        <time>2024-07-31T09:39:21.807Z</time>
      </trkpt>
      <trkpt lat="54.51236" lon="16.51375">
        <ele>57.099552</ele>
        <time>2024-07-31T09:39:23.793Z</time>
      </trkpt>
      <trkpt lat="54.5124" lon="16.51391">
        <ele>57.138719</ele>
        <time>2024-07-31T09:39:25.790Z</time>
      </trkpt>
      <trkpt lat="54.51244" lon="16.51406">
        <ele>57.174287</ele>
        <time>2024-07-31T09:39:27.784Z</time>
      </trkpt>
      <trkpt lat="54.51249" lon="16.51425">
        <ele>57.219329</ele>
        <time>2024-07-31T09:39:30.808Z</time>
      </trkpt>
      <trkpt lat="54.51253" lon="16.51443">
        <ele>57.260282</ele>
        <time>2024-07-31T09:39:33.804Z</time>
      </trkpt>
      <trkpt lat="54.51257" lon="16.51459">
        <ele>57.300524</ele>
        <time>2024-07-31T09:39:36.803Z</time>
      </trkpt>
      <trkpt lat="54.51261" lon="16.51475">
        <ele>57.33882</ele>
        <time>2024-07-31T09:39:39.789Z</time>
      </trkpt>
      <trkpt lat="54.51266" lon="16.51492">
        <ele>57.378817</ele>
        <time>2024-07-31T09:39:42.772Z</time>
      </trkpt>
      <trkpt lat="54.51269" lon="16.5151">
        <ele>57.419869</ele>
        <time>2024-07-31T09:39:45.806Z</time>
      </trkpt>
      <trkpt lat="54.51273" lon="16.51528">
        <ele>57.46241</ele>
        <time>2024-07-31T09:39:48.841Z</time>
      </trkpt>
      <trkpt lat="54.51277" lon="16.51546">
        <ele>57.503567</ele>
        <time>2024-07-31T09:39:51.805Z</time>
      </trkpt>
      <trkpt lat="54.51282" lon="16.51564">
        <ele>57.545815</ele>
        <time>2024-07-31T09:39:54.792Z</time>
      </trkpt>
      <trkpt lat="54.51286" lon="16.51583">
        <ele>57.591259</ele>
        <time>2024-07-31T09:39:57.807Z</time>
      </trkpt>
      <trkpt lat="54.51291" lon="16.51602">
        <ele>57.637307</ele>
        <time>2024-07-31T09:40:00.800Z</time>
      </trkpt>
      <trkpt lat="54.51296" lon="16.51622">
        <ele>57.384152</ele>
        <time>2024-07-31T09:40:03.810Z</time>
      </trkpt>
      <trkpt lat="54.51299" lon="16.51637">
        <ele>57.142902</ele>
        <time>2024-07-31T09:40:05.783Z</time>
      </trkpt>
      <trkpt lat="54.51303" lon="16.51652">
        <ele>56.896529</ele>
        <time>2024-07-31T09:40:07.795Z</time>
      </trkpt>
      <trkpt lat="54.51307" lon="16.51668">
        <ele>56.642724</ele>
        <time>2024-07-31T09:40:09.800Z</time>
      </trkpt>
      <trkpt lat="54.51311" lon="16.51684">
        <ele>56.374739</ele>
        <time>2024-07-31T09:40:11.792Z</time>
      </trkpt>
      <trkpt lat="54.51315" lon="16.51702">
        <ele>56.087762</ele>
        <time>2024-07-31T09:40:13.802Z</time>
      </trkpt>
      <trkpt lat="54.5132" lon="16.51721">
        <ele>55.787716</ele>
        <time>2024-07-31T09:40:15.796Z</time>
      </trkpt>
      <trkpt lat="54.51324" lon="16.5174">
        <ele>55.476732</ele>
        <time>2024-07-31T09:40:17.795Z</time>
      </trkpt>
      <trkpt lat="54.51329" lon="16.51758">
        <ele>55.174411</ele>
        <time>2024-07-31T09:40:19.808Z</time>
      </trkpt>
      <trkpt lat="54.51333" lon="16.51778">
        <ele>54.857501</ele>
        <time>2024-07-31T09:40:21.786Z</time>
      </trkpt>
      <trkpt lat="54.51337" lon="16.51799">
        <ele>54.532312</ele>
        <time>2024-07-31T09:40:23.774Z</time>
      </trkpt>
      <trkpt lat="54.51339" lon="16.51821">
        <ele>54.190433</ele>
        <time>2024-07-31T09:40:25.788Z</time>
      </trkpt>
      <trkpt lat="54.51342" lon="16.51844">
        <ele>53.844835</ele>
        <time>2024-07-31T09:40:27.788Z</time>
      </trkpt>
      <trkpt lat="54.51345" lon="16.51867">
        <ele>53.483836</ele>
        <time>2024-07-31T09:40:29.800Z</time>
      </trkpt>
      <trkpt lat="54.51348" lon="16.5189">
        <ele>53.126549</ele>
        <time>2024-07-31T09:40:31.795Z</time>
      </trkpt>
      <trkpt lat="54.51352" lon="16.51913">
        <ele>52.760806</ele>
        <time>2024-07-31T09:40:33.808Z</time>
      </trkpt>
      <trkpt lat="54.51356" lon="16.5193">
        <ele>52.467536</ele>
        <time>2024-07-31T09:40:35.815Z</time>
      </trkpt>
      <trkpt lat="54.51361" lon="16.51944">
        <ele>52.213115</ele>
        <time>2024-07-31T09:40:39.806Z</time>
      </trkpt>
      <trkpt lat="54.51364" lon="16.51948">
        <ele>52.109248</ele>
        <time>2024-07-31T09:40:48.297Z</time>
      </trkpt>
      <trkpt lat="54.51372" lon="16.51966">
        <ele>51.771113</ele>
        <time>2024-07-31T09:42:13.786Z</time>
      </trkpt>
      <trkpt lat="54.51375" lon="16.51981">
        <ele>51.512375</ele>
        <time>2024-07-31T09:42:16.807Z</time>
      </trkpt>
      <trkpt lat="54.5138" lon="16.51999">
        <ele>51.208259</ele>
        <time>2024-07-31T09:42:19.825Z</time>
      </trkpt>
      <trkpt lat="54.51385" lon="16.52018">
        <ele>50.877821</ele>
        <time>2024-07-31T09:42:22.791Z</time>
      </trkpt>
      <trkpt lat="54.51389" lon="16.52032">
        <ele>50.624083</ele>
        <time>2024-07-31T09:42:24.814Z</time>
      </trkpt>
      <trkpt lat="54.51394" lon="16.52047">
        <ele>50.356183</ele>
        <time>2024-07-31T09:42:26.794Z</time>
      </trkpt>
      <trkpt lat="54.51399" lon="16.52063">
        <ele>50.073024</ele>
        <time>2024-07-31T09:42:28.816Z</time>
      </trkpt>
      <trkpt lat="54.51405" lon="16.52079">
        <ele>49.780764</ele>
        <time>2024-07-31T09:42:30.801Z</time>
      </trkpt>
      <trkpt lat="54.5141" lon="16.52096">
        <ele>49.474963</ele>
        <time>2024-07-31T09:42:32.812Z</time>
      </trkpt>
      <trkpt lat="54.51417" lon="16.52114">
        <ele>49.151377</ele>
        <time>2024-07-31T09:42:34.774Z</time>
      </trkpt>
      <trkpt lat="54.51423" lon="16.52132">
        <ele>48.815736</ele>
        <time>2024-07-31T09:42:36.811Z</time>
      </trkpt>
      <trkpt lat="54.5143" lon="16.5215">
        <ele>48.479577</ele>
        <time>2024-07-31T09:42:38.801Z</time>
      </trkpt>
      <trkpt lat="54.51439" lon="16.52166">
        <ele>48.137549</ele>
        <time>2024-07-31T09:42:40.786Z</time>
      </trkpt>
      <trkpt lat="54.51451" lon="16.52175">
        <ele>47.902055</ele>
        <time>2024-07-31T09:42:42.794Z</time>
      </trkpt>
      <trkpt lat="54.51462" lon="16.52181">
        <ele>47.678625</ele>
        <time>2024-07-31T09:42:44.782Z</time>
      </trkpt>
      <trkpt lat="54.51472" lon="16.52191">
        <ele>47.471737</ele>
        <time>2024-07-31T09:42:46.802Z</time>
      </trkpt>
      <trkpt lat="54.5148" lon="16.52203">
        <ele>47.274595</ele>
        <time>2024-07-31T09:42:48.794Z</time>
      </trkpt>
      <trkpt lat="54.51486" lon="16.52217">
        <ele>47.090612</ele>
        <time>2024-07-31T09:42:50.777Z</time>
      </trkpt>
      <trkpt lat="54.51489" lon="16.52232">
        <ele>46.912146</ele>
        <time>2024-07-31T09:42:52.789Z</time>
      </trkpt>
      <trkpt lat="54.51492" lon="16.52248">
        <ele>46.735729</ele>
        <time>2024-07-31T09:42:54.788Z</time>
      </trkpt>
      <trkpt lat="54.51495" lon="16.52264">
        <ele>46.562968</ele>
        <time>2024-07-31T09:42:56.792Z</time>
      </trkpt>
      <trkpt lat="54.51498" lon="16.52279">
        <ele>46.392074</ele>
        <time>2024-07-31T09:42:58.825Z</time>
      </trkpt>
      <trkpt lat="54.515" lon="16.52295">
        <ele>46.210571</ele>
        <time>2024-07-31T09:43:00.795Z</time>
      </trkpt>
      <trkpt lat="54.51504" lon="16.52312">
        <ele>46.023092</ele>
        <time>2024-07-31T09:43:02.797Z</time>
      </trkpt>
      <trkpt lat="54.51507" lon="16.52329">
        <ele>45.832835</ele>
        <time>2024-07-31T09:43:04.795Z</time>
      </trkpt>
      <trkpt lat="54.5151" lon="16.52346">
        <ele>45.63464</ele>
        <time>2024-07-31T09:43:06.778Z</time>
      </trkpt>
      <trkpt lat="54.51514" lon="16.52365">
        <ele>45.421481</ele>
        <time>2024-07-31T09:43:08.810Z</time>
      </trkpt>
      <trkpt lat="54.51518" lon="16.52384">
        <ele>45.2067</ele>
        <time>2024-07-31T09:43:10.801Z</time>
      </trkpt>
      <trkpt lat="54.51521" lon="16.52403">
        <ele>44.98971</ele>
        <time>2024-07-31T09:43:12.806Z</time>
      </trkpt>
      <trkpt lat="54.51525" lon="16.52423">
        <ele>44.760635</ele>
        <time>2024-07-31T09:43:14.800Z</time>
      </trkpt>
      <trkpt lat="54.51529" lon="16.52442">
        <ele>44.511488</ele>
        <time>2024-07-31T09:43:16.799Z</time>
      </trkpt>
      <trkpt lat="54.51533" lon="16.5246">
        <ele>44.27109</ele>
        <time>2024-07-31T09:43:18.811Z</time>
      </trkpt>
      <trkpt lat="54.51537" lon="16.52479">
        <ele>44.031549</ele>
        <time>2024-07-31T09:43:20.796Z</time>
      </trkpt>
      <trkpt lat="54.5154" lon="16.52498">
        <ele>43.785087</ele>
        <time>2024-07-31T09:43:22.771Z</time>
      </trkpt>
      <trkpt lat="54.51544" lon="16.52518">
        <ele>43.532654</ele>
        <time>2024-07-31T09:43:24.791Z</time>
      </trkpt>
      <trkpt lat="54.51548" lon="16.52538">
        <ele>43.27751</ele>
        <time>2024-07-31T09:43:26.787Z</time>
      </trkpt>
      <trkpt lat="54.51552" lon="16.52558">
        <ele>43.022757</ele>
        <time>2024-07-31T09:43:28.803Z</time>
      </trkpt>
      <trkpt lat="54.51556" lon="16.52577">
        <ele>42.765317</ele>
        <time>2024-07-31T09:43:30.801Z</time>
      </trkpt>
      <trkpt lat="54.5156" lon="16.52598">
        <ele>42.501867</ele>
        <time>2024-07-31T09:43:32.802Z</time>
      </trkpt>
      <trkpt lat="54.51564" lon="16.52619">
        <ele>42.231255</ele>
        <time>2024-07-31T09:43:34.792Z</time>
      </trkpt>
      <trkpt lat="54.51568" lon="16.52639">
        <ele>41.971052</ele>
        <time>2024-07-31T09:43:36.775Z</time>
      </trkpt>
      <trkpt lat="54.51572" lon="16.5266">
        <ele>41.704568</ele>
        <time>2024-07-31T09:43:38.816Z</time>
      </trkpt>
      <trkpt lat="54.51576" lon="16.52681">
        <ele>41.437432</ele>
        <time>2024-07-31T09:43:40.809Z</time>
      </trkpt>
      <trkpt lat="54.5158" lon="16.52702">
        <ele>41.164628</ele>
        <time>2024-07-31T09:43:42.805Z</time>
      </trkpt>
      <trkpt lat="54.51582" lon="16.52722">
        <ele>41.071568</ele>
        <time>2024-07-31T09:43:44.794Z</time>
      </trkpt>
      <trkpt lat="54.51585" lon="16.52744">
        <ele>41.104454</ele>
        <time>2024-07-31T09:43:46.789Z</time>
      </trkpt>
      <trkpt lat="54.51586" lon="16.52764">
        <ele>41.135118</ele>
        <time>2024-07-31T09:43:48.806Z</time>
      </trkpt>
      <trkpt lat="54.51587" lon="16.52784">
        <ele>41.165005</ele>
        <time>2024-07-31T09:43:50.802Z</time>
      </trkpt>
      <trkpt lat="54.51588" lon="16.52803">
        <ele>41.194414</ele>
        <time>2024-07-31T09:43:52.815Z</time>
      </trkpt>
      <trkpt lat="54.51589" lon="16.52822">
        <ele>41.2235</ele>
        <time>2024-07-31T09:43:54.779Z</time>
      </trkpt>
      <trkpt lat="54.5159" lon="16.52841">
        <ele>41.251233</ele>
        <time>2024-07-31T09:43:56.778Z</time>
      </trkpt>
      <trkpt lat="54.51591" lon="16.52858">
        <ele>41.277984</ele>
        <time>2024-07-31T09:43:58.800Z</time>
      </trkpt>
      <trkpt lat="54.51592" lon="16.52875">
        <ele>41.303442</ele>
        <time>2024-07-31T09:44:00.800Z</time>
      </trkpt>
      <trkpt lat="54.51595" lon="16.52897">
        <ele>41.337764</ele>
        <time>2024-07-31T09:44:03.781Z</time>
      </trkpt>
      <trkpt lat="54.51596" lon="16.5292">
        <ele>41.372331</ele>
        <time>2024-07-31T09:44:06.805Z</time>
      </trkpt>
      <trkpt lat="54.51598" lon="16.52937">
        <ele>41.39772</ele>
        <time>2024-07-31T09:44:08.806Z</time>
      </trkpt>
      <trkpt lat="54.51599" lon="16.52953">
        <ele>41.422329</ele>
        <time>2024-07-31T09:44:10.801Z</time>
      </trkpt>
      <trkpt lat="54.516" lon="16.52969">
        <ele>41.446295</ele>
        <time>2024-07-31T09:44:12.786Z</time>
      </trkpt>
      <trkpt lat="54.51601" lon="16.52984">
        <ele>41.469739</ele>
        <time>2024-07-31T09:44:14.794Z</time>
      </trkpt>
      <trkpt lat="54.51602" lon="16.53001">
        <ele>41.495243</ele>
        <time>2024-07-31T09:44:16.815Z</time>
      </trkpt>
      <trkpt lat="54.51603" lon="16.53017">
        <ele>41.518872</ele>
        <time>2024-07-31T09:44:18.800Z</time>
      </trkpt>
      <trkpt lat="54.51604" lon="16.53033">
        <ele>41.575997</ele>
        <time>2024-07-31T09:44:20.808Z</time>
      </trkpt>
      <trkpt lat="54.51605" lon="16.53049">
        <ele>41.637455</ele>
        <time>2024-07-31T09:44:22.799Z</time>
      </trkpt>
      <trkpt lat="54.51606" lon="16.53065">
        <ele>41.696713</ele>
        <time>2024-07-31T09:44:24.785Z</time>
      </trkpt>
      <trkpt lat="54.51607" lon="16.53082">
        <ele>41.758393</ele>
        <time>2024-07-31T09:44:26.808Z</time>
      </trkpt>
      <trkpt lat="54.51608" lon="16.53098">
        <ele>41.819705</ele>
        <time>2024-07-31T09:44:28.815Z</time>
      </trkpt>
      <trkpt lat="54.51609" lon="16.53116">
        <ele>41.883109</ele>
        <time>2024-07-31T09:44:30.793Z</time>
      </trkpt>
      <trkpt lat="54.5161" lon="16.53132">
        <ele>41.943934</ele>
        <time>2024-07-31T09:44:32.792Z</time>
      </trkpt>
      <trkpt lat="54.5161" lon="16.53148">
        <ele>42.004575</ele>
        <time>2024-07-31T09:44:34.803Z</time>
      </trkpt>
      <trkpt lat="54.5161" lon="16.53165">
        <ele>42.065217</ele>
        <time>2024-07-31T09:44:36.816Z</time>
      </trkpt>
      <trkpt lat="54.5161" lon="16.53182">
        <ele>42.127679</ele>
        <time>2024-07-31T09:44:38.805Z</time>
      </trkpt>
      <trkpt lat="54.51608" lon="16.53198">
        <ele>42.190235</ele>
        <time>2024-07-31T09:44:40.792Z</time>
      </trkpt>
      <trkpt lat="54.51606" lon="16.53215">
        <ele>42.253373</ele>
        <time>2024-07-31T09:44:42.798Z</time>
      </trkpt>
      <trkpt lat="54.51604" lon="16.53232">
        <ele>42.316031</ele>
        <time>2024-07-31T09:44:44.799Z</time>
      </trkpt>
      <trkpt lat="54.51602" lon="16.53249">
        <ele>42.380544</ele>
        <time>2024-07-31T09:44:46.803Z</time>
      </trkpt>
      <trkpt lat="54.51599" lon="16.53265">
        <ele>42.443211</ele>
        <time>2024-07-31T09:44:48.812Z</time>
      </trkpt>
      <trkpt lat="54.51598" lon="16.53282">
        <ele>42.506106</ele>
        <time>2024-07-31T09:44:50.792Z</time>
      </trkpt>
      <trkpt lat="54.51596" lon="16.53299">
        <ele>42.569608</ele>
        <time>2024-07-31T09:44:52.789Z</time>
      </trkpt>
      <trkpt lat="54.51594" lon="16.53314">
        <ele>42.628433</ele>
        <time>2024-07-31T09:44:54.792Z</time>
      </trkpt>
      <trkpt lat="54.5159" lon="16.53337">
        <ele>42.550142</ele>
        <time>2024-07-31T09:44:57.773Z</time>
      </trkpt>
      <trkpt lat="54.51587" lon="16.53358">
        <ele>42.350852</ele>
        <time>2024-07-31T09:45:00.790Z</time>
      </trkpt>
      <trkpt lat="54.51585" lon="16.53377">
        <ele>42.170981</ele>
        <time>2024-07-31T09:45:03.804Z</time>
      </trkpt>
      <trkpt lat="54.51582" lon="16.53396">
        <ele>41.991781</ele>
        <time>2024-07-31T09:45:06.785Z</time>
      </trkpt>
      <trkpt lat="54.5158" lon="16.53413">
        <ele>41.826343</ele>
        <time>2024-07-31T09:45:09.798Z</time>
      </trkpt>
      <trkpt lat="54.51579" lon="16.5343">
        <ele>41.675124</ele>
        <time>2024-07-31T09:45:12.818Z</time>
      </trkpt>
      <trkpt lat="54.51575" lon="16.53453">
        <ele>41.454015</ele>
        <time>2024-07-31T09:45:15.798Z</time>
      </trkpt>
      <trkpt lat="54.51572" lon="16.53469">
        <ele>41.295565</ele>
        <time>2024-07-31T09:45:17.803Z</time>
      </trkpt>
      <trkpt lat="54.51569" lon="16.53485">
        <ele>41.140212</ele>
        <time>2024-07-31T09:45:19.786Z</time>
      </trkpt>
      <trkpt lat="54.51568" lon="16.53503">
        <ele>40.97929</ele>
        <time>2024-07-31T09:45:21.789Z</time>
      </trkpt>
      <trkpt lat="54.51565" lon="16.5352">
        <ele>40.813263</ele>
        <time>2024-07-31T09:45:23.799Z</time>
      </trkpt>
      <trkpt lat="54.51563" lon="16.53538">
        <ele>40.644413</ele>
        <time>2024-07-31T09:45:25.806Z</time>
      </trkpt>
      <trkpt lat="54.51559" lon="16.53557">
        <ele>40.462133</ele>
        <time>2024-07-31T09:45:27.797Z</time>
      </trkpt>
      <trkpt lat="54.51557" lon="16.53577">
        <ele>40.272665</ele>
        <time>2024-07-31T09:45:29.795Z</time>
      </trkpt>
      <trkpt lat="54.51553" lon="16.53597">
        <ele>40.076501</ele>
        <time>2024-07-31T09:45:31.784Z</time>
      </trkpt>
      <trkpt lat="54.51548" lon="16.53617">
        <ele>39.884744</ele>
        <time>2024-07-31T09:45:33.801Z</time>
      </trkpt>
      <trkpt lat="54.51543" lon="16.53635">
        <ele>39.739936</ele>
        <time>2024-07-31T09:45:35.800Z</time>
      </trkpt>
      <trkpt lat="54.51537" lon="16.53653">
        <ele>39.616147</ele>
        <time>2024-07-31T09:45:37.797Z</time>
      </trkpt>
      <trkpt lat="54.51531" lon="16.53672">
        <ele>39.486744</ele>
        <time>2024-07-31T09:45:39.814Z</time>
      </trkpt>
      <trkpt lat="54.51525" lon="16.5369">
        <ele>39.358906</ele>
        <time>2024-07-31T09:45:41.793Z</time>
      </trkpt>
      <trkpt lat="54.51519" lon="16.53708">
        <ele>39.231609</ele>
        <time>2024-07-31T09:45:43.810Z</time>
      </trkpt>
      <trkpt lat="54.51513" lon="16.53726">
        <ele>39.10432</ele>
        <time>2024-07-31T09:45:45.805Z</time>
      </trkpt>
      <trkpt lat="54.51507" lon="16.53745">
        <ele>38.976402</ele>
        <time>2024-07-31T09:45:47.812Z</time>
      </trkpt>
      <trkpt lat="54.51501" lon="16.53763">
        <ele>38.849944</ele>
        <time>2024-07-31T09:45:49.811Z</time>
      </trkpt>
      <trkpt lat="54.51493" lon="16.53779">
        <ele>38.722668</ele>
        <time>2024-07-31T09:45:51.795Z</time>
      </trkpt>
      <trkpt lat="54.51485" lon="16.53794">
        <ele>38.598405</ele>
        <time>2024-07-31T09:45:53.780Z</time>
      </trkpt>
      <trkpt lat="54.51477" lon="16.53808">
        <ele>38.482185</ele>
        <time>2024-07-31T09:45:55.785Z</time>
      </trkpt>
      <trkpt lat="54.51469" lon="16.53821">
        <ele>38.360829</ele>
        <time>2024-07-31T09:45:57.817Z</time>
      </trkpt>
      <trkpt lat="54.51461" lon="16.53833">
        <ele>38.24855</ele>
        <time>2024-07-31T09:45:59.782Z</time>
      </trkpt>
      <trkpt lat="54.51453" lon="16.53846">
        <ele>38.142435</ele>
        <time>2024-07-31T09:46:01.789Z</time>
      </trkpt>
      <trkpt lat="54.51446" lon="16.53857">
        <ele>38.044697</ele>
        <time>2024-07-31T09:46:03.804Z</time>
      </trkpt>
      <trkpt lat="54.5144" lon="16.53868">
        <ele>37.949369</ele>
        <time>2024-07-31T09:46:05.795Z</time>
      </trkpt>
      <trkpt lat="54.51433" lon="16.53879">
        <ele>37.95454</ele>
        <time>2024-07-31T09:46:07.808Z</time>
      </trkpt>
      <trkpt lat="54.51427" lon="16.5389">
        <ele>37.96749</ele>
        <time>2024-07-31T09:46:09.798Z</time>
      </trkpt>
      <trkpt lat="54.5142" lon="16.539">
        <ele>37.980648</ele>
        <time>2024-07-31T09:46:11.813Z</time>
      </trkpt>
      <trkpt lat="54.5141" lon="16.53916">
        <ele>38.00001</ele>
        <time>2024-07-31T09:46:14.799Z</time>
      </trkpt>
      <trkpt lat="54.51401" lon="16.53932">
        <ele>38.018612</ele>
        <time>2024-07-31T09:46:17.803Z</time>
      </trkpt>
      <trkpt lat="54.51394" lon="16.53943">
        <ele>38.031666</ele>
        <time>2024-07-31T09:46:19.810Z</time>
      </trkpt>
      <trkpt lat="54.51385" lon="16.53958">
        <ele>38.050236</ele>
        <time>2024-07-31T09:46:22.804Z</time>
      </trkpt>
      <trkpt lat="54.51376" lon="16.53972">
        <ele>38.067024</ele>
        <time>2024-07-31T09:46:25.793Z</time>
      </trkpt>
      <trkpt lat="54.51368" lon="16.53986">
        <ele>38.08358</ele>
        <time>2024-07-31T09:46:28.819Z</time>
      </trkpt>
      <trkpt lat="54.51359" lon="16.54001">
        <ele>38.101493</ele>
        <time>2024-07-31T09:46:31.804Z</time>
      </trkpt>
      <trkpt lat="54.5135" lon="16.54016">
        <ele>38.119715</ele>
        <time>2024-07-31T09:46:34.790Z</time>
      </trkpt>
      <trkpt lat="54.51341" lon="16.54031">
        <ele>38.138099</ele>
        <time>2024-07-31T09:46:37.797Z</time>
      </trkpt>
      <trkpt lat="54.51332" lon="16.54047">
        <ele>38.156092</ele>
        <time>2024-07-31T09:46:40.802Z</time>
      </trkpt>
      <trkpt lat="54.51323" lon="16.54062">
        <ele>38.174354</ele>
        <time>2024-07-31T09:46:43.813Z</time>
      </trkpt>
      <trkpt lat="54.51316" lon="16.54072">
        <ele>38.187882</ele>
        <time>2024-07-31T09:46:45.813Z</time>
      </trkpt>
      <trkpt lat="54.51306" lon="16.54088">
        <ele>38.203408</ele>
        <time>2024-07-31T09:46:48.819Z</time>
      </trkpt>
      <trkpt lat="54.51297" lon="16.54102">
        <ele>38.212334</ele>
        <time>2024-07-31T09:46:51.795Z</time>
      </trkpt>
      <trkpt lat="54.51288" lon="16.54117">
        <ele>38.221479</ele>
        <time>2024-07-31T09:46:54.791Z</time>
      </trkpt>
      <trkpt lat="54.51279" lon="16.54133">
        <ele>38.230565</ele>
        <time>2024-07-31T09:46:57.794Z</time>
      </trkpt>
      <trkpt lat="54.5127" lon="16.54146">
        <ele>38.239023</ele>
        <time>2024-07-31T09:47:00.793Z</time>
      </trkpt>
      <trkpt lat="54.51262" lon="16.5416">
        <ele>38.246845</ele>
        <time>2024-07-31T09:47:03.810Z</time>
      </trkpt>
      <trkpt lat="54.51255" lon="16.54172">
        <ele>38.254061</ele>
        <time>2024-07-31T09:47:06.801Z</time>
      </trkpt>
      <trkpt lat="54.51245" lon="16.54187">
        <ele>38.263448</ele>
        <time>2024-07-31T09:47:09.797Z</time>
      </trkpt>
      <trkpt lat="54.51236" lon="16.54203">
        <ele>38.272891</ele>
        <time>2024-07-31T09:47:12.795Z</time>
      </trkpt>
      <trkpt lat="54.51226" lon="16.54218">
        <ele>38.282093</ele>
        <time>2024-07-31T09:47:15.801Z</time>
      </trkpt>
      <trkpt lat="54.51217" lon="16.54233">
        <ele>38.291014</ele>
        <time>2024-07-31T09:47:18.796Z</time>
      </trkpt>
      <trkpt lat="54.51208" lon="16.54247">
        <ele>38.299779</ele>
        <time>2024-07-31T09:47:21.800Z</time>
      </trkpt>
      <trkpt lat="54.512" lon="16.54262">
        <ele>38.308428</ele>
        <time>2024-07-31T09:47:24.790Z</time>
      </trkpt>
      <trkpt lat="54.51191" lon="16.54276">
        <ele>38.316968</ele>
        <time>2024-07-31T09:47:27.797Z</time>
      </trkpt>
      <trkpt lat="54.51182" lon="16.5429">
        <ele>38.325758</ele>
        <time>2024-07-31T09:47:30.802Z</time>
      </trkpt>
      <trkpt lat="54.51173" lon="16.54305">
        <ele>38.395443</ele>
        <time>2024-07-31T09:47:33.794Z</time>
      </trkpt>
      <trkpt lat="54.51165" lon="16.54318">
        <ele>38.480918</ele>
        <time>2024-07-31T09:47:36.805Z</time>
      </trkpt>
      <trkpt lat="54.5116" lon="16.5433">
        <ele>38.55506</ele>
        <time>2024-07-31T09:52:18.785Z</time>
      </trkpt>
      <trkpt lat="54.51153" lon="16.54342">
        <ele>38.633418</ele>
        <time>2024-07-31T09:52:22.795Z</time>
      </trkpt>
      <trkpt lat="54.51146" lon="16.54354">
        <ele>38.714194</ele>
        <time>2024-07-31T09:52:25.799Z</time>
      </trkpt>
      <trkpt lat="54.51139" lon="16.54365">
        <ele>38.790428</ele>
        <time>2024-07-31T09:52:28.814Z</time>
      </trkpt>
      <trkpt lat="54.51132" lon="16.54376">
        <ele>38.871483</ele>
        <time>2024-07-31T09:52:31.778Z</time>
      </trkpt>
      <trkpt lat="54.51125" lon="16.54389">
        <ele>38.955865</ele>
        <time>2024-07-31T09:52:34.817Z</time>
      </trkpt>
      <trkpt lat="54.51117" lon="16.544">
        <ele>39.03941</ele>
        <time>2024-07-31T09:52:37.780Z</time>
      </trkpt>
      <trkpt lat="54.51108" lon="16.54414">
        <ele>39.138408</ele>
        <time>2024-07-31T09:52:40.782Z</time>
      </trkpt>
      <trkpt lat="54.511" lon="16.54427">
        <ele>39.226778</ele>
        <time>2024-07-31T09:52:43.796Z</time>
      </trkpt>
      <trkpt lat="54.51093" lon="16.54439">
        <ele>39.310007</ele>
        <time>2024-07-31T09:52:46.797Z</time>
      </trkpt>
      <trkpt lat="54.51085" lon="16.54452">
        <ele>39.400871</ele>
        <time>2024-07-31T09:52:49.782Z</time>
      </trkpt>
      <trkpt lat="54.51077" lon="16.54467">
        <ele>39.493761</ele>
        <time>2024-07-31T09:52:52.799Z</time>
      </trkpt>
      <trkpt lat="54.51069" lon="16.54482">
        <ele>39.588138</ele>
        <time>2024-07-31T09:52:55.811Z</time>
      </trkpt>
      <trkpt lat="54.51063" lon="16.54494">
        <ele>39.665023</ele>
        <time>2024-07-31T09:52:57.806Z</time>
      </trkpt>
      <trkpt lat="54.51056" lon="16.54513">
        <ele>39.770458</ele>
        <time>2024-07-31T09:53:00.799Z</time>
      </trkpt>
      <trkpt lat="54.51051" lon="16.54533">
        <ele>39.814138</ele>
        <time>2024-07-31T09:53:03.786Z</time>
      </trkpt>
      <trkpt lat="54.51047" lon="16.54555">
        <ele>39.837799</ele>
        <time>2024-07-31T09:53:06.790Z</time>
      </trkpt>
      <trkpt lat="54.51044" lon="16.54571">
        <ele>39.853803</ele>
        <time>2024-07-31T09:53:08.787Z</time>
      </trkpt>
      <trkpt lat="54.51041" lon="16.54593">
        <ele>39.876558</ele>
        <time>2024-07-31T09:53:11.815Z</time>
      </trkpt>
      <trkpt lat="54.5104" lon="16.54608">
        <ele>39.892281</ele>
        <time>2024-07-31T09:53:13.796Z</time>
      </trkpt>
      <trkpt lat="54.5104" lon="16.54624">
        <ele>39.908098</ele>
        <time>2024-07-31T09:53:15.802Z</time>
      </trkpt>
      <trkpt lat="54.51038" lon="16.54647">
        <ele>39.931467</ele>
        <time>2024-07-31T09:53:18.811Z</time>
      </trkpt>
      <trkpt lat="54.51037" lon="16.54669">
        <ele>39.953992</ele>
        <time>2024-07-31T09:53:21.785Z</time>
      </trkpt>
      <trkpt lat="54.51035" lon="16.54691">
        <ele>39.976158</ele>
        <time>2024-07-31T09:53:24.786Z</time>
      </trkpt>
      <trkpt lat="54.51034" lon="16.54712">
        <ele>39.997533</ele>
        <time>2024-07-31T09:53:27.795Z</time>
      </trkpt>
      <trkpt lat="54.51033" lon="16.54733">
        <ele>40.018864</ele>
        <time>2024-07-31T09:53:30.794Z</time>
      </trkpt>
      <trkpt lat="54.51031" lon="16.54755">
        <ele>40.040988</ele>
        <time>2024-07-31T09:53:33.768Z</time>
      </trkpt>
      <trkpt lat="54.51029" lon="16.54776">
        <ele>40.062235</ele>
        <time>2024-07-31T09:53:36.798Z</time>
      </trkpt>
      <trkpt lat="54.51028" lon="16.54798">
        <ele>40.084141</ele>
        <time>2024-07-31T09:53:39.808Z</time>
      </trkpt>
      <trkpt lat="54.51028" lon="16.54813">
        <ele>40.100096</ele>
        <time>2024-07-31T09:53:41.808Z</time>
      </trkpt>
      <trkpt lat="54.51027" lon="16.54829">
        <ele>40.098994</ele>
        <time>2024-07-31T09:53:43.797Z</time>
      </trkpt>
      <trkpt lat="54.51026" lon="16.54852">
        <ele>40.065123</ele>
        <time>2024-07-31T09:53:46.792Z</time>
      </trkpt>
      <trkpt lat="54.51024" lon="16.54874">
        <ele>40.031802</ele>
        <time>2024-07-31T09:53:49.792Z</time>
      </trkpt>
      <trkpt lat="54.51023" lon="16.54896">
        <ele>39.997428</ele>
        <time>2024-07-31T09:53:52.787Z</time>
      </trkpt>
      <trkpt lat="54.51022" lon="16.54912">
        <ele>39.973179</ele>
        <time>2024-07-31T09:53:54.789Z</time>
      </trkpt>
      <trkpt lat="54.51021" lon="16.54928">
        <ele>39.948762</ele>
        <time>2024-07-31T09:53:56.788Z</time>
      </trkpt>
      <trkpt lat="54.5102" lon="16.54944">
        <ele>39.924927</ele>
        <time>2024-07-31T09:53:58.794Z</time>
      </trkpt>
      <trkpt lat="54.51019" lon="16.54961">
        <ele>39.899712</ele>
        <time>2024-07-31T09:54:00.788Z</time>
      </trkpt>
      <trkpt lat="54.51018" lon="16.54977">
        <ele>39.874369</ele>
        <time>2024-07-31T09:54:02.803Z</time>
      </trkpt>
      <trkpt lat="54.51017" lon="16.54993">
        <ele>39.850303</ele>
        <time>2024-07-31T09:54:04.793Z</time>
      </trkpt>
      <trkpt lat="54.51016" lon="16.5501">
        <ele>39.824937</ele>
        <time>2024-07-31T09:54:06.803Z</time>
      </trkpt>
      <trkpt lat="54.51016" lon="16.55027">
        <ele>39.799194</ele>
        <time>2024-07-31T09:54:08.817Z</time>
      </trkpt>
      <trkpt lat="54.51016" lon="16.55043">
        <ele>39.774083</ele>
        <time>2024-07-31T09:54:10.796Z</time>
      </trkpt>
      <trkpt lat="54.51015" lon="16.55061">
        <ele>39.748049</ele>
        <time>2024-07-31T09:54:12.781Z</time>
      </trkpt>
      <trkpt lat="54.51015" lon="16.55077">
        <ele>39.723094</ele>
        <time>2024-07-31T09:54:14.773Z</time>
      </trkpt>
      <trkpt lat="54.51015" lon="16.55094">
        <ele>39.697977</ele>
        <time>2024-07-31T09:54:16.791Z</time>
      </trkpt>
      <trkpt lat="54.51015" lon="16.55109">
        <ele>39.674058</ele>
        <time>2024-07-31T09:54:18.818Z</time>
      </trkpt>
      <trkpt lat="54.51015" lon="16.55126">
        <ele>39.648498</ele>
        <time>2024-07-31T09:54:20.799Z</time>
      </trkpt>
      <trkpt lat="54.51014" lon="16.55143">
        <ele>39.666909</ele>
        <time>2024-07-31T09:54:22.809Z</time>
      </trkpt>
      <trkpt lat="54.51014" lon="16.5516">
        <ele>39.703047</ele>
        <time>2024-07-31T09:54:24.807Z</time>
      </trkpt>
      <trkpt lat="54.51013" lon="16.55177">
        <ele>39.739557</ele>
        <time>2024-07-31T09:54:26.788Z</time>
      </trkpt>
      <trkpt lat="54.51014" lon="16.55193">
        <ele>39.77541</ele>
        <time>2024-07-31T09:54:28.844Z</time>
      </trkpt>
      <trkpt lat="54.51014" lon="16.5521">
        <ele>39.811261</ele>
        <time>2024-07-31T09:54:30.799Z</time>
      </trkpt>
      <trkpt lat="54.51013" lon="16.55226">
        <ele>39.84581</ele>
        <time>2024-07-31T09:54:32.795Z</time>
      </trkpt>
      <trkpt lat="54.51013" lon="16.55241">
        <ele>39.879974</ele>
        <time>2024-07-31T09:54:34.793Z</time>
      </trkpt>
      <trkpt lat="54.51013" lon="16.55258">
        <ele>39.915392</ele>
        <time>2024-07-31T09:54:36.798Z</time>
      </trkpt>
      <trkpt lat="54.51013" lon="16.55274">
        <ele>39.949942</ele>
        <time>2024-07-31T09:54:38.809Z</time>
      </trkpt>
      <trkpt lat="54.51013" lon="16.5529">
        <ele>39.986017</ele>
        <time>2024-07-31T09:54:40.783Z</time>
      </trkpt>
      <trkpt lat="54.51013" lon="16.55306">
        <ele>40.021434</ele>
        <time>2024-07-31T09:54:42.785Z</time>
      </trkpt>
      <trkpt lat="54.51013" lon="16.55323">
        <ele>40.056868</ele>
        <time>2024-07-31T09:54:44.789Z</time>
      </trkpt>
      <trkpt lat="54.51013" lon="16.55339">
        <ele>40.092286</ele>
        <time>2024-07-31T09:54:46.784Z</time>
      </trkpt>
      <trkpt lat="54.51013" lon="16.55355">
        <ele>40.126835</ele>
        <time>2024-07-31T09:54:48.802Z</time>
      </trkpt>
      <trkpt lat="54.51014" lon="16.55371">
        <ele>40.161239</ele>
        <time>2024-07-31T09:54:50.798Z</time>
      </trkpt>
      <trkpt lat="54.51016" lon="16.55386">
        <ele>40.195382</ele>
        <time>2024-07-31T09:54:52.787Z</time>
      </trkpt>
      <trkpt lat="54.51018" lon="16.55409">
        <ele>40.246224</ele>
        <time>2024-07-31T09:54:55.814Z</time>
      </trkpt>
      <trkpt lat="54.5102" lon="16.55425">
        <ele>40.280569</ele>
        <time>2024-07-31T09:54:57.810Z</time>
      </trkpt>
      <trkpt lat="54.51021" lon="16.5544">
        <ele>40.313891</ele>
        <time>2024-07-31T09:54:59.801Z</time>
      </trkpt>
      <trkpt lat="54.51023" lon="16.55462">
        <ele>40.290453</ele>
        <time>2024-07-31T09:55:02.794Z</time>
      </trkpt>
      <trkpt lat="54.51025" lon="16.55484">
        <ele>40.265998</ele>
        <time>2024-07-31T09:55:05.789Z</time>
      </trkpt>
      <trkpt lat="54.51024" lon="16.555">
        <ele>40.248721</ele>
        <time>2024-07-31T09:55:07.810Z</time>
      </trkpt>
      <trkpt lat="54.51024" lon="16.55517">
        <ele>40.231209</ele>
        <time>2024-07-31T09:55:09.793Z</time>
      </trkpt>
      <trkpt lat="54.51023" lon="16.55533">
        <ele>40.213132</ele>
        <time>2024-07-31T09:55:11.777Z</time>
      </trkpt>
      <trkpt lat="54.5102" lon="16.5555">
        <ele>40.195282</ele>
        <time>2024-07-31T09:55:13.797Z</time>
      </trkpt>
      <trkpt lat="54.51018" lon="16.55566">
        <ele>40.177514</ele>
        <time>2024-07-31T09:55:15.802Z</time>
      </trkpt>
      <trkpt lat="54.51016" lon="16.55583">
        <ele>40.158552</ele>
        <time>2024-07-31T09:55:17.797Z</time>
      </trkpt>
      <trkpt lat="54.51014" lon="16.556">
        <ele>40.140084</ele>
        <time>2024-07-31T09:55:19.803Z</time>
      </trkpt>
      <trkpt lat="54.51012" lon="16.55617">
        <ele>40.121332</ele>
        <time>2024-07-31T09:55:21.807Z</time>
      </trkpt>
      <trkpt lat="54.51011" lon="16.55634">
        <ele>40.103459</ele>
        <time>2024-07-31T09:55:23.785Z</time>
      </trkpt>
      <trkpt lat="54.51009" lon="16.5565">
        <ele>40.085899</ele>
        <time>2024-07-31T09:55:25.786Z</time>
      </trkpt>
      <trkpt lat="54.51007" lon="16.55665">
        <ele>40.06887</ele>
        <time>2024-07-31T09:55:27.806Z</time>
      </trkpt>
      <trkpt lat="54.51005" lon="16.55681">
        <ele>40.051482</ele>
        <time>2024-07-31T09:55:29.792Z</time>
      </trkpt>
      <trkpt lat="54.51004" lon="16.55698">
        <ele>40.03338</ele>
        <time>2024-07-31T09:55:31.794Z</time>
      </trkpt>
      <trkpt lat="54.51003" lon="16.55715">
        <ele>40.015065</ele>
        <time>2024-07-31T09:55:33.791Z</time>
      </trkpt>
      <trkpt lat="54.51003" lon="16.55732">
        <ele>39.99691</ele>
        <time>2024-07-31T09:55:35.787Z</time>
      </trkpt>
      <trkpt lat="54.51002" lon="16.55749">
        <ele>39.980618</ele>
        <time>2024-07-31T09:55:37.789Z</time>
      </trkpt>
      <trkpt lat="54.51002" lon="16.55766">
        <ele>39.975415</ele>
        <time>2024-07-31T09:55:39.779Z</time>
      </trkpt>
      <trkpt lat="54.51002" lon="16.55783">
        <ele>39.970242</ele>
        <time>2024-07-31T09:55:41.781Z</time>
      </trkpt>
      <trkpt lat="54.51002" lon="16.558">
        <ele>39.96516</ele>
        <time>2024-07-31T09:55:43.794Z</time>
      </trkpt>
      <trkpt lat="54.51002" lon="16.55818">
        <ele>39.9598</ele>
        <time>2024-07-31T09:55:45.782Z</time>
      </trkpt>
      <trkpt lat="54.51001" lon="16.55835">
        <ele>39.954625</ele>
        <time>2024-07-31T09:55:47.798Z</time>
      </trkpt>
      <trkpt lat="54.51001" lon="16.55852">
        <ele>39.949268</ele>
        <time>2024-07-31T09:55:49.787Z</time>
      </trkpt>
      <trkpt lat="54.51001" lon="16.5587">
        <ele>39.943943</ele>
        <time>2024-07-31T09:55:51.788Z</time>
      </trkpt>
      <trkpt lat="54.51001" lon="16.55887">
        <ele>39.938799</ele>
        <time>2024-07-31T09:55:53.793Z</time>
      </trkpt>
      <trkpt lat="54.51001" lon="16.55904">
        <ele>39.933504</ele>
        <time>2024-07-31T09:55:55.806Z</time>
      </trkpt>
      <trkpt lat="54.51001" lon="16.55921">
        <ele>39.928392</ele>
        <time>2024-07-31T09:55:57.796Z</time>
      </trkpt>
      <trkpt lat="54.51001" lon="16.55938">
        <ele>39.923188</ele>
        <time>2024-07-31T09:55:59.804Z</time>
      </trkpt>
      <trkpt lat="54.51001" lon="16.55955">
        <ele>39.917922</ele>
        <time>2024-07-31T09:56:01.797Z</time>
      </trkpt>
      <trkpt lat="54.51" lon="16.55971">
        <ele>39.91317</ele>
        <time>2024-07-31T09:56:03.802Z</time>
      </trkpt>
      <trkpt lat="54.51" lon="16.55988">
        <ele>39.908118</ele>
        <time>2024-07-31T09:56:05.801Z</time>
      </trkpt>
      <trkpt lat="54.51001" lon="16.56004">
        <ele>39.903066</ele>
        <time>2024-07-31T09:56:07.793Z</time>
      </trkpt>
      <trkpt lat="54.51" lon="16.5602">
        <ele>39.898275</ele>
        <time>2024-07-31T09:56:09.797Z</time>
      </trkpt>
      <trkpt lat="54.50999" lon="16.56036">
        <ele>39.893399</ele>
        <time>2024-07-31T09:56:11.786Z</time>
      </trkpt>
      <trkpt lat="54.50999" lon="16.56052">
        <ele>39.888617</ele>
        <time>2024-07-31T09:56:13.797Z</time>
      </trkpt>
      <trkpt lat="54.50999" lon="16.56068">
        <ele>39.86864</ele>
        <time>2024-07-31T09:56:15.794Z</time>
      </trkpt>
      <trkpt lat="54.50999" lon="16.56084">
        <ele>39.843134</ele>
        <time>2024-07-31T09:56:17.794Z</time>
      </trkpt>
      <trkpt lat="54.50998" lon="16.561">
        <ele>39.817765</ele>
        <time>2024-07-31T09:56:19.820Z</time>
      </trkpt>
      <trkpt lat="54.50998" lon="16.56116">
        <ele>39.793197</ele>
        <time>2024-07-31T09:56:21.794Z</time>
      </trkpt>
      <trkpt lat="54.50997" lon="16.56132">
        <ele>39.768483</ele>
        <time>2024-07-31T09:56:23.806Z</time>
      </trkpt>
      <trkpt lat="54.50996" lon="16.56155">
        <ele>39.73286</ele>
        <time>2024-07-31T09:56:26.796Z</time>
      </trkpt>
      <trkpt lat="54.50994" lon="16.5617">
        <ele>39.708331</ele>
        <time>2024-07-31T09:56:28.785Z</time>
      </trkpt>
      <trkpt lat="54.50992" lon="16.56186">
        <ele>39.683017</ele>
        <time>2024-07-31T09:56:30.791Z</time>
      </trkpt>
      <trkpt lat="54.50989" lon="16.56201">
        <ele>39.658002</ele>
        <time>2024-07-31T09:56:32.792Z</time>
      </trkpt>
      <trkpt lat="54.50986" lon="16.56216">
        <ele>39.633829</ele>
        <time>2024-07-31T09:56:34.784Z</time>
      </trkpt>
      <trkpt lat="54.50983" lon="16.56231">
        <ele>39.609656</ele>
        <time>2024-07-31T09:56:36.785Z</time>
      </trkpt>
      <trkpt lat="54.50978" lon="16.56252">
        <ele>39.574418</ele>
        <time>2024-07-31T09:56:39.802Z</time>
      </trkpt>
      <trkpt lat="54.50973" lon="16.56272">
        <ele>39.54017</ele>
        <time>2024-07-31T09:56:42.789Z</time>
      </trkpt>
      <trkpt lat="54.50967" lon="16.56291">
        <ele>39.506402</ele>
        <time>2024-07-31T09:56:45.795Z</time>
      </trkpt>
      <trkpt lat="54.5096" lon="16.5631">
        <ele>39.472109</ele>
        <time>2024-07-31T09:56:48.790Z</time>
      </trkpt>
      <trkpt lat="54.50954" lon="16.56328">
        <ele>39.438759</ele>
        <time>2024-07-31T09:56:51.791Z</time>
      </trkpt>
      <trkpt lat="54.50948" lon="16.56347">
        <ele>39.407903</ele>
        <time>2024-07-31T09:56:54.778Z</time>
      </trkpt>
      <trkpt lat="54.50941" lon="16.56367">
        <ele>39.48486</ele>
        <time>2024-07-31T09:56:57.793Z</time>
      </trkpt>
      <trkpt lat="54.50936" lon="16.5638">
        <ele>39.53935</ele>
        <time>2024-07-31T09:56:59.773Z</time>
      </trkpt>
      <trkpt lat="54.50931" lon="16.56393">
        <ele>39.592026</ele>
        <time>2024-07-31T09:57:01.782Z</time>
      </trkpt>
      <trkpt lat="54.50924" lon="16.56413">
        <ele>39.669325</ele>
        <time>2024-07-31T09:57:04.787Z</time>
      </trkpt>
      <trkpt lat="54.50918" lon="16.56432">
        <ele>39.742849</ele>
        <time>2024-07-31T09:57:07.810Z</time>
      </trkpt>
      <trkpt lat="54.50912" lon="16.56452">
        <ele>39.819829</ele>
        <time>2024-07-31T09:57:10.788Z</time>
      </trkpt>
      <trkpt lat="54.50905" lon="16.56472">
        <ele>39.898543</ele>
        <time>2024-07-31T09:57:13.785Z</time>
      </trkpt>
      <trkpt lat="54.50901" lon="16.56486">
        <ele>39.951636</ele>
        <time>2024-07-31T09:57:15.808Z</time>
      </trkpt>
      <trkpt lat="54.50897" lon="16.56502">
        <ele>40.010198</ele>
        <time>2024-07-31T09:57:17.797Z</time>
      </trkpt>
      <trkpt lat="54.50893" lon="16.56516">
        <ele>40.063955</ele>
        <time>2024-07-31T09:57:19.794Z</time>
      </trkpt>
      <trkpt lat="54.50889" lon="16.56532">
        <ele>40.122753</ele>
        <time>2024-07-31T09:57:21.793Z</time>
      </trkpt>
      <trkpt lat="54.50886" lon="16.56549">
        <ele>40.182218</ele>
        <time>2024-07-31T09:57:23.799Z</time>
      </trkpt>
      <trkpt lat="54.50883" lon="16.56566">
        <ele>40.241519</ele>
        <time>2024-07-31T09:57:25.775Z</time>
      </trkpt>
      <trkpt lat="54.50881" lon="16.56584">
        <ele>40.303634</ele>
        <time>2024-07-31T09:57:27.791Z</time>
      </trkpt>
      <trkpt lat="54.5088" lon="16.56602">
        <ele>40.365604</ele>
        <time>2024-07-31T09:57:29.789Z</time>
      </trkpt>
      <trkpt lat="54.50879" lon="16.5662">
        <ele>40.425041</ele>
        <time>2024-07-31T09:57:31.802Z</time>
      </trkpt>
      <trkpt lat="54.50878" lon="16.56637">
        <ele>40.486637</ele>
        <time>2024-07-31T09:57:33.807Z</time>
      </trkpt>
      <trkpt lat="54.50878" lon="16.56655">
        <ele>40.548206</ele>
        <time>2024-07-31T09:57:35.787Z</time>
      </trkpt>
      <trkpt lat="54.50878" lon="16.56671">
        <ele>40.605861</ele>
        <time>2024-07-31T09:57:37.785Z</time>
      </trkpt>
      <trkpt lat="54.50878" lon="16.56687">
        <ele>40.660364</ele>
        <time>2024-07-31T09:57:39.780Z</time>
      </trkpt>
      <trkpt lat="54.50878" lon="16.56703">
        <ele>40.716379</ele>
        <time>2024-07-31T09:57:41.790Z</time>
      </trkpt>
      <trkpt lat="54.50879" lon="16.56725">
        <ele>40.795407</ele>
        <time>2024-07-31T09:57:44.783Z</time>
      </trkpt>
      <trkpt lat="54.5088" lon="16.56748">
        <ele>40.875486</ele>
        <time>2024-07-31T09:57:47.783Z</time>
      </trkpt>
      <trkpt lat="54.50882" lon="16.56771">
        <ele>40.956996</ele>
        <time>2024-07-31T09:57:50.811Z</time>
      </trkpt>
      <trkpt lat="54.50884" lon="16.56794">
        <ele>41.038595</ele>
        <time>2024-07-31T09:57:53.794Z</time>
      </trkpt>
      <trkpt lat="54.50885" lon="16.56809">
        <ele>41.093491</ele>
        <time>2024-07-31T09:57:55.796Z</time>
      </trkpt>
      <trkpt lat="54.50887" lon="16.56826">
        <ele>41.151509</ele>
        <time>2024-07-31T09:57:57.786Z</time>
      </trkpt>
      <trkpt lat="54.50889" lon="16.56847">
        <ele>41.228248</ele>
        <time>2024-07-31T09:58:00.810Z</time>
      </trkpt>
      <trkpt lat="54.50891" lon="16.56866">
        <ele>41.295087</ele>
        <time>2024-07-31T09:58:03.796Z</time>
      </trkpt>
      <trkpt lat="54.50893" lon="16.56887">
        <ele>41.369885</ele>
        <time>2024-07-31T09:58:06.767Z</time>
      </trkpt>
      <trkpt lat="54.50896" lon="16.56909">
        <ele>41.45078</ele>
        <time>2024-07-31T09:58:09.804Z</time>
      </trkpt>
      <trkpt lat="54.50897" lon="16.56931">
        <ele>41.526605</ele>
        <time>2024-07-31T09:58:12.813Z</time>
      </trkpt>
      <trkpt lat="54.50897" lon="16.56946">
        <ele>41.536971</ele>
        <time>2024-07-31T09:58:14.794Z</time>
      </trkpt>
      <trkpt lat="54.50897" lon="16.56962">
        <ele>41.528315</ele>
        <time>2024-07-31T09:58:16.784Z</time>
      </trkpt>
      <trkpt lat="54.50897" lon="16.56978">
        <ele>41.519663</ele>
        <time>2024-07-31T09:58:18.806Z</time>
      </trkpt>
      <trkpt lat="54.50897" lon="16.56995">
        <ele>41.510904</ele>
        <time>2024-07-31T09:58:20.777Z</time>
      </trkpt>
      <trkpt lat="54.50897" lon="16.57011">
        <ele>41.502036</ele>
        <time>2024-07-31T09:58:22.790Z</time>
      </trkpt>
      <trkpt lat="54.50897" lon="16.57027">
        <ele>41.493382</ele>
        <time>2024-07-31T09:58:24.798Z</time>
      </trkpt>
      <trkpt lat="54.50898" lon="16.57043">
        <ele>41.48478</ele>
        <time>2024-07-31T09:58:26.786Z</time>
      </trkpt>
      <trkpt lat="54.50898" lon="16.57059">
        <ele>41.476175</ele>
        <time>2024-07-31T09:58:28.813Z</time>
      </trkpt>
      <trkpt lat="54.50898" lon="16.57075">
        <ele>41.467515</ele>
        <time>2024-07-31T09:58:30.765Z</time>
      </trkpt>
      <trkpt lat="54.50899" lon="16.57093">
        <ele>41.458325</ele>
        <time>2024-07-31T09:58:32.796Z</time>
      </trkpt>
      <trkpt lat="54.50899" lon="16.57109">
        <ele>41.449505</ele>
        <time>2024-07-31T09:58:34.784Z</time>
      </trkpt>
      <trkpt lat="54.509" lon="16.57126">
        <ele>41.440406</ele>
        <time>2024-07-31T09:58:36.768Z</time>
      </trkpt>
      <trkpt lat="54.50899" lon="16.57143">
        <ele>41.431217</ele>
        <time>2024-07-31T09:58:38.786Z</time>
      </trkpt>
      <trkpt lat="54.509" lon="16.5716">
        <ele>41.422188</ele>
        <time>2024-07-31T09:58:40.789Z</time>
      </trkpt>
      <trkpt lat="54.50899" lon="16.57176">
        <ele>41.413427</ele>
        <time>2024-07-31T09:58:42.802Z</time>
      </trkpt>
      <trkpt lat="54.509" lon="16.57192">
        <ele>41.404607</ele>
        <time>2024-07-31T09:58:44.795Z</time>
      </trkpt>
      <trkpt lat="54.509" lon="16.57209">
        <ele>41.395578</ele>
        <time>2024-07-31T09:58:46.802Z</time>
      </trkpt>
      <trkpt lat="54.509" lon="16.57225">
        <ele>41.38698</ele>
        <time>2024-07-31T09:58:48.811Z</time>
      </trkpt>
      <trkpt lat="54.50899" lon="16.57242">
        <ele>41.377844</ele>
        <time>2024-07-31T09:58:50.794Z</time>
      </trkpt>
      <trkpt lat="54.509" lon="16.57258">
        <ele>41.400383</ele>
        <time>2024-07-31T09:58:52.794Z</time>
      </trkpt>
      <trkpt lat="54.509" lon="16.57275">
        <ele>41.429491</ele>
        <time>2024-07-31T09:58:54.781Z</time>
      </trkpt>
      <trkpt lat="54.509" lon="16.57292">
        <ele>41.459112</ele>
        <time>2024-07-31T09:58:56.779Z</time>
      </trkpt>
      <trkpt lat="54.50901" lon="16.57307">
        <ele>41.487349</ele>
        <time>2024-07-31T09:58:58.813Z</time>
      </trkpt>
      <trkpt lat="54.50901" lon="16.57324">
        <ele>41.516312</ele>
        <time>2024-07-31T09:59:00.770Z</time>
      </trkpt>
      <trkpt lat="54.50901" lon="16.5734">
        <ele>41.545396</ele>
        <time>2024-07-31T09:59:02.788Z</time>
      </trkpt>
      <trkpt lat="54.50901" lon="16.57357">
        <ele>41.574839</ele>
        <time>2024-07-31T09:59:04.799Z</time>
      </trkpt>
      <trkpt lat="54.50901" lon="16.57373">
        <ele>41.603744</ele>
        <time>2024-07-31T09:59:06.786Z</time>
      </trkpt>
      <trkpt lat="54.50901" lon="16.5739">
        <ele>41.633005</ele>
        <time>2024-07-31T09:59:08.814Z</time>
      </trkpt>
      <trkpt lat="54.50902" lon="16.57405">
        <ele>41.66113</ele>
        <time>2024-07-31T09:59:10.791Z</time>
      </trkpt>
      <trkpt lat="54.50901" lon="16.57424">
        <ele>41.693824</ele>
        <time>2024-07-31T09:59:14.775Z</time>
      </trkpt>
      <trkpt lat="54.50902" lon="16.5744">
        <ele>41.723185</ele>
        <time>2024-07-31T09:59:17.764Z</time>
      </trkpt>
      <trkpt lat="54.50902" lon="16.5746">
        <ele>41.758228</ele>
        <time>2024-07-31T09:59:20.807Z</time>
      </trkpt>
      <trkpt lat="54.50902" lon="16.57481">
        <ele>41.794947</ele>
        <time>2024-07-31T09:59:23.805Z</time>
      </trkpt>
      <trkpt lat="54.50903" lon="16.57502">
        <ele>41.833281</ele>
        <time>2024-07-31T09:59:26.794Z</time>
      </trkpt>
      <trkpt lat="54.50903" lon="16.57524">
        <ele>41.872844</ele>
        <time>2024-07-31T09:59:29.798Z</time>
      </trkpt>
      <trkpt lat="54.50903" lon="16.57548">
        <ele>41.913813</ele>
        <time>2024-07-31T09:59:32.801Z</time>
      </trkpt>
      <trkpt lat="54.50903" lon="16.57571">
        <ele>41.942382</ele>
        <time>2024-07-31T09:59:35.780Z</time>
      </trkpt>
      <trkpt lat="54.50903" lon="16.57593">
        <ele>41.964826</ele>
        <time>2024-07-31T09:59:38.809Z</time>
      </trkpt>
      <trkpt lat="54.50904" lon="16.57616">
        <ele>41.986866</ele>
        <time>2024-07-31T09:59:41.786Z</time>
      </trkpt>
      <trkpt lat="54.50904" lon="16.57638">
        <ele>42.009401</ele>
        <time>2024-07-31T09:59:44.788Z</time>
      </trkpt>
      <trkpt lat="54.50904" lon="16.57654">
        <ele>42.025088</ele>
        <time>2024-07-31T09:59:46.781Z</time>
      </trkpt>
      <trkpt lat="54.50904" lon="16.5767">
        <ele>42.040865</ele>
        <time>2024-07-31T09:59:48.811Z</time>
      </trkpt>
      <trkpt lat="54.50904" lon="16.57685">
        <ele>42.056322</ele>
        <time>2024-07-31T09:59:50.777Z</time>
      </trkpt>
      <trkpt lat="54.50904" lon="16.57701">
        <ele>42.071877</ele>
        <time>2024-07-31T09:59:52.804Z</time>
      </trkpt>
      <trkpt lat="54.50903" lon="16.57718">
        <ele>42.088635</ele>
        <time>2024-07-31T09:59:54.799Z</time>
      </trkpt>
      <trkpt lat="54.50904" lon="16.57734">
        <ele>42.105289</ele>
        <time>2024-07-31T09:59:56.791Z</time>
      </trkpt>
      <trkpt lat="54.50903" lon="16.57752">
        <ele>42.123238</ele>
        <time>2024-07-31T09:59:58.813Z</time>
      </trkpt>
      <trkpt lat="54.50903" lon="16.57769">
        <ele>42.139892</ele>
        <time>2024-07-31T10:00:00.800Z</time>
      </trkpt>
      <trkpt lat="54.50903" lon="16.57785">
        <ele>42.156344</ele>
        <time>2024-07-31T10:00:02.780Z</time>
      </trkpt>
      <trkpt lat="54.50903" lon="16.57802">
        <ele>42.1724</ele>
        <time>2024-07-31T10:00:04.788Z</time>
      </trkpt>
      <trkpt lat="54.50903" lon="16.57818">
        <ele>42.18846</ele>
        <time>2024-07-31T10:00:06.801Z</time>
      </trkpt>
      <trkpt lat="54.50903" lon="16.57833">
        <ele>42.204022</ele>
        <time>2024-07-31T10:00:08.809Z</time>
      </trkpt>
      <trkpt lat="54.50903" lon="16.5785">
        <ele>42.220573</ele>
        <time>2024-07-31T10:00:10.809Z</time>
      </trkpt>
      <trkpt lat="54.50903" lon="16.57865">
        <ele>42.238736</ele>
        <time>2024-07-31T10:00:12.778Z</time>
      </trkpt>
      <trkpt lat="54.50902" lon="16.57881">
        <ele>42.281396</ele>
        <time>2024-07-31T10:00:14.811Z</time>
      </trkpt>
      <trkpt lat="54.50901" lon="16.57897">
        <ele>42.32508</ele>
        <time>2024-07-31T10:00:16.791Z</time>
      </trkpt>
      <trkpt lat="54.509" lon="16.57912">
        <ele>42.368165</ele>
        <time>2024-07-31T10:00:18.810Z</time>
      </trkpt>
      <trkpt lat="54.50899" lon="16.57935">
        <ele>42.431443</ele>
        <time>2024-07-31T10:00:21.788Z</time>
      </trkpt>
      <trkpt lat="54.50899" lon="16.57957">
        <ele>42.492598</ele>
        <time>2024-07-31T10:00:24.802Z</time>
      </trkpt>
      <trkpt lat="54.50898" lon="16.57979">
        <ele>42.553396</ele>
        <time>2024-07-31T10:00:27.798Z</time>
      </trkpt>
      <trkpt lat="54.50897" lon="16.58">
        <ele>42.612777</ele>
        <time>2024-07-31T10:00:30.774Z</time>
      </trkpt>
      <trkpt lat="54.50895" lon="16.58022">
        <ele>42.673065</ele>
        <time>2024-07-31T10:00:33.791Z</time>
      </trkpt>
      <trkpt lat="54.50894" lon="16.58037">
        <ele>42.716452</ele>
        <time>2024-07-31T10:00:35.811Z</time>
      </trkpt>
      <trkpt lat="54.50893" lon="16.58053">
        <ele>42.760042</ele>
        <time>2024-07-31T10:00:37.802Z</time>
      </trkpt>
      <trkpt lat="54.50891" lon="16.58075">
        <ele>42.82093</ele>
        <time>2024-07-31T10:00:40.790Z</time>
      </trkpt>
      <trkpt lat="54.5089" lon="16.58097">
        <ele>42.88198</ele>
        <time>2024-07-31T10:00:43.803Z</time>
      </trkpt>
      <trkpt lat="54.50889" lon="16.58112">
        <ele>42.92498</ele>
        <time>2024-07-31T10:00:45.786Z</time>
      </trkpt>
      <trkpt lat="54.50887" lon="16.58136">
        <ele>42.990205</ele>
        <time>2024-07-31T10:00:48.816Z</time>
      </trkpt>
      <trkpt lat="54.50886" lon="16.58151">
        <ele>43.033318</ele>
        <time>2024-07-31T10:00:50.793Z</time>
      </trkpt>
      <trkpt lat="54.50885" lon="16.58167">
        <ele>43.076908</ele>
        <time>2024-07-31T10:00:52.806Z</time>
      </trkpt>
      <trkpt lat="54.50884" lon="16.58182">
        <ele>43.099197</ele>
        <time>2024-07-31T10:00:54.810Z</time>
      </trkpt>
      <trkpt lat="54.50884" lon="16.58198">
        <ele>43.111171</ele>
        <time>2024-07-31T10:00:56.796Z</time>
      </trkpt>
      <trkpt lat="54.50883" lon="16.5822">
        <ele>43.127066</ele>
        <time>2024-07-31T10:00:59.788Z</time>
      </trkpt>
      <trkpt lat="54.50882" lon="16.58243">
        <ele>43.143972</ele>
        <time>2024-07-31T10:01:02.792Z</time>
      </trkpt>
      <trkpt lat="54.50882" lon="16.58265">
        <ele>43.160455</ele>
        <time>2024-07-31T10:01:05.804Z</time>
      </trkpt>
      <trkpt lat="54.50881" lon="16.58287">
        <ele>43.176933</ele>
        <time>2024-07-31T10:01:08.792Z</time>
      </trkpt>
      <trkpt lat="54.50881" lon="16.5831">
        <ele>43.194003</ele>
        <time>2024-07-31T10:01:11.796Z</time>
      </trkpt>
      <trkpt lat="54.50881" lon="16.58333">
        <ele>43.21078</ele>
        <time>2024-07-31T10:01:14.781Z</time>
      </trkpt>
      <trkpt lat="54.50881" lon="16.58355">
        <ele>43.227627</ele>
        <time>2024-07-31T10:01:17.779Z</time>
      </trkpt>
      <trkpt lat="54.50881" lon="16.58377">
        <ele>43.243956</ele>
        <time>2024-07-31T10:01:20.803Z</time>
      </trkpt>
      <trkpt lat="54.50881" lon="16.584">
        <ele>43.260728</ele>
        <time>2024-07-31T10:01:23.786Z</time>
      </trkpt>
      <trkpt lat="54.50881" lon="16.58421">
        <ele>43.276761</ele>
        <time>2024-07-31T10:01:26.790Z</time>
      </trkpt>
      <trkpt lat="54.5088" lon="16.58444">
        <ele>43.293468</ele>
        <time>2024-07-31T10:01:29.791Z</time>
      </trkpt>
      <trkpt lat="54.50881" lon="16.58467">
        <ele>43.310464</ele>
        <time>2024-07-31T10:01:32.778Z</time>
      </trkpt>
      <trkpt lat="54.5088" lon="16.5849">
        <ele>43.313275</ele>
        <time>2024-07-31T10:01:35.787Z</time>
      </trkpt>
      <trkpt lat="54.50881" lon="16.58505">
        <ele>43.297814</ele>
        <time>2024-07-31T10:01:37.791Z</time>
      </trkpt>
      <trkpt lat="54.50881" lon="16.58521">
        <ele>43.28187</ele>
        <time>2024-07-31T10:01:39.791Z</time>
      </trkpt>
      <trkpt lat="54.50881" lon="16.58537">
        <ele>43.265911</ele>
        <time>2024-07-31T10:01:41.790Z</time>
      </trkpt>
      <trkpt lat="54.50881" lon="16.58553">
        <ele>43.250067</ele>
        <time>2024-07-31T10:01:43.795Z</time>
      </trkpt>
      <trkpt lat="54.5088" lon="16.58577">
        <ele>43.226643</ele>
        <time>2024-07-31T10:01:46.801Z</time>
      </trkpt>
      <trkpt lat="54.5088" lon="16.58592">
        <ele>43.21099</ele>
        <time>2024-07-31T10:01:48.809Z</time>
      </trkpt>
      <trkpt lat="54.5088" lon="16.58615">
        <ele>43.188167</ele>
        <time>2024-07-31T10:01:51.794Z</time>
      </trkpt>
      <trkpt lat="54.5088" lon="16.58631">
        <ele>43.172522</ele>
        <time>2024-07-31T10:01:53.792Z</time>
      </trkpt>
      <trkpt lat="54.5088" lon="16.58653">
        <ele>43.150399</ele>
        <time>2024-07-31T10:01:56.797Z</time>
      </trkpt>
      <trkpt lat="54.50879" lon="16.58676">
        <ele>43.127456</ele>
        <time>2024-07-31T10:01:59.791Z</time>
      </trkpt>
      <trkpt lat="54.50878" lon="16.58692">
        <ele>43.111666</ele>
        <time>2024-07-31T10:02:01.814Z</time>
      </trkpt>
      <trkpt lat="54.50878" lon="16.58715">
        <ele>43.089242</ele>
        <time>2024-07-31T10:02:04.797Z</time>
      </trkpt>
      <trkpt lat="54.50879" lon="16.58737">
        <ele>43.066705</ele>
        <time>2024-07-31T10:02:07.797Z</time>
      </trkpt>
      <trkpt lat="54.50878" lon="16.58753">
        <ele>43.050945</ele>
        <time>2024-07-31T10:02:09.791Z</time>
      </trkpt>
      <trkpt lat="54.50878" lon="16.58775">
        <ele>43.028912</ele>
        <time>2024-07-31T10:02:12.788Z</time>
      </trkpt>
      <trkpt lat="54.50878" lon="16.58797">
        <ele>43.015835</ele>
        <time>2024-07-31T10:02:15.799Z</time>
      </trkpt>
      <trkpt lat="54.50877" lon="16.5882">
        <ele>43.027318</ele>
        <time>2024-07-31T10:02:18.809Z</time>
      </trkpt>
      <trkpt lat="54.50877" lon="16.58841">
        <ele>43.038279</ele>
        <time>2024-07-31T10:02:21.779Z</time>
      </trkpt>
      <trkpt lat="54.50877" lon="16.58862">
        <ele>43.049192</ele>
        <time>2024-07-31T10:02:24.791Z</time>
      </trkpt>
      <trkpt lat="54.50877" lon="16.58884">
        <ele>43.060101</ele>
        <time>2024-07-31T10:02:27.798Z</time>
      </trkpt>
      <trkpt lat="54.50877" lon="16.58905">
        <ele>43.070855</ele>
        <time>2024-07-31T10:02:30.793Z</time>
      </trkpt>
      <trkpt lat="54.50877" lon="16.58927">
        <ele>43.082022</ele>
        <time>2024-07-31T10:02:33.780Z</time>
      </trkpt>
      <trkpt lat="54.50878" lon="16.58948">
        <ele>43.093038</ele>
        <time>2024-07-31T10:02:36.786Z</time>
      </trkpt>
      <trkpt lat="54.50877" lon="16.5897">
        <ele>43.104116</ele>
        <time>2024-07-31T10:02:39.788Z</time>
      </trkpt>
      <trkpt lat="54.50878" lon="16.58991">
        <ele>43.115288</ele>
        <time>2024-07-31T10:02:42.778Z</time>
      </trkpt>
      <trkpt lat="54.50878" lon="16.59009">
        <ele>43.124424</ele>
        <time>2024-07-31T10:02:45.775Z</time>
      </trkpt>
      <trkpt lat="54.50877" lon="16.5903">
        <ele>43.135042</ele>
        <time>2024-07-31T10:02:48.809Z</time>
      </trkpt>
      <trkpt lat="54.50876" lon="16.59051">
        <ele>43.145972</ele>
        <time>2024-07-31T10:02:51.776Z</time>
      </trkpt>
      <trkpt lat="54.50876" lon="16.5907">
        <ele>43.155856</ele>
        <time>2024-07-31T10:02:54.790Z</time>
      </trkpt>
      <trkpt lat="54.50877" lon="16.5909">
        <ele>43.166102</ele>
        <time>2024-07-31T10:02:57.789Z</time>
      </trkpt>
      <trkpt lat="54.50876" lon="16.59111">
        <ele>43.194566</ele>
        <time>2024-07-31T10:03:00.793Z</time>
      </trkpt>
      <trkpt lat="54.50876" lon="16.59129">
        <ele>43.235266</ele>
        <time>2024-07-31T10:03:03.773Z</time>
      </trkpt>
      <trkpt lat="54.50877" lon="16.59146">
        <ele>43.27331</ele>
        <time>2024-07-31T10:03:06.800Z</time>
      </trkpt>
      <trkpt lat="54.50876" lon="16.59166">
        <ele>43.320661</ele>
        <time>2024-07-31T10:03:09.790Z</time>
      </trkpt>
      <trkpt lat="54.50876" lon="16.59186">
        <ele>43.365922</ele>
        <time>2024-07-31T10:03:12.810Z</time>
      </trkpt>
      <trkpt lat="54.50876" lon="16.59206">
        <ele>43.410486</ele>
        <time>2024-07-31T10:03:15.808Z</time>
      </trkpt>
      <trkpt lat="54.50875" lon="16.59226">
        <ele>43.455387</ele>
        <time>2024-07-31T10:03:18.808Z</time>
      </trkpt>
      <trkpt lat="54.50875" lon="16.59246">
        <ele>43.502493</ele>
        <time>2024-07-31T10:03:21.790Z</time>
      </trkpt>
      <trkpt lat="54.50875" lon="16.59267">
        <ele>43.550469</ele>
        <time>2024-07-31T10:03:24.791Z</time>
      </trkpt>
      <trkpt lat="54.50875" lon="16.59288">
        <ele>43.597322</ele>
        <time>2024-07-31T10:03:27.810Z</time>
      </trkpt>
      <trkpt lat="54.50875" lon="16.59309">
        <ele>43.646018</ele>
        <time>2024-07-31T10:03:30.804Z</time>
      </trkpt>
      <trkpt lat="54.50874" lon="16.5933">
        <ele>43.694019</ele>
        <time>2024-07-31T10:03:33.804Z</time>
      </trkpt>
      <trkpt lat="54.50874" lon="16.59353">
        <ele>43.744273</ele>
        <time>2024-07-31T10:03:36.795Z</time>
      </trkpt>
      <trkpt lat="54.50875" lon="16.59374">
        <ele>43.793511</ele>
        <time>2024-07-31T10:03:39.808Z</time>
      </trkpt>
      <trkpt lat="54.50875" lon="16.59397">
        <ele>43.845602</ele>
        <time>2024-07-31T10:03:42.784Z</time>
      </trkpt>
      <trkpt lat="54.50875" lon="16.59413">
        <ele>43.864321</ele>
        <time>2024-07-31T10:03:44.796Z</time>
      </trkpt>
      <trkpt lat="54.50875" lon="16.59436">
        <ele>43.761098</ele>
        <time>2024-07-31T10:03:47.799Z</time>
      </trkpt>
      <trkpt lat="54.50874" lon="16.59458">
        <ele>43.659642</ele>
        <time>2024-07-31T10:03:50.778Z</time>
      </trkpt>
      <trkpt lat="54.50874" lon="16.59475">
        <ele>43.582509</ele>
        <time>2024-07-31T10:03:52.778Z</time>
      </trkpt>
      <trkpt lat="54.50874" lon="16.59491">
        <ele>43.511744</ele>
        <time>2024-07-31T10:03:54.767Z</time>
      </trkpt>
      <trkpt lat="54.50874" lon="16.59508">
        <ele>43.437362</ele>
        <time>2024-07-31T10:03:56.783Z</time>
      </trkpt>
      <trkpt lat="54.50874" lon="16.59524">
        <ele>43.361193</ele>
        <time>2024-07-31T10:03:58.825Z</time>
      </trkpt>
      <trkpt lat="54.50874" lon="16.59547">
        <ele>43.259784</ele>
        <time>2024-07-31T10:04:01.798Z</time>
      </trkpt>
      <trkpt lat="54.50873" lon="16.59563">
        <ele>43.185767</ele>
        <time>2024-07-31T10:04:03.796Z</time>
      </trkpt>
      <trkpt lat="54.50873" lon="16.5958">
        <ele>43.111847</ele>
        <time>2024-07-31T10:04:05.797Z</time>
      </trkpt>
      <trkpt lat="54.50874" lon="16.59596">
        <ele>43.036435</ele>
        <time>2024-07-31T10:04:07.776Z</time>
      </trkpt>
      <trkpt lat="54.50873" lon="16.59613">
        <ele>42.961132</ele>
        <time>2024-07-31T10:04:09.793Z</time>
      </trkpt>
      <trkpt lat="54.50874" lon="16.59637">
        <ele>42.855595</ele>
        <time>2024-07-31T10:04:12.776Z</time>
      </trkpt>
      <trkpt lat="54.50874" lon="16.59653">
        <ele>42.780714</ele>
        <time>2024-07-31T10:04:14.792Z</time>
      </trkpt>
      <trkpt lat="54.50874" lon="16.5967">
        <ele>42.706799</ele>
        <time>2024-07-31T10:04:16.783Z</time>
      </trkpt>
      <trkpt lat="54.50874" lon="16.59691">
        <ele>42.608091</ele>
        <time>2024-07-31T10:04:19.805Z</time>
      </trkpt>
      <trkpt lat="54.50874" lon="16.59707">
        <ele>42.53661</ele>
        <time>2024-07-31T10:04:21.781Z</time>
      </trkpt>
      <trkpt lat="54.50873" lon="16.5973">
        <ele>42.409845</ele>
        <time>2024-07-31T10:04:24.807Z</time>
      </trkpt>
      <trkpt lat="54.50873" lon="16.59752">
        <ele>42.250712</ele>
        <time>2024-07-31T10:04:27.801Z</time>
      </trkpt>
      <trkpt lat="54.50873" lon="16.59774">
        <ele>42.090088</ele>
        <time>2024-07-31T10:04:30.788Z</time>
      </trkpt>
      <trkpt lat="54.50873" lon="16.59796">
        <ele>41.930911</ele>
        <time>2024-07-31T10:04:33.789Z</time>
      </trkpt>
      <trkpt lat="54.50873" lon="16.59817">
        <ele>41.77535</ele>
        <time>2024-07-31T10:04:36.786Z</time>
      </trkpt>
      <trkpt lat="54.50873" lon="16.59839">
        <ele>41.61475</ele>
        <time>2024-07-31T10:04:39.784Z</time>
      </trkpt>
      <trkpt lat="54.50873" lon="16.59862">
        <ele>41.453428</ele>
        <time>2024-07-31T10:04:42.803Z</time>
      </trkpt>
      <trkpt lat="54.50872" lon="16.59885">
        <ele>41.284818</ele>
        <time>2024-07-31T10:04:45.787Z</time>
      </trkpt>
      <trkpt lat="54.50872" lon="16.59908">
        <ele>41.117723</ele>
        <time>2024-07-31T10:04:48.798Z</time>
      </trkpt>
      <trkpt lat="54.50872" lon="16.59924">
        <ele>41.004876</ele>
        <time>2024-07-31T10:04:50.810Z</time>
      </trkpt>
      <trkpt lat="54.50873" lon="16.5994">
        <ele>40.884745</ele>
        <time>2024-07-31T10:04:52.787Z</time>
      </trkpt>
      <trkpt lat="54.50873" lon="16.59957">
        <ele>40.762476</ele>
        <time>2024-07-31T10:04:54.790Z</time>
      </trkpt>
      <trkpt lat="54.50873" lon="16.59973">
        <ele>40.646716</ele>
        <time>2024-07-31T10:04:56.805Z</time>
      </trkpt>
      <trkpt lat="54.50873" lon="16.59991">
        <ele>40.521573</ele>
        <time>2024-07-31T10:04:58.811Z</time>
      </trkpt>
      <trkpt lat="54.50872" lon="16.60009">
        <ele>40.388334</ele>
        <time>2024-07-31T10:05:00.792Z</time>
      </trkpt>
      <trkpt lat="54.50872" lon="16.60027">
        <ele>40.258134</ele>
        <time>2024-07-31T10:05:02.792Z</time>
      </trkpt>
      <trkpt lat="54.50872" lon="16.60046">
        <ele>40.228976</ele>
        <time>2024-07-31T10:05:04.788Z</time>
      </trkpt>
      <trkpt lat="54.50872" lon="16.60064">
        <ele>40.218295</ele>
        <time>2024-07-31T10:05:06.790Z</time>
      </trkpt>
      <trkpt lat="54.50872" lon="16.60081">
        <ele>40.207964</ele>
        <time>2024-07-31T10:05:08.819Z</time>
      </trkpt>
      <trkpt lat="54.50872" lon="16.60098">
        <ele>40.197585</ele>
        <time>2024-07-31T10:05:10.787Z</time>
      </trkpt>
      <trkpt lat="54.50871" lon="16.60115">
        <ele>40.187552</ele>
        <time>2024-07-31T10:05:12.793Z</time>
      </trkpt>
      <trkpt lat="54.50871" lon="16.60132">
        <ele>40.177472</ele>
        <time>2024-07-31T10:05:14.791Z</time>
      </trkpt>
      <trkpt lat="54.50871" lon="16.60149">
        <ele>40.167511</ele>
        <time>2024-07-31T10:05:16.789Z</time>
      </trkpt>
      <trkpt lat="54.50872" lon="16.60164">
        <ele>40.158261</ele>
        <time>2024-07-31T10:05:18.815Z</time>
      </trkpt>
      <trkpt lat="54.50872" lon="16.60187">
        <ele>40.144413</ele>
        <time>2024-07-31T10:05:21.803Z</time>
      </trkpt>
      <trkpt lat="54.50871" lon="16.60209">
        <ele>40.13151</ele>
        <time>2024-07-31T10:05:24.792Z</time>
      </trkpt>
      <trkpt lat="54.50871" lon="16.60231">
        <ele>40.118387</ele>
        <time>2024-07-31T10:05:27.797Z</time>
      </trkpt>
      <trkpt lat="54.50871" lon="16.60252">
        <ele>40.105742</ele>
        <time>2024-07-31T10:05:30.809Z</time>
      </trkpt>
      <trkpt lat="54.50871" lon="16.60272">
        <ele>40.093931</ele>
        <time>2024-07-31T10:05:33.806Z</time>
      </trkpt>
      <trkpt lat="54.50871" lon="16.60293">
        <ele>40.081525</ele>
        <time>2024-07-31T10:05:36.797Z</time>
      </trkpt>
      <trkpt lat="54.50871" lon="16.60314">
        <ele>40.06864</ele>
        <time>2024-07-31T10:05:39.789Z</time>
      </trkpt>
      <trkpt lat="54.50871" lon="16.60336">
        <ele>40.056055</ele>
        <time>2024-07-31T10:05:42.788Z</time>
      </trkpt>
      <trkpt lat="54.50871" lon="16.60356">
        <ele>40.139866</ele>
        <time>2024-07-31T10:05:45.790Z</time>
      </trkpt>
      <trkpt lat="54.50871" lon="16.60373">
        <ele>40.232667</ele>
        <time>2024-07-31T10:05:48.807Z</time>
      </trkpt>
      <trkpt lat="54.50871" lon="16.60392">
        <ele>40.333971</ele>
        <time>2024-07-31T10:05:52.806Z</time>
      </trkpt>
      <trkpt lat="54.50872" lon="16.6041">
        <ele>40.427042</ele>
        <time>2024-07-31T10:05:56.790Z</time>
      </trkpt>
      <trkpt lat="54.50872" lon="16.6043">
        <ele>40.534157</ele>
        <time>2024-07-31T10:06:00.787Z</time>
      </trkpt>
      <trkpt lat="54.50872" lon="16.60447">
        <ele>40.625368</ele>
        <time>2024-07-31T10:06:03.779Z</time>
      </trkpt>
      <trkpt lat="54.50873" lon="16.60464">
        <ele>40.712926</ele>
        <time>2024-07-31T10:06:06.792Z</time>
      </trkpt>
      <trkpt lat="54.50873" lon="16.60484">
        <ele>40.82162</ele>
        <time>2024-07-31T10:06:10.790Z</time>
      </trkpt>
      <trkpt lat="54.50872" lon="16.60501">
        <ele>40.910204</ele>
        <time>2024-07-31T10:06:13.790Z</time>
      </trkpt>
      <trkpt lat="54.50873" lon="16.60518">
        <ele>40.999319</ele>
        <time>2024-07-31T10:06:16.792Z</time>
      </trkpt>
      <trkpt lat="54.50873" lon="16.60537">
        <ele>41.103241</ele>
        <time>2024-07-31T10:06:20.792Z</time>
      </trkpt>
      <trkpt lat="54.50873" lon="16.60555">
        <ele>41.198185</ele>
        <time>2024-07-31T10:06:25.777Z</time>
      </trkpt>
      <trkpt lat="54.50873" lon="16.60586">
        <ele>41.360995</ele>
        <time>2024-07-31T10:07:07.774Z</time>
      </trkpt>
      <trkpt lat="54.50873" lon="16.60602">
        <ele>41.445949</ele>
        <time>2024-07-31T10:07:10.775Z</time>
      </trkpt>
      <trkpt lat="54.50873" lon="16.60619">
        <ele>41.537215</ele>
        <time>2024-07-31T10:07:13.783Z</time>
      </trkpt>
      <trkpt lat="54.50873" lon="16.60637">
        <ele>41.634279</ele>
        <time>2024-07-31T10:07:16.787Z</time>
      </trkpt>
      <trkpt lat="54.50872" lon="16.60657">
        <ele>41.658095</ele>
        <time>2024-07-31T10:07:19.789Z</time>
      </trkpt>
      <trkpt lat="54.50871" lon="16.60678">
        <ele>41.561517</ele>
        <time>2024-07-31T10:07:22.795Z</time>
      </trkpt>
      <trkpt lat="54.50871" lon="16.60699">
        <ele>41.466413</ele>
        <time>2024-07-31T10:07:25.790Z</time>
      </trkpt>
      <trkpt lat="54.50871" lon="16.60722">
        <ele>41.363093</ele>
        <time>2024-07-31T10:07:28.807Z</time>
      </trkpt>
      <trkpt lat="54.50871" lon="16.60744">
        <ele>41.260218</ele>
        <time>2024-07-31T10:07:31.773Z</time>
      </trkpt>
      <trkpt lat="54.50871" lon="16.60768">
        <ele>41.15324</ele>
        <time>2024-07-31T10:07:34.793Z</time>
      </trkpt>
      <trkpt lat="54.5087" lon="16.60783">
        <ele>41.081396</ele>
        <time>2024-07-31T10:07:36.789Z</time>
      </trkpt>
      <trkpt lat="54.5087" lon="16.60799">
        <ele>41.01053</ele>
        <time>2024-07-31T10:07:38.808Z</time>
      </trkpt>
      <trkpt lat="54.5087" lon="16.60815">
        <ele>40.936926</ele>
        <time>2024-07-31T10:07:40.787Z</time>
      </trkpt>
      <trkpt lat="54.5087" lon="16.60831">
        <ele>40.864689</ele>
        <time>2024-07-31T10:07:42.796Z</time>
      </trkpt>
      <trkpt lat="54.5087" lon="16.60847">
        <ele>40.790104</ele>
        <time>2024-07-31T10:07:44.793Z</time>
      </trkpt>
      <trkpt lat="54.5087" lon="16.60863">
        <ele>40.716499</ele>
        <time>2024-07-31T10:07:46.769Z</time>
      </trkpt>
      <trkpt lat="54.5087" lon="16.6088">
        <ele>40.639691</ele>
        <time>2024-07-31T10:07:48.831Z</time>
      </trkpt>
      <trkpt lat="54.50869" lon="16.60895">
        <ele>40.56879</ele>
        <time>2024-07-31T10:07:50.793Z</time>
      </trkpt>
      <trkpt lat="54.50869" lon="16.60912">
        <ele>40.491525</ele>
        <time>2024-07-31T10:07:52.788Z</time>
      </trkpt>
      <trkpt lat="54.50869" lon="16.60929">
        <ele>40.414656</ele>
        <time>2024-07-31T10:07:54.787Z</time>
      </trkpt>
      <trkpt lat="54.50869" lon="16.60946">
        <ele>40.339219</ele>
        <time>2024-07-31T10:07:56.785Z</time>
      </trkpt>
      <trkpt lat="54.50869" lon="16.60963">
        <ele>40.275175</ele>
        <time>2024-07-31T10:07:58.817Z</time>
      </trkpt>
      <trkpt lat="54.50869" lon="16.6098">
        <ele>40.256961</ele>
        <time>2024-07-31T10:08:00.793Z</time>
      </trkpt>
      <trkpt lat="54.50869" lon="16.60997">
        <ele>40.237875</ele>
        <time>2024-07-31T10:08:02.786Z</time>
      </trkpt>
      <trkpt lat="54.50869" lon="16.61014">
        <ele>40.219111</ele>
        <time>2024-07-31T10:08:04.798Z</time>
      </trkpt>
      <trkpt lat="54.50869" lon="16.61032">
        <ele>40.200104</ele>
        <time>2024-07-31T10:08:06.788Z</time>
      </trkpt>
      <trkpt lat="54.50869" lon="16.6105">
        <ele>40.180257</ele>
        <time>2024-07-31T10:08:08.828Z</time>
      </trkpt>
      <trkpt lat="54.50869" lon="16.61067">
        <ele>40.162256</ele>
        <time>2024-07-31T10:08:10.792Z</time>
      </trkpt>
      <trkpt lat="54.50869" lon="16.61083">
        <ele>40.144582</ele>
        <time>2024-07-31T10:08:12.788Z</time>
      </trkpt>
      <trkpt lat="54.5087" lon="16.611">
        <ele>40.12612</ele>
        <time>2024-07-31T10:08:14.784Z</time>
      </trkpt>
      <trkpt lat="54.5087" lon="16.61116">
        <ele>40.108528</ele>
        <time>2024-07-31T10:08:16.773Z</time>
      </trkpt>
      <trkpt lat="54.50871" lon="16.61132">
        <ele>40.09085</ele>
        <time>2024-07-31T10:08:18.830Z</time>
      </trkpt>
      <trkpt lat="54.50872" lon="16.61149">
        <ele>40.072605</ele>
        <time>2024-07-31T10:08:20.798Z</time>
      </trkpt>
      <trkpt lat="54.50873" lon="16.61165">
        <ele>40.054638</ele>
        <time>2024-07-31T10:08:22.783Z</time>
      </trkpt>
      <trkpt lat="54.50874" lon="16.61182">
        <ele>40.035945</ele>
        <time>2024-07-31T10:08:24.790Z</time>
      </trkpt>
      <trkpt lat="54.50875" lon="16.612">
        <ele>40.016336</ele>
        <time>2024-07-31T10:08:26.792Z</time>
      </trkpt>
      <trkpt lat="54.50876" lon="16.61218">
        <ele>39.996325</ele>
        <time>2024-07-31T10:08:28.837Z</time>
      </trkpt>
      <trkpt lat="54.50877" lon="16.61236">
        <ele>39.976979</ele>
        <time>2024-07-31T10:08:30.789Z</time>
      </trkpt>
      <trkpt lat="54.50878" lon="16.61254">
        <ele>39.957061</ele>
        <time>2024-07-31T10:08:32.791Z</time>
      </trkpt>
      <trkpt lat="54.50879" lon="16.61272">
        <ele>39.916391</ele>
        <time>2024-07-31T10:08:34.787Z</time>
      </trkpt>
      <trkpt lat="54.5088" lon="16.6129">
        <ele>39.818196</ele>
        <time>2024-07-31T10:08:36.796Z</time>
      </trkpt>
      <trkpt lat="54.50882" lon="16.61308">
        <ele>39.715819</ele>
        <time>2024-07-31T10:08:38.840Z</time>
      </trkpt>
      <trkpt lat="54.50883" lon="16.61326">
        <ele>39.615094</ele>
        <time>2024-07-31T10:08:40.781Z</time>
      </trkpt>
      <trkpt lat="54.50884" lon="16.61344">
        <ele>39.516755</ele>
        <time>2024-07-31T10:08:42.802Z</time>
      </trkpt>
      <trkpt lat="54.50884" lon="16.61362">
        <ele>39.41684</ele>
        <time>2024-07-31T10:08:44.808Z</time>
      </trkpt>
      <trkpt lat="54.50886" lon="16.6138">
        <ele>39.318095</ele>
        <time>2024-07-31T10:08:46.803Z</time>
      </trkpt>
      <trkpt lat="54.50887" lon="16.61397">
        <ele>39.21935</ele>
        <time>2024-07-31T10:08:48.827Z</time>
      </trkpt>
      <trkpt lat="54.50888" lon="16.61416">
        <ele>39.118169</ele>
        <time>2024-07-31T10:08:50.787Z</time>
      </trkpt>
      <trkpt lat="54.50889" lon="16.61434">
        <ele>39.01313</ele>
        <time>2024-07-31T10:08:52.781Z</time>
      </trkpt>
      <trkpt lat="54.5089" lon="16.61452">
        <ele>38.914676</ele>
        <time>2024-07-31T10:08:54.785Z</time>
      </trkpt>
      <trkpt lat="54.50891" lon="16.61471">
        <ele>38.809793</ele>
        <time>2024-07-31T10:08:56.781Z</time>
      </trkpt>
      <trkpt lat="54.50892" lon="16.6149">
        <ele>38.70594</ele>
        <time>2024-07-31T10:08:58.837Z</time>
      </trkpt>
      <trkpt lat="54.50893" lon="16.61508">
        <ele>38.603991</ele>
        <time>2024-07-31T10:09:00.796Z</time>
      </trkpt>
      <trkpt lat="54.50894" lon="16.61526">
        <ele>38.503912</ele>
        <time>2024-07-31T10:09:02.798Z</time>
      </trkpt>
      <trkpt lat="54.50894" lon="16.61544">
        <ele>38.405279</ele>
        <time>2024-07-31T10:09:04.792Z</time>
      </trkpt>
      <trkpt lat="54.50895" lon="16.61561">
        <ele>38.309297</ele>
        <time>2024-07-31T10:09:06.789Z</time>
      </trkpt>
      <trkpt lat="54.50896" lon="16.61579">
        <ele>38.230995</ele>
        <time>2024-07-31T10:09:08.834Z</time>
      </trkpt>
      <trkpt lat="54.50896" lon="16.61597">
        <ele>38.252659</ele>
        <time>2024-07-31T10:09:10.789Z</time>
      </trkpt>
      <trkpt lat="54.50896" lon="16.61615">
        <ele>38.274571</ele>
        <time>2024-07-31T10:09:12.795Z</time>
      </trkpt>
      <trkpt lat="54.50896" lon="16.61634">
        <ele>38.297439</ele>
        <time>2024-07-31T10:09:14.803Z</time>
      </trkpt>
      <trkpt lat="54.50897" lon="16.61654">
        <ele>38.320547</ele>
        <time>2024-07-31T10:09:16.812Z</time>
      </trkpt>
      <trkpt lat="54.50897" lon="16.61672">
        <ele>38.342127</ele>
        <time>2024-07-31T10:09:18.825Z</time>
      </trkpt>
      <trkpt lat="54.50897" lon="16.6169">
        <ele>38.364158</ele>
        <time>2024-07-31T10:09:20.774Z</time>
      </trkpt>
      <trkpt lat="54.50898" lon="16.61708">
        <ele>38.386189</ele>
        <time>2024-07-31T10:09:22.781Z</time>
      </trkpt>
      <trkpt lat="54.50898" lon="16.61727">
        <ele>38.408953</ele>
        <time>2024-07-31T10:09:24.786Z</time>
      </trkpt>
      <trkpt lat="54.50899" lon="16.61746">
        <ele>38.431947</ele>
        <time>2024-07-31T10:09:26.789Z</time>
      </trkpt>
      <trkpt lat="54.509" lon="16.61765">
        <ele>38.454482</ele>
        <time>2024-07-31T10:09:28.852Z</time>
      </trkpt>
      <trkpt lat="54.50902" lon="16.61784">
        <ele>38.477051</ele>
        <time>2024-07-31T10:09:30.773Z</time>
      </trkpt>
      <trkpt lat="54.50903" lon="16.61802">
        <ele>38.499355</ele>
        <time>2024-07-31T10:09:32.785Z</time>
      </trkpt>
      <trkpt lat="54.50904" lon="16.61821">
        <ele>38.522015</ele>
        <time>2024-07-31T10:09:34.795Z</time>
      </trkpt>
      <trkpt lat="54.50906" lon="16.61839">
        <ele>38.54381</ele>
        <time>2024-07-31T10:09:36.794Z</time>
      </trkpt>
      <trkpt lat="54.50907" lon="16.61856">
        <ele>38.564688</ele>
        <time>2024-07-31T10:09:38.830Z</time>
      </trkpt>
      <trkpt lat="54.50909" lon="16.61874">
        <ele>38.586042</ele>
        <time>2024-07-31T10:09:40.787Z</time>
      </trkpt>
      <trkpt lat="54.5091" lon="16.61891">
        <ele>38.592537</ele>
        <time>2024-07-31T10:09:42.791Z</time>
      </trkpt>
      <trkpt lat="54.50912" lon="16.61909">
        <ele>38.578029</ele>
        <time>2024-07-31T10:09:44.775Z</time>
      </trkpt>
      <trkpt lat="54.50914" lon="16.61926">
        <ele>38.56421</ele>
        <time>2024-07-31T10:09:46.799Z</time>
      </trkpt>
      <trkpt lat="54.50915" lon="16.61943">
        <ele>38.550831</ele>
        <time>2024-07-31T10:09:48.819Z</time>
      </trkpt>
      <trkpt lat="54.50917" lon="16.6196">
        <ele>38.536701</ele>
        <time>2024-07-31T10:09:50.810Z</time>
      </trkpt>
      <trkpt lat="54.50919" lon="16.61978">
        <ele>38.522386</ele>
        <time>2024-07-31T10:09:52.859Z</time>
      </trkpt>
      <trkpt lat="54.50921" lon="16.61995">
        <ele>38.508611</ele>
        <time>2024-07-31T10:09:54.809Z</time>
      </trkpt>
      <trkpt lat="54.50922" lon="16.62012">
        <ele>38.494972</ele>
        <time>2024-07-31T10:09:56.792Z</time>
      </trkpt>
      <trkpt lat="54.50924" lon="16.62027">
        <ele>38.481968</ele>
        <time>2024-07-31T10:09:58.799Z</time>
      </trkpt>
      <trkpt lat="54.50926" lon="16.62045">
        <ele>38.467837</ele>
        <time>2024-07-31T10:10:00.783Z</time>
      </trkpt>
      <trkpt lat="54.50928" lon="16.62062">
        <ele>38.453576</ele>
        <time>2024-07-31T10:10:02.788Z</time>
      </trkpt>
      <trkpt lat="54.5093" lon="16.62079">
        <ele>38.439605</ele>
        <time>2024-07-31T10:10:04.798Z</time>
      </trkpt>
      <trkpt lat="54.50933" lon="16.62097">
        <ele>38.425177</ele>
        <time>2024-07-31T10:10:06.801Z</time>
      </trkpt>
      <trkpt lat="54.50935" lon="16.62114">
        <ele>38.411204</ele>
        <time>2024-07-31T10:10:08.825Z</time>
      </trkpt>
      <trkpt lat="54.50937" lon="16.62131">
        <ele>38.397148</ele>
        <time>2024-07-31T10:10:10.793Z</time>
      </trkpt>
      <trkpt lat="54.50938" lon="16.62148">
        <ele>38.38299</ele>
        <time>2024-07-31T10:10:12.829Z</time>
      </trkpt>
      <trkpt lat="54.50938" lon="16.62167">
        <ele>38.36793</ele>
        <time>2024-07-31T10:10:14.773Z</time>
      </trkpt>
      <trkpt lat="54.50936" lon="16.62184">
        <ele>38.354148</ele>
        <time>2024-07-31T10:10:16.781Z</time>
      </trkpt>
      <trkpt lat="54.50932" lon="16.622">
        <ele>38.444979</ele>
        <time>2024-07-31T10:10:18.801Z</time>
      </trkpt>
      <trkpt lat="54.50927" lon="16.62215">
        <ele>38.571199</ele>
        <time>2024-07-31T10:10:20.774Z</time>
      </trkpt>
      <trkpt lat="54.5092" lon="16.62226">
        <ele>38.69752</ele>
        <time>2024-07-31T10:10:22.784Z</time>
      </trkpt>
      <trkpt lat="54.50911" lon="16.62236">
        <ele>38.825002</ele>
        <time>2024-07-31T10:10:24.777Z</time>
      </trkpt>
      <trkpt lat="54.50901" lon="16.62244">
        <ele>38.967306</ele>
        <time>2024-07-31T10:10:27.783Z</time>
      </trkpt>
      <trkpt lat="54.50911" lon="16.62247">
        <ele>39.097</ele>
        <time>2024-07-31T10:10:46.777Z</time>
      </trkpt>
      <trkpt lat="54.50921" lon="16.62246">
        <ele>39.224994</ele>
        <time>2024-07-31T10:10:50.788Z</time>
      </trkpt>
      <trkpt lat="54.50925" lon="16.62262">
        <ele>39.356727</ele>
        <time>2024-07-31T10:10:54.780Z</time>
      </trkpt>
      <trkpt lat="54.50929" lon="16.62279">
        <ele>39.489559</ele>
        <time>2024-07-31T10:10:58.812Z</time>
      </trkpt>
      <trkpt lat="54.50934" lon="16.62294">
        <ele>39.618893</ele>
        <time>2024-07-31T10:11:02.794Z</time>
      </trkpt>
      <trkpt lat="54.50938" lon="16.62311">
        <ele>39.759737</ele>
        <time>2024-07-31T10:11:06.794Z</time>
      </trkpt>
      <trkpt lat="54.50942" lon="16.62329">
        <ele>39.90432</ele>
        <time>2024-07-31T10:11:10.762Z</time>
      </trkpt>
      <trkpt lat="54.50947" lon="16.62349">
        <ele>40.058288</ele>
        <time>2024-07-31T10:11:14.787Z</time>
      </trkpt>
      <trkpt lat="54.5095" lon="16.62368">
        <ele>40.210102</ele>
        <time>2024-07-31T10:11:18.811Z</time>
      </trkpt>
      <trkpt lat="54.50951" lon="16.62389">
        <ele>40.359685</ele>
        <time>2024-07-31T10:11:22.784Z</time>
      </trkpt>
      <trkpt lat="54.5095" lon="16.62405">
        <ele>40.47896</ele>
        <time>2024-07-31T10:11:25.788Z</time>
      </trkpt>
      <trkpt lat="54.50949" lon="16.62421">
        <ele>40.599705</ele>
        <time>2024-07-31T10:11:28.787Z</time>
      </trkpt>
      <trkpt lat="54.50945" lon="16.62435">
        <ele>40.571782</ele>
        <time>2024-07-31T10:11:31.798Z</time>
      </trkpt>
      <trkpt lat="54.50936" lon="16.62441">
        <ele>40.457885</ele>
        <time>2024-07-31T10:11:34.785Z</time>
      </trkpt>
      <trkpt lat="54.5093" lon="16.62454">
        <ele>40.332157</ele>
        <time>2024-07-31T10:11:38.805Z</time>
      </trkpt>
      <trkpt lat="54.50925" lon="16.62469">
        <ele>40.217994</ele>
        <time>2024-07-31T10:11:41.791Z</time>
      </trkpt>
      <trkpt lat="54.50921" lon="16.62484">
        <ele>40.098071</ele>
        <time>2024-07-31T10:11:44.810Z</time>
      </trkpt>
      <trkpt lat="54.50918" lon="16.62501">
        <ele>39.971466</ele>
        <time>2024-07-31T10:11:47.787Z</time>
      </trkpt>
      <trkpt lat="54.50916" lon="16.62521">
        <ele>39.827812</ele>
        <time>2024-07-31T10:11:50.787Z</time>
      </trkpt>
      <trkpt lat="54.50915" lon="16.62542">
        <ele>39.676209</ele>
        <time>2024-07-31T10:11:53.774Z</time>
      </trkpt>
      <trkpt lat="54.50913" lon="16.62562">
        <ele>39.534003</ele>
        <time>2024-07-31T10:11:56.793Z</time>
      </trkpt>
      <trkpt lat="54.50909" lon="16.62582">
        <ele>39.387343</ele>
        <time>2024-07-31T10:11:59.790Z</time>
      </trkpt>
      <trkpt lat="54.50903" lon="16.62593">
        <ele>39.276255</ele>
        <time>2024-07-31T10:12:01.781Z</time>
      </trkpt>
      <trkpt lat="54.50895" lon="16.62604">
        <ele>39.153379</ele>
        <time>2024-07-31T10:12:03.797Z</time>
      </trkpt>
      <trkpt lat="54.50887" lon="16.62616">
        <ele>39.023506</ele>
        <time>2024-07-31T10:12:05.793Z</time>
      </trkpt>
      <trkpt lat="54.50878" lon="16.62629">
        <ele>38.880262</ele>
        <time>2024-07-31T10:12:07.793Z</time>
      </trkpt>
      <trkpt lat="54.50868" lon="16.62644">
        <ele>38.720889</ele>
        <time>2024-07-31T10:12:09.804Z</time>
      </trkpt>
      <trkpt lat="54.50857" lon="16.62659">
        <ele>38.552103</ele>
        <time>2024-07-31T10:12:11.775Z</time>
      </trkpt>
      <trkpt lat="54.50847" lon="16.62676">
        <ele>38.40817</ele>
        <time>2024-07-31T10:12:13.794Z</time>
      </trkpt>
      <trkpt lat="54.50839" lon="16.62696">
        <ele>38.309929</ele>
        <time>2024-07-31T10:12:15.796Z</time>
      </trkpt>
      <trkpt lat="54.50828" lon="16.62716">
        <ele>38.199033</ele>
        <time>2024-07-31T10:12:17.797Z</time>
      </trkpt>
      <trkpt lat="54.50817" lon="16.62734">
        <ele>38.089232</ele>
        <time>2024-07-31T10:12:19.809Z</time>
      </trkpt>
      <trkpt lat="54.50806" lon="16.62751">
        <ele>37.984462</ele>
        <time>2024-07-31T10:12:21.777Z</time>
      </trkpt>
      <trkpt lat="54.50795" lon="16.62769">
        <ele>37.880672</ele>
        <time>2024-07-31T10:12:23.792Z</time>
      </trkpt>
      <trkpt lat="54.50784" lon="16.62786">
        <ele>37.779345</ele>
        <time>2024-07-31T10:12:25.779Z</time>
      </trkpt>
      <trkpt lat="54.50774" lon="16.62802">
        <ele>37.683596</ele>
        <time>2024-07-31T10:12:27.790Z</time>
      </trkpt>
      <trkpt lat="54.50765" lon="16.62818">
        <ele>37.589601</ele>
        <time>2024-07-31T10:12:29.798Z</time>
      </trkpt>
      <trkpt lat="54.50756" lon="16.62834">
        <ele>37.498748</ele>
        <time>2024-07-31T10:12:31.790Z</time>
      </trkpt>
      <trkpt lat="54.50746" lon="16.62849">
        <ele>37.408468</ele>
        <time>2024-07-31T10:12:33.788Z</time>
      </trkpt>
      <trkpt lat="54.50737" lon="16.62863">
        <ele>37.321287</ele>
        <time>2024-07-31T10:12:35.793Z</time>
      </trkpt>
      <trkpt lat="54.50728" lon="16.62877">
        <ele>37.234897</ele>
        <time>2024-07-31T10:12:37.801Z</time>
      </trkpt>
      <trkpt lat="54.5072" lon="16.62891">
        <ele>37.205649</ele>
        <time>2024-07-31T10:12:39.797Z</time>
      </trkpt>
      <trkpt lat="54.50712" lon="16.62904">
        <ele>37.246931</ele>
        <time>2024-07-31T10:12:41.797Z</time>
      </trkpt>
      <trkpt lat="54.50706" lon="16.62917">
        <ele>37.283827</ele>
        <time>2024-07-31T10:12:43.793Z</time>
      </trkpt>
      <trkpt lat="54.50697" lon="16.62934">
        <ele>37.333653</ele>
        <time>2024-07-31T10:12:46.788Z</time>
      </trkpt>
      <trkpt lat="54.50689" lon="16.62945">
        <ele>37.372043</ele>
        <time>2024-07-31T10:12:49.789Z</time>
      </trkpt>
      <trkpt lat="54.50683" lon="16.62958">
        <ele>37.406724</ele>
        <time>2024-07-31T10:12:53.782Z</time>
      </trkpt>
      <trkpt lat="54.50684" lon="16.62974">
        <ele>37.442139</ele>
        <time>2024-07-31T10:12:56.778Z</time>
      </trkpt>
      <trkpt lat="54.50686" lon="16.62991">
        <ele>37.478659</ele>
        <time>2024-07-31T10:12:59.786Z</time>
      </trkpt>
      <trkpt lat="54.50689" lon="16.63008">
        <ele>37.518041</ele>
        <time>2024-07-31T10:13:02.792Z</time>
      </trkpt>
      <trkpt lat="54.50691" lon="16.63028">
        <ele>37.562854</ele>
        <time>2024-07-31T10:13:05.778Z</time>
      </trkpt>
      <trkpt lat="54.50693" lon="16.63049">
        <ele>37.607784</ele>
        <time>2024-07-31T10:13:08.823Z</time>
      </trkpt>
      <trkpt lat="54.50696" lon="16.6307">
        <ele>37.655379</ele>
        <time>2024-07-31T10:13:11.795Z</time>
      </trkpt>
      <trkpt lat="54.50698" lon="16.63086">
        <ele>37.690671</ele>
        <time>2024-07-31T10:13:13.789Z</time>
      </trkpt>
      <trkpt lat="54.50699" lon="16.63101">
        <ele>37.724435</ele>
        <time>2024-07-31T10:13:15.811Z</time>
      </trkpt>
      <trkpt lat="54.50701" lon="16.63117">
        <ele>37.758634</ele>
        <time>2024-07-31T10:13:17.790Z</time>
      </trkpt>
      <trkpt lat="54.50703" lon="16.63132">
        <ele>37.792292</ele>
        <time>2024-07-31T10:13:19.795Z</time>
      </trkpt>
      <trkpt lat="54.50705" lon="16.63147">
        <ele>37.826304</ele>
        <time>2024-07-31T10:13:21.785Z</time>
      </trkpt>
      <trkpt lat="54.50708" lon="16.6317">
        <ele>37.816729</ele>
        <time>2024-07-31T10:13:24.792Z</time>
      </trkpt>
      <trkpt lat="54.5071" lon="16.63186">
        <ele>37.716096</ele>
        <time>2024-07-31T10:13:26.790Z</time>
      </trkpt>
      <trkpt lat="54.50712" lon="16.63203">
        <ele>37.613627</ele>
        <time>2024-07-31T10:13:28.830Z</time>
      </trkpt>
      <trkpt lat="54.50714" lon="16.63219">
        <ele>37.512443</ele>
        <time>2024-07-31T10:13:30.785Z</time>
      </trkpt>
      <trkpt lat="54.50717" lon="16.63238">
        <ele>37.396127</ele>
        <time>2024-07-31T10:13:33.794Z</time>
      </trkpt>
      <trkpt lat="54.50719" lon="16.63257">
        <ele>37.276207</ele>
        <time>2024-07-31T10:13:36.797Z</time>
      </trkpt>
      <trkpt lat="54.5072" lon="16.63276">
        <ele>37.162104</ele>
        <time>2024-07-31T10:13:39.793Z</time>
      </trkpt>
      <trkpt lat="54.50721" lon="16.63294">
        <ele>37.051443</ele>
        <time>2024-07-31T10:13:42.788Z</time>
      </trkpt>
      <trkpt lat="54.50721" lon="16.6331">
        <ele>36.950619</ele>
        <time>2024-07-31T10:13:45.785Z</time>
      </trkpt>
      <trkpt lat="54.5072" lon="16.63328">
        <ele>36.846071</ele>
        <time>2024-07-31T10:13:48.829Z</time>
      </trkpt>
      <trkpt lat="54.5072" lon="16.63345">
        <ele>36.739534</ele>
        <time>2024-07-31T10:13:51.797Z</time>
      </trkpt>
      <trkpt lat="54.50718" lon="16.63366">
        <ele>36.613908</ele>
        <time>2024-07-31T10:13:54.788Z</time>
      </trkpt>
      <trkpt lat="54.50716" lon="16.63388">
        <ele>36.475817</ele>
        <time>2024-07-31T10:13:57.805Z</time>
      </trkpt>
      <trkpt lat="54.50715" lon="16.63404">
        <ele>36.378296</ele>
        <time>2024-07-31T10:13:59.808Z</time>
      </trkpt>
      <trkpt lat="54.50714" lon="16.63421">
        <ele>36.273805</ele>
        <time>2024-07-31T10:14:01.801Z</time>
      </trkpt>
      <trkpt lat="54.50712" lon="16.63444">
        <ele>36.133349</ele>
        <time>2024-07-31T10:14:04.795Z</time>
      </trkpt>
      <trkpt lat="54.50711" lon="16.6346">
        <ele>36.037031</ele>
        <time>2024-07-31T10:14:06.794Z</time>
      </trkpt>
      <trkpt lat="54.5071" lon="16.63483">
        <ele>36.077571</ele>
        <time>2024-07-31T10:14:09.789Z</time>
      </trkpt>
      <trkpt lat="54.50709" lon="16.63499">
        <ele>36.189721</ele>
        <time>2024-07-31T10:14:11.817Z</time>
      </trkpt>
      <trkpt lat="54.50708" lon="16.63514">
        <ele>36.301295</ele>
        <time>2024-07-31T10:14:13.793Z</time>
      </trkpt>
      <trkpt lat="54.50706" lon="16.6353">
        <ele>36.413694</ele>
        <time>2024-07-31T10:14:15.820Z</time>
      </trkpt>
      <trkpt lat="54.50705" lon="16.63546">
        <ele>36.52597</ele>
        <time>2024-07-31T10:14:17.790Z</time>
      </trkpt>
      <trkpt lat="54.50704" lon="16.63562">
        <ele>36.641758</ele>
        <time>2024-07-31T10:14:19.793Z</time>
      </trkpt>
      <trkpt lat="54.50703" lon="16.63585">
        <ele>36.804304</ele>
        <time>2024-07-31T10:14:22.793Z</time>
      </trkpt>
      <trkpt lat="54.50702" lon="16.63601">
        <ele>36.920674</ele>
        <time>2024-07-31T10:14:24.781Z</time>
      </trkpt>
      <trkpt lat="54.507" lon="16.63625">
        <ele>37.085916</ele>
        <time>2024-07-31T10:14:27.786Z</time>
      </trkpt>
      <trkpt lat="54.50699" lon="16.63647">
        <ele>37.245069</ele>
        <time>2024-07-31T10:14:30.799Z</time>
      </trkpt>
      <trkpt lat="54.50698" lon="16.6367">
        <ele>37.40398</ele>
        <time>2024-07-31T10:14:33.788Z</time>
      </trkpt>
      <trkpt lat="54.50697" lon="16.63691">
        <ele>37.558671</ele>
        <time>2024-07-31T10:14:36.788Z</time>
      </trkpt>
      <trkpt lat="54.50695" lon="16.63712">
        <ele>37.708563</ele>
        <time>2024-07-31T10:14:39.797Z</time>
      </trkpt>
      <trkpt lat="54.50694" lon="16.63735">
        <ele>37.866564</ele>
        <time>2024-07-31T10:14:42.781Z</time>
      </trkpt>
      <trkpt lat="54.50693" lon="16.63757">
        <ele>38.02685</ele>
        <time>2024-07-31T10:14:45.796Z</time>
      </trkpt>
      <trkpt lat="54.50691" lon="16.6378">
        <ele>38.192398</ele>
        <time>2024-07-31T10:14:48.819Z</time>
      </trkpt>
      <trkpt lat="54.5069" lon="16.63802">
        <ele>38.38695</ele>
        <time>2024-07-31T10:14:51.799Z</time>
      </trkpt>
      <trkpt lat="54.5069" lon="16.63817">
        <ele>38.524564</ele>
        <time>2024-07-31T10:14:53.795Z</time>
      </trkpt>
      <trkpt lat="54.50689" lon="16.6384">
        <ele>38.723748</ele>
        <time>2024-07-31T10:14:56.781Z</time>
      </trkpt>
      <trkpt lat="54.50689" lon="16.63856">
        <ele>38.861571</ele>
        <time>2024-07-31T10:14:58.826Z</time>
      </trkpt>
      <trkpt lat="54.50688" lon="16.63878">
        <ele>39.062393</ele>
        <time>2024-07-31T10:15:01.794Z</time>
      </trkpt>
      <trkpt lat="54.50687" lon="16.639">
        <ele>39.252108</ele>
        <time>2024-07-31T10:15:04.795Z</time>
      </trkpt>
      <trkpt lat="54.50687" lon="16.63921">
        <ele>39.437357</ele>
        <time>2024-07-31T10:15:07.812Z</time>
      </trkpt>
      <trkpt lat="54.50687" lon="16.63942">
        <ele>39.6279</ele>
        <time>2024-07-31T10:15:10.798Z</time>
      </trkpt>
      <trkpt lat="54.50688" lon="16.63964">
        <ele>39.822024</ele>
        <time>2024-07-31T10:15:13.801Z</time>
      </trkpt>
      <trkpt lat="54.50687" lon="16.63987">
        <ele>40.019717</ele>
        <time>2024-07-31T10:15:16.775Z</time>
      </trkpt>
      <trkpt lat="54.50687" lon="16.64008">
        <ele>40.210266</ele>
        <time>2024-07-31T10:15:19.797Z</time>
      </trkpt>
      <trkpt lat="54.50687" lon="16.64029">
        <ele>40.38934</ele>
        <time>2024-07-31T10:15:22.795Z</time>
      </trkpt>
      <trkpt lat="54.50688" lon="16.64048">
        <ele>40.562666</ele>
        <time>2024-07-31T10:15:25.813Z</time>
      </trkpt>
      <trkpt lat="54.50688" lon="16.64068">
        <ele>40.737337</ele>
        <time>2024-07-31T10:15:28.842Z</time>
      </trkpt>
      <trkpt lat="54.50688" lon="16.64088">
        <ele>40.913106</ele>
        <time>2024-07-31T10:15:31.802Z</time>
      </trkpt>
      <trkpt lat="54.50688" lon="16.64109">
        <ele>41.049399</ele>
        <time>2024-07-31T10:15:34.813Z</time>
      </trkpt>
      <trkpt lat="54.50688" lon="16.6413">
        <ele>41.185655</ele>
        <time>2024-07-31T10:15:37.810Z</time>
      </trkpt>
      <trkpt lat="54.50688" lon="16.64151">
        <ele>41.327848</ele>
        <time>2024-07-31T10:15:40.810Z</time>
      </trkpt>
      <trkpt lat="54.50688" lon="16.64173">
        <ele>41.469365</ele>
        <time>2024-07-31T10:15:43.814Z</time>
      </trkpt>
      <trkpt lat="54.50688" lon="16.64193">
        <ele>41.601711</ele>
        <time>2024-07-31T10:15:46.796Z</time>
      </trkpt>
      <trkpt lat="54.50689" lon="16.64213">
        <ele>41.73301</ele>
        <time>2024-07-31T10:15:49.794Z</time>
      </trkpt>
      <trkpt lat="54.5069" lon="16.64233">
        <ele>41.865354</ele>
        <time>2024-07-31T10:15:52.791Z</time>
      </trkpt>
      <trkpt lat="54.50692" lon="16.64253">
        <ele>41.99792</ele>
        <time>2024-07-31T10:15:55.797Z</time>
      </trkpt>
      <trkpt lat="54.50695" lon="16.64272">
        <ele>42.130065</ele>
        <time>2024-07-31T10:15:58.831Z</time>
      </trkpt>
      <trkpt lat="54.50698" lon="16.64292">
        <ele>42.264475</ele>
        <time>2024-07-31T10:16:01.787Z</time>
      </trkpt>
      <trkpt lat="54.50702" lon="16.64313">
        <ele>42.407564</ele>
        <time>2024-07-31T10:16:04.781Z</time>
      </trkpt>
      <trkpt lat="54.50706" lon="16.64333">
        <ele>42.547793</ele>
        <time>2024-07-31T10:16:07.802Z</time>
      </trkpt>
      <trkpt lat="54.5071" lon="16.64352">
        <ele>42.680596</ele>
        <time>2024-07-31T10:16:10.820Z</time>
      </trkpt>
      <trkpt lat="54.50714" lon="16.64371">
        <ele>42.818113</ele>
        <time>2024-07-31T10:16:13.805Z</time>
      </trkpt>
      <trkpt lat="54.50718" lon="16.64391">
        <ele>42.948423</ele>
        <time>2024-07-31T10:16:16.807Z</time>
      </trkpt>
      <trkpt lat="54.50721" lon="16.6441">
        <ele>43.045922</ele>
        <time>2024-07-31T10:16:19.799Z</time>
      </trkpt>
      <trkpt lat="54.50726" lon="16.6443">
        <ele>43.143487</ele>
        <time>2024-07-31T10:16:22.796Z</time>
      </trkpt>
      <trkpt lat="54.5073" lon="16.64449">
        <ele>43.237447</ele>
        <time>2024-07-31T10:16:25.800Z</time>
      </trkpt>
      <trkpt lat="54.50733" lon="16.64467">
        <ele>43.327777</ele>
        <time>2024-07-31T10:16:28.860Z</time>
      </trkpt>
      <trkpt lat="54.50737" lon="16.64486">
        <ele>43.421845</ele>
        <time>2024-07-31T10:16:31.797Z</time>
      </trkpt>
      <trkpt lat="54.50741" lon="16.64505">
        <ele>43.515913</ele>
        <time>2024-07-31T10:16:34.809Z</time>
      </trkpt>
      <trkpt lat="54.50744" lon="16.64521">
        <ele>43.596154</ele>
        <time>2024-07-31T10:16:37.798Z</time>
      </trkpt>
      <trkpt lat="54.50748" lon="16.64538">
        <ele>43.678169</ele>
        <time>2024-07-31T10:16:40.814Z</time>
      </trkpt>
      <trkpt lat="54.50751" lon="16.64555">
        <ele>43.763815</ele>
        <time>2024-07-31T10:16:43.799Z</time>
      </trkpt>
      <trkpt lat="54.50754" lon="16.64573">
        <ele>43.853579</ele>
        <time>2024-07-31T10:16:46.805Z</time>
      </trkpt>
      <trkpt lat="54.50758" lon="16.64591">
        <ele>43.943646</ele>
        <time>2024-07-31T10:16:49.787Z</time>
      </trkpt>
      <trkpt lat="54.50761" lon="16.64611">
        <ele>44.039497</ele>
        <time>2024-07-31T10:16:52.797Z</time>
      </trkpt>
      <trkpt lat="54.50765" lon="16.64628">
        <ele>44.126466</ele>
        <time>2024-07-31T10:16:55.817Z</time>
      </trkpt>
      <trkpt lat="54.50769" lon="16.64645">
        <ele>44.210969</ele>
        <time>2024-07-31T10:16:58.831Z</time>
      </trkpt>
      <trkpt lat="54.50772" lon="16.64663">
        <ele>44.297149</ele>
        <time>2024-07-31T10:17:01.789Z</time>
      </trkpt>
      <trkpt lat="54.50776" lon="16.64681">
        <ele>44.387037</ele>
        <time>2024-07-31T10:17:04.791Z</time>
      </trkpt>
      <trkpt lat="54.50778" lon="16.64697">
        <ele>44.340662</ele>
        <time>2024-07-31T10:17:08.819Z</time>
      </trkpt>
      <trkpt lat="54.50783" lon="16.64715">
        <ele>44.272767</ele>
        <time>2024-07-31T10:17:34.798Z</time>
      </trkpt>
      <trkpt lat="54.50786" lon="16.64733">
        <ele>44.213694</ele>
        <time>2024-07-31T10:17:37.793Z</time>
      </trkpt>
      <trkpt lat="54.5079" lon="16.64751">
        <ele>44.150504</ele>
        <time>2024-07-31T10:17:40.795Z</time>
      </trkpt>
      <trkpt lat="54.50793" lon="16.64772">
        <ele>44.080438</ele>
        <time>2024-07-31T10:17:43.791Z</time>
      </trkpt>
      <trkpt lat="54.50797" lon="16.64793">
        <ele>44.00819</ele>
        <time>2024-07-31T10:17:46.801Z</time>
      </trkpt>
      <trkpt lat="54.50801" lon="16.64814">
        <ele>43.93611</ele>
        <time>2024-07-31T10:17:49.792Z</time>
      </trkpt>
      <trkpt lat="54.50804" lon="16.64834">
        <ele>43.8692</ele>
        <time>2024-07-31T10:17:52.793Z</time>
      </trkpt>
      <trkpt lat="54.50808" lon="16.64854">
        <ele>43.80009</ele>
        <time>2024-07-31T10:17:55.793Z</time>
      </trkpt>
      <trkpt lat="54.50812" lon="16.64875">
        <ele>43.726611</ele>
        <time>2024-07-31T10:17:58.828Z</time>
      </trkpt>
      <trkpt lat="54.50815" lon="16.64896">
        <ele>43.657502</ele>
        <time>2024-07-31T10:18:01.802Z</time>
      </trkpt>
      <trkpt lat="54.50819" lon="16.64917">
        <ele>43.585899</ele>
        <time>2024-07-31T10:18:04.779Z</time>
      </trkpt>
      <trkpt lat="54.50822" lon="16.64938">
        <ele>43.513509</ele>
        <time>2024-07-31T10:18:07.784Z</time>
      </trkpt>
      <trkpt lat="54.50825" lon="16.64953">
        <ele>43.462429</ele>
        <time>2024-07-31T10:18:09.799Z</time>
      </trkpt>
      <trkpt lat="54.50828" lon="16.64968">
        <ele>43.408868</ele>
        <time>2024-07-31T10:18:11.792Z</time>
      </trkpt>
      <trkpt lat="54.50832" lon="16.64991">
        <ele>43.26493</ele>
        <time>2024-07-31T10:18:14.797Z</time>
      </trkpt>
      <trkpt lat="54.50835" lon="16.65007">
        <ele>43.13507</ele>
        <time>2024-07-31T10:18:16.791Z</time>
      </trkpt>
      <trkpt lat="54.50838" lon="16.65023">
        <ele>42.998405</ele>
        <time>2024-07-31T10:18:18.848Z</time>
      </trkpt>
      <trkpt lat="54.50841" lon="16.65039">
        <ele>42.865182</ele>
        <time>2024-07-31T10:18:20.786Z</time>
      </trkpt>
      <trkpt lat="54.50844" lon="16.65055">
        <ele>42.734962</ele>
        <time>2024-07-31T10:18:22.805Z</time>
      </trkpt>
      <trkpt lat="54.50847" lon="16.65072">
        <ele>42.599851</ele>
        <time>2024-07-31T10:18:24.794Z</time>
      </trkpt>
      <trkpt lat="54.5085" lon="16.65088">
        <ele>42.463186</ele>
        <time>2024-07-31T10:18:26.793Z</time>
      </trkpt>
      <trkpt lat="54.50853" lon="16.65105">
        <ele>42.328014</ele>
        <time>2024-07-31T10:18:28.845Z</time>
      </trkpt>
      <trkpt lat="54.50856" lon="16.65122">
        <ele>42.190259</ele>
        <time>2024-07-31T10:18:30.798Z</time>
      </trkpt>
      <trkpt lat="54.50859" lon="16.65138">
        <ele>42.051261</ele>
        <time>2024-07-31T10:18:32.813Z</time>
      </trkpt>
      <trkpt lat="54.50863" lon="16.65155">
        <ele>41.916992</ele>
        <time>2024-07-31T10:18:34.794Z</time>
      </trkpt>
      <trkpt lat="54.50866" lon="16.65171">
        <ele>41.783381</ele>
        <time>2024-07-31T10:18:36.793Z</time>
      </trkpt>
      <trkpt lat="54.50868" lon="16.65187">
        <ele>41.647902</ele>
        <time>2024-07-31T10:18:38.830Z</time>
      </trkpt>
      <trkpt lat="54.50871" lon="16.65204">
        <ele>41.514912</ele>
        <time>2024-07-31T10:18:40.796Z</time>
      </trkpt>
      <trkpt lat="54.50874" lon="16.6522">
        <ele>41.383024</ele>
        <time>2024-07-31T10:18:42.831Z</time>
      </trkpt>
      <trkpt lat="54.50877" lon="16.65236">
        <ele>41.252315</ele>
        <time>2024-07-31T10:18:44.802Z</time>
      </trkpt>
      <trkpt lat="54.5088" lon="16.65251">
        <ele>41.125599</ele>
        <time>2024-07-31T10:18:46.789Z</time>
      </trkpt>
      <trkpt lat="54.50883" lon="16.65268">
        <ele>40.987845</ele>
        <time>2024-07-31T10:18:48.828Z</time>
      </trkpt>
      <trkpt lat="54.50887" lon="16.65284">
        <ele>40.955485</ele>
        <time>2024-07-31T10:18:50.793Z</time>
      </trkpt>
      <trkpt lat="54.50889" lon="16.65302">
        <ele>40.960057</ele>
        <time>2024-07-31T10:18:52.799Z</time>
      </trkpt>
      <trkpt lat="54.50892" lon="16.65319">
        <ele>40.964429</ele>
        <time>2024-07-31T10:18:54.787Z</time>
      </trkpt>
      <trkpt lat="54.50895" lon="16.65337">
        <ele>40.968898</ele>
        <time>2024-07-31T10:18:56.793Z</time>
      </trkpt>
      <trkpt lat="54.50899" lon="16.65355">
        <ele>40.973475</ele>
        <time>2024-07-31T10:18:58.828Z</time>
      </trkpt>
      <trkpt lat="54.50901" lon="16.65371">
        <ele>40.9778</ele>
        <time>2024-07-31T10:19:00.768Z</time>
      </trkpt>
      <trkpt lat="54.50904" lon="16.65388">
        <ele>40.982101</ele>
        <time>2024-07-31T10:19:02.791Z</time>
      </trkpt>
      <trkpt lat="54.50907" lon="16.65404">
        <ele>40.986178</ele>
        <time>2024-07-31T10:19:04.810Z</time>
      </trkpt>
      <trkpt lat="54.5091" lon="16.6542">
        <ele>40.990365</ele>
        <time>2024-07-31T10:19:06.805Z</time>
      </trkpt>
      <trkpt lat="54.50915" lon="16.65434">
        <ele>40.994346</ele>
        <time>2024-07-31T10:19:08.809Z</time>
      </trkpt>
      <trkpt lat="54.5092" lon="16.65447">
        <ele>40.998279</ele>
        <time>2024-07-31T10:19:10.787Z</time>
      </trkpt>
      <trkpt lat="54.50926" lon="16.6546">
        <ele>41.002417</ele>
        <time>2024-07-31T10:19:12.797Z</time>
      </trkpt>
      <trkpt lat="54.50934" lon="16.6547">
        <ele>41.006261</ele>
        <time>2024-07-31T10:19:14.782Z</time>
      </trkpt>
      <trkpt lat="54.50943" lon="16.6548">
        <ele>41.011101</ele>
        <time>2024-07-31T10:19:17.787Z</time>
      </trkpt>
      <trkpt lat="54.50943" lon="16.65496">
        <ele>41.015126</ele>
        <time>2024-07-31T10:19:21.798Z</time>
      </trkpt>
      <trkpt lat="54.50936" lon="16.65513">
        <ele>41.020194</ele>
        <time>2024-07-31T10:19:25.816Z</time>
      </trkpt>
      <trkpt lat="54.50931" lon="16.65528">
        <ele>41.024301</ele>
        <time>2024-07-31T10:19:28.837Z</time>
      </trkpt>
      <trkpt lat="54.50928" lon="16.65544">
        <ele>41.028462</ele>
        <time>2024-07-31T10:19:31.782Z</time>
      </trkpt>
      <trkpt lat="54.50926" lon="16.65561">
        <ele>41.141423</ele>
        <time>2024-07-31T10:19:34.766Z</time>
      </trkpt>
      <trkpt lat="54.50926" lon="16.6558">
        <ele>41.258416</ele>
        <time>2024-07-31T10:19:37.784Z</time>
      </trkpt>
      <trkpt lat="54.50926" lon="16.65599">
        <ele>41.383039</ele>
        <time>2024-07-31T10:19:40.797Z</time>
      </trkpt>
      <trkpt lat="54.50927" lon="16.65618">
        <ele>41.505073</ele>
        <time>2024-07-31T10:19:43.793Z</time>
      </trkpt>
      <trkpt lat="54.50929" lon="16.65638">
        <ele>41.629984</ele>
        <time>2024-07-31T10:19:46.794Z</time>
      </trkpt>
      <trkpt lat="54.50931" lon="16.65657">
        <ele>41.756499</ele>
        <time>2024-07-31T10:19:49.811Z</time>
      </trkpt>
      <trkpt lat="54.50934" lon="16.65676">
        <ele>41.879841</ele>
        <time>2024-07-31T10:19:52.787Z</time>
      </trkpt>
      <trkpt lat="54.50937" lon="16.65695">
        <ele>42.001564</ele>
        <time>2024-07-31T10:19:55.794Z</time>
      </trkpt>
      <trkpt lat="54.50938" lon="16.65714">
        <ele>42.123793</ele>
        <time>2024-07-31T10:19:58.833Z</time>
      </trkpt>
      <trkpt lat="54.5094" lon="16.65732">
        <ele>42.243869</ele>
        <time>2024-07-31T10:20:01.791Z</time>
      </trkpt>
      <trkpt lat="54.50942" lon="16.65751">
        <ele>42.362692</ele>
        <time>2024-07-31T10:20:04.811Z</time>
      </trkpt>
      <trkpt lat="54.50944" lon="16.65769">
        <ele>42.482543</ele>
        <time>2024-07-31T10:20:07.794Z</time>
      </trkpt>
      <trkpt lat="54.50946" lon="16.65788">
        <ele>42.602813</ele>
        <time>2024-07-31T10:20:10.800Z</time>
      </trkpt>
      <trkpt lat="54.50948" lon="16.65806">
        <ele>42.719848</ele>
        <time>2024-07-31T10:20:13.801Z</time>
      </trkpt>
      <trkpt lat="54.50949" lon="16.65823">
        <ele>42.828386</ele>
        <time>2024-07-31T10:20:16.817Z</time>
      </trkpt>
      <trkpt lat="54.5095" lon="16.65839">
        <ele>42.934496</ele>
        <time>2024-07-31T10:20:19.796Z</time>
      </trkpt>
      <trkpt lat="54.5095" lon="16.65857">
        <ele>42.965032</ele>
        <time>2024-07-31T10:20:22.810Z</time>
      </trkpt>
      <trkpt lat="54.5095" lon="16.65873">
        <ele>42.887293</ele>
        <time>2024-07-31T10:20:25.792Z</time>
      </trkpt>
      <trkpt lat="54.50949" lon="16.65894">
        <ele>42.792776</ele>
        <time>2024-07-31T10:20:29.797Z</time>
      </trkpt>
      <trkpt lat="54.50948" lon="16.6591">
        <ele>42.719726</ele>
        <time>2024-07-31T10:20:32.812Z</time>
      </trkpt>
      <trkpt lat="54.50947" lon="16.65925">
        <ele>42.645666</ele>
        <time>2024-07-31T10:20:35.795Z</time>
      </trkpt>
      <trkpt lat="54.50946" lon="16.65941">
        <ele>42.573232</ele>
        <time>2024-07-31T10:20:38.827Z</time>
      </trkpt>
      <trkpt lat="54.50944" lon="16.65957">
        <ele>42.499507</ele>
        <time>2024-07-31T10:20:41.793Z</time>
      </trkpt>
      <trkpt lat="54.50942" lon="16.65974">
        <ele>42.418499</ele>
        <time>2024-07-31T10:20:44.797Z</time>
      </trkpt>
      <trkpt lat="54.50939" lon="16.65991">
        <ele>42.333436</ele>
        <time>2024-07-31T10:20:47.794Z</time>
      </trkpt>
      <trkpt lat="54.50935" lon="16.66013">
        <ele>42.230831</ele>
        <time>2024-07-31T10:20:50.818Z</time>
      </trkpt>
      <trkpt lat="54.50931" lon="16.66034">
        <ele>42.125393</ele>
        <time>2024-07-31T10:20:53.778Z</time>
      </trkpt>
      <trkpt lat="54.50927" lon="16.66056">
        <ele>42.021351</ele>
        <time>2024-07-31T10:20:56.795Z</time>
      </trkpt>
      <trkpt lat="54.50923" lon="16.66077">
        <ele>41.915165</ele>
        <time>2024-07-31T10:20:59.781Z</time>
      </trkpt>
      <trkpt lat="54.5092" lon="16.66092">
        <ele>41.84317</ele>
        <time>2024-07-31T10:21:01.795Z</time>
      </trkpt>
      <trkpt lat="54.50916" lon="16.66111">
        <ele>41.748823</ele>
        <time>2024-07-31T10:21:04.789Z</time>
      </trkpt>
      <trkpt lat="54.50913" lon="16.66132">
        <ele>41.650879</ele>
        <time>2024-07-31T10:21:07.804Z</time>
      </trkpt>
      <trkpt lat="54.50909" lon="16.6615">
        <ele>41.567838</ele>
        <time>2024-07-31T10:21:10.808Z</time>
      </trkpt>
      <trkpt lat="54.50906" lon="16.66169">
        <ele>41.74884</ele>
        <time>2024-07-31T10:21:13.811Z</time>
      </trkpt>
      <trkpt lat="54.50903" lon="16.66188">
        <ele>41.929015</ele>
        <time>2024-07-31T10:21:16.787Z</time>
      </trkpt>
      <trkpt lat="54.509" lon="16.66207">
        <ele>42.106965</ele>
        <time>2024-07-31T10:21:19.799Z</time>
      </trkpt>
      <trkpt lat="54.50896" lon="16.66226">
        <ele>42.288389</ele>
        <time>2024-07-31T10:21:22.798Z</time>
      </trkpt>
      <trkpt lat="54.50893" lon="16.66245">
        <ele>42.464187</ele>
        <time>2024-07-31T10:21:25.791Z</time>
      </trkpt>
      <trkpt lat="54.5089" lon="16.66264">
        <ele>42.645626</ele>
        <time>2024-07-31T10:21:28.832Z</time>
      </trkpt>
      <trkpt lat="54.50887" lon="16.66283">
        <ele>42.825347</ele>
        <time>2024-07-31T10:21:31.812Z</time>
      </trkpt>
      <trkpt lat="54.50883" lon="16.66302">
        <ele>43.004606</ele>
        <time>2024-07-31T10:21:34.816Z</time>
      </trkpt>
      <trkpt lat="54.5088" lon="16.6632">
        <ele>43.169537</ele>
        <time>2024-07-31T10:21:37.799Z</time>
      </trkpt>
      <trkpt lat="54.50877" lon="16.66338">
        <ele>43.340156</ele>
        <time>2024-07-31T10:21:40.818Z</time>
      </trkpt>
      <trkpt lat="54.50874" lon="16.66355">
        <ele>43.500313</ele>
        <time>2024-07-31T10:21:43.800Z</time>
      </trkpt>
      <trkpt lat="54.50871" lon="16.66371">
        <ele>43.65746</ele>
        <time>2024-07-31T10:21:46.819Z</time>
      </trkpt>
      <trkpt lat="54.50869" lon="16.66388">
        <ele>43.813347</ele>
        <time>2024-07-31T10:21:49.799Z</time>
      </trkpt>
      <trkpt lat="54.50866" lon="16.66404">
        <ele>43.968769</ele>
        <time>2024-07-31T10:21:52.793Z</time>
      </trkpt>
      <trkpt lat="54.50863" lon="16.66421">
        <ele>44.121562</ele>
        <time>2024-07-31T10:21:55.808Z</time>
      </trkpt>
      <trkpt lat="54.5086" lon="16.66437">
        <ele>44.270435</ele>
        <time>2024-07-31T10:21:58.840Z</time>
      </trkpt>
      <trkpt lat="54.50858" lon="16.66452">
        <ele>44.377032</ele>
        <time>2024-07-31T10:22:01.806Z</time>
      </trkpt>
      <trkpt lat="54.50855" lon="16.66471">
        <ele>44.420574</ele>
        <time>2024-07-31T10:22:05.812Z</time>
      </trkpt>
      <trkpt lat="54.50853" lon="16.66486">
        <ele>44.455215</ele>
        <time>2024-07-31T10:22:09.773Z</time>
      </trkpt>
      <trkpt lat="54.50849" lon="16.66502">
        <ele>44.493597</ele>
        <time>2024-07-31T10:22:14.807Z</time>
      </trkpt>
      <trkpt lat="54.5085" lon="16.6652">
        <ele>44.533418</ele>
        <time>2024-07-31T10:26:54.780Z</time>
      </trkpt>
      <trkpt lat="54.50847" lon="16.66536">
        <ele>44.570483</ele>
        <time>2024-07-31T10:26:59.798Z</time>
      </trkpt>
      <trkpt lat="54.50844" lon="16.66553">
        <ele>44.610309</ele>
        <time>2024-07-31T10:27:03.801Z</time>
      </trkpt>
      <trkpt lat="54.50841" lon="16.66569">
        <ele>44.645995</ele>
        <time>2024-07-31T10:27:06.789Z</time>
      </trkpt>
      <trkpt lat="54.50837" lon="16.66587">
        <ele>44.688483</ele>
        <time>2024-07-31T10:27:10.801Z</time>
      </trkpt>
      <trkpt lat="54.50834" lon="16.66603">
        <ele>44.726952</ele>
        <time>2024-07-31T10:27:14.817Z</time>
      </trkpt>
      <trkpt lat="54.50832" lon="16.66619">
        <ele>44.763361</ele>
        <time>2024-07-31T10:27:17.806Z</time>
      </trkpt>
      <trkpt lat="54.50828" lon="16.66638">
        <ele>44.807321</ele>
        <time>2024-07-31T10:27:20.778Z</time>
      </trkpt>
      <trkpt lat="54.50824" lon="16.66658">
        <ele>44.854099</ele>
        <time>2024-07-31T10:27:23.800Z</time>
      </trkpt>
      <trkpt lat="54.50821" lon="16.6668">
        <ele>44.903264</ele>
        <time>2024-07-31T10:27:26.797Z</time>
      </trkpt>
      <trkpt lat="54.50818" lon="16.66702">
        <ele>44.953632</ele>
        <time>2024-07-31T10:27:29.805Z</time>
      </trkpt>
      <trkpt lat="54.50815" lon="16.66723">
        <ele>45.002191</ele>
        <time>2024-07-31T10:27:32.814Z</time>
      </trkpt>
      <trkpt lat="54.50811" lon="16.66745">
        <ele>45.047851</ele>
        <time>2024-07-31T10:27:35.797Z</time>
      </trkpt>
      <trkpt lat="54.50808" lon="16.66766">
        <ele>44.938325</ele>
        <time>2024-07-31T10:27:38.835Z</time>
      </trkpt>
      <trkpt lat="54.50804" lon="16.66785">
        <ele>44.833447</ele>
        <time>2024-07-31T10:27:41.768Z</time>
      </trkpt>
      <trkpt lat="54.50801" lon="16.66804">
        <ele>44.732923</ele>
        <time>2024-07-31T10:27:44.790Z</time>
      </trkpt>
      <trkpt lat="54.50798" lon="16.66823">
        <ele>44.634843</ele>
        <time>2024-07-31T10:27:47.801Z</time>
      </trkpt>
      <trkpt lat="54.50795" lon="16.66841">
        <ele>44.54019</ele>
        <time>2024-07-31T10:27:50.801Z</time>
      </trkpt>
      <trkpt lat="54.50791" lon="16.6686">
        <ele>44.437742</ele>
        <time>2024-07-31T10:27:53.805Z</time>
      </trkpt>
      <trkpt lat="54.50788" lon="16.6688">
        <ele>44.333711</ele>
        <time>2024-07-31T10:27:56.797Z</time>
      </trkpt>
      <trkpt lat="54.50784" lon="16.669">
        <ele>44.22592</ele>
        <time>2024-07-31T10:27:59.801Z</time>
      </trkpt>
      <trkpt lat="54.50781" lon="16.66919">
        <ele>44.124455</ele>
        <time>2024-07-31T10:28:02.788Z</time>
      </trkpt>
      <trkpt lat="54.50778" lon="16.66939">
        <ele>44.022233</ele>
        <time>2024-07-31T10:28:05.797Z</time>
      </trkpt>
      <trkpt lat="54.50776" lon="16.66957">
        <ele>43.927708</ele>
        <time>2024-07-31T10:28:08.847Z</time>
      </trkpt>
      <trkpt lat="54.50776" lon="16.66976">
        <ele>43.834454</ele>
        <time>2024-07-31T10:28:11.803Z</time>
      </trkpt>
      <trkpt lat="54.50778" lon="16.66993">
        <ele>43.745394</ele>
        <time>2024-07-31T10:28:14.813Z</time>
      </trkpt>
      <trkpt lat="54.5078" lon="16.67009">
        <ele>43.657799</ele>
        <time>2024-07-31T10:28:17.779Z</time>
      </trkpt>
      <trkpt lat="54.50783" lon="16.67025">
        <ele>43.573855</ele>
        <time>2024-07-31T10:28:20.807Z</time>
      </trkpt>
      <trkpt lat="54.50786" lon="16.67041">
        <ele>43.490582</ele>
        <time>2024-07-31T10:28:23.798Z</time>
      </trkpt>
      <trkpt lat="54.50789" lon="16.67056">
        <ele>43.533412</ele>
        <time>2024-07-31T10:28:26.793Z</time>
      </trkpt>
      <trkpt lat="54.50792" lon="16.67073">
        <ele>43.602623</ele>
        <time>2024-07-31T10:28:30.800Z</time>
      </trkpt>
      <trkpt lat="54.50794" lon="16.67093">
        <ele>43.677511</ele>
        <time>2024-07-31T10:28:34.791Z</time>
      </trkpt>
      <trkpt lat="54.50797" lon="16.67113">
        <ele>43.756699</ele>
        <time>2024-07-31T10:28:38.845Z</time>
      </trkpt>
      <trkpt lat="54.50799" lon="16.67128">
        <ele>43.817868</ele>
        <time>2024-07-31T10:28:41.796Z</time>
      </trkpt>
      <trkpt lat="54.50801" lon="16.67145">
        <ele>43.881261</ele>
        <time>2024-07-31T10:28:44.808Z</time>
      </trkpt>
      <trkpt lat="54.50803" lon="16.67161">
        <ele>43.943667</ele>
        <time>2024-07-31T10:28:47.812Z</time>
      </trkpt>
      <trkpt lat="54.50805" lon="16.67176">
        <ele>44.00394</ele>
        <time>2024-07-31T10:28:50.809Z</time>
      </trkpt>
      <trkpt lat="54.50807" lon="16.67192">
        <ele>44.06672</ele>
        <time>2024-07-31T10:28:53.813Z</time>
      </trkpt>
      <trkpt lat="54.50809" lon="16.67208">
        <ele>44.127562</ele>
        <time>2024-07-31T10:28:56.797Z</time>
      </trkpt>
      <trkpt lat="54.50812" lon="16.67223">
        <ele>44.189517</ele>
        <time>2024-07-31T10:28:59.786Z</time>
      </trkpt>
      <trkpt lat="54.50814" lon="16.67239">
        <ele>44.250888</ele>
        <time>2024-07-31T10:29:02.792Z</time>
      </trkpt>
      <trkpt lat="54.50816" lon="16.67255">
        <ele>44.311432</ele>
        <time>2024-07-31T10:29:05.801Z</time>
      </trkpt>
      <trkpt lat="54.50818" lon="16.6727">
        <ele>44.371331</ele>
        <time>2024-07-31T10:29:08.827Z</time>
      </trkpt>
      <trkpt lat="54.5082" lon="16.67285">
        <ele>44.430617</ele>
        <time>2024-07-31T10:29:11.804Z</time>
      </trkpt>
      <trkpt lat="54.50821" lon="16.67301">
        <ele>44.491022</ele>
        <time>2024-07-31T10:29:14.778Z</time>
      </trkpt>
      <trkpt lat="54.50824" lon="16.6732">
        <ele>44.567038</ele>
        <time>2024-07-31T10:29:18.851Z</time>
      </trkpt>
      <trkpt lat="54.50826" lon="16.67339">
        <ele>44.641376</ele>
        <time>2024-07-31T10:29:22.794Z</time>
      </trkpt>
      <trkpt lat="54.50828" lon="16.67355">
        <ele>44.68719</ele>
        <time>2024-07-31T10:29:25.800Z</time>
      </trkpt>
      <trkpt lat="54.5083" lon="16.6737">
        <ele>44.725124</ele>
        <time>2024-07-31T10:29:28.844Z</time>
      </trkpt>
      <trkpt lat="54.50832" lon="16.67385">
        <ele>44.763426</ele>
        <time>2024-07-31T10:29:31.808Z</time>
      </trkpt>
      <trkpt lat="54.50835" lon="16.67405">
        <ele>44.813682</ele>
        <time>2024-07-31T10:29:35.796Z</time>
      </trkpt>
      <trkpt lat="54.50837" lon="16.67421">
        <ele>44.852652</ele>
        <time>2024-07-31T10:29:38.837Z</time>
      </trkpt>
      <trkpt lat="54.50839" lon="16.67437">
        <ele>44.891241</ele>
        <time>2024-07-31T10:29:41.797Z</time>
      </trkpt>
      <trkpt lat="54.50841" lon="16.67456">
        <ele>44.939276</ele>
        <time>2024-07-31T10:29:45.789Z</time>
      </trkpt>
      <trkpt lat="54.50843" lon="16.67476">
        <ele>44.987763</ele>
        <time>2024-07-31T10:29:49.798Z</time>
      </trkpt>
      <trkpt lat="54.50846" lon="16.67496">
        <ele>45.037407</ele>
        <time>2024-07-31T10:29:53.808Z</time>
      </trkpt>
      <trkpt lat="54.50848" lon="16.67512">
        <ele>45.077272</ele>
        <time>2024-07-31T10:29:56.794Z</time>
      </trkpt>
      <trkpt lat="54.5085" lon="16.67528">
        <ele>45.117664</ele>
        <time>2024-07-31T10:29:59.795Z</time>
      </trkpt>
      <trkpt lat="54.50853" lon="16.67544">
        <ele>45.159349</ele>
        <time>2024-07-31T10:30:02.805Z</time>
      </trkpt>
      <trkpt lat="54.50855" lon="16.67561">
        <ele>45.200216</ele>
        <time>2024-07-31T10:30:05.802Z</time>
      </trkpt>
      <trkpt lat="54.50857" lon="16.67577">
        <ele>45.24065</ele>
        <time>2024-07-31T10:30:08.827Z</time>
      </trkpt>
      <trkpt lat="54.5086" lon="16.67593">
        <ele>45.2814</ele>
        <time>2024-07-31T10:30:11.794Z</time>
      </trkpt>
      <trkpt lat="54.50862" lon="16.6761">
        <ele>45.321317</ele>
        <time>2024-07-31T10:30:14.802Z</time>
      </trkpt>
      <trkpt lat="54.50864" lon="16.67629">
        <ele>45.370116</ele>
        <time>2024-07-31T10:30:18.847Z</time>
      </trkpt>
      <trkpt lat="54.50866" lon="16.67645">
        <ele>45.408202</ele>
        <time>2024-07-31T10:30:21.808Z</time>
      </trkpt>
      <trkpt lat="54.50868" lon="16.6766">
        <ele>45.312407</ele>
        <time>2024-07-31T10:30:24.795Z</time>
      </trkpt>
      <trkpt lat="54.50871" lon="16.67675">
        <ele>45.197344</ele>
        <time>2024-07-31T10:30:27.797Z</time>
      </trkpt>
      <trkpt lat="54.50873" lon="16.67695">
        <ele>45.052934</ele>
        <time>2024-07-31T10:30:31.791Z</time>
      </trkpt>
      <trkpt lat="54.50876" lon="16.67714">
        <ele>44.911024</ele>
        <time>2024-07-31T10:30:35.800Z</time>
      </trkpt>
      <trkpt lat="54.50878" lon="16.67734">
        <ele>44.763404</ele>
        <time>2024-07-31T10:30:39.804Z</time>
      </trkpt>
      <trkpt lat="54.5088" lon="16.67754">
        <ele>44.616282</ele>
        <time>2024-07-31T10:30:43.814Z</time>
      </trkpt>
      <trkpt lat="54.50882" lon="16.67771">
        <ele>44.494517</ele>
        <time>2024-07-31T10:30:46.809Z</time>
      </trkpt>
      <trkpt lat="54.50882" lon="16.67789">
        <ele>44.36023</ele>
        <time>2024-07-31T10:30:49.812Z</time>
      </trkpt>
      <trkpt lat="54.50885" lon="16.6781">
        <ele>44.20885</ele>
        <time>2024-07-31T10:30:52.796Z</time>
      </trkpt>
      <trkpt lat="54.50887" lon="16.67832">
        <ele>44.044081</ele>
        <time>2024-07-31T10:30:55.793Z</time>
      </trkpt>
      <trkpt lat="54.50889" lon="16.67848">
        <ele>43.925397</ele>
        <time>2024-07-31T10:30:57.802Z</time>
      </trkpt>
      <trkpt lat="54.5089" lon="16.67865">
        <ele>43.803157</ele>
        <time>2024-07-31T10:30:59.815Z</time>
      </trkpt>
      <trkpt lat="54.50892" lon="16.67881">
        <ele>43.685415</ele>
        <time>2024-07-31T10:31:01.808Z</time>
      </trkpt>
      <trkpt lat="54.50894" lon="16.67897">
        <ele>43.566489</ele>
        <time>2024-07-31T10:31:03.797Z</time>
      </trkpt>
      <trkpt lat="54.50896" lon="16.67913">
        <ele>43.449865</ele>
        <time>2024-07-31T10:31:05.805Z</time>
      </trkpt>
      <trkpt lat="54.50898" lon="16.67935">
        <ele>43.283666</ele>
        <time>2024-07-31T10:31:08.830Z</time>
      </trkpt>
      <trkpt lat="54.50902" lon="16.67956">
        <ele>43.198602</ele>
        <time>2024-07-31T10:31:11.786Z</time>
      </trkpt>
      <trkpt lat="54.50903" lon="16.67977">
        <ele>43.296418</ele>
        <time>2024-07-31T10:31:14.794Z</time>
      </trkpt>
      <trkpt lat="54.50905" lon="16.67997">
        <ele>43.38977</ele>
        <time>2024-07-31T10:31:17.811Z</time>
      </trkpt>
      <trkpt lat="54.50909" lon="16.68016">
        <ele>43.482936</ele>
        <time>2024-07-31T10:31:20.808Z</time>
      </trkpt>
      <trkpt lat="54.50913" lon="16.68035">
        <ele>43.574621</ele>
        <time>2024-07-31T10:31:23.806Z</time>
      </trkpt>
      <trkpt lat="54.50915" lon="16.68054">
        <ele>43.664236</ele>
        <time>2024-07-31T10:31:26.810Z</time>
      </trkpt>
      <trkpt lat="54.50917" lon="16.68072">
        <ele>43.74927</ele>
        <time>2024-07-31T10:31:29.780Z</time>
      </trkpt>
      <trkpt lat="54.50919" lon="16.6809">
        <ele>43.832336</ele>
        <time>2024-07-31T10:31:32.795Z</time>
      </trkpt>
      <trkpt lat="54.5092" lon="16.68106">
        <ele>43.909316</ele>
        <time>2024-07-31T10:31:35.810Z</time>
      </trkpt>
      <trkpt lat="54.50923" lon="16.68122">
        <ele>43.987505</ele>
        <time>2024-07-31T10:31:38.818Z</time>
      </trkpt>
      <trkpt lat="54.50925" lon="16.6814">
        <ele>44.071535</ele>
        <time>2024-07-31T10:31:41.782Z</time>
      </trkpt>
      <trkpt lat="54.50927" lon="16.68158">
        <ele>44.157213</ele>
        <time>2024-07-31T10:31:44.789Z</time>
      </trkpt>
      <trkpt lat="54.50929" lon="16.68176">
        <ele>44.240287</ele>
        <time>2024-07-31T10:31:47.779Z</time>
      </trkpt>
      <trkpt lat="54.50931" lon="16.68193">
        <ele>44.32043</ele>
        <time>2024-07-31T10:31:50.791Z</time>
      </trkpt>
      <trkpt lat="54.50934" lon="16.68208">
        <ele>44.393775</ele>
        <time>2024-07-31T10:31:53.803Z</time>
      </trkpt>
      <trkpt lat="54.50937" lon="16.68224">
        <ele>44.469528</ele>
        <time>2024-07-31T10:31:56.785Z</time>
      </trkpt>
      <trkpt lat="54.50939" lon="16.68243">
        <ele>44.560673</ele>
        <time>2024-07-31T10:32:00.806Z</time>
      </trkpt>
      <trkpt lat="54.50942" lon="16.68262">
        <ele>44.619787</ele>
        <time>2024-07-31T10:32:04.803Z</time>
      </trkpt>
      <trkpt lat="54.50944" lon="16.68278">
        <ele>44.644294</ele>
        <time>2024-07-31T10:32:07.802Z</time>
      </trkpt>
      <trkpt lat="54.50946" lon="16.68297">
        <ele>44.676077</ele>
        <time>2024-07-31T10:32:11.813Z</time>
      </trkpt>
      <trkpt lat="54.5095" lon="16.68317">
        <ele>44.708172</ele>
        <time>2024-07-31T10:32:15.804Z</time>
      </trkpt>
      <trkpt lat="54.50951" lon="16.68335">
        <ele>44.737058</ele>
        <time>2024-07-31T10:32:19.788Z</time>
      </trkpt>
      <trkpt lat="54.50953" lon="16.68352">
        <ele>44.763854</ele>
        <time>2024-07-31T10:32:23.798Z</time>
      </trkpt>
      <trkpt lat="54.50954" lon="16.6837">
        <ele>44.792149</ele>
        <time>2024-07-31T10:32:28.831Z</time>
      </trkpt>
      <trkpt lat="54.50956" lon="16.68389">
        <ele>44.822591</ele>
        <time>2024-07-31T10:32:32.795Z</time>
      </trkpt>
      <trkpt lat="54.50958" lon="16.68406">
        <ele>44.849233</ele>
        <time>2024-07-31T10:32:35.807Z</time>
      </trkpt>
      <trkpt lat="54.50961" lon="16.68423">
        <ele>44.876891</ele>
        <time>2024-07-31T10:32:38.841Z</time>
      </trkpt>
      <trkpt lat="54.50963" lon="16.68442">
        <ele>44.906778</ele>
        <time>2024-07-31T10:32:41.804Z</time>
      </trkpt>
      <trkpt lat="54.50963" lon="16.6846">
        <ele>44.935428</ele>
        <time>2024-07-31T10:32:44.797Z</time>
      </trkpt>
      <trkpt lat="54.50966" lon="16.68478">
        <ele>44.964184</ele>
        <time>2024-07-31T10:32:47.785Z</time>
      </trkpt>
      <trkpt lat="54.50968" lon="16.68496">
        <ele>44.994008</ele>
        <time>2024-07-31T10:32:50.795Z</time>
      </trkpt>
      <trkpt lat="54.5097" lon="16.68516">
        <ele>45.025012</ele>
        <time>2024-07-31T10:32:53.792Z</time>
      </trkpt>
      <trkpt lat="54.50972" lon="16.68536">
        <ele>45.056717</ele>
        <time>2024-07-31T10:32:56.795Z</time>
      </trkpt>
      <trkpt lat="54.50973" lon="16.68555">
        <ele>45.086757</ele>
        <time>2024-07-31T10:32:59.813Z</time>
      </trkpt>
      <trkpt lat="54.50975" lon="16.68574">
        <ele>45.231808</ele>
        <time>2024-07-31T10:33:02.796Z</time>
      </trkpt>
      <trkpt lat="54.50975" lon="16.68592">
        <ele>45.380223</ele>
        <time>2024-07-31T10:33:05.794Z</time>
      </trkpt>
      <trkpt lat="54.50973" lon="16.68612">
        <ele>45.541383</ele>
        <time>2024-07-31T10:33:08.810Z</time>
      </trkpt>
      <trkpt lat="54.50972" lon="16.68631">
        <ele>45.694493</ele>
        <time>2024-07-31T10:33:11.787Z</time>
      </trkpt>
      <trkpt lat="54.50971" lon="16.68649">
        <ele>45.836808</ele>
        <time>2024-07-31T10:33:14.803Z</time>
      </trkpt>
      <trkpt lat="54.5097" lon="16.68667">
        <ele>45.981472</ele>
        <time>2024-07-31T10:33:17.791Z</time>
      </trkpt>
      <trkpt lat="54.50969" lon="16.68683">
        <ele>46.117126</ele>
        <time>2024-07-31T10:33:20.806Z</time>
      </trkpt>
      <trkpt lat="54.50967" lon="16.687">
        <ele>46.251325</ele>
        <time>2024-07-31T10:33:23.805Z</time>
      </trkpt>
      <trkpt lat="54.50966" lon="16.68718">
        <ele>46.392007</ele>
        <time>2024-07-31T10:33:26.794Z</time>
      </trkpt>
      <trkpt lat="54.50965" lon="16.68735">
        <ele>46.5369</ele>
        <time>2024-07-31T10:33:29.798Z</time>
      </trkpt>
      <trkpt lat="54.50964" lon="16.68753">
        <ele>46.678834</ele>
        <time>2024-07-31T10:33:32.797Z</time>
      </trkpt>
      <trkpt lat="54.50964" lon="16.68769">
        <ele>46.806958</ele>
        <time>2024-07-31T10:33:35.801Z</time>
      </trkpt>
      <trkpt lat="54.50961" lon="16.68786">
        <ele>46.946412</ele>
        <time>2024-07-31T10:33:39.797Z</time>
      </trkpt>
      <trkpt lat="54.50959" lon="16.68821">
        <ele>47.231176</ele>
        <time>2024-07-31T10:34:33.796Z</time>
      </trkpt>
      <trkpt lat="54.50957" lon="16.68839">
        <ele>47.380023</ele>
        <time>2024-07-31T10:34:37.790Z</time>
      </trkpt>
      <trkpt lat="54.50955" lon="16.68859">
        <ele>47.536871</ele>
        <time>2024-07-31T10:34:41.789Z</time>
      </trkpt>
      <trkpt lat="54.50953" lon="16.68875">
        <ele>47.572677</ele>
        <time>2024-07-31T10:34:44.779Z</time>
      </trkpt>
      <trkpt lat="54.50952" lon="16.68892">
        <ele>47.580383</ele>
        <time>2024-07-31T10:34:47.795Z</time>
      </trkpt>
      <trkpt lat="54.50951" lon="16.6891">
        <ele>47.588189</ele>
        <time>2024-07-31T10:34:50.788Z</time>
      </trkpt>
      <trkpt lat="54.50948" lon="16.68929">
        <ele>47.596544</ele>
        <time>2024-07-31T10:34:53.789Z</time>
      </trkpt>
      <trkpt lat="54.50946" lon="16.68947">
        <ele>47.60473</ele>
        <time>2024-07-31T10:34:56.768Z</time>
      </trkpt>
      <trkpt lat="54.50945" lon="16.68965">
        <ele>47.61263</ele>
        <time>2024-07-31T10:34:59.782Z</time>
      </trkpt>
      <trkpt lat="54.50943" lon="16.68984">
        <ele>47.620875</ele>
        <time>2024-07-31T10:35:02.799Z</time>
      </trkpt>
      <trkpt lat="54.50941" lon="16.69003">
        <ele>47.629404</ele>
        <time>2024-07-31T10:35:05.791Z</time>
      </trkpt>
      <trkpt lat="54.5094" lon="16.69022">
        <ele>47.637573</ele>
        <time>2024-07-31T10:35:08.782Z</time>
      </trkpt>
      <trkpt lat="54.50941" lon="16.6904">
        <ele>47.645468</ele>
        <time>2024-07-31T10:35:11.794Z</time>
      </trkpt>
      <trkpt lat="54.5094" lon="16.69056">
        <ele>47.652373</ele>
        <time>2024-07-31T10:35:14.795Z</time>
      </trkpt>
      <trkpt lat="54.50939" lon="16.69073">
        <ele>47.659541</ele>
        <time>2024-07-31T10:35:17.835Z</time>
      </trkpt>
      <trkpt lat="54.50939" lon="16.69091">
        <ele>47.667477</ele>
        <time>2024-07-31T10:35:20.796Z</time>
      </trkpt>
      <trkpt lat="54.50939" lon="16.69111">
        <ele>47.676109</ele>
        <time>2024-07-31T10:35:23.792Z</time>
      </trkpt>
      <trkpt lat="54.50939" lon="16.69131">
        <ele>47.684613</ele>
        <time>2024-07-31T10:35:26.804Z</time>
      </trkpt>
      <trkpt lat="54.50939" lon="16.6915">
        <ele>47.693202</ele>
        <time>2024-07-31T10:35:29.806Z</time>
      </trkpt>
      <trkpt lat="54.50939" lon="16.6917">
        <ele>47.705511</ele>
        <time>2024-07-31T10:35:32.805Z</time>
      </trkpt>
      <trkpt lat="54.50939" lon="16.6919">
        <ele>47.954701</ele>
        <time>2024-07-31T10:35:35.805Z</time>
      </trkpt>
      <trkpt lat="54.50939" lon="16.6921">
        <ele>48.210072</ele>
        <time>2024-07-31T10:35:38.843Z</time>
      </trkpt>
      <trkpt lat="54.50939" lon="16.6923">
        <ele>48.471933</ele>
        <time>2024-07-31T10:35:41.794Z</time>
      </trkpt>
      <trkpt lat="54.50939" lon="16.6925">
        <ele>48.720879</ele>
        <time>2024-07-31T10:35:44.784Z</time>
      </trkpt>
      <trkpt lat="54.5094" lon="16.6927">
        <ele>48.980551</ele>
        <time>2024-07-31T10:35:47.817Z</time>
      </trkpt>
      <trkpt lat="54.50941" lon="16.6929">
        <ele>49.236867</ele>
        <time>2024-07-31T10:35:50.801Z</time>
      </trkpt>
      <trkpt lat="54.50941" lon="16.69309">
        <ele>49.491416</ele>
        <time>2024-07-31T10:35:53.815Z</time>
      </trkpt>
      <trkpt lat="54.50943" lon="16.69328">
        <ele>49.73591</ele>
        <time>2024-07-31T10:35:56.797Z</time>
      </trkpt>
      <trkpt lat="54.50944" lon="16.69347">
        <ele>49.971498</ele>
        <time>2024-07-31T10:35:59.800Z</time>
      </trkpt>
      <trkpt lat="54.50946" lon="16.69364">
        <ele>50.198295</ele>
        <time>2024-07-31T10:36:02.804Z</time>
      </trkpt>
      <trkpt lat="54.50948" lon="16.69381">
        <ele>50.426752</ele>
        <time>2024-07-31T10:36:05.790Z</time>
      </trkpt>
      <trkpt lat="54.50949" lon="16.69399">
        <ele>50.648673</ele>
        <time>2024-07-31T10:36:08.811Z</time>
      </trkpt>
      <trkpt lat="54.50951" lon="16.69415">
        <ele>50.864252</ele>
        <time>2024-07-31T10:36:11.783Z</time>
      </trkpt>
      <trkpt lat="54.50952" lon="16.69431">
        <ele>51.073493</ele>
        <time>2024-07-31T10:36:14.776Z</time>
      </trkpt>
      <trkpt lat="54.50954" lon="16.69447">
        <ele>51.282259</ele>
        <time>2024-07-31T10:36:17.804Z</time>
      </trkpt>
      <trkpt lat="54.50956" lon="16.69463">
        <ele>51.491161</ele>
        <time>2024-07-31T10:36:20.801Z</time>
      </trkpt>
      <trkpt lat="54.50957" lon="16.6948">
        <ele>51.741171</ele>
        <time>2024-07-31T10:36:23.807Z</time>
      </trkpt>
      <trkpt lat="54.50958" lon="16.69496">
        <ele>52.200289</ele>
        <time>2024-07-31T10:36:26.799Z</time>
      </trkpt>
      <trkpt lat="54.5096" lon="16.69514">
        <ele>52.678906</ele>
        <time>2024-07-31T10:36:29.805Z</time>
      </trkpt>
      <trkpt lat="54.50962" lon="16.69531">
        <ele>53.153951</ele>
        <time>2024-07-31T10:36:32.794Z</time>
      </trkpt>
      <trkpt lat="54.50964" lon="16.69547">
        <ele>53.623936</ele>
        <time>2024-07-31T10:36:35.802Z</time>
      </trkpt>
      <trkpt lat="54.50965" lon="16.69566">
        <ele>54.131998</ele>
        <time>2024-07-31T10:36:39.804Z</time>
      </trkpt>
      <trkpt lat="54.50968" lon="16.69584">
        <ele>54.647247</ele>
        <time>2024-07-31T10:36:43.809Z</time>
      </trkpt>
      <trkpt lat="54.50969" lon="16.69601">
        <ele>55.121464</ele>
        <time>2024-07-31T10:36:47.794Z</time>
      </trkpt>
      <trkpt lat="54.50972" lon="16.69618">
        <ele>55.606677</ele>
        <time>2024-07-31T10:36:51.798Z</time>
      </trkpt>
      <trkpt lat="54.50974" lon="16.69636">
        <ele>56.100997</ele>
        <time>2024-07-31T10:36:55.800Z</time>
      </trkpt>
      <trkpt lat="54.50976" lon="16.69654">
        <ele>56.598871</ele>
        <time>2024-07-31T10:36:59.792Z</time>
      </trkpt>
      <trkpt lat="54.50979" lon="16.69671">
        <ele>57.097886</ele>
        <time>2024-07-31T10:37:03.803Z</time>
      </trkpt>
      <trkpt lat="54.50981" lon="16.69688">
        <ele>57.572389</ele>
        <time>2024-07-31T10:37:07.815Z</time>
      </trkpt>
      <trkpt lat="54.50983" lon="16.69705">
        <ele>58.062961</ele>
        <time>2024-07-31T10:37:11.793Z</time>
      </trkpt>
      <trkpt lat="54.50986" lon="16.69722">
        <ele>58.542165</ele>
        <time>2024-07-31T10:37:15.795Z</time>
      </trkpt>
      <trkpt lat="54.50987" lon="16.69738">
        <ele>58.988485</ele>
        <time>2024-07-31T10:37:19.799Z</time>
      </trkpt>
      <trkpt lat="54.5099" lon="16.69755">
        <ele>59.467689</ele>
        <time>2024-07-31T10:37:23.799Z</time>
      </trkpt>
      <trkpt lat="54.50993" lon="16.69773">
        <ele>59.979857</ele>
        <time>2024-07-31T10:37:27.818Z</time>
      </trkpt>
      <trkpt lat="54.50996" lon="16.6979">
        <ele>60.14533</ele>
        <time>2024-07-31T10:37:31.803Z</time>
      </trkpt>
      <trkpt lat="54.50998" lon="16.69808">
        <ele>60.057651</ele>
        <time>2024-07-31T10:37:35.804Z</time>
      </trkpt>
      <trkpt lat="54.51" lon="16.69826">
        <ele>59.973989</ele>
        <time>2024-07-31T10:37:39.804Z</time>
      </trkpt>
      <trkpt lat="54.51002" lon="16.69845">
        <ele>59.879335</ele>
        <time>2024-07-31T10:37:43.803Z</time>
      </trkpt>
      <trkpt lat="54.51004" lon="16.69865">
        <ele>59.782642</ele>
        <time>2024-07-31T10:37:47.794Z</time>
      </trkpt>
      <trkpt lat="54.51014" lon="16.69884">
        <ele>59.661559</ele>
        <time>2024-07-31T10:38:03.817Z</time>
      </trkpt>
      <trkpt lat="54.51024" lon="16.69886">
        <ele>59.578224</ele>
        <time>2024-07-31T10:38:07.800Z</time>
      </trkpt>
      <trkpt lat="54.51034" lon="16.69888">
        <ele>59.495246</ele>
        <time>2024-07-31T10:38:11.807Z</time>
      </trkpt>
      <trkpt lat="54.51044" lon="16.69888">
        <ele>59.412759</ele>
        <time>2024-07-31T10:38:15.798Z</time>
      </trkpt>
      <trkpt lat="54.51052" lon="16.69877">
        <ele>59.332929</ele>
        <time>2024-07-31T10:38:20.800Z</time>
      </trkpt>
      <trkpt lat="54.51047" lon="16.69872">
        <ele>59.28705</ele>
        <time>2024-07-31T10:39:36.946Z</time>
      </trkpt>
      <trkpt lat="54.5105" lon="16.69887">
        <ele>59.210388</ele>
        <time>2024-07-31T11:00:54.785Z</time>
      </trkpt>
      <trkpt lat="54.51058" lon="16.69898">
        <ele>59.129009</ele>
        <time>2024-07-31T11:00:59.781Z</time>
      </trkpt>
      <trkpt lat="54.51069" lon="16.69903">
        <ele>59.038825</ele>
        <time>2024-07-31T11:01:04.798Z</time>
      </trkpt>
      <trkpt lat="54.51074" lon="16.6992">
        <ele>58.949734</ele>
        <time>2024-07-31T11:01:09.829Z</time>
      </trkpt>
      <trkpt lat="54.51073" lon="16.69935">
        <ele>58.87529</ele>
        <time>2024-07-31T11:01:13.801Z</time>
      </trkpt>
      <trkpt lat="54.51073" lon="16.69952">
        <ele>58.796583</ele>
        <time>2024-07-31T11:01:17.815Z</time>
      </trkpt>
      <trkpt lat="54.51075" lon="16.69967">
        <ele>58.723194</ele>
        <time>2024-07-31T11:01:21.807Z</time>
      </trkpt>
      <trkpt lat="54.51076" lon="16.69983">
        <ele>58.654295</ele>
        <time>2024-07-31T11:01:25.801Z</time>
      </trkpt>
      <trkpt lat="54.51083" lon="16.69998">
        <ele>58.569412</ele>
        <time>2024-07-31T11:01:29.804Z</time>
      </trkpt>
      <trkpt lat="54.5109" lon="16.70014">
        <ele>58.489036</ele>
        <time>2024-07-31T11:01:32.785Z</time>
      </trkpt>
      <trkpt lat="54.51096" lon="16.70026">
        <ele>58.417119</ele>
        <time>2024-07-31T11:01:34.793Z</time>
      </trkpt>
      <trkpt lat="54.51103" lon="16.7004">
        <ele>58.33655</ele>
        <time>2024-07-31T11:01:36.794Z</time>
      </trkpt>
      <trkpt lat="54.51111" lon="16.70055">
        <ele>58.252276</ele>
        <time>2024-07-31T11:01:38.813Z</time>
      </trkpt>
      <trkpt lat="54.51118" lon="16.70071">
        <ele>58.164863</ele>
        <time>2024-07-31T11:01:40.794Z</time>
      </trkpt>
      <trkpt lat="54.51125" lon="16.70087">
        <ele>58.074283</ele>
        <time>2024-07-31T11:01:42.803Z</time>
      </trkpt>
      <trkpt lat="54.51134" lon="16.70102">
        <ele>57.98164</ele>
        <time>2024-07-31T11:01:44.790Z</time>
      </trkpt>
      <trkpt lat="54.51146" lon="16.70111">
        <ele>57.886679</ele>
        <time>2024-07-31T11:01:46.787Z</time>
      </trkpt>
      <trkpt lat="54.51158" lon="16.70118">
        <ele>57.795447</ele>
        <time>2024-07-31T11:01:48.811Z</time>
      </trkpt>
      <trkpt lat="54.51168" lon="16.70126">
        <ele>57.713042</ele>
        <time>2024-07-31T11:01:50.806Z</time>
      </trkpt>
      <trkpt lat="54.51178" lon="16.70132">
        <ele>57.634902</ele>
        <time>2024-07-31T11:01:52.814Z</time>
      </trkpt>
      <trkpt lat="54.51186" lon="16.70137">
        <ele>57.56704</ele>
        <time>2024-07-31T11:01:54.793Z</time>
      </trkpt>
      <trkpt lat="54.51195" lon="16.70143">
        <ele>57.497289</ele>
        <time>2024-07-31T11:01:56.790Z</time>
      </trkpt>
      <trkpt lat="54.512" lon="16.70163">
        <ele>57.405238</ele>
        <time>2024-07-31T11:01:59.798Z</time>
      </trkpt>
      <trkpt lat="54.51204" lon="16.70184">
        <ele>57.364585</ele>
        <time>2024-07-31T11:02:02.805Z</time>
      </trkpt>
      <trkpt lat="54.51206" lon="16.70202">
        <ele>57.342831</ele>
        <time>2024-07-31T11:02:05.802Z</time>
      </trkpt>
      <trkpt lat="54.51211" lon="16.70221">
        <ele>57.318244</ele>
        <time>2024-07-31T11:02:08.807Z</time>
      </trkpt>
      <trkpt lat="54.51215" lon="16.70239">
        <ele>57.29481</ele>
        <time>2024-07-31T11:02:11.807Z</time>
      </trkpt>
      <trkpt lat="54.51219" lon="16.70258">
        <ele>57.271272</ele>
        <time>2024-07-31T11:02:14.808Z</time>
      </trkpt>
      <trkpt lat="54.51223" lon="16.70275">
        <ele>57.249167</ele>
        <time>2024-07-31T11:02:17.794Z</time>
      </trkpt>
      <trkpt lat="54.51226" lon="16.70293">
        <ele>57.226822</ele>
        <time>2024-07-31T11:02:20.796Z</time>
      </trkpt>
      <trkpt lat="54.5123" lon="16.70311">
        <ele>57.204383</ele>
        <time>2024-07-31T11:02:23.802Z</time>
      </trkpt>
      <trkpt lat="54.51232" lon="16.7033">
        <ele>57.181693</ele>
        <time>2024-07-31T11:02:26.805Z</time>
      </trkpt>
      <trkpt lat="54.51231" lon="16.7035">
        <ele>57.157263</ele>
        <time>2024-07-31T11:02:29.785Z</time>
      </trkpt>
      <trkpt lat="54.51228" lon="16.70369">
        <ele>57.134081</ele>
        <time>2024-07-31T11:02:32.797Z</time>
      </trkpt>
      <trkpt lat="54.51224" lon="16.70387">
        <ele>57.110572</ele>
        <time>2024-07-31T11:02:35.801Z</time>
      </trkpt>
      <trkpt lat="54.51219" lon="16.70405">
        <ele>57.086804</ele>
        <time>2024-07-31T11:02:38.796Z</time>
      </trkpt>
      <trkpt lat="54.51213" lon="16.70425">
        <ele>57.060341</ele>
        <time>2024-07-31T11:02:41.802Z</time>
      </trkpt>
      <trkpt lat="54.51209" lon="16.7044">
        <ele>57.040265</ele>
        <time>2024-07-31T11:02:43.800Z</time>
      </trkpt>
      <trkpt lat="54.51204" lon="16.70456">
        <ele>57.019566</ele>
        <time>2024-07-31T11:02:45.804Z</time>
      </trkpt>
      <trkpt lat="54.512" lon="16.70472">
        <ele>56.933972</ele>
        <time>2024-07-31T11:02:47.798Z</time>
      </trkpt>
      <trkpt lat="54.51195" lon="16.70489">
        <ele>56.837639</ele>
        <time>2024-07-31T11:02:49.786Z</time>
      </trkpt>
      <trkpt lat="54.5119" lon="16.70505">
        <ele>56.744338</ele>
        <time>2024-07-31T11:02:51.805Z</time>
      </trkpt>
      <trkpt lat="54.51185" lon="16.7052">
        <ele>56.653711</ele>
        <time>2024-07-31T11:02:53.806Z</time>
      </trkpt>
      <trkpt lat="54.5118" lon="16.70536">
        <ele>56.562636</ele>
        <time>2024-07-31T11:02:55.795Z</time>
      </trkpt>
      <trkpt lat="54.51175" lon="16.70551">
        <ele>56.473275</ele>
        <time>2024-07-31T11:02:57.832Z</time>
      </trkpt>
      <trkpt lat="54.51171" lon="16.70566">
        <ele>56.386891</ele>
        <time>2024-07-31T11:02:59.784Z</time>
      </trkpt>
      <trkpt lat="54.51166" lon="16.70582">
        <ele>56.297938</ele>
        <time>2024-07-31T11:03:01.787Z</time>
      </trkpt>
      <trkpt lat="54.51162" lon="16.70597">
        <ele>56.210082</ele>
        <time>2024-07-31T11:03:03.810Z</time>
      </trkpt>
      <trkpt lat="54.51158" lon="16.70611">
        <ele>56.128165</ele>
        <time>2024-07-31T11:03:05.816Z</time>
      </trkpt>
      <trkpt lat="54.51153" lon="16.7063">
        <ele>56.019812</ele>
        <time>2024-07-31T11:03:08.802Z</time>
      </trkpt>
      <trkpt lat="54.51157" lon="16.70647">
        <ele>55.927973</ele>
        <time>2024-07-31T11:03:11.787Z</time>
      </trkpt>
      <trkpt lat="54.51166" lon="16.70654">
        <ele>55.836148</ele>
        <time>2024-07-31T11:03:14.790Z</time>
      </trkpt>
      <trkpt lat="54.51174" lon="16.70664">
        <ele>55.74843</ele>
        <time>2024-07-31T11:03:17.791Z</time>
      </trkpt>
      <trkpt lat="54.51183" lon="16.70673">
        <ele>55.658405</ele>
        <time>2024-07-31T11:03:20.802Z</time>
      </trkpt>
      <trkpt lat="54.51192" lon="16.70683">
        <ele>55.562675</ele>
        <time>2024-07-31T11:03:23.784Z</time>
      </trkpt>
      <trkpt lat="54.51202" lon="16.70694">
        <ele>55.459328</ele>
        <time>2024-07-31T11:03:26.791Z</time>
      </trkpt>
      <trkpt lat="54.51212" lon="16.70703">
        <ele>55.347443</ele>
        <time>2024-07-31T11:03:29.804Z</time>
      </trkpt>
      <trkpt lat="54.5122" lon="16.70714">
        <ele>55.240433</ele>
        <time>2024-07-31T11:03:32.803Z</time>
      </trkpt>
      <trkpt lat="54.51228" lon="16.70726">
        <ele>55.135815</ele>
        <time>2024-07-31T11:03:35.806Z</time>
      </trkpt>
      <trkpt lat="54.51238" lon="16.70738">
        <ele>55.011939</ele>
        <time>2024-07-31T11:03:38.800Z</time>
      </trkpt>
      <trkpt lat="54.51246" lon="16.70745">
        <ele>54.912996</ele>
        <time>2024-07-31T11:03:40.761Z</time>
      </trkpt>
      <trkpt lat="54.51254" lon="16.70755">
        <ele>54.815603</ele>
        <time>2024-07-31T11:03:42.788Z</time>
      </trkpt>
      <trkpt lat="54.51262" lon="16.70765">
        <ele>54.717074</ele>
        <time>2024-07-31T11:03:44.787Z</time>
      </trkpt>
      <trkpt lat="54.5127" lon="16.70774">
        <ele>54.616967</ele>
        <time>2024-07-31T11:03:46.794Z</time>
      </trkpt>
      <trkpt lat="54.5128" lon="16.70789">
        <ele>54.474412</ele>
        <time>2024-07-31T11:03:49.805Z</time>
      </trkpt>
      <trkpt lat="54.51289" lon="16.708">
        <ele>54.366596</ele>
        <time>2024-07-31T11:03:51.790Z</time>
      </trkpt>
      <trkpt lat="54.51297" lon="16.7081">
        <ele>54.263225</ele>
        <time>2024-07-31T11:03:53.809Z</time>
      </trkpt>
      <trkpt lat="54.51305" lon="16.7082">
        <ele>54.16108</ele>
        <time>2024-07-31T11:03:55.800Z</time>
      </trkpt>
      <trkpt lat="54.51313" lon="16.70832">
        <ele>54.053337</ele>
        <time>2024-07-31T11:03:57.793Z</time>
      </trkpt>
      <trkpt lat="54.5132" lon="16.70843">
        <ele>53.950681</ele>
        <time>2024-07-31T11:03:59.789Z</time>
      </trkpt>
      <trkpt lat="54.51328" lon="16.70854">
        <ele>53.850759</ele>
        <time>2024-07-31T11:04:01.790Z</time>
      </trkpt>
      <trkpt lat="54.51335" lon="16.70865">
        <ele>53.750812</ele>
        <time>2024-07-31T11:04:03.798Z</time>
      </trkpt>
      <trkpt lat="54.51342" lon="16.70876">
        <ele>53.64972</ele>
        <time>2024-07-31T11:04:05.796Z</time>
      </trkpt>
      <trkpt lat="54.51351" lon="16.70889">
        <ele>53.515847</ele>
        <time>2024-07-31T11:04:07.778Z</time>
      </trkpt>
      <trkpt lat="54.51358" lon="16.70901">
        <ele>53.3606</ele>
        <time>2024-07-31T11:04:09.808Z</time>
      </trkpt>
      <trkpt lat="54.51366" lon="16.70914">
        <ele>53.184194</ele>
        <time>2024-07-31T11:04:11.794Z</time>
      </trkpt>
      <trkpt lat="54.51374" lon="16.70927">
        <ele>53.02048</ele>
        <time>2024-07-31T11:04:13.790Z</time>
      </trkpt>
      <trkpt lat="54.51381" lon="16.70939">
        <ele>52.861334</ele>
        <time>2024-07-31T11:04:15.796Z</time>
      </trkpt>
      <trkpt lat="54.51389" lon="16.70953">
        <ele>52.69101</ele>
        <time>2024-07-31T11:04:17.804Z</time>
      </trkpt>
      <trkpt lat="54.51396" lon="16.70967">
        <ele>52.521434</ele>
        <time>2024-07-31T11:04:19.800Z</time>
      </trkpt>
      <trkpt lat="54.51404" lon="16.70981">
        <ele>52.353557</ele>
        <time>2024-07-31T11:04:21.793Z</time>
      </trkpt>
      <trkpt lat="54.51411" lon="16.70994">
        <ele>52.188204</ele>
        <time>2024-07-31T11:04:23.791Z</time>
      </trkpt>
      <trkpt lat="54.51418" lon="16.71008">
        <ele>52.018629</ele>
        <time>2024-07-31T11:04:25.779Z</time>
      </trkpt>
      <trkpt lat="54.51425" lon="16.71022">
        <ele>51.856511</ele>
        <time>2024-07-31T11:04:27.803Z</time>
      </trkpt>
      <trkpt lat="54.51433" lon="16.71036">
        <ele>51.681165</ele>
        <time>2024-07-31T11:04:29.814Z</time>
      </trkpt>
      <trkpt lat="54.5144" lon="16.71052">
        <ele>51.50561</ele>
        <time>2024-07-31T11:04:31.807Z</time>
      </trkpt>
      <trkpt lat="54.51447" lon="16.71067">
        <ele>51.331714</ele>
        <time>2024-07-31T11:04:33.807Z</time>
      </trkpt>
      <trkpt lat="54.51454" lon="16.71081">
        <ele>51.161134</ele>
        <time>2024-07-31T11:04:35.816Z</time>
      </trkpt>
      <trkpt lat="54.5146" lon="16.71096">
        <ele>50.995991</ele>
        <time>2024-07-31T11:04:37.812Z</time>
      </trkpt>
      <trkpt lat="54.51468" lon="16.71111">
        <ele>50.817965</ele>
        <time>2024-07-31T11:04:39.784Z</time>
      </trkpt>
      <trkpt lat="54.51475" lon="16.71126">
        <ele>50.770898</ele>
        <time>2024-07-31T11:04:41.778Z</time>
      </trkpt>
      <trkpt lat="54.51481" lon="16.71141">
        <ele>50.745818</ele>
        <time>2024-07-31T11:04:43.796Z</time>
      </trkpt>
      <trkpt lat="54.51487" lon="16.71156">
        <ele>50.72183</ele>
        <time>2024-07-31T11:04:45.807Z</time>
      </trkpt>
      <trkpt lat="54.51493" lon="16.71171">
        <ele>50.697765</ele>
        <time>2024-07-31T11:04:47.808Z</time>
      </trkpt>
      <trkpt lat="54.51499" lon="16.71185">
        <ele>50.675099</ele>
        <time>2024-07-31T11:04:49.800Z</time>
      </trkpt>
      <trkpt lat="54.51504" lon="16.71199">
        <ele>50.653248</ele>
        <time>2024-07-31T11:04:51.797Z</time>
      </trkpt>
      <trkpt lat="54.51509" lon="16.71212">
        <ele>50.632012</ele>
        <time>2024-07-31T11:04:53.809Z</time>
      </trkpt>
      <trkpt lat="54.51515" lon="16.71225">
        <ele>50.611401</ele>
        <time>2024-07-31T11:04:55.791Z</time>
      </trkpt>
      <trkpt lat="54.51521" lon="16.71246">
        <ele>50.579477</ele>
        <time>2024-07-31T11:04:58.802Z</time>
      </trkpt>
      <trkpt lat="54.51527" lon="16.7126">
        <ele>50.556202</ele>
        <time>2024-07-31T11:05:00.804Z</time>
      </trkpt>
      <trkpt lat="54.51532" lon="16.71277">
        <ele>50.531489</ele>
        <time>2024-07-31T11:05:02.806Z</time>
      </trkpt>
      <trkpt lat="54.51538" lon="16.71292">
        <ele>50.507217</ele>
        <time>2024-07-31T11:05:04.806Z</time>
      </trkpt>
      <trkpt lat="54.51543" lon="16.71308">
        <ele>50.483077</ele>
        <time>2024-07-31T11:05:06.781Z</time>
      </trkpt>
      <trkpt lat="54.51548" lon="16.71325">
        <ele>50.457394</ele>
        <time>2024-07-31T11:05:08.819Z</time>
      </trkpt>
      <trkpt lat="54.51553" lon="16.71343">
        <ele>50.431931</ele>
        <time>2024-07-31T11:05:10.793Z</time>
      </trkpt>
      <trkpt lat="54.51559" lon="16.71358">
        <ele>50.408021</ele>
        <time>2024-07-31T11:05:12.798Z</time>
      </trkpt>
      <trkpt lat="54.51563" lon="16.71374">
        <ele>50.384208</ele>
        <time>2024-07-31T11:05:14.800Z</time>
      </trkpt>
      <trkpt lat="54.51568" lon="16.7139">
        <ele>50.491484</ele>
        <time>2024-07-31T11:05:16.808Z</time>
      </trkpt>
      <trkpt lat="54.51572" lon="16.71406">
        <ele>50.606124</ele>
        <time>2024-07-31T11:05:18.812Z</time>
      </trkpt>
      <trkpt lat="54.51576" lon="16.71421">
        <ele>50.720523</ele>
        <time>2024-07-31T11:05:20.787Z</time>
      </trkpt>
      <trkpt lat="54.51581" lon="16.71441">
        <ele>50.871475</ele>
        <time>2024-07-31T11:05:23.790Z</time>
      </trkpt>
      <trkpt lat="54.51587" lon="16.71462">
        <ele>51.024148</ele>
        <time>2024-07-31T11:05:26.796Z</time>
      </trkpt>
      <trkpt lat="54.51593" lon="16.71482">
        <ele>51.175713</ele>
        <time>2024-07-31T11:05:29.801Z</time>
      </trkpt>
      <trkpt lat="54.51597" lon="16.71503">
        <ele>51.32931</ele>
        <time>2024-07-31T11:05:32.807Z</time>
      </trkpt>
      <trkpt lat="54.516" lon="16.71519">
        <ele>51.439489</ele>
        <time>2024-07-31T11:05:34.781Z</time>
      </trkpt>
      <trkpt lat="54.51602" lon="16.71534">
        <ele>51.544104</ele>
        <time>2024-07-31T11:05:36.784Z</time>
      </trkpt>
      <trkpt lat="54.51605" lon="16.71549">
        <ele>51.656573</ele>
        <time>2024-07-31T11:05:38.800Z</time>
      </trkpt>
      <trkpt lat="54.5161" lon="16.71571">
        <ele>51.812898</ele>
        <time>2024-07-31T11:05:41.810Z</time>
      </trkpt>
      <trkpt lat="54.51614" lon="16.71591">
        <ele>51.957827</ele>
        <time>2024-07-31T11:05:44.779Z</time>
      </trkpt>
      <trkpt lat="54.51618" lon="16.7161">
        <ele>52.091232</ele>
        <time>2024-07-31T11:05:47.789Z</time>
      </trkpt>
      <trkpt lat="54.51622" lon="16.71627">
        <ele>52.217219</ele>
        <time>2024-07-31T11:05:50.814Z</time>
      </trkpt>
      <trkpt lat="54.51625" lon="16.71646">
        <ele>52.350148</ele>
        <time>2024-07-31T11:05:53.792Z</time>
      </trkpt>
      <trkpt lat="54.51629" lon="16.71665">
        <ele>52.484034</ele>
        <time>2024-07-31T11:05:56.808Z</time>
      </trkpt>
      <trkpt lat="54.51631" lon="16.71685">
        <ele>52.622353</ele>
        <time>2024-07-31T11:05:59.794Z</time>
      </trkpt>
      <trkpt lat="54.51633" lon="16.71703">
        <ele>52.750822</ele>
        <time>2024-07-31T11:06:02.788Z</time>
      </trkpt>
      <trkpt lat="54.51636" lon="16.71722">
        <ele>52.878036</ele>
        <time>2024-07-31T11:06:05.799Z</time>
      </trkpt>
      <trkpt lat="54.51639" lon="16.71739">
        <ele>53.00192</ele>
        <time>2024-07-31T11:06:08.820Z</time>
      </trkpt>
      <trkpt lat="54.51642" lon="16.71757">
        <ele>53.1281</ele>
        <time>2024-07-31T11:06:11.790Z</time>
      </trkpt>
      <trkpt lat="54.51645" lon="16.71774">
        <ele>53.252928</ele>
        <time>2024-07-31T11:06:14.800Z</time>
      </trkpt>
      <trkpt lat="54.51648" lon="16.71794">
        <ele>53.392186</ele>
        <time>2024-07-31T11:06:17.802Z</time>
      </trkpt>
      <trkpt lat="54.51649" lon="16.71815">
        <ele>53.532706</ele>
        <time>2024-07-31T11:06:20.814Z</time>
      </trkpt>
      <trkpt lat="54.51651" lon="16.71835">
        <ele>53.669986</ele>
        <time>2024-07-31T11:06:23.807Z</time>
      </trkpt>
      <trkpt lat="54.51653" lon="16.71855">
        <ele>53.811209</ele>
        <time>2024-07-31T11:06:26.797Z</time>
      </trkpt>
      <trkpt lat="54.51654" lon="16.71876">
        <ele>53.952558</ele>
        <time>2024-07-31T11:06:29.797Z</time>
      </trkpt>
      <trkpt lat="54.51655" lon="16.71896">
        <ele>54.089586</ele>
        <time>2024-07-31T11:06:32.810Z</time>
      </trkpt>
      <trkpt lat="54.51657" lon="16.71917">
        <ele>54.229152</ele>
        <time>2024-07-31T11:06:35.792Z</time>
      </trkpt>
      <trkpt lat="54.51658" lon="16.71937">
        <ele>54.366971</ele>
        <time>2024-07-31T11:06:38.813Z</time>
      </trkpt>
      <trkpt lat="54.51659" lon="16.71957">
        <ele>54.503998</ele>
        <time>2024-07-31T11:06:41.781Z</time>
      </trkpt>
      <trkpt lat="54.51662" lon="16.71976">
        <ele>54.615033</ele>
        <time>2024-07-31T11:06:44.797Z</time>
      </trkpt>
      <trkpt lat="54.51662" lon="16.71997">
        <ele>54.701176</ele>
        <time>2024-07-31T11:06:47.793Z</time>
      </trkpt>
      <trkpt lat="54.51663" lon="16.72017">
        <ele>54.78532</ele>
        <time>2024-07-31T11:06:50.797Z</time>
      </trkpt>
      <trkpt lat="54.51663" lon="16.72038">
        <ele>54.869053</ele>
        <time>2024-07-31T11:06:53.788Z</time>
      </trkpt>
      <trkpt lat="54.51664" lon="16.72057">
        <ele>54.950046</ele>
        <time>2024-07-31T11:06:56.793Z</time>
      </trkpt>
      <trkpt lat="54.51665" lon="16.72077">
        <ele>55.030218</ele>
        <time>2024-07-31T11:06:59.793Z</time>
      </trkpt>
      <trkpt lat="54.51666" lon="16.72097">
        <ele>55.113733</ele>
        <time>2024-07-31T11:07:02.808Z</time>
      </trkpt>
      <trkpt lat="54.51666" lon="16.72117">
        <ele>55.197466</ele>
        <time>2024-07-31T11:07:05.803Z</time>
      </trkpt>
      <trkpt lat="54.51666" lon="16.72136">
        <ele>55.276984</ele>
        <time>2024-07-31T11:07:08.802Z</time>
      </trkpt>
      <trkpt lat="54.51666" lon="16.72155">
        <ele>55.35487</ele>
        <time>2024-07-31T11:07:11.801Z</time>
      </trkpt>
      <trkpt lat="54.51666" lon="16.72174">
        <ele>55.431505</ele>
        <time>2024-07-31T11:07:14.786Z</time>
      </trkpt>
      <trkpt lat="54.51665" lon="16.72193">
        <ele>55.510855</ele>
        <time>2024-07-31T11:07:17.793Z</time>
      </trkpt>
      <trkpt lat="54.51664" lon="16.72212">
        <ele>55.589177</ele>
        <time>2024-07-31T11:07:20.794Z</time>
      </trkpt>
      <trkpt lat="54.51663" lon="16.7223">
        <ele>55.663449</ele>
        <time>2024-07-31T11:07:23.770Z</time>
      </trkpt>
      <trkpt lat="54.51663" lon="16.72248">
        <ele>55.737354</ele>
        <time>2024-07-31T11:07:26.805Z</time>
      </trkpt>
      <trkpt lat="54.51662" lon="16.72267">
        <ele>55.81444</ele>
        <time>2024-07-31T11:07:29.779Z</time>
      </trkpt>
      <trkpt lat="54.51661" lon="16.72285">
        <ele>55.848513</ele>
        <time>2024-07-31T11:07:32.807Z</time>
      </trkpt>
      <trkpt lat="54.5166" lon="16.72304">
        <ele>55.827364</ele>
        <time>2024-07-31T11:07:35.820Z</time>
      </trkpt>
      <trkpt lat="54.51661" lon="16.72323">
        <ele>55.805555</ele>
        <time>2024-07-31T11:07:38.798Z</time>
      </trkpt>
      <trkpt lat="54.51659" lon="16.72341">
        <ele>55.784247</ele>
        <time>2024-07-31T11:07:41.791Z</time>
      </trkpt>
      <trkpt lat="54.51658" lon="16.72359">
        <ele>55.763545</ele>
        <time>2024-07-31T11:07:44.791Z</time>
      </trkpt>
      <trkpt lat="54.51656" lon="16.72377">
        <ele>55.742539</ele>
        <time>2024-07-31T11:07:47.790Z</time>
      </trkpt>
      <trkpt lat="54.51654" lon="16.72396">
        <ele>55.72118</ele>
        <time>2024-07-31T11:07:50.801Z</time>
      </trkpt>
      <trkpt lat="54.51653" lon="16.72414">
        <ele>55.69977</ele>
        <time>2024-07-31T11:07:53.814Z</time>
      </trkpt>
      <trkpt lat="54.51651" lon="16.72432">
        <ele>55.678911</ele>
        <time>2024-07-31T11:07:56.787Z</time>
      </trkpt>
      <trkpt lat="54.51648" lon="16.7245">
        <ele>55.657192</ele>
        <time>2024-07-31T11:07:59.799Z</time>
      </trkpt>
      <trkpt lat="54.51647" lon="16.7247">
        <ele>55.634818</ele>
        <time>2024-07-31T11:08:02.807Z</time>
      </trkpt>
      <trkpt lat="54.51644" lon="16.72489">
        <ele>55.61235</ele>
        <time>2024-07-31T11:08:05.792Z</time>
      </trkpt>
      <trkpt lat="54.51641" lon="16.72508">
        <ele>55.589929</ele>
        <time>2024-07-31T11:08:08.805Z</time>
      </trkpt>
      <trkpt lat="54.5164" lon="16.72526">
        <ele>55.568914</ele>
        <time>2024-07-31T11:08:11.788Z</time>
      </trkpt>
      <trkpt lat="54.51637" lon="16.72544">
        <ele>55.547788</ele>
        <time>2024-07-31T11:08:14.798Z</time>
      </trkpt>
      <trkpt lat="54.51635" lon="16.72563">
        <ele>55.525145</ele>
        <time>2024-07-31T11:08:17.798Z</time>
      </trkpt>
      <trkpt lat="54.51632" lon="16.72581">
        <ele>55.503877</ele>
        <time>2024-07-31T11:08:20.801Z</time>
      </trkpt>
      <trkpt lat="54.5163" lon="16.72601">
        <ele>55.620662</ele>
        <time>2024-07-31T11:08:23.795Z</time>
      </trkpt>
      <trkpt lat="54.51628" lon="16.72621">
        <ele>55.746105</ele>
        <time>2024-07-31T11:08:26.800Z</time>
      </trkpt>
      <trkpt lat="54.51626" lon="16.7264">
        <ele>55.867687</ele>
        <time>2024-07-31T11:08:29.768Z</time>
      </trkpt>
      <trkpt lat="54.51623" lon="16.72659">
        <ele>55.98626</ele>
        <time>2024-07-31T11:08:32.789Z</time>
      </trkpt>
      <trkpt lat="54.51622" lon="16.72677">
        <ele>56.098128</ele>
        <time>2024-07-31T11:08:35.810Z</time>
      </trkpt>
      <trkpt lat="54.51621" lon="16.72696">
        <ele>56.21916</ele>
        <time>2024-07-31T11:08:38.820Z</time>
      </trkpt>
      <trkpt lat="54.51618" lon="16.72714">
        <ele>56.334229</ele>
        <time>2024-07-31T11:08:41.794Z</time>
      </trkpt>
      <trkpt lat="54.51615" lon="16.72732">
        <ele>56.448424</ele>
        <time>2024-07-31T11:08:44.792Z</time>
      </trkpt>
      <trkpt lat="54.51613" lon="16.7275">
        <ele>56.560915</ele>
        <time>2024-07-31T11:08:47.790Z</time>
      </trkpt>
      <trkpt lat="54.51612" lon="16.72768">
        <ele>56.673018</ele>
        <time>2024-07-31T11:08:50.814Z</time>
      </trkpt>
      <trkpt lat="54.51609" lon="16.72787">
        <ele>56.790622</ele>
        <time>2024-07-31T11:08:53.795Z</time>
      </trkpt>
      <trkpt lat="54.51607" lon="16.72806">
        <ele>56.908601</ele>
        <time>2024-07-31T11:08:56.799Z</time>
      </trkpt>
      <trkpt lat="54.51605" lon="16.72824">
        <ele>57.024314</ele>
        <time>2024-07-31T11:08:59.790Z</time>
      </trkpt>
      <trkpt lat="54.51602" lon="16.72843">
        <ele>57.146724</ele>
        <time>2024-07-31T11:09:02.807Z</time>
      </trkpt>
      <trkpt lat="54.516" lon="16.72862">
        <ele>57.265753</ele>
        <time>2024-07-31T11:09:05.802Z</time>
      </trkpt>
      <trkpt lat="54.51598" lon="16.72882">
        <ele>57.386305</ele>
        <time>2024-07-31T11:09:08.816Z</time>
      </trkpt>
      <trkpt lat="54.51596" lon="16.72899">
        <ele>57.47583</ele>
        <time>2024-07-31T11:09:11.786Z</time>
      </trkpt>
      <trkpt lat="54.51595" lon="16.72916">
        <ele>57.552383</ele>
        <time>2024-07-31T11:09:14.799Z</time>
      </trkpt>
      <trkpt lat="54.51594" lon="16.72932">
        <ele>57.623818</ele>
        <time>2024-07-31T11:09:17.781Z</time>
      </trkpt>
      <trkpt lat="54.51595" lon="16.72952">
        <ele>57.715522</ele>
        <time>2024-07-31T11:09:21.817Z</time>
      </trkpt>
      <trkpt lat="54.51595" lon="16.7297">
        <ele>57.799825</ele>
        <time>2024-07-31T11:09:25.806Z</time>
      </trkpt>
      <trkpt lat="54.51591" lon="16.72987">
        <ele>57.882029</ele>
        <time>2024-07-31T11:09:29.791Z</time>
      </trkpt>
      <trkpt lat="54.51584" lon="16.73003">
        <ele>57.975064</ele>
        <time>2024-07-31T11:09:33.778Z</time>
      </trkpt>
      <trkpt lat="54.51579" lon="16.73019">
        <ele>58.057036</ele>
        <time>2024-07-31T11:09:36.813Z</time>
      </trkpt>
      <trkpt lat="54.51574" lon="16.73035">
        <ele>58.141136</ele>
        <time>2024-07-31T11:09:39.806Z</time>
      </trkpt>
      <trkpt lat="54.5157" lon="16.73052">
        <ele>58.222871</ele>
        <time>2024-07-31T11:09:42.793Z</time>
      </trkpt>
      <trkpt lat="54.51568" lon="16.73069">
        <ele>58.303274</ele>
        <time>2024-07-31T11:09:45.781Z</time>
      </trkpt>
      <trkpt lat="54.51566" lon="16.73088">
        <ele>58.391274</ele>
        <time>2024-07-31T11:09:48.824Z</time>
      </trkpt>
      <trkpt lat="54.51564" lon="16.73107">
        <ele>58.477781</ele>
        <time>2024-07-31T11:09:51.795Z</time>
      </trkpt>
      <trkpt lat="54.51561" lon="16.73125">
        <ele>58.564335</ele>
        <time>2024-07-31T11:09:54.791Z</time>
      </trkpt>
      <trkpt lat="54.51558" lon="16.73144">
        <ele>58.654499</ele>
        <time>2024-07-31T11:09:57.793Z</time>
      </trkpt>
      <trkpt lat="54.51556" lon="16.73164">
        <ele>58.745942</ele>
        <time>2024-07-31T11:10:00.810Z</time>
      </trkpt>
      <trkpt lat="54.51553" lon="16.73184">
        <ele>58.831278</ele>
        <time>2024-07-31T11:10:03.807Z</time>
      </trkpt>
      <trkpt lat="54.51552" lon="16.73202">
        <ele>58.878228</ele>
        <time>2024-07-31T11:10:06.789Z</time>
      </trkpt>
      <trkpt lat="54.51549" lon="16.73221">
        <ele>58.930023</ele>
        <time>2024-07-31T11:10:09.797Z</time>
      </trkpt>
      <trkpt lat="54.51547" lon="16.73241">
        <ele>58.980764</ele>
        <time>2024-07-31T11:10:12.786Z</time>
      </trkpt>
      <trkpt lat="54.51544" lon="16.73259">
        <ele>59.030061</ele>
        <time>2024-07-31T11:10:15.791Z</time>
      </trkpt>
      <trkpt lat="54.51541" lon="16.73279">
        <ele>59.083664</ele>
        <time>2024-07-31T11:10:18.795Z</time>
      </trkpt>
      <trkpt lat="54.51539" lon="16.73301">
        <ele>59.139722</ele>
        <time>2024-07-31T11:10:21.793Z</time>
      </trkpt>
      <trkpt lat="54.51537" lon="16.73322">
        <ele>59.195511</ele>
        <time>2024-07-31T11:10:24.795Z</time>
      </trkpt>
      <trkpt lat="54.51535" lon="16.73344">
        <ele>59.253573</ele>
        <time>2024-07-31T11:10:27.784Z</time>
      </trkpt>
      <trkpt lat="54.51532" lon="16.73365">
        <ele>59.308576</ele>
        <time>2024-07-31T11:10:30.789Z</time>
      </trkpt>
      <trkpt lat="54.51529" lon="16.73386">
        <ele>59.363932</ele>
        <time>2024-07-31T11:10:33.787Z</time>
      </trkpt>
      <trkpt lat="54.51527" lon="16.73407">
        <ele>59.418768</ele>
        <time>2024-07-31T11:10:36.797Z</time>
      </trkpt>
      <trkpt lat="54.51525" lon="16.73428">
        <ele>59.472907</ele>
        <time>2024-07-31T11:10:39.777Z</time>
      </trkpt>
      <trkpt lat="54.51524" lon="16.73449">
        <ele>59.527634</ele>
        <time>2024-07-31T11:10:42.778Z</time>
      </trkpt>
      <trkpt lat="54.51523" lon="16.73465">
        <ele>59.567609</ele>
        <time>2024-07-31T11:10:44.793Z</time>
      </trkpt>
      <trkpt lat="54.51521" lon="16.73486">
        <ele>59.58482</ele>
        <time>2024-07-31T11:10:47.754Z</time>
      </trkpt>
      <trkpt lat="54.5152" lon="16.73506">
        <ele>59.046571</ele>
        <time>2024-07-31T11:10:50.790Z</time>
      </trkpt>
      <trkpt lat="54.51517" lon="16.73528">
        <ele>58.447701</ele>
        <time>2024-07-31T11:10:53.798Z</time>
      </trkpt>
      <trkpt lat="54.51516" lon="16.73545">
        <ele>57.972925</ele>
        <time>2024-07-31T11:10:56.794Z</time>
      </trkpt>
      <trkpt lat="54.51514" lon="16.73561">
        <ele>57.548017</ele>
        <time>2024-07-31T11:10:59.790Z</time>
      </trkpt>
      <trkpt lat="54.51513" lon="16.73578">
        <ele>57.074229</ele>
        <time>2024-07-31T11:11:02.815Z</time>
      </trkpt>
      <trkpt lat="54.51512" lon="16.73596">
        <ele>56.584685</ele>
        <time>2024-07-31T11:11:05.777Z</time>
      </trkpt>
      <trkpt lat="54.51507" lon="16.73614">
        <ele>56.044082</ele>
        <time>2024-07-31T11:11:08.813Z</time>
      </trkpt>
      <trkpt lat="54.51505" lon="16.73622">
        <ele>55.82322</ele>
        <time>2024-07-31T11:11:13.397Z</time>
      </trkpt>
      <trkpt lat="54.515" lon="16.73636">
        <ele>55.377358</ele>
        <time>2024-07-31T11:12:53.795Z</time>
      </trkpt>
      <trkpt lat="54.51497" lon="16.73655">
        <ele>54.855742</ele>
        <time>2024-07-31T11:12:58.779Z</time>
      </trkpt>
      <trkpt lat="54.51494" lon="16.73672">
        <ele>54.368403</ele>
        <time>2024-07-31T11:13:02.775Z</time>
      </trkpt>
      <trkpt lat="54.51493" lon="16.73689">
        <ele>53.911549</ele>
        <time>2024-07-31T11:13:06.769Z</time>
      </trkpt>
      <trkpt lat="54.51491" lon="16.73706">
        <ele>53.440742</ele>
        <time>2024-07-31T11:13:10.787Z</time>
      </trkpt>
      <trkpt lat="54.51489" lon="16.73723">
        <ele>52.96983</ele>
        <time>2024-07-31T11:13:14.799Z</time>
      </trkpt>
      <trkpt lat="54.51488" lon="16.73743">
        <ele>52.43252</ele>
        <time>2024-07-31T11:13:18.784Z</time>
      </trkpt>
      <trkpt lat="54.51486" lon="16.73759">
        <ele>51.999226</ele>
        <time>2024-07-31T11:13:21.802Z</time>
      </trkpt>
      <trkpt lat="54.51484" lon="16.73776">
        <ele>51.531966</ele>
        <time>2024-07-31T11:13:24.771Z</time>
      </trkpt>
      <trkpt lat="54.51482" lon="16.73793">
        <ele>51.372977</ele>
        <time>2024-07-31T11:13:27.800Z</time>
      </trkpt>
      <trkpt lat="54.51481" lon="16.73812">
        <ele>51.673443</ele>
        <time>2024-07-31T11:13:30.798Z</time>
      </trkpt>
      <trkpt lat="54.51479" lon="16.73833">
        <ele>52.001788</ele>
        <time>2024-07-31T11:13:33.793Z</time>
      </trkpt>
      <trkpt lat="54.51475" lon="16.73858">
        <ele>52.400155</ele>
        <time>2024-07-31T11:13:36.813Z</time>
      </trkpt>
      <trkpt lat="54.51474" lon="16.73876">
        <ele>52.690705</ele>
        <time>2024-07-31T11:13:38.811Z</time>
      </trkpt>
      <trkpt lat="54.51471" lon="16.73895">
        <ele>53.001396</ele>
        <time>2024-07-31T11:13:40.781Z</time>
      </trkpt>
      <trkpt lat="54.51469" lon="16.73912">
        <ele>53.261423</ele>
        <time>2024-07-31T11:13:42.786Z</time>
      </trkpt>
      <trkpt lat="54.51467" lon="16.73927">
        <ele>53.509662</ele>
        <time>2024-07-31T11:13:44.778Z</time>
      </trkpt>
      <trkpt lat="54.51464" lon="16.73949">
        <ele>53.861942</ele>
        <time>2024-07-31T11:13:47.805Z</time>
      </trkpt>
      <trkpt lat="54.51463" lon="16.73965">
        <ele>54.106677</ele>
        <time>2024-07-31T11:13:49.801Z</time>
      </trkpt>
      <trkpt lat="54.51462" lon="16.73981">
        <ele>54.35234</ele>
        <time>2024-07-31T11:13:51.790Z</time>
      </trkpt>
      <trkpt lat="54.51459" lon="16.73996">
        <ele>54.602356</ele>
        <time>2024-07-31T11:13:53.803Z</time>
      </trkpt>
      <trkpt lat="54.51457" lon="16.74012">
        <ele>54.853019</ele>
        <time>2024-07-31T11:13:55.789Z</time>
      </trkpt>
      <trkpt lat="54.51455" lon="16.74034">
        <ele>55.203654</ele>
        <time>2024-07-31T11:13:58.810Z</time>
      </trkpt>
      <trkpt lat="54.51453" lon="16.7405">
        <ele>55.461046</ele>
        <time>2024-07-31T11:14:00.800Z</time>
      </trkpt>
      <trkpt lat="54.51451" lon="16.74066">
        <ele>55.707762</ele>
        <time>2024-07-31T11:14:02.795Z</time>
      </trkpt>
      <trkpt lat="54.5145" lon="16.74081">
        <ele>55.956992</ele>
        <time>2024-07-31T11:14:04.786Z</time>
      </trkpt>
      <trkpt lat="54.51448" lon="16.74099">
        <ele>56.09883</ele>
        <time>2024-07-31T11:14:06.797Z</time>
      </trkpt>
      <trkpt lat="54.51446" lon="16.74116">
        <ele>56.127967</ele>
        <time>2024-07-31T11:14:08.812Z</time>
      </trkpt>
      <trkpt lat="54.51444" lon="16.74134">
        <ele>56.158522</ele>
        <time>2024-07-31T11:14:10.787Z</time>
      </trkpt>
      <trkpt lat="54.5144" lon="16.74152">
        <ele>56.190086</ele>
        <time>2024-07-31T11:14:12.792Z</time>
      </trkpt>
      <trkpt lat="54.51435" lon="16.74167">
        <ele>56.219117</ele>
        <time>2024-07-31T11:14:14.785Z</time>
      </trkpt>
      <trkpt lat="54.51431" lon="16.74181">
        <ele>56.245381</ele>
        <time>2024-07-31T11:14:16.793Z</time>
      </trkpt>
      <trkpt lat="54.51429" lon="16.74197">
        <ele>56.273039</ele>
        <time>2024-07-31T11:14:18.801Z</time>
      </trkpt>
      <trkpt lat="54.5143" lon="16.74215">
        <ele>56.30212</ele>
        <time>2024-07-31T11:14:20.793Z</time>
      </trkpt>
      <trkpt lat="54.5143" lon="16.74231">
        <ele>56.329841</ele>
        <time>2024-07-31T11:14:22.780Z</time>
      </trkpt>
      <trkpt lat="54.51428" lon="16.74248">
        <ele>56.359096</ele>
        <time>2024-07-31T11:14:24.775Z</time>
      </trkpt>
      <trkpt lat="54.51426" lon="16.74265">
        <ele>56.387736</ele>
        <time>2024-07-31T11:14:26.775Z</time>
      </trkpt>
      <trkpt lat="54.51424" lon="16.74281">
        <ele>56.414804</ele>
        <time>2024-07-31T11:14:28.804Z</time>
      </trkpt>
      <trkpt lat="54.51424" lon="16.74298">
        <ele>56.442706</ele>
        <time>2024-07-31T11:14:30.790Z</time>
      </trkpt>
      <trkpt lat="54.51426" lon="16.74315">
        <ele>56.472119</ele>
        <time>2024-07-31T11:14:32.788Z</time>
      </trkpt>
      <trkpt lat="54.51428" lon="16.74332">
        <ele>56.501522</ele>
        <time>2024-07-31T11:14:34.764Z</time>
      </trkpt>
      <trkpt lat="54.51427" lon="16.74349">
        <ele>56.529756</ele>
        <time>2024-07-31T11:14:36.786Z</time>
      </trkpt>
      <trkpt lat="54.51424" lon="16.74366">
        <ele>56.558679</ele>
        <time>2024-07-31T11:14:38.779Z</time>
      </trkpt>
      <trkpt lat="54.51422" lon="16.74382">
        <ele>56.586044</ele>
        <time>2024-07-31T11:14:40.790Z</time>
      </trkpt>
      <trkpt lat="54.5142" lon="16.74398">
        <ele>56.547564</ele>
        <time>2024-07-31T11:14:42.803Z</time>
      </trkpt>
      <trkpt lat="54.51418" lon="16.74413">
        <ele>56.437127</ele>
        <time>2024-07-31T11:14:44.795Z</time>
      </trkpt>
      <trkpt lat="54.51415" lon="16.74433">
        <ele>56.289649</ele>
        <time>2024-07-31T11:14:47.791Z</time>
      </trkpt>
      <trkpt lat="54.51412" lon="16.74455">
        <ele>56.133163</ele>
        <time>2024-07-31T11:14:50.806Z</time>
      </trkpt>
      <trkpt lat="54.5141" lon="16.74476">
        <ele>55.981344</ele>
        <time>2024-07-31T11:14:53.798Z</time>
      </trkpt>
      <trkpt lat="54.51407" lon="16.74497">
        <ele>55.826808</ele>
        <time>2024-07-31T11:14:56.793Z</time>
      </trkpt>
      <trkpt lat="54.51405" lon="16.74519">
        <ele>55.669438</ele>
        <time>2024-07-31T11:14:59.786Z</time>
      </trkpt>
      <trkpt lat="54.51403" lon="16.74539">
        <ele>55.526564</ele>
        <time>2024-07-31T11:15:02.795Z</time>
      </trkpt>
      <trkpt lat="54.514" lon="16.74559">
        <ele>55.381899</ele>
        <time>2024-07-31T11:15:05.795Z</time>
      </trkpt>
      <trkpt lat="54.51398" lon="16.74579">
        <ele>55.23427</ele>
        <time>2024-07-31T11:15:08.802Z</time>
      </trkpt>
      <trkpt lat="54.51397" lon="16.74595">
        <ele>55.123027</ele>
        <time>2024-07-31T11:15:10.810Z</time>
      </trkpt>
      <trkpt lat="54.51394" lon="16.74611">
        <ele>55.004088</ele>
        <time>2024-07-31T11:15:12.792Z</time>
      </trkpt>
      <trkpt lat="54.51388" lon="16.74626">
        <ele>54.877016</ele>
        <time>2024-07-31T11:15:14.786Z</time>
      </trkpt>
      <trkpt lat="54.51381" lon="16.74642">
        <ele>54.738958</ele>
        <time>2024-07-31T11:15:16.789Z</time>
      </trkpt>
      <trkpt lat="54.51377" lon="16.7466">
        <ele>54.603241</ele>
        <time>2024-07-31T11:15:18.785Z</time>
      </trkpt>
      <trkpt lat="54.51375" lon="16.74679">
        <ele>54.467627</ele>
        <time>2024-07-31T11:15:20.777Z</time>
      </trkpt>
      <trkpt lat="54.51373" lon="16.74699">
        <ele>54.354711</ele>
        <time>2024-07-31T11:15:22.804Z</time>
      </trkpt>
      <trkpt lat="54.51371" lon="16.74719">
        <ele>54.265478</ele>
        <time>2024-07-31T11:15:24.793Z</time>
      </trkpt>
      <trkpt lat="54.5137" lon="16.74739">
        <ele>54.178355</ele>
        <time>2024-07-31T11:15:26.778Z</time>
      </trkpt>
      <trkpt lat="54.51368" lon="16.74757">
        <ele>54.096079</ele>
        <time>2024-07-31T11:15:28.792Z</time>
      </trkpt>
      <trkpt lat="54.51365" lon="16.74776">
        <ele>54.007995</ele>
        <time>2024-07-31T11:15:30.790Z</time>
      </trkpt>
      <trkpt lat="54.51362" lon="16.74797">
        <ele>53.916461</ele>
        <time>2024-07-31T11:15:32.790Z</time>
      </trkpt>
      <trkpt lat="54.5136" lon="16.74817">
        <ele>53.823749</ele>
        <time>2024-07-31T11:15:34.794Z</time>
      </trkpt>
      <trkpt lat="54.51357" lon="16.74836">
        <ele>53.736709</ele>
        <time>2024-07-31T11:15:36.788Z</time>
      </trkpt>
      <trkpt lat="54.51354" lon="16.74856">
        <ele>53.645885</ele>
        <time>2024-07-31T11:15:38.788Z</time>
      </trkpt>
      <trkpt lat="54.51352" lon="16.74875">
        <ele>53.559205</ele>
        <time>2024-07-31T11:15:40.814Z</time>
      </trkpt>
      <trkpt lat="54.5135" lon="16.74893">
        <ele>53.478796</ele>
        <time>2024-07-31T11:15:42.781Z</time>
      </trkpt>
      <trkpt lat="54.51347" lon="16.74911">
        <ele>53.39984</ele>
        <time>2024-07-31T11:15:44.800Z</time>
      </trkpt>
      <trkpt lat="54.51345" lon="16.74929">
        <ele>53.318837</ele>
        <time>2024-07-31T11:15:46.790Z</time>
      </trkpt>
      <trkpt lat="54.51343" lon="16.74946">
        <ele>53.23878</ele>
        <time>2024-07-31T11:15:48.790Z</time>
      </trkpt>
      <trkpt lat="54.51341" lon="16.74964">
        <ele>53.159076</ele>
        <time>2024-07-31T11:15:50.811Z</time>
      </trkpt>
      <trkpt lat="54.51339" lon="16.74982">
        <ele>53.079404</ele>
        <time>2024-07-31T11:15:52.785Z</time>
      </trkpt>
      <trkpt lat="54.51337" lon="16.75">
        <ele>53.022723</ele>
        <time>2024-07-31T11:15:54.803Z</time>
      </trkpt>
      <trkpt lat="54.51335" lon="16.7502">
        <ele>52.983695</ele>
        <time>2024-07-31T11:15:56.781Z</time>
      </trkpt>
      <trkpt lat="54.51332" lon="16.75039">
        <ele>52.943785</ele>
        <time>2024-07-31T11:15:58.783Z</time>
      </trkpt>
      <trkpt lat="54.51329" lon="16.75059">
        <ele>52.904783</ele>
        <time>2024-07-31T11:16:00.777Z</time>
      </trkpt>
      <trkpt lat="54.51327" lon="16.75079">
        <ele>52.864247</ele>
        <time>2024-07-31T11:16:02.788Z</time>
      </trkpt>
      <trkpt lat="54.51324" lon="16.75099">
        <ele>52.82453</ele>
        <time>2024-07-31T11:16:04.799Z</time>
      </trkpt>
      <trkpt lat="54.51322" lon="16.75119">
        <ele>52.783802</ele>
        <time>2024-07-31T11:16:06.781Z</time>
      </trkpt>
      <trkpt lat="54.51319" lon="16.75139">
        <ele>52.74262</ele>
        <time>2024-07-31T11:16:08.782Z</time>
      </trkpt>
      <trkpt lat="54.51317" lon="16.7516">
        <ele>52.701507</ele>
        <time>2024-07-31T11:16:10.799Z</time>
      </trkpt>
      <trkpt lat="54.51314" lon="16.7518">
        <ele>52.661424</ele>
        <time>2024-07-31T11:16:12.791Z</time>
      </trkpt>
      <trkpt lat="54.51312" lon="16.75199">
        <ele>52.621898</ele>
        <time>2024-07-31T11:16:14.822Z</time>
      </trkpt>
      <trkpt lat="54.51309" lon="16.7522">
        <ele>52.580645</ele>
        <time>2024-07-31T11:16:16.797Z</time>
      </trkpt>
      <trkpt lat="54.51307" lon="16.7524">
        <ele>52.540433</ele>
        <time>2024-07-31T11:16:18.786Z</time>
      </trkpt>
      <trkpt lat="54.51304" lon="16.7526">
        <ele>52.500065</ele>
        <time>2024-07-31T11:16:20.803Z</time>
      </trkpt>
      <trkpt lat="54.51302" lon="16.7528">
        <ele>52.460175</ele>
        <time>2024-07-31T11:16:22.787Z</time>
      </trkpt>
      <trkpt lat="54.513" lon="16.753">
        <ele>52.393037</ele>
        <time>2024-07-31T11:16:24.808Z</time>
      </trkpt>
      <trkpt lat="54.51297" lon="16.7532">
        <ele>52.2833</ele>
        <time>2024-07-31T11:16:26.789Z</time>
      </trkpt>
      <trkpt lat="54.51295" lon="16.75339">
        <ele>52.176838</ele>
        <time>2024-07-31T11:16:28.790Z</time>
      </trkpt>
      <trkpt lat="54.51292" lon="16.75358">
        <ele>52.068482</ele>
        <time>2024-07-31T11:16:30.796Z</time>
      </trkpt>
      <trkpt lat="54.51289" lon="16.75377">
        <ele>51.963502</ele>
        <time>2024-07-31T11:16:32.795Z</time>
      </trkpt>
      <trkpt lat="54.51287" lon="16.75397">
        <ele>51.857138</ele>
        <time>2024-07-31T11:16:34.774Z</time>
      </trkpt>
      <trkpt lat="54.51285" lon="16.75415">
        <ele>51.755757</ele>
        <time>2024-07-31T11:16:36.782Z</time>
      </trkpt>
      <trkpt lat="54.51283" lon="16.75434">
        <ele>51.652606</ele>
        <time>2024-07-31T11:16:38.816Z</time>
      </trkpt>
      <trkpt lat="54.5128" lon="16.75452">
        <ele>51.550395</ele>
        <time>2024-07-31T11:16:40.780Z</time>
      </trkpt>
      <trkpt lat="54.51277" lon="16.7547">
        <ele>51.44895</ele>
        <time>2024-07-31T11:16:42.792Z</time>
      </trkpt>
      <trkpt lat="54.51275" lon="16.75488">
        <ele>51.34827</ele>
        <time>2024-07-31T11:16:44.777Z</time>
      </trkpt>
      <trkpt lat="54.51273" lon="16.75507">
        <ele>51.247057</ele>
        <time>2024-07-31T11:16:46.791Z</time>
      </trkpt>
      <trkpt lat="54.51271" lon="16.75525">
        <ele>51.146209</ele>
        <time>2024-07-31T11:16:48.800Z</time>
      </trkpt>
      <trkpt lat="54.51269" lon="16.75544">
        <ele>51.041431</ele>
        <time>2024-07-31T11:16:50.785Z</time>
      </trkpt>
      <trkpt lat="54.51267" lon="16.75563">
        <ele>50.935311</ele>
        <time>2024-07-31T11:16:52.787Z</time>
      </trkpt>
      <trkpt lat="54.51265" lon="16.75582">
        <ele>50.829476</ele>
        <time>2024-07-31T11:16:54.782Z</time>
      </trkpt>
      <trkpt lat="54.51263" lon="16.75601">
        <ele>50.744793</ele>
        <time>2024-07-31T11:16:56.787Z</time>
      </trkpt>
      <trkpt lat="54.51261" lon="16.7562">
        <ele>50.705221</ele>
        <time>2024-07-31T11:16:58.823Z</time>
      </trkpt>
      <trkpt lat="54.51258" lon="16.75637">
        <ele>50.668489</ele>
        <time>2024-07-31T11:17:00.802Z</time>
      </trkpt>
      <trkpt lat="54.51256" lon="16.75655">
        <ele>50.629879</ele>
        <time>2024-07-31T11:17:02.794Z</time>
      </trkpt>
      <trkpt lat="54.51253" lon="16.75671">
        <ele>50.593647</ele>
        <time>2024-07-31T11:17:04.786Z</time>
      </trkpt>
      <trkpt lat="54.51251" lon="16.75688">
        <ele>50.558324</ele>
        <time>2024-07-31T11:17:06.764Z</time>
      </trkpt>
      <trkpt lat="54.51249" lon="16.75703">
        <ele>50.524886</ele>
        <time>2024-07-31T11:17:08.814Z</time>
      </trkpt>
      <trkpt lat="54.51248" lon="16.75719">
        <ele>50.491957</ele>
        <time>2024-07-31T11:17:10.785Z</time>
      </trkpt>
      <trkpt lat="54.51246" lon="16.75735">
        <ele>50.457455</ele>
        <time>2024-07-31T11:17:12.797Z</time>
      </trkpt>
      <trkpt lat="54.51244" lon="16.75752">
        <ele>50.421007</ele>
        <time>2024-07-31T11:17:14.803Z</time>
      </trkpt>
      <trkpt lat="54.51242" lon="16.75769">
        <ele>50.385448</ele>
        <time>2024-07-31T11:17:16.802Z</time>
      </trkpt>
      <trkpt lat="54.51239" lon="16.75786">
        <ele>50.348582</ele>
        <time>2024-07-31T11:17:18.811Z</time>
      </trkpt>
      <trkpt lat="54.51237" lon="16.75803">
        <ele>50.310409</ele>
        <time>2024-07-31T11:17:20.791Z</time>
      </trkpt>
      <trkpt lat="54.51235" lon="16.75821">
        <ele>50.273649</ele>
        <time>2024-07-31T11:17:22.805Z</time>
      </trkpt>
      <trkpt lat="54.51233" lon="16.75837">
        <ele>50.238377</ele>
        <time>2024-07-31T11:17:24.791Z</time>
      </trkpt>
      <trkpt lat="54.51229" lon="16.75859">
        <ele>50.189875</ele>
        <time>2024-07-31T11:17:27.803Z</time>
      </trkpt>
      <trkpt lat="54.51227" lon="16.7588">
        <ele>50.146666</ele>
        <time>2024-07-31T11:17:30.780Z</time>
      </trkpt>
      <trkpt lat="54.51235" lon="16.75891">
        <ele>50.108783</ele>
        <time>2024-07-31T11:17:34.798Z</time>
      </trkpt>
      <trkpt lat="54.51244" lon="16.75894">
        <ele>50.028218</ele>
        <time>2024-07-31T11:17:41.789Z</time>
      </trkpt>
      <trkpt lat="54.51253" lon="16.75899">
        <ele>49.952836</ele>
        <time>2024-07-31T11:17:47.806Z</time>
      </trkpt>
      <trkpt lat="54.51263" lon="16.75904">
        <ele>49.868136</ele>
        <time>2024-07-31T11:17:52.803Z</time>
      </trkpt>
      <trkpt lat="54.51271" lon="16.7591">
        <ele>49.793187</ele>
        <time>2024-07-31T11:17:56.779Z</time>
      </trkpt>
      <trkpt lat="54.51282" lon="16.75919">
        <ele>49.699939</ele>
        <time>2024-07-31T11:18:00.775Z</time>
      </trkpt>
      <trkpt lat="54.51291" lon="16.75928">
        <ele>49.608975</ele>
        <time>2024-07-31T11:18:03.778Z</time>
      </trkpt>
      <trkpt lat="54.513" lon="16.75935">
        <ele>49.530612</ele>
        <time>2024-07-31T11:18:05.787Z</time>
      </trkpt>
      <trkpt lat="54.5131" lon="16.75944">
        <ele>49.439936</ele>
        <time>2024-07-31T11:18:07.793Z</time>
      </trkpt>
      <trkpt lat="54.5132" lon="16.75954">
        <ele>49.342092</ele>
        <time>2024-07-31T11:18:09.788Z</time>
      </trkpt>
      <trkpt lat="54.51331" lon="16.75965">
        <ele>49.235897</ele>
        <time>2024-07-31T11:18:11.789Z</time>
      </trkpt>
      <trkpt lat="54.51344" lon="16.75976">
        <ele>49.119917</ele>
        <time>2024-07-31T11:18:13.787Z</time>
      </trkpt>
      <trkpt lat="54.51356" lon="16.75988">
        <ele>49.000409</ele>
        <time>2024-07-31T11:18:15.781Z</time>
      </trkpt>
      <trkpt lat="54.51369" lon="16.76001">
        <ele>48.880186</ele>
        <time>2024-07-31T11:18:17.804Z</time>
      </trkpt>
      <trkpt lat="54.51382" lon="16.76011">
        <ele>48.765186</ele>
        <time>2024-07-31T11:18:19.781Z</time>
      </trkpt>
      <trkpt lat="54.51393" lon="16.76017">
        <ele>48.668447</ele>
        <time>2024-07-31T11:18:21.807Z</time>
      </trkpt>
      <trkpt lat="54.51401" lon="16.7603">
        <ele>48.637895</ele>
        <time>2024-07-31T11:18:24.780Z</time>
      </trkpt>
      <trkpt lat="54.51402" lon="16.76048">
        <ele>48.65729</ele>
        <time>2024-07-31T11:18:28.791Z</time>
      </trkpt>
      <trkpt lat="54.51407" lon="16.76062">
        <ele>48.675294</ele>
        <time>2024-07-31T11:18:32.811Z</time>
      </trkpt>
      <trkpt lat="54.51415" lon="16.76073">
        <ele>48.694536</ele>
        <time>2024-07-31T11:18:35.789Z</time>
      </trkpt>
      <trkpt lat="54.51427" lon="16.76083">
        <ele>48.720301</ele>
        <time>2024-07-31T11:18:38.780Z</time>
      </trkpt>
      <trkpt lat="54.51436" lon="16.76089">
        <ele>48.738125</ele>
        <time>2024-07-31T11:18:40.787Z</time>
      </trkpt>
      <trkpt lat="54.51444" lon="16.76095">
        <ele>48.755831</ele>
        <time>2024-07-31T11:18:42.794Z</time>
      </trkpt>
      <trkpt lat="54.51457" lon="16.76103">
        <ele>48.781372</ele>
        <time>2024-07-31T11:18:45.804Z</time>
      </trkpt>
      <trkpt lat="54.51466" lon="16.76107">
        <ele>48.798485</ele>
        <time>2024-07-31T11:18:47.787Z</time>
      </trkpt>
      <trkpt lat="54.51478" lon="16.76114">
        <ele>48.821919</ele>
        <time>2024-07-31T11:18:50.786Z</time>
      </trkpt>
      <trkpt lat="54.51486" lon="16.76119">
        <ele>48.839527</ele>
        <time>2024-07-31T11:18:53.803Z</time>
      </trkpt>
      <trkpt lat="54.51497" lon="16.76125">
        <ele>48.860209</ele>
        <time>2024-07-31T11:18:56.797Z</time>
      </trkpt>
      <trkpt lat="54.51509" lon="16.76131">
        <ele>48.883494</ele>
        <time>2024-07-31T11:18:59.795Z</time>
      </trkpt>
      <trkpt lat="54.51521" lon="16.76136">
        <ele>48.908011</ele>
        <time>2024-07-31T11:19:02.806Z</time>
      </trkpt>
      <trkpt lat="54.5153" lon="16.76142">
        <ele>48.925824</ele>
        <time>2024-07-31T11:19:04.800Z</time>
      </trkpt>
      <trkpt lat="54.51538" lon="16.76148">
        <ele>48.942905</ele>
        <time>2024-07-31T11:19:06.788Z</time>
      </trkpt>
      <trkpt lat="54.51547" lon="16.76154">
        <ele>48.960113</ele>
        <time>2024-07-31T11:19:08.804Z</time>
      </trkpt>
      <trkpt lat="54.51559" lon="16.76162">
        <ele>49.066632</ele>
        <time>2024-07-31T11:19:11.796Z</time>
      </trkpt>
      <trkpt lat="54.51571" lon="16.76171">
        <ele>49.202168</ele>
        <time>2024-07-31T11:19:14.801Z</time>
      </trkpt>
      <trkpt lat="54.51583" lon="16.76179">
        <ele>49.328912</ele>
        <time>2024-07-31T11:19:17.795Z</time>
      </trkpt>
      <trkpt lat="54.51594" lon="16.76188">
        <ele>49.451955</ele>
        <time>2024-07-31T11:19:20.812Z</time>
      </trkpt>
      <trkpt lat="54.51605" lon="16.76197">
        <ele>49.578167</ele>
        <time>2024-07-31T11:19:23.808Z</time>
      </trkpt>
      <trkpt lat="54.51617" lon="16.76204">
        <ele>49.707785</ele>
        <time>2024-07-31T11:19:26.782Z</time>
      </trkpt>
      <trkpt lat="54.51628" lon="16.76212">
        <ele>49.830221</ele>
        <time>2024-07-31T11:19:29.806Z</time>
      </trkpt>
      <trkpt lat="54.51639" lon="16.7622">
        <ele>49.95031</ele>
        <time>2024-07-31T11:19:32.783Z</time>
      </trkpt>
      <trkpt lat="54.5165" lon="16.76227">
        <ele>50.068701</ele>
        <time>2024-07-31T11:19:35.813Z</time>
      </trkpt>
      <trkpt lat="54.51661" lon="16.76235">
        <ele>50.198843</ele>
        <time>2024-07-31T11:19:38.780Z</time>
      </trkpt>
      <trkpt lat="54.51673" lon="16.76244">
        <ele>50.326408</ele>
        <time>2024-07-31T11:19:41.793Z</time>
      </trkpt>
      <trkpt lat="54.51685" lon="16.76252">
        <ele>50.457814</ele>
        <time>2024-07-31T11:19:44.784Z</time>
      </trkpt>
      <trkpt lat="54.51697" lon="16.7626">
        <ele>50.591771</ele>
        <time>2024-07-31T11:19:47.789Z</time>
      </trkpt>
      <trkpt lat="54.51708" lon="16.7627">
        <ele>50.722536</ele>
        <time>2024-07-31T11:19:50.808Z</time>
      </trkpt>
      <trkpt lat="54.51719" lon="16.76279">
        <ele>50.833784</ele>
        <time>2024-07-31T11:19:53.810Z</time>
      </trkpt>
      <trkpt lat="54.5173" lon="16.76291">
        <ele>50.927023</ele>
        <time>2024-07-31T11:19:56.801Z</time>
      </trkpt>
      <trkpt lat="54.51741" lon="16.76301">
        <ele>51.021035</ele>
        <time>2024-07-31T11:19:59.791Z</time>
      </trkpt>
      <trkpt lat="54.51751" lon="16.76314">
        <ele>51.1157</ele>
        <time>2024-07-31T11:20:02.773Z</time>
      </trkpt>
      <trkpt lat="54.5176" lon="16.76328">
        <ele>51.205211</ele>
        <time>2024-07-31T11:20:05.765Z</time>
      </trkpt>
      <trkpt lat="54.51767" lon="16.76341">
        <ele>51.287015</ele>
        <time>2024-07-31T11:20:08.810Z</time>
      </trkpt>
      <trkpt lat="54.51768" lon="16.7636">
        <ele>51.36809</ele>
        <time>2024-07-31T11:20:12.767Z</time>
      </trkpt>
      <trkpt lat="54.51776" lon="16.76373">
        <ele>51.448815</ele>
        <time>2024-07-31T11:20:16.777Z</time>
      </trkpt>
      <trkpt lat="54.51786" lon="16.76384">
        <ele>51.539224</ele>
        <time>2024-07-31T11:20:20.779Z</time>
      </trkpt>
      <trkpt lat="54.51794" lon="16.7639">
        <ele>51.608395</ele>
        <time>2024-07-31T11:20:23.791Z</time>
      </trkpt>
      <trkpt lat="54.51805" lon="16.76397">
        <ele>51.694415</ele>
        <time>2024-07-31T11:20:27.799Z</time>
      </trkpt>
      <trkpt lat="54.51815" lon="16.764">
        <ele>51.770063</ele>
        <time>2024-07-31T11:20:30.782Z</time>
      </trkpt>
      <trkpt lat="54.51824" lon="16.76404">
        <ele>51.838265</ele>
        <time>2024-07-31T11:20:33.795Z</time>
      </trkpt>
      <trkpt lat="54.51836" lon="16.76409">
        <ele>51.9281</ele>
        <time>2024-07-31T11:20:37.776Z</time>
      </trkpt>
      <trkpt lat="54.51845" lon="16.76413">
        <ele>52.001184</ele>
        <time>2024-07-31T11:20:40.790Z</time>
      </trkpt>
      <trkpt lat="54.51855" lon="16.76416">
        <ele>52.076557</ele>
        <time>2024-07-31T11:20:43.789Z</time>
      </trkpt>
      <trkpt lat="54.51864" lon="16.7642">
        <ele>52.148183</ele>
        <time>2024-07-31T11:20:46.777Z</time>
      </trkpt>
      <trkpt lat="54.51874" lon="16.76425">
        <ele>52.676711</ele>
        <time>2024-07-31T11:20:50.782Z</time>
      </trkpt>
      <trkpt lat="54.51884" lon="16.76429">
        <ele>53.225498</ele>
        <time>2024-07-31T11:20:54.792Z</time>
      </trkpt>
      <trkpt lat="54.51895" lon="16.76432">
        <ele>53.832371</ele>
        <time>2024-07-31T11:20:58.815Z</time>
      </trkpt>
      <trkpt lat="54.51904" lon="16.76436">
        <ele>54.342953</ele>
        <time>2024-07-31T11:21:02.799Z</time>
      </trkpt>
      <trkpt lat="54.51913" lon="16.7644">
        <ele>54.866264</ele>
        <time>2024-07-31T11:21:06.789Z</time>
      </trkpt>
      <trkpt lat="54.51923" lon="16.76445">
        <ele>55.416981</ele>
        <time>2024-07-31T11:21:10.783Z</time>
      </trkpt>
      <trkpt lat="54.51934" lon="16.76449">
        <ele>56.003289</ele>
        <time>2024-07-31T11:21:14.781Z</time>
      </trkpt>
      <trkpt lat="54.51944" lon="16.76454">
        <ele>56.576484</ele>
        <time>2024-07-31T11:21:18.802Z</time>
      </trkpt>
      <trkpt lat="54.51954" lon="16.76459">
        <ele>57.133258</ele>
        <time>2024-07-31T11:21:22.798Z</time>
      </trkpt>
      <trkpt lat="54.51964" lon="16.76463">
        <ele>57.671541</ele>
        <time>2024-07-31T11:21:26.790Z</time>
      </trkpt>
      <trkpt lat="54.51974" lon="16.76469">
        <ele>58.262033</ele>
        <time>2024-07-31T11:21:30.791Z</time>
      </trkpt>
      <trkpt lat="54.51984" lon="16.76474">
        <ele>58.803289</ele>
        <time>2024-07-31T11:21:34.785Z</time>
      </trkpt>
      <trkpt lat="54.51993" lon="16.76478">
        <ele>59.329815</ele>
        <time>2024-07-31T11:21:38.777Z</time>
      </trkpt>
      <trkpt lat="54.52002" lon="16.76483">
        <ele>59.849244</ele>
        <time>2024-07-31T11:21:42.790Z</time>
      </trkpt>
      <trkpt lat="54.52012" lon="16.76489">
        <ele>60.401739</ele>
        <time>2024-07-31T11:21:46.784Z</time>
      </trkpt>
      <trkpt lat="54.52022" lon="16.76494">
        <ele>60.947733</ele>
        <time>2024-07-31T11:21:50.793Z</time>
      </trkpt>
      <trkpt lat="54.52032" lon="16.76499">
        <ele>61.520061</ele>
        <time>2024-07-31T11:21:54.783Z</time>
      </trkpt>
      <trkpt lat="54.52042" lon="16.76505">
        <ele>61.945119</ele>
        <time>2024-07-31T11:21:58.803Z</time>
      </trkpt>
      <trkpt lat="54.52052" lon="16.76512">
        <ele>62.157543</ele>
        <time>2024-07-31T11:22:02.784Z</time>
      </trkpt>
      <trkpt lat="54.52062" lon="16.76518">
        <ele>62.353618</ele>
        <time>2024-07-31T11:22:06.778Z</time>
      </trkpt>
      <trkpt lat="54.52072" lon="16.76522">
        <ele>62.545519</ele>
        <time>2024-07-31T11:22:10.777Z</time>
      </trkpt>
      <trkpt lat="54.52082" lon="16.76529">
        <ele>62.757176</ele>
        <time>2024-07-31T11:22:14.776Z</time>
      </trkpt>
      <trkpt lat="54.52091" lon="16.76537">
        <ele>62.956375</ele>
        <time>2024-07-31T11:22:18.803Z</time>
      </trkpt>
      <trkpt lat="54.52098" lon="16.76549">
        <ele>63.142072</ele>
        <time>2024-07-31T11:22:22.793Z</time>
      </trkpt>
      <trkpt lat="54.52101" lon="16.76566">
        <ele>63.33358</ele>
        <time>2024-07-31T11:22:26.796Z</time>
      </trkpt>
      <trkpt lat="54.52102" lon="16.76583">
        <ele>63.528663</ele>
        <time>2024-07-31T11:22:30.782Z</time>
      </trkpt>
      <trkpt lat="54.52102" lon="16.76601">
        <ele>63.720917</ele>
        <time>2024-07-31T11:22:34.766Z</time>
      </trkpt>
      <trkpt lat="54.52102" lon="16.76618">
        <ele>63.911994</ele>
        <time>2024-07-31T11:22:38.811Z</time>
      </trkpt>
      <trkpt lat="54.521" lon="16.76635">
        <ele>64.102933</ele>
        <time>2024-07-31T11:22:42.806Z</time>
      </trkpt>
      <trkpt lat="54.52097" lon="16.76653">
        <ele>64.314617</ele>
        <time>2024-07-31T11:22:46.775Z</time>
      </trkpt>
      <trkpt lat="54.52095" lon="16.76669">
        <ele>64.49814</ele>
        <time>2024-07-31T11:22:50.799Z</time>
      </trkpt>
      <trkpt lat="54.52093" lon="16.76686">
        <ele>64.689379</ele>
        <time>2024-07-31T11:22:54.790Z</time>
      </trkpt>
      <trkpt lat="54.5209" lon="16.76703">
        <ele>64.891</ele>
        <time>2024-07-31T11:22:58.776Z</time>
      </trkpt>
      <trkpt lat="54.52092" lon="16.76719">
        <ele>65.073584</ele>
        <time>2024-07-31T11:23:02.785Z</time>
      </trkpt>
      <trkpt lat="54.52092" lon="16.76736">
        <ele>65.260222</ele>
        <time>2024-07-31T11:23:06.771Z</time>
      </trkpt>
      <trkpt lat="54.52089" lon="16.76753">
        <ele>65.395333</ele>
        <time>2024-07-31T11:23:10.794Z</time>
      </trkpt>
      <trkpt lat="54.52085" lon="16.76771">
        <ele>65.518583</ele>
        <time>2024-07-31T11:23:15.799Z</time>
      </trkpt>
      <trkpt lat="54.52082" lon="16.76787">
        <ele>65.632506</ele>
        <time>2024-07-31T11:23:19.794Z</time>
      </trkpt>
      <trkpt lat="54.52078" lon="16.76805">
        <ele>65.763933</ele>
        <time>2024-07-31T11:23:23.785Z</time>
      </trkpt>
      <trkpt lat="54.52075" lon="16.76825">
        <ele>65.900556</ele>
        <time>2024-07-31T11:23:27.783Z</time>
      </trkpt>
      <trkpt lat="54.52073" lon="16.76842">
        <ele>66.014212</ele>
        <time>2024-07-31T11:23:30.790Z</time>
      </trkpt>
      <trkpt lat="54.5207" lon="16.76858">
        <ele>66.12778</ele>
        <time>2024-07-31T11:23:33.786Z</time>
      </trkpt>
      <trkpt lat="54.52066" lon="16.76873">
        <ele>66.238858</ele>
        <time>2024-07-31T11:23:36.801Z</time>
      </trkpt>
      <trkpt lat="54.52063" lon="16.76891">
        <ele>66.363614</ele>
        <time>2024-07-31T11:23:39.788Z</time>
      </trkpt>
      <trkpt lat="54.52061" lon="16.7691">
        <ele>66.488428</ele>
        <time>2024-07-31T11:23:42.796Z</time>
      </trkpt>
      <trkpt lat="54.5206" lon="16.7693">
        <ele>66.623378</ele>
        <time>2024-07-31T11:23:45.782Z</time>
      </trkpt>
      <trkpt lat="54.52059" lon="16.76951">
        <ele>66.767632</ele>
        <time>2024-07-31T11:23:48.799Z</time>
      </trkpt>
      <trkpt lat="54.52057" lon="16.76972">
        <ele>66.905274</ele>
        <time>2024-07-31T11:23:51.795Z</time>
      </trkpt>
      <trkpt lat="54.52057" lon="16.76992">
        <ele>67.040895</ele>
        <time>2024-07-31T11:23:54.799Z</time>
      </trkpt>
      <trkpt lat="54.52057" lon="16.77012">
        <ele>67.172465</ele>
        <time>2024-07-31T11:23:57.805Z</time>
      </trkpt>
      <trkpt lat="54.52057" lon="16.77031">
        <ele>67.301369</ele>
        <time>2024-07-31T11:24:00.795Z</time>
      </trkpt>
      <trkpt lat="54.52055" lon="16.77049">
        <ele>67.333033</ele>
        <time>2024-07-31T11:24:03.787Z</time>
      </trkpt>
      <trkpt lat="54.52052" lon="16.77067">
        <ele>67.24985</ele>
        <time>2024-07-31T11:24:06.790Z</time>
      </trkpt>
      <trkpt lat="54.52048" lon="16.77089">
        <ele>67.15204</ele>
        <time>2024-07-31T11:24:09.799Z</time>
      </trkpt>
      <trkpt lat="54.52049" lon="16.7711">
        <ele>67.05752</ele>
        <time>2024-07-31T11:24:12.775Z</time>
      </trkpt>
      <trkpt lat="54.52049" lon="16.77133">
        <ele>66.959054</ele>
        <time>2024-07-31T11:24:15.794Z</time>
      </trkpt>
      <trkpt lat="54.52048" lon="16.77156">
        <ele>66.857854</ele>
        <time>2024-07-31T11:24:18.828Z</time>
      </trkpt>
      <trkpt lat="54.52048" lon="16.77172">
        <ele>66.790377</ele>
        <time>2024-07-31T11:24:20.799Z</time>
      </trkpt>
      <trkpt lat="54.52047" lon="16.77187">
        <ele>66.722145</ele>
        <time>2024-07-31T11:24:22.790Z</time>
      </trkpt>
      <trkpt lat="54.52047" lon="16.77203">
        <ele>66.652927</ele>
        <time>2024-07-31T11:24:24.803Z</time>
      </trkpt>
      <trkpt lat="54.52047" lon="16.77219">
        <ele>66.583721</ele>
        <time>2024-07-31T11:24:26.795Z</time>
      </trkpt>
      <trkpt lat="54.52048" lon="16.77235">
        <ele>66.51432</ele>
        <time>2024-07-31T11:24:28.805Z</time>
      </trkpt>
      <trkpt lat="54.52048" lon="16.77252">
        <ele>66.441539</ele>
        <time>2024-07-31T11:24:30.798Z</time>
      </trkpt>
      <trkpt lat="54.52048" lon="16.77268">
        <ele>66.370532</ele>
        <time>2024-07-31T11:24:32.789Z</time>
      </trkpt>
      <trkpt lat="54.52048" lon="16.77285">
        <ele>66.296104</ele>
        <time>2024-07-31T11:24:34.805Z</time>
      </trkpt>
      <trkpt lat="54.52047" lon="16.77302">
        <ele>66.223034</ele>
        <time>2024-07-31T11:24:36.783Z</time>
      </trkpt>
      <trkpt lat="54.52046" lon="16.77318">
        <ele>66.153199</ele>
        <time>2024-07-31T11:24:38.802Z</time>
      </trkpt>
      <trkpt lat="54.52041" lon="16.77337">
        <ele>66.060813</ele>
        <time>2024-07-31T11:24:41.789Z</time>
      </trkpt>
      <trkpt lat="54.52043" lon="16.77354">
        <ele>65.931175</ele>
        <time>2024-07-31T11:24:44.791Z</time>
      </trkpt>
      <trkpt lat="54.52048" lon="16.77371">
        <ele>65.695079</ele>
        <time>2024-07-31T11:24:48.774Z</time>
      </trkpt>
      <trkpt lat="54.52046" lon="16.77389">
        <ele>65.481251</ele>
        <time>2024-07-31T11:24:51.799Z</time>
      </trkpt>
      <trkpt lat="54.52041" lon="16.77403">
        <ele>65.279334</ele>
        <time>2024-07-31T11:24:55.807Z</time>
      </trkpt>
      <trkpt lat="54.52034" lon="16.77418">
        <ele>65.052912</ele>
        <time>2024-07-31T11:24:59.806Z</time>
      </trkpt>
      <trkpt lat="54.52041" lon="16.77435">
        <ele>64.815101</ele>
        <time>2024-07-31T11:25:03.798Z</time>
      </trkpt>
      <trkpt lat="54.52046" lon="16.77452">
        <ele>64.583687</ele>
        <time>2024-07-31T11:25:06.787Z</time>
      </trkpt>
      <trkpt lat="54.52051" lon="16.77469">
        <ele>64.35075</ele>
        <time>2024-07-31T11:25:09.789Z</time>
      </trkpt>
      <trkpt lat="54.52056" lon="16.77489">
        <ele>64.09589</ele>
        <time>2024-07-31T11:25:12.790Z</time>
      </trkpt>
      <trkpt lat="54.52061" lon="16.77509">
        <ele>63.832307</ele>
        <time>2024-07-31T11:25:15.805Z</time>
      </trkpt>
      <trkpt lat="54.52066" lon="16.77531">
        <ele>63.550675</ele>
        <time>2024-07-31T11:25:18.814Z</time>
      </trkpt>
      <trkpt lat="54.52069" lon="16.77548">
        <ele>63.336185</ele>
        <time>2024-07-31T11:25:20.809Z</time>
      </trkpt>
      <trkpt lat="54.52073" lon="16.77566">
        <ele>63.106568</ele>
        <time>2024-07-31T11:25:22.786Z</time>
      </trkpt>
      <trkpt lat="54.52076" lon="16.77585">
        <ele>62.866767</ele>
        <time>2024-07-31T11:25:24.808Z</time>
      </trkpt>
      <trkpt lat="54.5208" lon="16.77606">
        <ele>62.610504</ele>
        <time>2024-07-31T11:25:26.791Z</time>
      </trkpt>
      <trkpt lat="54.52084" lon="16.77626">
        <ele>62.350377</ele>
        <time>2024-07-31T11:25:28.804Z</time>
      </trkpt>
      <trkpt lat="54.52088" lon="16.77649">
        <ele>61.863388</ele>
        <time>2024-07-31T11:25:30.791Z</time>
      </trkpt>
      <trkpt lat="54.52092" lon="16.77671">
        <ele>61.338633</ele>
        <time>2024-07-31T11:25:32.791Z</time>
      </trkpt>
      <trkpt lat="54.52096" lon="16.77695">
        <ele>60.768594</ele>
        <time>2024-07-31T11:25:34.791Z</time>
      </trkpt>
      <trkpt lat="54.52101" lon="16.7772">
        <ele>60.185333</ele>
        <time>2024-07-31T11:25:36.788Z</time>
      </trkpt>
      <trkpt lat="54.52106" lon="16.77746">
        <ele>59.584005</ele>
        <time>2024-07-31T11:25:38.809Z</time>
      </trkpt>
      <trkpt lat="54.5211" lon="16.77773">
        <ele>58.946138</ele>
        <time>2024-07-31T11:25:40.811Z</time>
      </trkpt>
      <trkpt lat="54.52116" lon="16.778">
        <ele>58.294718</ele>
        <time>2024-07-31T11:25:42.789Z</time>
      </trkpt>
      <trkpt lat="54.52121" lon="16.7783">
        <ele>57.608364</ele>
        <time>2024-07-31T11:25:44.778Z</time>
      </trkpt>
      <trkpt lat="54.52123" lon="16.77845">
        <ele>57.253868</ele>
        <time>2024-07-31T11:25:45.790Z</time>
      </trkpt>
      <trkpt lat="54.52126" lon="16.7786">
        <ele>56.891837</ele>
        <time>2024-07-31T11:25:46.790Z</time>
      </trkpt>
      <trkpt lat="54.52128" lon="16.77876">
        <ele>56.529806</ele>
        <time>2024-07-31T11:25:47.788Z</time>
      </trkpt>
      <trkpt lat="54.52131" lon="16.77892">
        <ele>56.160111</ele>
        <time>2024-07-31T11:25:48.803Z</time>
      </trkpt>
      <trkpt lat="54.52134" lon="16.77908">
        <ele>55.78069</ele>
        <time>2024-07-31T11:25:49.800Z</time>
      </trkpt>
      <trkpt lat="54.52137" lon="16.77924">
        <ele>55.395808</ele>
        <time>2024-07-31T11:25:50.800Z</time>
      </trkpt>
      <trkpt lat="54.5214" lon="16.77941">
        <ele>55.015963</ele>
        <time>2024-07-31T11:25:51.793Z</time>
      </trkpt>
      <trkpt lat="54.52143" lon="16.77957">
        <ele>54.636893</ele>
        <time>2024-07-31T11:25:52.781Z</time>
      </trkpt>
      <trkpt lat="54.52146" lon="16.77974">
        <ele>54.25573</ele>
        <time>2024-07-31T11:25:53.789Z</time>
      </trkpt>
      <trkpt lat="54.52149" lon="16.77991">
        <ele>53.871474</ele>
        <time>2024-07-31T11:25:54.783Z</time>
      </trkpt>
      <trkpt lat="54.52152" lon="16.78007">
        <ele>53.484027</ele>
        <time>2024-07-31T11:25:55.808Z</time>
      </trkpt>
      <trkpt lat="54.52155" lon="16.78024">
        <ele>53.095459</ele>
        <time>2024-07-31T11:25:56.781Z</time>
      </trkpt>
      <trkpt lat="54.52158" lon="16.78041">
        <ele>52.712204</ele>
        <time>2024-07-31T11:25:57.792Z</time>
      </trkpt>
      <trkpt lat="54.52161" lon="16.78058">
        <ele>52.331043</ele>
        <time>2024-07-31T11:25:58.790Z</time>
      </trkpt>
      <trkpt lat="54.52164" lon="16.78074">
        <ele>51.948743</ele>
        <time>2024-07-31T11:25:59.803Z</time>
      </trkpt>
      <trkpt lat="54.52167" lon="16.78091">
        <ele>51.555993</ele>
        <time>2024-07-31T11:26:00.798Z</time>
      </trkpt>
      <trkpt lat="54.5217" lon="16.78109">
        <ele>51.162254</ele>
        <time>2024-07-31T11:26:01.800Z</time>
      </trkpt>
      <trkpt lat="54.52173" lon="16.78126">
        <ele>50.764187</ele>
        <time>2024-07-31T11:26:02.808Z</time>
      </trkpt>
      <trkpt lat="54.52177" lon="16.78143">
        <ele>50.369345</ele>
        <time>2024-07-31T11:26:03.791Z</time>
      </trkpt>
      <trkpt lat="54.5218" lon="16.78161">
        <ele>49.967098</ele>
        <time>2024-07-31T11:26:04.810Z</time>
      </trkpt>
      <trkpt lat="54.52183" lon="16.78178">
        <ele>49.564596</ele>
        <time>2024-07-31T11:26:05.790Z</time>
      </trkpt>
      <trkpt lat="54.52186" lon="16.78196">
        <ele>49.156073</ele>
        <time>2024-07-31T11:26:06.795Z</time>
      </trkpt>
      <trkpt lat="54.5219" lon="16.78213">
        <ele>48.749643</ele>
        <time>2024-07-31T11:26:07.789Z</time>
      </trkpt>
      <trkpt lat="54.52193" lon="16.78231">
        <ele>48.466119</ele>
        <time>2024-07-31T11:26:08.803Z</time>
      </trkpt>
      <trkpt lat="54.52196" lon="16.78249">
        <ele>48.285636</ele>
        <time>2024-07-31T11:26:09.790Z</time>
      </trkpt>
      <trkpt lat="54.52199" lon="16.78266">
        <ele>48.109336</ele>
        <time>2024-07-31T11:26:10.793Z</time>
      </trkpt>
      <trkpt lat="54.52202" lon="16.78284">
        <ele>47.926513</ele>
        <time>2024-07-31T11:26:11.795Z</time>
      </trkpt>
      <trkpt lat="54.52205" lon="16.78302">
        <ele>47.746417</ele>
        <time>2024-07-31T11:26:12.813Z</time>
      </trkpt>
      <trkpt lat="54.52208" lon="16.78319">
        <ele>47.571047</ele>
        <time>2024-07-31T11:26:13.797Z</time>
      </trkpt>
      <trkpt lat="54.52211" lon="16.78337">
        <ele>47.390565</ele>
        <time>2024-07-31T11:26:14.788Z</time>
      </trkpt>
      <trkpt lat="54.52215" lon="16.78354">
        <ele>47.216545</ele>
        <time>2024-07-31T11:26:15.797Z</time>
      </trkpt>
      <trkpt lat="54.52218" lon="16.78371">
        <ele>47.044376</ele>
        <time>2024-07-31T11:26:16.801Z</time>
      </trkpt>
      <trkpt lat="54.52221" lon="16.78388">
        <ele>46.871795</ele>
        <time>2024-07-31T11:26:17.790Z</time>
      </trkpt>
      <trkpt lat="54.52224" lon="16.78404">
        <ele>46.703432</ele>
        <time>2024-07-31T11:26:18.810Z</time>
      </trkpt>
      <trkpt lat="54.52227" lon="16.7842">
        <ele>46.538647</ele>
        <time>2024-07-31T11:26:19.789Z</time>
      </trkpt>
      <trkpt lat="54.5223" lon="16.78436">
        <ele>46.374059</ele>
        <time>2024-07-31T11:26:20.797Z</time>
      </trkpt>
      <trkpt lat="54.52233" lon="16.78452">
        <ele>46.211813</ele>
        <time>2024-07-31T11:26:21.787Z</time>
      </trkpt>
      <trkpt lat="54.52235" lon="16.78468">
        <ele>46.049528</ele>
        <time>2024-07-31T11:26:22.803Z</time>
      </trkpt>
      <trkpt lat="54.52238" lon="16.78484">
        <ele>45.891355</ele>
        <time>2024-07-31T11:26:23.792Z</time>
      </trkpt>
      <trkpt lat="54.52241" lon="16.78499">
        <ele>45.732258</ele>
        <time>2024-07-31T11:26:24.816Z</time>
      </trkpt>
      <trkpt lat="54.52244" lon="16.78514">
        <ele>45.579827</ele>
        <time>2024-07-31T11:26:25.788Z</time>
      </trkpt>
      <trkpt lat="54.52247" lon="16.78529">
        <ele>45.523916</ele>
        <time>2024-07-31T11:26:26.796Z</time>
      </trkpt>
      <trkpt lat="54.52252" lon="16.78558">
        <ele>45.468017</ele>
        <time>2024-07-31T11:26:28.809Z</time>
      </trkpt>
      <trkpt lat="54.52257" lon="16.78587">
        <ele>45.413003</ele>
        <time>2024-07-31T11:26:30.799Z</time>
      </trkpt>
      <trkpt lat="54.52261" lon="16.78615">
        <ele>45.359581</ele>
        <time>2024-07-31T11:26:32.795Z</time>
      </trkpt>
      <trkpt lat="54.52266" lon="16.78641">
        <ele>45.307486</ele>
        <time>2024-07-31T11:26:34.790Z</time>
      </trkpt>
      <trkpt lat="54.5227" lon="16.78668">
        <ele>45.256989</ele>
        <time>2024-07-31T11:26:36.816Z</time>
      </trkpt>
      <trkpt lat="54.52272" lon="16.78695">
        <ele>45.206748</ele>
        <time>2024-07-31T11:26:38.802Z</time>
      </trkpt>
      <trkpt lat="54.52274" lon="16.78724">
        <ele>45.153007</ele>
        <time>2024-07-31T11:26:40.788Z</time>
      </trkpt>
      <trkpt lat="54.52279" lon="16.7875">
        <ele>45.102336</ele>
        <time>2024-07-31T11:26:42.791Z</time>
      </trkpt>
      <trkpt lat="54.52284" lon="16.78775">
        <ele>45.052984</ele>
        <time>2024-07-31T11:26:44.805Z</time>
      </trkpt>
      <trkpt lat="54.52288" lon="16.78799">
        <ele>45.005958</ele>
        <time>2024-07-31T11:26:46.801Z</time>
      </trkpt>
      <trkpt lat="54.52293" lon="16.78823">
        <ele>44.985538</ele>
        <time>2024-07-31T11:26:48.794Z</time>
      </trkpt>
      <trkpt lat="54.52297" lon="16.78845">
        <ele>45.022276</ele>
        <time>2024-07-31T11:26:50.781Z</time>
      </trkpt>
      <trkpt lat="54.52302" lon="16.78867">
        <ele>45.058804</ele>
        <time>2024-07-31T11:26:52.792Z</time>
      </trkpt>
      <trkpt lat="54.52306" lon="16.78889">
        <ele>45.096138</ele>
        <time>2024-07-31T11:26:54.791Z</time>
      </trkpt>
      <trkpt lat="54.52311" lon="16.78912">
        <ele>45.133348</ele>
        <time>2024-07-31T11:26:56.785Z</time>
      </trkpt>
      <trkpt lat="54.52315" lon="16.78934">
        <ele>45.170499</ele>
        <time>2024-07-31T11:26:58.807Z</time>
      </trkpt>
      <trkpt lat="54.52319" lon="16.78958">
        <ele>45.209169</ele>
        <time>2024-07-31T11:27:00.788Z</time>
      </trkpt>
      <trkpt lat="54.52324" lon="16.78981">
        <ele>45.248397</ele>
        <time>2024-07-31T11:27:02.798Z</time>
      </trkpt>
      <trkpt lat="54.52329" lon="16.79005">
        <ele>45.288317</ele>
        <time>2024-07-31T11:27:04.789Z</time>
      </trkpt>
      <trkpt lat="54.52334" lon="16.79028">
        <ele>45.32648</ele>
        <time>2024-07-31T11:27:06.793Z</time>
      </trkpt>
      <trkpt lat="54.52338" lon="16.79051">
        <ele>45.363869</ele>
        <time>2024-07-31T11:27:08.812Z</time>
      </trkpt>
      <trkpt lat="54.52342" lon="16.79073">
        <ele>45.401338</ele>
        <time>2024-07-31T11:27:10.794Z</time>
      </trkpt>
      <trkpt lat="54.52346" lon="16.79096">
        <ele>45.437908</ele>
        <time>2024-07-31T11:27:12.789Z</time>
      </trkpt>
      <trkpt lat="54.5235" lon="16.79117">
        <ele>45.50023</ele>
        <time>2024-07-31T11:27:14.795Z</time>
      </trkpt>
      <trkpt lat="54.52354" lon="16.79138">
        <ele>45.613477</ele>
        <time>2024-07-31T11:27:16.798Z</time>
      </trkpt>
      <trkpt lat="54.52358" lon="16.79158">
        <ele>45.723227</ele>
        <time>2024-07-31T11:27:18.816Z</time>
      </trkpt>
      <trkpt lat="54.52362" lon="16.79178">
        <ele>45.830891</ele>
        <time>2024-07-31T11:27:20.789Z</time>
      </trkpt>
      <trkpt lat="54.52366" lon="16.79198">
        <ele>45.936273</ele>
        <time>2024-07-31T11:27:22.769Z</time>
      </trkpt>
      <trkpt lat="54.52369" lon="16.79217">
        <ele>46.037728</ele>
        <time>2024-07-31T11:27:24.785Z</time>
      </trkpt>
      <trkpt lat="54.52373" lon="16.79236">
        <ele>46.139395</ele>
        <time>2024-07-31T11:27:26.787Z</time>
      </trkpt>
      <trkpt lat="54.52376" lon="16.79255">
        <ele>46.238911</ele>
        <time>2024-07-31T11:27:28.819Z</time>
      </trkpt>
      <trkpt lat="54.5238" lon="16.79273">
        <ele>46.336771</ele>
        <time>2024-07-31T11:27:30.805Z</time>
      </trkpt>
      <trkpt lat="54.52383" lon="16.79291">
        <ele>46.432843</ele>
        <time>2024-07-31T11:27:32.785Z</time>
      </trkpt>
      <trkpt lat="54.52386" lon="16.7931">
        <ele>46.5324</ele>
        <time>2024-07-31T11:27:34.791Z</time>
      </trkpt>
      <trkpt lat="54.52388" lon="16.7933">
        <ele>46.633002</ele>
        <time>2024-07-31T11:27:36.785Z</time>
      </trkpt>
      <trkpt lat="54.52391" lon="16.79348">
        <ele>46.732277</ele>
        <time>2024-07-31T11:27:38.806Z</time>
      </trkpt>
      <trkpt lat="54.52394" lon="16.79366">
        <ele>46.826684</ele>
        <time>2024-07-31T11:27:40.807Z</time>
      </trkpt>
      <trkpt lat="54.52397" lon="16.79384">
        <ele>46.920065</ele>
        <time>2024-07-31T11:27:42.798Z</time>
      </trkpt>
      <trkpt lat="54.524" lon="16.794">
        <ele>47.006144</ele>
        <time>2024-07-31T11:27:44.795Z</time>
      </trkpt>
      <trkpt lat="54.52403" lon="16.79415">
        <ele>47.059251</ele>
        <time>2024-07-31T11:27:46.791Z</time>
      </trkpt>
      <trkpt lat="54.52405" lon="16.7943">
        <ele>47.093179</ele>
        <time>2024-07-31T11:27:48.786Z</time>
      </trkpt>
      <trkpt lat="54.52408" lon="16.79445">
        <ele>47.127948</ele>
        <time>2024-07-31T11:27:50.774Z</time>
      </trkpt>
      <trkpt lat="54.52411" lon="16.7946">
        <ele>47.162778</ele>
        <time>2024-07-31T11:27:52.791Z</time>
      </trkpt>
      <trkpt lat="54.52414" lon="16.79482">
        <ele>47.212568</ele>
        <time>2024-07-31T11:27:55.779Z</time>
      </trkpt>
      <trkpt lat="54.52418" lon="16.79503">
        <ele>47.26059</ele>
        <time>2024-07-31T11:27:58.807Z</time>
      </trkpt>
      <trkpt lat="54.52422" lon="16.79525">
        <ele>47.310381</ele>
        <time>2024-07-31T11:28:01.804Z</time>
      </trkpt>
      <trkpt lat="54.52426" lon="16.79547">
        <ele>47.360811</ele>
        <time>2024-07-31T11:28:04.796Z</time>
      </trkpt>
      <trkpt lat="54.5243" lon="16.79568">
        <ele>47.408834</ele>
        <time>2024-07-31T11:28:07.803Z</time>
      </trkpt>
      <trkpt lat="54.52434" lon="16.79589">
        <ele>47.457578</ele>
        <time>2024-07-31T11:28:10.805Z</time>
      </trkpt>
      <trkpt lat="54.52437" lon="16.79609">
        <ele>47.504121</ele>
        <time>2024-07-31T11:28:13.785Z</time>
      </trkpt>
      <trkpt lat="54.52441" lon="16.7963">
        <ele>47.550338</ele>
        <time>2024-07-31T11:28:16.787Z</time>
      </trkpt>
      <trkpt lat="54.52444" lon="16.7965">
        <ele>47.597398</ele>
        <time>2024-07-31T11:28:19.787Z</time>
      </trkpt>
      <trkpt lat="54.52448" lon="16.7967">
        <ele>47.643796</ele>
        <time>2024-07-31T11:28:22.808Z</time>
      </trkpt>
      <trkpt lat="54.52452" lon="16.79692">
        <ele>47.693375</ele>
        <time>2024-07-31T11:28:25.804Z</time>
      </trkpt>
      <trkpt lat="54.52456" lon="16.79713">
        <ele>47.657277</ele>
        <time>2024-07-31T11:28:28.812Z</time>
      </trkpt>
      <trkpt lat="54.52459" lon="16.79734">
        <ele>47.537847</ele>
        <time>2024-07-31T11:28:31.795Z</time>
      </trkpt>
      <trkpt lat="54.52464" lon="16.79756">
        <ele>47.416042</ele>
        <time>2024-07-31T11:28:34.792Z</time>
      </trkpt>
      <trkpt lat="54.52466" lon="16.79772">
        <ele>47.332393</ele>
        <time>2024-07-31T11:28:36.791Z</time>
      </trkpt>
      <trkpt lat="54.52469" lon="16.79788">
        <ele>47.244707</ele>
        <time>2024-07-31T11:28:38.809Z</time>
      </trkpt>
      <trkpt lat="54.52472" lon="16.79803">
        <ele>47.158188</ele>
        <time>2024-07-31T11:28:40.792Z</time>
      </trkpt>
      <trkpt lat="54.52475" lon="16.7982">
        <ele>47.06669</ele>
        <time>2024-07-31T11:28:42.796Z</time>
      </trkpt>
      <trkpt lat="54.52477" lon="16.79837">
        <ele>46.976837</ele>
        <time>2024-07-31T11:28:44.810Z</time>
      </trkpt>
      <trkpt lat="54.5248" lon="16.79854">
        <ele>46.881334</ele>
        <time>2024-07-31T11:28:46.785Z</time>
      </trkpt>
      <trkpt lat="54.52484" lon="16.79871">
        <ele>46.785498</ele>
        <time>2024-07-31T11:28:48.794Z</time>
      </trkpt>
      <trkpt lat="54.52487" lon="16.79889">
        <ele>46.68639</ele>
        <time>2024-07-31T11:28:50.814Z</time>
      </trkpt>
      <trkpt lat="54.52491" lon="16.79908">
        <ele>46.585102</ele>
        <time>2024-07-31T11:28:52.795Z</time>
      </trkpt>
      <trkpt lat="54.52494" lon="16.79927">
        <ele>46.482304</ele>
        <time>2024-07-31T11:28:54.796Z</time>
      </trkpt>
      <trkpt lat="54.52497" lon="16.79946">
        <ele>46.375471</ele>
        <time>2024-07-31T11:28:56.791Z</time>
      </trkpt>
      <trkpt lat="54.52501" lon="16.79965">
        <ele>46.269423</ele>
        <time>2024-07-31T11:28:58.803Z</time>
      </trkpt>
      <trkpt lat="54.52504" lon="16.79985">
        <ele>46.162326</ele>
        <time>2024-07-31T11:29:00.787Z</time>
      </trkpt>
      <trkpt lat="54.52508" lon="16.80005">
        <ele>46.084957</ele>
        <time>2024-07-31T11:29:02.802Z</time>
      </trkpt>
      <trkpt lat="54.52512" lon="16.80024">
        <ele>46.071003</ele>
        <time>2024-07-31T11:29:04.790Z</time>
      </trkpt>
      <trkpt lat="54.52515" lon="16.80043">
        <ele>46.058152</ele>
        <time>2024-07-31T11:29:06.786Z</time>
      </trkpt>
      <trkpt lat="54.52517" lon="16.8006">
        <ele>46.046304</ele>
        <time>2024-07-31T11:29:08.808Z</time>
      </trkpt>
      <trkpt lat="54.52522" lon="16.80077">
        <ele>46.033698</ele>
        <time>2024-07-31T11:29:11.797Z</time>
      </trkpt>
      <trkpt lat="54.52523" lon="16.80083">
        <ele>46.029001</ele>
        <time>2024-07-31T11:29:24.630Z</time>
      </trkpt>
      <trkpt lat="54.52526" lon="16.80108">
        <ele>46.011598</ele>
        <time>2024-07-31T11:30:24.793Z</time>
      </trkpt>
      <trkpt lat="54.52529" lon="16.80125">
        <ele>46.000202</ele>
        <time>2024-07-31T11:30:27.785Z</time>
      </trkpt>
      <trkpt lat="54.52533" lon="16.80143">
        <ele>45.987206</ele>
        <time>2024-07-31T11:30:30.781Z</time>
      </trkpt>
      <trkpt lat="54.52537" lon="16.80163">
        <ele>45.973023</ele>
        <time>2024-07-31T11:30:33.783Z</time>
      </trkpt>
      <trkpt lat="54.5254" lon="16.80182">
        <ele>45.959463</ele>
        <time>2024-07-31T11:30:36.792Z</time>
      </trkpt>
      <trkpt lat="54.52545" lon="16.80202">
        <ele>45.944944</ele>
        <time>2024-07-31T11:30:39.775Z</time>
      </trkpt>
      <trkpt lat="54.52548" lon="16.80224">
        <ele>45.930133</ele>
        <time>2024-07-31T11:30:42.783Z</time>
      </trkpt>
      <trkpt lat="54.52551" lon="16.80246">
        <ele>45.914599</ele>
        <time>2024-07-31T11:30:45.802Z</time>
      </trkpt>
      <trkpt lat="54.52554" lon="16.8026">
        <ele>45.904109</ele>
        <time>2024-07-31T11:30:47.793Z</time>
      </trkpt>
      <trkpt lat="54.52559" lon="16.80281">
        <ele>45.889139</ele>
        <time>2024-07-31T11:30:50.796Z</time>
      </trkpt>
      <trkpt lat="54.52563" lon="16.80302">
        <ele>45.773396</ele>
        <time>2024-07-31T11:30:53.796Z</time>
      </trkpt>
      <trkpt lat="54.52566" lon="16.80318">
        <ele>45.592026</ele>
        <time>2024-07-31T11:30:55.802Z</time>
      </trkpt>
      <trkpt lat="54.52568" lon="16.80333">
        <ele>45.413297</ele>
        <time>2024-07-31T11:30:57.795Z</time>
      </trkpt>
      <trkpt lat="54.52571" lon="16.80349">
        <ele>45.232437</ele>
        <time>2024-07-31T11:30:59.803Z</time>
      </trkpt>
      <trkpt lat="54.52574" lon="16.80366">
        <ele>45.042586</ele>
        <time>2024-07-31T11:31:01.791Z</time>
      </trkpt>
      <trkpt lat="54.52576" lon="16.80383">
        <ele>44.846768</ele>
        <time>2024-07-31T11:31:03.812Z</time>
      </trkpt>
      <trkpt lat="54.5258" lon="16.804">
        <ele>44.640865</ele>
        <time>2024-07-31T11:31:05.791Z</time>
      </trkpt>
      <trkpt lat="54.52583" lon="16.80418">
        <ele>44.434357</ele>
        <time>2024-07-31T11:31:07.798Z</time>
      </trkpt>
      <trkpt lat="54.52586" lon="16.80435">
        <ele>44.234955</ele>
        <time>2024-07-31T11:31:09.799Z</time>
      </trkpt>
      <trkpt lat="54.52589" lon="16.80453">
        <ele>44.033378</ele>
        <time>2024-07-31T11:31:11.791Z</time>
      </trkpt>
      <trkpt lat="54.52592" lon="16.8047">
        <ele>43.834478</ele>
        <time>2024-07-31T11:31:13.788Z</time>
      </trkpt>
      <trkpt lat="54.52596" lon="16.80489">
        <ele>43.618991</ele>
        <time>2024-07-31T11:31:15.776Z</time>
      </trkpt>
      <trkpt lat="54.52599" lon="16.80507">
        <ele>43.404744</ele>
        <time>2024-07-31T11:31:17.793Z</time>
      </trkpt>
      <trkpt lat="54.52603" lon="16.80526">
        <ele>43.184891</ele>
        <time>2024-07-31T11:31:19.795Z</time>
      </trkpt>
      <trkpt lat="54.52606" lon="16.80547">
        <ele>42.940839</ele>
        <time>2024-07-31T11:31:21.792Z</time>
      </trkpt>
      <trkpt lat="54.52611" lon="16.8057">
        <ele>42.677584</ele>
        <time>2024-07-31T11:31:23.769Z</time>
      </trkpt>
      <trkpt lat="54.52615" lon="16.80596">
        <ele>42.34087</ele>
        <time>2024-07-31T11:31:25.790Z</time>
      </trkpt>
      <trkpt lat="54.5262" lon="16.80623">
        <ele>41.839389</ele>
        <time>2024-07-31T11:31:27.792Z</time>
      </trkpt>
      <trkpt lat="54.52625" lon="16.80652">
        <ele>41.300406</ele>
        <time>2024-07-31T11:31:29.805Z</time>
      </trkpt>
      <trkpt lat="54.52628" lon="16.80667">
        <ele>41.021445</ele>
        <time>2024-07-31T11:31:30.792Z</time>
      </trkpt>
      <trkpt lat="54.52631" lon="16.80683">
        <ele>40.734926</ele>
        <time>2024-07-31T11:31:31.791Z</time>
      </trkpt>
      <trkpt lat="54.52634" lon="16.80699">
        <ele>40.444855</ele>
        <time>2024-07-31T11:31:32.781Z</time>
      </trkpt>
      <trkpt lat="54.52636" lon="16.80715">
        <ele>40.14822</ele>
        <time>2024-07-31T11:31:33.804Z</time>
      </trkpt>
      <trkpt lat="54.52639" lon="16.80731">
        <ele>39.858306</ele>
        <time>2024-07-31T11:31:34.791Z</time>
      </trkpt>
      <trkpt lat="54.52642" lon="16.80746">
        <ele>39.573423</ele>
        <time>2024-07-31T11:31:35.803Z</time>
      </trkpt>
      <trkpt lat="54.52645" lon="16.80762">
        <ele>39.287743</ele>
        <time>2024-07-31T11:31:36.781Z</time>
      </trkpt>
      <trkpt lat="54.52648" lon="16.80777">
        <ele>38.996932</ele>
        <time>2024-07-31T11:31:37.797Z</time>
      </trkpt>
      <trkpt lat="54.52651" lon="16.80792">
        <ele>38.719474</ele>
        <time>2024-07-31T11:31:38.807Z</time>
      </trkpt>
      <trkpt lat="54.52653" lon="16.80807">
        <ele>38.44643</ele>
        <time>2024-07-31T11:31:39.789Z</time>
      </trkpt>
      <trkpt lat="54.52658" lon="16.80837">
        <ele>37.907847</ele>
        <time>2024-07-31T11:31:41.793Z</time>
      </trkpt>
      <trkpt lat="54.52664" lon="16.80865">
        <ele>37.375776</ele>
        <time>2024-07-31T11:31:43.813Z</time>
      </trkpt>
      <trkpt lat="54.52669" lon="16.80894">
        <ele>36.988093</ele>
        <time>2024-07-31T11:31:45.799Z</time>
      </trkpt>
      <trkpt lat="54.52674" lon="16.80922">
        <ele>36.885659</ele>
        <time>2024-07-31T11:31:47.801Z</time>
      </trkpt>
      <trkpt lat="54.52678" lon="16.8095">
        <ele>36.786053</ele>
        <time>2024-07-31T11:31:49.809Z</time>
      </trkpt>
      <trkpt lat="54.52684" lon="16.80976">
        <ele>36.690835</ele>
        <time>2024-07-31T11:31:51.803Z</time>
      </trkpt>
      <trkpt lat="54.52688" lon="16.81002">
        <ele>36.595331</ele>
        <time>2024-07-31T11:31:53.770Z</time>
      </trkpt>
      <trkpt lat="54.52693" lon="16.81028">
        <ele>36.502777</ele>
        <time>2024-07-31T11:31:55.792Z</time>
      </trkpt>
      <trkpt lat="54.52699" lon="16.81052">
        <ele>36.412736</ele>
        <time>2024-07-31T11:31:57.806Z</time>
      </trkpt>
      <trkpt lat="54.52707" lon="16.81074">
        <ele>36.324817</ele>
        <time>2024-07-31T11:31:59.792Z</time>
      </trkpt>
      <trkpt lat="54.52714" lon="16.81096">
        <ele>36.236009</ele>
        <time>2024-07-31T11:32:01.795Z</time>
      </trkpt>
      <trkpt lat="54.52721" lon="16.81118">
        <ele>36.149582</ele>
        <time>2024-07-31T11:32:03.797Z</time>
      </trkpt>
      <trkpt lat="54.5273" lon="16.81138">
        <ele>36.064301</ele>
        <time>2024-07-31T11:32:05.800Z</time>
      </trkpt>
      <trkpt lat="54.52738" lon="16.81158">
        <ele>35.979637</ele>
        <time>2024-07-31T11:32:07.790Z</time>
      </trkpt>
      <trkpt lat="54.52746" lon="16.81176">
        <ele>36.060699</ele>
        <time>2024-07-31T11:32:09.797Z</time>
      </trkpt>
      <trkpt lat="54.52755" lon="16.81193">
        <ele>36.22621</ele>
        <time>2024-07-31T11:32:11.803Z</time>
      </trkpt>
      <trkpt lat="54.52764" lon="16.81208">
        <ele>36.386423</ele>
        <time>2024-07-31T11:32:13.795Z</time>
      </trkpt>
      <trkpt lat="54.52773" lon="16.81224">
        <ele>36.545967</ele>
        <time>2024-07-31T11:32:15.795Z</time>
      </trkpt>
      <trkpt lat="54.52782" lon="16.81237">
        <ele>36.700325</ele>
        <time>2024-07-31T11:32:17.796Z</time>
      </trkpt>
      <trkpt lat="54.52792" lon="16.81249">
        <ele>36.853042</ele>
        <time>2024-07-31T11:32:19.797Z</time>
      </trkpt>
      <trkpt lat="54.52801" lon="16.8126">
        <ele>37.001969</ele>
        <time>2024-07-31T11:32:21.790Z</time>
      </trkpt>
      <trkpt lat="54.52811" lon="16.81271">
        <ele>37.145877</ele>
        <time>2024-07-31T11:32:23.790Z</time>
      </trkpt>
      <trkpt lat="54.5282" lon="16.81282">
        <ele>37.288309</ele>
        <time>2024-07-31T11:32:25.798Z</time>
      </trkpt>
      <trkpt lat="54.52829" lon="16.81292">
        <ele>37.425101</ele>
        <time>2024-07-31T11:32:27.799Z</time>
      </trkpt>
      <trkpt lat="54.52838" lon="16.81302">
        <ele>37.558279</ele>
        <time>2024-07-31T11:32:29.810Z</time>
      </trkpt>
      <trkpt lat="54.52845" lon="16.81311">
        <ele>37.680289</ele>
        <time>2024-07-31T11:32:31.793Z</time>
      </trkpt>
      <trkpt lat="54.52853" lon="16.8132">
        <ele>37.801434</ele>
        <time>2024-07-31T11:32:33.799Z</time>
      </trkpt>
      <trkpt lat="54.52861" lon="16.81329">
        <ele>37.918177</ele>
        <time>2024-07-31T11:32:35.798Z</time>
      </trkpt>
      <trkpt lat="54.52868" lon="16.81338">
        <ele>38.034081</ele>
        <time>2024-07-31T11:32:37.798Z</time>
      </trkpt>
      <trkpt lat="54.52878" lon="16.81351">
        <ele>38.195864</ele>
        <time>2024-07-31T11:32:40.772Z</time>
      </trkpt>
      <trkpt lat="54.52889" lon="16.81363">
        <ele>38.419028</ele>
        <time>2024-07-31T11:32:43.794Z</time>
      </trkpt>
      <trkpt lat="54.52899" lon="16.81375">
        <ele>38.678994</ele>
        <time>2024-07-31T11:32:46.772Z</time>
      </trkpt>
      <trkpt lat="54.52909" lon="16.81387">
        <ele>38.933497</ele>
        <time>2024-07-31T11:32:49.804Z</time>
      </trkpt>
      <trkpt lat="54.52918" lon="16.81397">
        <ele>39.158976</ele>
        <time>2024-07-31T11:32:52.790Z</time>
      </trkpt>
      <trkpt lat="54.52927" lon="16.81408">
        <ele>39.380284</ele>
        <time>2024-07-31T11:32:55.788Z</time>
      </trkpt>
      <trkpt lat="54.52936" lon="16.81418">
        <ele>39.61188</ele>
        <time>2024-07-31T11:32:58.816Z</time>
      </trkpt>
      <trkpt lat="54.52945" lon="16.81428">
        <ele>39.838452</ele>
        <time>2024-07-31T11:33:01.787Z</time>
      </trkpt>
      <trkpt lat="54.52954" lon="16.81438">
        <ele>40.05238</ele>
        <time>2024-07-31T11:33:04.787Z</time>
      </trkpt>
      <trkpt lat="54.52962" lon="16.81448">
        <ele>40.264123</ele>
        <time>2024-07-31T11:33:07.818Z</time>
      </trkpt>
      <trkpt lat="54.52971" lon="16.81457">
        <ele>40.467358</ele>
        <time>2024-07-31T11:33:10.791Z</time>
      </trkpt>
      <trkpt lat="54.52979" lon="16.81466">
        <ele>40.671043</ele>
        <time>2024-07-31T11:33:13.794Z</time>
      </trkpt>
      <trkpt lat="54.52987" lon="16.81475">
        <ele>40.874278</ele>
        <time>2024-07-31T11:33:16.786Z</time>
      </trkpt>
      <trkpt lat="54.52996" lon="16.81485">
        <ele>41.083632</ele>
        <time>2024-07-31T11:33:19.787Z</time>
      </trkpt>
      <trkpt lat="54.53004" lon="16.81495">
        <ele>41.286115</ele>
        <time>2024-07-31T11:33:22.783Z</time>
      </trkpt>
      <trkpt lat="54.53011" lon="16.81503">
        <ele>41.479559</ele>
        <time>2024-07-31T11:33:25.810Z</time>
      </trkpt>
      <trkpt lat="54.53019" lon="16.81511">
        <ele>41.668845</ele>
        <time>2024-07-31T11:33:28.809Z</time>
      </trkpt>
      <trkpt lat="54.53027" lon="16.8152">
        <ele>41.861829</ele>
        <time>2024-07-31T11:33:31.775Z</time>
      </trkpt>
      <trkpt lat="54.53035" lon="16.81529">
        <ele>41.990941</ele>
        <time>2024-07-31T11:33:34.785Z</time>
      </trkpt>
      <trkpt lat="54.53043" lon="16.81539">
        <ele>42.008597</ele>
        <time>2024-07-31T11:33:37.807Z</time>
      </trkpt>
      <trkpt lat="54.53051" lon="16.81549">
        <ele>42.026933</ele>
        <time>2024-07-31T11:33:40.788Z</time>
      </trkpt>
      <trkpt lat="54.53059" lon="16.81558">
        <ele>42.043727</ele>
        <time>2024-07-31T11:33:43.775Z</time>
      </trkpt>
      <trkpt lat="54.53067" lon="16.81567">
        <ele>42.060854</ele>
        <time>2024-07-31T11:33:46.782Z</time>
      </trkpt>
      <trkpt lat="54.53077" lon="16.81578">
        <ele>42.081636</ele>
        <time>2024-07-31T11:33:50.782Z</time>
      </trkpt>
      <trkpt lat="54.53085" lon="16.81587">
        <ele>42.0982</ele>
        <time>2024-07-31T11:33:53.762Z</time>
      </trkpt>
      <trkpt lat="54.53093" lon="16.81596">
        <ele>42.115971</ele>
        <time>2024-07-31T11:33:56.788Z</time>
      </trkpt>
      <trkpt lat="54.53101" lon="16.81607">
        <ele>42.135359</ele>
        <time>2024-07-31T11:33:59.792Z</time>
      </trkpt>
      <trkpt lat="54.53111" lon="16.81618">
        <ele>42.155463</ele>
        <time>2024-07-31T11:34:02.777Z</time>
      </trkpt>
      <trkpt lat="54.5312" lon="16.81631">
        <ele>42.177286</ele>
        <time>2024-07-31T11:34:05.804Z</time>
      </trkpt>
      <trkpt lat="54.53131" lon="16.81643">
        <ele>42.199741</ele>
        <time>2024-07-31T11:34:08.802Z</time>
      </trkpt>
      <trkpt lat="54.53142" lon="16.81655">
        <ele>42.222627</ele>
        <time>2024-07-31T11:34:11.800Z</time>
      </trkpt>
      <trkpt lat="54.53152" lon="16.81667">
        <ele>42.245387</ele>
        <time>2024-07-31T11:34:14.789Z</time>
      </trkpt>
      <trkpt lat="54.53163" lon="16.81679">
        <ele>42.268412</ele>
        <time>2024-07-31T11:34:17.791Z</time>
      </trkpt>
      <trkpt lat="54.5317" lon="16.81688">
        <ele>42.284639</ele>
        <time>2024-07-31T11:34:19.789Z</time>
      </trkpt>
      <trkpt lat="54.53178" lon="16.81696">
        <ele>42.301335</ele>
        <time>2024-07-31T11:34:21.801Z</time>
      </trkpt>
      <trkpt lat="54.53186" lon="16.81706">
        <ele>42.333559</ele>
        <time>2024-07-31T11:34:23.790Z</time>
      </trkpt>
      <trkpt lat="54.53194" lon="16.81716">
        <ele>42.372889</ele>
        <time>2024-07-31T11:34:25.771Z</time>
      </trkpt>
      <trkpt lat="54.53202" lon="16.81726">
        <ele>42.41482</ele>
        <time>2024-07-31T11:34:27.788Z</time>
      </trkpt>
      <trkpt lat="54.53211" lon="16.81738">
        <ele>42.458841</ele>
        <time>2024-07-31T11:34:29.802Z</time>
      </trkpt>
      <trkpt lat="54.53221" lon="16.81752">
        <ele>42.509926</ele>
        <time>2024-07-31T11:34:31.804Z</time>
      </trkpt>
      <trkpt lat="54.53231" lon="16.81764">
        <ele>42.562989</ele>
        <time>2024-07-31T11:34:33.808Z</time>
      </trkpt>
      <trkpt lat="54.53244" lon="16.81774">
        <ele>42.617652</ele>
        <time>2024-07-31T11:34:35.773Z</time>
      </trkpt>
      <trkpt lat="54.53255" lon="16.81785">
        <ele>42.670916</ele>
        <time>2024-07-31T11:34:37.791Z</time>
      </trkpt>
      <trkpt lat="54.53266" lon="16.81797">
        <ele>42.724386</ele>
        <time>2024-07-31T11:34:39.798Z</time>
      </trkpt>
      <trkpt lat="54.53277" lon="16.81809">
        <ele>42.774626</ele>
        <time>2024-07-31T11:34:41.779Z</time>
      </trkpt>
      <trkpt lat="54.53287" lon="16.8182">
        <ele>42.823035</ele>
        <time>2024-07-31T11:34:43.783Z</time>
      </trkpt>
      <trkpt lat="54.53297" lon="16.8183">
        <ele>42.869729</ele>
        <time>2024-07-31T11:34:45.781Z</time>
      </trkpt>
      <trkpt lat="54.53306" lon="16.8184">
        <ele>42.91308</ele>
        <time>2024-07-31T11:34:47.780Z</time>
      </trkpt>
      <trkpt lat="54.53314" lon="16.81849">
        <ele>42.953812</ele>
        <time>2024-07-31T11:34:49.778Z</time>
      </trkpt>
      <trkpt lat="54.53323" lon="16.81857">
        <ele>42.991897</ele>
        <time>2024-07-31T11:34:51.789Z</time>
      </trkpt>
      <trkpt lat="54.5333" lon="16.81865">
        <ele>43.028963</ele>
        <time>2024-07-31T11:34:53.794Z</time>
      </trkpt>
      <trkpt lat="54.53341" lon="16.81879">
        <ele>42.997439</ele>
        <time>2024-07-31T11:34:56.767Z</time>
      </trkpt>
      <trkpt lat="54.53351" lon="16.81892">
        <ele>42.955728</ele>
        <time>2024-07-31T11:34:59.801Z</time>
      </trkpt>
      <trkpt lat="54.5336" lon="16.81903">
        <ele>42.919268</ele>
        <time>2024-07-31T11:35:02.790Z</time>
      </trkpt>
      <trkpt lat="54.5337" lon="16.81912">
        <ele>42.882955</ele>
        <time>2024-07-31T11:35:05.777Z</time>
      </trkpt>
      <trkpt lat="54.53379" lon="16.8192">
        <ele>42.848242</ele>
        <time>2024-07-31T11:35:08.807Z</time>
      </trkpt>
      <trkpt lat="54.53389" lon="16.8193">
        <ele>42.812512</ele>
        <time>2024-07-31T11:35:11.780Z</time>
      </trkpt>
      <trkpt lat="54.53397" lon="16.81939">
        <ele>42.780035</ele>
        <time>2024-07-31T11:35:14.805Z</time>
      </trkpt>
      <trkpt lat="54.53405" lon="16.81948">
        <ele>42.749303</ele>
        <time>2024-07-31T11:35:17.782Z</time>
      </trkpt>
      <trkpt lat="54.53413" lon="16.81958">
        <ele>42.716403</ele>
        <time>2024-07-31T11:35:20.777Z</time>
      </trkpt>
      <trkpt lat="54.53421" lon="16.81967">
        <ele>42.686141</ele>
        <time>2024-07-31T11:35:23.788Z</time>
      </trkpt>
      <trkpt lat="54.53431" lon="16.81978">
        <ele>42.647651</ele>
        <time>2024-07-31T11:35:27.794Z</time>
      </trkpt>
      <trkpt lat="54.53439" lon="16.81988">
        <ele>42.613983</ele>
        <time>2024-07-31T11:35:30.797Z</time>
      </trkpt>
      <trkpt lat="54.53448" lon="16.81999">
        <ele>42.577368</ele>
        <time>2024-07-31T11:35:33.807Z</time>
      </trkpt>
      <trkpt lat="54.53458" lon="16.82011">
        <ele>42.538114</ele>
        <time>2024-07-31T11:35:36.779Z</time>
      </trkpt>
      <trkpt lat="54.53468" lon="16.82023">
        <ele>42.497999</ele>
        <time>2024-07-31T11:35:39.795Z</time>
      </trkpt>
      <trkpt lat="54.53479" lon="16.82034">
        <ele>42.45831</ele>
        <time>2024-07-31T11:35:42.796Z</time>
      </trkpt>
      <trkpt lat="54.53488" lon="16.82046">
        <ele>42.425673</ele>
        <time>2024-07-31T11:35:45.797Z</time>
      </trkpt>
      <trkpt lat="54.53499" lon="16.82056">
        <ele>42.395056</ele>
        <time>2024-07-31T11:35:48.786Z</time>
      </trkpt>
      <trkpt lat="54.5351" lon="16.82067">
        <ele>42.365105</ele>
        <time>2024-07-31T11:35:51.790Z</time>
      </trkpt>
      <trkpt lat="54.53521" lon="16.82076">
        <ele>42.334775</ele>
        <time>2024-07-31T11:35:54.795Z</time>
      </trkpt>
      <trkpt lat="54.53531" lon="16.82085">
        <ele>42.305125</ele>
        <time>2024-07-31T11:35:57.809Z</time>
      </trkpt>
      <trkpt lat="54.53542" lon="16.82094">
        <ele>42.276271</ele>
        <time>2024-07-31T11:36:00.798Z</time>
      </trkpt>
      <trkpt lat="54.53551" lon="16.82101">
        <ele>42.250304</ele>
        <time>2024-07-31T11:36:03.794Z</time>
      </trkpt>
      <trkpt lat="54.53561" lon="16.82107">
        <ele>42.225493</ele>
        <time>2024-07-31T11:36:06.781Z</time>
      </trkpt>
      <trkpt lat="54.53571" lon="16.82113">
        <ele>42.199601</ele>
        <time>2024-07-31T11:36:09.805Z</time>
      </trkpt>
      <trkpt lat="54.5358" lon="16.82119">
        <ele>42.173618</ele>
        <time>2024-07-31T11:36:12.797Z</time>
      </trkpt>
      <trkpt lat="54.53591" lon="16.82124">
        <ele>42.146736</ele>
        <time>2024-07-31T11:36:15.787Z</time>
      </trkpt>
      <trkpt lat="54.53602" lon="16.82129">
        <ele>42.117091</ele>
        <time>2024-07-31T11:36:18.813Z</time>
      </trkpt>
      <trkpt lat="54.53614" lon="16.82134">
        <ele>42.087102</ele>
        <time>2024-07-31T11:36:21.793Z</time>
      </trkpt>
      <trkpt lat="54.53626" lon="16.82137">
        <ele>42.056078</ele>
        <time>2024-07-31T11:36:24.789Z</time>
      </trkpt>
      <trkpt lat="54.53639" lon="16.82141">
        <ele>42.023533</ele>
        <time>2024-07-31T11:36:27.797Z</time>
      </trkpt>
      <trkpt lat="54.53651" lon="16.82144">
        <ele>42.01481</ele>
        <time>2024-07-31T11:36:30.790Z</time>
      </trkpt>
      <trkpt lat="54.53662" lon="16.82146">
        <ele>42.078515</ele>
        <time>2024-07-31T11:36:33.806Z</time>
      </trkpt>
      <trkpt lat="54.53673" lon="16.82147">
        <ele>42.141127</ele>
        <time>2024-07-31T11:36:36.795Z</time>
      </trkpt>
      <trkpt lat="54.53684" lon="16.82147">
        <ele>42.205456</ele>
        <time>2024-07-31T11:36:39.792Z</time>
      </trkpt>
      <trkpt lat="54.53695" lon="16.82149">
        <ele>42.26765</ele>
        <time>2024-07-31T11:36:42.804Z</time>
      </trkpt>
      <trkpt lat="54.53705" lon="16.82151">
        <ele>42.327864</ele>
        <time>2024-07-31T11:36:45.793Z</time>
      </trkpt>
      <trkpt lat="54.53714" lon="16.82157">
        <ele>42.381007</ele>
        <time>2024-07-31T11:36:48.786Z</time>
      </trkpt>
      <trkpt lat="54.53716" lon="16.82172">
        <ele>42.433948</ele>
        <time>2024-07-31T11:36:51.785Z</time>
      </trkpt>
      <trkpt lat="54.53713" lon="16.8219">
        <ele>42.496584</ele>
        <time>2024-07-31T11:36:54.784Z</time>
      </trkpt>
      <trkpt lat="54.53711" lon="16.82209">
        <ele>42.562779</ele>
        <time>2024-07-31T11:36:57.764Z</time>
      </trkpt>
      <trkpt lat="54.5371" lon="16.82229">
        <ele>42.628229</ele>
        <time>2024-07-31T11:37:00.795Z</time>
      </trkpt>
      <trkpt lat="54.53708" lon="16.82248">
        <ele>42.694892</ele>
        <time>2024-07-31T11:37:03.803Z</time>
      </trkpt>
      <trkpt lat="54.53705" lon="16.82268">
        <ele>42.764973</ele>
        <time>2024-07-31T11:37:06.790Z</time>
      </trkpt>
      <trkpt lat="54.53703" lon="16.82289">
        <ele>42.836144</ele>
        <time>2024-07-31T11:37:09.797Z</time>
      </trkpt>
      <trkpt lat="54.537" lon="16.8231">
        <ele>42.908441</ele>
        <time>2024-07-31T11:37:12.785Z</time>
      </trkpt>
      <trkpt lat="54.53697" lon="16.82332">
        <ele>42.982253</ele>
        <time>2024-07-31T11:37:15.783Z</time>
      </trkpt>
      <trkpt lat="54.53694" lon="16.82353">
        <ele>43.06665</ele>
        <time>2024-07-31T11:37:18.801Z</time>
      </trkpt>
      <trkpt lat="54.53689" lon="16.82373">
        <ele>43.186199</ele>
        <time>2024-07-31T11:37:21.788Z</time>
      </trkpt>
      <trkpt lat="54.53685" lon="16.82394">
        <ele>43.30742</ele>
        <time>2024-07-31T11:37:24.786Z</time>
      </trkpt>
      <trkpt lat="54.53681" lon="16.82414">
        <ele>43.42519</ele>
        <time>2024-07-31T11:37:27.781Z</time>
      </trkpt>
      <trkpt lat="54.53677" lon="16.82434">
        <ele>43.542012</ele>
        <time>2024-07-31T11:37:30.802Z</time>
      </trkpt>
      <trkpt lat="54.53673" lon="16.82454">
        <ele>43.656114</ele>
        <time>2024-07-31T11:37:33.809Z</time>
      </trkpt>
      <trkpt lat="54.53669" lon="16.82474">
        <ele>43.776675</ele>
        <time>2024-07-31T11:37:36.811Z</time>
      </trkpt>
      <trkpt lat="54.53665" lon="16.82494">
        <ele>43.893921</ele>
        <time>2024-07-31T11:37:39.811Z</time>
      </trkpt>
      <trkpt lat="54.53661" lon="16.82514">
        <ele>44.012135</ele>
        <time>2024-07-31T11:37:42.789Z</time>
      </trkpt>
      <trkpt lat="54.53657" lon="16.82536">
        <ele>44.138027</ele>
        <time>2024-07-31T11:37:45.791Z</time>
      </trkpt>
      <trkpt lat="54.53653" lon="16.82556">
        <ele>44.256626</ele>
        <time>2024-07-31T11:37:48.803Z</time>
      </trkpt>
      <trkpt lat="54.53648" lon="16.82576">
        <ele>44.375853</ele>
        <time>2024-07-31T11:37:51.798Z</time>
      </trkpt>
      <trkpt lat="54.53644" lon="16.82596">
        <ele>44.493405</ele>
        <time>2024-07-31T11:37:54.786Z</time>
      </trkpt>
      <trkpt lat="54.5364" lon="16.82616">
        <ele>44.608291</ele>
        <time>2024-07-31T11:37:57.791Z</time>
      </trkpt>
      <trkpt lat="54.53636" lon="16.82637">
        <ele>44.731389</ele>
        <time>2024-07-31T11:38:00.787Z</time>
      </trkpt>
      <trkpt lat="54.53632" lon="16.82659">
        <ele>44.754592</ele>
        <time>2024-07-31T11:38:03.792Z</time>
      </trkpt>
      <trkpt lat="54.53628" lon="16.8268">
        <ele>44.751599</ele>
        <time>2024-07-31T11:38:06.788Z</time>
      </trkpt>
      <trkpt lat="54.53623" lon="16.82702">
        <ele>44.748556</ele>
        <time>2024-07-31T11:38:09.802Z</time>
      </trkpt>
      <trkpt lat="54.53618" lon="16.82723">
        <ele>44.745473</ele>
        <time>2024-07-31T11:38:12.807Z</time>
      </trkpt>
      <trkpt lat="54.53614" lon="16.82745">
        <ele>44.742491</ele>
        <time>2024-07-31T11:38:15.785Z</time>
      </trkpt>
      <trkpt lat="54.5361" lon="16.82767">
        <ele>44.739417</ele>
        <time>2024-07-31T11:38:18.782Z</time>
      </trkpt>
      <trkpt lat="54.53607" lon="16.82782">
        <ele>44.737364</ele>
        <time>2024-07-31T11:38:20.795Z</time>
      </trkpt>
      <trkpt lat="54.53604" lon="16.82797">
        <ele>44.735233</ele>
        <time>2024-07-31T11:38:22.799Z</time>
      </trkpt>
      <trkpt lat="54.53601" lon="16.82812">
        <ele>44.73305</ele>
        <time>2024-07-31T11:38:24.787Z</time>
      </trkpt>
      <trkpt lat="54.53597" lon="16.82828">
        <ele>44.730882</ele>
        <time>2024-07-31T11:38:26.795Z</time>
      </trkpt>
      <trkpt lat="54.53594" lon="16.82844">
        <ele>44.728618</ele>
        <time>2024-07-31T11:38:28.802Z</time>
      </trkpt>
      <trkpt lat="54.53591" lon="16.8286">
        <ele>44.726398</ele>
        <time>2024-07-31T11:38:30.793Z</time>
      </trkpt>
      <trkpt lat="54.53588" lon="16.82876">
        <ele>44.724149</ele>
        <time>2024-07-31T11:38:32.783Z</time>
      </trkpt>
      <trkpt lat="54.53585" lon="16.82893">
        <ele>44.72185</ele>
        <time>2024-07-31T11:38:34.788Z</time>
      </trkpt>
      <trkpt lat="54.53581" lon="16.82909">
        <ele>44.719564</ele>
        <time>2024-07-31T11:38:36.777Z</time>
      </trkpt>
      <trkpt lat="54.53578" lon="16.82925">
        <ele>44.717321</ele>
        <time>2024-07-31T11:38:38.805Z</time>
      </trkpt>
      <trkpt lat="54.53575" lon="16.82941">
        <ele>44.733282</ele>
        <time>2024-07-31T11:38:40.802Z</time>
      </trkpt>
      <trkpt lat="54.53572" lon="16.82958">
        <ele>44.779375</ele>
        <time>2024-07-31T11:38:42.790Z</time>
      </trkpt>
      <trkpt lat="54.53569" lon="16.82975">
        <ele>44.824379</ele>
        <time>2024-07-31T11:38:44.786Z</time>
      </trkpt>
      <trkpt lat="54.53565" lon="16.82992">
        <ele>44.869133</ele>
        <time>2024-07-31T11:38:46.790Z</time>
      </trkpt>
      <trkpt lat="54.53562" lon="16.83008">
        <ele>44.912088</ele>
        <time>2024-07-31T11:38:48.787Z</time>
      </trkpt>
      <trkpt lat="54.53558" lon="16.83024">
        <ele>44.954745</ele>
        <time>2024-07-31T11:38:50.790Z</time>
      </trkpt>
      <trkpt lat="54.53555" lon="16.8304">
        <ele>44.99692</ele>
        <time>2024-07-31T11:38:52.784Z</time>
      </trkpt>
      <trkpt lat="54.53552" lon="16.83056">
        <ele>45.039434</ele>
        <time>2024-07-31T11:38:54.788Z</time>
      </trkpt>
      <trkpt lat="54.53549" lon="16.83072">
        <ele>45.081809</ele>
        <time>2024-07-31T11:38:56.793Z</time>
      </trkpt>
      <trkpt lat="54.53545" lon="16.83087">
        <ele>45.123436</ele>
        <time>2024-07-31T11:38:58.795Z</time>
      </trkpt>
      <trkpt lat="54.53542" lon="16.83102">
        <ele>45.162728</ele>
        <time>2024-07-31T11:39:00.787Z</time>
      </trkpt>
      <trkpt lat="54.53539" lon="16.83117">
        <ele>45.202728</ele>
        <time>2024-07-31T11:39:02.778Z</time>
      </trkpt>
      <trkpt lat="54.53536" lon="16.83132">
        <ele>45.242421</ele>
        <time>2024-07-31T11:39:04.788Z</time>
      </trkpt>
      <trkpt lat="54.53533" lon="16.83147">
        <ele>45.28323</ele>
        <time>2024-07-31T11:39:06.788Z</time>
      </trkpt>
      <trkpt lat="54.5353" lon="16.83162">
        <ele>45.322521</ele>
        <time>2024-07-31T11:39:08.799Z</time>
      </trkpt>
      <trkpt lat="54.53526" lon="16.83184">
        <ele>45.380979</ele>
        <time>2024-07-31T11:39:11.794Z</time>
      </trkpt>
      <trkpt lat="54.53523" lon="16.83199">
        <ele>45.421311</ele>
        <time>2024-07-31T11:39:13.799Z</time>
      </trkpt>
      <trkpt lat="54.5352" lon="16.83215">
        <ele>45.462085</ele>
        <time>2024-07-31T11:39:15.806Z</time>
      </trkpt>
      <trkpt lat="54.53517" lon="16.83231">
        <ele>45.50078</ele>
        <time>2024-07-31T11:39:17.799Z</time>
      </trkpt>
      <trkpt lat="54.53513" lon="16.83247">
        <ele>45.52715</ele>
        <time>2024-07-31T11:39:19.788Z</time>
      </trkpt>
      <trkpt lat="54.5351" lon="16.83262">
        <ele>45.551767</ele>
        <time>2024-07-31T11:39:21.772Z</time>
      </trkpt>
      <trkpt lat="54.53507" lon="16.83277">
        <ele>45.576248</ele>
        <time>2024-07-31T11:39:23.788Z</time>
      </trkpt>
      <trkpt lat="54.53504" lon="16.83293">
        <ele>45.601893</ele>
        <time>2024-07-31T11:39:25.807Z</time>
      </trkpt>
      <trkpt lat="54.53501" lon="16.8331">
        <ele>45.628053</ele>
        <time>2024-07-31T11:39:27.811Z</time>
      </trkpt>
      <trkpt lat="54.53498" lon="16.83325">
        <ele>45.65347</ele>
        <time>2024-07-31T11:39:29.783Z</time>
      </trkpt>
      <trkpt lat="54.53494" lon="16.83342">
        <ele>45.679843</ele>
        <time>2024-07-31T11:39:31.781Z</time>
      </trkpt>
      <trkpt lat="54.53491" lon="16.83358">
        <ele>45.705571</ele>
        <time>2024-07-31T11:39:33.783Z</time>
      </trkpt>
      <trkpt lat="54.53488" lon="16.83375">
        <ele>45.732824</ele>
        <time>2024-07-31T11:39:35.802Z</time>
      </trkpt>
      <trkpt lat="54.53484" lon="16.83391">
        <ele>45.759628</ele>
        <time>2024-07-31T11:39:37.774Z</time>
      </trkpt>
      <trkpt lat="54.53481" lon="16.83407">
        <ele>45.784984</ele>
        <time>2024-07-31T11:39:39.791Z</time>
      </trkpt>
      <trkpt lat="54.53477" lon="16.83423">
        <ele>45.810745</ele>
        <time>2024-07-31T11:39:41.797Z</time>
      </trkpt>
      <trkpt lat="54.53474" lon="16.83438">
        <ele>45.836101</ele>
        <time>2024-07-31T11:39:43.782Z</time>
      </trkpt>
      <trkpt lat="54.53471" lon="16.83455">
        <ele>45.862524</ele>
        <time>2024-07-31T11:39:45.797Z</time>
      </trkpt>
      <trkpt lat="54.53468" lon="16.83471">
        <ele>45.888376</ele>
        <time>2024-07-31T11:39:47.791Z</time>
      </trkpt>
      <trkpt lat="54.53465" lon="16.83487">
        <ele>45.914083</ele>
        <time>2024-07-31T11:39:49.800Z</time>
      </trkpt>
      <trkpt lat="54.53461" lon="16.83503">
        <ele>45.939184</ele>
        <time>2024-07-31T11:39:51.790Z</time>
      </trkpt>
      <trkpt lat="54.53458" lon="16.83517">
        <ele>45.963105</ele>
        <time>2024-07-31T11:39:53.800Z</time>
      </trkpt>
      <trkpt lat="54.53455" lon="16.83533">
        <ele>45.913019</ele>
        <time>2024-07-31T11:39:55.790Z</time>
      </trkpt>
      <trkpt lat="54.53452" lon="16.83548">
        <ele>45.85405</ele>
        <time>2024-07-31T11:39:57.788Z</time>
      </trkpt>
      <trkpt lat="54.53449" lon="16.83564">
        <ele>45.795619</ele>
        <time>2024-07-31T11:39:59.795Z</time>
      </trkpt>
      <trkpt lat="54.53446" lon="16.83579">
        <ele>45.736585</ele>
        <time>2024-07-31T11:40:01.791Z</time>
      </trkpt>
      <trkpt lat="54.53443" lon="16.83595">
        <ele>45.678153</ele>
        <time>2024-07-31T11:40:03.796Z</time>
      </trkpt>
      <trkpt lat="54.53439" lon="16.8361">
        <ele>45.620258</ele>
        <time>2024-07-31T11:40:05.803Z</time>
      </trkpt>
      <trkpt lat="54.53436" lon="16.83625">
        <ele>45.562513</ele>
        <time>2024-07-31T11:40:07.798Z</time>
      </trkpt>
      <trkpt lat="54.53433" lon="16.8364">
        <ele>45.505387</ele>
        <time>2024-07-31T11:40:09.796Z</time>
      </trkpt>
      <trkpt lat="54.5343" lon="16.83655">
        <ele>45.447581</ele>
        <time>2024-07-31T11:40:11.802Z</time>
      </trkpt>
      <trkpt lat="54.53427" lon="16.8367">
        <ele>45.390662</ele>
        <time>2024-07-31T11:40:13.776Z</time>
      </trkpt>
      <trkpt lat="54.53423" lon="16.83692">
        <ele>45.306606</ele>
        <time>2024-07-31T11:40:16.784Z</time>
      </trkpt>
      <trkpt lat="54.53419" lon="16.83707">
        <ele>45.246003</ele>
        <time>2024-07-31T11:40:18.800Z</time>
      </trkpt>
      <trkpt lat="54.53416" lon="16.83724">
        <ele>45.18383</ele>
        <time>2024-07-31T11:40:20.779Z</time>
      </trkpt>
      <trkpt lat="54.53413" lon="16.8374">
        <ele>45.123147</ele>
        <time>2024-07-31T11:40:22.790Z</time>
      </trkpt>
      <trkpt lat="54.53409" lon="16.83756">
        <ele>45.057958</ele>
        <time>2024-07-31T11:40:24.792Z</time>
      </trkpt>
      <trkpt lat="54.53405" lon="16.83775">
        <ele>44.983894</ele>
        <time>2024-07-31T11:40:26.793Z</time>
      </trkpt>
      <trkpt lat="54.534" lon="16.83796">
        <ele>44.904234</ele>
        <time>2024-07-31T11:40:28.787Z</time>
      </trkpt>
      <trkpt lat="54.53395" lon="16.83818">
        <ele>44.845808</ele>
        <time>2024-07-31T11:40:30.783Z</time>
      </trkpt>
      <trkpt lat="54.5339" lon="16.83843">
        <ele>44.841053</ele>
        <time>2024-07-31T11:40:32.777Z</time>
      </trkpt>
      <trkpt lat="54.53384" lon="16.83867">
        <ele>44.836188</ele>
        <time>2024-07-31T11:40:34.787Z</time>
      </trkpt>
      <trkpt lat="54.53378" lon="16.83893">
        <ele>44.831077</ele>
        <time>2024-07-31T11:40:36.797Z</time>
      </trkpt>
      <trkpt lat="54.53373" lon="16.83919">
        <ele>44.825838</ele>
        <time>2024-07-31T11:40:38.810Z</time>
      </trkpt>
      <trkpt lat="54.53368" lon="16.83946">
        <ele>44.820729</ele>
        <time>2024-07-31T11:40:40.769Z</time>
      </trkpt>
      <trkpt lat="54.5336" lon="16.83971">
        <ele>44.815535</ele>
        <time>2024-07-31T11:40:42.798Z</time>
      </trkpt>
      <trkpt lat="54.53352" lon="16.83992">
        <ele>44.810755</ele>
        <time>2024-07-31T11:40:44.799Z</time>
      </trkpt>
      <trkpt lat="54.53344" lon="16.84012">
        <ele>44.806388</ele>
        <time>2024-07-31T11:40:46.793Z</time>
      </trkpt>
      <trkpt lat="54.53337" lon="16.84029">
        <ele>44.802462</ele>
        <time>2024-07-31T11:40:48.798Z</time>
      </trkpt>
      <trkpt lat="54.5333" lon="16.84045">
        <ele>44.798877</ele>
        <time>2024-07-31T11:40:50.811Z</time>
      </trkpt>
      <trkpt lat="54.53325" lon="16.84059">
        <ele>44.795716</ele>
        <time>2024-07-31T11:40:52.794Z</time>
      </trkpt>
      <trkpt lat="54.53321" lon="16.84073">
        <ele>44.792796</ele>
        <time>2024-07-31T11:40:54.811Z</time>
      </trkpt>
      <trkpt lat="54.53317" lon="16.84094">
        <ele>44.819945</ele>
        <time>2024-07-31T11:40:57.797Z</time>
      </trkpt>
      <trkpt lat="54.53315" lon="16.84116">
        <ele>44.909385</ele>
        <time>2024-07-31T11:41:00.797Z</time>
      </trkpt>
      <trkpt lat="54.53314" lon="16.84137">
        <ele>44.996099</ele>
        <time>2024-07-31T11:41:03.785Z</time>
      </trkpt>
      <trkpt lat="54.53313" lon="16.84159">
        <ele>45.083036</ele>
        <time>2024-07-31T11:41:06.791Z</time>
      </trkpt>
      <trkpt lat="54.53312" lon="16.84181">
        <ele>45.171232</ele>
        <time>2024-07-31T11:41:09.808Z</time>
      </trkpt>
      <trkpt lat="54.53311" lon="16.84203">
        <ele>45.260987</ele>
        <time>2024-07-31T11:41:12.786Z</time>
      </trkpt>
      <trkpt lat="54.53311" lon="16.84225">
        <ele>45.349587</ele>
        <time>2024-07-31T11:41:15.788Z</time>
      </trkpt>
      <trkpt lat="54.53309" lon="16.84246">
        <ele>45.436528</ele>
        <time>2024-07-31T11:41:18.807Z</time>
      </trkpt>
      <trkpt lat="54.53308" lon="16.84268">
        <ele>45.527323</ele>
        <time>2024-07-31T11:41:21.808Z</time>
      </trkpt>
      <trkpt lat="54.53308" lon="16.84291">
        <ele>45.618401</ele>
        <time>2024-07-31T11:41:24.801Z</time>
      </trkpt>
      <trkpt lat="54.53307" lon="16.84313">
        <ele>45.708441</ele>
        <time>2024-07-31T11:41:27.791Z</time>
      </trkpt>
      <trkpt lat="54.53305" lon="16.84335">
        <ele>45.798666</ele>
        <time>2024-07-31T11:41:30.767Z</time>
      </trkpt>
      <trkpt lat="54.53305" lon="16.84358">
        <ele>45.890587</ele>
        <time>2024-07-31T11:41:33.789Z</time>
      </trkpt>
      <trkpt lat="54.53304" lon="16.8438">
        <ele>45.97861</ele>
        <time>2024-07-31T11:41:36.796Z</time>
      </trkpt>
      <trkpt lat="54.53302" lon="16.84401">
        <ele>46.062753</ele>
        <time>2024-07-31T11:41:39.780Z</time>
      </trkpt>
      <trkpt lat="54.53301" lon="16.84423">
        <ele>46.14109</ele>
        <time>2024-07-31T11:41:42.807Z</time>
      </trkpt>
      <trkpt lat="54.533" lon="16.84445">
        <ele>46.220173</ele>
        <time>2024-07-31T11:41:45.789Z</time>
      </trkpt>
      <trkpt lat="54.533" lon="16.84466">
        <ele>46.29212</ele>
        <time>2024-07-31T11:41:48.805Z</time>
      </trkpt>
      <trkpt lat="54.53299" lon="16.84486">
        <ele>46.364937</ele>
        <time>2024-07-31T11:41:51.794Z</time>
      </trkpt>
      <trkpt lat="54.53298" lon="16.84507">
        <ele>46.439391</ele>
        <time>2024-07-31T11:41:54.788Z</time>
      </trkpt>
      <trkpt lat="54.53297" lon="16.84527">
        <ele>46.511264</ele>
        <time>2024-07-31T11:41:57.771Z</time>
      </trkpt>
      <trkpt lat="54.53296" lon="16.84547">
        <ele>46.581164</ele>
        <time>2024-07-31T11:42:00.794Z</time>
      </trkpt>
      <trkpt lat="54.53295" lon="16.84567">
        <ele>46.652438</ele>
        <time>2024-07-31T11:42:03.789Z</time>
      </trkpt>
      <trkpt lat="54.53294" lon="16.84588">
        <ele>46.728384</ele>
        <time>2024-07-31T11:42:06.783Z</time>
      </trkpt>
      <trkpt lat="54.53293" lon="16.8461">
        <ele>46.803898</ele>
        <time>2024-07-31T11:42:09.775Z</time>
      </trkpt>
      <trkpt lat="54.53292" lon="16.84632">
        <ele>46.882587</ele>
        <time>2024-07-31T11:42:12.784Z</time>
      </trkpt>
      <trkpt lat="54.53291" lon="16.84654">
        <ele>46.961099</ele>
        <time>2024-07-31T11:42:15.805Z</time>
      </trkpt>
      <trkpt lat="54.5329" lon="16.84676">
        <ele>47.040267</ele>
        <time>2024-07-31T11:42:18.817Z</time>
      </trkpt>
      <trkpt lat="54.53289" lon="16.84697">
        <ele>47.115428</ele>
        <time>2024-07-31T11:42:21.802Z</time>
      </trkpt>
      <trkpt lat="54.53288" lon="16.84719">
        <ele>47.119795</ele>
        <time>2024-07-31T11:42:24.803Z</time>
      </trkpt>
      <trkpt lat="54.53287" lon="16.84741">
        <ele>47.087294</ele>
        <time>2024-07-31T11:42:27.791Z</time>
      </trkpt>
      <trkpt lat="54.53286" lon="16.84762">
        <ele>47.05485</ele>
        <time>2024-07-31T11:42:30.800Z</time>
      </trkpt>
      <trkpt lat="54.53285" lon="16.84784">
        <ele>47.022405</ele>
        <time>2024-07-31T11:42:33.800Z</time>
      </trkpt>
      <trkpt lat="54.53284" lon="16.84806">
        <ele>46.989535</ele>
        <time>2024-07-31T11:42:36.791Z</time>
      </trkpt>
      <trkpt lat="54.53283" lon="16.84828">
        <ele>46.958234</ele>
        <time>2024-07-31T11:42:39.779Z</time>
      </trkpt>
      <trkpt lat="54.53282" lon="16.84849">
        <ele>46.926953</ele>
        <time>2024-07-31T11:42:42.807Z</time>
      </trkpt>
      <trkpt lat="54.53281" lon="16.84871">
        <ele>46.894241</ele>
        <time>2024-07-31T11:42:45.801Z</time>
      </trkpt>
      <trkpt lat="54.5328" lon="16.84893">
        <ele>46.861024</ele>
        <time>2024-07-31T11:42:48.813Z</time>
      </trkpt>
      <trkpt lat="54.53279" lon="16.84914">
        <ele>46.829945</ele>
        <time>2024-07-31T11:42:51.765Z</time>
      </trkpt>
      <trkpt lat="54.53277" lon="16.84933">
        <ele>46.801773</ele>
        <time>2024-07-31T11:42:54.797Z</time>
      </trkpt>
      <trkpt lat="54.53275" lon="16.8495">
        <ele>46.776127</ele>
        <time>2024-07-31T11:42:59.803Z</time>
      </trkpt>
      <trkpt lat="54.53275" lon="16.84969">
        <ele>46.747721</ele>
        <time>2024-07-31T11:43:27.784Z</time>
      </trkpt>
      <trkpt lat="54.53274" lon="16.84989">
        <ele>46.718699</ele>
        <time>2024-07-31T11:43:31.793Z</time>
      </trkpt>
      <trkpt lat="54.53271" lon="16.85006">
        <ele>46.692802</ele>
        <time>2024-07-31T11:43:34.794Z</time>
      </trkpt>
      <trkpt lat="54.53268" lon="16.85024">
        <ele>46.732857</ele>
        <time>2024-07-31T11:43:37.796Z</time>
      </trkpt>
      <trkpt lat="54.53263" lon="16.85041">
        <ele>46.818676</ele>
        <time>2024-07-31T11:43:40.781Z</time>
      </trkpt>
      <trkpt lat="54.53257" lon="16.85057">
        <ele>46.898317</ele>
        <time>2024-07-31T11:43:43.804Z</time>
      </trkpt>
      <trkpt lat="54.5325" lon="16.85073">
        <ele>46.981529</ele>
        <time>2024-07-31T11:43:46.795Z</time>
      </trkpt>
      <trkpt lat="54.53244" lon="16.85089">
        <ele>47.065955</ele>
        <time>2024-07-31T11:43:49.777Z</time>
      </trkpt>
      <trkpt lat="54.53237" lon="16.85105">
        <ele>47.149863</ele>
        <time>2024-07-31T11:43:52.789Z</time>
      </trkpt>
      <trkpt lat="54.5323" lon="16.85122">
        <ele>47.237767</ele>
        <time>2024-07-31T11:43:55.759Z</time>
      </trkpt>
      <trkpt lat="54.53224" lon="16.85137">
        <ele>47.319239</ele>
        <time>2024-07-31T11:43:58.807Z</time>
      </trkpt>
      <trkpt lat="54.53219" lon="16.85154">
        <ele>47.401703</ele>
        <time>2024-07-31T11:44:01.777Z</time>
      </trkpt>
      <trkpt lat="54.53213" lon="16.85173">
        <ele>47.493812</ele>
        <time>2024-07-31T11:44:04.802Z</time>
      </trkpt>
      <trkpt lat="54.53206" lon="16.85193">
        <ele>47.591082</ele>
        <time>2024-07-31T11:44:07.804Z</time>
      </trkpt>
      <trkpt lat="54.53202" lon="16.85208">
        <ele>47.660026</ele>
        <time>2024-07-31T11:44:09.808Z</time>
      </trkpt>
      <trkpt lat="54.53198" lon="16.85222">
        <ele>47.728869</ele>
        <time>2024-07-31T11:44:11.782Z</time>
      </trkpt>
      <trkpt lat="54.53194" lon="16.85237">
        <ele>47.796793</ele>
        <time>2024-07-31T11:44:13.784Z</time>
      </trkpt>
      <trkpt lat="54.5319" lon="16.8525">
        <ele>47.863111</ele>
        <time>2024-07-31T11:44:15.793Z</time>
      </trkpt>
      <trkpt lat="54.53186" lon="16.85265">
        <ele>47.931953</ele>
        <time>2024-07-31T11:44:17.782Z</time>
      </trkpt>
      <trkpt lat="54.53182" lon="16.85279">
        <ele>47.998792</ele>
        <time>2024-07-31T11:44:19.763Z</time>
      </trkpt>
      <trkpt lat="54.53178" lon="16.85293">
        <ele>48.075385</ele>
        <time>2024-07-31T11:44:21.790Z</time>
      </trkpt>
      <trkpt lat="54.53174" lon="16.85308">
        <ele>48.15592</ele>
        <time>2024-07-31T11:44:23.784Z</time>
      </trkpt>
      <trkpt lat="54.5317" lon="16.85323">
        <ele>48.239953</ele>
        <time>2024-07-31T11:44:25.763Z</time>
      </trkpt>
      <trkpt lat="54.53165" lon="16.85337">
        <ele>48.320874</ele>
        <time>2024-07-31T11:44:27.798Z</time>
      </trkpt>
      <trkpt lat="54.53161" lon="16.85351">
        <ele>48.402111</ele>
        <time>2024-07-31T11:44:29.796Z</time>
      </trkpt>
      <trkpt lat="54.53156" lon="16.85366">
        <ele>48.482714</ele>
        <time>2024-07-31T11:44:31.801Z</time>
      </trkpt>
      <trkpt lat="54.53152" lon="16.85382">
        <ele>48.568539</ele>
        <time>2024-07-31T11:44:33.783Z</time>
      </trkpt>
      <trkpt lat="54.53148" lon="16.85397">
        <ele>48.652453</ele>
        <time>2024-07-31T11:44:35.780Z</time>
      </trkpt>
      <trkpt lat="54.53143" lon="16.85412">
        <ele>48.734771</ele>
        <time>2024-07-31T11:44:37.794Z</time>
      </trkpt>
      <trkpt lat="54.53139" lon="16.85426">
        <ele>48.815155</ele>
        <time>2024-07-31T11:44:39.785Z</time>
      </trkpt>
      <trkpt lat="54.53135" lon="16.8544">
        <ele>48.89494</ele>
        <time>2024-07-31T11:44:41.786Z</time>
      </trkpt>
      <trkpt lat="54.5313" lon="16.85455">
        <ele>48.978413</ele>
        <time>2024-07-31T11:44:43.789Z</time>
      </trkpt>
      <trkpt lat="54.53124" lon="16.85476">
        <ele>49.093399</ele>
        <time>2024-07-31T11:44:46.794Z</time>
      </trkpt>
      <trkpt lat="54.53121" lon="16.8549">
        <ele>49.172464</ele>
        <time>2024-07-31T11:44:48.802Z</time>
      </trkpt>
      <trkpt lat="54.53116" lon="16.85505">
        <ele>49.256433</ele>
        <time>2024-07-31T11:44:50.786Z</time>
      </trkpt>
      <trkpt lat="54.53112" lon="16.8552">
        <ele>49.338148</ele>
        <time>2024-07-31T11:44:52.800Z</time>
      </trkpt>
      <trkpt lat="54.53108" lon="16.85535">
        <ele>49.423252</ele>
        <time>2024-07-31T11:44:54.786Z</time>
      </trkpt>
      <trkpt lat="54.53104" lon="16.85551">
        <ele>49.507553</ele>
        <time>2024-07-31T11:44:56.805Z</time>
      </trkpt>
      <trkpt lat="54.53099" lon="16.85566">
        <ele>49.548821</ele>
        <time>2024-07-31T11:44:58.801Z</time>
      </trkpt>
      <trkpt lat="54.53095" lon="16.8558">
        <ele>49.550869</ele>
        <time>2024-07-31T11:45:00.791Z</time>
      </trkpt>
      <trkpt lat="54.53091" lon="16.85595">
        <ele>49.552842</ele>
        <time>2024-07-31T11:45:02.804Z</time>
      </trkpt>
      <trkpt lat="54.53085" lon="16.85616">
        <ele>49.555749</ele>
        <time>2024-07-31T11:45:05.782Z</time>
      </trkpt>
      <trkpt lat="54.53079" lon="16.85636">
        <ele>49.55858</ele>
        <time>2024-07-31T11:45:08.795Z</time>
      </trkpt>
      <trkpt lat="54.53073" lon="16.85657">
        <ele>49.561438</ele>
        <time>2024-07-31T11:45:11.802Z</time>
      </trkpt>
      <trkpt lat="54.53067" lon="16.85678">
        <ele>49.564307</ele>
        <time>2024-07-31T11:45:14.768Z</time>
      </trkpt>
      <trkpt lat="54.53063" lon="16.85692">
        <ele>49.566269</ele>
        <time>2024-07-31T11:45:16.791Z</time>
      </trkpt>
      <trkpt lat="54.53059" lon="16.85706">
        <ele>49.568186</ele>
        <time>2024-07-31T11:45:18.805Z</time>
      </trkpt>
      <trkpt lat="54.53055" lon="16.8572">
        <ele>49.570107</ele>
        <time>2024-07-31T11:45:20.787Z</time>
      </trkpt>
      <trkpt lat="54.53049" lon="16.85741">
        <ele>49.572975</ele>
        <time>2024-07-31T11:45:23.798Z</time>
      </trkpt>
      <trkpt lat="54.53043" lon="16.85761">
        <ele>49.575765</ele>
        <time>2024-07-31T11:45:26.771Z</time>
      </trkpt>
      <trkpt lat="54.53037" lon="16.85781">
        <ele>49.578572</ele>
        <time>2024-07-31T11:45:29.769Z</time>
      </trkpt>
      <trkpt lat="54.53031" lon="16.85801">
        <ele>49.5814</ele>
        <time>2024-07-31T11:45:32.795Z</time>
      </trkpt>
      <trkpt lat="54.53027" lon="16.85815">
        <ele>49.583321</ele>
        <time>2024-07-31T11:45:34.782Z</time>
      </trkpt>
      <trkpt lat="54.53021" lon="16.85836">
        <ele>49.587025</ele>
        <time>2024-07-31T11:45:37.795Z</time>
      </trkpt>
      <trkpt lat="54.53017" lon="16.85851">
        <ele>49.615579</ele>
        <time>2024-07-31T11:45:39.784Z</time>
      </trkpt>
      <trkpt lat="54.53013" lon="16.85865">
        <ele>49.643706</ele>
        <time>2024-07-31T11:45:41.805Z</time>
      </trkpt>
      <trkpt lat="54.53008" lon="16.8588">
        <ele>49.673784</ele>
        <time>2024-07-31T11:45:43.795Z</time>
      </trkpt>
      <trkpt lat="54.53004" lon="16.85895">
        <ele>49.703083</ele>
        <time>2024-07-31T11:45:45.803Z</time>
      </trkpt>
      <trkpt lat="54.53" lon="16.8591">
        <ele>49.731658</ele>
        <time>2024-07-31T11:45:47.791Z</time>
      </trkpt>
      <trkpt lat="54.52996" lon="16.85924">
        <ele>49.75947</ele>
        <time>2024-07-31T11:45:49.796Z</time>
      </trkpt>
      <trkpt lat="54.52991" lon="16.85938">
        <ele>49.787544</ele>
        <time>2024-07-31T11:45:51.797Z</time>
      </trkpt>
      <trkpt lat="54.52987" lon="16.85953">
        <ele>49.816378</ele>
        <time>2024-07-31T11:45:53.784Z</time>
      </trkpt>
      <trkpt lat="54.52983" lon="16.85967">
        <ele>49.844373</ele>
        <time>2024-07-31T11:45:55.795Z</time>
      </trkpt>
      <trkpt lat="54.52979" lon="16.85981">
        <ele>49.872028</ele>
        <time>2024-07-31T11:45:57.797Z</time>
      </trkpt>
      <trkpt lat="54.52974" lon="16.85995">
        <ele>49.899353</ele>
        <time>2024-07-31T11:45:59.777Z</time>
      </trkpt>
      <trkpt lat="54.52969" lon="16.86015">
        <ele>49.938403</ele>
        <time>2024-07-31T11:46:02.805Z</time>
      </trkpt>
      <trkpt lat="54.52963" lon="16.86034">
        <ele>49.976811</ele>
        <time>2024-07-31T11:46:05.806Z</time>
      </trkpt>
      <trkpt lat="54.52958" lon="16.86054">
        <ele>50.013998</ele>
        <time>2024-07-31T11:46:08.812Z</time>
      </trkpt>
      <trkpt lat="54.52952" lon="16.86072">
        <ele>50.05118</ele>
        <time>2024-07-31T11:46:11.786Z</time>
      </trkpt>
      <trkpt lat="54.52946" lon="16.86092">
        <ele>50.089831</ele>
        <time>2024-07-31T11:46:14.807Z</time>
      </trkpt>
      <trkpt lat="54.52941" lon="16.86113">
        <ele>50.128044</ele>
        <time>2024-07-31T11:46:17.803Z</time>
      </trkpt>
      <trkpt lat="54.52935" lon="16.86133">
        <ele>50.026158</ele>
        <time>2024-07-31T11:46:20.796Z</time>
      </trkpt>
      <trkpt lat="54.5293" lon="16.86147">
        <ele>49.955382</ele>
        <time>2024-07-31T11:46:22.809Z</time>
      </trkpt>
      <trkpt lat="54.52926" lon="16.86162">
        <ele>49.883031</ele>
        <time>2024-07-31T11:46:24.787Z</time>
      </trkpt>
      <trkpt lat="54.52921" lon="16.86174">
        <ele>49.812378</ele>
        <time>2024-07-31T11:46:26.775Z</time>
      </trkpt>
      <trkpt lat="54.52914" lon="16.86186">
        <ele>49.740558</ele>
        <time>2024-07-31T11:46:28.795Z</time>
      </trkpt>
      <trkpt lat="54.52908" lon="16.862">
        <ele>49.665129</ele>
        <time>2024-07-31T11:46:30.799Z</time>
      </trkpt>
      <trkpt lat="54.52903" lon="16.86213">
        <ele>49.590862</ele>
        <time>2024-07-31T11:46:32.774Z</time>
      </trkpt>
      <trkpt lat="54.52898" lon="16.86228">
        <ele>49.51431</ele>
        <time>2024-07-31T11:46:34.782Z</time>
      </trkpt>
      <trkpt lat="54.52893" lon="16.86244">
        <ele>49.435405</ele>
        <time>2024-07-31T11:46:36.781Z</time>
      </trkpt>
      <trkpt lat="54.5289" lon="16.8626">
        <ele>49.358697</ele>
        <time>2024-07-31T11:46:38.810Z</time>
      </trkpt>
      <trkpt lat="54.52886" lon="16.86275">
        <ele>49.284715</ele>
        <time>2024-07-31T11:46:40.799Z</time>
      </trkpt>
      <trkpt lat="54.52882" lon="16.8629">
        <ele>49.211742</ele>
        <time>2024-07-31T11:46:42.802Z</time>
      </trkpt>
      <trkpt lat="54.52879" lon="16.86306">
        <ele>49.137528</ele>
        <time>2024-07-31T11:46:44.790Z</time>
      </trkpt>
      <trkpt lat="54.52876" lon="16.86321">
        <ele>49.06643</ele>
        <time>2024-07-31T11:46:46.785Z</time>
      </trkpt>
      <trkpt lat="54.52872" lon="16.86337">
        <ele>48.989721</ele>
        <time>2024-07-31T11:46:48.791Z</time>
      </trkpt>
      <trkpt lat="54.52869" lon="16.86352">
        <ele>48.918376</ele>
        <time>2024-07-31T11:46:50.791Z</time>
      </trkpt>
      <trkpt lat="54.52866" lon="16.86368">
        <ele>48.843571</ele>
        <time>2024-07-31T11:46:52.774Z</time>
      </trkpt>
      <trkpt lat="54.52863" lon="16.86384">
        <ele>48.766509</ele>
        <time>2024-07-31T11:46:54.796Z</time>
      </trkpt>
      <trkpt lat="54.52861" lon="16.86401">
        <ele>48.805465</ele>
        <time>2024-07-31T11:46:56.780Z</time>
      </trkpt>
      <trkpt lat="54.5286" lon="16.86417">
        <ele>48.893532</ele>
        <time>2024-07-31T11:46:58.801Z</time>
      </trkpt>
      <trkpt lat="54.52858" lon="16.86435">
        <ele>48.984752</ele>
        <time>2024-07-31T11:47:00.800Z</time>
      </trkpt>
      <trkpt lat="54.52857" lon="16.86451">
        <ele>49.071714</ele>
        <time>2024-07-31T11:47:02.788Z</time>
      </trkpt>
      <trkpt lat="54.52855" lon="16.86468">
        <ele>49.160973</ele>
        <time>2024-07-31T11:47:04.810Z</time>
      </trkpt>
      <trkpt lat="54.52852" lon="16.86485">
        <ele>49.254881</ele>
        <time>2024-07-31T11:47:06.787Z</time>
      </trkpt>
      <trkpt lat="54.52849" lon="16.86503">
        <ele>49.35084</ele>
        <time>2024-07-31T11:47:08.813Z</time>
      </trkpt>
      <trkpt lat="54.52844" lon="16.86519">
        <ele>49.442419</ele>
        <time>2024-07-31T11:47:10.807Z</time>
      </trkpt>
      <trkpt lat="54.5284" lon="16.86534">
        <ele>49.534138</ele>
        <time>2024-07-31T11:47:12.807Z</time>
      </trkpt>
      <trkpt lat="54.52836" lon="16.8655">
        <ele>49.620449</ele>
        <time>2024-07-31T11:47:14.790Z</time>
      </trkpt>
      <trkpt lat="54.52832" lon="16.86565">
        <ele>49.709302</ele>
        <time>2024-07-31T11:47:16.808Z</time>
      </trkpt>
      <trkpt lat="54.52828" lon="16.86581">
        <ele>49.796092</ele>
        <time>2024-07-31T11:47:18.813Z</time>
      </trkpt>
      <trkpt lat="54.52825" lon="16.86596">
        <ele>49.87992</ele>
        <time>2024-07-31T11:47:20.794Z</time>
      </trkpt>
      <trkpt lat="54.5282" lon="16.8661">
        <ele>49.965185</ele>
        <time>2024-07-31T11:47:22.785Z</time>
      </trkpt>
      <trkpt lat="54.52817" lon="16.86625">
        <ele>50.048843</ele>
        <time>2024-07-31T11:47:24.782Z</time>
      </trkpt>
      <trkpt lat="54.52811" lon="16.86644">
        <ele>50.16358</ele>
        <time>2024-07-31T11:47:27.802Z</time>
      </trkpt>
      <trkpt lat="54.52805" lon="16.86663">
        <ele>50.27908</ele>
        <time>2024-07-31T11:47:30.809Z</time>
      </trkpt>
      <trkpt lat="54.52798" lon="16.86683">
        <ele>50.393595</ele>
        <time>2024-07-31T11:47:33.794Z</time>
      </trkpt>
      <trkpt lat="54.52791" lon="16.86702">
        <ele>50.505623</ele>
        <time>2024-07-31T11:47:36.795Z</time>
      </trkpt>
      <trkpt lat="54.52786" lon="16.86716">
        <ele>50.582633</ele>
        <time>2024-07-31T11:47:38.796Z</time>
      </trkpt>
      <trkpt lat="54.52781" lon="16.8673">
        <ele>50.660102</ele>
        <time>2024-07-31T11:47:40.806Z</time>
      </trkpt>
      <trkpt lat="54.52776" lon="16.86743">
        <ele>50.73681</ele>
        <time>2024-07-31T11:47:42.789Z</time>
      </trkpt>
      <trkpt lat="54.5277" lon="16.86757">
        <ele>50.81871</ele>
        <time>2024-07-31T11:47:44.789Z</time>
      </trkpt>
      <trkpt lat="54.52763" lon="16.86776">
        <ele>50.927412</ele>
        <time>2024-07-31T11:47:47.801Z</time>
      </trkpt>
      <trkpt lat="54.52758" lon="16.8679">
        <ele>51.007104</ele>
        <time>2024-07-31T11:47:49.814Z</time>
      </trkpt>
      <trkpt lat="54.52752" lon="16.86807">
        <ele>51.105791</ele>
        <time>2024-07-31T11:47:52.791Z</time>
      </trkpt>
      <trkpt lat="54.52745" lon="16.86819">
        <ele>51.187422</ele>
        <time>2024-07-31T11:47:55.778Z</time>
      </trkpt>
      <trkpt lat="54.52738" lon="16.86835">
        <ele>51.277303</ele>
        <time>2024-07-31T11:47:59.796Z</time>
      </trkpt>
      <trkpt lat="54.52734" lon="16.86858">
        <ele>51.39561</ele>
        <time>2024-07-31T11:48:20.793Z</time>
      </trkpt>
      <trkpt lat="54.52731" lon="16.86878">
        <ele>51.494047</ele>
        <time>2024-07-31T11:48:24.791Z</time>
      </trkpt>
      <trkpt lat="54.52727" lon="16.86893">
        <ele>51.575417</ele>
        <time>2024-07-31T11:48:27.790Z</time>
      </trkpt>
      <trkpt lat="54.52723" lon="16.86909">
        <ele>51.656957</ele>
        <time>2024-07-31T11:48:30.789Z</time>
      </trkpt>
      <trkpt lat="54.52719" lon="16.86926">
        <ele>51.745229</ele>
        <time>2024-07-31T11:48:33.777Z</time>
      </trkpt>
      <trkpt lat="54.52715" lon="16.86942">
        <ele>51.832041</ele>
        <time>2024-07-31T11:48:36.776Z</time>
      </trkpt>
      <trkpt lat="54.52709" lon="16.86957">
        <ele>51.915435</ele>
        <time>2024-07-31T11:48:39.796Z</time>
      </trkpt>
      <trkpt lat="54.52704" lon="16.86974">
        <ele>52.003587</ele>
        <time>2024-07-31T11:48:42.796Z</time>
      </trkpt>
      <trkpt lat="54.52698" lon="16.86991">
        <ele>52.093292</ele>
        <time>2024-07-31T11:48:45.789Z</time>
      </trkpt>
      <trkpt lat="54.52692" lon="16.87008">
        <ele>52.183391</ele>
        <time>2024-07-31T11:48:48.813Z</time>
      </trkpt>
      <trkpt lat="54.52687" lon="16.87025">
        <ele>52.275561</ele>
        <time>2024-07-31T11:48:51.765Z</time>
      </trkpt>
      <trkpt lat="54.52682" lon="16.87043">
        <ele>52.364249</ele>
        <time>2024-07-31T11:48:54.781Z</time>
      </trkpt>
      <trkpt lat="54.52677" lon="16.87062">
        <ele>52.46145</ele>
        <time>2024-07-31T11:48:57.765Z</time>
      </trkpt>
      <trkpt lat="54.52672" lon="16.87081">
        <ele>52.554025</ele>
        <time>2024-07-31T11:49:00.807Z</time>
      </trkpt>
      <trkpt lat="54.52667" lon="16.87101">
        <ele>52.656378</ele>
        <time>2024-07-31T11:49:03.791Z</time>
      </trkpt>
      <trkpt lat="54.52662" lon="16.87121">
        <ele>52.757046</ele>
        <time>2024-07-31T11:49:06.793Z</time>
      </trkpt>
      <trkpt lat="54.52657" lon="16.87142">
        <ele>52.858062</ele>
        <time>2024-07-31T11:49:09.788Z</time>
      </trkpt>
      <trkpt lat="54.52652" lon="16.87162">
        <ele>52.962536</ele>
        <time>2024-07-31T11:49:12.787Z</time>
      </trkpt>
      <trkpt lat="54.52647" lon="16.87183">
        <ele>53.063127</ele>
        <time>2024-07-31T11:49:15.781Z</time>
      </trkpt>
      <trkpt lat="54.52642" lon="16.87203">
        <ele>53.165274</ele>
        <time>2024-07-31T11:49:18.818Z</time>
      </trkpt>
      <trkpt lat="54.52639" lon="16.87225">
        <ele>53.266206</ele>
        <time>2024-07-31T11:49:21.780Z</time>
      </trkpt>
      <trkpt lat="54.52635" lon="16.87247">
        <ele>53.319308</ele>
        <time>2024-07-31T11:49:24.796Z</time>
      </trkpt>
      <trkpt lat="54.52631" lon="16.87269">
        <ele>53.367987</ele>
        <time>2024-07-31T11:49:27.796Z</time>
      </trkpt>
      <trkpt lat="54.52627" lon="16.87291">
        <ele>53.415629</ele>
        <time>2024-07-31T11:49:30.800Z</time>
      </trkpt>
      <trkpt lat="54.52625" lon="16.87306">
        <ele>53.449281</ele>
        <time>2024-07-31T11:49:32.794Z</time>
      </trkpt>
      <trkpt lat="54.52622" lon="16.87321">
        <ele>53.48316</ele>
        <time>2024-07-31T11:49:34.813Z</time>
      </trkpt>
      <trkpt lat="54.52617" lon="16.87343">
        <ele>53.53191</ele>
        <time>2024-07-31T11:49:37.805Z</time>
      </trkpt>
      <trkpt lat="54.52612" lon="16.87364">
        <ele>53.580394</ele>
        <time>2024-07-31T11:49:40.810Z</time>
      </trkpt>
      <trkpt lat="54.52609" lon="16.87386">
        <ele>53.628938</ele>
        <time>2024-07-31T11:49:43.787Z</time>
      </trkpt>
      <trkpt lat="54.52604" lon="16.87408">
        <ele>53.677167</ele>
        <time>2024-07-31T11:49:46.793Z</time>
      </trkpt>
      <trkpt lat="54.526" lon="16.87423">
        <ele>53.712121</ele>
        <time>2024-07-31T11:49:48.808Z</time>
      </trkpt>
      <trkpt lat="54.52597" lon="16.87444">
        <ele>53.759776</ele>
        <time>2024-07-31T11:49:51.789Z</time>
      </trkpt>
      <trkpt lat="54.52592" lon="16.87466">
        <ele>53.808978</ele>
        <time>2024-07-31T11:49:54.775Z</time>
      </trkpt>
      <trkpt lat="54.52587" lon="16.87485">
        <ele>53.85198</ele>
        <time>2024-07-31T11:49:57.802Z</time>
      </trkpt>
      <trkpt lat="54.52583" lon="16.87505">
        <ele>53.897581</ele>
        <time>2024-07-31T11:50:00.776Z</time>
      </trkpt>
      <trkpt lat="54.52578" lon="16.87526">
        <ele>53.987644</ele>
        <time>2024-07-31T11:50:03.805Z</time>
      </trkpt>
      <trkpt lat="54.52575" lon="16.87546">
        <ele>54.145382</ele>
        <time>2024-07-31T11:50:06.774Z</time>
      </trkpt>
      <trkpt lat="54.5257" lon="16.87566">
        <ele>54.306563</ele>
        <time>2024-07-31T11:50:09.790Z</time>
      </trkpt>
      <trkpt lat="54.52566" lon="16.87587">
        <ele>54.477689</ele>
        <time>2024-07-31T11:50:12.798Z</time>
      </trkpt>
      <trkpt lat="54.52562" lon="16.87606">
        <ele>54.630813</ele>
        <time>2024-07-31T11:50:15.775Z</time>
      </trkpt>
      <trkpt lat="54.52559" lon="16.87625">
        <ele>54.776248</ele>
        <time>2024-07-31T11:50:18.815Z</time>
      </trkpt>
      <trkpt lat="54.52555" lon="16.87641">
        <ele>54.909775</ele>
        <time>2024-07-31T11:50:21.791Z</time>
      </trkpt>
      <trkpt lat="54.52553" lon="16.87657">
        <ele>55.0316</ele>
        <time>2024-07-31T11:50:24.788Z</time>
      </trkpt>
      <trkpt lat="54.52551" lon="16.87677">
        <ele>55.188416</ele>
        <time>2024-07-31T11:50:28.792Z</time>
      </trkpt>
      <trkpt lat="54.52546" lon="16.87693">
        <ele>55.31936</ele>
        <time>2024-07-31T11:50:31.778Z</time>
      </trkpt>
      <trkpt lat="54.52543" lon="16.87709">
        <ele>55.452599</ele>
        <time>2024-07-31T11:50:34.786Z</time>
      </trkpt>
      <trkpt lat="54.5254" lon="16.87725">
        <ele>55.576915</ele>
        <time>2024-07-31T11:50:37.793Z</time>
      </trkpt>
      <trkpt lat="54.52538" lon="16.87741">
        <ele>55.698863</ele>
        <time>2024-07-31T11:50:40.799Z</time>
      </trkpt>
      <trkpt lat="54.52535" lon="16.87756">
        <ele>55.818949</ele>
        <time>2024-07-31T11:50:43.802Z</time>
      </trkpt>
      <trkpt lat="54.52532" lon="16.87772">
        <ele>55.945498</ele>
        <time>2024-07-31T11:50:46.806Z</time>
      </trkpt>
      <trkpt lat="54.5253" lon="16.87789">
        <ele>56.077503</ele>
        <time>2024-07-31T11:50:49.785Z</time>
      </trkpt>
      <trkpt lat="54.52528" lon="16.87804">
        <ele>56.197976</ele>
        <time>2024-07-31T11:50:52.774Z</time>
      </trkpt>
      <trkpt lat="54.52526" lon="16.87823">
        <ele>56.252766</ele>
        <time>2024-07-31T11:50:56.783Z</time>
      </trkpt>
      <trkpt lat="54.52525" lon="16.87839">
        <ele>56.21545</ele>
        <time>2024-07-31T11:50:59.792Z</time>
      </trkpt>
      <trkpt lat="54.52524" lon="16.87855">
        <ele>56.175933</ele>
        <time>2024-07-31T11:51:02.790Z</time>
      </trkpt>
      <trkpt lat="54.52523" lon="16.87873">
        <ele>56.134254</ele>
        <time>2024-07-31T11:51:05.789Z</time>
      </trkpt>
      <trkpt lat="54.52522" lon="16.87891">
        <ele>56.089968</ele>
        <time>2024-07-31T11:51:08.813Z</time>
      </trkpt>
      <trkpt lat="54.52522" lon="16.87912">
        <ele>56.04211</ele>
        <time>2024-07-31T11:51:11.799Z</time>
      </trkpt>
      <trkpt lat="54.52522" lon="16.87933">
        <ele>55.991635</ele>
        <time>2024-07-31T11:51:14.795Z</time>
      </trkpt>
      <trkpt lat="54.52521" lon="16.87954">
        <ele>55.941614</ele>
        <time>2024-07-31T11:51:17.781Z</time>
      </trkpt>
      <trkpt lat="54.52521" lon="16.87975">
        <ele>55.89068</ele>
        <time>2024-07-31T11:51:20.789Z</time>
      </trkpt>
      <trkpt lat="54.5252" lon="16.87997">
        <ele>55.840456</ele>
        <time>2024-07-31T11:51:23.795Z</time>
      </trkpt>
      <trkpt lat="54.5252" lon="16.88018">
        <ele>55.79069</ele>
        <time>2024-07-31T11:51:26.809Z</time>
      </trkpt>
      <trkpt lat="54.5252" lon="16.88039">
        <ele>55.73978</ele>
        <time>2024-07-31T11:51:29.794Z</time>
      </trkpt>
      <trkpt lat="54.52519" lon="16.88059">
        <ele>55.6917</ele>
        <time>2024-07-31T11:51:32.793Z</time>
      </trkpt>
      <trkpt lat="54.52518" lon="16.88079">
        <ele>55.644438</ele>
        <time>2024-07-31T11:51:35.795Z</time>
      </trkpt>
      <trkpt lat="54.52516" lon="16.88099">
        <ele>55.597279</ele>
        <time>2024-07-31T11:51:38.794Z</time>
      </trkpt>
      <trkpt lat="54.52514" lon="16.8812">
        <ele>55.545889</ele>
        <time>2024-07-31T11:51:41.793Z</time>
      </trkpt>
      <trkpt lat="54.52511" lon="16.8814">
        <ele>55.659112</ele>
        <time>2024-07-31T11:51:44.786Z</time>
      </trkpt>
      <trkpt lat="54.52506" lon="16.8816">
        <ele>55.798614</ele>
        <time>2024-07-31T11:51:47.780Z</time>
      </trkpt>
      <trkpt lat="54.525" lon="16.88179">
        <ele>55.931994</ele>
        <time>2024-07-31T11:51:50.773Z</time>
      </trkpt>
      <trkpt lat="54.52495" lon="16.88198">
        <ele>56.066317</ele>
        <time>2024-07-31T11:51:53.790Z</time>
      </trkpt>
      <trkpt lat="54.5249" lon="16.88217">
        <ele>56.208529</ele>
        <time>2024-07-31T11:51:56.795Z</time>
      </trkpt>
      <trkpt lat="54.52484" lon="16.88236">
        <ele>56.344476</ele>
        <time>2024-07-31T11:51:59.794Z</time>
      </trkpt>
      <trkpt lat="54.52479" lon="16.88254">
        <ele>56.475383</ele>
        <time>2024-07-31T11:52:02.803Z</time>
      </trkpt>
      <trkpt lat="54.52473" lon="16.88273">
        <ele>56.612936</ele>
        <time>2024-07-31T11:52:05.806Z</time>
      </trkpt>
      <trkpt lat="54.52468" lon="16.88292">
        <ele>56.746317</ele>
        <time>2024-07-31T11:52:08.794Z</time>
      </trkpt>
      <trkpt lat="54.52463" lon="16.8831">
        <ele>56.877827</ele>
        <time>2024-07-31T11:52:11.780Z</time>
      </trkpt>
      <trkpt lat="54.52457" lon="16.88328">
        <ele>57.008679</ele>
        <time>2024-07-31T11:52:14.790Z</time>
      </trkpt>
      <trkpt lat="54.52452" lon="16.88346">
        <ele>57.139353</ele>
        <time>2024-07-31T11:52:17.793Z</time>
      </trkpt>
      <trkpt lat="54.52449" lon="16.88363">
        <ele>57.256851</ele>
        <time>2024-07-31T11:52:20.782Z</time>
      </trkpt>
      <trkpt lat="54.52443" lon="16.8838">
        <ele>57.378768</ele>
        <time>2024-07-31T11:52:23.790Z</time>
      </trkpt>
      <trkpt lat="54.52438" lon="16.88397">
        <ele>57.504129</ele>
        <time>2024-07-31T11:52:26.791Z</time>
      </trkpt>
      <trkpt lat="54.52434" lon="16.88415">
        <ele>57.592706</ele>
        <time>2024-07-31T11:52:29.791Z</time>
      </trkpt>
      <trkpt lat="54.5243" lon="16.88433">
        <ele>57.665683</ele>
        <time>2024-07-31T11:52:32.789Z</time>
      </trkpt>
      <trkpt lat="54.52425" lon="16.88451">
        <ele>57.742755</ele>
        <time>2024-07-31T11:52:35.785Z</time>
      </trkpt>
      <trkpt lat="54.52422" lon="16.8847">
        <ele>57.819364</ele>
        <time>2024-07-31T11:52:38.790Z</time>
      </trkpt>
      <trkpt lat="54.52418" lon="16.88488">
        <ele>57.889225</ele>
        <time>2024-07-31T11:52:41.788Z</time>
      </trkpt>
      <trkpt lat="54.52416" lon="16.88504">
        <ele>57.9551</ele>
        <time>2024-07-31T11:52:44.796Z</time>
      </trkpt>
      <trkpt lat="54.52416" lon="16.88522">
        <ele>58.022679</ele>
        <time>2024-07-31T11:52:47.784Z</time>
      </trkpt>
      <trkpt lat="54.52414" lon="16.88542">
        <ele>58.098034</ele>
        <time>2024-07-31T11:52:50.793Z</time>
      </trkpt>
      <trkpt lat="54.52412" lon="16.88561">
        <ele>58.172534</ele>
        <time>2024-07-31T11:52:53.784Z</time>
      </trkpt>
      <trkpt lat="54.52412" lon="16.88583">
        <ele>58.255796</ele>
        <time>2024-07-31T11:52:56.785Z</time>
      </trkpt>
      <trkpt lat="54.52411" lon="16.88605">
        <ele>58.339468</ele>
        <time>2024-07-31T11:52:59.786Z</time>
      </trkpt>
      <trkpt lat="54.52412" lon="16.88627">
        <ele>58.425047</ele>
        <time>2024-07-31T11:53:02.780Z</time>
      </trkpt>
      <trkpt lat="54.52413" lon="16.88648">
        <ele>58.50584</ele>
        <time>2024-07-31T11:53:05.799Z</time>
      </trkpt>
      <trkpt lat="54.52413" lon="16.88668">
        <ele>58.581069</ele>
        <time>2024-07-31T11:53:08.817Z</time>
      </trkpt>
      <trkpt lat="54.52413" lon="16.88688">
        <ele>58.658567</ele>
        <time>2024-07-31T11:53:11.782Z</time>
      </trkpt>
      <trkpt lat="54.52412" lon="16.88707">
        <ele>58.724819</ele>
        <time>2024-07-31T11:53:14.804Z</time>
      </trkpt>
      <trkpt lat="54.52412" lon="16.88727">
        <ele>58.720107</ele>
        <time>2024-07-31T11:53:17.787Z</time>
      </trkpt>
      <trkpt lat="54.52412" lon="16.88748">
        <ele>58.715331</ele>
        <time>2024-07-31T11:53:20.783Z</time>
      </trkpt>
      <trkpt lat="54.52411" lon="16.88768">
        <ele>58.710459</ele>
        <time>2024-07-31T11:53:23.792Z</time>
      </trkpt>
      <trkpt lat="54.52411" lon="16.88789">
        <ele>58.705423</ele>
        <time>2024-07-31T11:53:26.788Z</time>
      </trkpt>
      <trkpt lat="54.52411" lon="16.88811">
        <ele>58.700436</ele>
        <time>2024-07-31T11:53:29.798Z</time>
      </trkpt>
      <trkpt lat="54.52411" lon="16.88832">
        <ele>58.695448</ele>
        <time>2024-07-31T11:53:32.803Z</time>
      </trkpt>
      <trkpt lat="54.5241" lon="16.88853">
        <ele>58.690452</ele>
        <time>2024-07-31T11:53:35.802Z</time>
      </trkpt>
      <trkpt lat="54.5241" lon="16.88875">
        <ele>58.685252</ele>
        <time>2024-07-31T11:53:38.776Z</time>
      </trkpt>
      <trkpt lat="54.5241" lon="16.88897">
        <ele>58.680048</ele>
        <time>2024-07-31T11:53:41.801Z</time>
      </trkpt>
      <trkpt lat="54.52408" lon="16.88919">
        <ele>58.674844</ele>
        <time>2024-07-31T11:53:44.819Z</time>
      </trkpt>
      <trkpt lat="54.52407" lon="16.8894">
        <ele>58.669797</ele>
        <time>2024-07-31T11:53:47.778Z</time>
      </trkpt>
      <trkpt lat="54.52404" lon="16.8896">
        <ele>58.664908</ele>
        <time>2024-07-31T11:53:50.772Z</time>
      </trkpt>
      <trkpt lat="54.52402" lon="16.88981">
        <ele>58.659787</ele>
        <time>2024-07-31T11:53:53.782Z</time>
      </trkpt>
      <trkpt lat="54.524" lon="16.89003">
        <ele>58.65461</ele>
        <time>2024-07-31T11:53:56.782Z</time>
      </trkpt>
      <trkpt lat="54.52396" lon="16.89024">
        <ele>58.774726</ele>
        <time>2024-07-31T11:53:59.780Z</time>
      </trkpt>
      <trkpt lat="54.52395" lon="16.89046">
        <ele>59.016949</ele>
        <time>2024-07-31T11:54:02.790Z</time>
      </trkpt>
      <trkpt lat="54.52392" lon="16.89067">
        <ele>59.260744</ele>
        <time>2024-07-31T11:54:05.785Z</time>
      </trkpt>
      <trkpt lat="54.52389" lon="16.89088">
        <ele>59.503639</ele>
        <time>2024-07-31T11:54:08.783Z</time>
      </trkpt>
      <trkpt lat="54.52387" lon="16.89108">
        <ele>59.731475</ele>
        <time>2024-07-31T11:54:11.780Z</time>
      </trkpt>
      <trkpt lat="54.52385" lon="16.89125">
        <ele>59.92549</ele>
        <time>2024-07-31T11:54:14.772Z</time>
      </trkpt>
      <trkpt lat="54.52384" lon="16.8914">
        <ele>60.102214</ele>
        <time>2024-07-31T11:54:18.800Z</time>
      </trkpt>
      <trkpt lat="54.52392" lon="16.89147">
        <ele>60.284052</ele>
        <time>2024-07-31T11:54:23.791Z</time>
      </trkpt>
      <trkpt lat="54.52383" lon="16.89143">
        <ele>60.458746</ele>
        <time>2024-07-31T11:57:17.785Z</time>
      </trkpt>
      <trkpt lat="54.5238" lon="16.89162">
        <ele>60.687671</ele>
        <time>2024-07-31T11:57:22.770Z</time>
      </trkpt>
      <trkpt lat="54.52377" lon="16.89179">
        <ele>60.877017</ele>
        <time>2024-07-31T11:57:25.796Z</time>
      </trkpt>
      <trkpt lat="54.52374" lon="16.89196">
        <ele>61.078204</ele>
        <time>2024-07-31T11:57:28.791Z</time>
      </trkpt>
      <trkpt lat="54.52371" lon="16.89214">
        <ele>61.291228</ele>
        <time>2024-07-31T11:57:31.769Z</time>
      </trkpt>
      <trkpt lat="54.52367" lon="16.89232">
        <ele>61.50494</ele>
        <time>2024-07-31T11:57:34.785Z</time>
      </trkpt>
      <trkpt lat="54.52364" lon="16.89249">
        <ele>61.708323</ele>
        <time>2024-07-31T11:57:37.790Z</time>
      </trkpt>
      <trkpt lat="54.5236" lon="16.89265">
        <ele>61.901596</ele>
        <time>2024-07-31T11:57:40.786Z</time>
      </trkpt>
      <trkpt lat="54.52357" lon="16.89281">
        <ele>62.080829</ele>
        <time>2024-07-31T11:57:43.779Z</time>
      </trkpt>
      <trkpt lat="54.52353" lon="16.89299">
        <ele>62.490763</ele>
        <time>2024-07-31T11:57:47.782Z</time>
      </trkpt>
      <trkpt lat="54.52348" lon="16.89318">
        <ele>62.94133</ele>
        <time>2024-07-31T11:57:51.787Z</time>
      </trkpt>
      <trkpt lat="54.52345" lon="16.89336">
        <ele>63.37459</ele>
        <time>2024-07-31T11:57:55.790Z</time>
      </trkpt>
      <trkpt lat="54.52341" lon="16.8935">
        <ele>63.73018</ele>
        <time>2024-07-31T11:57:58.804Z</time>
      </trkpt>
      <trkpt lat="54.52338" lon="16.89366">
        <ele>64.099597</ele>
        <time>2024-07-31T11:58:01.805Z</time>
      </trkpt>
      <trkpt lat="54.52335" lon="16.89382">
        <ele>64.482222</ele>
        <time>2024-07-31T11:58:04.800Z</time>
      </trkpt>
      <trkpt lat="54.5233" lon="16.89399">
        <ele>64.931037</ele>
        <time>2024-07-31T11:58:08.805Z</time>
      </trkpt>
      <trkpt lat="54.52326" lon="16.89414">
        <ele>65.288268</ele>
        <time>2024-07-31T11:58:11.775Z</time>
      </trkpt>
      <trkpt lat="54.52319" lon="16.89429">
        <ele>65.716218</ele>
        <time>2024-07-31T11:58:15.770Z</time>
      </trkpt>
      <trkpt lat="54.52311" lon="16.89439">
        <ele>66.113372</ele>
        <time>2024-07-31T11:58:28.793Z</time>
      </trkpt>
      <trkpt lat="54.52304" lon="16.89452">
        <ele>66.502183</ele>
        <time>2024-07-31T11:58:35.773Z</time>
      </trkpt>
      <trkpt lat="54.52295" lon="16.8946">
        <ele>66.925103</ele>
        <time>2024-07-31T11:58:39.778Z</time>
      </trkpt>
      <trkpt lat="54.52287" lon="16.89468">
        <ele>67.280936</ele>
        <time>2024-07-31T11:58:42.772Z</time>
      </trkpt>
      <trkpt lat="54.52279" lon="16.89476">
        <ele>67.643565</ele>
        <time>2024-07-31T11:58:45.788Z</time>
      </trkpt>
      <trkpt lat="54.5227" lon="16.89484">
        <ele>68.016373</ele>
        <time>2024-07-31T11:58:48.784Z</time>
      </trkpt>
      <trkpt lat="54.52262" lon="16.89492">
        <ele>68.389849</ele>
        <time>2024-07-31T11:58:51.771Z</time>
      </trkpt>
      <trkpt lat="54.52253" lon="16.89499">
        <ele>68.756011</ele>
        <time>2024-07-31T11:58:54.788Z</time>
      </trkpt>
      <trkpt lat="54.52244" lon="16.89509">
        <ele>69.14403</ele>
        <time>2024-07-31T11:58:57.790Z</time>
      </trkpt>
      <trkpt lat="54.52234" lon="16.89518">
        <ele>69.248195</ele>
        <time>2024-07-31T11:59:00.794Z</time>
      </trkpt>
      <trkpt lat="54.52225" lon="16.89527">
        <ele>69.351879</ele>
        <time>2024-07-31T11:59:03.785Z</time>
      </trkpt>
      <trkpt lat="54.52215" lon="16.89535">
        <ele>69.451779</ele>
        <time>2024-07-31T11:59:06.783Z</time>
      </trkpt>
      <trkpt lat="54.52207" lon="16.89542">
        <ele>69.539794</ele>
        <time>2024-07-31T11:59:09.784Z</time>
      </trkpt>
      <trkpt lat="54.52199" lon="16.89551">
        <ele>69.626399</ele>
        <time>2024-07-31T11:59:12.788Z</time>
      </trkpt>
      <trkpt lat="54.52192" lon="16.8956">
        <ele>69.714403</ele>
        <time>2024-07-31T11:59:15.781Z</time>
      </trkpt>
      <trkpt lat="54.52184" lon="16.89568">
        <ele>69.801351</ele>
        <time>2024-07-31T11:59:18.807Z</time>
      </trkpt>
      <trkpt lat="54.52175" lon="16.89577">
        <ele>69.893526</ele>
        <time>2024-07-31T11:59:21.772Z</time>
      </trkpt>
      <trkpt lat="54.52167" lon="16.89585">
        <ele>69.985111</ele>
        <time>2024-07-31T11:59:24.807Z</time>
      </trkpt>
      <trkpt lat="54.52158" lon="16.89594">
        <ele>70.07779</ele>
        <time>2024-07-31T11:59:27.786Z</time>
      </trkpt>
      <trkpt lat="54.5215" lon="16.89603">
        <ele>70.173917</ele>
        <time>2024-07-31T11:59:30.788Z</time>
      </trkpt>
      <trkpt lat="54.52141" lon="16.89613">
        <ele>70.274552</ele>
        <time>2024-07-31T11:59:33.773Z</time>
      </trkpt>
      <trkpt lat="54.52132" lon="16.89623">
        <ele>70.374559</ele>
        <time>2024-07-31T11:59:36.786Z</time>
      </trkpt>
      <trkpt lat="54.52124" lon="16.89632">
        <ele>70.463689</ele>
        <time>2024-07-31T11:59:39.793Z</time>
      </trkpt>
      <trkpt lat="54.52116" lon="16.8964">
        <ele>70.553171</ele>
        <time>2024-07-31T11:59:42.778Z</time>
      </trkpt>
      <trkpt lat="54.52107" lon="16.89649">
        <ele>70.654616</ele>
        <time>2024-07-31T11:59:45.776Z</time>
      </trkpt>
      <trkpt lat="54.52097" lon="16.89658">
        <ele>70.757968</ele>
        <time>2024-07-31T11:59:48.802Z</time>
      </trkpt>
      <trkpt lat="54.52087" lon="16.89668">
        <ele>70.85597</ele>
        <time>2024-07-31T11:59:51.790Z</time>
      </trkpt>
      <trkpt lat="54.52078" lon="16.89677">
        <ele>70.919909</ele>
        <time>2024-07-31T11:59:54.799Z</time>
      </trkpt>
      <trkpt lat="54.52069" lon="16.89687">
        <ele>70.983115</ele>
        <time>2024-07-31T11:59:57.786Z</time>
      </trkpt>
      <trkpt lat="54.5206" lon="16.89696">
        <ele>71.050426</ele>
        <time>2024-07-31T12:00:00.793Z</time>
      </trkpt>
      <trkpt lat="54.52052" lon="16.89706">
        <ele>71.111812</ele>
        <time>2024-07-31T12:00:03.788Z</time>
      </trkpt>
      <trkpt lat="54.52043" lon="16.89715">
        <ele>71.172038</ele>
        <time>2024-07-31T12:00:06.786Z</time>
      </trkpt>
      <trkpt lat="54.52035" lon="16.89725">
        <ele>71.232926</ele>
        <time>2024-07-31T12:00:09.796Z</time>
      </trkpt>
      <trkpt lat="54.52028" lon="16.89735">
        <ele>71.29325</ele>
        <time>2024-07-31T12:00:12.774Z</time>
      </trkpt>
      <trkpt lat="54.52021" lon="16.89748">
        <ele>71.358513</ele>
        <time>2024-07-31T12:00:15.763Z</time>
      </trkpt>
      <trkpt lat="54.52014" lon="16.89764">
        <ele>71.428344</ele>
        <time>2024-07-31T12:00:18.795Z</time>
      </trkpt>
      <trkpt lat="54.52008" lon="16.89782">
        <ele>71.502032</ele>
        <time>2024-07-31T12:00:21.786Z</time>
      </trkpt>
      <trkpt lat="54.52002" lon="16.89798">
        <ele>71.56914</ele>
        <time>2024-07-31T12:00:24.801Z</time>
      </trkpt>
      <trkpt lat="54.51997" lon="16.89816">
        <ele>71.641875</ele>
        <time>2024-07-31T12:00:27.796Z</time>
      </trkpt>
      <trkpt lat="54.51991" lon="16.89834">
        <ele>71.71427</ele>
        <time>2024-07-31T12:00:30.789Z</time>
      </trkpt>
      <trkpt lat="54.51986" lon="16.89852">
        <ele>71.786085</ele>
        <time>2024-07-31T12:00:33.800Z</time>
      </trkpt>
      <trkpt lat="54.5198" lon="16.89869">
        <ele>71.855364</ele>
        <time>2024-07-31T12:00:36.793Z</time>
      </trkpt>
      <trkpt lat="54.51976" lon="16.89886">
        <ele>71.924131</ele>
        <time>2024-07-31T12:00:39.798Z</time>
      </trkpt>
      <trkpt lat="54.51969" lon="16.89905">
        <ele>72.031886</ele>
        <time>2024-07-31T12:00:42.797Z</time>
      </trkpt>
      <trkpt lat="54.51963" lon="16.89925">
        <ele>72.149313</ele>
        <time>2024-07-31T12:00:45.803Z</time>
      </trkpt>
      <trkpt lat="54.51957" lon="16.89942">
        <ele>72.255293</ele>
        <time>2024-07-31T12:00:48.817Z</time>
      </trkpt>
      <trkpt lat="54.51952" lon="16.89958">
        <ele>72.354471</ele>
        <time>2024-07-31T12:00:51.796Z</time>
      </trkpt>
      <trkpt lat="54.51946" lon="16.89975">
        <ele>72.455053</ele>
        <time>2024-07-31T12:00:54.782Z</time>
      </trkpt>
      <trkpt lat="54.51941" lon="16.89991">
        <ele>72.551515</ele>
        <time>2024-07-31T12:00:57.791Z</time>
      </trkpt>
      <trkpt lat="54.51936" lon="16.90008">
        <ele>72.649994</ele>
        <time>2024-07-31T12:01:00.789Z</time>
      </trkpt>
      <trkpt lat="54.51931" lon="16.90028">
        <ele>72.765249</ele>
        <time>2024-07-31T12:01:03.786Z</time>
      </trkpt>
      <trkpt lat="54.51925" lon="16.90046">
        <ele>72.872337</ele>
        <time>2024-07-31T12:01:06.773Z</time>
      </trkpt>
      <trkpt lat="54.5192" lon="16.90063">
        <ele>72.977895</ele>
        <time>2024-07-31T12:01:09.781Z</time>
      </trkpt>
      <trkpt lat="54.51915" lon="16.9008">
        <ele>73.071961</ele>
        <time>2024-07-31T12:01:12.777Z</time>
      </trkpt>
      <trkpt lat="54.51911" lon="16.90096">
        <ele>73.16927</ele>
        <time>2024-07-31T12:01:15.785Z</time>
      </trkpt>
      <trkpt lat="54.51906" lon="16.90113">
        <ele>73.268222</ele>
        <time>2024-07-31T12:01:18.797Z</time>
      </trkpt>
      <trkpt lat="54.51901" lon="16.9013">
        <ele>73.368865</ele>
        <time>2024-07-31T12:01:21.783Z</time>
      </trkpt>
      <trkpt lat="54.51897" lon="16.90148">
        <ele>73.472422</ele>
        <time>2024-07-31T12:01:24.775Z</time>
      </trkpt>
      <trkpt lat="54.51891" lon="16.90167">
        <ele>73.577767</ele>
        <time>2024-07-31T12:01:27.761Z</time>
      </trkpt>
      <trkpt lat="54.51886" lon="16.90185">
        <ele>73.659323</ele>
        <time>2024-07-31T12:01:30.774Z</time>
      </trkpt>
      <trkpt lat="54.51881" lon="16.90202">
        <ele>73.740834</ele>
        <time>2024-07-31T12:01:33.774Z</time>
      </trkpt>
      <trkpt lat="54.51875" lon="16.90218">
        <ele>73.816403</ele>
        <time>2024-07-31T12:01:36.780Z</time>
      </trkpt>
      <trkpt lat="54.51869" lon="16.90235">
        <ele>73.896402</ele>
        <time>2024-07-31T12:01:39.773Z</time>
      </trkpt>
      <trkpt lat="54.51865" lon="16.90251">
        <ele>73.972055</ele>
        <time>2024-07-31T12:01:42.784Z</time>
      </trkpt>
      <trkpt lat="54.5186" lon="16.90266">
        <ele>74.039791</ele>
        <time>2024-07-31T12:01:45.785Z</time>
      </trkpt>
      <trkpt lat="54.51856" lon="16.90281">
        <ele>74.107404</ele>
        <time>2024-07-31T12:01:48.792Z</time>
      </trkpt>
      <trkpt lat="54.51852" lon="16.90296">
        <ele>74.175731</ele>
        <time>2024-07-31T12:01:51.784Z</time>
      </trkpt>
      <trkpt lat="54.51848" lon="16.90314">
        <ele>74.252706</ele>
        <time>2024-07-31T12:01:55.776Z</time>
      </trkpt>
      <trkpt lat="54.51844" lon="16.90329">
        <ele>74.319688</ele>
        <time>2024-07-31T12:01:58.793Z</time>
      </trkpt>
      <trkpt lat="54.5184" lon="16.90344">
        <ele>74.392714</ele>
        <time>2024-07-31T12:02:01.789Z</time>
      </trkpt>
      <trkpt lat="54.51835" lon="16.9036">
        <ele>74.463699</ele>
        <time>2024-07-31T12:02:04.789Z</time>
      </trkpt>
      <trkpt lat="54.51831" lon="16.90375">
        <ele>74.532536</ele>
        <time>2024-07-31T12:02:07.781Z</time>
      </trkpt>
      <trkpt lat="54.51827" lon="16.90391">
        <ele>74.602476</ele>
        <time>2024-07-31T12:02:10.785Z</time>
      </trkpt>
      <trkpt lat="54.51823" lon="16.90406">
        <ele>74.670333</ele>
        <time>2024-07-31T12:02:13.780Z</time>
      </trkpt>
      <trkpt lat="54.51818" lon="16.90421">
        <ele>74.739601</ele>
        <time>2024-07-31T12:02:16.789Z</time>
      </trkpt>
      <trkpt lat="54.51814" lon="16.90437">
        <ele>74.812062</ele>
        <time>2024-07-31T12:02:19.786Z</time>
      </trkpt>
      <trkpt lat="54.5181" lon="16.90451">
        <ele>74.861095</ele>
        <time>2024-07-31T12:02:22.785Z</time>
      </trkpt>
      <trkpt lat="54.51807" lon="16.90466">
        <ele>74.900877</ele>
        <time>2024-07-31T12:02:25.781Z</time>
      </trkpt>
      <trkpt lat="54.51802" lon="16.90481">
        <ele>74.944459</ele>
        <time>2024-07-31T12:02:28.813Z</time>
      </trkpt>
      <trkpt lat="54.51798" lon="16.90497">
        <ele>74.986926</ele>
        <time>2024-07-31T12:02:31.777Z</time>
      </trkpt>
      <trkpt lat="54.51794" lon="16.90512">
        <ele>75.027794</ele>
        <time>2024-07-31T12:02:34.789Z</time>
      </trkpt>
      <trkpt lat="54.5179" lon="16.90528">
        <ele>75.073808</ele>
        <time>2024-07-31T12:02:37.786Z</time>
      </trkpt>
      <trkpt lat="54.51785" lon="16.90545">
        <ele>75.121326</ele>
        <time>2024-07-31T12:02:40.791Z</time>
      </trkpt>
      <trkpt lat="54.51779" lon="16.90565">
        <ele>75.176242</ele>
        <time>2024-07-31T12:02:43.795Z</time>
      </trkpt>
      <trkpt lat="54.51775" lon="16.90579">
        <ele>75.216306</ele>
        <time>2024-07-31T12:02:45.800Z</time>
      </trkpt>
      <trkpt lat="54.5177" lon="16.90599">
        <ele>75.271415</ele>
        <time>2024-07-31T12:02:48.813Z</time>
      </trkpt>
      <trkpt lat="54.51765" lon="16.90617">
        <ele>75.321786</ele>
        <time>2024-07-31T12:02:51.790Z</time>
      </trkpt>
      <trkpt lat="54.51759" lon="16.90636">
        <ele>75.374716</ele>
        <time>2024-07-31T12:02:54.777Z</time>
      </trkpt>
      <trkpt lat="54.51754" lon="16.90655">
        <ele>75.428038</ele>
        <time>2024-07-31T12:02:57.782Z</time>
      </trkpt>
      <trkpt lat="54.51748" lon="16.90668">
        <ele>75.467198</ele>
        <time>2024-07-31T12:02:59.791Z</time>
      </trkpt>
      <trkpt lat="54.51742" lon="16.9068">
        <ele>75.50751</ele>
        <time>2024-07-31T12:03:01.788Z</time>
      </trkpt>
      <trkpt lat="54.51732" lon="16.90692">
        <ele>75.560009</ele>
        <time>2024-07-31T12:03:04.803Z</time>
      </trkpt>
      <trkpt lat="54.51723" lon="16.90699">
        <ele>75.601815</ele>
        <time>2024-07-31T12:03:07.781Z</time>
      </trkpt>
      <trkpt lat="54.51713" lon="16.90709">
        <ele>75.542948</ele>
        <time>2024-07-31T12:03:11.787Z</time>
      </trkpt>
      <trkpt lat="54.51702" lon="16.90717">
        <ele>75.442476</ele>
        <time>2024-07-31T12:03:15.785Z</time>
      </trkpt>
      <trkpt lat="54.51692" lon="16.90723">
        <ele>75.357426</ele>
        <time>2024-07-31T12:03:18.811Z</time>
      </trkpt>
      <trkpt lat="54.51683" lon="16.90729">
        <ele>75.271949</ele>
        <time>2024-07-31T12:03:21.775Z</time>
      </trkpt>
      <trkpt lat="54.51672" lon="16.90736">
        <ele>75.18344</ele>
        <time>2024-07-31T12:03:24.792Z</time>
      </trkpt>
      <trkpt lat="54.51663" lon="16.90743">
        <ele>75.09814</ele>
        <time>2024-07-31T12:03:27.779Z</time>
      </trkpt>
      <trkpt lat="54.51653" lon="16.90749">
        <ele>75.017084</ele>
        <time>2024-07-31T12:03:30.785Z</time>
      </trkpt>
      <trkpt lat="54.51644" lon="16.90755">
        <ele>74.933825</ele>
        <time>2024-07-31T12:03:33.801Z</time>
      </trkpt>
      <trkpt lat="54.51635" lon="16.90762">
        <ele>74.854358</ele>
        <time>2024-07-31T12:03:36.804Z</time>
      </trkpt>
      <trkpt lat="54.51625" lon="16.90769">
        <ele>74.764386</ele>
        <time>2024-07-31T12:03:40.794Z</time>
      </trkpt>
      <trkpt lat="54.51616" lon="16.90773">
        <ele>74.687612</ele>
        <time>2024-07-31T12:03:46.778Z</time>
      </trkpt>
      <trkpt lat="54.51606" lon="16.90783">
        <ele>74.596045</ele>
        <time>2024-07-31T12:04:21.774Z</time>
      </trkpt>
      <trkpt lat="54.51595" lon="16.9079">
        <ele>74.501742</ele>
        <time>2024-07-31T12:04:25.784Z</time>
      </trkpt>
      <trkpt lat="54.51584" lon="16.90797">
        <ele>74.402954</ele>
        <time>2024-07-31T12:04:29.792Z</time>
      </trkpt>
      <trkpt lat="54.51575" lon="16.90803">
        <ele>74.321971</ele>
        <time>2024-07-31T12:04:32.809Z</time>
      </trkpt>
      <trkpt lat="54.51566" lon="16.90809">
        <ele>74.24457</ele>
        <time>2024-07-31T12:04:35.784Z</time>
      </trkpt>
      <trkpt lat="54.51558" lon="16.90817">
        <ele>74.170002</ele>
        <time>2024-07-31T12:04:38.811Z</time>
      </trkpt>
      <trkpt lat="54.51549" lon="16.90825">
        <ele>74.142036</ele>
        <time>2024-07-31T12:04:41.801Z</time>
      </trkpt>
      <trkpt lat="54.5154" lon="16.90835">
        <ele>74.13676</ele>
        <time>2024-07-31T12:04:44.774Z</time>
      </trkpt>
      <trkpt lat="54.51531" lon="16.90847">
        <ele>74.131225</ele>
        <time>2024-07-31T12:04:47.789Z</time>
      </trkpt>
      <trkpt lat="54.51525" lon="16.90859">
        <ele>74.126643</ele>
        <time>2024-07-31T12:04:49.797Z</time>
      </trkpt>
      <trkpt lat="54.51519" lon="16.90872">
        <ele>74.121967</ele>
        <time>2024-07-31T12:04:51.787Z</time>
      </trkpt>
      <trkpt lat="54.51511" lon="16.90889">
        <ele>74.115567</ele>
        <time>2024-07-31T12:04:54.804Z</time>
      </trkpt>
      <trkpt lat="54.51505" lon="16.90901">
        <ele>74.111038</ele>
        <time>2024-07-31T12:04:56.788Z</time>
      </trkpt>
      <trkpt lat="54.51499" lon="16.90913">
        <ele>74.106583</ele>
        <time>2024-07-31T12:04:58.811Z</time>
      </trkpt>
      <trkpt lat="54.5149" lon="16.90929">
        <ele>74.100234</ele>
        <time>2024-07-31T12:05:01.789Z</time>
      </trkpt>
      <trkpt lat="54.51481" lon="16.90946">
        <ele>74.093714</ele>
        <time>2024-07-31T12:05:04.798Z</time>
      </trkpt>
      <trkpt lat="54.51473" lon="16.90962">
        <ele>74.08753</ele>
        <time>2024-07-31T12:05:07.784Z</time>
      </trkpt>
      <trkpt lat="54.51464" lon="16.90979">
        <ele>74.081205</ele>
        <time>2024-07-31T12:05:10.784Z</time>
      </trkpt>
      <trkpt lat="54.51455" lon="16.90995">
        <ele>74.074789</ele>
        <time>2024-07-31T12:05:13.783Z</time>
      </trkpt>
      <trkpt lat="54.51446" lon="16.91012">
        <ele>74.068194</ele>
        <time>2024-07-31T12:05:16.778Z</time>
      </trkpt>
      <trkpt lat="54.51439" lon="16.91023">
        <ele>74.063721</ele>
        <time>2024-07-31T12:05:18.799Z</time>
      </trkpt>
      <trkpt lat="54.5143" lon="16.91038">
        <ele>74.057233</ele>
        <time>2024-07-31T12:05:21.784Z</time>
      </trkpt>
      <trkpt lat="54.5142" lon="16.91054">
        <ele>74.089212</ele>
        <time>2024-07-31T12:05:24.796Z</time>
      </trkpt>
      <trkpt lat="54.51411" lon="16.9107">
        <ele>74.122581</ele>
        <time>2024-07-31T12:05:27.797Z</time>
      </trkpt>
      <trkpt lat="54.51404" lon="16.9108">
        <ele>74.145324</ele>
        <time>2024-07-31T12:05:29.793Z</time>
      </trkpt>
      <trkpt lat="54.51394" lon="16.91094">
        <ele>74.177434</ele>
        <time>2024-07-31T12:05:32.790Z</time>
      </trkpt>
      <trkpt lat="54.51384" lon="16.91109">
        <ele>74.210321</ele>
        <time>2024-07-31T12:05:35.803Z</time>
      </trkpt>
      <trkpt lat="54.51378" lon="16.9112">
        <ele>74.233179</ele>
        <time>2024-07-31T12:05:37.780Z</time>
      </trkpt>
      <trkpt lat="54.51368" lon="16.91134">
        <ele>74.266146</ele>
        <time>2024-07-31T12:05:40.802Z</time>
      </trkpt>
      <trkpt lat="54.51361" lon="16.91145">
        <ele>74.288699</ele>
        <time>2024-07-31T12:05:42.787Z</time>
      </trkpt>
      <trkpt lat="54.51352" lon="16.9116">
        <ele>74.320712</ele>
        <time>2024-07-31T12:05:45.807Z</time>
      </trkpt>
      <trkpt lat="54.51343" lon="16.91174">
        <ele>74.351244</ele>
        <time>2024-07-31T12:05:48.773Z</time>
      </trkpt>
      <trkpt lat="54.51335" lon="16.91188">
        <ele>74.379206</ele>
        <time>2024-07-31T12:05:51.773Z</time>
      </trkpt>
      <trkpt lat="54.51329" lon="16.912">
        <ele>74.402679</ele>
        <time>2024-07-31T12:05:54.791Z</time>
      </trkpt>
      <trkpt lat="54.51324" lon="16.91214">
        <ele>74.427902</ele>
        <time>2024-07-31T12:05:58.783Z</time>
      </trkpt>
      <trkpt lat="54.51315" lon="16.9123">
        <ele>74.459593</ele>
        <time>2024-07-31T12:06:28.763Z</time>
      </trkpt>
      <trkpt lat="54.51309" lon="16.91241">
        <ele>74.483008</ele>
        <time>2024-07-31T12:06:32.784Z</time>
      </trkpt>
      <trkpt lat="54.51299" lon="16.9125">
        <ele>74.509784</ele>
        <time>2024-07-31T12:06:36.796Z</time>
      </trkpt>
      <trkpt lat="54.51288" lon="16.91256">
        <ele>74.332304</ele>
        <time>2024-07-31T12:06:40.797Z</time>
      </trkpt>
      <trkpt lat="54.51279" lon="16.9126">
        <ele>74.185648</ele>
        <time>2024-07-31T12:06:43.786Z</time>
      </trkpt>
      <trkpt lat="54.5127" lon="16.91263">
        <ele>74.032819</ele>
        <time>2024-07-31T12:06:46.787Z</time>
      </trkpt>
      <trkpt lat="54.5126" lon="16.91268">
        <ele>73.865465</ele>
        <time>2024-07-31T12:06:49.789Z</time>
      </trkpt>
      <trkpt lat="54.51249" lon="16.91272">
        <ele>73.699861</ele>
        <time>2024-07-31T12:06:52.792Z</time>
      </trkpt>
      <trkpt lat="54.51239" lon="16.91276">
        <ele>73.532904</ele>
        <time>2024-07-31T12:06:55.789Z</time>
      </trkpt>
      <trkpt lat="54.51229" lon="16.9128">
        <ele>73.364204</ele>
        <time>2024-07-31T12:06:58.794Z</time>
      </trkpt>
      <trkpt lat="54.51217" lon="16.91283">
        <ele>73.181718</ele>
        <time>2024-07-31T12:07:01.796Z</time>
      </trkpt>
      <trkpt lat="54.51204" lon="16.91288">
        <ele>72.973284</ele>
        <time>2024-07-31T12:07:04.777Z</time>
      </trkpt>
      <trkpt lat="54.51191" lon="16.91293">
        <ele>72.761111</ele>
        <time>2024-07-31T12:07:07.793Z</time>
      </trkpt>
      <trkpt lat="54.51182" lon="16.91297">
        <ele>72.602478</ele>
        <time>2024-07-31T12:07:09.789Z</time>
      </trkpt>
      <trkpt lat="54.51172" lon="16.913">
        <ele>72.446948</ele>
        <time>2024-07-31T12:07:11.780Z</time>
      </trkpt>
      <trkpt lat="54.51163" lon="16.91304">
        <ele>72.292773</ele>
        <time>2024-07-31T12:07:13.792Z</time>
      </trkpt>
      <trkpt lat="54.51154" lon="16.91308">
        <ele>72.145219</ele>
        <time>2024-07-31T12:07:15.788Z</time>
      </trkpt>
      <trkpt lat="54.51144" lon="16.91311">
        <ele>71.988851</ele>
        <time>2024-07-31T12:07:17.776Z</time>
      </trkpt>
      <trkpt lat="54.51135" lon="16.91314">
        <ele>71.838712</ele>
        <time>2024-07-31T12:07:19.789Z</time>
      </trkpt>
      <trkpt lat="54.51125" lon="16.91317">
        <ele>71.691683</ele>
        <time>2024-07-31T12:07:21.801Z</time>
      </trkpt>
      <trkpt lat="54.51116" lon="16.91321">
        <ele>71.563847</ele>
        <time>2024-07-31T12:07:23.785Z</time>
      </trkpt>
      <trkpt lat="54.51106" lon="16.91325">
        <ele>71.436965</ele>
        <time>2024-07-31T12:07:25.783Z</time>
      </trkpt>
      <trkpt lat="54.51097" lon="16.91329">
        <ele>71.320573</ele>
        <time>2024-07-31T12:07:27.778Z</time>
      </trkpt>
      <trkpt lat="54.51087" lon="16.91332">
        <ele>71.197517</ele>
        <time>2024-07-31T12:07:29.801Z</time>
      </trkpt>
      <trkpt lat="54.51078" lon="16.91336">
        <ele>71.079166</ele>
        <time>2024-07-31T12:07:31.792Z</time>
      </trkpt>
      <trkpt lat="54.51068" lon="16.91339">
        <ele>70.964725</ele>
        <time>2024-07-31T12:07:33.774Z</time>
      </trkpt>
      <trkpt lat="54.51059" lon="16.91343">
        <ele>70.847665</ele>
        <time>2024-07-31T12:07:35.802Z</time>
      </trkpt>
      <trkpt lat="54.5105" lon="16.91346">
        <ele>70.736556</ele>
        <time>2024-07-31T12:07:37.787Z</time>
      </trkpt>
      <trkpt lat="54.51038" lon="16.9135">
        <ele>70.574976</ele>
        <time>2024-07-31T12:07:40.797Z</time>
      </trkpt>
      <trkpt lat="54.51026" lon="16.91355">
        <ele>70.424356</ele>
        <time>2024-07-31T12:07:43.794Z</time>
      </trkpt>
      <trkpt lat="54.51015" lon="16.91358">
        <ele>70.292415</ele>
        <time>2024-07-31T12:07:46.787Z</time>
      </trkpt>
      <trkpt lat="54.51006" lon="16.91361">
        <ele>70.173854</ele>
        <time>2024-07-31T12:07:49.786Z</time>
      </trkpt>
      <trkpt lat="54.50999" lon="16.91374">
        <ele>70.046788</ele>
        <time>2024-07-31T12:07:55.769Z</time>
      </trkpt>
      <trkpt lat="54.5099" lon="16.91385">
        <ele>69.911152</ele>
        <time>2024-07-31T12:08:01.783Z</time>
      </trkpt>
      <trkpt lat="54.5098" lon="16.91387">
        <ele>69.790629</ele>
        <time>2024-07-31T12:08:04.789Z</time>
      </trkpt>
      <trkpt lat="54.5097" lon="16.9139">
        <ele>69.659617</ele>
        <time>2024-07-31T12:08:07.781Z</time>
      </trkpt>
      <trkpt lat="54.50958" lon="16.91394">
        <ele>69.515417</ele>
        <time>2024-07-31T12:08:10.784Z</time>
      </trkpt>
      <trkpt lat="54.50947" lon="16.91398">
        <ele>69.410376</ele>
        <time>2024-07-31T12:08:13.787Z</time>
      </trkpt>
      <trkpt lat="54.50934" lon="16.91404">
        <ele>69.346733</ele>
        <time>2024-07-31T12:08:16.785Z</time>
      </trkpt>
      <trkpt lat="54.50921" lon="16.91408">
        <ele>69.278805</ele>
        <time>2024-07-31T12:08:19.778Z</time>
      </trkpt>
      <trkpt lat="54.50912" lon="16.91411">
        <ele>69.232849</ele>
        <time>2024-07-31T12:08:21.789Z</time>
      </trkpt>
      <trkpt lat="54.509" lon="16.91417">
        <ele>69.1678</ele>
        <time>2024-07-31T12:08:24.795Z</time>
      </trkpt>
      <trkpt lat="54.50887" lon="16.91422">
        <ele>69.103929</ele>
        <time>2024-07-31T12:08:27.792Z</time>
      </trkpt>
      <trkpt lat="54.50878" lon="16.91425">
        <ele>69.057871</ele>
        <time>2024-07-31T12:08:29.800Z</time>
      </trkpt>
      <trkpt lat="54.50866" lon="16.91429">
        <ele>68.992871</ele>
        <time>2024-07-31T12:08:32.792Z</time>
      </trkpt>
      <trkpt lat="54.50857" lon="16.91432">
        <ele>68.94725</ele>
        <time>2024-07-31T12:08:34.798Z</time>
      </trkpt>
      <trkpt lat="54.50844" lon="16.91438">
        <ele>68.881024</ele>
        <time>2024-07-31T12:08:37.788Z</time>
      </trkpt>
      <trkpt lat="54.5083" lon="16.91442">
        <ele>68.811907</ele>
        <time>2024-07-31T12:08:40.782Z</time>
      </trkpt>
      <trkpt lat="54.50821" lon="16.91445">
        <ele>68.76414</ele>
        <time>2024-07-31T12:08:42.778Z</time>
      </trkpt>
      <trkpt lat="54.50812" lon="16.91449">
        <ele>68.718501</ele>
        <time>2024-07-31T12:08:44.776Z</time>
      </trkpt>
      <trkpt lat="54.50803" lon="16.91452">
        <ele>68.671343</ele>
        <time>2024-07-31T12:08:46.800Z</time>
      </trkpt>
      <trkpt lat="54.50794" lon="16.91457">
        <ele>68.622902</ele>
        <time>2024-07-31T12:08:48.788Z</time>
      </trkpt>
      <trkpt lat="54.50784" lon="16.9146">
        <ele>68.573539</ele>
        <time>2024-07-31T12:08:50.784Z</time>
      </trkpt>
      <trkpt lat="54.50775" lon="16.91464">
        <ele>68.534556</ele>
        <time>2024-07-31T12:08:52.770Z</time>
      </trkpt>
      <trkpt lat="54.50765" lon="16.91467">
        <ele>68.527906</ele>
        <time>2024-07-31T12:08:54.781Z</time>
      </trkpt>
      <trkpt lat="54.50756" lon="16.91471">
        <ele>68.521349</ele>
        <time>2024-07-31T12:08:56.792Z</time>
      </trkpt>
      <trkpt lat="54.50747" lon="16.91475">
        <ele>68.514854</ele>
        <time>2024-07-31T12:08:58.789Z</time>
      </trkpt>
      <trkpt lat="54.50738" lon="16.91479">
        <ele>68.508465</ele>
        <time>2024-07-31T12:09:00.795Z</time>
      </trkpt>
      <trkpt lat="54.50729" lon="16.91482">
        <ele>68.502102</ele>
        <time>2024-07-31T12:09:02.784Z</time>
      </trkpt>
      <trkpt lat="54.5072" lon="16.91485">
        <ele>68.495636</ele>
        <time>2024-07-31T12:09:04.792Z</time>
      </trkpt>
      <trkpt lat="54.50711" lon="16.91488">
        <ele>68.489117</ele>
        <time>2024-07-31T12:09:06.791Z</time>
      </trkpt>
      <trkpt lat="54.50702" lon="16.91491">
        <ele>68.482862</ele>
        <time>2024-07-31T12:09:08.796Z</time>
      </trkpt>
      <trkpt lat="54.50693" lon="16.91495">
        <ele>68.476364</ele>
        <time>2024-07-31T12:09:10.813Z</time>
      </trkpt>
      <trkpt lat="54.50683" lon="16.91499">
        <ele>68.469706</ele>
        <time>2024-07-31T12:09:12.795Z</time>
      </trkpt>
      <trkpt lat="54.50674" lon="16.91502">
        <ele>68.463293</ele>
        <time>2024-07-31T12:09:14.785Z</time>
      </trkpt>
      <trkpt lat="54.50665" lon="16.91505">
        <ele>68.456736</ele>
        <time>2024-07-31T12:09:16.789Z</time>
      </trkpt>
      <trkpt lat="54.50655" lon="16.91509">
        <ele>68.450086</ele>
        <time>2024-07-31T12:09:18.803Z</time>
      </trkpt>
      <trkpt lat="54.50643" lon="16.91514">
        <ele>68.441014</ele>
        <time>2024-07-31T12:09:21.804Z</time>
      </trkpt>
      <trkpt lat="54.50634" lon="16.91519">
        <ele>68.434837</ele>
        <time>2024-07-31T12:09:23.778Z</time>
      </trkpt>
      <trkpt lat="54.50625" lon="16.91523">
        <ele>68.428598</ele>
        <time>2024-07-31T12:09:25.787Z</time>
      </trkpt>
      <trkpt lat="54.50616" lon="16.91526">
        <ele>68.422303</ele>
        <time>2024-07-31T12:09:27.759Z</time>
      </trkpt>
      <trkpt lat="54.50603" lon="16.9153">
        <ele>68.413006</ele>
        <time>2024-07-31T12:09:30.778Z</time>
      </trkpt>
      <trkpt lat="54.5059" lon="16.91533">
        <ele>68.448451</ele>
        <time>2024-07-31T12:09:33.782Z</time>
      </trkpt>
      <trkpt lat="54.50581" lon="16.91536">
        <ele>68.478542</ele>
        <time>2024-07-31T12:09:35.795Z</time>
      </trkpt>
      <trkpt lat="54.50568" lon="16.91543">
        <ele>68.523702</ele>
        <time>2024-07-31T12:09:38.811Z</time>
      </trkpt>
      <trkpt lat="54.50559" lon="16.91546">
        <ele>68.553645</ele>
        <time>2024-07-31T12:09:40.780Z</time>
      </trkpt>
      <trkpt lat="54.5055" lon="16.91549">
        <ele>68.583542</ele>
        <time>2024-07-31T12:09:42.773Z</time>
      </trkpt>
      <trkpt lat="54.50541" lon="16.91552">
        <ele>68.612878</ele>
        <time>2024-07-31T12:09:44.775Z</time>
      </trkpt>
      <trkpt lat="54.50528" lon="16.91558">
        <ele>68.656338</ele>
        <time>2024-07-31T12:09:47.781Z</time>
      </trkpt>
      <trkpt lat="54.50519" lon="16.91562">
        <ele>68.686597</ele>
        <time>2024-07-31T12:09:49.804Z</time>
      </trkpt>
      <trkpt lat="54.5051" lon="16.91565">
        <ele>68.716812</ele>
        <time>2024-07-31T12:09:51.764Z</time>
      </trkpt>
      <trkpt lat="54.50501" lon="16.91568">
        <ele>68.747433</ele>
        <time>2024-07-31T12:09:53.788Z</time>
      </trkpt>
      <trkpt lat="54.50492" lon="16.91572">
        <ele>68.777783</ele>
        <time>2024-07-31T12:09:55.802Z</time>
      </trkpt>
      <trkpt lat="54.5048" lon="16.91577">
        <ele>68.82011</ele>
        <time>2024-07-31T12:09:58.812Z</time>
      </trkpt>
      <trkpt lat="54.50466" lon="16.91582">
        <ele>68.864721</ele>
        <time>2024-07-31T12:10:01.783Z</time>
      </trkpt>
      <trkpt lat="54.50453" lon="16.91587">
        <ele>68.90818</ele>
        <time>2024-07-31T12:10:04.786Z</time>
      </trkpt>
      <trkpt lat="54.5044" lon="16.91592">
        <ele>68.9513</ele>
        <time>2024-07-31T12:10:07.793Z</time>
      </trkpt>
      <trkpt lat="54.50428" lon="16.91596">
        <ele>68.991307</ele>
        <time>2024-07-31T12:10:10.804Z</time>
      </trkpt>
      <trkpt lat="54.50416" lon="16.91601">
        <ele>68.990567</ele>
        <time>2024-07-31T12:10:13.789Z</time>
      </trkpt>
      <trkpt lat="54.50404" lon="16.91604">
        <ele>68.97855</ele>
        <time>2024-07-31T12:10:16.787Z</time>
      </trkpt>
      <trkpt lat="54.50391" lon="16.91609">
        <ele>68.966321</ele>
        <time>2024-07-31T12:10:19.779Z</time>
      </trkpt>
      <trkpt lat="54.50379" lon="16.91617">
        <ele>68.953976</ele>
        <time>2024-07-31T12:10:22.783Z</time>
      </trkpt>
      <trkpt lat="54.50366" lon="16.91624">
        <ele>68.941218</ele>
        <time>2024-07-31T12:10:25.792Z</time>
      </trkpt>
      <trkpt lat="54.50357" lon="16.91629">
        <ele>68.932318</ele>
        <time>2024-07-31T12:10:27.781Z</time>
      </trkpt>
      <trkpt lat="54.50344" lon="16.91636">
        <ele>68.919623</ele>
        <time>2024-07-31T12:10:30.786Z</time>
      </trkpt>
      <trkpt lat="54.50335" lon="16.9164">
        <ele>68.910843</ele>
        <time>2024-07-31T12:10:32.794Z</time>
      </trkpt>
      <trkpt lat="54.50322" lon="16.91645">
        <ele>68.898179</ele>
        <time>2024-07-31T12:10:35.784Z</time>
      </trkpt>
      <trkpt lat="54.50313" lon="16.91649">
        <ele>68.889359</ele>
        <time>2024-07-31T12:10:37.800Z</time>
      </trkpt>
      <trkpt lat="54.50305" lon="16.91652">
        <ele>68.880801</ele>
        <time>2024-07-31T12:10:39.786Z</time>
      </trkpt>
      <trkpt lat="54.50296" lon="16.91656">
        <ele>68.872126</ele>
        <time>2024-07-31T12:10:41.799Z</time>
      </trkpt>
      <trkpt lat="54.50283" lon="16.91661">
        <ele>68.859474</ele>
        <time>2024-07-31T12:10:44.800Z</time>
      </trkpt>
      <trkpt lat="54.50269" lon="16.91666">
        <ele>68.846509</ele>
        <time>2024-07-31T12:10:47.776Z</time>
      </trkpt>
      <trkpt lat="54.5026" lon="16.9167">
        <ele>68.837689</ele>
        <time>2024-07-31T12:10:49.786Z</time>
      </trkpt>
      <trkpt lat="54.50251" lon="16.91673">
        <ele>68.833564</ele>
        <time>2024-07-31T12:10:51.775Z</time>
      </trkpt>
      <trkpt lat="54.50241" lon="16.91677">
        <ele>68.882975</ele>
        <time>2024-07-31T12:10:53.776Z</time>
      </trkpt>
      <trkpt lat="54.50231" lon="16.9168">
        <ele>68.933104</ele>
        <time>2024-07-31T12:10:55.775Z</time>
      </trkpt>
      <trkpt lat="54.50221" lon="16.91684">
        <ele>68.980633</ele>
        <time>2024-07-31T12:10:57.777Z</time>
      </trkpt>
      <trkpt lat="54.50212" lon="16.91687">
        <ele>69.027235</ele>
        <time>2024-07-31T12:10:59.795Z</time>
      </trkpt>
      <trkpt lat="54.50202" lon="16.9169">
        <ele>69.075363</ele>
        <time>2024-07-31T12:11:01.800Z</time>
      </trkpt>
      <trkpt lat="54.50193" lon="16.91695">
        <ele>69.12151</ele>
        <time>2024-07-31T12:11:03.796Z</time>
      </trkpt>
      <trkpt lat="54.5018" lon="16.917">
        <ele>69.185566</ele>
        <time>2024-07-31T12:11:06.797Z</time>
      </trkpt>
      <trkpt lat="54.50167" lon="16.91705">
        <ele>69.249776</ele>
        <time>2024-07-31T12:11:09.794Z</time>
      </trkpt>
      <trkpt lat="54.50154" lon="16.91709">
        <ele>69.311022</ele>
        <time>2024-07-31T12:11:12.786Z</time>
      </trkpt>
      <trkpt lat="54.50142" lon="16.91713">
        <ele>69.372054</ele>
        <time>2024-07-31T12:11:15.788Z</time>
      </trkpt>
      <trkpt lat="54.5013" lon="16.91718">
        <ele>69.428886</ele>
        <time>2024-07-31T12:11:18.807Z</time>
      </trkpt>
      <trkpt lat="54.50118" lon="16.91721">
        <ele>69.486957</ele>
        <time>2024-07-31T12:11:21.812Z</time>
      </trkpt>
      <trkpt lat="54.50106" lon="16.91724">
        <ele>69.546717</ele>
        <time>2024-07-31T12:11:24.796Z</time>
      </trkpt>
      <trkpt lat="54.50094" lon="16.91717">
        <ele>69.606036</ele>
        <time>2024-07-31T12:11:27.769Z</time>
      </trkpt>
      <trkpt lat="54.50082" lon="16.91713">
        <ele>69.669244</ele>
        <time>2024-07-31T12:11:30.795Z</time>
      </trkpt>
      <trkpt lat="54.50069" lon="16.91706">
        <ele>69.685675</ele>
        <time>2024-07-31T12:11:33.773Z</time>
      </trkpt>
      <trkpt lat="54.50057" lon="16.917">
        <ele>69.666474</ele>
        <time>2024-07-31T12:11:36.789Z</time>
      </trkpt>
      <trkpt lat="54.50045" lon="16.91693">
        <ele>69.647463</ele>
        <time>2024-07-31T12:11:39.781Z</time>
      </trkpt>
      <trkpt lat="54.50032" lon="16.91688">
        <ele>69.628209</ele>
        <time>2024-07-31T12:11:42.791Z</time>
      </trkpt>
      <trkpt lat="54.5002" lon="16.91682">
        <ele>69.608862</ele>
        <time>2024-07-31T12:11:45.791Z</time>
      </trkpt>
      <trkpt lat="54.50008" lon="16.91676">
        <ele>69.589585</ele>
        <time>2024-07-31T12:11:48.785Z</time>
      </trkpt>
      <trkpt lat="54.49995" lon="16.91671">
        <ele>69.570082</ele>
        <time>2024-07-31T12:11:51.780Z</time>
      </trkpt>
      <trkpt lat="54.49983" lon="16.91664">
        <ele>69.550781</ele>
        <time>2024-07-31T12:11:54.774Z</time>
      </trkpt>
      <trkpt lat="54.49971" lon="16.91657">
        <ele>69.532008</ele>
        <time>2024-07-31T12:11:57.801Z</time>
      </trkpt>
      <trkpt lat="54.49959" lon="16.91651">
        <ele>69.513073</ele>
        <time>2024-07-31T12:12:00.782Z</time>
      </trkpt>
      <trkpt lat="54.49947" lon="16.91646">
        <ele>69.493548</ele>
        <time>2024-07-31T12:12:03.797Z</time>
      </trkpt>
      <trkpt lat="54.49934" lon="16.9164">
        <ele>69.47381</ele>
        <time>2024-07-31T12:12:06.763Z</time>
      </trkpt>
      <trkpt lat="54.49922" lon="16.91634">
        <ele>69.453992</ele>
        <time>2024-07-31T12:12:09.785Z</time>
      </trkpt>
      <trkpt lat="54.49909" lon="16.91628">
        <ele>69.434861</ele>
        <time>2024-07-31T12:12:12.789Z</time>
      </trkpt>
      <trkpt lat="54.49897" lon="16.91621">
        <ele>69.482237</ele>
        <time>2024-07-31T12:12:15.782Z</time>
      </trkpt>
      <trkpt lat="54.49884" lon="16.91614">
        <ele>69.597003</ele>
        <time>2024-07-31T12:12:18.810Z</time>
      </trkpt>
      <trkpt lat="54.49871" lon="16.91609">
        <ele>69.706044</ele>
        <time>2024-07-31T12:12:21.793Z</time>
      </trkpt>
      <trkpt lat="54.49859" lon="16.91603">
        <ele>69.811938</ele>
        <time>2024-07-31T12:12:24.786Z</time>
      </trkpt>
      <trkpt lat="54.49848" lon="16.91596">
        <ele>69.914652</ele>
        <time>2024-07-31T12:12:27.782Z</time>
      </trkpt>
      <trkpt lat="54.49836" lon="16.9159">
        <ele>70.021924</ele>
        <time>2024-07-31T12:12:30.783Z</time>
      </trkpt>
      <trkpt lat="54.49824" lon="16.91582">
        <ele>70.132584</ele>
        <time>2024-07-31T12:12:33.791Z</time>
      </trkpt>
      <trkpt lat="54.49815" lon="16.91576">
        <ele>70.213239</ele>
        <time>2024-07-31T12:12:35.778Z</time>
      </trkpt>
      <trkpt lat="54.49806" lon="16.91571">
        <ele>70.291321</ele>
        <time>2024-07-31T12:12:37.786Z</time>
      </trkpt>
      <trkpt lat="54.49797" lon="16.91566">
        <ele>70.374245</ele>
        <time>2024-07-31T12:12:39.797Z</time>
      </trkpt>
      <trkpt lat="54.49787" lon="16.91561">
        <ele>70.459398</ele>
        <time>2024-07-31T12:12:41.798Z</time>
      </trkpt>
      <trkpt lat="54.49778" lon="16.91555">
        <ele>70.540702</ele>
        <time>2024-07-31T12:12:43.786Z</time>
      </trkpt>
      <trkpt lat="54.49787" lon="16.91564">
        <ele>70.626915</ele>
        <time>2024-07-31T12:12:59.779Z</time>
      </trkpt>
      <trkpt lat="54.49794" lon="16.91554">
        <ele>70.705474</ele>
        <time>2024-07-31T12:13:07.773Z</time>
      </trkpt>
      <trkpt lat="54.49801" lon="16.91541">
        <ele>70.789395</ele>
        <time>2024-07-31T12:13:15.778Z</time>
      </trkpt>
      <trkpt lat="54.49808" lon="16.91528">
        <ele>70.874265</ele>
        <time>2024-07-31T12:13:35.784Z</time>
      </trkpt>
      <trkpt lat="54.49809" lon="16.91526">
        <ele>70.890705</ele>
        <time>2024-07-31T12:13:42.457Z</time>
      </trkpt>
      <trkpt lat="54.49802" lon="16.91539">
        <ele>70.901339</ele>
        <time>2024-07-31T12:36:01.778Z</time>
      </trkpt>
      <trkpt lat="54.49797" lon="16.91554">
        <ele>70.715928</ele>
        <time>2024-07-31T12:36:10.779Z</time>
      </trkpt>
      <trkpt lat="54.49788" lon="16.91563">
        <ele>70.539088</ele>
        <time>2024-07-31T12:36:20.779Z</time>
      </trkpt>
      <trkpt lat="54.49778" lon="16.91557">
        <ele>70.343122</ele>
        <time>2024-07-31T12:36:25.772Z</time>
      </trkpt>
      <trkpt lat="54.49767" lon="16.91554">
        <ele>70.146981</ele>
        <time>2024-07-31T12:36:29.782Z</time>
      </trkpt>
      <trkpt lat="54.49758" lon="16.91548">
        <ele>69.95877</ele>
        <time>2024-07-31T12:36:32.785Z</time>
      </trkpt>
      <trkpt lat="54.49746" lon="16.91542">
        <ele>69.746279</ele>
        <time>2024-07-31T12:36:35.782Z</time>
      </trkpt>
      <trkpt lat="54.49735" lon="16.91536">
        <ele>69.536976</ele>
        <time>2024-07-31T12:36:38.820Z</time>
      </trkpt>
      <trkpt lat="54.49724" lon="16.9153">
        <ele>69.327858</ele>
        <time>2024-07-31T12:36:41.809Z</time>
      </trkpt>
      <trkpt lat="54.49713" lon="16.91525">
        <ele>69.119697</ele>
        <time>2024-07-31T12:36:44.783Z</time>
      </trkpt>
      <trkpt lat="54.49702" lon="16.9152">
        <ele>68.908657</ele>
        <time>2024-07-31T12:36:47.796Z</time>
      </trkpt>
      <trkpt lat="54.49691" lon="16.91514">
        <ele>68.700218</ele>
        <time>2024-07-31T12:36:50.795Z</time>
      </trkpt>
      <trkpt lat="54.4968" lon="16.91508">
        <ele>68.490775</ele>
        <time>2024-07-31T12:36:53.786Z</time>
      </trkpt>
      <trkpt lat="54.49668" lon="16.91502">
        <ele>68.269006</ele>
        <time>2024-07-31T12:36:56.818Z</time>
      </trkpt>
      <trkpt lat="54.49656" lon="16.91498">
        <ele>68.04784</ele>
        <time>2024-07-31T12:36:59.794Z</time>
      </trkpt>
      <trkpt lat="54.49645" lon="16.91492">
        <ele>67.84781</ele>
        <time>2024-07-31T12:37:02.794Z</time>
      </trkpt>
      <trkpt lat="54.49636" lon="16.91487">
        <ele>67.670458</ele>
        <time>2024-07-31T12:37:05.799Z</time>
      </trkpt>
      <trkpt lat="54.49626" lon="16.91489">
        <ele>67.449412</ele>
        <time>2024-07-31T12:37:09.794Z</time>
      </trkpt>
      <trkpt lat="54.49625" lon="16.91512">
        <ele>67.164572</ele>
        <time>2024-07-31T12:37:12.778Z</time>
      </trkpt>
      <trkpt lat="54.49625" lon="16.91531">
        <ele>66.930958</ele>
        <time>2024-07-31T12:37:14.775Z</time>
      </trkpt>
      <trkpt lat="54.49623" lon="16.91549">
        <ele>66.699776</ele>
        <time>2024-07-31T12:37:16.770Z</time>
      </trkpt>
      <trkpt lat="54.49615" lon="16.9156">
        <ele>66.490899</ele>
        <time>2024-07-31T12:37:18.776Z</time>
      </trkpt>
      <trkpt lat="54.49605" lon="16.91558">
        <ele>66.262091</ele>
        <time>2024-07-31T12:37:20.794Z</time>
      </trkpt>
      <trkpt lat="54.49595" lon="16.91551">
        <ele>66.044614</ele>
        <time>2024-07-31T12:37:22.775Z</time>
      </trkpt>
      <trkpt lat="54.49586" lon="16.91546">
        <ele>65.839357</ele>
        <time>2024-07-31T12:37:24.789Z</time>
      </trkpt>
      <trkpt lat="54.49577" lon="16.91541">
        <ele>65.638466</ele>
        <time>2024-07-31T12:37:26.795Z</time>
      </trkpt>
      <trkpt lat="54.49568" lon="16.91536">
        <ele>65.440701</ele>
        <time>2024-07-31T12:37:28.794Z</time>
      </trkpt>
      <trkpt lat="54.49555" lon="16.9153">
        <ele>65.154641</ele>
        <time>2024-07-31T12:37:31.798Z</time>
      </trkpt>
      <trkpt lat="54.49543" lon="16.91525">
        <ele>64.890982</ele>
        <time>2024-07-31T12:37:34.800Z</time>
      </trkpt>
      <trkpt lat="54.49531" lon="16.91524">
        <ele>64.631145</ele>
        <time>2024-07-31T12:37:37.774Z</time>
      </trkpt>
      <trkpt lat="54.49519" lon="16.91524">
        <ele>64.375741</ele>
        <time>2024-07-31T12:37:40.778Z</time>
      </trkpt>
      <trkpt lat="54.49507" lon="16.91524">
        <ele>64.120349</ele>
        <time>2024-07-31T12:37:43.802Z</time>
      </trkpt>
      <trkpt lat="54.49495" lon="16.91524">
        <ele>63.870267</ele>
        <time>2024-07-31T12:37:46.792Z</time>
      </trkpt>
      <trkpt lat="54.49483" lon="16.91525">
        <ele>63.866202</ele>
        <time>2024-07-31T12:37:49.771Z</time>
      </trkpt>
      <trkpt lat="54.4947" lon="16.91526">
        <ele>63.862262</ele>
        <time>2024-07-31T12:37:52.801Z</time>
      </trkpt>
      <trkpt lat="54.49458" lon="16.91529">
        <ele>63.858264</ele>
        <time>2024-07-31T12:37:55.785Z</time>
      </trkpt>
      <trkpt lat="54.49447" lon="16.91533">
        <ele>63.854462</ele>
        <time>2024-07-31T12:37:58.803Z</time>
      </trkpt>
      <trkpt lat="54.49435" lon="16.9154">
        <ele>63.850384</ele>
        <time>2024-07-31T12:38:01.786Z</time>
      </trkpt>
      <trkpt lat="54.49423" lon="16.91549">
        <ele>63.846024</ele>
        <time>2024-07-31T12:38:04.782Z</time>
      </trkpt>
      <trkpt lat="54.49415" lon="16.91556">
        <ele>63.843099</ele>
        <time>2024-07-31T12:38:06.779Z</time>
      </trkpt>
      <trkpt lat="54.49405" lon="16.9157">
        <ele>63.838957</ele>
        <time>2024-07-31T12:38:09.774Z</time>
      </trkpt>
      <trkpt lat="54.49398" lon="16.9158">
        <ele>63.835988</ele>
        <time>2024-07-31T12:38:11.800Z</time>
      </trkpt>
      <trkpt lat="54.49387" lon="16.91596">
        <ele>63.831541</ele>
        <time>2024-07-31T12:38:14.776Z</time>
      </trkpt>
      <trkpt lat="54.4938" lon="16.91606">
        <ele>63.82856</ele>
        <time>2024-07-31T12:38:16.791Z</time>
      </trkpt>
      <trkpt lat="54.4937" lon="16.9162">
        <ele>63.82426</ele>
        <time>2024-07-31T12:38:19.785Z</time>
      </trkpt>
      <trkpt lat="54.49362" lon="16.9163">
        <ele>63.821122</ele>
        <time>2024-07-31T12:38:21.793Z</time>
      </trkpt>
      <trkpt lat="54.49355" lon="16.9164">
        <ele>63.81811</ele>
        <time>2024-07-31T12:38:23.791Z</time>
      </trkpt>
      <trkpt lat="54.49347" lon="16.9165">
        <ele>63.81498</ele>
        <time>2024-07-31T12:38:25.803Z</time>
      </trkpt>
      <trkpt lat="54.4934" lon="16.91659">
        <ele>63.811991</ele>
        <time>2024-07-31T12:38:27.787Z</time>
      </trkpt>
      <trkpt lat="54.49332" lon="16.91669">
        <ele>63.800599</ele>
        <time>2024-07-31T12:38:29.783Z</time>
      </trkpt>
      <trkpt lat="54.49325" lon="16.91678">
        <ele>63.789582</ele>
        <time>2024-07-31T12:38:31.805Z</time>
      </trkpt>
      <trkpt lat="54.49317" lon="16.91686">
        <ele>63.778484</ele>
        <time>2024-07-31T12:38:33.792Z</time>
      </trkpt>
      <trkpt lat="54.4931" lon="16.91696">
        <ele>63.767442</ele>
        <time>2024-07-31T12:38:35.787Z</time>
      </trkpt>
      <trkpt lat="54.49299" lon="16.91707">
        <ele>63.751444</ele>
        <time>2024-07-31T12:38:38.790Z</time>
      </trkpt>
      <trkpt lat="54.4929" lon="16.91717">
        <ele>63.739403</ele>
        <time>2024-07-31T12:38:40.782Z</time>
      </trkpt>
      <trkpt lat="54.49282" lon="16.91726">
        <ele>63.727335</ele>
        <time>2024-07-31T12:38:42.803Z</time>
      </trkpt>
      <trkpt lat="54.49273" lon="16.91734">
        <ele>63.715341</ele>
        <time>2024-07-31T12:38:44.795Z</time>
      </trkpt>
      <trkpt lat="54.49265" lon="16.91742">
        <ele>63.703353</ele>
        <time>2024-07-31T12:38:46.797Z</time>
      </trkpt>
      <trkpt lat="54.49257" lon="16.91751">
        <ele>63.692052</ele>
        <time>2024-07-31T12:38:48.796Z</time>
      </trkpt>
      <trkpt lat="54.49245" lon="16.91762">
        <ele>63.67595</ele>
        <time>2024-07-31T12:38:51.784Z</time>
      </trkpt>
      <trkpt lat="54.49237" lon="16.9177">
        <ele>63.664454</ele>
        <time>2024-07-31T12:38:53.776Z</time>
      </trkpt>
      <trkpt lat="54.49229" lon="16.91778">
        <ele>63.653261</ele>
        <time>2024-07-31T12:38:55.791Z</time>
      </trkpt>
      <trkpt lat="54.49221" lon="16.91785">
        <ele>63.642188</ele>
        <time>2024-07-31T12:38:57.782Z</time>
      </trkpt>
      <trkpt lat="54.49213" lon="16.91794">
        <ele>63.630411</ele>
        <time>2024-07-31T12:38:59.779Z</time>
      </trkpt>
      <trkpt lat="54.49204" lon="16.91801">
        <ele>63.618797</ele>
        <time>2024-07-31T12:39:01.777Z</time>
      </trkpt>
      <trkpt lat="54.49196" lon="16.91809">
        <ele>63.607191</ele>
        <time>2024-07-31T12:39:03.787Z</time>
      </trkpt>
      <trkpt lat="54.49188" lon="16.91816">
        <ele>63.596171</ele>
        <time>2024-07-31T12:39:05.792Z</time>
      </trkpt>
      <trkpt lat="54.4918" lon="16.91824">
        <ele>63.546276</ele>
        <time>2024-07-31T12:39:07.764Z</time>
      </trkpt>
      <trkpt lat="54.49167" lon="16.91834">
        <ele>63.453151</ele>
        <time>2024-07-31T12:39:10.787Z</time>
      </trkpt>
      <trkpt lat="54.49159" lon="16.91841">
        <ele>63.390937</ele>
        <time>2024-07-31T12:39:12.793Z</time>
      </trkpt>
      <trkpt lat="54.4915" lon="16.91849">
        <ele>63.320698</ele>
        <time>2024-07-31T12:39:14.795Z</time>
      </trkpt>
      <trkpt lat="54.49142" lon="16.91856">
        <ele>63.252483</ele>
        <time>2024-07-31T12:39:16.778Z</time>
      </trkpt>
      <trkpt lat="54.49129" lon="16.91866">
        <ele>63.159243</ele>
        <time>2024-07-31T12:39:19.800Z</time>
      </trkpt>
      <trkpt lat="54.49121" lon="16.91874">
        <ele>63.093685</ele>
        <time>2024-07-31T12:39:21.783Z</time>
      </trkpt>
      <trkpt lat="54.49112" lon="16.91881">
        <ele>63.028323</ele>
        <time>2024-07-31T12:39:23.784Z</time>
      </trkpt>
      <trkpt lat="54.49103" lon="16.91887">
        <ele>62.960015</ele>
        <time>2024-07-31T12:39:25.779Z</time>
      </trkpt>
      <trkpt lat="54.49094" lon="16.91892">
        <ele>62.891845</ele>
        <time>2024-07-31T12:39:27.803Z</time>
      </trkpt>
      <trkpt lat="54.49084" lon="16.91898">
        <ele>62.822241</ele>
        <time>2024-07-31T12:39:29.796Z</time>
      </trkpt>
      <trkpt lat="54.49076" lon="16.91903">
        <ele>62.759659</ele>
        <time>2024-07-31T12:39:31.803Z</time>
      </trkpt>
      <trkpt lat="54.49066" lon="16.91908">
        <ele>62.693405</ele>
        <time>2024-07-31T12:39:33.791Z</time>
      </trkpt>
      <trkpt lat="54.49053" lon="16.91914">
        <ele>62.600082</ele>
        <time>2024-07-31T12:39:36.799Z</time>
      </trkpt>
      <trkpt lat="54.49044" lon="16.91917">
        <ele>62.533517</ele>
        <time>2024-07-31T12:39:38.803Z</time>
      </trkpt>
      <trkpt lat="54.49035" lon="16.91918">
        <ele>62.469897</ele>
        <time>2024-07-31T12:39:40.785Z</time>
      </trkpt>
      <trkpt lat="54.49025" lon="16.91918">
        <ele>62.403034</ele>
        <time>2024-07-31T12:39:42.794Z</time>
      </trkpt>
      <trkpt lat="54.49015" lon="16.91919">
        <ele>62.350653</ele>
        <time>2024-07-31T12:39:44.779Z</time>
      </trkpt>
      <trkpt lat="54.49005" lon="16.9192">
        <ele>62.3392</ele>
        <time>2024-07-31T12:39:46.809Z</time>
      </trkpt>
      <trkpt lat="54.48995" lon="16.9192">
        <ele>62.32683</ele>
        <time>2024-07-31T12:39:48.778Z</time>
      </trkpt>
      <trkpt lat="54.48985" lon="16.91921">
        <ele>62.31511</ele>
        <time>2024-07-31T12:39:50.786Z</time>
      </trkpt>
      <trkpt lat="54.48975" lon="16.91922">
        <ele>62.303203</ele>
        <time>2024-07-31T12:39:52.779Z</time>
      </trkpt>
      <trkpt lat="54.48965" lon="16.9192">
        <ele>62.291776</ele>
        <time>2024-07-31T12:39:54.785Z</time>
      </trkpt>
      <trkpt lat="54.48956" lon="16.91916">
        <ele>62.280751</ele>
        <time>2024-07-31T12:39:56.768Z</time>
      </trkpt>
      <trkpt lat="54.48946" lon="16.91913">
        <ele>62.268894</ele>
        <time>2024-07-31T12:39:58.810Z</time>
      </trkpt>
      <trkpt lat="54.48936" lon="16.9191">
        <ele>62.257218</ele>
        <time>2024-07-31T12:40:00.797Z</time>
      </trkpt>
      <trkpt lat="54.48927" lon="16.91911">
        <ele>62.246714</ele>
        <time>2024-07-31T12:40:02.781Z</time>
      </trkpt>
      <trkpt lat="54.48917" lon="16.91914">
        <ele>62.235544</ele>
        <time>2024-07-31T12:40:04.771Z</time>
      </trkpt>
      <trkpt lat="54.48908" lon="16.91921">
        <ele>62.224129</ele>
        <time>2024-07-31T12:40:06.778Z</time>
      </trkpt>
      <trkpt lat="54.48899" lon="16.91918">
        <ele>62.212673</ele>
        <time>2024-07-31T12:40:08.784Z</time>
      </trkpt>
      <trkpt lat="54.48892" lon="16.91907">
        <ele>62.201165</ele>
        <time>2024-07-31T12:40:10.779Z</time>
      </trkpt>
      <trkpt lat="54.48882" lon="16.91891">
        <ele>62.185692</ele>
        <time>2024-07-31T12:40:13.788Z</time>
      </trkpt>
      <trkpt lat="54.48875" lon="16.91881">
        <ele>62.175167</ele>
        <time>2024-07-31T12:40:15.786Z</time>
      </trkpt>
      <trkpt lat="54.48867" lon="16.91864">
        <ele>62.160319</ele>
        <time>2024-07-31T12:40:18.804Z</time>
      </trkpt>
      <trkpt lat="54.4886" lon="16.91853">
        <ele>62.149505</ele>
        <time>2024-07-31T12:40:20.781Z</time>
      </trkpt>
      <trkpt lat="54.48851" lon="16.91837">
        <ele>62.161005</ele>
        <time>2024-07-31T12:40:23.778Z</time>
      </trkpt>
      <trkpt lat="54.48844" lon="16.91823">
        <ele>62.185192</ele>
        <time>2024-07-31T12:40:26.785Z</time>
      </trkpt>
      <trkpt lat="54.48837" lon="16.91809">
        <ele>62.206701</ele>
        <time>2024-07-31T12:40:30.784Z</time>
      </trkpt>
      <trkpt lat="54.48829" lon="16.91795">
        <ele>62.231791</ele>
        <time>2024-07-31T12:42:26.778Z</time>
      </trkpt>
      <trkpt lat="54.48819" lon="16.91797">
        <ele>62.254079</ele>
        <time>2024-07-31T12:42:33.781Z</time>
      </trkpt>
      <trkpt lat="54.4881" lon="16.91811">
        <ele>62.280262</ele>
        <time>2024-07-31T12:42:37.784Z</time>
      </trkpt>
      <trkpt lat="54.48801" lon="16.91824">
        <ele>62.304818</ele>
        <time>2024-07-31T12:42:40.783Z</time>
      </trkpt>
      <trkpt lat="54.48791" lon="16.91839">
        <ele>62.333765</ele>
        <time>2024-07-31T12:42:43.802Z</time>
      </trkpt>
      <trkpt lat="54.48783" lon="16.91849">
        <ele>62.354398</ele>
        <time>2024-07-31T12:42:45.782Z</time>
      </trkpt>
      <trkpt lat="54.48776" lon="16.9186">
        <ele>62.375272</ele>
        <time>2024-07-31T12:42:47.803Z</time>
      </trkpt>
      <trkpt lat="54.48769" lon="16.91871">
        <ele>62.396227</ele>
        <time>2024-07-31T12:42:49.787Z</time>
      </trkpt>
      <trkpt lat="54.48761" lon="16.91882">
        <ele>62.417265</ele>
        <time>2024-07-31T12:42:51.793Z</time>
      </trkpt>
      <trkpt lat="54.48753" lon="16.91893">
        <ele>62.438569</ele>
        <time>2024-07-31T12:42:53.777Z</time>
      </trkpt>
      <trkpt lat="54.48746" lon="16.91903">
        <ele>62.459773</ele>
        <time>2024-07-31T12:42:55.798Z</time>
      </trkpt>
      <trkpt lat="54.48738" lon="16.91913">
        <ele>62.480507</ele>
        <time>2024-07-31T12:42:57.798Z</time>
      </trkpt>
      <trkpt lat="54.4873" lon="16.91923">
        <ele>62.500842</ele>
        <time>2024-07-31T12:42:59.782Z</time>
      </trkpt>
      <trkpt lat="54.48723" lon="16.91932">
        <ele>62.52108</ele>
        <time>2024-07-31T12:43:01.803Z</time>
      </trkpt>
      <trkpt lat="54.48715" lon="16.91942">
        <ele>62.582041</ele>
        <time>2024-07-31T12:43:03.780Z</time>
      </trkpt>
      <trkpt lat="54.48707" lon="16.91951">
        <ele>62.680062</ele>
        <time>2024-07-31T12:43:05.784Z</time>
      </trkpt>
      <trkpt lat="54.487" lon="16.91961">
        <ele>62.779869</ele>
        <time>2024-07-31T12:43:07.788Z</time>
      </trkpt>
      <trkpt lat="54.48692" lon="16.9197">
        <ele>62.878401</ele>
        <time>2024-07-31T12:43:09.796Z</time>
      </trkpt>
      <trkpt lat="54.48684" lon="16.9198">
        <ele>62.977756</ele>
        <time>2024-07-31T12:43:11.791Z</time>
      </trkpt>
      <trkpt lat="54.48676" lon="16.9199">
        <ele>63.075451</ele>
        <time>2024-07-31T12:43:13.791Z</time>
      </trkpt>
      <trkpt lat="54.48669" lon="16.91999">
        <ele>63.172793</ele>
        <time>2024-07-31T12:43:15.787Z</time>
      </trkpt>
      <trkpt lat="54.48661" lon="16.92009">
        <ele>63.272707</ele>
        <time>2024-07-31T12:43:17.791Z</time>
      </trkpt>
      <trkpt lat="54.48653" lon="16.92019">
        <ele>63.371625</ele>
        <time>2024-07-31T12:43:19.775Z</time>
      </trkpt>
      <trkpt lat="54.48645" lon="16.9203">
        <ele>63.475206</ele>
        <time>2024-07-31T12:43:21.784Z</time>
      </trkpt>
      <trkpt lat="54.48638" lon="16.92041">
        <ele>63.575618</ele>
        <time>2024-07-31T12:43:23.796Z</time>
      </trkpt>
      <trkpt lat="54.48631" lon="16.92052">
        <ele>63.675268</ele>
        <time>2024-07-31T12:43:25.789Z</time>
      </trkpt>
      <trkpt lat="54.48624" lon="16.92063">
        <ele>63.771774</ele>
        <time>2024-07-31T12:43:27.802Z</time>
      </trkpt>
      <trkpt lat="54.48614" lon="16.92077">
        <ele>63.897973</ele>
        <time>2024-07-31T12:43:30.775Z</time>
      </trkpt>
      <trkpt lat="54.48605" lon="16.9209">
        <ele>64.021828</ele>
        <time>2024-07-31T12:43:33.790Z</time>
      </trkpt>
      <trkpt lat="54.48597" lon="16.92104">
        <ele>64.14259</ele>
        <time>2024-07-31T12:43:36.791Z</time>
      </trkpt>
      <trkpt lat="54.48589" lon="16.92115">
        <ele>64.250432</ele>
        <time>2024-07-31T12:43:39.791Z</time>
      </trkpt>
      <trkpt lat="54.48582" lon="16.92129">
        <ele>64.353034</ele>
        <time>2024-07-31T12:43:42.797Z</time>
      </trkpt>
      <trkpt lat="54.48576" lon="16.92143">
        <ele>64.644017</ele>
        <time>2024-07-31T12:43:45.770Z</time>
      </trkpt>
      <trkpt lat="54.4857" lon="16.92158">
        <ele>65.018071</ele>
        <time>2024-07-31T12:43:48.794Z</time>
      </trkpt>
      <trkpt lat="54.48563" lon="16.92174">
        <ele>65.400866</ele>
        <time>2024-07-31T12:43:51.788Z</time>
      </trkpt>
      <trkpt lat="54.48557" lon="16.9219">
        <ele>65.772151</ele>
        <time>2024-07-31T12:43:54.803Z</time>
      </trkpt>
      <trkpt lat="54.48551" lon="16.92203">
        <ele>66.105739</ele>
        <time>2024-07-31T12:43:57.773Z</time>
      </trkpt>
      <trkpt lat="54.48545" lon="16.9222">
        <ele>66.507262</ele>
        <time>2024-07-31T12:44:01.763Z</time>
      </trkpt>
      <trkpt lat="54.4854" lon="16.92233">
        <ele>66.819041</ele>
        <time>2024-07-31T12:44:04.766Z</time>
      </trkpt>
      <trkpt lat="54.48534" lon="16.92248">
        <ele>67.188698</ele>
        <time>2024-07-31T12:44:08.792Z</time>
      </trkpt>
      <trkpt lat="54.48526" lon="16.92262">
        <ele>67.558706</ele>
        <time>2024-07-31T12:44:12.769Z</time>
      </trkpt>
      <trkpt lat="54.48522" lon="16.92276">
        <ele>67.871949</ele>
        <time>2024-07-31T12:44:15.777Z</time>
      </trkpt>
      <trkpt lat="54.48517" lon="16.9229">
        <ele>68.207545</ele>
        <time>2024-07-31T12:44:18.756Z</time>
      </trkpt>
      <trkpt lat="54.48512" lon="16.92305">
        <ele>68.544917</ele>
        <time>2024-07-31T12:44:21.788Z</time>
      </trkpt>
      <trkpt lat="54.48507" lon="16.92319">
        <ele>68.878881</ele>
        <time>2024-07-31T12:44:24.766Z</time>
      </trkpt>
      <trkpt lat="54.48502" lon="16.92335">
        <ele>69.230236</ele>
        <time>2024-07-31T12:44:27.799Z</time>
      </trkpt>
      <trkpt lat="54.48498" lon="16.9235">
        <ele>69.571356</ele>
        <time>2024-07-31T12:44:30.768Z</time>
      </trkpt>
      <trkpt lat="54.48493" lon="16.92366">
        <ele>69.921589</ele>
        <time>2024-07-31T12:44:33.789Z</time>
      </trkpt>
      <trkpt lat="54.4849" lon="16.92381">
        <ele>70.237766</ele>
        <time>2024-07-31T12:44:36.786Z</time>
      </trkpt>
      <trkpt lat="54.48484" lon="16.92399">
        <ele>70.722964</ele>
        <time>2024-07-31T12:44:40.799Z</time>
      </trkpt>
      <trkpt lat="54.4848" lon="16.92414">
        <ele>71.26807</ele>
        <time>2024-07-31T12:44:43.795Z</time>
      </trkpt>
      <trkpt lat="54.48475" lon="16.92429">
        <ele>71.791172</ele>
        <time>2024-07-31T12:44:46.795Z</time>
      </trkpt>
      <trkpt lat="54.48471" lon="16.92443">
        <ele>72.2949</ele>
        <time>2024-07-31T12:44:49.785Z</time>
      </trkpt>
      <trkpt lat="54.48466" lon="16.9246">
        <ele>72.920595</ele>
        <time>2024-07-31T12:44:53.785Z</time>
      </trkpt>
      <trkpt lat="54.48461" lon="16.92476">
        <ele>73.510034</ele>
        <time>2024-07-31T12:44:57.795Z</time>
      </trkpt>
      <trkpt lat="54.48457" lon="16.92491">
        <ele>74.051187</ele>
        <time>2024-07-31T12:45:01.764Z</time>
      </trkpt>
      <trkpt lat="54.48452" lon="16.92508">
        <ele>74.652361</ele>
        <time>2024-07-31T12:45:05.781Z</time>
      </trkpt>
      <trkpt lat="54.48448" lon="16.92523">
        <ele>75.190142</ele>
        <time>2024-07-31T12:45:09.797Z</time>
      </trkpt>
      <trkpt lat="54.48442" lon="16.92539">
        <ele>75.771222</ele>
        <time>2024-07-31T12:45:13.781Z</time>
      </trkpt>
      <trkpt lat="54.48437" lon="16.92553">
        <ele>76.313509</ele>
        <time>2024-07-31T12:45:17.784Z</time>
      </trkpt>
      <trkpt lat="54.48433" lon="16.92568">
        <ele>76.84308</ele>
        <time>2024-07-31T12:45:21.795Z</time>
      </trkpt>
      <trkpt lat="54.48429" lon="16.92585">
        <ele>77.418776</ele>
        <time>2024-07-31T12:45:25.799Z</time>
      </trkpt>
      <trkpt lat="54.48425" lon="16.92602">
        <ele>78.014435</ele>
        <time>2024-07-31T12:45:29.779Z</time>
      </trkpt>
      <trkpt lat="54.48422" lon="16.92618">
        <ele>78.555442</ele>
        <time>2024-07-31T12:45:33.778Z</time>
      </trkpt>
      <trkpt lat="54.48419" lon="16.92635">
        <ele>79.146734</ele>
        <time>2024-07-31T12:45:38.787Z</time>
      </trkpt>
      <trkpt lat="54.48417" lon="16.92652">
        <ele>79.704795</ele>
        <time>2024-07-31T12:45:42.777Z</time>
      </trkpt>
      <trkpt lat="54.48413" lon="16.92666">
        <ele>80.206401</ele>
        <time>2024-07-31T12:45:46.790Z</time>
      </trkpt>
      <trkpt lat="54.48409" lon="16.92682">
        <ele>80.587407</ele>
        <time>2024-07-31T12:45:50.782Z</time>
      </trkpt>
      <trkpt lat="54.48404" lon="16.92699">
        <ele>80.800483</ele>
        <time>2024-07-31T12:45:55.785Z</time>
      </trkpt>
      <trkpt lat="54.48401" lon="16.92713">
        <ele>80.981456</ele>
        <time>2024-07-31T12:46:00.774Z</time>
      </trkpt>
      <trkpt lat="54.48396" lon="16.9273">
        <ele>81.19604</ele>
        <time>2024-07-31T12:46:06.832Z</time>
      </trkpt>
      <trkpt lat="54.4839" lon="16.92745">
        <ele>81.395633</ele>
        <time>2024-07-31T12:46:11.785Z</time>
      </trkpt>
      <trkpt lat="54.48385" lon="16.9276">
        <ele>81.602162</ele>
        <time>2024-07-31T12:46:17.771Z</time>
      </trkpt>
      <trkpt lat="54.4838" lon="16.92778">
        <ele>81.821437</ele>
        <time>2024-07-31T12:46:22.781Z</time>
      </trkpt>
      <trkpt lat="54.48376" lon="16.92792">
        <ele>82.010531</ele>
        <time>2024-07-31T12:46:26.781Z</time>
      </trkpt>
      <trkpt lat="54.48371" lon="16.92807">
        <ele>82.212261</ele>
        <time>2024-07-31T12:46:30.779Z</time>
      </trkpt>
      <trkpt lat="54.48367" lon="16.92824">
        <ele>82.416502</ele>
        <time>2024-07-31T12:46:34.779Z</time>
      </trkpt>
      <trkpt lat="54.48363" lon="16.9284">
        <ele>82.619222</ele>
        <time>2024-07-31T12:46:39.784Z</time>
      </trkpt>
      <trkpt lat="54.48359" lon="16.92855">
        <ele>82.801822</ele>
        <time>2024-07-31T12:46:43.789Z</time>
      </trkpt>
      <trkpt lat="54.48356" lon="16.92872">
        <ele>82.9983</ele>
        <time>2024-07-31T12:46:47.778Z</time>
      </trkpt>
      <trkpt lat="54.48353" lon="16.92887">
        <ele>83.18376</ele>
        <time>2024-07-31T12:46:51.791Z</time>
      </trkpt>
      <trkpt lat="54.48349" lon="16.92904">
        <ele>83.399014</ele>
        <time>2024-07-31T12:46:56.781Z</time>
      </trkpt>
      <trkpt lat="54.48346" lon="16.92919">
        <ele>83.575981</ele>
        <time>2024-07-31T12:47:00.785Z</time>
      </trkpt>
      <trkpt lat="54.48342" lon="16.92938">
        <ele>83.806151</ele>
        <time>2024-07-31T12:47:05.784Z</time>
      </trkpt>
      <trkpt lat="54.48338" lon="16.92956">
        <ele>84.024771</ele>
        <time>2024-07-31T12:47:09.789Z</time>
      </trkpt>
      <trkpt lat="54.48335" lon="16.92973">
        <ele>84.037163</ele>
        <time>2024-07-31T12:47:13.783Z</time>
      </trkpt>
      <trkpt lat="54.48331" lon="16.92991">
        <ele>84.033878</ele>
        <time>2024-07-31T12:47:17.796Z</time>
      </trkpt>
      <trkpt lat="54.48329" lon="16.93007">
        <ele>84.031031</ele>
        <time>2024-07-31T12:47:20.790Z</time>
      </trkpt>
      <trkpt lat="54.48325" lon="16.93022">
        <ele>84.028344</ele>
        <time>2024-07-31T12:47:23.760Z</time>
      </trkpt>
      <trkpt lat="54.48322" lon="16.93038">
        <ele>84.025452</ele>
        <time>2024-07-31T12:47:26.791Z</time>
      </trkpt>
      <trkpt lat="54.48319" lon="16.93054">
        <ele>84.022663</ele>
        <time>2024-07-31T12:47:29.777Z</time>
      </trkpt>
      <trkpt lat="54.48316" lon="16.93069">
        <ele>84.019964</ele>
        <time>2024-07-31T12:47:32.778Z</time>
      </trkpt>
      <trkpt lat="54.48313" lon="16.93085">
        <ele>84.017137</ele>
        <time>2024-07-31T12:47:35.783Z</time>
      </trkpt>
      <trkpt lat="54.4831" lon="16.931">
        <ele>84.01437</ele>
        <time>2024-07-31T12:47:38.784Z</time>
      </trkpt>
      <trkpt lat="54.48307" lon="16.93117">
        <ele>84.011323</ele>
        <time>2024-07-31T12:47:41.778Z</time>
      </trkpt>
      <trkpt lat="54.48303" lon="16.93133">
        <ele>84.008379</ele>
        <time>2024-07-31T12:47:44.781Z</time>
      </trkpt>
      <trkpt lat="54.483" lon="16.9315">
        <ele>84.005294</ele>
        <time>2024-07-31T12:47:47.780Z</time>
      </trkpt>
      <trkpt lat="54.48297" lon="16.93167">
        <ele>84.002369</ele>
        <time>2024-07-31T12:47:50.791Z</time>
      </trkpt>
      <trkpt lat="54.48293" lon="16.93184">
        <ele>83.999175</ele>
        <time>2024-07-31T12:47:53.790Z</time>
      </trkpt>
      <trkpt lat="54.48289" lon="16.93202">
        <ele>83.99588</ele>
        <time>2024-07-31T12:47:56.775Z</time>
      </trkpt>
      <trkpt lat="54.48286" lon="16.93221">
        <ele>83.992669</ele>
        <time>2024-07-31T12:47:59.792Z</time>
      </trkpt>
      <trkpt lat="54.48282" lon="16.93239">
        <ele>83.989352</ele>
        <time>2024-07-31T12:48:02.799Z</time>
      </trkpt>
      <trkpt lat="54.4828" lon="16.93258">
        <ele>83.98841</ele>
        <time>2024-07-31T12:48:05.785Z</time>
      </trkpt>
      <trkpt lat="54.48276" lon="16.93276">
        <ele>83.990928</ele>
        <time>2024-07-31T12:48:08.799Z</time>
      </trkpt>
      <trkpt lat="54.48273" lon="16.93297">
        <ele>83.993644</ele>
        <time>2024-07-31T12:48:11.799Z</time>
      </trkpt>
      <trkpt lat="54.4827" lon="16.93315">
        <ele>83.996198</ele>
        <time>2024-07-31T12:48:14.785Z</time>
      </trkpt>
      <trkpt lat="54.48267" lon="16.93335">
        <ele>83.998833</ele>
        <time>2024-07-31T12:48:17.792Z</time>
      </trkpt>
      <trkpt lat="54.48264" lon="16.93356">
        <ele>84.00163</ele>
        <time>2024-07-31T12:48:20.774Z</time>
      </trkpt>
      <trkpt lat="54.48262" lon="16.93376">
        <ele>84.004291</ele>
        <time>2024-07-31T12:48:23.763Z</time>
      </trkpt>
      <trkpt lat="54.48261" lon="16.93397">
        <ele>84.007058</ele>
        <time>2024-07-31T12:48:26.787Z</time>
      </trkpt>
      <trkpt lat="54.4826" lon="16.93418">
        <ele>84.00976</ele>
        <time>2024-07-31T12:48:29.791Z</time>
      </trkpt>
      <trkpt lat="54.48258" lon="16.93438">
        <ele>84.012403</ele>
        <time>2024-07-31T12:48:32.795Z</time>
      </trkpt>
      <trkpt lat="54.48257" lon="16.9346">
        <ele>84.015218</ele>
        <time>2024-07-31T12:48:35.784Z</time>
      </trkpt>
      <trkpt lat="54.48256" lon="16.93481">
        <ele>84.018058</ele>
        <time>2024-07-31T12:48:38.787Z</time>
      </trkpt>
      <trkpt lat="54.48254" lon="16.93501">
        <ele>84.02069</ele>
        <time>2024-07-31T12:48:41.795Z</time>
      </trkpt>
      <trkpt lat="54.48253" lon="16.93521">
        <ele>84.023305</ele>
        <time>2024-07-31T12:48:44.778Z</time>
      </trkpt>
      <trkpt lat="54.48251" lon="16.93541">
        <ele>84.025868</ele>
        <time>2024-07-31T12:48:47.803Z</time>
      </trkpt>
      <trkpt lat="54.4825" lon="16.93562">
        <ele>84.060645</ele>
        <time>2024-07-31T12:48:50.805Z</time>
      </trkpt>
      <trkpt lat="54.48249" lon="16.9358">
        <ele>84.144323</ele>
        <time>2024-07-31T12:48:53.782Z</time>
      </trkpt>
      <trkpt lat="54.48248" lon="16.93599">
        <ele>84.227554</ele>
        <time>2024-07-31T12:48:56.785Z</time>
      </trkpt>
      <trkpt lat="54.48246" lon="16.93617">
        <ele>84.309189</ele>
        <time>2024-07-31T12:48:59.766Z</time>
      </trkpt>
      <trkpt lat="54.48246" lon="16.93635">
        <ele>84.390585</ele>
        <time>2024-07-31T12:49:02.877Z</time>
      </trkpt>
      <trkpt lat="54.48245" lon="16.93653">
        <ele>84.472122</ele>
        <time>2024-07-31T12:49:05.786Z</time>
      </trkpt>
      <trkpt lat="54.48244" lon="16.9367">
        <ele>84.55178</ele>
        <time>2024-07-31T12:49:08.787Z</time>
      </trkpt>
      <trkpt lat="54.48242" lon="16.93689">
        <ele>84.636536</ele>
        <time>2024-07-31T12:49:11.776Z</time>
      </trkpt>
      <trkpt lat="54.48241" lon="16.93707">
        <ele>84.715661</ele>
        <time>2024-07-31T12:49:14.783Z</time>
      </trkpt>
      <trkpt lat="54.48241" lon="16.93724">
        <ele>84.794837</ele>
        <time>2024-07-31T12:49:17.768Z</time>
      </trkpt>
      <trkpt lat="54.4824" lon="16.93743">
        <ele>84.878433</ele>
        <time>2024-07-31T12:49:20.763Z</time>
      </trkpt>
      <trkpt lat="54.48239" lon="16.93761">
        <ele>84.960927</ele>
        <time>2024-07-31T12:49:23.797Z</time>
      </trkpt>
      <trkpt lat="54.48237" lon="16.93779">
        <ele>85.043454</ele>
        <time>2024-07-31T12:49:26.787Z</time>
      </trkpt>
      <trkpt lat="54.48236" lon="16.93797">
        <ele>85.124006</ele>
        <time>2024-07-31T12:49:29.793Z</time>
      </trkpt>
      <trkpt lat="54.48235" lon="16.93816">
        <ele>85.208528</ele>
        <time>2024-07-31T12:49:32.758Z</time>
      </trkpt>
      <trkpt lat="54.48234" lon="16.93834">
        <ele>85.291601</ele>
        <time>2024-07-31T12:49:35.785Z</time>
      </trkpt>
      <trkpt lat="54.48233" lon="16.93853">
        <ele>85.376465</ele>
        <time>2024-07-31T12:49:38.798Z</time>
      </trkpt>
      <trkpt lat="54.48232" lon="16.93871">
        <ele>85.46796</ele>
        <time>2024-07-31T12:49:41.799Z</time>
      </trkpt>
      <trkpt lat="54.48231" lon="16.9389">
        <ele>85.565867</ele>
        <time>2024-07-31T12:49:44.772Z</time>
      </trkpt>
      <trkpt lat="54.4823" lon="16.9391">
        <ele>85.675239</ele>
        <time>2024-07-31T12:49:47.786Z</time>
      </trkpt>
      <trkpt lat="54.48229" lon="16.9393">
        <ele>85.779104</ele>
        <time>2024-07-31T12:49:50.784Z</time>
      </trkpt>
      <trkpt lat="54.48229" lon="16.9395">
        <ele>85.885675</ele>
        <time>2024-07-31T12:49:53.773Z</time>
      </trkpt>
      <trkpt lat="54.48227" lon="16.93969">
        <ele>85.987697</ele>
        <time>2024-07-31T12:49:56.767Z</time>
      </trkpt>
      <trkpt lat="54.48225" lon="16.93989">
        <ele>86.094959</ele>
        <time>2024-07-31T12:49:59.775Z</time>
      </trkpt>
      <trkpt lat="54.48224" lon="16.94009">
        <ele>86.205703</ele>
        <time>2024-07-31T12:50:02.785Z</time>
      </trkpt>
      <trkpt lat="54.48223" lon="16.94029">
        <ele>86.313005</ele>
        <time>2024-07-31T12:50:05.788Z</time>
      </trkpt>
      <trkpt lat="54.48221" lon="16.94049">
        <ele>86.417227</ele>
        <time>2024-07-31T12:50:08.794Z</time>
      </trkpt>
      <trkpt lat="54.4822" lon="16.94067">
        <ele>86.517108</ele>
        <time>2024-07-31T12:50:11.791Z</time>
      </trkpt>
      <trkpt lat="54.48219" lon="16.94087">
        <ele>86.621316</ele>
        <time>2024-07-31T12:50:14.787Z</time>
      </trkpt>
      <trkpt lat="54.48217" lon="16.94107">
        <ele>86.728261</ele>
        <time>2024-07-31T12:50:17.801Z</time>
      </trkpt>
      <trkpt lat="54.48216" lon="16.94127">
        <ele>86.836889</ele>
        <time>2024-07-31T12:50:20.785Z</time>
      </trkpt>
      <trkpt lat="54.48215" lon="16.94147">
        <ele>86.945206</ele>
        <time>2024-07-31T12:50:23.786Z</time>
      </trkpt>
      <trkpt lat="54.48214" lon="16.94167">
        <ele>87.051449</ele>
        <time>2024-07-31T12:50:26.781Z</time>
      </trkpt>
      <trkpt lat="54.48213" lon="16.94187">
        <ele>87.041475</ele>
        <time>2024-07-31T12:50:29.806Z</time>
      </trkpt>
      <trkpt lat="54.48211" lon="16.94207">
        <ele>87.013311</ele>
        <time>2024-07-31T12:50:32.789Z</time>
      </trkpt>
      <trkpt lat="54.4821" lon="16.94228">
        <ele>86.983305</ele>
        <time>2024-07-31T12:50:35.780Z</time>
      </trkpt>
      <trkpt lat="54.48208" lon="16.94249">
        <ele>86.953461</ele>
        <time>2024-07-31T12:50:38.803Z</time>
      </trkpt>
      <trkpt lat="54.48207" lon="16.9427">
        <ele>86.924299</ele>
        <time>2024-07-31T12:50:41.786Z</time>
      </trkpt>
      <trkpt lat="54.48205" lon="16.94289">
        <ele>86.895855</ele>
        <time>2024-07-31T12:50:44.794Z</time>
      </trkpt>
      <trkpt lat="54.48204" lon="16.94309">
        <ele>86.867422</ele>
        <time>2024-07-31T12:50:47.800Z</time>
      </trkpt>
      <trkpt lat="54.48203" lon="16.94331">
        <ele>86.836315</ele>
        <time>2024-07-31T12:50:50.779Z</time>
      </trkpt>
      <trkpt lat="54.48201" lon="16.94347">
        <ele>86.814052</ele>
        <time>2024-07-31T12:50:52.782Z</time>
      </trkpt>
      <trkpt lat="54.48199" lon="16.94369">
        <ele>86.782558</ele>
        <time>2024-07-31T12:50:55.789Z</time>
      </trkpt>
      <trkpt lat="54.48198" lon="16.94392">
        <ele>86.749969</ele>
        <time>2024-07-31T12:50:58.790Z</time>
      </trkpt>
      <trkpt lat="54.48196" lon="16.94407">
        <ele>86.727608</ele>
        <time>2024-07-31T12:51:00.780Z</time>
      </trkpt>
      <trkpt lat="54.48195" lon="16.9443">
        <ele>86.69544</ele>
        <time>2024-07-31T12:51:03.774Z</time>
      </trkpt>
      <trkpt lat="54.48194" lon="16.94453">
        <ele>86.663184</ele>
        <time>2024-07-31T12:51:06.782Z</time>
      </trkpt>
      <trkpt lat="54.48192" lon="16.94475">
        <ele>86.631518</ele>
        <time>2024-07-31T12:51:09.764Z</time>
      </trkpt>
      <trkpt lat="54.4819" lon="16.94497">
        <ele>86.691633</ele>
        <time>2024-07-31T12:51:12.777Z</time>
      </trkpt>
      <trkpt lat="54.48188" lon="16.94519">
        <ele>86.759941</ele>
        <time>2024-07-31T12:51:15.798Z</time>
      </trkpt>
      <trkpt lat="54.48187" lon="16.9454">
        <ele>86.827014</ele>
        <time>2024-07-31T12:51:18.777Z</time>
      </trkpt>
      <trkpt lat="54.48185" lon="16.94562">
        <ele>86.896479</ele>
        <time>2024-07-31T12:51:21.791Z</time>
      </trkpt>
      <trkpt lat="54.48184" lon="16.94583">
        <ele>86.964072</ele>
        <time>2024-07-31T12:51:24.774Z</time>
      </trkpt>
      <trkpt lat="54.48182" lon="16.94604">
        <ele>87.029236</ele>
        <time>2024-07-31T12:51:27.803Z</time>
      </trkpt>
      <trkpt lat="54.48181" lon="16.94624">
        <ele>87.093962</ele>
        <time>2024-07-31T12:51:30.788Z</time>
      </trkpt>
      <trkpt lat="54.48179" lon="16.94644">
        <ele>87.157715</ele>
        <time>2024-07-31T12:51:33.799Z</time>
      </trkpt>
      <trkpt lat="54.48178" lon="16.94666">
        <ele>87.224434</ele>
        <time>2024-07-31T12:51:36.778Z</time>
      </trkpt>
      <trkpt lat="54.48177" lon="16.94687">
        <ele>87.2906</ele>
        <time>2024-07-31T12:51:39.781Z</time>
      </trkpt>
      <trkpt lat="54.48175" lon="16.94708">
        <ele>87.35988</ele>
        <time>2024-07-31T12:51:42.781Z</time>
      </trkpt>
      <trkpt lat="54.48174" lon="16.94731">
        <ele>87.430395</ele>
        <time>2024-07-31T12:51:45.798Z</time>
      </trkpt>
      <trkpt lat="54.48173" lon="16.94752">
        <ele>87.498117</ele>
        <time>2024-07-31T12:51:48.800Z</time>
      </trkpt>
      <trkpt lat="54.48171" lon="16.94773">
        <ele>87.564284</ele>
        <time>2024-07-31T12:51:51.787Z</time>
      </trkpt>
      <trkpt lat="54.4817" lon="16.94795">
        <ele>87.643323</ele>
        <time>2024-07-31T12:51:54.785Z</time>
      </trkpt>
      <trkpt lat="54.48167" lon="16.94816">
        <ele>87.733519</ele>
        <time>2024-07-31T12:51:57.785Z</time>
      </trkpt>
      <trkpt lat="54.48166" lon="16.94837">
        <ele>87.823569</ele>
        <time>2024-07-31T12:52:00.792Z</time>
      </trkpt>
      <trkpt lat="54.48165" lon="16.94859">
        <ele>87.918178</ele>
        <time>2024-07-31T12:52:03.785Z</time>
      </trkpt>
      <trkpt lat="54.48163" lon="16.9488">
        <ele>88.00663</ele>
        <time>2024-07-31T12:52:06.765Z</time>
      </trkpt>
      <trkpt lat="54.48162" lon="16.949">
        <ele>88.094335</ele>
        <time>2024-07-31T12:52:09.784Z</time>
      </trkpt>
      <trkpt lat="54.4816" lon="16.94921">
        <ele>88.183461</ele>
        <time>2024-07-31T12:52:12.787Z</time>
      </trkpt>
      <trkpt lat="54.48159" lon="16.94941">
        <ele>88.27048</ele>
        <time>2024-07-31T12:52:15.797Z</time>
      </trkpt>
      <trkpt lat="54.48158" lon="16.94963">
        <ele>88.361513</ele>
        <time>2024-07-31T12:52:18.793Z</time>
      </trkpt>
      <trkpt lat="54.48157" lon="16.94985">
        <ele>88.454435</ele>
        <time>2024-07-31T12:52:21.793Z</time>
      </trkpt>
      <trkpt lat="54.48155" lon="16.95005">
        <ele>88.54182</ele>
        <time>2024-07-31T12:52:24.784Z</time>
      </trkpt>
      <trkpt lat="54.48153" lon="16.95026">
        <ele>88.632985</ele>
        <time>2024-07-31T12:52:27.776Z</time>
      </trkpt>
      <trkpt lat="54.48152" lon="16.95046">
        <ele>88.719334</ele>
        <time>2024-07-31T12:52:30.785Z</time>
      </trkpt>
      <trkpt lat="54.4815" lon="16.95066">
        <ele>88.80433</ele>
        <time>2024-07-31T12:52:33.787Z</time>
      </trkpt>
      <trkpt lat="54.48149" lon="16.95082">
        <ele>88.870424</ele>
        <time>2024-07-31T12:52:35.782Z</time>
      </trkpt>
      <trkpt lat="54.48148" lon="16.95103">
        <ele>88.846115</ele>
        <time>2024-07-31T12:52:38.780Z</time>
      </trkpt>
      <trkpt lat="54.48146" lon="16.95124">
        <ele>88.717705</ele>
        <time>2024-07-31T12:52:41.781Z</time>
      </trkpt>
      <trkpt lat="54.48144" lon="16.95145">
        <ele>88.591135</ele>
        <time>2024-07-31T12:52:44.781Z</time>
      </trkpt>
      <trkpt lat="54.48143" lon="16.95166">
        <ele>88.464703</ele>
        <time>2024-07-31T12:52:47.793Z</time>
      </trkpt>
      <trkpt lat="54.48142" lon="16.95188">
        <ele>88.335177</ele>
        <time>2024-07-31T12:52:50.765Z</time>
      </trkpt>
      <trkpt lat="54.4814" lon="16.9521">
        <ele>88.204469</ele>
        <time>2024-07-31T12:52:53.793Z</time>
      </trkpt>
      <trkpt lat="54.48139" lon="16.95225">
        <ele>88.111954</ele>
        <time>2024-07-31T12:52:55.787Z</time>
      </trkpt>
      <trkpt lat="54.48138" lon="16.95248">
        <ele>87.97505</ele>
        <time>2024-07-31T12:52:58.792Z</time>
      </trkpt>
      <trkpt lat="54.48136" lon="16.95271">
        <ele>87.838637</ele>
        <time>2024-07-31T12:53:01.779Z</time>
      </trkpt>
      <trkpt lat="54.48135" lon="16.95294">
        <ele>87.701637</ele>
        <time>2024-07-31T12:53:04.790Z</time>
      </trkpt>
      <trkpt lat="54.48134" lon="16.9531">
        <ele>87.605924</ele>
        <time>2024-07-31T12:53:06.802Z</time>
      </trkpt>
      <trkpt lat="54.48134" lon="16.95325">
        <ele>87.512988</ele>
        <time>2024-07-31T12:53:08.791Z</time>
      </trkpt>
      <trkpt lat="54.48133" lon="16.95341">
        <ele>87.417452</ele>
        <time>2024-07-31T12:53:10.790Z</time>
      </trkpt>
      <trkpt lat="54.48132" lon="16.95357">
        <ele>87.322128</ele>
        <time>2024-07-31T12:53:12.802Z</time>
      </trkpt>
      <trkpt lat="54.4813" lon="16.95373">
        <ele>87.225786</ele>
        <time>2024-07-31T12:53:14.789Z</time>
      </trkpt>
      <trkpt lat="54.48129" lon="16.95389">
        <ele>87.127366</ele>
        <time>2024-07-31T12:53:16.802Z</time>
      </trkpt>
      <trkpt lat="54.48128" lon="16.95406">
        <ele>87.104343</ele>
        <time>2024-07-31T12:53:18.789Z</time>
      </trkpt>
      <trkpt lat="54.48127" lon="16.95423">
        <ele>87.192084</ele>
        <time>2024-07-31T12:53:20.795Z</time>
      </trkpt>
      <trkpt lat="54.48126" lon="16.95441">
        <ele>87.279873</ele>
        <time>2024-07-31T12:53:22.779Z</time>
      </trkpt>
      <trkpt lat="54.48125" lon="16.95458">
        <ele>87.367989</ele>
        <time>2024-07-31T12:53:24.765Z</time>
      </trkpt>
      <trkpt lat="54.48123" lon="16.95476">
        <ele>87.45964</ele>
        <time>2024-07-31T12:53:26.776Z</time>
      </trkpt>
      <trkpt lat="54.48122" lon="16.95492">
        <ele>87.543911</ele>
        <time>2024-07-31T12:53:28.800Z</time>
      </trkpt>
      <trkpt lat="54.4812" lon="16.95509">
        <ele>87.628029</ele>
        <time>2024-07-31T12:53:30.785Z</time>
      </trkpt>
      <trkpt lat="54.48119" lon="16.95524">
        <ele>87.707249</ele>
        <time>2024-07-31T12:53:32.774Z</time>
      </trkpt>
      <trkpt lat="54.48118" lon="16.95546">
        <ele>87.819112</ele>
        <time>2024-07-31T12:53:35.788Z</time>
      </trkpt>
      <trkpt lat="54.48116" lon="16.95567">
        <ele>87.927122</ele>
        <time>2024-07-31T12:53:38.795Z</time>
      </trkpt>
      <trkpt lat="54.48114" lon="16.95588">
        <ele>88.031</ele>
        <time>2024-07-31T12:53:41.772Z</time>
      </trkpt>
      <trkpt lat="54.48113" lon="16.95608">
        <ele>88.13557</ele>
        <time>2024-07-31T12:53:44.778Z</time>
      </trkpt>
      <trkpt lat="54.48112" lon="16.9563">
        <ele>88.248942</ele>
        <time>2024-07-31T12:53:47.774Z</time>
      </trkpt>
      <trkpt lat="54.48111" lon="16.95651">
        <ele>88.352756</ele>
        <time>2024-07-31T12:53:50.781Z</time>
      </trkpt>
      <trkpt lat="54.48111" lon="16.95671">
        <ele>88.455626</ele>
        <time>2024-07-31T12:53:53.791Z</time>
      </trkpt>
      <trkpt lat="54.4811" lon="16.95692">
        <ele>88.559852</ele>
        <time>2024-07-31T12:53:56.780Z</time>
      </trkpt>
      <trkpt lat="54.48109" lon="16.95714">
        <ele>88.642357</ele>
        <time>2024-07-31T12:53:59.782Z</time>
      </trkpt>
      <trkpt lat="54.48106" lon="16.95736">
        <ele>88.663964</ele>
        <time>2024-07-31T12:54:02.778Z</time>
      </trkpt>
      <trkpt lat="54.48105" lon="16.95752">
        <ele>88.678857</ele>
        <time>2024-07-31T12:54:04.773Z</time>
      </trkpt>
      <trkpt lat="54.48105" lon="16.95768">
        <ele>88.693905</ele>
        <time>2024-07-31T12:54:06.768Z</time>
      </trkpt>
      <trkpt lat="54.48104" lon="16.95784">
        <ele>88.708633</ele>
        <time>2024-07-31T12:54:08.798Z</time>
      </trkpt>
      <trkpt lat="54.48103" lon="16.95799">
        <ele>88.723421</ele>
        <time>2024-07-31T12:54:10.791Z</time>
      </trkpt>
      <trkpt lat="54.48102" lon="16.95815">
        <ele>88.738617</ele>
        <time>2024-07-31T12:54:12.797Z</time>
      </trkpt>
      <trkpt lat="54.48102" lon="16.95831">
        <ele>88.753346</ele>
        <time>2024-07-31T12:54:14.771Z</time>
      </trkpt>
      <trkpt lat="54.481" lon="16.95853">
        <ele>88.774664</ele>
        <time>2024-07-31T12:54:17.781Z</time>
      </trkpt>
      <trkpt lat="54.48099" lon="16.95876">
        <ele>88.795555</ele>
        <time>2024-07-31T12:54:20.764Z</time>
      </trkpt>
      <trkpt lat="54.48098" lon="16.95898">
        <ele>88.816696</ele>
        <time>2024-07-31T12:54:23.781Z</time>
      </trkpt>
      <trkpt lat="54.48096" lon="16.95921">
        <ele>88.838265</ele>
        <time>2024-07-31T12:54:26.781Z</time>
      </trkpt>
      <trkpt lat="54.48094" lon="16.95944">
        <ele>88.859938</ele>
        <time>2024-07-31T12:54:29.789Z</time>
      </trkpt>
      <trkpt lat="54.48093" lon="16.95959">
        <ele>88.874551</ele>
        <time>2024-07-31T12:54:31.777Z</time>
      </trkpt>
      <trkpt lat="54.48092" lon="16.95981">
        <ele>88.895442</ele>
        <time>2024-07-31T12:54:34.785Z</time>
      </trkpt>
      <trkpt lat="54.4809" lon="16.96003">
        <ele>88.916266</ele>
        <time>2024-07-31T12:54:37.789Z</time>
      </trkpt>
      <trkpt lat="54.48089" lon="16.96018">
        <ele>88.919888</ele>
        <time>2024-07-31T12:54:39.805Z</time>
      </trkpt>
      <trkpt lat="54.48087" lon="16.96041">
        <ele>88.884109</ele>
        <time>2024-07-31T12:54:42.802Z</time>
      </trkpt>
      <trkpt lat="54.48084" lon="16.96058">
        <ele>88.858623</ele>
        <time>2024-07-31T12:54:44.776Z</time>
      </trkpt>
      <trkpt lat="54.48081" lon="16.96073">
        <ele>88.833158</ele>
        <time>2024-07-31T12:54:46.782Z</time>
      </trkpt>
      <trkpt lat="54.48078" lon="16.96089">
        <ele>88.807487</ele>
        <time>2024-07-31T12:54:48.768Z</time>
      </trkpt>
      <trkpt lat="54.48074" lon="16.96105">
        <ele>88.780609</ele>
        <time>2024-07-31T12:54:50.784Z</time>
      </trkpt>
      <trkpt lat="54.48071" lon="16.96122">
        <ele>88.754625</ele>
        <time>2024-07-31T12:54:52.802Z</time>
      </trkpt>
      <trkpt lat="54.48068" lon="16.96137">
        <ele>88.72891</ele>
        <time>2024-07-31T12:54:54.764Z</time>
      </trkpt>
      <trkpt lat="54.48065" lon="16.96153">
        <ele>88.703008</ele>
        <time>2024-07-31T12:54:56.787Z</time>
      </trkpt>
      <trkpt lat="54.48062" lon="16.96169">
        <ele>88.678434</ele>
        <time>2024-07-31T12:54:58.770Z</time>
      </trkpt>
      <trkpt lat="54.48057" lon="16.9619">
        <ele>88.64272</ele>
        <time>2024-07-31T12:55:01.786Z</time>
      </trkpt>
      <trkpt lat="54.48054" lon="16.96206">
        <ele>88.61743</ele>
        <time>2024-07-31T12:55:03.782Z</time>
      </trkpt>
      <trkpt lat="54.48051" lon="16.96222">
        <ele>88.591446</ele>
        <time>2024-07-31T12:55:05.805Z</time>
      </trkpt>
      <trkpt lat="54.48047" lon="16.96238">
        <ele>88.565378</ele>
        <time>2024-07-31T12:55:07.786Z</time>
      </trkpt>
      <trkpt lat="54.48044" lon="16.96255">
        <ele>88.538812</ele>
        <time>2024-07-31T12:55:09.776Z</time>
      </trkpt>
      <trkpt lat="54.48041" lon="16.96271">
        <ele>88.512974</ele>
        <time>2024-07-31T12:55:11.796Z</time>
      </trkpt>
      <trkpt lat="54.48038" lon="16.96287">
        <ele>88.486675</ele>
        <time>2024-07-31T12:55:13.797Z</time>
      </trkpt>
      <trkpt lat="54.48035" lon="16.96303">
        <ele>88.461222</ele>
        <time>2024-07-31T12:55:15.786Z</time>
      </trkpt>
      <trkpt lat="54.48032" lon="16.96319">
        <ele>88.48038</ele>
        <time>2024-07-31T12:55:17.782Z</time>
      </trkpt>
      <trkpt lat="54.48028" lon="16.96336">
        <ele>88.522303</ele>
        <time>2024-07-31T12:55:19.793Z</time>
      </trkpt>
      <trkpt lat="54.48025" lon="16.96352">
        <ele>88.563137</ele>
        <time>2024-07-31T12:55:21.775Z</time>
      </trkpt>
      <trkpt lat="54.48022" lon="16.96368">
        <ele>88.604034</ele>
        <time>2024-07-31T12:55:23.790Z</time>
      </trkpt>
      <trkpt lat="54.48019" lon="16.96384">
        <ele>88.643523</ele>
        <time>2024-07-31T12:55:25.786Z</time>
      </trkpt>
      <trkpt lat="54.48015" lon="16.96399">
        <ele>88.682202</ele>
        <time>2024-07-31T12:55:27.797Z</time>
      </trkpt>
      <trkpt lat="54.48013" lon="16.96415">
        <ele>88.721615</ele>
        <time>2024-07-31T12:55:29.769Z</time>
      </trkpt>
      <trkpt lat="54.48009" lon="16.96431">
        <ele>88.76254</ele>
        <time>2024-07-31T12:55:31.780Z</time>
      </trkpt>
      <trkpt lat="54.48006" lon="16.96447">
        <ele>88.80218</ele>
        <time>2024-07-31T12:55:33.789Z</time>
      </trkpt>
      <trkpt lat="54.48003" lon="16.96464">
        <ele>88.844814</ele>
        <time>2024-07-31T12:55:35.779Z</time>
      </trkpt>
      <trkpt lat="54.48" lon="16.9648">
        <ele>88.884527</ele>
        <time>2024-07-31T12:55:37.783Z</time>
      </trkpt>
      <trkpt lat="54.47996" lon="16.96502">
        <ele>88.939483</ele>
        <time>2024-07-31T12:55:40.785Z</time>
      </trkpt>
      <trkpt lat="54.47991" lon="16.96522">
        <ele>88.990878</ele>
        <time>2024-07-31T12:55:43.765Z</time>
      </trkpt>
      <trkpt lat="54.47987" lon="16.96544">
        <ele>89.045155</ele>
        <time>2024-07-31T12:55:46.785Z</time>
      </trkpt>
      <trkpt lat="54.47984" lon="16.96565">
        <ele>89.097808</ele>
        <time>2024-07-31T12:55:49.774Z</time>
      </trkpt>
      <trkpt lat="54.47981" lon="16.9658">
        <ele>89.134934</ele>
        <time>2024-07-31T12:55:51.797Z</time>
      </trkpt>
      <trkpt lat="54.47978" lon="16.96595">
        <ele>89.172537</ele>
        <time>2024-07-31T12:55:53.782Z</time>
      </trkpt>
      <trkpt lat="54.47975" lon="16.9661">
        <ele>89.18133</ele>
        <time>2024-07-31T12:55:55.775Z</time>
      </trkpt>
      <trkpt lat="54.47972" lon="16.96625">
        <ele>89.168137</ele>
        <time>2024-07-31T12:55:57.797Z</time>
      </trkpt>
      <trkpt lat="54.47969" lon="16.96641">
        <ele>89.154954</ele>
        <time>2024-07-31T12:55:59.778Z</time>
      </trkpt>
      <trkpt lat="54.47965" lon="16.96662">
        <ele>89.136358</ele>
        <time>2024-07-31T12:56:02.772Z</time>
      </trkpt>
      <trkpt lat="54.47961" lon="16.96683">
        <ele>89.118385</ele>
        <time>2024-07-31T12:56:05.780Z</time>
      </trkpt>
      <trkpt lat="54.47957" lon="16.96704">
        <ele>89.100223</ele>
        <time>2024-07-31T12:56:08.785Z</time>
      </trkpt>
      <trkpt lat="54.47953" lon="16.96726">
        <ele>89.081163</ele>
        <time>2024-07-31T12:56:11.764Z</time>
      </trkpt>
      <trkpt lat="54.47949" lon="16.96747">
        <ele>89.063079</ele>
        <time>2024-07-31T12:56:14.775Z</time>
      </trkpt>
      <trkpt lat="54.47945" lon="16.96769">
        <ele>89.043769</ele>
        <time>2024-07-31T12:56:17.784Z</time>
      </trkpt>
      <trkpt lat="54.47942" lon="16.96785">
        <ele>89.029838</ele>
        <time>2024-07-31T12:56:19.781Z</time>
      </trkpt>
      <trkpt lat="54.47939" lon="16.96801">
        <ele>89.016027</ele>
        <time>2024-07-31T12:56:21.783Z</time>
      </trkpt>
      <trkpt lat="54.47936" lon="16.96818">
        <ele>89.001996</ele>
        <time>2024-07-31T12:56:23.771Z</time>
      </trkpt>
      <trkpt lat="54.47933" lon="16.96833">
        <ele>88.988579</ele>
        <time>2024-07-31T12:56:25.758Z</time>
      </trkpt>
      <trkpt lat="54.4793" lon="16.96855">
        <ele>88.969757</ele>
        <time>2024-07-31T12:56:28.784Z</time>
      </trkpt>
      <trkpt lat="54.47926" lon="16.96878">
        <ele>88.950223</ele>
        <time>2024-07-31T12:56:31.776Z</time>
      </trkpt>
      <trkpt lat="54.47923" lon="16.96893">
        <ele>88.937474</ele>
        <time>2024-07-31T12:56:33.800Z</time>
      </trkpt>
      <trkpt lat="54.4792" lon="16.96908">
        <ele>89.003162</ele>
        <time>2024-07-31T12:56:35.771Z</time>
      </trkpt>
      <trkpt lat="54.47917" lon="16.96923">
        <ele>89.096245</ele>
        <time>2024-07-31T12:56:37.777Z</time>
      </trkpt>
      <trkpt lat="54.47914" lon="16.96938">
        <ele>89.188244</ele>
        <time>2024-07-31T12:56:39.796Z</time>
      </trkpt>
      <trkpt lat="54.4791" lon="16.9696">
        <ele>89.320966</ele>
        <time>2024-07-31T12:56:42.779Z</time>
      </trkpt>
      <trkpt lat="54.47906" lon="16.96976">
        <ele>89.416495</ele>
        <time>2024-07-31T12:56:44.800Z</time>
      </trkpt>
      <trkpt lat="54.47903" lon="16.96992">
        <ele>89.511937</ele>
        <time>2024-07-31T12:56:46.791Z</time>
      </trkpt>
      <trkpt lat="54.479" lon="16.97008">
        <ele>89.612615</ele>
        <time>2024-07-31T12:56:48.801Z</time>
      </trkpt>
      <trkpt lat="54.47897" lon="16.97024">
        <ele>89.707012</ele>
        <time>2024-07-31T12:56:50.780Z</time>
      </trkpt>
      <trkpt lat="54.47895" lon="16.97039">
        <ele>89.797323</ele>
        <time>2024-07-31T12:56:52.775Z</time>
      </trkpt>
      <trkpt lat="54.47892" lon="16.97056">
        <ele>89.896094</ele>
        <time>2024-07-31T12:56:54.775Z</time>
      </trkpt>
      <trkpt lat="54.47889" lon="16.9707">
        <ele>89.98681</ele>
        <time>2024-07-31T12:56:56.785Z</time>
      </trkpt>
      <trkpt lat="54.47887" lon="16.97086">
        <ele>90.078936</ele>
        <time>2024-07-31T12:56:58.787Z</time>
      </trkpt>
      <trkpt lat="54.47884" lon="16.97101">
        <ele>90.170067</ele>
        <time>2024-07-31T12:57:00.773Z</time>
      </trkpt>
      <trkpt lat="54.4788" lon="16.97121">
        <ele>90.29226</ele>
        <time>2024-07-31T12:57:03.789Z</time>
      </trkpt>
      <trkpt lat="54.47876" lon="16.97142">
        <ele>90.418589</ele>
        <time>2024-07-31T12:57:06.782Z</time>
      </trkpt>
      <trkpt lat="54.47872" lon="16.97164">
        <ele>90.547804</ele>
        <time>2024-07-31T12:57:09.784Z</time>
      </trkpt>
      <trkpt lat="54.47868" lon="16.97184">
        <ele>90.669638</ele>
        <time>2024-07-31T12:57:12.775Z</time>
      </trkpt>
      <trkpt lat="54.47866" lon="16.97204">
        <ele>90.722378</ele>
        <time>2024-07-31T12:57:15.778Z</time>
      </trkpt>
      <trkpt lat="54.47863" lon="16.97222">
        <ele>90.736723</ele>
        <time>2024-07-31T12:57:18.791Z</time>
      </trkpt>
      <trkpt lat="54.47861" lon="16.97241">
        <ele>90.750691</ele>
        <time>2024-07-31T12:57:21.777Z</time>
      </trkpt>
      <trkpt lat="54.47857" lon="16.97261">
        <ele>90.766214</ele>
        <time>2024-07-31T12:57:24.790Z</time>
      </trkpt>
      <trkpt lat="54.47853" lon="16.97281">
        <ele>90.782476</ele>
        <time>2024-07-31T12:57:27.765Z</time>
      </trkpt>
      <trkpt lat="54.4785" lon="16.97301">
        <ele>90.798036</ele>
        <time>2024-07-31T12:57:30.780Z</time>
      </trkpt>
      <trkpt lat="54.47847" lon="16.97319">
        <ele>90.811373</ele>
        <time>2024-07-31T12:57:33.762Z</time>
      </trkpt>
      <trkpt lat="54.47845" lon="16.97337">
        <ele>90.825232</ele>
        <time>2024-07-31T12:57:36.820Z</time>
      </trkpt>
      <trkpt lat="54.4784" lon="16.97358">
        <ele>90.841951</ele>
        <time>2024-07-31T12:57:39.775Z</time>
      </trkpt>
      <trkpt lat="54.47836" lon="16.97376">
        <ele>90.856779</ele>
        <time>2024-07-31T12:57:42.794Z</time>
      </trkpt>
      <trkpt lat="54.47832" lon="16.97395">
        <ele>90.871877</ele>
        <time>2024-07-31T12:57:45.774Z</time>
      </trkpt>
      <trkpt lat="54.47829" lon="16.97416">
        <ele>90.887956</ele>
        <time>2024-07-31T12:57:48.782Z</time>
      </trkpt>
      <trkpt lat="54.47826" lon="16.97436">
        <ele>90.902944</ele>
        <time>2024-07-31T12:57:51.804Z</time>
      </trkpt>
      <trkpt lat="54.47822" lon="16.97456">
        <ele>90.918825</ele>
        <time>2024-07-31T12:57:54.782Z</time>
      </trkpt>
      <trkpt lat="54.4782" lon="16.97477">
        <ele>90.934701</ele>
        <time>2024-07-31T12:57:57.778Z</time>
      </trkpt>
      <trkpt lat="54.47816" lon="16.97498">
        <ele>90.857586</ele>
        <time>2024-07-31T12:58:00.781Z</time>
      </trkpt>
      <trkpt lat="54.47812" lon="16.9752">
        <ele>90.678627</ele>
        <time>2024-07-31T12:58:03.781Z</time>
      </trkpt>
      <trkpt lat="54.47808" lon="16.97541">
        <ele>90.502793</ele>
        <time>2024-07-31T12:58:06.763Z</time>
      </trkpt>
      <trkpt lat="54.47804" lon="16.97562">
        <ele>90.32426</ele>
        <time>2024-07-31T12:58:09.785Z</time>
      </trkpt>
      <trkpt lat="54.47802" lon="16.97585">
        <ele>90.142135</ele>
        <time>2024-07-31T12:58:12.774Z</time>
      </trkpt>
      <trkpt lat="54.47799" lon="16.976">
        <ele>90.012698</ele>
        <time>2024-07-31T12:58:14.798Z</time>
      </trkpt>
      <trkpt lat="54.47796" lon="16.9762">
        <ele>89.846815</ele>
        <time>2024-07-31T12:58:17.770Z</time>
      </trkpt>
      <trkpt lat="54.47793" lon="16.97641">
        <ele>89.674662</ele>
        <time>2024-07-31T12:58:20.771Z</time>
      </trkpt>
      <trkpt lat="54.47791" lon="16.97659">
        <ele>89.527449</ele>
        <time>2024-07-31T12:58:23.792Z</time>
      </trkpt>
      <trkpt lat="54.47789" lon="16.97675">
        <ele>89.393034</ele>
        <time>2024-07-31T12:58:26.784Z</time>
      </trkpt>
      <trkpt lat="54.4778" lon="16.97682">
        <ele>89.257788</ele>
        <time>2024-07-31T12:58:34.760Z</time>
      </trkpt>
      <trkpt lat="54.4777" lon="16.97681">
        <ele>89.123073</ele>
        <time>2024-07-31T12:58:38.792Z</time>
      </trkpt>
      <trkpt lat="54.47763" lon="16.97693">
        <ele>88.99491</ele>
        <time>2024-07-31T12:58:41.782Z</time>
      </trkpt>
      <trkpt lat="54.47761" lon="16.97712">
        <ele>88.838131</ele>
        <time>2024-07-31T12:58:44.770Z</time>
      </trkpt>
      <trkpt lat="54.47758" lon="16.97728">
        <ele>88.700646</ele>
        <time>2024-07-31T12:58:47.767Z</time>
      </trkpt>
      <trkpt lat="54.47755" lon="16.97746">
        <ele>88.55459</ele>
        <time>2024-07-31T12:58:50.798Z</time>
      </trkpt>
      <trkpt lat="54.47754" lon="16.97767">
        <ele>88.438364</ele>
        <time>2024-07-31T12:58:53.781Z</time>
      </trkpt>
      <trkpt lat="54.47751" lon="16.97787">
        <ele>88.367159</ele>
        <time>2024-07-31T12:58:56.760Z</time>
      </trkpt>
      <trkpt lat="54.47748" lon="16.9781">
        <ele>88.288997</ele>
        <time>2024-07-31T12:58:59.754Z</time>
      </trkpt>
      <trkpt lat="54.47746" lon="16.97826">
        <ele>88.231729</ele>
        <time>2024-07-31T12:59:01.775Z</time>
      </trkpt>
      <trkpt lat="54.47744" lon="16.97842">
        <ele>88.174462</ele>
        <time>2024-07-31T12:59:03.753Z</time>
      </trkpt>
      <trkpt lat="54.47741" lon="16.97858">
        <ele>88.120012</ele>
        <time>2024-07-31T12:59:05.788Z</time>
      </trkpt>
      <trkpt lat="54.47737" lon="16.9788">
        <ele>88.041128</ele>
        <time>2024-07-31T12:59:08.759Z</time>
      </trkpt>
      <trkpt lat="54.47736" lon="16.97898">
        <ele>87.981235</ele>
        <time>2024-07-31T12:59:10.781Z</time>
      </trkpt>
      <trkpt lat="54.47734" lon="16.97913">
        <ele>87.928333</ele>
        <time>2024-07-31T12:59:12.768Z</time>
      </trkpt>
      <trkpt lat="54.47731" lon="16.97929">
        <ele>87.870267</ele>
        <time>2024-07-31T12:59:14.775Z</time>
      </trkpt>
      <trkpt lat="54.47729" lon="16.97946">
        <ele>87.811723</ele>
        <time>2024-07-31T12:59:16.760Z</time>
      </trkpt>
      <trkpt lat="54.47727" lon="16.97963">
        <ele>87.753512</ele>
        <time>2024-07-31T12:59:18.777Z</time>
      </trkpt>
      <trkpt lat="54.47724" lon="16.97981">
        <ele>87.689932</ele>
        <time>2024-07-31T12:59:20.760Z</time>
      </trkpt>
      <trkpt lat="54.47722" lon="16.97999">
        <ele>87.627243</ele>
        <time>2024-07-31T12:59:22.763Z</time>
      </trkpt>
      <trkpt lat="54.47719" lon="16.98017">
        <ele>87.566284</ele>
        <time>2024-07-31T12:59:24.764Z</time>
      </trkpt>
      <trkpt lat="54.47717" lon="16.98033">
        <ele>87.507695</ele>
        <time>2024-07-31T12:59:26.764Z</time>
      </trkpt>
      <trkpt lat="54.47715" lon="16.98051">
        <ele>87.445821</ele>
        <time>2024-07-31T12:59:28.776Z</time>
      </trkpt>
      <trkpt lat="54.47713" lon="16.98069">
        <ele>87.471264</ele>
        <time>2024-07-31T12:59:30.758Z</time>
      </trkpt>
      <trkpt lat="54.4771" lon="16.98087">
        <ele>87.551826</ele>
        <time>2024-07-31T12:59:32.792Z</time>
      </trkpt>
      <trkpt lat="54.47707" lon="16.98105">
        <ele>87.632871</ele>
        <time>2024-07-31T12:59:34.776Z</time>
      </trkpt>
      <trkpt lat="54.47705" lon="16.98124">
        <ele>87.713618</ele>
        <time>2024-07-31T12:59:36.757Z</time>
      </trkpt>
      <trkpt lat="54.47703" lon="16.98142">
        <ele>87.792652</ele>
        <time>2024-07-31T12:59:38.786Z</time>
      </trkpt>
      <trkpt lat="54.477" lon="16.9816">
        <ele>87.873645</ele>
        <time>2024-07-31T12:59:40.778Z</time>
      </trkpt>
      <trkpt lat="54.47697" lon="16.98179">
        <ele>87.954781</ele>
        <time>2024-07-31T12:59:42.766Z</time>
      </trkpt>
      <trkpt lat="54.47694" lon="16.98197">
        <ele>88.037558</ele>
        <time>2024-07-31T12:59:44.779Z</time>
      </trkpt>
      <trkpt lat="54.47692" lon="16.98216">
        <ele>88.11869</ele>
        <time>2024-07-31T12:59:46.773Z</time>
      </trkpt>
      <trkpt lat="54.47689" lon="16.98234">
        <ele>88.199437</ele>
        <time>2024-07-31T12:59:48.784Z</time>
      </trkpt>
      <trkpt lat="54.47687" lon="16.98253">
        <ele>88.279651</ele>
        <time>2024-07-31T12:59:50.781Z</time>
      </trkpt>
      <trkpt lat="54.47684" lon="16.98271">
        <ele>88.35838</ele>
        <time>2024-07-31T12:59:52.784Z</time>
      </trkpt>
      <trkpt lat="54.47682" lon="16.98289">
        <ele>88.440598</ele>
        <time>2024-07-31T12:59:54.781Z</time>
      </trkpt>
      <trkpt lat="54.47679" lon="16.98308">
        <ele>88.523473</ele>
        <time>2024-07-31T12:59:56.778Z</time>
      </trkpt>
      <trkpt lat="54.47677" lon="16.98327">
        <ele>88.607257</ele>
        <time>2024-07-31T12:59:58.783Z</time>
      </trkpt>
      <trkpt lat="54.47675" lon="16.98346">
        <ele>88.688668</ele>
        <time>2024-07-31T13:00:00.778Z</time>
      </trkpt>
      <trkpt lat="54.47672" lon="16.98365">
        <ele>88.744958</ele>
        <time>2024-07-31T13:00:02.781Z</time>
      </trkpt>
      <trkpt lat="54.4767" lon="16.98384">
        <ele>88.746722</ele>
        <time>2024-07-31T13:00:04.781Z</time>
      </trkpt>
      <trkpt lat="54.47667" lon="16.98403">
        <ele>88.748426</ele>
        <time>2024-07-31T13:00:06.798Z</time>
      </trkpt>
      <trkpt lat="54.47664" lon="16.98422">
        <ele>88.750136</ele>
        <time>2024-07-31T13:00:08.781Z</time>
      </trkpt>
      <trkpt lat="54.47661" lon="16.98441">
        <ele>88.751877</ele>
        <time>2024-07-31T13:00:10.775Z</time>
      </trkpt>
      <trkpt lat="54.47658" lon="16.9846">
        <ele>88.753615</ele>
        <time>2024-07-31T13:00:12.770Z</time>
      </trkpt>
      <trkpt lat="54.47656" lon="16.98479">
        <ele>88.7553</ele>
        <time>2024-07-31T13:00:14.773Z</time>
      </trkpt>
      <trkpt lat="54.47653" lon="16.98497">
        <ele>88.75697</ele>
        <time>2024-07-31T13:00:16.777Z</time>
      </trkpt>
      <trkpt lat="54.47651" lon="16.98515">
        <ele>88.758549</ele>
        <time>2024-07-31T13:00:18.785Z</time>
      </trkpt>
      <trkpt lat="54.47648" lon="16.98533">
        <ele>88.760224</ele>
        <time>2024-07-31T13:00:20.769Z</time>
      </trkpt>
      <trkpt lat="54.47646" lon="16.98551">
        <ele>88.76186</ele>
        <time>2024-07-31T13:00:22.787Z</time>
      </trkpt>
      <trkpt lat="54.47643" lon="16.98569">
        <ele>88.763446</ele>
        <time>2024-07-31T13:00:24.772Z</time>
      </trkpt>
      <trkpt lat="54.4764" lon="16.98587">
        <ele>88.765136</ele>
        <time>2024-07-31T13:00:26.779Z</time>
      </trkpt>
      <trkpt lat="54.47637" lon="16.98605">
        <ele>88.766781</ele>
        <time>2024-07-31T13:00:28.800Z</time>
      </trkpt>
      <trkpt lat="54.47635" lon="16.98624">
        <ele>88.768461</ele>
        <time>2024-07-31T13:00:30.787Z</time>
      </trkpt>
      <trkpt lat="54.47632" lon="16.98641">
        <ele>88.769996</ele>
        <time>2024-07-31T13:00:32.770Z</time>
      </trkpt>
      <trkpt lat="54.4763" lon="16.98657">
        <ele>88.77151</ele>
        <time>2024-07-31T13:00:34.782Z</time>
      </trkpt>
      <trkpt lat="54.47627" lon="16.98674">
        <ele>88.787482</ele>
        <time>2024-07-31T13:00:36.784Z</time>
      </trkpt>
      <trkpt lat="54.47625" lon="16.98691">
        <ele>88.806163</ele>
        <time>2024-07-31T13:00:38.789Z</time>
      </trkpt>
      <trkpt lat="54.47622" lon="16.98708">
        <ele>88.824837</ele>
        <time>2024-07-31T13:00:40.802Z</time>
      </trkpt>
      <trkpt lat="54.47619" lon="16.98726">
        <ele>88.843923</ele>
        <time>2024-07-31T13:00:42.766Z</time>
      </trkpt>
      <trkpt lat="54.47618" lon="16.98743">
        <ele>88.861545</ele>
        <time>2024-07-31T13:00:44.768Z</time>
      </trkpt>
      <trkpt lat="54.47615" lon="16.98759">
        <ele>88.879316</ele>
        <time>2024-07-31T13:00:46.799Z</time>
      </trkpt>
      <trkpt lat="54.47613" lon="16.98775">
        <ele>88.896794</ele>
        <time>2024-07-31T13:00:48.772Z</time>
      </trkpt>
      <trkpt lat="54.4761" lon="16.98792">
        <ele>88.914721</ele>
        <time>2024-07-31T13:00:50.781Z</time>
      </trkpt>
      <trkpt lat="54.47608" lon="16.98808">
        <ele>88.931487</ele>
        <time>2024-07-31T13:00:52.764Z</time>
      </trkpt>
      <trkpt lat="54.47606" lon="16.98823">
        <ele>88.948804</ele>
        <time>2024-07-31T13:00:54.783Z</time>
      </trkpt>
      <trkpt lat="54.47603" lon="16.98839">
        <ele>88.965688</ele>
        <time>2024-07-31T13:00:56.781Z</time>
      </trkpt>
      <trkpt lat="54.47601" lon="16.98854">
        <ele>88.981963</ele>
        <time>2024-07-31T13:00:58.793Z</time>
      </trkpt>
      <trkpt lat="54.47599" lon="16.98869">
        <ele>88.998328</ele>
        <time>2024-07-31T13:01:00.787Z</time>
      </trkpt>
      <trkpt lat="54.47596" lon="16.98885">
        <ele>89.015496</ele>
        <time>2024-07-31T13:01:02.792Z</time>
      </trkpt>
      <trkpt lat="54.47594" lon="16.98901">
        <ele>89.032828</ele>
        <time>2024-07-31T13:01:04.777Z</time>
      </trkpt>
      <trkpt lat="54.47591" lon="16.98917">
        <ele>89.049996</ele>
        <time>2024-07-31T13:01:06.779Z</time>
      </trkpt>
      <trkpt lat="54.47589" lon="16.98932">
        <ele>89.066493</ele>
        <time>2024-07-31T13:01:08.791Z</time>
      </trkpt>
      <trkpt lat="54.47587" lon="16.98948">
        <ele>89.08297</ele>
        <time>2024-07-31T13:01:10.771Z</time>
      </trkpt>
      <trkpt lat="54.47585" lon="16.98963">
        <ele>89.120608</ele>
        <time>2024-07-31T13:01:12.778Z</time>
      </trkpt>
      <trkpt lat="54.47583" lon="16.98979">
        <ele>89.214992</ele>
        <time>2024-07-31T13:01:14.779Z</time>
      </trkpt>
      <trkpt lat="54.47581" lon="16.98994">
        <ele>89.30625</ele>
        <time>2024-07-31T13:01:16.781Z</time>
      </trkpt>
      <trkpt lat="54.47578" lon="16.99017">
        <ele>89.44093</ele>
        <time>2024-07-31T13:01:19.781Z</time>
      </trkpt>
      <trkpt lat="54.47576" lon="16.99032">
        <ele>89.534709</ele>
        <time>2024-07-31T13:01:21.781Z</time>
      </trkpt>
      <trkpt lat="54.47573" lon="16.99055">
        <ele>89.671311</ele>
        <time>2024-07-31T13:01:24.753Z</time>
      </trkpt>
      <trkpt lat="54.47569" lon="16.99077">
        <ele>89.803894</ele>
        <time>2024-07-31T13:01:27.790Z</time>
      </trkpt>
      <trkpt lat="54.47566" lon="16.99098">
        <ele>89.932709</ele>
        <time>2024-07-31T13:01:30.775Z</time>
      </trkpt>
      <trkpt lat="54.47563" lon="16.9912">
        <ele>90.06518</ele>
        <time>2024-07-31T13:01:33.799Z</time>
      </trkpt>
      <trkpt lat="54.47559" lon="16.99142">
        <ele>90.201486</ele>
        <time>2024-07-31T13:01:36.777Z</time>
      </trkpt>
      <trkpt lat="54.47557" lon="16.99157">
        <ele>90.292428</ele>
        <time>2024-07-31T13:01:38.806Z</time>
      </trkpt>
      <trkpt lat="54.47553" lon="16.99179">
        <ele>90.424719</ele>
        <time>2024-07-31T13:01:41.780Z</time>
      </trkpt>
      <trkpt lat="54.4755" lon="16.99194">
        <ele>90.516774</ele>
        <time>2024-07-31T13:01:43.774Z</time>
      </trkpt>
      <trkpt lat="54.47548" lon="16.99209">
        <ele>90.60849</ele>
        <time>2024-07-31T13:01:45.768Z</time>
      </trkpt>
      <trkpt lat="54.47546" lon="16.99225">
        <ele>90.702594</ele>
        <time>2024-07-31T13:01:47.779Z</time>
      </trkpt>
      <trkpt lat="54.47543" lon="16.99246">
        <ele>90.828327</ele>
        <time>2024-07-31T13:01:50.795Z</time>
      </trkpt>
      <trkpt lat="54.4754" lon="16.9926">
        <ele>90.912668</ele>
        <time>2024-07-31T13:01:52.774Z</time>
      </trkpt>
      <trkpt lat="54.47535" lon="16.99273">
        <ele>90.934564</ele>
        <time>2024-07-31T13:01:54.767Z</time>
      </trkpt>
      <trkpt lat="54.47531" lon="16.99288">
        <ele>90.956648</ele>
        <time>2024-07-31T13:01:56.772Z</time>
      </trkpt>
      <trkpt lat="54.47529" lon="16.99303">
        <ele>90.978766</ele>
        <time>2024-07-31T13:01:58.799Z</time>
      </trkpt>
      <trkpt lat="54.47526" lon="16.99324">
        <ele>91.009196</ele>
        <time>2024-07-31T13:02:01.783Z</time>
      </trkpt>
      <trkpt lat="54.47522" lon="16.99346">
        <ele>91.0415</ele>
        <time>2024-07-31T13:02:04.764Z</time>
      </trkpt>
      <trkpt lat="54.47519" lon="16.99368">
        <ele>91.072942</ele>
        <time>2024-07-31T13:02:07.784Z</time>
      </trkpt>
      <trkpt lat="54.47516" lon="16.99383">
        <ele>91.095948</ele>
        <time>2024-07-31T13:02:09.797Z</time>
      </trkpt>
      <trkpt lat="54.47514" lon="16.99399">
        <ele>91.118164</ele>
        <time>2024-07-31T13:02:11.784Z</time>
      </trkpt>
      <trkpt lat="54.47512" lon="16.99414">
        <ele>91.140463</ele>
        <time>2024-07-31T13:02:13.787Z</time>
      </trkpt>
      <trkpt lat="54.4751" lon="16.99429">
        <ele>91.162463</ele>
        <time>2024-07-31T13:02:15.784Z</time>
      </trkpt>
      <trkpt lat="54.47507" lon="16.99445">
        <ele>91.184986</ele>
        <time>2024-07-31T13:02:17.789Z</time>
      </trkpt>
      <trkpt lat="54.47505" lon="16.9946">
        <ele>91.207308</ele>
        <time>2024-07-31T13:02:19.803Z</time>
      </trkpt>
      <trkpt lat="54.47502" lon="16.99475">
        <ele>91.229565</ele>
        <time>2024-07-31T13:02:21.786Z</time>
      </trkpt>
      <trkpt lat="54.47499" lon="16.99497">
        <ele>91.260482</ele>
        <time>2024-07-31T13:02:24.799Z</time>
      </trkpt>
      <trkpt lat="54.47496" lon="16.99519">
        <ele>91.293232</ele>
        <time>2024-07-31T13:02:27.772Z</time>
      </trkpt>
      <trkpt lat="54.47494" lon="16.99535">
        <ele>91.316355</ele>
        <time>2024-07-31T13:02:29.784Z</time>
      </trkpt>
      <trkpt lat="54.47491" lon="16.99552">
        <ele>91.340637</ele>
        <time>2024-07-31T13:02:31.772Z</time>
      </trkpt>
      <trkpt lat="54.47488" lon="16.9957">
        <ele>91.165799</ele>
        <time>2024-07-31T13:02:33.780Z</time>
      </trkpt>
      <trkpt lat="54.47486" lon="16.99588">
        <ele>90.961674</ele>
        <time>2024-07-31T13:02:35.803Z</time>
      </trkpt>
      <trkpt lat="54.47483" lon="16.99606">
        <ele>90.746582</ele>
        <time>2024-07-31T13:02:37.798Z</time>
      </trkpt>
      <trkpt lat="54.4748" lon="16.99625">
        <ele>90.52349</ele>
        <time>2024-07-31T13:02:39.785Z</time>
      </trkpt>
      <trkpt lat="54.47477" lon="16.99643">
        <ele>90.315574</ele>
        <time>2024-07-31T13:02:41.772Z</time>
      </trkpt>
      <trkpt lat="54.47475" lon="16.9966">
        <ele>90.110176</ele>
        <time>2024-07-31T13:02:43.772Z</time>
      </trkpt>
      <trkpt lat="54.47473" lon="16.99676">
        <ele>89.925227</ele>
        <time>2024-07-31T13:02:45.791Z</time>
      </trkpt>
      <trkpt lat="54.47467" lon="16.99695">
        <ele>89.692986</ele>
        <time>2024-07-31T13:02:48.777Z</time>
      </trkpt>
      <trkpt lat="54.47457" lon="16.997">
        <ele>89.473939</ele>
        <time>2024-07-31T13:02:52.770Z</time>
      </trkpt>
      <trkpt lat="54.4745" lon="16.99715">
        <ele>89.264245</ele>
        <time>2024-07-31T13:02:57.766Z</time>
      </trkpt>
      <trkpt lat="54.47449" lon="16.99733">
        <ele>89.061726</ele>
        <time>2024-07-31T13:03:01.797Z</time>
      </trkpt>
      <trkpt lat="54.47453" lon="16.99749">
        <ele>88.862518</ele>
        <time>2024-07-31T13:03:04.775Z</time>
      </trkpt>
      <trkpt lat="54.47459" lon="16.99768">
        <ele>88.618196</ele>
        <time>2024-07-31T13:03:07.780Z</time>
      </trkpt>
      <trkpt lat="54.47458" lon="16.99792">
        <ele>88.348387</ele>
        <time>2024-07-31T13:03:10.769Z</time>
      </trkpt>
      <trkpt lat="54.47456" lon="16.9981">
        <ele>88.139008</ele>
        <time>2024-07-31T13:03:12.769Z</time>
      </trkpt>
      <trkpt lat="54.47453" lon="16.9983">
        <ele>87.90777</ele>
        <time>2024-07-31T13:03:14.781Z</time>
      </trkpt>
      <trkpt lat="54.47449" lon="16.99851">
        <ele>87.624739</ele>
        <time>2024-07-31T13:03:16.755Z</time>
      </trkpt>
      <trkpt lat="54.47446" lon="16.99871">
        <ele>87.332813</ele>
        <time>2024-07-31T13:03:18.833Z</time>
      </trkpt>
      <trkpt lat="54.47443" lon="16.99892">
        <ele>87.046121</ele>
        <time>2024-07-31T13:03:20.780Z</time>
      </trkpt>
      <trkpt lat="54.4744" lon="16.9991">
        <ele>86.789126</ele>
        <time>2024-07-31T13:03:22.772Z</time>
      </trkpt>
      <trkpt lat="54.47439" lon="16.99929">
        <ele>86.536496</ele>
        <time>2024-07-31T13:03:24.767Z</time>
      </trkpt>
      <trkpt lat="54.47437" lon="16.99948">
        <ele>86.268793</ele>
        <time>2024-07-31T13:03:26.797Z</time>
      </trkpt>
      <trkpt lat="54.47435" lon="16.99969">
        <ele>85.980691</ele>
        <time>2024-07-31T13:03:28.813Z</time>
      </trkpt>
      <trkpt lat="54.47434" lon="16.9999">
        <ele>85.699599</ele>
        <time>2024-07-31T13:03:30.784Z</time>
      </trkpt>
      <trkpt lat="54.47432" lon="17.0001">
        <ele>85.424832</ele>
        <time>2024-07-31T13:03:32.771Z</time>
      </trkpt>
      <trkpt lat="54.47429" lon="17.00031">
        <ele>85.133256</ele>
        <time>2024-07-31T13:03:34.787Z</time>
      </trkpt>
      <trkpt lat="54.47429" lon="17.00051">
        <ele>84.86723</ele>
        <time>2024-07-31T13:03:36.783Z</time>
      </trkpt>
      <trkpt lat="54.47428" lon="17.0007">
        <ele>84.603319</ele>
        <time>2024-07-31T13:03:38.793Z</time>
      </trkpt>
      <trkpt lat="54.47424" lon="17.00086">
        <ele>84.370113</ele>
        <time>2024-07-31T13:03:40.776Z</time>
      </trkpt>
      <trkpt lat="54.47418" lon="17.00098">
        <ele>84.15572</ele>
        <time>2024-07-31T13:03:42.790Z</time>
      </trkpt>
      <trkpt lat="54.47415" lon="17.00116">
        <ele>83.904127</ele>
        <time>2024-07-31T13:03:45.787Z</time>
      </trkpt>
      <trkpt lat="54.47421" lon="17.00132">
        <ele>83.630329</ele>
        <time>2024-07-31T13:03:48.775Z</time>
      </trkpt>
      <trkpt lat="54.47422" lon="17.00148">
        <ele>83.32091</ele>
        <time>2024-07-31T13:03:50.784Z</time>
      </trkpt>
      <trkpt lat="54.47421" lon="17.00167">
        <ele>82.94738</ele>
        <time>2024-07-31T13:03:52.795Z</time>
      </trkpt>
      <trkpt lat="54.47419" lon="17.00188">
        <ele>82.547611</ele>
        <time>2024-07-31T13:03:54.768Z</time>
      </trkpt>
      <trkpt lat="54.47417" lon="17.00207">
        <ele>82.168925</ele>
        <time>2024-07-31T13:03:56.778Z</time>
      </trkpt>
      <trkpt lat="54.47415" lon="17.00228">
        <ele>81.765433</ele>
        <time>2024-07-31T13:03:58.800Z</time>
      </trkpt>
      <trkpt lat="54.47413" lon="17.0025">
        <ele>81.338759</ele>
        <time>2024-07-31T13:04:00.780Z</time>
      </trkpt>
      <trkpt lat="54.47411" lon="17.0027">
        <ele>80.943427</ele>
        <time>2024-07-31T13:04:02.780Z</time>
      </trkpt>
      <trkpt lat="54.47411" lon="17.00293">
        <ele>80.510699</ele>
        <time>2024-07-31T13:04:04.784Z</time>
      </trkpt>
      <trkpt lat="54.47409" lon="17.00316">
        <ele>80.055038</ele>
        <time>2024-07-31T13:04:06.777Z</time>
      </trkpt>
      <trkpt lat="54.47407" lon="17.00338">
        <ele>79.645634</ele>
        <time>2024-07-31T13:04:08.805Z</time>
      </trkpt>
      <trkpt lat="54.47407" lon="17.0036">
        <ele>79.213525</ele>
        <time>2024-07-31T13:04:10.759Z</time>
      </trkpt>
      <trkpt lat="54.47406" lon="17.00382">
        <ele>78.780489</ele>
        <time>2024-07-31T13:04:12.782Z</time>
      </trkpt>
      <trkpt lat="54.47406" lon="17.00406">
        <ele>78.33474</ele>
        <time>2024-07-31T13:04:14.761Z</time>
      </trkpt>
      <trkpt lat="54.47403" lon="17.00431">
        <ele>77.844843</ele>
        <time>2024-07-31T13:04:16.782Z</time>
      </trkpt>
      <trkpt lat="54.47398" lon="17.00455">
        <ele>77.468116</ele>
        <time>2024-07-31T13:04:18.777Z</time>
      </trkpt>
      <trkpt lat="54.47392" lon="17.00479">
        <ele>77.139923</ele>
        <time>2024-07-31T13:04:20.786Z</time>
      </trkpt>
      <trkpt lat="54.4739" lon="17.00502">
        <ele>76.846116</ele>
        <time>2024-07-31T13:04:22.781Z</time>
      </trkpt>
      <trkpt lat="54.47387" lon="17.00526">
        <ele>76.547338</ele>
        <time>2024-07-31T13:04:24.773Z</time>
      </trkpt>
      <trkpt lat="54.47386" lon="17.00547">
        <ele>76.278595</ele>
        <time>2024-07-31T13:04:26.784Z</time>
      </trkpt>
      <trkpt lat="54.47385" lon="17.00566">
        <ele>76.036807</ele>
        <time>2024-07-31T13:04:28.797Z</time>
      </trkpt>
      <trkpt lat="54.47382" lon="17.00582">
        <ele>75.824486</ele>
        <time>2024-07-31T13:04:30.778Z</time>
      </trkpt>
      <trkpt lat="54.47372" lon="17.00595">
        <ele>75.560754</ele>
        <time>2024-07-31T13:04:33.784Z</time>
      </trkpt>
      <trkpt lat="54.47365" lon="17.00605">
        <ele>75.359709</ele>
        <time>2024-07-31T13:04:36.769Z</time>
      </trkpt>
      <trkpt lat="54.47364" lon="17.00622">
        <ele>75.136203</ele>
        <time>2024-07-31T13:04:39.785Z</time>
      </trkpt>
      <trkpt lat="54.4737" lon="17.00634">
        <ele>74.940092</ele>
        <time>2024-07-31T13:04:42.766Z</time>
      </trkpt>
      <trkpt lat="54.47375" lon="17.00652">
        <ele>74.689774</ele>
        <time>2024-07-31T13:04:45.772Z</time>
      </trkpt>
      <trkpt lat="54.47375" lon="17.00674">
        <ele>74.40947</ele>
        <time>2024-07-31T13:04:48.780Z</time>
      </trkpt>
      <trkpt lat="54.47375" lon="17.00692">
        <ele>74.185815</ele>
        <time>2024-07-31T13:04:50.777Z</time>
      </trkpt>
      <trkpt lat="54.47374" lon="17.00711">
        <ele>73.940236</ele>
        <time>2024-07-31T13:04:52.787Z</time>
      </trkpt>
      <trkpt lat="54.47372" lon="17.00733">
        <ele>73.547472</ele>
        <time>2024-07-31T13:04:54.785Z</time>
      </trkpt>
      <trkpt lat="54.47368" lon="17.00753">
        <ele>73.015469</ele>
        <time>2024-07-31T13:04:56.781Z</time>
      </trkpt>
      <trkpt lat="54.47365" lon="17.00775">
        <ele>72.480593</ele>
        <time>2024-07-31T13:04:58.809Z</time>
      </trkpt>
      <trkpt lat="54.47364" lon="17.00796">
        <ele>71.978953</ele>
        <time>2024-07-31T13:05:00.767Z</time>
      </trkpt>
      <trkpt lat="54.47363" lon="17.00819">
        <ele>71.427492</ele>
        <time>2024-07-31T13:05:02.778Z</time>
      </trkpt>
      <trkpt lat="54.47361" lon="17.00842">
        <ele>70.871779</ele>
        <time>2024-07-31T13:05:04.776Z</time>
      </trkpt>
      <trkpt lat="54.47359" lon="17.00864">
        <ele>70.32256</ele>
        <time>2024-07-31T13:05:06.772Z</time>
      </trkpt>
      <trkpt lat="54.47357" lon="17.00885">
        <ele>69.806571</ele>
        <time>2024-07-31T13:05:08.764Z</time>
      </trkpt>
      <trkpt lat="54.47357" lon="17.00906">
        <ele>69.300242</ele>
        <time>2024-07-31T13:05:10.784Z</time>
      </trkpt>
      <trkpt lat="54.47354" lon="17.00928">
        <ele>68.76752</ele>
        <time>2024-07-31T13:05:12.778Z</time>
      </trkpt>
      <trkpt lat="54.47352" lon="17.0095">
        <ele>68.232727</ele>
        <time>2024-07-31T13:05:14.773Z</time>
      </trkpt>
      <trkpt lat="54.4735" lon="17.00975">
        <ele>67.636398</ele>
        <time>2024-07-31T13:05:16.818Z</time>
      </trkpt>
      <trkpt lat="54.47349" lon="17.01">
        <ele>67.019044</ele>
        <time>2024-07-31T13:05:18.805Z</time>
      </trkpt>
      <trkpt lat="54.47347" lon="17.01024">
        <ele>66.444337</ele>
        <time>2024-07-31T13:05:20.790Z</time>
      </trkpt>
      <trkpt lat="54.47344" lon="17.01048">
        <ele>65.952229</ele>
        <time>2024-07-31T13:05:22.792Z</time>
      </trkpt>
      <trkpt lat="54.47339" lon="17.01073">
        <ele>65.472488</ele>
        <time>2024-07-31T13:05:24.773Z</time>
      </trkpt>
      <trkpt lat="54.47335" lon="17.01097">
        <ele>65.004285</ele>
        <time>2024-07-31T13:05:26.784Z</time>
      </trkpt>
      <trkpt lat="54.47332" lon="17.01124">
        <ele>64.499234</ele>
        <time>2024-07-31T13:05:28.798Z</time>
      </trkpt>
      <trkpt lat="54.47328" lon="17.0115">
        <ele>64.002849</ele>
        <time>2024-07-31T13:05:30.787Z</time>
      </trkpt>
      <trkpt lat="54.47326" lon="17.01169">
        <ele>63.64214</ele>
        <time>2024-07-31T13:05:32.789Z</time>
      </trkpt>
      <trkpt lat="54.47324" lon="17.01191">
        <ele>63.228084</ele>
        <time>2024-07-31T13:05:35.783Z</time>
      </trkpt>
      <trkpt lat="54.47322" lon="17.01212">
        <ele>62.833673</ele>
        <time>2024-07-31T13:05:38.798Z</time>
      </trkpt>
      <trkpt lat="54.4732" lon="17.01234">
        <ele>62.421529</ele>
        <time>2024-07-31T13:05:41.796Z</time>
      </trkpt>
      <trkpt lat="54.47316" lon="17.01248">
        <ele>62.126979</ele>
        <time>2024-07-31T13:05:43.787Z</time>
      </trkpt>
      <trkpt lat="54.47306" lon="17.01262">
        <ele>61.708637</ele>
        <time>2024-07-31T13:05:46.785Z</time>
      </trkpt>
      <trkpt lat="54.47296" lon="17.01264">
        <ele>61.406353</ele>
        <time>2024-07-31T13:05:49.781Z</time>
      </trkpt>
      <trkpt lat="54.47287" lon="17.01271">
        <ele>61.076065</ele>
        <time>2024-07-31T13:05:53.770Z</time>
      </trkpt>
      <trkpt lat="54.47278" lon="17.01275">
        <ele>60.789313</ele>
        <time>2024-07-31T13:05:56.779Z</time>
      </trkpt>
      <trkpt lat="54.47273" lon="17.01293">
        <ele>60.462744</ele>
        <time>2024-07-31T13:06:01.783Z</time>
      </trkpt>
      <trkpt lat="54.47274" lon="17.01309">
        <ele>60.231324</ele>
        <time>2024-07-31T13:06:04.768Z</time>
      </trkpt>
      <trkpt lat="54.47274" lon="17.01325">
        <ele>59.995805</ele>
        <time>2024-07-31T13:06:07.768Z</time>
      </trkpt>
      <trkpt lat="54.47282" lon="17.01339">
        <ele>59.695021</ele>
        <time>2024-07-31T13:06:11.775Z</time>
      </trkpt>
      <trkpt lat="54.47291" lon="17.01344">
        <ele>59.459541</ele>
        <time>2024-07-31T13:06:13.777Z</time>
      </trkpt>
      <trkpt lat="54.473" lon="17.01361">
        <ele>59.132332</ele>
        <time>2024-07-31T13:06:16.761Z</time>
      </trkpt>
      <trkpt lat="54.47299" lon="17.01377">
        <ele>58.892428</ele>
        <time>2024-07-31T13:06:18.795Z</time>
      </trkpt>
      <trkpt lat="54.47296" lon="17.01394">
        <ele>58.634453</ele>
        <time>2024-07-31T13:06:20.777Z</time>
      </trkpt>
      <trkpt lat="54.47293" lon="17.01411">
        <ele>58.377411</ele>
        <time>2024-07-31T13:06:22.767Z</time>
      </trkpt>
      <trkpt lat="54.4729" lon="17.01429">
        <ele>58.1006</ele>
        <time>2024-07-31T13:06:24.788Z</time>
      </trkpt>
      <trkpt lat="54.47287" lon="17.01446">
        <ele>57.836545</ele>
        <time>2024-07-31T13:06:26.783Z</time>
      </trkpt>
      <trkpt lat="54.47285" lon="17.01463">
        <ele>57.582873</ele>
        <time>2024-07-31T13:06:28.787Z</time>
      </trkpt>
      <trkpt lat="54.47283" lon="17.0148">
        <ele>57.33012</ele>
        <time>2024-07-31T13:06:30.769Z</time>
      </trkpt>
      <trkpt lat="54.47282" lon="17.01498">
        <ele>57.070952</ele>
        <time>2024-07-31T13:06:32.770Z</time>
      </trkpt>
      <trkpt lat="54.47279" lon="17.01515">
        <ele>56.813907</ele>
        <time>2024-07-31T13:06:34.761Z</time>
      </trkpt>
      <trkpt lat="54.47277" lon="17.01533">
        <ele>56.54354</ele>
        <time>2024-07-31T13:06:36.771Z</time>
      </trkpt>
      <trkpt lat="54.47274" lon="17.01551">
        <ele>56.268281</ele>
        <time>2024-07-31T13:06:38.802Z</time>
      </trkpt>
      <trkpt lat="54.47273" lon="17.01569">
        <ele>56.037863</ele>
        <time>2024-07-31T13:06:40.781Z</time>
      </trkpt>
      <trkpt lat="54.47271" lon="17.01587">
        <ele>55.895249</ele>
        <time>2024-07-31T13:06:42.785Z</time>
      </trkpt>
      <trkpt lat="54.47269" lon="17.01605">
        <ele>55.758651</ele>
        <time>2024-07-31T13:06:44.777Z</time>
      </trkpt>
      <trkpt lat="54.47267" lon="17.01622">
        <ele>55.624272</ele>
        <time>2024-07-31T13:06:46.790Z</time>
      </trkpt>
      <trkpt lat="54.47265" lon="17.0164">
        <ele>55.488219</ele>
        <time>2024-07-31T13:06:48.791Z</time>
      </trkpt>
      <trkpt lat="54.47264" lon="17.01657">
        <ele>55.355121</ele>
        <time>2024-07-31T13:06:50.779Z</time>
      </trkpt>
      <trkpt lat="54.47262" lon="17.01673">
        <ele>55.227529</ele>
        <time>2024-07-31T13:06:52.777Z</time>
      </trkpt>
      <trkpt lat="54.47259" lon="17.01688">
        <ele>55.108301</ele>
        <time>2024-07-31T13:06:54.795Z</time>
      </trkpt>
      <trkpt lat="54.47257" lon="17.01711">
        <ele>54.929072</ele>
        <time>2024-07-31T13:06:57.761Z</time>
      </trkpt>
      <trkpt lat="54.47255" lon="17.01728">
        <ele>54.80148</ele>
        <time>2024-07-31T13:06:59.780Z</time>
      </trkpt>
      <trkpt lat="54.47253" lon="17.01743">
        <ele>54.6794</ele>
        <time>2024-07-31T13:07:01.782Z</time>
      </trkpt>
      <trkpt lat="54.47252" lon="17.01759">
        <ele>54.557941</ele>
        <time>2024-07-31T13:07:03.757Z</time>
      </trkpt>
      <trkpt lat="54.4725" lon="17.01776">
        <ele>54.426045</ele>
        <time>2024-07-31T13:07:05.795Z</time>
      </trkpt>
      <trkpt lat="54.47247" lon="17.01794">
        <ele>54.278146</ele>
        <time>2024-07-31T13:07:07.789Z</time>
      </trkpt>
      <trkpt lat="54.47242" lon="17.01812">
        <ele>54.127543</ele>
        <time>2024-07-31T13:07:09.764Z</time>
      </trkpt>
      <trkpt lat="54.47237" lon="17.0183">
        <ele>53.975305</ele>
        <time>2024-07-31T13:07:11.791Z</time>
      </trkpt>
      <trkpt lat="54.47232" lon="17.01847">
        <ele>53.828167</ele>
        <time>2024-07-31T13:07:13.770Z</time>
      </trkpt>
      <trkpt lat="54.47228" lon="17.01863">
        <ele>53.686342</ele>
        <time>2024-07-31T13:07:15.773Z</time>
      </trkpt>
      <trkpt lat="54.47222" lon="17.01878">
        <ele>53.447775</ele>
        <time>2024-07-31T13:07:17.773Z</time>
      </trkpt>
      <trkpt lat="54.47216" lon="17.0189">
        <ele>53.229189</ele>
        <time>2024-07-31T13:07:19.770Z</time>
      </trkpt>
      <trkpt lat="54.47208" lon="17.019">
        <ele>53.001753</ele>
        <time>2024-07-31T13:07:21.773Z</time>
      </trkpt>
      <trkpt lat="54.47199" lon="17.01913">
        <ele>52.719475</ele>
        <time>2024-07-31T13:07:24.770Z</time>
      </trkpt>
      <trkpt lat="54.47193" lon="17.01931">
        <ele>52.456187</ele>
        <time>2024-07-31T13:07:28.774Z</time>
      </trkpt>
      <trkpt lat="54.4719" lon="17.01948">
        <ele>52.206181</ele>
        <time>2024-07-31T13:07:31.780Z</time>
      </trkpt>
      <trkpt lat="54.47191" lon="17.01965">
        <ele>51.985302</ele>
        <time>2024-07-31T13:07:35.758Z</time>
      </trkpt>
      <trkpt lat="54.47188" lon="17.01985">
        <ele>51.708403</ele>
        <time>2024-07-31T13:07:39.772Z</time>
      </trkpt>
      <trkpt lat="54.47186" lon="17.02002">
        <ele>51.466744</ele>
        <time>2024-07-31T13:07:42.761Z</time>
      </trkpt>
      <trkpt lat="54.47182" lon="17.02022">
        <ele>51.18881</ele>
        <time>2024-07-31T13:07:45.787Z</time>
      </trkpt>
      <trkpt lat="54.47179" lon="17.02044">
        <ele>50.882844</ele>
        <time>2024-07-31T13:07:48.781Z</time>
      </trkpt>
      <trkpt lat="54.47177" lon="17.02061">
        <ele>50.6402</ele>
        <time>2024-07-31T13:07:51.777Z</time>
      </trkpt>
      <trkpt lat="54.47169" lon="17.02073">
        <ele>50.401978</ele>
        <time>2024-07-31T13:07:55.778Z</time>
      </trkpt>
      <trkpt lat="54.47171" lon="17.02089">
        <ele>50.183011</ele>
        <time>2024-07-31T13:08:00.771Z</time>
      </trkpt>
      <trkpt lat="54.47171" lon="17.02108">
        <ele>49.924611</ele>
        <time>2024-07-31T13:08:04.769Z</time>
      </trkpt>
      <trkpt lat="54.47167" lon="17.02126">
        <ele>49.658738</ele>
        <time>2024-07-31T13:08:07.766Z</time>
      </trkpt>
      <trkpt lat="54.47164" lon="17.02146">
        <ele>49.444423</ele>
        <time>2024-07-31T13:08:10.765Z</time>
      </trkpt>
      <trkpt lat="54.4716" lon="17.02166">
        <ele>49.284959</ele>
        <time>2024-07-31T13:08:13.783Z</time>
      </trkpt>
      <trkpt lat="54.47156" lon="17.02186">
        <ele>49.130474</ele>
        <time>2024-07-31T13:08:16.779Z</time>
      </trkpt>
      <trkpt lat="54.47153" lon="17.02206">
        <ele>48.976345</ele>
        <time>2024-07-31T13:08:19.762Z</time>
      </trkpt>
      <trkpt lat="54.4715" lon="17.02225">
        <ele>48.827989</ele>
        <time>2024-07-31T13:08:22.783Z</time>
      </trkpt>
      <trkpt lat="54.47147" lon="17.02242">
        <ele>48.693227</ele>
        <time>2024-07-31T13:08:25.777Z</time>
      </trkpt>
      <trkpt lat="54.47144" lon="17.02259">
        <ele>48.563431</ele>
        <time>2024-07-31T13:08:28.788Z</time>
      </trkpt>
      <trkpt lat="54.47138" lon="17.02272">
        <ele>48.437586</ele>
        <time>2024-07-31T13:08:32.768Z</time>
      </trkpt>
      <trkpt lat="54.47142" lon="17.0229">
        <ele>48.294834</ele>
        <time>2024-07-31T13:08:43.762Z</time>
      </trkpt>
      <trkpt lat="54.47139" lon="17.02307">
        <ele>48.164418</ele>
        <time>2024-07-31T13:08:46.781Z</time>
      </trkpt>
      <trkpt lat="54.47136" lon="17.02328">
        <ele>48.00353</ele>
        <time>2024-07-31T13:08:49.777Z</time>
      </trkpt>
      <trkpt lat="54.47134" lon="17.02343">
        <ele>47.888158</ele>
        <time>2024-07-31T13:08:51.775Z</time>
      </trkpt>
      <trkpt lat="54.47131" lon="17.02358">
        <ele>47.770983</ele>
        <time>2024-07-31T13:08:53.765Z</time>
      </trkpt>
      <trkpt lat="54.47127" lon="17.02372">
        <ele>47.651446</ele>
        <time>2024-07-31T13:08:55.783Z</time>
      </trkpt>
      <trkpt lat="54.47123" lon="17.02392">
        <ele>47.492321</ele>
        <time>2024-07-31T13:08:58.785Z</time>
      </trkpt>
      <trkpt lat="54.4712" lon="17.02411">
        <ele>47.351746</ele>
        <time>2024-07-31T13:09:01.798Z</time>
      </trkpt>
      <trkpt lat="54.47117" lon="17.02429">
        <ele>47.209278</ele>
        <time>2024-07-31T13:09:04.778Z</time>
      </trkpt>
      <trkpt lat="54.47114" lon="17.02447">
        <ele>47.009752</ele>
        <time>2024-07-31T13:09:07.789Z</time>
      </trkpt>
      <trkpt lat="54.47112" lon="17.02466">
        <ele>46.803987</ele>
        <time>2024-07-31T13:09:10.816Z</time>
      </trkpt>
      <trkpt lat="54.47109" lon="17.02482">
        <ele>46.623925</ele>
        <time>2024-07-31T13:09:13.770Z</time>
      </trkpt>
      <trkpt lat="54.47106" lon="17.025">
        <ele>46.425388</ele>
        <time>2024-07-31T13:09:16.780Z</time>
      </trkpt>
      <trkpt lat="54.47103" lon="17.02516">
        <ele>46.241532</ele>
        <time>2024-07-31T13:09:19.780Z</time>
      </trkpt>
      <trkpt lat="54.47097" lon="17.02531">
        <ele>46.046135</ele>
        <time>2024-07-31T13:09:23.781Z</time>
      </trkpt>
      <trkpt lat="54.47091" lon="17.02544">
        <ele>45.870003</ele>
        <time>2024-07-31T13:09:29.783Z</time>
      </trkpt>
      <trkpt lat="54.4709" lon="17.0256">
        <ele>45.699342</ele>
        <time>2024-07-31T13:09:33.775Z</time>
      </trkpt>
      <trkpt lat="54.47086" lon="17.02575">
        <ele>45.518281</ele>
        <time>2024-07-31T13:09:37.770Z</time>
      </trkpt>
      <trkpt lat="54.47082" lon="17.02591">
        <ele>45.331173</ele>
        <time>2024-07-31T13:09:42.795Z</time>
      </trkpt>
      <trkpt lat="54.47086" lon="17.02622">
        <ele>45.002037</ele>
        <time>2024-07-31T13:10:07.765Z</time>
      </trkpt>
      <trkpt lat="54.47087" lon="17.02639">
        <ele>44.81258</ele>
        <time>2024-07-31T13:10:12.787Z</time>
      </trkpt>
      <trkpt lat="54.47083" lon="17.02656">
        <ele>44.616947</ele>
        <time>2024-07-31T13:10:16.762Z</time>
      </trkpt>
      <trkpt lat="54.4708" lon="17.02672">
        <ele>44.437325</ele>
        <time>2024-07-31T13:10:19.784Z</time>
      </trkpt>
      <trkpt lat="54.47077" lon="17.0269">
        <ele>44.235683</ele>
        <time>2024-07-31T13:10:22.775Z</time>
      </trkpt>
      <trkpt lat="54.47073" lon="17.02707">
        <ele>44.03832</ele>
        <time>2024-07-31T13:10:25.777Z</time>
      </trkpt>
      <trkpt lat="54.47069" lon="17.02723">
        <ele>43.929986</ele>
        <time>2024-07-31T13:10:28.799Z</time>
      </trkpt>
      <trkpt lat="54.47066" lon="17.0274">
        <ele>44.063787</ele>
        <time>2024-07-31T13:10:31.789Z</time>
      </trkpt>
      <trkpt lat="54.47072" lon="17.02755">
        <ele>44.211314</ele>
        <time>2024-07-31T13:10:35.770Z</time>
      </trkpt>
      <trkpt lat="54.47081" lon="17.02767">
        <ele>44.356492</ele>
        <time>2024-07-31T13:10:39.766Z</time>
      </trkpt>
      <trkpt lat="54.47077" lon="17.02785">
        <ele>44.505965</ele>
        <time>2024-07-31T13:10:43.770Z</time>
      </trkpt>
      <trkpt lat="54.47074" lon="17.02799">
        <ele>44.628947</ele>
        <time>2024-07-31T13:10:46.776Z</time>
      </trkpt>
      <trkpt lat="54.4707" lon="17.02815">
        <ele>44.762937</ele>
        <time>2024-07-31T13:10:50.780Z</time>
      </trkpt>
      <trkpt lat="54.47067" lon="17.0283">
        <ele>44.888084</ele>
        <time>2024-07-31T13:10:56.772Z</time>
      </trkpt>
      <trkpt lat="54.47055" lon="17.02834">
        <ele>45.053361</ele>
        <time>2024-07-31T13:11:00.799Z</time>
      </trkpt>
      <trkpt lat="54.47044" lon="17.02838">
        <ele>45.204832</ele>
        <time>2024-07-31T13:11:03.783Z</time>
      </trkpt>
      <trkpt lat="54.47033" lon="17.02843">
        <ele>45.365594</ele>
        <time>2024-07-31T13:11:06.790Z</time>
      </trkpt>
      <trkpt lat="54.47022" lon="17.02849">
        <ele>45.514752</ele>
        <time>2024-07-31T13:11:09.757Z</time>
      </trkpt>
      <trkpt lat="54.47012" lon="17.02854">
        <ele>45.66548</ele>
        <time>2024-07-31T13:11:12.771Z</time>
      </trkpt>
      <trkpt lat="54.47002" lon="17.02862">
        <ele>45.819088</ele>
        <time>2024-07-31T13:11:15.803Z</time>
      </trkpt>
      <trkpt lat="54.4699" lon="17.02868">
        <ele>45.979222</ele>
        <time>2024-07-31T13:11:18.810Z</time>
      </trkpt>
      <trkpt lat="54.4698" lon="17.02873">
        <ele>46.132788</ele>
        <time>2024-07-31T13:11:21.793Z</time>
      </trkpt>
      <trkpt lat="54.46969" lon="17.0288">
        <ele>46.283614</ele>
        <time>2024-07-31T13:11:24.799Z</time>
      </trkpt>
      <trkpt lat="54.4696" lon="17.02888">
        <ele>46.34682</ele>
        <time>2024-07-31T13:11:27.805Z</time>
      </trkpt>
      <trkpt lat="54.46953" lon="17.02901">
        <ele>46.34682</ele>
        <time>2024-07-31T13:11:30.781Z</time>
      </trkpt>
      <trkpt lat="54.46949" lon="17.02916">
        <ele>46.34682</ele>
        <time>2024-07-31T13:11:35.783Z</time>
      </trkpt>
      <trkpt lat="54.46941" lon="17.02929">
        <ele>46.34682</ele>
        <time>2024-07-31T13:11:40.772Z</time>
      </trkpt>
      <trkpt lat="54.46935" lon="17.02945">
        <ele>46.34682</ele>
        <time>2024-07-31T13:11:44.781Z</time>
      </trkpt>
      <trkpt lat="54.46929" lon="17.02958">
        <ele>46.34682</ele>
        <time>2024-07-31T13:11:49.773Z</time>
      </trkpt>
      <trkpt lat="54.46931" lon="17.02975">
        <ele>46.34682</ele>
        <time>2024-07-31T13:12:06.761Z</time>
      </trkpt>
      <trkpt lat="54.46943" lon="17.0298">
        <ele>46.34682</ele>
        <time>2024-07-31T13:12:09.814Z</time>
      </trkpt>
      <trkpt lat="54.46952" lon="17.02986">
        <ele>46.34682</ele>
        <time>2024-07-31T13:12:11.778Z</time>
      </trkpt>
      <trkpt lat="54.46958" lon="17.02998">
        <ele>46.34682</ele>
        <time>2024-07-31T13:12:14.767Z</time>
      </trkpt>
      <trkpt lat="54.46962" lon="17.03016">
        <ele>46.34682</ele>
        <time>2024-07-31T13:12:17.778Z</time>
      </trkpt>
      <trkpt lat="54.46965" lon="17.03034">
        <ele>46.34682</ele>
        <time>2024-07-31T13:12:20.779Z</time>
      </trkpt>
      <trkpt lat="54.46968" lon="17.03052">
        <ele>46.34682</ele>
        <time>2024-07-31T13:12:23.763Z</time>
      </trkpt>
      <trkpt lat="54.46973" lon="17.03072">
        <ele>46.34682</ele>
        <time>2024-07-31T13:12:26.784Z</time>
      </trkpt>
      <trkpt lat="54.46977" lon="17.03094">
        <ele>46.34682</ele>
        <time>2024-07-31T13:12:29.778Z</time>
      </trkpt>
      <trkpt lat="54.46982" lon="17.03113">
        <ele>46.34682</ele>
        <time>2024-07-31T13:12:32.784Z</time>
      </trkpt>
      <trkpt lat="54.46987" lon="17.03132">
        <ele>46.34682</ele>
        <time>2024-07-31T13:12:35.786Z</time>
      </trkpt>
      <trkpt lat="54.4699" lon="17.03149">
        <ele>46.34682</ele>
        <time>2024-07-31T13:12:38.769Z</time>
      </trkpt>
      <trkpt lat="54.46993" lon="17.03166">
        <ele>46.34682</ele>
        <time>2024-07-31T13:12:41.777Z</time>
      </trkpt>
      <trkpt lat="54.46996" lon="17.03181">
        <ele>46.34682</ele>
        <time>2024-07-31T13:12:44.766Z</time>
      </trkpt>
      <trkpt lat="54.46996" lon="17.03198">
        <ele>46.34682</ele>
        <time>2024-07-31T13:12:48.812Z</time>
      </trkpt>
      <trkpt lat="54.46999" lon="17.03213">
        <ele>46.34682</ele>
        <time>2024-07-31T13:12:56.772Z</time>
      </trkpt>
    </trkseg>
  </trk>
</gpx>